<?xml version="1.0" encoding="UTF-8" standalone="no" ?>
<gpx xmlns="http://www.topografix.com/GPX/1/1" xmlns:xsi="http://www.w3.org/2001/XMLSchema-instance" xsi:schemaLocation="http://www.topografix.com/GPX/1/1 http://www.topografix.com/GPX/1/1/gpx.xsd" version="1.1" creator="VisuGPX - https://www.visugpx.com">
  <metadata>
    <name>Le Vernois un peu CraCra</name>
    <desc><![CDATA[Le Vernois un peu CraCra]]></desc>
  </metadata>
  <wpt lat="47.49251" lon="6.75847">
    <ele>316</ele>
    <name><![CDATA[Point de cheminement 1]]></name>
    <desc><![CDATA[]]></desc>
  </wpt>
  <wpt lat="47.49798" lon="6.73225">
    <ele>337</ele>
    <name><![CDATA[Point de cheminement 2]]></name>
    <desc><![CDATA[]]></desc>
  </wpt>
  <wpt lat="47.51341" lon="6.72264">
    <ele>425</ele>
    <name><![CDATA[Point de cheminement 3]]></name>
    <desc><![CDATA[]]></desc>
  </wpt>
  <wpt lat="47.52778" lon="6.70582">
    <ele>348</ele>
    <name><![CDATA[Point de cheminement 4]]></name>
    <desc><![CDATA[]]></desc>
  </wpt>
  <wpt lat="47.5309" lon="6.68779">
    <ele>366</ele>
    <name><![CDATA[Point de cheminement 5]]></name>
    <desc><![CDATA[]]></desc>
  </wpt>
  <wpt lat="47.54069" lon="6.67613">
    <ele>382</ele>
    <name><![CDATA[Point de cheminement 6]]></name>
    <desc><![CDATA[]]></desc>
  </wpt>
  <wpt lat="47.55722" lon="6.66983">
    <ele>502</ele>
    <name><![CDATA[Point de cheminement 7]]></name>
    <desc><![CDATA[]]></desc>
  </wpt>
  <wpt lat="47.53521" lon="6.65161">
    <ele>469</ele>
    <name><![CDATA[Point de cheminement 8]]></name>
    <desc><![CDATA[]]></desc>
  </wpt>
  <wpt lat="47.52523" lon="6.69027">
    <ele>361</ele>
    <name><![CDATA[Point de cheminement 9]]></name>
    <desc><![CDATA[]]></desc>
  </wpt>
  <wpt lat="47.51267" lon="6.71012">
    <ele>456</ele>
    <name><![CDATA[Point de cheminement 10]]></name>
    <desc><![CDATA[]]></desc>
  </wpt>
  <wpt lat="47.50704" lon="6.75503">
    <ele>346</ele>
    <name><![CDATA[Point de cheminement 11]]></name>
    <desc><![CDATA[]]></desc>
  </wpt>
  <wpt lat="47.51807" lon="6.7748">
    <ele>388</ele>
    <name><![CDATA[Point de cheminement 12]]></name>
    <desc><![CDATA[]]></desc>
  </wpt>
  <trk>
    <name><![CDATA[Rue Antoine Coysevox]]></name>
    <desc><![CDATA[]]></desc>
    <trkseg>
      <trkpt lat="47.51772" lon="6.77428">
        <ele>388</ele>
        <time>2015-11-29T08:16:55.736Z</time>
      </trkpt>
      <trkpt lat="47.51778" lon="6.77427">
        <ele>388</ele>
        <time>2015-11-29T08:16:56.720Z</time>
      </trkpt>
      <trkpt lat="47.51794" lon="6.77518">
        <ele>389</ele>
        <time>2015-11-29T08:16:57.000Z</time>
      </trkpt>
      <trkpt lat="47.51797" lon="6.7752">
        <ele>389</ele>
        <time>2015-11-29T08:16:59.000Z</time>
      </trkpt>
      <trkpt lat="47.51799" lon="6.77521">
        <ele>389</ele>
        <time>2015-11-29T08:17:00.000Z</time>
      </trkpt>
      <trkpt lat="47.51801" lon="6.77525">
        <ele>389</ele>
        <time>2015-11-29T08:17:03.000Z</time>
      </trkpt>
      <trkpt lat="47.51802" lon="6.77526">
        <ele>389</ele>
        <time>2015-11-29T08:17:04.000Z</time>
      </trkpt>
      <trkpt lat="47.51802" lon="6.77525">
        <ele>389</ele>
        <time>2015-11-29T08:17:06.000Z</time>
      </trkpt>
      <trkpt lat="47.51801" lon="6.77514">
        <ele>389</ele>
        <time>2015-11-29T08:17:07.000Z</time>
      </trkpt>
      <trkpt lat="47.51802" lon="6.77508">
        <ele>389</ele>
        <time>2015-11-29T08:17:08.000Z</time>
      </trkpt>
      <trkpt lat="47.51806" lon="6.77509">
        <ele>389</ele>
        <time>2015-11-29T08:17:09.000Z</time>
      </trkpt>
      <trkpt lat="47.51808" lon="6.77504">
        <ele>389</ele>
        <time>2015-11-29T08:18:19.000Z</time>
      </trkpt>
      <trkpt lat="47.51811" lon="6.77495">
        <ele>388</ele>
        <time>2015-11-29T08:18:20.000Z</time>
      </trkpt>
      <trkpt lat="47.51814" lon="6.77496">
        <ele>387</ele>
        <time>2015-11-29T08:18:22.000Z</time>
      </trkpt>
      <trkpt lat="47.51815" lon="6.77499">
        <ele>387</ele>
        <time>2015-11-29T08:18:23.000Z</time>
      </trkpt>
      <trkpt lat="47.51814" lon="6.77503">
        <ele>388</ele>
        <time>2015-11-29T08:18:26.000Z</time>
      </trkpt>
      <trkpt lat="47.51812" lon="6.77505">
        <ele>388</ele>
        <time>2015-11-29T08:18:27.000Z</time>
      </trkpt>
      <trkpt lat="47.51808" lon="6.77503">
        <ele>389</ele>
        <time>2015-11-29T08:18:28.000Z</time>
      </trkpt>
      <trkpt lat="47.51806" lon="6.77503">
        <ele>389</ele>
        <time>2015-11-29T08:18:29.000Z</time>
      </trkpt>
      <trkpt lat="47.51803" lon="6.77503">
        <ele>389</ele>
        <time>2015-11-29T08:18:30.000Z</time>
      </trkpt>
      <trkpt lat="47.518" lon="6.77503">
        <ele>389</ele>
        <time>2015-11-29T08:18:31.000Z</time>
      </trkpt>
      <trkpt lat="47.51797" lon="6.77502">
        <ele>389</ele>
        <time>2015-11-29T08:18:32.000Z</time>
      </trkpt>
      <trkpt lat="47.51795" lon="6.77501">
        <ele>389</ele>
        <time>2015-11-29T08:18:33.000Z</time>
      </trkpt>
      <trkpt lat="47.51792" lon="6.775">
        <ele>388</ele>
        <time>2015-11-29T08:18:34.000Z</time>
      </trkpt>
      <trkpt lat="47.51789" lon="6.77498">
        <ele>388</ele>
        <time>2015-11-29T08:18:35.000Z</time>
      </trkpt>
      <trkpt lat="47.51786" lon="6.77496">
        <ele>388</ele>
        <time>2015-11-29T08:18:36.000Z</time>
      </trkpt>
      <trkpt lat="47.51782" lon="6.77495">
        <ele>388</ele>
        <time>2015-11-29T08:18:37.000Z</time>
      </trkpt>
      <trkpt lat="47.51779" lon="6.77493">
        <ele>388</ele>
        <time>2015-11-29T08:18:38.000Z</time>
      </trkpt>
      <trkpt lat="47.51775" lon="6.77492">
        <ele>388</ele>
        <time>2015-11-29T08:18:39.000Z</time>
      </trkpt>
      <trkpt lat="47.51772" lon="6.77491">
        <ele>389</ele>
        <time>2015-11-29T08:18:40.000Z</time>
      </trkpt>
      <trkpt lat="47.51768" lon="6.77489">
        <ele>389</ele>
        <time>2015-11-29T08:18:41.000Z</time>
      </trkpt>
      <trkpt lat="47.51765" lon="6.77489">
        <ele>389</ele>
        <time>2015-11-29T08:18:42.000Z</time>
      </trkpt>
      <trkpt lat="47.51762" lon="6.77488">
        <ele>389</ele>
        <time>2015-11-29T08:18:43.000Z</time>
      </trkpt>
      <trkpt lat="47.51758" lon="6.77487">
        <ele>389</ele>
        <time>2015-11-29T08:18:44.000Z</time>
      </trkpt>
      <trkpt lat="47.51755" lon="6.77486">
        <ele>389</ele>
        <time>2015-11-29T08:18:45.000Z</time>
      </trkpt>
      <trkpt lat="47.51751" lon="6.77485">
        <ele>389</ele>
        <time>2015-11-29T08:18:46.000Z</time>
      </trkpt>
      <trkpt lat="47.51747" lon="6.77484">
        <ele>389</ele>
        <time>2015-11-29T08:18:47.000Z</time>
      </trkpt>
      <trkpt lat="47.51744" lon="6.77484">
        <ele>389</ele>
        <time>2015-11-29T08:18:48.000Z</time>
      </trkpt>
      <trkpt lat="47.5174" lon="6.77484">
        <ele>389</ele>
        <time>2015-11-29T08:18:49.000Z</time>
      </trkpt>
      <trkpt lat="47.51737" lon="6.77485">
        <ele>389</ele>
        <time>2015-11-29T08:18:50.000Z</time>
      </trkpt>
      <trkpt lat="47.51734" lon="6.77488">
        <ele>389</ele>
        <time>2015-11-29T08:18:51.000Z</time>
      </trkpt>
      <trkpt lat="47.51731" lon="6.77492">
        <ele>389</ele>
        <time>2015-11-29T08:18:52.000Z</time>
      </trkpt>
      <trkpt lat="47.51729" lon="6.77497">
        <ele>389</ele>
        <time>2015-11-29T08:18:53.000Z</time>
      </trkpt>
      <trkpt lat="47.51728" lon="6.77503">
        <ele>390</ele>
        <time>2015-11-29T08:18:54.000Z</time>
      </trkpt>
      <trkpt lat="47.51727" lon="6.77509">
        <ele>390</ele>
        <time>2015-11-29T08:18:55.000Z</time>
      </trkpt>
      <trkpt lat="47.51728" lon="6.77524">
        <ele>390</ele>
        <time>2015-11-29T08:18:56.000Z</time>
      </trkpt>
      <trkpt lat="47.51728" lon="6.77533">
        <ele>390</ele>
        <time>2015-11-29T08:18:57.000Z</time>
      </trkpt>
      <trkpt lat="47.51727" lon="6.77539">
        <ele>390</ele>
        <time>2015-11-29T08:18:58.000Z</time>
      </trkpt>
      <trkpt lat="47.51726" lon="6.77544">
        <ele>390</ele>
        <time>2015-11-29T08:18:59.000Z</time>
      </trkpt>
      <trkpt lat="47.51725" lon="6.77551">
        <ele>390</ele>
        <time>2015-11-29T08:19:00.000Z</time>
      </trkpt>
      <trkpt lat="47.51725" lon="6.77556">
        <ele>390</ele>
        <time>2015-11-29T08:19:01.000Z</time>
      </trkpt>
      <trkpt lat="47.51723" lon="6.77562">
        <ele>390</ele>
        <time>2015-11-29T08:19:02.000Z</time>
      </trkpt>
      <trkpt lat="47.51721" lon="6.77562">
        <ele>390</ele>
        <time>2015-11-29T08:19:03.000Z</time>
      </trkpt>
      <trkpt lat="47.51717" lon="6.7756">
        <ele>390</ele>
        <time>2015-11-29T08:19:04.000Z</time>
      </trkpt>
      <trkpt lat="47.51713" lon="6.77557">
        <ele>390</ele>
        <time>2015-11-29T08:19:06.000Z</time>
      </trkpt>
      <trkpt lat="47.5171" lon="6.77555">
        <ele>390</ele>
        <time>2015-11-29T08:19:07.000Z</time>
      </trkpt>
      <trkpt lat="47.51706" lon="6.77556">
        <ele>390</ele>
        <time>2015-11-29T08:19:08.000Z</time>
      </trkpt>
      <trkpt lat="47.51702" lon="6.77557">
        <ele>390</ele>
        <time>2015-11-29T08:19:09.000Z</time>
      </trkpt>
      <trkpt lat="47.51698" lon="6.77556">
        <ele>390</ele>
        <time>2015-11-29T08:19:10.000Z</time>
      </trkpt>
      <trkpt lat="47.51695" lon="6.77553">
        <ele>390</ele>
        <time>2015-11-29T08:19:11.000Z</time>
      </trkpt>
      <trkpt lat="47.51691" lon="6.77542">
        <ele>390</ele>
        <time>2015-11-29T08:19:12.000Z</time>
      </trkpt>
      <trkpt lat="47.51687" lon="6.77536">
        <ele>390</ele>
        <time>2015-11-29T08:19:13.000Z</time>
      </trkpt>
      <trkpt lat="47.51684" lon="6.77532">
        <ele>390</ele>
        <time>2015-11-29T08:19:14.000Z</time>
      </trkpt>
      <trkpt lat="47.51682" lon="6.77529">
        <ele>390</ele>
        <time>2015-11-29T08:19:15.000Z</time>
      </trkpt>
      <trkpt lat="47.51677" lon="6.77524">
        <ele>390</ele>
        <time>2015-11-29T08:19:16.000Z</time>
      </trkpt>
      <trkpt lat="47.51674" lon="6.7752">
        <ele>390</ele>
        <time>2015-11-29T08:19:17.000Z</time>
      </trkpt>
      <trkpt lat="47.5167" lon="6.77515">
        <ele>389</ele>
        <time>2015-11-29T08:19:18.000Z</time>
      </trkpt>
      <trkpt lat="47.51665" lon="6.77509">
        <ele>388</ele>
        <time>2015-11-29T08:19:19.000Z</time>
      </trkpt>
      <trkpt lat="47.51661" lon="6.77503">
        <ele>389</ele>
        <time>2015-11-29T08:19:20.000Z</time>
      </trkpt>
      <trkpt lat="47.51657" lon="6.77499">
        <ele>388</ele>
        <time>2015-11-29T08:19:21.000Z</time>
      </trkpt>
      <trkpt lat="47.51653" lon="6.77493">
        <ele>387</ele>
        <time>2015-11-29T08:19:22.000Z</time>
      </trkpt>
      <trkpt lat="47.51649" lon="6.77489">
        <ele>387</ele>
        <time>2015-11-29T08:19:23.000Z</time>
      </trkpt>
      <trkpt lat="47.51645" lon="6.77484">
        <ele>387</ele>
        <time>2015-11-29T08:19:24.000Z</time>
      </trkpt>
      <trkpt lat="47.5164" lon="6.77479">
        <ele>386</ele>
        <time>2015-11-29T08:19:25.000Z</time>
      </trkpt>
      <trkpt lat="47.51636" lon="6.77473">
        <ele>386</ele>
        <time>2015-11-29T08:19:26.000Z</time>
      </trkpt>
      <trkpt lat="47.51631" lon="6.77467">
        <ele>386</ele>
        <time>2015-11-29T08:19:27.000Z</time>
      </trkpt>
      <trkpt lat="47.51627" lon="6.77462">
        <ele>386</ele>
        <time>2015-11-29T08:19:28.000Z</time>
      </trkpt>
      <trkpt lat="47.51623" lon="6.77455">
        <ele>386</ele>
        <time>2015-11-29T08:19:29.000Z</time>
      </trkpt>
      <trkpt lat="47.51618" lon="6.77449">
        <ele>385</ele>
        <time>2015-11-29T08:19:30.000Z</time>
      </trkpt>
      <trkpt lat="47.51613" lon="6.77443">
        <ele>385</ele>
        <time>2015-11-29T08:19:31.000Z</time>
      </trkpt>
      <trkpt lat="47.51608" lon="6.77438">
        <ele>385</ele>
        <time>2015-11-29T08:19:32.000Z</time>
      </trkpt>
      <trkpt lat="47.51603" lon="6.77432">
        <ele>385</ele>
        <time>2015-11-29T08:19:33.000Z</time>
      </trkpt>
      <trkpt lat="47.51598" lon="6.77426">
        <ele>384</ele>
        <time>2015-11-29T08:19:34.000Z</time>
      </trkpt>
      <trkpt lat="47.51592" lon="6.77419">
        <ele>384</ele>
        <time>2015-11-29T08:19:35.000Z</time>
      </trkpt>
      <trkpt lat="47.51586" lon="6.77412">
        <ele>383</ele>
        <time>2015-11-29T08:19:36.000Z</time>
      </trkpt>
      <trkpt lat="47.51581" lon="6.77406">
        <ele>382</ele>
        <time>2015-11-29T08:19:37.000Z</time>
      </trkpt>
      <trkpt lat="47.51576" lon="6.774">
        <ele>382</ele>
        <time>2015-11-29T08:19:38.000Z</time>
      </trkpt>
      <trkpt lat="47.5157" lon="6.77393">
        <ele>381</ele>
        <time>2015-11-29T08:19:39.000Z</time>
      </trkpt>
      <trkpt lat="47.51565" lon="6.77386">
        <ele>381</ele>
        <time>2015-11-29T08:19:40.000Z</time>
      </trkpt>
      <trkpt lat="47.51559" lon="6.77379">
        <ele>381</ele>
        <time>2015-11-29T08:19:41.000Z</time>
      </trkpt>
      <trkpt lat="47.51554" lon="6.77372">
        <ele>381</ele>
        <time>2015-11-29T08:19:42.000Z</time>
      </trkpt>
      <trkpt lat="47.51548" lon="6.77365">
        <ele>380</ele>
        <time>2015-11-29T08:19:43.000Z</time>
      </trkpt>
      <trkpt lat="47.51543" lon="6.77359">
        <ele>380</ele>
        <time>2015-11-29T08:19:44.000Z</time>
      </trkpt>
      <trkpt lat="47.51537" lon="6.77352">
        <ele>380</ele>
        <time>2015-11-29T08:19:45.000Z</time>
      </trkpt>
      <trkpt lat="47.51531" lon="6.77345">
        <ele>380</ele>
        <time>2015-11-29T08:19:46.000Z</time>
      </trkpt>
      <trkpt lat="47.51525" lon="6.77337">
        <ele>380</ele>
        <time>2015-11-29T08:19:47.000Z</time>
      </trkpt>
      <trkpt lat="47.51519" lon="6.7733">
        <ele>378</ele>
        <time>2015-11-29T08:19:48.000Z</time>
      </trkpt>
      <trkpt lat="47.51514" lon="6.77324">
        <ele>378</ele>
        <time>2015-11-29T08:19:49.000Z</time>
      </trkpt>
      <trkpt lat="47.51508" lon="6.77317">
        <ele>378</ele>
        <time>2015-11-29T08:19:50.000Z</time>
      </trkpt>
      <trkpt lat="47.51503" lon="6.77307">
        <ele>378</ele>
        <time>2015-11-29T08:19:51.000Z</time>
      </trkpt>
      <trkpt lat="47.515" lon="6.77298">
        <ele>378</ele>
        <time>2015-11-29T08:19:52.000Z</time>
      </trkpt>
      <trkpt lat="47.51498" lon="6.77287">
        <ele>377</ele>
        <time>2015-11-29T08:19:53.000Z</time>
      </trkpt>
      <trkpt lat="47.51497" lon="6.77277">
        <ele>377</ele>
        <time>2015-11-29T08:19:54.000Z</time>
      </trkpt>
      <trkpt lat="47.51496" lon="6.77267">
        <ele>376</ele>
        <time>2015-11-29T08:19:55.000Z</time>
      </trkpt>
      <trkpt lat="47.51495" lon="6.77257">
        <ele>376</ele>
        <time>2015-11-29T08:19:56.000Z</time>
      </trkpt>
      <trkpt lat="47.51495" lon="6.77248">
        <ele>376</ele>
        <time>2015-11-29T08:19:57.000Z</time>
      </trkpt>
      <trkpt lat="47.51493" lon="6.77238">
        <ele>376</ele>
        <time>2015-11-29T08:19:58.000Z</time>
      </trkpt>
      <trkpt lat="47.51493" lon="6.77228">
        <ele>375</ele>
        <time>2015-11-29T08:19:59.000Z</time>
      </trkpt>
      <trkpt lat="47.51491" lon="6.77219">
        <ele>375</ele>
        <time>2015-11-29T08:20:00.000Z</time>
      </trkpt>
      <trkpt lat="47.51487" lon="6.77209">
        <ele>375</ele>
        <time>2015-11-29T08:20:01.000Z</time>
      </trkpt>
      <trkpt lat="47.51482" lon="6.77205">
        <ele>375</ele>
        <time>2015-11-29T08:20:02.000Z</time>
      </trkpt>
      <trkpt lat="47.51476" lon="6.77203">
        <ele>375</ele>
        <time>2015-11-29T08:20:03.000Z</time>
      </trkpt>
      <trkpt lat="47.5147" lon="6.77203">
        <ele>375</ele>
        <time>2015-11-29T08:20:04.000Z</time>
      </trkpt>
      <trkpt lat="47.51462" lon="6.77207">
        <ele>375</ele>
        <time>2015-11-29T08:20:05.000Z</time>
      </trkpt>
      <trkpt lat="47.51456" lon="6.7721">
        <ele>375</ele>
        <time>2015-11-29T08:20:06.000Z</time>
      </trkpt>
      <trkpt lat="47.51449" lon="6.77213">
        <ele>375</ele>
        <time>2015-11-29T08:20:07.000Z</time>
      </trkpt>
      <trkpt lat="47.51443" lon="6.77216">
        <ele>375</ele>
        <time>2015-11-29T08:20:08.000Z</time>
      </trkpt>
      <trkpt lat="47.51436" lon="6.77219">
        <ele>375</ele>
        <time>2015-11-29T08:20:09.000Z</time>
      </trkpt>
      <trkpt lat="47.5143" lon="6.77221">
        <ele>375</ele>
        <time>2015-11-29T08:20:10.000Z</time>
      </trkpt>
      <trkpt lat="47.51425" lon="6.77224">
        <ele>375</ele>
        <time>2015-11-29T08:20:11.000Z</time>
      </trkpt>
      <trkpt lat="47.51419" lon="6.77226">
        <ele>375</ele>
        <time>2015-11-29T08:20:12.000Z</time>
      </trkpt>
      <trkpt lat="47.51414" lon="6.77228">
        <ele>376</ele>
        <time>2015-11-29T08:20:13.000Z</time>
      </trkpt>
      <trkpt lat="47.5141" lon="6.77231">
        <ele>376</ele>
        <time>2015-11-29T08:20:14.000Z</time>
      </trkpt>
      <trkpt lat="47.51405" lon="6.77233">
        <ele>376</ele>
        <time>2015-11-29T08:20:15.000Z</time>
      </trkpt>
      <trkpt lat="47.514" lon="6.77236">
        <ele>376</ele>
        <time>2015-11-29T08:20:16.000Z</time>
      </trkpt>
      <trkpt lat="47.51396" lon="6.77239">
        <ele>376</ele>
        <time>2015-11-29T08:20:17.000Z</time>
      </trkpt>
      <trkpt lat="47.51392" lon="6.77242">
        <ele>376</ele>
        <time>2015-11-29T08:20:18.000Z</time>
      </trkpt>
      <trkpt lat="47.51388" lon="6.77245">
        <ele>376</ele>
        <time>2015-11-29T08:20:19.000Z</time>
      </trkpt>
      <trkpt lat="47.51384" lon="6.77247">
        <ele>376</ele>
        <time>2015-11-29T08:20:20.000Z</time>
      </trkpt>
      <trkpt lat="47.5138" lon="6.77249">
        <ele>376</ele>
        <time>2015-11-29T08:20:21.000Z</time>
      </trkpt>
      <trkpt lat="47.51376" lon="6.77252">
        <ele>377</ele>
        <time>2015-11-29T08:20:22.000Z</time>
      </trkpt>
      <trkpt lat="47.51373" lon="6.77254">
        <ele>377</ele>
        <time>2015-11-29T08:20:23.000Z</time>
      </trkpt>
      <trkpt lat="47.5137" lon="6.77257">
        <ele>378</ele>
        <time>2015-11-29T08:20:24.000Z</time>
      </trkpt>
      <trkpt lat="47.51366" lon="6.77259">
        <ele>378</ele>
        <time>2015-11-29T08:20:25.000Z</time>
      </trkpt>
      <trkpt lat="47.51363" lon="6.77262">
        <ele>378</ele>
        <time>2015-11-29T08:20:26.000Z</time>
      </trkpt>
      <trkpt lat="47.5136" lon="6.77264">
        <ele>378</ele>
        <time>2015-11-29T08:20:27.000Z</time>
      </trkpt>
      <trkpt lat="47.51357" lon="6.77266">
        <ele>378</ele>
        <time>2015-11-29T08:20:28.000Z</time>
      </trkpt>
      <trkpt lat="47.51354" lon="6.77267">
        <ele>378</ele>
        <time>2015-11-29T08:20:29.000Z</time>
      </trkpt>
      <trkpt lat="47.51351" lon="6.7727">
        <ele>378</ele>
        <time>2015-11-29T08:20:30.000Z</time>
      </trkpt>
      <trkpt lat="47.51348" lon="6.77272">
        <ele>378</ele>
        <time>2015-11-29T08:20:31.000Z</time>
      </trkpt>
      <trkpt lat="47.51345" lon="6.77274">
        <ele>378</ele>
        <time>2015-11-29T08:20:32.000Z</time>
      </trkpt>
      <trkpt lat="47.51342" lon="6.77276">
        <ele>378</ele>
        <time>2015-11-29T08:20:33.000Z</time>
      </trkpt>
      <trkpt lat="47.51339" lon="6.77278">
        <ele>378</ele>
        <time>2015-11-29T08:20:34.000Z</time>
      </trkpt>
      <trkpt lat="47.51336" lon="6.7728">
        <ele>378</ele>
        <time>2015-11-29T08:20:35.000Z</time>
      </trkpt>
      <trkpt lat="47.51333" lon="6.77281">
        <ele>378</ele>
        <time>2015-11-29T08:20:36.000Z</time>
      </trkpt>
      <trkpt lat="47.5133" lon="6.77282">
        <ele>377</ele>
        <time>2015-11-29T08:20:37.000Z</time>
      </trkpt>
      <trkpt lat="47.51327" lon="6.77281">
        <ele>377</ele>
        <time>2015-11-29T08:20:38.000Z</time>
      </trkpt>
      <trkpt lat="47.51323" lon="6.77281">
        <ele>377</ele>
        <time>2015-11-29T08:20:39.000Z</time>
      </trkpt>
      <trkpt lat="47.5132" lon="6.7728">
        <ele>377</ele>
        <time>2015-11-29T08:20:40.000Z</time>
      </trkpt>
      <trkpt lat="47.51317" lon="6.77279">
        <ele>377</ele>
        <time>2015-11-29T08:20:41.000Z</time>
      </trkpt>
      <trkpt lat="47.51313" lon="6.77278">
        <ele>377</ele>
        <time>2015-11-29T08:20:42.000Z</time>
      </trkpt>
      <trkpt lat="47.5131" lon="6.77276">
        <ele>377</ele>
        <time>2015-11-29T08:20:43.000Z</time>
      </trkpt>
      <trkpt lat="47.51307" lon="6.77275">
        <ele>377</ele>
        <time>2015-11-29T08:20:44.000Z</time>
      </trkpt>
      <trkpt lat="47.51304" lon="6.77273">
        <ele>377</ele>
        <time>2015-11-29T08:20:45.000Z</time>
      </trkpt>
      <trkpt lat="47.513" lon="6.77271">
        <ele>377</ele>
        <time>2015-11-29T08:20:46.000Z</time>
      </trkpt>
      <trkpt lat="47.51297" lon="6.7727">
        <ele>377</ele>
        <time>2015-11-29T08:20:47.000Z</time>
      </trkpt>
      <trkpt lat="47.51294" lon="6.77268">
        <ele>377</ele>
        <time>2015-11-29T08:20:48.000Z</time>
      </trkpt>
      <trkpt lat="47.51291" lon="6.77266">
        <ele>377</ele>
        <time>2015-11-29T08:20:49.000Z</time>
      </trkpt>
      <trkpt lat="47.51287" lon="6.77264">
        <ele>377</ele>
        <time>2015-11-29T08:20:50.000Z</time>
      </trkpt>
      <trkpt lat="47.51284" lon="6.77262">
        <ele>377</ele>
        <time>2015-11-29T08:20:51.000Z</time>
      </trkpt>
      <trkpt lat="47.5128" lon="6.7726">
        <ele>377</ele>
        <time>2015-11-29T08:20:52.000Z</time>
      </trkpt>
      <trkpt lat="47.51277" lon="6.77258">
        <ele>377</ele>
        <time>2015-11-29T08:20:53.000Z</time>
      </trkpt>
      <trkpt lat="47.51274" lon="6.77255">
        <ele>377</ele>
        <time>2015-11-29T08:20:54.000Z</time>
      </trkpt>
      <trkpt lat="47.5127" lon="6.77253">
        <ele>378</ele>
        <time>2015-11-29T08:20:55.000Z</time>
      </trkpt>
      <trkpt lat="47.51267" lon="6.7725">
        <ele>378</ele>
        <time>2015-11-29T08:20:56.000Z</time>
      </trkpt>
      <trkpt lat="47.51263" lon="6.77247">
        <ele>378</ele>
        <time>2015-11-29T08:20:57.000Z</time>
      </trkpt>
      <trkpt lat="47.5126" lon="6.77244">
        <ele>378</ele>
        <time>2015-11-29T08:20:58.000Z</time>
      </trkpt>
      <trkpt lat="47.51257" lon="6.77241">
        <ele>378</ele>
        <time>2015-11-29T08:20:59.000Z</time>
      </trkpt>
      <trkpt lat="47.51255" lon="6.77236">
        <ele>378</ele>
        <time>2015-11-29T08:21:00.000Z</time>
      </trkpt>
      <trkpt lat="47.51252" lon="6.77232">
        <ele>378</ele>
        <time>2015-11-29T08:21:01.000Z</time>
      </trkpt>
      <trkpt lat="47.5125" lon="6.77227">
        <ele>377</ele>
        <time>2015-11-29T08:21:02.000Z</time>
      </trkpt>
      <trkpt lat="47.51247" lon="6.77222">
        <ele>376</ele>
        <time>2015-11-29T08:21:03.000Z</time>
      </trkpt>
      <trkpt lat="47.51245" lon="6.77215">
        <ele>376</ele>
        <time>2015-11-29T08:21:04.000Z</time>
      </trkpt>
      <trkpt lat="47.51242" lon="6.77209">
        <ele>376</ele>
        <time>2015-11-29T08:21:05.000Z</time>
      </trkpt>
      <trkpt lat="47.51239" lon="6.77203">
        <ele>376</ele>
        <time>2015-11-29T08:21:06.000Z</time>
      </trkpt>
      <trkpt lat="47.51235" lon="6.77196">
        <ele>376</ele>
        <time>2015-11-29T08:21:07.000Z</time>
      </trkpt>
      <trkpt lat="47.51233" lon="6.7719">
        <ele>376</ele>
        <time>2015-11-29T08:21:08.000Z</time>
      </trkpt>
      <trkpt lat="47.5123" lon="6.77184">
        <ele>377</ele>
        <time>2015-11-29T08:21:09.000Z</time>
      </trkpt>
      <trkpt lat="47.51227" lon="6.77178">
        <ele>377</ele>
        <time>2015-11-29T08:21:10.000Z</time>
      </trkpt>
      <trkpt lat="47.51223" lon="6.77172">
        <ele>377</ele>
        <time>2015-11-29T08:21:11.000Z</time>
      </trkpt>
      <trkpt lat="47.5122" lon="6.77166">
        <ele>378</ele>
        <time>2015-11-29T08:21:12.000Z</time>
      </trkpt>
      <trkpt lat="47.51217" lon="6.77159">
        <ele>378</ele>
        <time>2015-11-29T08:21:13.000Z</time>
      </trkpt>
      <trkpt lat="47.51213" lon="6.77153">
        <ele>378</ele>
        <time>2015-11-29T08:21:14.000Z</time>
      </trkpt>
      <trkpt lat="47.5121" lon="6.77147">
        <ele>378</ele>
        <time>2015-11-29T08:21:15.000Z</time>
      </trkpt>
      <trkpt lat="47.51206" lon="6.7714">
        <ele>378</ele>
        <time>2015-11-29T08:21:16.000Z</time>
      </trkpt>
      <trkpt lat="47.51202" lon="6.77133">
        <ele>378</ele>
        <time>2015-11-29T08:21:17.000Z</time>
      </trkpt>
      <trkpt lat="47.51199" lon="6.77126">
        <ele>378</ele>
        <time>2015-11-29T08:21:18.000Z</time>
      </trkpt>
      <trkpt lat="47.51195" lon="6.77119">
        <ele>378</ele>
        <time>2015-11-29T08:21:19.000Z</time>
      </trkpt>
      <trkpt lat="47.51191" lon="6.77111">
        <ele>378</ele>
        <time>2015-11-29T08:21:20.000Z</time>
      </trkpt>
      <trkpt lat="47.51187" lon="6.77104">
        <ele>378</ele>
        <time>2015-11-29T08:21:21.000Z</time>
      </trkpt>
      <trkpt lat="47.51184" lon="6.77098">
        <ele>378</ele>
        <time>2015-11-29T08:21:22.000Z</time>
      </trkpt>
      <trkpt lat="47.5118" lon="6.7709">
        <ele>378</ele>
        <time>2015-11-29T08:21:23.000Z</time>
      </trkpt>
      <trkpt lat="47.51176" lon="6.77083">
        <ele>377</ele>
        <time>2015-11-29T08:21:24.000Z</time>
      </trkpt>
      <trkpt lat="47.51172" lon="6.77077">
        <ele>377</ele>
        <time>2015-11-29T08:21:25.000Z</time>
      </trkpt>
      <trkpt lat="47.51168" lon="6.7707">
        <ele>377</ele>
        <time>2015-11-29T08:21:26.000Z</time>
      </trkpt>
      <trkpt lat="47.51163" lon="6.77064">
        <ele>376</ele>
        <time>2015-11-29T08:21:27.000Z</time>
      </trkpt>
      <trkpt lat="47.51158" lon="6.77058">
        <ele>376</ele>
        <time>2015-11-29T08:21:28.000Z</time>
      </trkpt>
      <trkpt lat="47.51153" lon="6.77054">
        <ele>376</ele>
        <time>2015-11-29T08:21:29.000Z</time>
      </trkpt>
      <trkpt lat="47.51147" lon="6.7705">
        <ele>376</ele>
        <time>2015-11-29T08:21:30.000Z</time>
      </trkpt>
      <trkpt lat="47.51141" lon="6.77045">
        <ele>376</ele>
        <time>2015-11-29T08:21:31.000Z</time>
      </trkpt>
      <trkpt lat="47.51136" lon="6.7704">
        <ele>375</ele>
        <time>2015-11-29T08:21:32.000Z</time>
      </trkpt>
      <trkpt lat="47.51131" lon="6.77035">
        <ele>375</ele>
        <time>2015-11-29T08:21:33.000Z</time>
      </trkpt>
      <trkpt lat="47.51126" lon="6.7703">
        <ele>375</ele>
        <time>2015-11-29T08:21:34.000Z</time>
      </trkpt>
      <trkpt lat="47.5112" lon="6.77026">
        <ele>375</ele>
        <time>2015-11-29T08:21:35.000Z</time>
      </trkpt>
      <trkpt lat="47.51115" lon="6.77021">
        <ele>375</ele>
        <time>2015-11-29T08:21:36.000Z</time>
      </trkpt>
      <trkpt lat="47.51109" lon="6.77017">
        <ele>375</ele>
        <time>2015-11-29T08:21:37.000Z</time>
      </trkpt>
      <trkpt lat="47.51105" lon="6.77013">
        <ele>375</ele>
        <time>2015-11-29T08:21:38.000Z</time>
      </trkpt>
      <trkpt lat="47.51099" lon="6.77008">
        <ele>375</ele>
        <time>2015-11-29T08:21:39.000Z</time>
      </trkpt>
      <trkpt lat="47.51094" lon="6.77004">
        <ele>375</ele>
        <time>2015-11-29T08:21:40.000Z</time>
      </trkpt>
      <trkpt lat="47.51089" lon="6.76999">
        <ele>375</ele>
        <time>2015-11-29T08:21:41.000Z</time>
      </trkpt>
      <trkpt lat="47.51084" lon="6.76995">
        <ele>375</ele>
        <time>2015-11-29T08:21:42.000Z</time>
      </trkpt>
      <trkpt lat="47.51079" lon="6.76991">
        <ele>375</ele>
        <time>2015-11-29T08:21:43.000Z</time>
      </trkpt>
      <trkpt lat="47.51074" lon="6.76986">
        <ele>375</ele>
        <time>2015-11-29T08:21:44.000Z</time>
      </trkpt>
      <trkpt lat="47.51069" lon="6.76983">
        <ele>375</ele>
        <time>2015-11-29T08:21:45.000Z</time>
      </trkpt>
      <trkpt lat="47.51064" lon="6.7698">
        <ele>375</ele>
        <time>2015-11-29T08:21:46.000Z</time>
      </trkpt>
      <trkpt lat="47.51059" lon="6.76975">
        <ele>375</ele>
        <time>2015-11-29T08:21:47.000Z</time>
      </trkpt>
      <trkpt lat="47.51054" lon="6.76971">
        <ele>375</ele>
        <time>2015-11-29T08:21:48.000Z</time>
      </trkpt>
      <trkpt lat="47.51049" lon="6.76967">
        <ele>375</ele>
        <time>2015-11-29T08:21:49.000Z</time>
      </trkpt>
      <trkpt lat="47.51045" lon="6.76963">
        <ele>375</ele>
        <time>2015-11-29T08:21:50.000Z</time>
      </trkpt>
      <trkpt lat="47.51041" lon="6.76958">
        <ele>375</ele>
        <time>2015-11-29T08:21:51.000Z</time>
      </trkpt>
      <trkpt lat="47.51037" lon="6.76955">
        <ele>375</ele>
        <time>2015-11-29T08:21:52.000Z</time>
      </trkpt>
      <trkpt lat="47.51033" lon="6.7695">
        <ele>375</ele>
        <time>2015-11-29T08:21:53.000Z</time>
      </trkpt>
      <trkpt lat="47.5103" lon="6.76944">
        <ele>375</ele>
        <time>2015-11-29T08:21:54.000Z</time>
      </trkpt>
      <trkpt lat="47.51027" lon="6.7694">
        <ele>375</ele>
        <time>2015-11-29T08:21:55.000Z</time>
      </trkpt>
      <trkpt lat="47.51024" lon="6.76936">
        <ele>375</ele>
        <time>2015-11-29T08:21:56.000Z</time>
      </trkpt>
      <trkpt lat="47.5102" lon="6.76932">
        <ele>375</ele>
        <time>2015-11-29T08:21:57.000Z</time>
      </trkpt>
      <trkpt lat="47.51015" lon="6.7693">
        <ele>375</ele>
        <time>2015-11-29T08:21:58.000Z</time>
      </trkpt>
      <trkpt lat="47.51011" lon="6.76927">
        <ele>375</ele>
        <time>2015-11-29T08:21:59.000Z</time>
      </trkpt>
      <trkpt lat="47.51007" lon="6.76925">
        <ele>376</ele>
        <time>2015-11-29T08:22:00.000Z</time>
      </trkpt>
      <trkpt lat="47.51002" lon="6.7692">
        <ele>376</ele>
        <time>2015-11-29T08:22:01.000Z</time>
      </trkpt>
      <trkpt lat="47.50999" lon="6.76916">
        <ele>376</ele>
        <time>2015-11-29T08:22:02.000Z</time>
      </trkpt>
      <trkpt lat="47.50996" lon="6.76911">
        <ele>376</ele>
        <time>2015-11-29T08:22:03.000Z</time>
      </trkpt>
      <trkpt lat="47.50994" lon="6.76904">
        <ele>377</ele>
        <time>2015-11-29T08:22:04.000Z</time>
      </trkpt>
      <trkpt lat="47.50992" lon="6.76899">
        <ele>377</ele>
        <time>2015-11-29T08:22:05.000Z</time>
      </trkpt>
      <trkpt lat="47.50988" lon="6.76897">
        <ele>377</ele>
        <time>2015-11-29T08:22:06.000Z</time>
      </trkpt>
      <trkpt lat="47.50983" lon="6.76896">
        <ele>377</ele>
        <time>2015-11-29T08:22:07.000Z</time>
      </trkpt>
      <trkpt lat="47.50978" lon="6.76896">
        <ele>377</ele>
        <time>2015-11-29T08:22:08.000Z</time>
      </trkpt>
      <trkpt lat="47.50974" lon="6.76896">
        <ele>377</ele>
        <time>2015-11-29T08:22:09.000Z</time>
      </trkpt>
      <trkpt lat="47.50971" lon="6.76896">
        <ele>377</ele>
        <time>2015-11-29T08:22:10.000Z</time>
      </trkpt>
      <trkpt lat="47.50967" lon="6.76896">
        <ele>377</ele>
        <time>2015-11-29T08:22:11.000Z</time>
      </trkpt>
      <trkpt lat="47.50963" lon="6.76894">
        <ele>377</ele>
        <time>2015-11-29T08:22:12.000Z</time>
      </trkpt>
      <trkpt lat="47.50959" lon="6.76891">
        <ele>377</ele>
        <time>2015-11-29T08:22:13.000Z</time>
      </trkpt>
      <trkpt lat="47.50956" lon="6.76888">
        <ele>377</ele>
        <time>2015-11-29T08:22:14.000Z</time>
      </trkpt>
      <trkpt lat="47.50953" lon="6.76885">
        <ele>378</ele>
        <time>2015-11-29T08:22:15.000Z</time>
      </trkpt>
      <trkpt lat="47.5095" lon="6.76882">
        <ele>378</ele>
        <time>2015-11-29T08:22:16.000Z</time>
      </trkpt>
      <trkpt lat="47.50947" lon="6.7688">
        <ele>378</ele>
        <time>2015-11-29T08:22:17.000Z</time>
      </trkpt>
      <trkpt lat="47.50943" lon="6.76876">
        <ele>378</ele>
        <time>2015-11-29T08:22:18.000Z</time>
      </trkpt>
      <trkpt lat="47.5094" lon="6.76873">
        <ele>378</ele>
        <time>2015-11-29T08:22:19.000Z</time>
      </trkpt>
      <trkpt lat="47.50937" lon="6.7687">
        <ele>378</ele>
        <time>2015-11-29T08:22:20.000Z</time>
      </trkpt>
      <trkpt lat="47.50935" lon="6.76866">
        <ele>378</ele>
        <time>2015-11-29T08:22:21.000Z</time>
      </trkpt>
      <trkpt lat="47.50932" lon="6.76862">
        <ele>378</ele>
        <time>2015-11-29T08:22:22.000Z</time>
      </trkpt>
      <trkpt lat="47.5093" lon="6.76858">
        <ele>378</ele>
        <time>2015-11-29T08:22:23.000Z</time>
      </trkpt>
      <trkpt lat="47.50927" lon="6.76853">
        <ele>379</ele>
        <time>2015-11-29T08:22:24.000Z</time>
      </trkpt>
      <trkpt lat="47.50925" lon="6.76849">
        <ele>379</ele>
        <time>2015-11-29T08:22:25.000Z</time>
      </trkpt>
      <trkpt lat="47.50923" lon="6.76845">
        <ele>379</ele>
        <time>2015-11-29T08:22:26.000Z</time>
      </trkpt>
      <trkpt lat="47.50921" lon="6.76841">
        <ele>379</ele>
        <time>2015-11-29T08:22:27.000Z</time>
      </trkpt>
      <trkpt lat="47.50919" lon="6.76837">
        <ele>380</ele>
        <time>2015-11-29T08:22:28.000Z</time>
      </trkpt>
      <trkpt lat="47.50917" lon="6.76833">
        <ele>380</ele>
        <time>2015-11-29T08:22:29.000Z</time>
      </trkpt>
      <trkpt lat="47.50915" lon="6.76829">
        <ele>380</ele>
        <time>2015-11-29T08:22:30.000Z</time>
      </trkpt>
      <trkpt lat="47.50914" lon="6.76824">
        <ele>380</ele>
        <time>2015-11-29T08:22:31.000Z</time>
      </trkpt>
      <trkpt lat="47.50912" lon="6.76818">
        <ele>381</ele>
        <time>2015-11-29T08:22:32.000Z</time>
      </trkpt>
      <trkpt lat="47.5091" lon="6.76814">
        <ele>381</ele>
        <time>2015-11-29T08:22:33.000Z</time>
      </trkpt>
      <trkpt lat="47.50908" lon="6.76809">
        <ele>381</ele>
        <time>2015-11-29T08:22:34.000Z</time>
      </trkpt>
      <trkpt lat="47.50906" lon="6.76805">
        <ele>381</ele>
        <time>2015-11-29T08:22:35.000Z</time>
      </trkpt>
      <trkpt lat="47.50904" lon="6.768">
        <ele>381</ele>
        <time>2015-11-29T08:22:36.000Z</time>
      </trkpt>
      <trkpt lat="47.50902" lon="6.76794">
        <ele>381</ele>
        <time>2015-11-29T08:22:37.000Z</time>
      </trkpt>
      <trkpt lat="47.509" lon="6.76789">
        <ele>381</ele>
        <time>2015-11-29T08:22:38.000Z</time>
      </trkpt>
      <trkpt lat="47.50898" lon="6.76784">
        <ele>381</ele>
        <time>2015-11-29T08:22:39.000Z</time>
      </trkpt>
      <trkpt lat="47.50896" lon="6.76779">
        <ele>381</ele>
        <time>2015-11-29T08:22:40.000Z</time>
      </trkpt>
      <trkpt lat="47.50894" lon="6.76774">
        <ele>381</ele>
        <time>2015-11-29T08:22:41.000Z</time>
      </trkpt>
      <trkpt lat="47.50892" lon="6.76768">
        <ele>381</ele>
        <time>2015-11-29T08:22:42.000Z</time>
      </trkpt>
      <trkpt lat="47.5089" lon="6.76763">
        <ele>381</ele>
        <time>2015-11-29T08:22:43.000Z</time>
      </trkpt>
      <trkpt lat="47.50888" lon="6.76758">
        <ele>381</ele>
        <time>2015-11-29T08:22:44.000Z</time>
      </trkpt>
      <trkpt lat="47.50887" lon="6.76753">
        <ele>381</ele>
        <time>2015-11-29T08:22:45.000Z</time>
      </trkpt>
      <trkpt lat="47.50885" lon="6.76748">
        <ele>382</ele>
        <time>2015-11-29T08:22:46.000Z</time>
      </trkpt>
      <trkpt lat="47.50883" lon="6.76743">
        <ele>382</ele>
        <time>2015-11-29T08:22:47.000Z</time>
      </trkpt>
      <trkpt lat="47.50882" lon="6.76738">
        <ele>382</ele>
        <time>2015-11-29T08:22:48.000Z</time>
      </trkpt>
      <trkpt lat="47.5088" lon="6.76732">
        <ele>383</ele>
        <time>2015-11-29T08:22:49.000Z</time>
      </trkpt>
      <trkpt lat="47.50879" lon="6.76727">
        <ele>383</ele>
        <time>2015-11-29T08:22:50.000Z</time>
      </trkpt>
      <trkpt lat="47.50877" lon="6.76722">
        <ele>383</ele>
        <time>2015-11-29T08:22:51.000Z</time>
      </trkpt>
      <trkpt lat="47.50875" lon="6.76717">
        <ele>383</ele>
        <time>2015-11-29T08:22:52.000Z</time>
      </trkpt>
      <trkpt lat="47.50874" lon="6.76712">
        <ele>383</ele>
        <time>2015-11-29T08:22:53.000Z</time>
      </trkpt>
      <trkpt lat="47.50872" lon="6.76707">
        <ele>383</ele>
        <time>2015-11-29T08:22:54.000Z</time>
      </trkpt>
      <trkpt lat="47.5087" lon="6.76703">
        <ele>384</ele>
        <time>2015-11-29T08:22:55.000Z</time>
      </trkpt>
      <trkpt lat="47.50868" lon="6.76698">
        <ele>384</ele>
        <time>2015-11-29T08:22:56.000Z</time>
      </trkpt>
      <trkpt lat="47.50866" lon="6.76693">
        <ele>384</ele>
        <time>2015-11-29T08:22:57.000Z</time>
      </trkpt>
      <trkpt lat="47.50865" lon="6.76689">
        <ele>384</ele>
        <time>2015-11-29T08:22:58.000Z</time>
      </trkpt>
      <trkpt lat="47.50863" lon="6.76685">
        <ele>384</ele>
        <time>2015-11-29T08:22:59.000Z</time>
      </trkpt>
      <trkpt lat="47.50862" lon="6.76681">
        <ele>385</ele>
        <time>2015-11-29T08:23:00.000Z</time>
      </trkpt>
      <trkpt lat="47.50861" lon="6.76677">
        <ele>385</ele>
        <time>2015-11-29T08:23:01.001Z</time>
      </trkpt>
      <trkpt lat="47.50859" lon="6.76673">
        <ele>385</ele>
        <time>2015-11-29T08:23:02.000Z</time>
      </trkpt>
      <trkpt lat="47.50857" lon="6.76669">
        <ele>385</ele>
        <time>2015-11-29T08:23:03.000Z</time>
      </trkpt>
      <trkpt lat="47.50856" lon="6.76664">
        <ele>387</ele>
        <time>2015-11-29T08:23:04.000Z</time>
      </trkpt>
      <trkpt lat="47.50854" lon="6.7666">
        <ele>387</ele>
        <time>2015-11-29T08:23:05.000Z</time>
      </trkpt>
      <trkpt lat="47.50852" lon="6.76656">
        <ele>387</ele>
        <time>2015-11-29T08:23:06.000Z</time>
      </trkpt>
      <trkpt lat="47.5085" lon="6.76652">
        <ele>387</ele>
        <time>2015-11-29T08:23:07.000Z</time>
      </trkpt>
      <trkpt lat="47.50848" lon="6.76648">
        <ele>387</ele>
        <time>2015-11-29T08:23:08.000Z</time>
      </trkpt>
      <trkpt lat="47.50846" lon="6.76643">
        <ele>387</ele>
        <time>2015-11-29T08:23:09.000Z</time>
      </trkpt>
      <trkpt lat="47.50844" lon="6.76639">
        <ele>387</ele>
        <time>2015-11-29T08:23:10.000Z</time>
      </trkpt>
      <trkpt lat="47.50842" lon="6.76635">
        <ele>387</ele>
        <time>2015-11-29T08:23:11.000Z</time>
      </trkpt>
      <trkpt lat="47.5084" lon="6.7663">
        <ele>387</ele>
        <time>2015-11-29T08:23:12.000Z</time>
      </trkpt>
      <trkpt lat="47.50838" lon="6.76626">
        <ele>387</ele>
        <time>2015-11-29T08:23:13.000Z</time>
      </trkpt>
      <trkpt lat="47.50835" lon="6.76622">
        <ele>387</ele>
        <time>2015-11-29T08:23:14.000Z</time>
      </trkpt>
      <trkpt lat="47.50834" lon="6.76618">
        <ele>387</ele>
        <time>2015-11-29T08:23:15.000Z</time>
      </trkpt>
      <trkpt lat="47.50832" lon="6.76614">
        <ele>390</ele>
        <time>2015-11-29T08:23:16.000Z</time>
      </trkpt>
      <trkpt lat="47.5083" lon="6.7661">
        <ele>390</ele>
        <time>2015-11-29T08:23:17.000Z</time>
      </trkpt>
      <trkpt lat="47.50829" lon="6.76606">
        <ele>390</ele>
        <time>2015-11-29T08:23:18.000Z</time>
      </trkpt>
      <trkpt lat="47.50828" lon="6.76602">
        <ele>390</ele>
        <time>2015-11-29T08:23:19.000Z</time>
      </trkpt>
      <trkpt lat="47.50827" lon="6.76598">
        <ele>390</ele>
        <time>2015-11-29T08:23:20.000Z</time>
      </trkpt>
      <trkpt lat="47.50826" lon="6.76594">
        <ele>390</ele>
        <time>2015-11-29T08:23:21.000Z</time>
      </trkpt>
      <trkpt lat="47.50824" lon="6.76591">
        <ele>390</ele>
        <time>2015-11-29T08:23:22.000Z</time>
      </trkpt>
      <trkpt lat="47.5082" lon="6.76592">
        <ele>390</ele>
        <time>2015-11-29T08:23:24.000Z</time>
      </trkpt>
      <trkpt lat="47.50818" lon="6.76594">
        <ele>390</ele>
        <time>2015-11-29T08:23:25.000Z</time>
      </trkpt>
      <trkpt lat="47.50814" lon="6.76596">
        <ele>390</ele>
        <time>2015-11-29T08:23:27.000Z</time>
      </trkpt>
      <trkpt lat="47.50812" lon="6.76594">
        <ele>390</ele>
        <time>2015-11-29T08:23:28.000Z</time>
      </trkpt>
      <trkpt lat="47.5081" lon="6.76591">
        <ele>390</ele>
        <time>2015-11-29T08:23:29.000Z</time>
      </trkpt>
      <trkpt lat="47.50809" lon="6.76587">
        <ele>390</ele>
        <time>2015-11-29T08:23:30.000Z</time>
      </trkpt>
      <trkpt lat="47.50806" lon="6.76583">
        <ele>391</ele>
        <time>2015-11-29T08:23:32.000Z</time>
      </trkpt>
      <trkpt lat="47.50805" lon="6.76583">
        <ele>391</ele>
        <time>2015-11-29T08:23:33.000Z</time>
      </trkpt>
      <trkpt lat="47.50801" lon="6.76585">
        <ele>391</ele>
        <time>2015-11-29T08:23:35.000Z</time>
      </trkpt>
      <trkpt lat="47.50799" lon="6.76586">
        <ele>391</ele>
        <time>2015-11-29T08:23:36.000Z</time>
      </trkpt>
      <trkpt lat="47.50797" lon="6.76587">
        <ele>391</ele>
        <time>2015-11-29T08:23:37.000Z</time>
      </trkpt>
      <trkpt lat="47.50794" lon="6.76588">
        <ele>391</ele>
        <time>2015-11-29T08:23:38.000Z</time>
      </trkpt>
      <trkpt lat="47.50792" lon="6.76589">
        <ele>391</ele>
        <time>2015-11-29T08:23:39.000Z</time>
      </trkpt>
      <trkpt lat="47.5079" lon="6.7659">
        <ele>391</ele>
        <time>2015-11-29T08:23:40.000Z</time>
      </trkpt>
      <trkpt lat="47.50787" lon="6.76591">
        <ele>391</ele>
        <time>2015-11-29T08:23:41.000Z</time>
      </trkpt>
      <trkpt lat="47.50784" lon="6.76592">
        <ele>391</ele>
        <time>2015-11-29T08:23:42.000Z</time>
      </trkpt>
      <trkpt lat="47.50781" lon="6.76593">
        <ele>391</ele>
        <time>2015-11-29T08:23:43.000Z</time>
      </trkpt>
      <trkpt lat="47.50778" lon="6.76594">
        <ele>392</ele>
        <time>2015-11-29T08:23:44.000Z</time>
      </trkpt>
      <trkpt lat="47.50775" lon="6.76594">
        <ele>392</ele>
        <time>2015-11-29T08:23:45.000Z</time>
      </trkpt>
      <trkpt lat="47.50772" lon="6.76595">
        <ele>392</ele>
        <time>2015-11-29T08:23:46.000Z</time>
      </trkpt>
      <trkpt lat="47.50769" lon="6.76596">
        <ele>392</ele>
        <time>2015-11-29T08:23:47.000Z</time>
      </trkpt>
      <trkpt lat="47.50766" lon="6.76596">
        <ele>392</ele>
        <time>2015-11-29T08:23:48.000Z</time>
      </trkpt>
      <trkpt lat="47.50763" lon="6.76597">
        <ele>392</ele>
        <time>2015-11-29T08:23:49.000Z</time>
      </trkpt>
      <trkpt lat="47.5076" lon="6.76597">
        <ele>392</ele>
        <time>2015-11-29T08:23:50.000Z</time>
      </trkpt>
      <trkpt lat="47.50757" lon="6.76598">
        <ele>392</ele>
        <time>2015-11-29T08:23:51.000Z</time>
      </trkpt>
      <trkpt lat="47.50755" lon="6.76598">
        <ele>392</ele>
        <time>2015-11-29T08:23:52.000Z</time>
      </trkpt>
      <trkpt lat="47.50752" lon="6.76599">
        <ele>393</ele>
        <time>2015-11-29T08:23:53.000Z</time>
      </trkpt>
      <trkpt lat="47.50749" lon="6.76599">
        <ele>394</ele>
        <time>2015-11-29T08:23:54.000Z</time>
      </trkpt>
      <trkpt lat="47.50746" lon="6.76599">
        <ele>394</ele>
        <time>2015-11-29T08:23:55.000Z</time>
      </trkpt>
      <trkpt lat="47.50743" lon="6.76599">
        <ele>394</ele>
        <time>2015-11-29T08:23:56.000Z</time>
      </trkpt>
      <trkpt lat="47.5074" lon="6.76598">
        <ele>394</ele>
        <time>2015-11-29T08:23:57.000Z</time>
      </trkpt>
      <trkpt lat="47.50737" lon="6.76597">
        <ele>394</ele>
        <time>2015-11-29T08:23:58.000Z</time>
      </trkpt>
      <trkpt lat="47.50734" lon="6.76597">
        <ele>394</ele>
        <time>2015-11-29T08:23:59.000Z</time>
      </trkpt>
      <trkpt lat="47.50731" lon="6.76597">
        <ele>394</ele>
        <time>2015-11-29T08:24:00.000Z</time>
      </trkpt>
      <trkpt lat="47.50729" lon="6.76597">
        <ele>394</ele>
        <time>2015-11-29T08:24:01.000Z</time>
      </trkpt>
      <trkpt lat="47.50726" lon="6.76597">
        <ele>394</ele>
        <time>2015-11-29T08:24:02.000Z</time>
      </trkpt>
      <trkpt lat="47.50723" lon="6.76597">
        <ele>394</ele>
        <time>2015-11-29T08:24:03.000Z</time>
      </trkpt>
      <trkpt lat="47.5072" lon="6.76596">
        <ele>394</ele>
        <time>2015-11-29T08:24:04.000Z</time>
      </trkpt>
      <trkpt lat="47.50717" lon="6.76596">
        <ele>394</ele>
        <time>2015-11-29T08:24:05.000Z</time>
      </trkpt>
      <trkpt lat="47.50714" lon="6.76595">
        <ele>395</ele>
        <time>2015-11-29T08:24:06.000Z</time>
      </trkpt>
      <trkpt lat="47.5071" lon="6.76594">
        <ele>395</ele>
        <time>2015-11-29T08:24:07.000Z</time>
      </trkpt>
      <trkpt lat="47.50707" lon="6.76594">
        <ele>395</ele>
        <time>2015-11-29T08:24:08.000Z</time>
      </trkpt>
      <trkpt lat="47.50704" lon="6.76593">
        <ele>395</ele>
        <time>2015-11-29T08:24:09.000Z</time>
      </trkpt>
      <trkpt lat="47.50701" lon="6.76592">
        <ele>395</ele>
        <time>2015-11-29T08:24:10.000Z</time>
      </trkpt>
      <trkpt lat="47.50698" lon="6.76592">
        <ele>395</ele>
        <time>2015-11-29T08:24:11.000Z</time>
      </trkpt>
      <trkpt lat="47.50695" lon="6.76593">
        <ele>395</ele>
        <time>2015-11-29T08:24:12.000Z</time>
      </trkpt>
      <trkpt lat="47.50692" lon="6.76593">
        <ele>395</ele>
        <time>2015-11-29T08:24:13.000Z</time>
      </trkpt>
      <trkpt lat="47.50689" lon="6.76593">
        <ele>395</ele>
        <time>2015-11-29T08:24:14.000Z</time>
      </trkpt>
      <trkpt lat="47.50686" lon="6.76593">
        <ele>395</ele>
        <time>2015-11-29T08:24:15.000Z</time>
      </trkpt>
      <trkpt lat="47.50683" lon="6.76593">
        <ele>396</ele>
        <time>2015-11-29T08:24:16.000Z</time>
      </trkpt>
      <trkpt lat="47.5068" lon="6.76594">
        <ele>396</ele>
        <time>2015-11-29T08:24:17.000Z</time>
      </trkpt>
      <trkpt lat="47.50677" lon="6.76594">
        <ele>396</ele>
        <time>2015-11-29T08:24:18.000Z</time>
      </trkpt>
      <trkpt lat="47.50674" lon="6.76594">
        <ele>396</ele>
        <time>2015-11-29T08:24:19.000Z</time>
      </trkpt>
      <trkpt lat="47.50671" lon="6.76595">
        <ele>396</ele>
        <time>2015-11-29T08:24:20.000Z</time>
      </trkpt>
      <trkpt lat="47.50668" lon="6.76596">
        <ele>396</ele>
        <time>2015-11-29T08:24:21.000Z</time>
      </trkpt>
      <trkpt lat="47.50665" lon="6.76596">
        <ele>397</ele>
        <time>2015-11-29T08:24:22.000Z</time>
      </trkpt>
      <trkpt lat="47.50663" lon="6.76597">
        <ele>397</ele>
        <time>2015-11-29T08:24:23.000Z</time>
      </trkpt>
      <trkpt lat="47.5066" lon="6.76598">
        <ele>397</ele>
        <time>2015-11-29T08:24:24.000Z</time>
      </trkpt>
      <trkpt lat="47.50657" lon="6.76599">
        <ele>397</ele>
        <time>2015-11-29T08:24:25.000Z</time>
      </trkpt>
      <trkpt lat="47.50654" lon="6.76599">
        <ele>397</ele>
        <time>2015-11-29T08:24:26.000Z</time>
      </trkpt>
      <trkpt lat="47.50651" lon="6.76601">
        <ele>397</ele>
        <time>2015-11-29T08:24:27.000Z</time>
      </trkpt>
      <trkpt lat="47.50649" lon="6.76602">
        <ele>397</ele>
        <time>2015-11-29T08:24:28.000Z</time>
      </trkpt>
      <trkpt lat="47.50646" lon="6.76603">
        <ele>397</ele>
        <time>2015-11-29T08:24:29.000Z</time>
      </trkpt>
      <trkpt lat="47.50643" lon="6.76603">
        <ele>397</ele>
        <time>2015-11-29T08:24:30.000Z</time>
      </trkpt>
      <trkpt lat="47.50639" lon="6.76604">
        <ele>397</ele>
        <time>2015-11-29T08:24:31.000Z</time>
      </trkpt>
      <trkpt lat="47.50636" lon="6.76604">
        <ele>397</ele>
        <time>2015-11-29T08:24:32.000Z</time>
      </trkpt>
      <trkpt lat="47.50633" lon="6.76605">
        <ele>397</ele>
        <time>2015-11-29T08:24:33.000Z</time>
      </trkpt>
      <trkpt lat="47.50631" lon="6.76607">
        <ele>397</ele>
        <time>2015-11-29T08:24:34.000Z</time>
      </trkpt>
      <trkpt lat="47.50628" lon="6.76609">
        <ele>397</ele>
        <time>2015-11-29T08:24:35.000Z</time>
      </trkpt>
      <trkpt lat="47.50626" lon="6.7661">
        <ele>397</ele>
        <time>2015-11-29T08:24:36.000Z</time>
      </trkpt>
      <trkpt lat="47.50623" lon="6.76612">
        <ele>397</ele>
        <time>2015-11-29T08:24:37.000Z</time>
      </trkpt>
      <trkpt lat="47.50621" lon="6.76613">
        <ele>397</ele>
        <time>2015-11-29T08:24:38.000Z</time>
      </trkpt>
      <trkpt lat="47.50618" lon="6.76614">
        <ele>397</ele>
        <time>2015-11-29T08:24:39.000Z</time>
      </trkpt>
      <trkpt lat="47.50616" lon="6.76616">
        <ele>397</ele>
        <time>2015-11-29T08:24:40.000Z</time>
      </trkpt>
      <trkpt lat="47.50613" lon="6.76617">
        <ele>398</ele>
        <time>2015-11-29T08:24:41.000Z</time>
      </trkpt>
      <trkpt lat="47.50611" lon="6.76618">
        <ele>398</ele>
        <time>2015-11-29T08:24:42.000Z</time>
      </trkpt>
      <trkpt lat="47.50608" lon="6.76619">
        <ele>398</ele>
        <time>2015-11-29T08:24:43.000Z</time>
      </trkpt>
      <trkpt lat="47.50606" lon="6.7662">
        <ele>398</ele>
        <time>2015-11-29T08:24:44.000Z</time>
      </trkpt>
      <trkpt lat="47.50603" lon="6.76621">
        <ele>398</ele>
        <time>2015-11-29T08:24:45.000Z</time>
      </trkpt>
      <trkpt lat="47.50601" lon="6.76623">
        <ele>398</ele>
        <time>2015-11-29T08:24:46.000Z</time>
      </trkpt>
      <trkpt lat="47.50598" lon="6.76624">
        <ele>398</ele>
        <time>2015-11-29T08:24:47.000Z</time>
      </trkpt>
      <trkpt lat="47.50596" lon="6.76626">
        <ele>398</ele>
        <time>2015-11-29T08:24:48.000Z</time>
      </trkpt>
      <trkpt lat="47.50593" lon="6.76627">
        <ele>398</ele>
        <time>2015-11-29T08:24:49.000Z</time>
      </trkpt>
      <trkpt lat="47.50591" lon="6.76628">
        <ele>398</ele>
        <time>2015-11-29T08:24:50.000Z</time>
      </trkpt>
      <trkpt lat="47.50588" lon="6.76629">
        <ele>398</ele>
        <time>2015-11-29T08:24:51.000Z</time>
      </trkpt>
      <trkpt lat="47.50586" lon="6.7663">
        <ele>398</ele>
        <time>2015-11-29T08:24:52.000Z</time>
      </trkpt>
      <trkpt lat="47.50583" lon="6.76631">
        <ele>399</ele>
        <time>2015-11-29T08:24:53.000Z</time>
      </trkpt>
      <trkpt lat="47.5058" lon="6.76631">
        <ele>399</ele>
        <time>2015-11-29T08:24:54.000Z</time>
      </trkpt>
      <trkpt lat="47.50577" lon="6.76631">
        <ele>399</ele>
        <time>2015-11-29T08:24:55.000Z</time>
      </trkpt>
      <trkpt lat="47.50574" lon="6.76631">
        <ele>399</ele>
        <time>2015-11-29T08:24:56.000Z</time>
      </trkpt>
      <trkpt lat="47.50571" lon="6.76632">
        <ele>399</ele>
        <time>2015-11-29T08:24:57.000Z</time>
      </trkpt>
      <trkpt lat="47.50569" lon="6.76632">
        <ele>399</ele>
        <time>2015-11-29T08:24:58.000Z</time>
      </trkpt>
      <trkpt lat="47.50566" lon="6.76633">
        <ele>399</ele>
        <time>2015-11-29T08:24:59.000Z</time>
      </trkpt>
      <trkpt lat="47.50563" lon="6.76633">
        <ele>399</ele>
        <time>2015-11-29T08:25:00.000Z</time>
      </trkpt>
      <trkpt lat="47.5056" lon="6.76634">
        <ele>399</ele>
        <time>2015-11-29T08:25:01.000Z</time>
      </trkpt>
      <trkpt lat="47.50557" lon="6.76634">
        <ele>399</ele>
        <time>2015-11-29T08:25:02.000Z</time>
      </trkpt>
      <trkpt lat="47.50554" lon="6.76634">
        <ele>399</ele>
        <time>2015-11-29T08:25:03.000Z</time>
      </trkpt>
      <trkpt lat="47.50551" lon="6.76635">
        <ele>399</ele>
        <time>2015-11-29T08:25:04.000Z</time>
      </trkpt>
      <trkpt lat="47.50548" lon="6.76636">
        <ele>399</ele>
        <time>2015-11-29T08:25:05.000Z</time>
      </trkpt>
      <trkpt lat="47.50545" lon="6.76636">
        <ele>399</ele>
        <time>2015-11-29T08:25:06.000Z</time>
      </trkpt>
      <trkpt lat="47.50541" lon="6.76637">
        <ele>399</ele>
        <time>2015-11-29T08:25:07.000Z</time>
      </trkpt>
      <trkpt lat="47.50538" lon="6.76639">
        <ele>399</ele>
        <time>2015-11-29T08:25:08.000Z</time>
      </trkpt>
      <trkpt lat="47.50535" lon="6.7664">
        <ele>399</ele>
        <time>2015-11-29T08:25:09.000Z</time>
      </trkpt>
      <trkpt lat="47.50531" lon="6.76641">
        <ele>399</ele>
        <time>2015-11-29T08:25:10.000Z</time>
      </trkpt>
      <trkpt lat="47.50528" lon="6.76642">
        <ele>399</ele>
        <time>2015-11-29T08:25:11.000Z</time>
      </trkpt>
      <trkpt lat="47.50524" lon="6.76644">
        <ele>399</ele>
        <time>2015-11-29T08:25:12.000Z</time>
      </trkpt>
      <trkpt lat="47.5052" lon="6.76645">
        <ele>399</ele>
        <time>2015-11-29T08:25:13.000Z</time>
      </trkpt>
      <trkpt lat="47.50516" lon="6.76646">
        <ele>399</ele>
        <time>2015-11-29T08:25:14.000Z</time>
      </trkpt>
      <trkpt lat="47.50512" lon="6.76648">
        <ele>399</ele>
        <time>2015-11-29T08:25:15.000Z</time>
      </trkpt>
      <trkpt lat="47.50507" lon="6.76649">
        <ele>399</ele>
        <time>2015-11-29T08:25:16.000Z</time>
      </trkpt>
      <trkpt lat="47.50503" lon="6.7665">
        <ele>399</ele>
        <time>2015-11-29T08:25:17.000Z</time>
      </trkpt>
      <trkpt lat="47.50499" lon="6.76652">
        <ele>399</ele>
        <time>2015-11-29T08:25:18.000Z</time>
      </trkpt>
      <trkpt lat="47.50495" lon="6.76653">
        <ele>399</ele>
        <time>2015-11-29T08:25:19.000Z</time>
      </trkpt>
      <trkpt lat="47.50491" lon="6.76654">
        <ele>399</ele>
        <time>2015-11-29T08:25:20.000Z</time>
      </trkpt>
      <trkpt lat="47.50487" lon="6.76656">
        <ele>399</ele>
        <time>2015-11-29T08:25:21.000Z</time>
      </trkpt>
      <trkpt lat="47.50482" lon="6.76658">
        <ele>399</ele>
        <time>2015-11-29T08:25:22.000Z</time>
      </trkpt>
      <trkpt lat="47.50478" lon="6.76659">
        <ele>399</ele>
        <time>2015-11-29T08:25:23.000Z</time>
      </trkpt>
      <trkpt lat="47.50473" lon="6.76661">
        <ele>398</ele>
        <time>2015-11-29T08:25:24.000Z</time>
      </trkpt>
      <trkpt lat="47.50468" lon="6.76663">
        <ele>398</ele>
        <time>2015-11-29T08:25:25.000Z</time>
      </trkpt>
      <trkpt lat="47.50464" lon="6.76665">
        <ele>398</ele>
        <time>2015-11-29T08:25:26.000Z</time>
      </trkpt>
      <trkpt lat="47.50459" lon="6.76667">
        <ele>397</ele>
        <time>2015-11-29T08:25:27.000Z</time>
      </trkpt>
      <trkpt lat="47.50455" lon="6.76669">
        <ele>397</ele>
        <time>2015-11-29T08:25:28.000Z</time>
      </trkpt>
      <trkpt lat="47.50451" lon="6.76671">
        <ele>397</ele>
        <time>2015-11-29T08:25:29.000Z</time>
      </trkpt>
      <trkpt lat="47.50446" lon="6.76673">
        <ele>397</ele>
        <time>2015-11-29T08:25:30.000Z</time>
      </trkpt>
      <trkpt lat="47.50442" lon="6.76674">
        <ele>397</ele>
        <time>2015-11-29T08:25:31.000Z</time>
      </trkpt>
      <trkpt lat="47.50439" lon="6.76676">
        <ele>397</ele>
        <time>2015-11-29T08:25:32.000Z</time>
      </trkpt>
      <trkpt lat="47.50435" lon="6.76677">
        <ele>397</ele>
        <time>2015-11-29T08:25:33.000Z</time>
      </trkpt>
      <trkpt lat="47.5043" lon="6.76679">
        <ele>397</ele>
        <time>2015-11-29T08:25:34.000Z</time>
      </trkpt>
      <trkpt lat="47.50427" lon="6.76681">
        <ele>397</ele>
        <time>2015-11-29T08:25:35.000Z</time>
      </trkpt>
      <trkpt lat="47.50423" lon="6.76683">
        <ele>397</ele>
        <time>2015-11-29T08:25:36.000Z</time>
      </trkpt>
      <trkpt lat="47.50419" lon="6.76684">
        <ele>397</ele>
        <time>2015-11-29T08:25:37.000Z</time>
      </trkpt>
      <trkpt lat="47.50415" lon="6.76686">
        <ele>397</ele>
        <time>2015-11-29T08:25:38.000Z</time>
      </trkpt>
      <trkpt lat="47.5041" lon="6.76688">
        <ele>397</ele>
        <time>2015-11-29T08:25:39.000Z</time>
      </trkpt>
      <trkpt lat="47.50406" lon="6.7669">
        <ele>397</ele>
        <time>2015-11-29T08:25:40.000Z</time>
      </trkpt>
      <trkpt lat="47.50402" lon="6.76691">
        <ele>397</ele>
        <time>2015-11-29T08:25:41.000Z</time>
      </trkpt>
      <trkpt lat="47.50398" lon="6.76694">
        <ele>397</ele>
        <time>2015-11-29T08:25:42.000Z</time>
      </trkpt>
      <trkpt lat="47.50394" lon="6.76696">
        <ele>397</ele>
        <time>2015-11-29T08:25:43.000Z</time>
      </trkpt>
      <trkpt lat="47.5039" lon="6.76698">
        <ele>397</ele>
        <time>2015-11-29T08:25:44.000Z</time>
      </trkpt>
      <trkpt lat="47.50386" lon="6.767">
        <ele>397</ele>
        <time>2015-11-29T08:25:45.000Z</time>
      </trkpt>
      <trkpt lat="47.50383" lon="6.76703">
        <ele>397</ele>
        <time>2015-11-29T08:25:46.000Z</time>
      </trkpt>
      <trkpt lat="47.50379" lon="6.76705">
        <ele>397</ele>
        <time>2015-11-29T08:25:47.000Z</time>
      </trkpt>
      <trkpt lat="47.50376" lon="6.76706">
        <ele>397</ele>
        <time>2015-11-29T08:25:48.000Z</time>
      </trkpt>
      <trkpt lat="47.50372" lon="6.76708">
        <ele>397</ele>
        <time>2015-11-29T08:25:49.000Z</time>
      </trkpt>
      <trkpt lat="47.50368" lon="6.7671">
        <ele>398</ele>
        <time>2015-11-29T08:25:50.000Z</time>
      </trkpt>
      <trkpt lat="47.50365" lon="6.76711">
        <ele>398</ele>
        <time>2015-11-29T08:25:51.000Z</time>
      </trkpt>
      <trkpt lat="47.50361" lon="6.76712">
        <ele>398</ele>
        <time>2015-11-29T08:25:52.000Z</time>
      </trkpt>
      <trkpt lat="47.50357" lon="6.76713">
        <ele>398</ele>
        <time>2015-11-29T08:25:53.000Z</time>
      </trkpt>
      <trkpt lat="47.50353" lon="6.76714">
        <ele>398</ele>
        <time>2015-11-29T08:25:54.000Z</time>
      </trkpt>
      <trkpt lat="47.5035" lon="6.76716">
        <ele>398</ele>
        <time>2015-11-29T08:25:55.000Z</time>
      </trkpt>
      <trkpt lat="47.50346" lon="6.76718">
        <ele>398</ele>
        <time>2015-11-29T08:25:56.000Z</time>
      </trkpt>
      <trkpt lat="47.50342" lon="6.76719">
        <ele>398</ele>
        <time>2015-11-29T08:25:57.000Z</time>
      </trkpt>
      <trkpt lat="47.50339" lon="6.7672">
        <ele>398</ele>
        <time>2015-11-29T08:25:58.000Z</time>
      </trkpt>
      <trkpt lat="47.50336" lon="6.76721">
        <ele>398</ele>
        <time>2015-11-29T08:25:59.000Z</time>
      </trkpt>
      <trkpt lat="47.50332" lon="6.76722">
        <ele>398</ele>
        <time>2015-11-29T08:26:00.000Z</time>
      </trkpt>
      <trkpt lat="47.50329" lon="6.76724">
        <ele>398</ele>
        <time>2015-11-29T08:26:01.000Z</time>
      </trkpt>
      <trkpt lat="47.50325" lon="6.76725">
        <ele>398</ele>
        <time>2015-11-29T08:26:02.000Z</time>
      </trkpt>
      <trkpt lat="47.50322" lon="6.76727">
        <ele>398</ele>
        <time>2015-11-29T08:26:03.000Z</time>
      </trkpt>
      <trkpt lat="47.50318" lon="6.76729">
        <ele>398</ele>
        <time>2015-11-29T08:26:04.000Z</time>
      </trkpt>
      <trkpt lat="47.50315" lon="6.7673">
        <ele>398</ele>
        <time>2015-11-29T08:26:05.000Z</time>
      </trkpt>
      <trkpt lat="47.50312" lon="6.76732">
        <ele>398</ele>
        <time>2015-11-29T08:26:06.000Z</time>
      </trkpt>
      <trkpt lat="47.50308" lon="6.76734">
        <ele>398</ele>
        <time>2015-11-29T08:26:07.000Z</time>
      </trkpt>
      <trkpt lat="47.50305" lon="6.76735">
        <ele>398</ele>
        <time>2015-11-29T08:26:08.000Z</time>
      </trkpt>
      <trkpt lat="47.50301" lon="6.76736">
        <ele>399</ele>
        <time>2015-11-29T08:26:09.000Z</time>
      </trkpt>
      <trkpt lat="47.50297" lon="6.76736">
        <ele>399</ele>
        <time>2015-11-29T08:26:10.000Z</time>
      </trkpt>
      <trkpt lat="47.50293" lon="6.76737">
        <ele>399</ele>
        <time>2015-11-29T08:26:11.000Z</time>
      </trkpt>
      <trkpt lat="47.50289" lon="6.76738">
        <ele>399</ele>
        <time>2015-11-29T08:26:12.000Z</time>
      </trkpt>
      <trkpt lat="47.50286" lon="6.76738">
        <ele>399</ele>
        <time>2015-11-29T08:26:13.000Z</time>
      </trkpt>
      <trkpt lat="47.50282" lon="6.76738">
        <ele>399</ele>
        <time>2015-11-29T08:26:14.000Z</time>
      </trkpt>
      <trkpt lat="47.50279" lon="6.76739">
        <ele>399</ele>
        <time>2015-11-29T08:26:15.000Z</time>
      </trkpt>
      <trkpt lat="47.50276" lon="6.7674">
        <ele>399</ele>
        <time>2015-11-29T08:26:16.000Z</time>
      </trkpt>
      <trkpt lat="47.50272" lon="6.76741">
        <ele>399</ele>
        <time>2015-11-29T08:26:17.000Z</time>
      </trkpt>
      <trkpt lat="47.50269" lon="6.76742">
        <ele>399</ele>
        <time>2015-11-29T08:26:18.000Z</time>
      </trkpt>
      <trkpt lat="47.50266" lon="6.76743">
        <ele>399</ele>
        <time>2015-11-29T08:26:19.000Z</time>
      </trkpt>
      <trkpt lat="47.50263" lon="6.76744">
        <ele>399</ele>
        <time>2015-11-29T08:26:20.000Z</time>
      </trkpt>
      <trkpt lat="47.5026" lon="6.76745">
        <ele>399</ele>
        <time>2015-11-29T08:26:21.000Z</time>
      </trkpt>
      <trkpt lat="47.50257" lon="6.76746">
        <ele>400</ele>
        <time>2015-11-29T08:26:22.000Z</time>
      </trkpt>
      <trkpt lat="47.50254" lon="6.76746">
        <ele>400</ele>
        <time>2015-11-29T08:26:23.000Z</time>
      </trkpt>
      <trkpt lat="47.50251" lon="6.76746">
        <ele>400</ele>
        <time>2015-11-29T08:26:24.000Z</time>
      </trkpt>
      <trkpt lat="47.50248" lon="6.76744">
        <ele>400</ele>
        <time>2015-11-29T08:26:25.000Z</time>
      </trkpt>
      <trkpt lat="47.50246" lon="6.76742">
        <ele>401</ele>
        <time>2015-11-29T08:26:26.000Z</time>
      </trkpt>
      <trkpt lat="47.50244" lon="6.76739">
        <ele>401</ele>
        <time>2015-11-29T08:26:27.000Z</time>
      </trkpt>
      <trkpt lat="47.50242" lon="6.76736">
        <ele>401</ele>
        <time>2015-11-29T08:26:28.000Z</time>
      </trkpt>
      <trkpt lat="47.5024" lon="6.76733">
        <ele>401</ele>
        <time>2015-11-29T08:26:29.000Z</time>
      </trkpt>
      <trkpt lat="47.50239" lon="6.76729">
        <ele>401</ele>
        <time>2015-11-29T08:26:30.000Z</time>
      </trkpt>
      <trkpt lat="47.50237" lon="6.76725">
        <ele>401</ele>
        <time>2015-11-29T08:26:31.000Z</time>
      </trkpt>
      <trkpt lat="47.50235" lon="6.76721">
        <ele>401</ele>
        <time>2015-11-29T08:26:32.000Z</time>
      </trkpt>
      <trkpt lat="47.50234" lon="6.76718">
        <ele>402</ele>
        <time>2015-11-29T08:26:33.000Z</time>
      </trkpt>
      <trkpt lat="47.50232" lon="6.76714">
        <ele>402</ele>
        <time>2015-11-29T08:26:34.000Z</time>
      </trkpt>
      <trkpt lat="47.5023" lon="6.7671">
        <ele>402</ele>
        <time>2015-11-29T08:26:35.000Z</time>
      </trkpt>
      <trkpt lat="47.50228" lon="6.76707">
        <ele>402</ele>
        <time>2015-11-29T08:26:36.000Z</time>
      </trkpt>
      <trkpt lat="47.50226" lon="6.76703">
        <ele>402</ele>
        <time>2015-11-29T08:26:37.000Z</time>
      </trkpt>
      <trkpt lat="47.50225" lon="6.76699">
        <ele>402</ele>
        <time>2015-11-29T08:26:38.000Z</time>
      </trkpt>
      <trkpt lat="47.50223" lon="6.76695">
        <ele>402</ele>
        <time>2015-11-29T08:26:39.000Z</time>
      </trkpt>
      <trkpt lat="47.50222" lon="6.7669">
        <ele>402</ele>
        <time>2015-11-29T08:26:40.000Z</time>
      </trkpt>
      <trkpt lat="47.50221" lon="6.76686">
        <ele>402</ele>
        <time>2015-11-29T08:26:41.000Z</time>
      </trkpt>
      <trkpt lat="47.50219" lon="6.76682">
        <ele>402</ele>
        <time>2015-11-29T08:26:42.000Z</time>
      </trkpt>
      <trkpt lat="47.50218" lon="6.76677">
        <ele>402</ele>
        <time>2015-11-29T08:26:43.000Z</time>
      </trkpt>
      <trkpt lat="47.50217" lon="6.76673">
        <ele>402</ele>
        <time>2015-11-29T08:26:44.000Z</time>
      </trkpt>
      <trkpt lat="47.50216" lon="6.76669">
        <ele>402</ele>
        <time>2015-11-29T08:26:45.000Z</time>
      </trkpt>
      <trkpt lat="47.50215" lon="6.76665">
        <ele>402</ele>
        <time>2015-11-29T08:26:46.000Z</time>
      </trkpt>
      <trkpt lat="47.50213" lon="6.7666">
        <ele>402</ele>
        <time>2015-11-29T08:26:47.000Z</time>
      </trkpt>
      <trkpt lat="47.50212" lon="6.76656">
        <ele>402</ele>
        <time>2015-11-29T08:26:48.000Z</time>
      </trkpt>
      <trkpt lat="47.5021" lon="6.76651">
        <ele>402</ele>
        <time>2015-11-29T08:26:49.000Z</time>
      </trkpt>
      <trkpt lat="47.50208" lon="6.76646">
        <ele>402</ele>
        <time>2015-11-29T08:26:50.000Z</time>
      </trkpt>
      <trkpt lat="47.50206" lon="6.76641">
        <ele>402</ele>
        <time>2015-11-29T08:26:51.001Z</time>
      </trkpt>
      <trkpt lat="47.50205" lon="6.76636">
        <ele>402</ele>
        <time>2015-11-29T08:26:52.001Z</time>
      </trkpt>
      <trkpt lat="47.50203" lon="6.76632">
        <ele>402</ele>
        <time>2015-11-29T08:26:53.000Z</time>
      </trkpt>
      <trkpt lat="47.50201" lon="6.76627">
        <ele>402</ele>
        <time>2015-11-29T08:26:54.000Z</time>
      </trkpt>
      <trkpt lat="47.502" lon="6.76622">
        <ele>402</ele>
        <time>2015-11-29T08:26:55.000Z</time>
      </trkpt>
      <trkpt lat="47.50198" lon="6.76618">
        <ele>403</ele>
        <time>2015-11-29T08:26:56.000Z</time>
      </trkpt>
      <trkpt lat="47.50196" lon="6.76613">
        <ele>403</ele>
        <time>2015-11-29T08:26:56.999Z</time>
      </trkpt>
      <trkpt lat="47.50194" lon="6.76608">
        <ele>403</ele>
        <time>2015-11-29T08:26:58.000Z</time>
      </trkpt>
      <trkpt lat="47.50193" lon="6.76605">
        <ele>403</ele>
        <time>2015-11-29T08:26:59.000Z</time>
      </trkpt>
      <trkpt lat="47.50191" lon="6.76599">
        <ele>403</ele>
        <time>2015-11-29T08:27:01.000Z</time>
      </trkpt>
      <trkpt lat="47.5019" lon="6.76597">
        <ele>403</ele>
        <time>2015-11-29T08:27:02.000Z</time>
      </trkpt>
      <trkpt lat="47.50188" lon="6.76592">
        <ele>404</ele>
        <time>2015-11-29T08:27:05.000Z</time>
      </trkpt>
      <trkpt lat="47.50188" lon="6.76589">
        <ele>404</ele>
        <time>2015-11-29T08:27:06.000Z</time>
      </trkpt>
      <trkpt lat="47.50188" lon="6.76583">
        <ele>403</ele>
        <time>2015-11-29T08:27:08.000Z</time>
      </trkpt>
      <trkpt lat="47.5019" lon="6.7658">
        <ele>403</ele>
        <time>2015-11-29T08:27:09.000Z</time>
      </trkpt>
      <trkpt lat="47.50192" lon="6.76578">
        <ele>403</ele>
        <time>2015-11-29T08:27:10.000Z</time>
      </trkpt>
      <trkpt lat="47.50194" lon="6.76577">
        <ele>403</ele>
        <time>2015-11-29T08:27:11.000Z</time>
      </trkpt>
      <trkpt lat="47.50196" lon="6.76571">
        <ele>402</ele>
        <time>2015-11-29T08:27:15.000Z</time>
      </trkpt>
      <trkpt lat="47.50196" lon="6.76569">
        <ele>402</ele>
        <time>2015-11-29T08:27:16.000Z</time>
      </trkpt>
      <trkpt lat="47.50197" lon="6.76564">
        <ele>402</ele>
        <time>2015-11-29T08:27:18.000Z</time>
      </trkpt>
      <trkpt lat="47.50197" lon="6.76562">
        <ele>402</ele>
        <time>2015-11-29T08:27:19.000Z</time>
      </trkpt>
      <trkpt lat="47.50197" lon="6.76556">
        <ele>402</ele>
        <time>2015-11-29T08:27:22.000Z</time>
      </trkpt>
      <trkpt lat="47.50198" lon="6.76554">
        <ele>402</ele>
        <time>2015-11-29T08:27:23.000Z</time>
      </trkpt>
      <trkpt lat="47.502" lon="6.7655">
        <ele>401</ele>
        <time>2015-11-29T08:27:25.000Z</time>
      </trkpt>
      <trkpt lat="47.50202" lon="6.76547">
        <ele>401</ele>
        <time>2015-11-29T08:27:26.000Z</time>
      </trkpt>
      <trkpt lat="47.50203" lon="6.76545">
        <ele>401</ele>
        <time>2015-11-29T08:27:27.000Z</time>
      </trkpt>
      <trkpt lat="47.50205" lon="6.76542">
        <ele>401</ele>
        <time>2015-11-29T08:27:28.000Z</time>
      </trkpt>
      <trkpt lat="47.50206" lon="6.76539">
        <ele>401</ele>
        <time>2015-11-29T08:27:29.000Z</time>
      </trkpt>
      <trkpt lat="47.50207" lon="6.76536">
        <ele>401</ele>
        <time>2015-11-29T08:27:30.000Z</time>
      </trkpt>
      <trkpt lat="47.50207" lon="6.76533">
        <ele>401</ele>
        <time>2015-11-29T08:27:31.000Z</time>
      </trkpt>
      <trkpt lat="47.50208" lon="6.76529">
        <ele>401</ele>
        <time>2015-11-29T08:27:32.000Z</time>
      </trkpt>
      <trkpt lat="47.50208" lon="6.76526">
        <ele>400</ele>
        <time>2015-11-29T08:27:33.000Z</time>
      </trkpt>
      <trkpt lat="47.50207" lon="6.76522">
        <ele>400</ele>
        <time>2015-11-29T08:27:34.000Z</time>
      </trkpt>
      <trkpt lat="47.50206" lon="6.76519">
        <ele>401</ele>
        <time>2015-11-29T08:27:35.000Z</time>
      </trkpt>
      <trkpt lat="47.50205" lon="6.76516">
        <ele>401</ele>
        <time>2015-11-29T08:27:36.000Z</time>
      </trkpt>
      <trkpt lat="47.50204" lon="6.76513">
        <ele>401</ele>
        <time>2015-11-29T08:27:37.000Z</time>
      </trkpt>
      <trkpt lat="47.50202" lon="6.7651">
        <ele>401</ele>
        <time>2015-11-29T08:27:38.000Z</time>
      </trkpt>
      <trkpt lat="47.50201" lon="6.76504">
        <ele>401</ele>
        <time>2015-11-29T08:27:40.000Z</time>
      </trkpt>
      <trkpt lat="47.502" lon="6.765">
        <ele>398</ele>
        <time>2015-11-29T08:27:41.000Z</time>
      </trkpt>
      <trkpt lat="47.502" lon="6.76496">
        <ele>398</ele>
        <time>2015-11-29T08:27:42.000Z</time>
      </trkpt>
      <trkpt lat="47.50199" lon="6.76491">
        <ele>398</ele>
        <time>2015-11-29T08:27:43.000Z</time>
      </trkpt>
      <trkpt lat="47.50198" lon="6.76487">
        <ele>398</ele>
        <time>2015-11-29T08:27:44.000Z</time>
      </trkpt>
      <trkpt lat="47.50198" lon="6.76483">
        <ele>398</ele>
        <time>2015-11-29T08:27:45.000Z</time>
      </trkpt>
      <trkpt lat="47.50197" lon="6.7648">
        <ele>397</ele>
        <time>2015-11-29T08:27:46.000Z</time>
      </trkpt>
      <trkpt lat="47.50196" lon="6.76477">
        <ele>397</ele>
        <time>2015-11-29T08:27:47.000Z</time>
      </trkpt>
      <trkpt lat="47.50195" lon="6.76472">
        <ele>397</ele>
        <time>2015-11-29T08:27:48.000Z</time>
      </trkpt>
      <trkpt lat="47.50194" lon="6.76467">
        <ele>397</ele>
        <time>2015-11-29T08:27:49.000Z</time>
      </trkpt>
      <trkpt lat="47.50193" lon="6.76461">
        <ele>397</ele>
        <time>2015-11-29T08:27:50.000Z</time>
      </trkpt>
      <trkpt lat="47.50192" lon="6.76456">
        <ele>396</ele>
        <time>2015-11-29T08:27:51.000Z</time>
      </trkpt>
      <trkpt lat="47.50191" lon="6.76451">
        <ele>396</ele>
        <time>2015-11-29T08:27:52.000Z</time>
      </trkpt>
      <trkpt lat="47.5019" lon="6.76445">
        <ele>396</ele>
        <time>2015-11-29T08:27:53.000Z</time>
      </trkpt>
      <trkpt lat="47.50188" lon="6.7644">
        <ele>396</ele>
        <time>2015-11-29T08:27:54.000Z</time>
      </trkpt>
      <trkpt lat="47.50186" lon="6.76434">
        <ele>396</ele>
        <time>2015-11-29T08:27:55.000Z</time>
      </trkpt>
      <trkpt lat="47.50185" lon="6.76429">
        <ele>397</ele>
        <time>2015-11-29T08:27:56.000Z</time>
      </trkpt>
      <trkpt lat="47.50183" lon="6.76423">
        <ele>397</ele>
        <time>2015-11-29T08:27:57.000Z</time>
      </trkpt>
      <trkpt lat="47.50182" lon="6.76416">
        <ele>394</ele>
        <time>2015-11-29T08:27:58.000Z</time>
      </trkpt>
      <trkpt lat="47.5018" lon="6.7641">
        <ele>394</ele>
        <time>2015-11-29T08:27:59.000Z</time>
      </trkpt>
      <trkpt lat="47.50179" lon="6.76404">
        <ele>394</ele>
        <time>2015-11-29T08:28:00.000Z</time>
      </trkpt>
      <trkpt lat="47.50178" lon="6.76397">
        <ele>393</ele>
        <time>2015-11-29T08:28:01.000Z</time>
      </trkpt>
      <trkpt lat="47.50177" lon="6.76391">
        <ele>392</ele>
        <time>2015-11-29T08:28:02.000Z</time>
      </trkpt>
      <trkpt lat="47.50177" lon="6.76385">
        <ele>392</ele>
        <time>2015-11-29T08:28:03.000Z</time>
      </trkpt>
      <trkpt lat="47.50176" lon="6.76378">
        <ele>391</ele>
        <time>2015-11-29T08:28:04.000Z</time>
      </trkpt>
      <trkpt lat="47.50176" lon="6.76372">
        <ele>391</ele>
        <time>2015-11-29T08:28:05.000Z</time>
      </trkpt>
      <trkpt lat="47.50175" lon="6.76365">
        <ele>391</ele>
        <time>2015-11-29T08:28:06.000Z</time>
      </trkpt>
      <trkpt lat="47.50174" lon="6.76358">
        <ele>390</ele>
        <time>2015-11-29T08:28:07.000Z</time>
      </trkpt>
      <trkpt lat="47.50173" lon="6.7635">
        <ele>390</ele>
        <time>2015-11-29T08:28:08.000Z</time>
      </trkpt>
      <trkpt lat="47.50172" lon="6.76343">
        <ele>390</ele>
        <time>2015-11-29T08:28:09.000Z</time>
      </trkpt>
      <trkpt lat="47.50171" lon="6.76336">
        <ele>391</ele>
        <time>2015-11-29T08:28:10.000Z</time>
      </trkpt>
      <trkpt lat="47.5017" lon="6.76329">
        <ele>390</ele>
        <time>2015-11-29T08:28:11.000Z</time>
      </trkpt>
      <trkpt lat="47.5017" lon="6.76323">
        <ele>389</ele>
        <time>2015-11-29T08:28:12.000Z</time>
      </trkpt>
      <trkpt lat="47.5017" lon="6.76317">
        <ele>388</ele>
        <time>2015-11-29T08:28:13.000Z</time>
      </trkpt>
      <trkpt lat="47.5017" lon="6.76312">
        <ele>387</ele>
        <time>2015-11-29T08:28:14.000Z</time>
      </trkpt>
      <trkpt lat="47.5017" lon="6.76306">
        <ele>387</ele>
        <time>2015-11-29T08:28:15.000Z</time>
      </trkpt>
      <trkpt lat="47.50169" lon="6.76301">
        <ele>387</ele>
        <time>2015-11-29T08:28:16.000Z</time>
      </trkpt>
      <trkpt lat="47.50169" lon="6.76296">
        <ele>386</ele>
        <time>2015-11-29T08:28:17.000Z</time>
      </trkpt>
      <trkpt lat="47.50169" lon="6.76291">
        <ele>386</ele>
        <time>2015-11-29T08:28:18.000Z</time>
      </trkpt>
      <trkpt lat="47.50169" lon="6.76285">
        <ele>386</ele>
        <time>2015-11-29T08:28:19.000Z</time>
      </trkpt>
      <trkpt lat="47.50169" lon="6.7628">
        <ele>386</ele>
        <time>2015-11-29T08:28:20.000Z</time>
      </trkpt>
      <trkpt lat="47.50169" lon="6.76274">
        <ele>386</ele>
        <time>2015-11-29T08:28:21.000Z</time>
      </trkpt>
      <trkpt lat="47.50169" lon="6.76269">
        <ele>386</ele>
        <time>2015-11-29T08:28:22.000Z</time>
      </trkpt>
      <trkpt lat="47.50169" lon="6.76263">
        <ele>386</ele>
        <time>2015-11-29T08:28:23.000Z</time>
      </trkpt>
      <trkpt lat="47.50169" lon="6.76256">
        <ele>386</ele>
        <time>2015-11-29T08:28:24.000Z</time>
      </trkpt>
      <trkpt lat="47.5017" lon="6.7625">
        <ele>386</ele>
        <time>2015-11-29T08:28:25.000Z</time>
      </trkpt>
      <trkpt lat="47.5017" lon="6.76245">
        <ele>385</ele>
        <time>2015-11-29T08:28:26.000Z</time>
      </trkpt>
      <trkpt lat="47.50171" lon="6.7624">
        <ele>384</ele>
        <time>2015-11-29T08:28:27.000Z</time>
      </trkpt>
      <trkpt lat="47.50171" lon="6.76235">
        <ele>383</ele>
        <time>2015-11-29T08:28:28.000Z</time>
      </trkpt>
      <trkpt lat="47.50171" lon="6.76229">
        <ele>382</ele>
        <time>2015-11-29T08:28:29.000Z</time>
      </trkpt>
      <trkpt lat="47.5017" lon="6.76223">
        <ele>382</ele>
        <time>2015-11-29T08:28:30.000Z</time>
      </trkpt>
      <trkpt lat="47.50169" lon="6.76217">
        <ele>381</ele>
        <time>2015-11-29T08:28:31.000Z</time>
      </trkpt>
      <trkpt lat="47.50168" lon="6.76212">
        <ele>381</ele>
        <time>2015-11-29T08:28:32.000Z</time>
      </trkpt>
      <trkpt lat="47.50167" lon="6.76207">
        <ele>387</ele>
        <time>2015-11-29T08:28:33.000Z</time>
      </trkpt>
      <trkpt lat="47.50165" lon="6.76202">
        <ele>387</ele>
        <time>2015-11-29T08:28:34.000Z</time>
      </trkpt>
      <trkpt lat="47.50163" lon="6.76198">
        <ele>386</ele>
        <time>2015-11-29T08:28:35.000Z</time>
      </trkpt>
      <trkpt lat="47.5016" lon="6.76193">
        <ele>386</ele>
        <time>2015-11-29T08:28:36.000Z</time>
      </trkpt>
      <trkpt lat="47.50157" lon="6.76187">
        <ele>385</ele>
        <time>2015-11-29T08:28:37.000Z</time>
      </trkpt>
      <trkpt lat="47.50154" lon="6.76181">
        <ele>384</ele>
        <time>2015-11-29T08:28:38.000Z</time>
      </trkpt>
      <trkpt lat="47.5015" lon="6.76176">
        <ele>384</ele>
        <time>2015-11-29T08:28:39.000Z</time>
      </trkpt>
      <trkpt lat="47.50147" lon="6.76171">
        <ele>385</ele>
        <time>2015-11-29T08:28:40.000Z</time>
      </trkpt>
      <trkpt lat="47.50144" lon="6.76165">
        <ele>382</ele>
        <time>2015-11-29T08:28:41.000Z</time>
      </trkpt>
      <trkpt lat="47.50135" lon="6.76138">
        <ele>383</ele>
        <time>2015-11-29T08:28:42.000Z</time>
      </trkpt>
      <trkpt lat="47.5013" lon="6.76135">
        <ele>384</ele>
        <time>2015-11-29T08:28:43.000Z</time>
      </trkpt>
      <trkpt lat="47.50127" lon="6.7613">
        <ele>384</ele>
        <time>2015-11-29T08:28:44.000Z</time>
      </trkpt>
      <trkpt lat="47.50124" lon="6.76126">
        <ele>384</ele>
        <time>2015-11-29T08:28:45.000Z</time>
      </trkpt>
      <trkpt lat="47.50121" lon="6.76121">
        <ele>384</ele>
        <time>2015-11-29T08:28:46.000Z</time>
      </trkpt>
      <trkpt lat="47.50118" lon="6.76116">
        <ele>384</ele>
        <time>2015-11-29T08:28:47.000Z</time>
      </trkpt>
      <trkpt lat="47.50114" lon="6.76109">
        <ele>385</ele>
        <time>2015-11-29T08:28:48.000Z</time>
      </trkpt>
      <trkpt lat="47.5011" lon="6.76101">
        <ele>385</ele>
        <time>2015-11-29T08:28:49.000Z</time>
      </trkpt>
      <trkpt lat="47.50105" lon="6.76092">
        <ele>386</ele>
        <time>2015-11-29T08:28:50.000Z</time>
      </trkpt>
      <trkpt lat="47.50091" lon="6.76061">
        <ele>383</ele>
        <time>2015-11-29T08:28:51.000Z</time>
      </trkpt>
      <trkpt lat="47.50084" lon="6.76048">
        <ele>381</ele>
        <time>2015-11-29T08:28:52.000Z</time>
      </trkpt>
      <trkpt lat="47.50079" lon="6.76037">
        <ele>386</ele>
        <time>2015-11-29T08:28:53.000Z</time>
      </trkpt>
      <trkpt lat="47.50074" lon="6.76027">
        <ele>385</ele>
        <time>2015-11-29T08:28:54.000Z</time>
      </trkpt>
      <trkpt lat="47.50065" lon="6.76018">
        <ele>384</ele>
        <time>2015-11-29T08:28:55.000Z</time>
      </trkpt>
      <trkpt lat="47.50057" lon="6.76008">
        <ele>384</ele>
        <time>2015-11-29T08:28:56.000Z</time>
      </trkpt>
      <trkpt lat="47.50051" lon="6.75995">
        <ele>380</ele>
        <time>2015-11-29T08:28:57.000Z</time>
      </trkpt>
      <trkpt lat="47.50044" lon="6.75981">
        <ele>379</ele>
        <time>2015-11-29T08:28:58.000Z</time>
      </trkpt>
      <trkpt lat="47.50036" lon="6.75969">
        <ele>379</ele>
        <time>2015-11-29T08:28:59.000Z</time>
      </trkpt>
      <trkpt lat="47.50028" lon="6.75956">
        <ele>379</ele>
        <time>2015-11-29T08:29:00.000Z</time>
      </trkpt>
      <trkpt lat="47.50022" lon="6.75942">
        <ele>379</ele>
        <time>2015-11-29T08:29:01.000Z</time>
      </trkpt>
      <trkpt lat="47.50016" lon="6.75931">
        <ele>378</ele>
        <time>2015-11-29T08:29:02.000Z</time>
      </trkpt>
      <trkpt lat="47.50008" lon="6.75919">
        <ele>378</ele>
        <time>2015-11-29T08:29:03.000Z</time>
      </trkpt>
      <trkpt lat="47.50001" lon="6.75911">
        <ele>378</ele>
        <time>2015-11-29T08:29:04.000Z</time>
      </trkpt>
      <trkpt lat="47.49993" lon="6.75901">
        <ele>377</ele>
        <time>2015-11-29T08:29:05.000Z</time>
      </trkpt>
      <trkpt lat="47.49987" lon="6.75896">
        <ele>377</ele>
        <time>2015-11-29T08:29:06.000Z</time>
      </trkpt>
      <trkpt lat="47.49981" lon="6.75892">
        <ele>377</ele>
        <time>2015-11-29T08:29:07.000Z</time>
      </trkpt>
      <trkpt lat="47.49975" lon="6.75888">
        <ele>377</ele>
        <time>2015-11-29T08:29:08.000Z</time>
      </trkpt>
      <trkpt lat="47.49968" lon="6.75884">
        <ele>377</ele>
        <time>2015-11-29T08:29:09.000Z</time>
      </trkpt>
      <trkpt lat="47.4996" lon="6.75879">
        <ele>376</ele>
        <time>2015-11-29T08:29:10.000Z</time>
      </trkpt>
      <trkpt lat="47.49948" lon="6.75875">
        <ele>376</ele>
        <time>2015-11-29T08:29:11.000Z</time>
      </trkpt>
      <trkpt lat="47.4994" lon="6.75872">
        <ele>376</ele>
        <time>2015-11-29T08:29:12.000Z</time>
      </trkpt>
      <trkpt lat="47.49933" lon="6.75869">
        <ele>375</ele>
        <time>2015-11-29T08:29:13.000Z</time>
      </trkpt>
      <trkpt lat="47.49922" lon="6.75866">
        <ele>375</ele>
        <time>2015-11-29T08:29:14.000Z</time>
      </trkpt>
      <trkpt lat="47.49913" lon="6.75864">
        <ele>373</ele>
        <time>2015-11-29T08:29:15.000Z</time>
      </trkpt>
      <trkpt lat="47.49905" lon="6.75862">
        <ele>373</ele>
        <time>2015-11-29T08:29:16.000Z</time>
      </trkpt>
      <trkpt lat="47.49897" lon="6.75859">
        <ele>372</ele>
        <time>2015-11-29T08:29:17.000Z</time>
      </trkpt>
      <trkpt lat="47.49889" lon="6.75856">
        <ele>372</ele>
        <time>2015-11-29T08:29:18.000Z</time>
      </trkpt>
      <trkpt lat="47.49879" lon="6.75853">
        <ele>372</ele>
        <time>2015-11-29T08:29:19.000Z</time>
      </trkpt>
      <trkpt lat="47.49873" lon="6.75851">
        <ele>372</ele>
        <time>2015-11-29T08:29:20.000Z</time>
      </trkpt>
      <trkpt lat="47.49858" lon="6.75852">
        <ele>372</ele>
        <time>2015-11-29T08:29:21.000Z</time>
      </trkpt>
      <trkpt lat="47.49845" lon="6.75849">
        <ele>371</ele>
        <time>2015-11-29T08:29:22.000Z</time>
      </trkpt>
      <trkpt lat="47.49831" lon="6.75845">
        <ele>369</ele>
        <time>2015-11-29T08:29:23.000Z</time>
      </trkpt>
      <trkpt lat="47.49816" lon="6.75842">
        <ele>369</ele>
        <time>2015-11-29T08:29:24.000Z</time>
      </trkpt>
      <trkpt lat="47.49805" lon="6.75838">
        <ele>369</ele>
        <time>2015-11-29T08:29:25.000Z</time>
      </trkpt>
      <trkpt lat="47.49794" lon="6.75833">
        <ele>363</ele>
        <time>2015-11-29T08:29:26.000Z</time>
      </trkpt>
      <trkpt lat="47.49786" lon="6.75832">
        <ele>363</ele>
        <time>2015-11-29T08:29:27.000Z</time>
      </trkpt>
      <trkpt lat="47.49776" lon="6.75831">
        <ele>363</ele>
        <time>2015-11-29T08:29:28.000Z</time>
      </trkpt>
      <trkpt lat="47.49769" lon="6.75832">
        <ele>364</ele>
        <time>2015-11-29T08:29:29.000Z</time>
      </trkpt>
      <trkpt lat="47.4976" lon="6.7583">
        <ele>364</ele>
        <time>2015-11-29T08:29:30.000Z</time>
      </trkpt>
      <trkpt lat="47.49753" lon="6.75831">
        <ele>365</ele>
        <time>2015-11-29T08:29:31.000Z</time>
      </trkpt>
      <trkpt lat="47.49746" lon="6.75834">
        <ele>366</ele>
        <time>2015-11-29T08:29:32.000Z</time>
      </trkpt>
      <trkpt lat="47.49737" lon="6.7583">
        <ele>361</ele>
        <time>2015-11-29T08:29:33.000Z</time>
      </trkpt>
      <trkpt lat="47.4973" lon="6.7583">
        <ele>360</ele>
        <time>2015-11-29T08:29:34.000Z</time>
      </trkpt>
      <trkpt lat="47.49721" lon="6.7583">
        <ele>359</ele>
        <time>2015-11-29T08:29:35.000Z</time>
      </trkpt>
      <trkpt lat="47.4971" lon="6.75825">
        <ele>357</ele>
        <time>2015-11-29T08:29:36.000Z</time>
      </trkpt>
      <trkpt lat="47.49701" lon="6.75822">
        <ele>357</ele>
        <time>2015-11-29T08:29:37.000Z</time>
      </trkpt>
      <trkpt lat="47.49694" lon="6.75821">
        <ele>356</ele>
        <time>2015-11-29T08:29:38.000Z</time>
      </trkpt>
      <trkpt lat="47.49688" lon="6.7582">
        <ele>356</ele>
        <time>2015-11-29T08:29:39.000Z</time>
      </trkpt>
      <trkpt lat="47.4968" lon="6.75819">
        <ele>356</ele>
        <time>2015-11-29T08:29:40.000Z</time>
      </trkpt>
      <trkpt lat="47.49671" lon="6.75819">
        <ele>356</ele>
        <time>2015-11-29T08:29:41.000Z</time>
      </trkpt>
      <trkpt lat="47.49664" lon="6.75818">
        <ele>353</ele>
        <time>2015-11-29T08:29:42.000Z</time>
      </trkpt>
      <trkpt lat="47.49659" lon="6.75818">
        <ele>352</ele>
        <time>2015-11-29T08:29:43.000Z</time>
      </trkpt>
      <trkpt lat="47.49652" lon="6.75819">
        <ele>351</ele>
        <time>2015-11-29T08:29:44.000Z</time>
      </trkpt>
      <trkpt lat="47.49647" lon="6.75821">
        <ele>351</ele>
        <time>2015-11-29T08:29:45.000Z</time>
      </trkpt>
      <trkpt lat="47.49641" lon="6.75822">
        <ele>350</ele>
        <time>2015-11-29T08:29:46.000Z</time>
      </trkpt>
      <trkpt lat="47.49635" lon="6.75821">
        <ele>349</ele>
        <time>2015-11-29T08:29:47.000Z</time>
      </trkpt>
      <trkpt lat="47.49627" lon="6.75817">
        <ele>348</ele>
        <time>2015-11-29T08:29:48.000Z</time>
      </trkpt>
      <trkpt lat="47.49622" lon="6.75818">
        <ele>348</ele>
        <time>2015-11-29T08:29:49.000Z</time>
      </trkpt>
      <trkpt lat="47.49616" lon="6.75817">
        <ele>348</ele>
        <time>2015-11-29T08:29:50.000Z</time>
      </trkpt>
      <trkpt lat="47.49607" lon="6.75814">
        <ele>347</ele>
        <time>2015-11-29T08:29:51.000Z</time>
      </trkpt>
      <trkpt lat="47.496" lon="6.75811">
        <ele>347</ele>
        <time>2015-11-29T08:29:52.000Z</time>
      </trkpt>
      <trkpt lat="47.49593" lon="6.75809">
        <ele>347</ele>
        <time>2015-11-29T08:29:53.000Z</time>
      </trkpt>
      <trkpt lat="47.49587" lon="6.75805">
        <ele>346</ele>
        <time>2015-11-29T08:29:54.000Z</time>
      </trkpt>
      <trkpt lat="47.4958" lon="6.75801">
        <ele>339</ele>
        <time>2015-11-29T08:29:55.000Z</time>
      </trkpt>
      <trkpt lat="47.49574" lon="6.75794">
        <ele>338</ele>
        <time>2015-11-29T08:29:56.000Z</time>
      </trkpt>
      <trkpt lat="47.4957" lon="6.7579">
        <ele>338</ele>
        <time>2015-11-29T08:29:57.000Z</time>
      </trkpt>
      <trkpt lat="47.4957" lon="6.75782">
        <ele>337</ele>
        <time>2015-11-29T08:29:58.000Z</time>
      </trkpt>
      <trkpt lat="47.49572" lon="6.75778">
        <ele>336</ele>
        <time>2015-11-29T08:29:59.000Z</time>
      </trkpt>
      <trkpt lat="47.49574" lon="6.75776">
        <ele>336</ele>
        <time>2015-11-29T08:30:00.000Z</time>
      </trkpt>
      <trkpt lat="47.49575" lon="6.75774">
        <ele>336</ele>
        <time>2015-11-29T08:30:01.000Z</time>
      </trkpt>
      <trkpt lat="47.49579" lon="6.7577">
        <ele>336</ele>
        <time>2015-11-29T08:30:02.000Z</time>
      </trkpt>
      <trkpt lat="47.49581" lon="6.75764">
        <ele>335</ele>
        <time>2015-11-29T08:30:03.000Z</time>
      </trkpt>
      <trkpt lat="47.49583" lon="6.75758">
        <ele>335</ele>
        <time>2015-11-29T08:30:04.000Z</time>
      </trkpt>
      <trkpt lat="47.49585" lon="6.7575">
        <ele>335</ele>
        <time>2015-11-29T08:30:05.000Z</time>
      </trkpt>
      <trkpt lat="47.49588" lon="6.75744">
        <ele>333</ele>
        <time>2015-11-29T08:30:06.000Z</time>
      </trkpt>
      <trkpt lat="47.4959" lon="6.75735">
        <ele>333</ele>
        <time>2015-11-29T08:30:07.000Z</time>
      </trkpt>
      <trkpt lat="47.49593" lon="6.75728">
        <ele>332</ele>
        <time>2015-11-29T08:30:08.000Z</time>
      </trkpt>
      <trkpt lat="47.49595" lon="6.75721">
        <ele>332</ele>
        <time>2015-11-29T08:30:09.000Z</time>
      </trkpt>
      <trkpt lat="47.49598" lon="6.75714">
        <ele>331</ele>
        <time>2015-11-29T08:30:10.000Z</time>
      </trkpt>
      <trkpt lat="47.49599" lon="6.75705">
        <ele>330</ele>
        <time>2015-11-29T08:30:11.000Z</time>
      </trkpt>
      <trkpt lat="47.49597" lon="6.75699">
        <ele>329</ele>
        <time>2015-11-29T08:30:12.000Z</time>
      </trkpt>
      <trkpt lat="47.49595" lon="6.75691">
        <ele>328</ele>
        <time>2015-11-29T08:30:13.000Z</time>
      </trkpt>
      <trkpt lat="47.49591" lon="6.75685">
        <ele>327</ele>
        <time>2015-11-29T08:30:14.000Z</time>
      </trkpt>
      <trkpt lat="47.49588" lon="6.75677">
        <ele>325</ele>
        <time>2015-11-29T08:30:15.000Z</time>
      </trkpt>
      <trkpt lat="47.49584" lon="6.75671">
        <ele>323</ele>
        <time>2015-11-29T08:30:16.000Z</time>
      </trkpt>
      <trkpt lat="47.49577" lon="6.75668">
        <ele>322</ele>
        <time>2015-11-29T08:30:17.000Z</time>
      </trkpt>
      <trkpt lat="47.49572" lon="6.7567">
        <ele>323</ele>
        <time>2015-11-29T08:30:18.000Z</time>
      </trkpt>
      <trkpt lat="47.49567" lon="6.75674">
        <ele>323</ele>
        <time>2015-11-29T08:30:19.000Z</time>
      </trkpt>
      <trkpt lat="47.49563" lon="6.75679">
        <ele>324</ele>
        <time>2015-11-29T08:30:20.000Z</time>
      </trkpt>
      <trkpt lat="47.4956" lon="6.75685">
        <ele>324</ele>
        <time>2015-11-29T08:30:21.000Z</time>
      </trkpt>
      <trkpt lat="47.49556" lon="6.75692">
        <ele>324</ele>
        <time>2015-11-29T08:30:22.000Z</time>
      </trkpt>
      <trkpt lat="47.49552" lon="6.75698">
        <ele>325</ele>
        <time>2015-11-29T08:30:23.000Z</time>
      </trkpt>
      <trkpt lat="47.49548" lon="6.75703">
        <ele>325</ele>
        <time>2015-11-29T08:30:24.000Z</time>
      </trkpt>
      <trkpt lat="47.49544" lon="6.75708">
        <ele>325</ele>
        <time>2015-11-29T08:30:25.000Z</time>
      </trkpt>
      <trkpt lat="47.49539" lon="6.75712">
        <ele>325</ele>
        <time>2015-11-29T08:30:26.000Z</time>
      </trkpt>
      <trkpt lat="47.49535" lon="6.75717">
        <ele>325</ele>
        <time>2015-11-29T08:30:27.000Z</time>
      </trkpt>
      <trkpt lat="47.4953" lon="6.75722">
        <ele>325</ele>
        <time>2015-11-29T08:30:28.000Z</time>
      </trkpt>
      <trkpt lat="47.49525" lon="6.75726">
        <ele>325</ele>
        <time>2015-11-29T08:30:29.000Z</time>
      </trkpt>
      <trkpt lat="47.49521" lon="6.7573">
        <ele>325</ele>
        <time>2015-11-29T08:30:30.000Z</time>
      </trkpt>
      <trkpt lat="47.49516" lon="6.75734">
        <ele>325</ele>
        <time>2015-11-29T08:30:31.000Z</time>
      </trkpt>
      <trkpt lat="47.49511" lon="6.75737">
        <ele>325</ele>
        <time>2015-11-29T08:30:32.000Z</time>
      </trkpt>
      <trkpt lat="47.49505" lon="6.75739">
        <ele>324</ele>
        <time>2015-11-29T08:30:33.000Z</time>
      </trkpt>
      <trkpt lat="47.49499" lon="6.75741">
        <ele>323</ele>
        <time>2015-11-29T08:30:34.000Z</time>
      </trkpt>
      <trkpt lat="47.49494" lon="6.75743">
        <ele>323</ele>
        <time>2015-11-29T08:30:35.000Z</time>
      </trkpt>
      <trkpt lat="47.4949" lon="6.75743">
        <ele>323</ele>
        <time>2015-11-29T08:30:36.000Z</time>
      </trkpt>
      <trkpt lat="47.49485" lon="6.75739">
        <ele>322</ele>
        <time>2015-11-29T08:30:37.000Z</time>
      </trkpt>
      <trkpt lat="47.49481" lon="6.75734">
        <ele>322</ele>
        <time>2015-11-29T08:30:38.000Z</time>
      </trkpt>
      <trkpt lat="47.49479" lon="6.75726">
        <ele>322</ele>
        <time>2015-11-29T08:30:39.000Z</time>
      </trkpt>
      <trkpt lat="47.49476" lon="6.75719">
        <ele>322</ele>
        <time>2015-11-29T08:30:40.000Z</time>
      </trkpt>
      <trkpt lat="47.49474" lon="6.75713">
        <ele>321</ele>
        <time>2015-11-29T08:30:41.000Z</time>
      </trkpt>
      <trkpt lat="47.49472" lon="6.75707">
        <ele>321</ele>
        <time>2015-11-29T08:30:42.000Z</time>
      </trkpt>
      <trkpt lat="47.49468" lon="6.75701">
        <ele>321</ele>
        <time>2015-11-29T08:30:43.000Z</time>
      </trkpt>
      <trkpt lat="47.49464" lon="6.75697">
        <ele>321</ele>
        <time>2015-11-29T08:30:44.000Z</time>
      </trkpt>
      <trkpt lat="47.4946" lon="6.75699">
        <ele>321</ele>
        <time>2015-11-29T08:30:45.000Z</time>
      </trkpt>
      <trkpt lat="47.49455" lon="6.757">
        <ele>321</ele>
        <time>2015-11-29T08:30:46.000Z</time>
      </trkpt>
      <trkpt lat="47.49451" lon="6.75703">
        <ele>321</ele>
        <time>2015-11-29T08:30:47.000Z</time>
      </trkpt>
      <trkpt lat="47.49447" lon="6.75701">
        <ele>321</ele>
        <time>2015-11-29T08:30:48.000Z</time>
      </trkpt>
      <trkpt lat="47.49444" lon="6.75697">
        <ele>321</ele>
        <time>2015-11-29T08:30:49.000Z</time>
      </trkpt>
      <trkpt lat="47.49442" lon="6.75692">
        <ele>321</ele>
        <time>2015-11-29T08:30:50.000Z</time>
      </trkpt>
      <trkpt lat="47.4944" lon="6.75686">
        <ele>320</ele>
        <time>2015-11-29T08:30:51.000Z</time>
      </trkpt>
      <trkpt lat="47.49438" lon="6.75679">
        <ele>320</ele>
        <time>2015-11-29T08:30:52.000Z</time>
      </trkpt>
      <trkpt lat="47.49436" lon="6.75673">
        <ele>320</ele>
        <time>2015-11-29T08:30:53.000Z</time>
      </trkpt>
      <trkpt lat="47.49434" lon="6.7567">
        <ele>320</ele>
        <time>2015-11-29T08:30:54.000Z</time>
      </trkpt>
      <trkpt lat="47.49431" lon="6.75671">
        <ele>320</ele>
        <time>2015-11-29T08:30:55.000Z</time>
      </trkpt>
      <trkpt lat="47.49427" lon="6.75674">
        <ele>320</ele>
        <time>2015-11-29T08:30:56.000Z</time>
      </trkpt>
      <trkpt lat="47.49424" lon="6.75677">
        <ele>320</ele>
        <time>2015-11-29T08:30:57.000Z</time>
      </trkpt>
      <trkpt lat="47.4942" lon="6.7568">
        <ele>320</ele>
        <time>2015-11-29T08:30:58.000Z</time>
      </trkpt>
      <trkpt lat="47.49417" lon="6.75682">
        <ele>320</ele>
        <time>2015-11-29T08:30:59.000Z</time>
      </trkpt>
      <trkpt lat="47.49413" lon="6.75685">
        <ele>319</ele>
        <time>2015-11-29T08:31:00.000Z</time>
      </trkpt>
      <trkpt lat="47.49409" lon="6.75689">
        <ele>319</ele>
        <time>2015-11-29T08:31:01.000Z</time>
      </trkpt>
      <trkpt lat="47.49404" lon="6.75692">
        <ele>319</ele>
        <time>2015-11-29T08:31:02.000Z</time>
      </trkpt>
      <trkpt lat="47.49399" lon="6.75695">
        <ele>319</ele>
        <time>2015-11-29T08:31:03.000Z</time>
      </trkpt>
      <trkpt lat="47.49396" lon="6.75698">
        <ele>319</ele>
        <time>2015-11-29T08:31:04.000Z</time>
      </trkpt>
      <trkpt lat="47.49391" lon="6.75702">
        <ele>319</ele>
        <time>2015-11-29T08:31:05.000Z</time>
      </trkpt>
      <trkpt lat="47.49387" lon="6.75706">
        <ele>319</ele>
        <time>2015-11-29T08:31:06.000Z</time>
      </trkpt>
      <trkpt lat="47.49384" lon="6.75709">
        <ele>319</ele>
        <time>2015-11-29T08:31:07.000Z</time>
      </trkpt>
      <trkpt lat="47.49381" lon="6.75712">
        <ele>319</ele>
        <time>2015-11-29T08:31:08.000Z</time>
      </trkpt>
      <trkpt lat="47.49377" lon="6.75711">
        <ele>319</ele>
        <time>2015-11-29T08:31:09.000Z</time>
      </trkpt>
      <trkpt lat="47.49374" lon="6.75713">
        <ele>319</ele>
        <time>2015-11-29T08:31:10.000Z</time>
      </trkpt>
      <trkpt lat="47.49369" lon="6.75715">
        <ele>319</ele>
        <time>2015-11-29T08:31:11.000Z</time>
      </trkpt>
      <trkpt lat="47.49365" lon="6.75717">
        <ele>319</ele>
        <time>2015-11-29T08:31:13.000Z</time>
      </trkpt>
      <trkpt lat="47.49364" lon="6.75718">
        <ele>319</ele>
        <time>2015-11-29T08:31:14.000Z</time>
      </trkpt>
      <trkpt lat="47.49361" lon="6.7572">
        <ele>319</ele>
        <time>2015-11-29T08:31:15.000Z</time>
      </trkpt>
      <trkpt lat="47.4936" lon="6.75721">
        <ele>319</ele>
        <time>2015-11-29T08:31:16.000Z</time>
      </trkpt>
      <trkpt lat="47.49357" lon="6.75723">
        <ele>319</ele>
        <time>2015-11-29T08:31:17.000Z</time>
      </trkpt>
      <trkpt lat="47.49346" lon="6.75727">
        <ele>318</ele>
        <time>2015-11-29T08:31:18.000Z</time>
      </trkpt>
      <trkpt lat="47.49341" lon="6.7573">
        <ele>318</ele>
        <time>2015-11-29T08:31:19.000Z</time>
      </trkpt>
      <trkpt lat="47.49335" lon="6.75727">
        <ele>318</ele>
        <time>2015-11-29T08:31:20.000Z</time>
      </trkpt>
      <trkpt lat="47.49331" lon="6.75732">
        <ele>319</ele>
        <time>2015-11-29T08:31:21.000Z</time>
      </trkpt>
      <trkpt lat="47.49327" lon="6.75735">
        <ele>319</ele>
        <time>2015-11-29T08:31:22.000Z</time>
      </trkpt>
      <trkpt lat="47.49323" lon="6.75741">
        <ele>319</ele>
        <time>2015-11-29T08:31:23.000Z</time>
      </trkpt>
      <trkpt lat="47.49318" lon="6.75746">
        <ele>319</ele>
        <time>2015-11-29T08:31:24.000Z</time>
      </trkpt>
      <trkpt lat="47.49312" lon="6.75751">
        <ele>318</ele>
        <time>2015-11-29T08:31:25.000Z</time>
      </trkpt>
      <trkpt lat="47.49308" lon="6.75756">
        <ele>318</ele>
        <time>2015-11-29T08:31:26.000Z</time>
      </trkpt>
      <trkpt lat="47.49304" lon="6.75762">
        <ele>318</ele>
        <time>2015-11-29T08:31:27.000Z</time>
      </trkpt>
      <trkpt lat="47.493" lon="6.75769">
        <ele>318</ele>
        <time>2015-11-29T08:31:28.000Z</time>
      </trkpt>
      <trkpt lat="47.49296" lon="6.75774">
        <ele>318</ele>
        <time>2015-11-29T08:31:29.000Z</time>
      </trkpt>
      <trkpt lat="47.49291" lon="6.75782">
        <ele>318</ele>
        <time>2015-11-29T08:31:30.000Z</time>
      </trkpt>
      <trkpt lat="47.49286" lon="6.75787">
        <ele>318</ele>
        <time>2015-11-29T08:31:31.000Z</time>
      </trkpt>
      <trkpt lat="47.49282" lon="6.75794">
        <ele>318</ele>
        <time>2015-11-29T08:31:32.000Z</time>
      </trkpt>
      <trkpt lat="47.49278" lon="6.75799">
        <ele>318</ele>
        <time>2015-11-29T08:31:33.000Z</time>
      </trkpt>
      <trkpt lat="47.49274" lon="6.75806">
        <ele>317</ele>
        <time>2015-11-29T08:31:34.000Z</time>
      </trkpt>
      <trkpt lat="47.49271" lon="6.75813">
        <ele>317</ele>
        <time>2015-11-29T08:31:35.000Z</time>
      </trkpt>
      <trkpt lat="47.49267" lon="6.75819">
        <ele>316</ele>
        <time>2015-11-29T08:31:36.000Z</time>
      </trkpt>
      <trkpt lat="47.49263" lon="6.75826">
        <ele>315</ele>
        <time>2015-11-29T08:31:37.000Z</time>
      </trkpt>
      <trkpt lat="47.49258" lon="6.75832">
        <ele>315</ele>
        <time>2015-11-29T08:31:38.000Z</time>
      </trkpt>
      <trkpt lat="47.49255" lon="6.75839">
        <ele>315</ele>
        <time>2015-11-29T08:31:39.000Z</time>
      </trkpt>
      <trkpt lat="47.49251" lon="6.75847">
        <ele>316</ele>
        <time>2015-11-29T08:31:40.000Z</time>
      </trkpt>
      <trkpt lat="47.49248" lon="6.75854">
        <ele>316</ele>
        <time>2015-11-29T08:31:41.000Z</time>
      </trkpt>
      <trkpt lat="47.49244" lon="6.7586">
        <ele>317</ele>
        <time>2015-11-29T08:31:42.000Z</time>
      </trkpt>
      <trkpt lat="47.49241" lon="6.75868">
        <ele>318</ele>
        <time>2015-11-29T08:31:43.000Z</time>
      </trkpt>
      <trkpt lat="47.49237" lon="6.75876">
        <ele>318</ele>
        <time>2015-11-29T08:31:44.000Z</time>
      </trkpt>
      <trkpt lat="47.49233" lon="6.75884">
        <ele>318</ele>
        <time>2015-11-29T08:31:45.000Z</time>
      </trkpt>
      <trkpt lat="47.4923" lon="6.75891">
        <ele>318</ele>
        <time>2015-11-29T08:31:46.000Z</time>
      </trkpt>
      <trkpt lat="47.49226" lon="6.75899">
        <ele>318</ele>
        <time>2015-11-29T08:31:47.000Z</time>
      </trkpt>
      <trkpt lat="47.49222" lon="6.75907">
        <ele>319</ele>
        <time>2015-11-29T08:31:48.000Z</time>
      </trkpt>
      <trkpt lat="47.49219" lon="6.75914">
        <ele>319</ele>
        <time>2015-11-29T08:31:49.000Z</time>
      </trkpt>
      <trkpt lat="47.49215" lon="6.75922">
        <ele>320</ele>
        <time>2015-11-29T08:31:50.000Z</time>
      </trkpt>
      <trkpt lat="47.49212" lon="6.75929">
        <ele>320</ele>
        <time>2015-11-29T08:31:51.000Z</time>
      </trkpt>
      <trkpt lat="47.49209" lon="6.75936">
        <ele>320</ele>
        <time>2015-11-29T08:31:52.000Z</time>
      </trkpt>
      <trkpt lat="47.49205" lon="6.75945">
        <ele>320</ele>
        <time>2015-11-29T08:31:53.000Z</time>
      </trkpt>
      <trkpt lat="47.49201" lon="6.75951">
        <ele>320</ele>
        <time>2015-11-29T08:31:54.000Z</time>
      </trkpt>
      <trkpt lat="47.49198" lon="6.75957">
        <ele>320</ele>
        <time>2015-11-29T08:31:55.000Z</time>
      </trkpt>
      <trkpt lat="47.49194" lon="6.75964">
        <ele>320</ele>
        <time>2015-11-29T08:31:56.000Z</time>
      </trkpt>
      <trkpt lat="47.49192" lon="6.75971">
        <ele>320</ele>
        <time>2015-11-29T08:31:57.000Z</time>
      </trkpt>
      <trkpt lat="47.49189" lon="6.75978">
        <ele>320</ele>
        <time>2015-11-29T08:31:58.000Z</time>
      </trkpt>
      <trkpt lat="47.49185" lon="6.75986">
        <ele>320</ele>
        <time>2015-11-29T08:31:59.000Z</time>
      </trkpt>
      <trkpt lat="47.4918" lon="6.75994">
        <ele>320</ele>
        <time>2015-11-29T08:32:00.000Z</time>
      </trkpt>
      <trkpt lat="47.49176" lon="6.76001">
        <ele>320</ele>
        <time>2015-11-29T08:32:01.000Z</time>
      </trkpt>
      <trkpt lat="47.49173" lon="6.76009">
        <ele>320</ele>
        <time>2015-11-29T08:32:02.000Z</time>
      </trkpt>
      <trkpt lat="47.4917" lon="6.76017">
        <ele>320</ele>
        <time>2015-11-29T08:32:03.000Z</time>
      </trkpt>
      <trkpt lat="47.49166" lon="6.76026">
        <ele>322</ele>
        <time>2015-11-29T08:32:04.000Z</time>
      </trkpt>
      <trkpt lat="47.49163" lon="6.76035">
        <ele>322</ele>
        <time>2015-11-29T08:32:05.000Z</time>
      </trkpt>
      <trkpt lat="47.4916" lon="6.76041">
        <ele>322</ele>
        <time>2015-11-29T08:32:06.000Z</time>
      </trkpt>
      <trkpt lat="47.49156" lon="6.76049">
        <ele>322</ele>
        <time>2015-11-29T08:32:07.000Z</time>
      </trkpt>
      <trkpt lat="47.49153" lon="6.76057">
        <ele>322</ele>
        <time>2015-11-29T08:32:08.000Z</time>
      </trkpt>
      <trkpt lat="47.49151" lon="6.76065">
        <ele>322</ele>
        <time>2015-11-29T08:32:09.000Z</time>
      </trkpt>
      <trkpt lat="47.49148" lon="6.76073">
        <ele>322</ele>
        <time>2015-11-29T08:32:10.000Z</time>
      </trkpt>
      <trkpt lat="47.49145" lon="6.76083">
        <ele>322</ele>
        <time>2015-11-29T08:32:11.000Z</time>
      </trkpt>
      <trkpt lat="47.49142" lon="6.76092">
        <ele>321</ele>
        <time>2015-11-29T08:32:12.000Z</time>
      </trkpt>
      <trkpt lat="47.4914" lon="6.76102">
        <ele>321</ele>
        <time>2015-11-29T08:32:13.000Z</time>
      </trkpt>
      <trkpt lat="47.49139" lon="6.76109">
        <ele>322</ele>
        <time>2015-11-29T08:32:14.000Z</time>
      </trkpt>
      <trkpt lat="47.49138" lon="6.76115">
        <ele>322</ele>
        <time>2015-11-29T08:32:15.000Z</time>
      </trkpt>
      <trkpt lat="47.49136" lon="6.76124">
        <ele>322</ele>
        <time>2015-11-29T08:32:16.000Z</time>
      </trkpt>
      <trkpt lat="47.49136" lon="6.7613">
        <ele>322</ele>
        <time>2015-11-29T08:32:17.000Z</time>
      </trkpt>
      <trkpt lat="47.49134" lon="6.7614">
        <ele>322</ele>
        <time>2015-11-29T08:32:18.000Z</time>
      </trkpt>
      <trkpt lat="47.49133" lon="6.76149">
        <ele>322</ele>
        <time>2015-11-29T08:32:19.000Z</time>
      </trkpt>
      <trkpt lat="47.49133" lon="6.76156">
        <ele>322</ele>
        <time>2015-11-29T08:32:20.000Z</time>
      </trkpt>
      <trkpt lat="47.49132" lon="6.76165">
        <ele>322</ele>
        <time>2015-11-29T08:32:21.000Z</time>
      </trkpt>
      <trkpt lat="47.49131" lon="6.76176">
        <ele>321</ele>
        <time>2015-11-29T08:32:22.000Z</time>
      </trkpt>
      <trkpt lat="47.49129" lon="6.76187">
        <ele>321</ele>
        <time>2015-11-29T08:32:23.000Z</time>
      </trkpt>
      <trkpt lat="47.4913" lon="6.76198">
        <ele>321</ele>
        <time>2015-11-29T08:32:24.000Z</time>
      </trkpt>
      <trkpt lat="47.49129" lon="6.76208">
        <ele>321</ele>
        <time>2015-11-29T08:32:25.000Z</time>
      </trkpt>
      <trkpt lat="47.49128" lon="6.76217">
        <ele>321</ele>
        <time>2015-11-29T08:32:26.000Z</time>
      </trkpt>
      <trkpt lat="47.49129" lon="6.76227">
        <ele>321</ele>
        <time>2015-11-29T08:32:27.000Z</time>
      </trkpt>
      <trkpt lat="47.49129" lon="6.76236">
        <ele>321</ele>
        <time>2015-11-29T08:32:28.000Z</time>
      </trkpt>
      <trkpt lat="47.49129" lon="6.76245">
        <ele>321</ele>
        <time>2015-11-29T08:32:29.000Z</time>
      </trkpt>
      <trkpt lat="47.49128" lon="6.76256">
        <ele>320</ele>
        <time>2015-11-29T08:32:30.000Z</time>
      </trkpt>
      <trkpt lat="47.49128" lon="6.76264">
        <ele>320</ele>
        <time>2015-11-29T08:32:31.000Z</time>
      </trkpt>
      <trkpt lat="47.49128" lon="6.76273">
        <ele>320</ele>
        <time>2015-11-29T08:32:32.000Z</time>
      </trkpt>
      <trkpt lat="47.49128" lon="6.76281">
        <ele>319</ele>
        <time>2015-11-29T08:32:33.000Z</time>
      </trkpt>
      <trkpt lat="47.49128" lon="6.7629">
        <ele>319</ele>
        <time>2015-11-29T08:32:34.000Z</time>
      </trkpt>
      <trkpt lat="47.49134" lon="6.76284">
        <ele>319</ele>
        <time>2015-11-29T08:32:35.000Z</time>
      </trkpt>
      <trkpt lat="47.49134" lon="6.76293">
        <ele>319</ele>
        <time>2015-11-29T08:32:36.000Z</time>
      </trkpt>
      <trkpt lat="47.49134" lon="6.76304">
        <ele>319</ele>
        <time>2015-11-29T08:32:37.000Z</time>
      </trkpt>
      <trkpt lat="47.49134" lon="6.76312">
        <ele>319</ele>
        <time>2015-11-29T08:32:38.000Z</time>
      </trkpt>
      <trkpt lat="47.49134" lon="6.7632">
        <ele>319</ele>
        <time>2015-11-29T08:32:39.000Z</time>
      </trkpt>
      <trkpt lat="47.49134" lon="6.76328">
        <ele>318</ele>
        <time>2015-11-29T08:32:40.000Z</time>
      </trkpt>
      <trkpt lat="47.49133" lon="6.76337">
        <ele>317</ele>
        <time>2015-11-29T08:32:41.000Z</time>
      </trkpt>
      <trkpt lat="47.49129" lon="6.76361">
        <ele>318</ele>
        <time>2015-11-29T08:32:42.000Z</time>
      </trkpt>
      <trkpt lat="47.49131" lon="6.76368">
        <ele>318</ele>
        <time>2015-11-29T08:32:43.000Z</time>
      </trkpt>
      <trkpt lat="47.4913" lon="6.76377">
        <ele>317</ele>
        <time>2015-11-29T08:32:44.000Z</time>
      </trkpt>
      <trkpt lat="47.4913" lon="6.76384">
        <ele>317</ele>
        <time>2015-11-29T08:32:45.000Z</time>
      </trkpt>
      <trkpt lat="47.4913" lon="6.76389">
        <ele>317</ele>
        <time>2015-11-29T08:32:46.000Z</time>
      </trkpt>
      <trkpt lat="47.4913" lon="6.76395">
        <ele>317</ele>
        <time>2015-11-29T08:32:47.000Z</time>
      </trkpt>
      <trkpt lat="47.49129" lon="6.76407">
        <ele>317</ele>
        <time>2015-11-29T08:32:48.000Z</time>
      </trkpt>
      <trkpt lat="47.49129" lon="6.76419">
        <ele>317</ele>
        <time>2015-11-29T08:32:49.000Z</time>
      </trkpt>
      <trkpt lat="47.4913" lon="6.7643">
        <ele>317</ele>
        <time>2015-11-29T08:32:50.000Z</time>
      </trkpt>
      <trkpt lat="47.49129" lon="6.76439">
        <ele>317</ele>
        <time>2015-11-29T08:32:51.000Z</time>
      </trkpt>
      <trkpt lat="47.49129" lon="6.76451">
        <ele>317</ele>
        <time>2015-11-29T08:32:52.000Z</time>
      </trkpt>
      <trkpt lat="47.49129" lon="6.7646">
        <ele>317</ele>
        <time>2015-11-29T08:32:53.000Z</time>
      </trkpt>
      <trkpt lat="47.49129" lon="6.7647">
        <ele>317</ele>
        <time>2015-11-29T08:32:54.000Z</time>
      </trkpt>
      <trkpt lat="47.49128" lon="6.76481">
        <ele>317</ele>
        <time>2015-11-29T08:32:55.000Z</time>
      </trkpt>
      <trkpt lat="47.49125" lon="6.76496">
        <ele>317</ele>
        <time>2015-11-29T08:32:56.000Z</time>
      </trkpt>
      <trkpt lat="47.49124" lon="6.76504">
        <ele>316</ele>
        <time>2015-11-29T08:32:57.000Z</time>
      </trkpt>
      <trkpt lat="47.49125" lon="6.76513">
        <ele>316</ele>
        <time>2015-11-29T08:32:58.000Z</time>
      </trkpt>
      <trkpt lat="47.49127" lon="6.76519">
        <ele>316</ele>
        <time>2015-11-29T08:32:59.000Z</time>
      </trkpt>
      <trkpt lat="47.4913" lon="6.7653">
        <ele>316</ele>
        <time>2015-11-29T08:33:00.000Z</time>
      </trkpt>
      <trkpt lat="47.49135" lon="6.76535">
        <ele>315</ele>
        <time>2015-11-29T08:33:01.000Z</time>
      </trkpt>
      <trkpt lat="47.4914" lon="6.7653">
        <ele>315</ele>
        <time>2015-11-29T08:33:02.000Z</time>
      </trkpt>
      <trkpt lat="47.49145" lon="6.76527">
        <ele>315</ele>
        <time>2015-11-29T08:33:03.000Z</time>
      </trkpt>
      <trkpt lat="47.4915" lon="6.76524">
        <ele>315</ele>
        <time>2015-11-29T08:33:04.000Z</time>
      </trkpt>
      <trkpt lat="47.49155" lon="6.76519">
        <ele>315</ele>
        <time>2015-11-29T08:33:05.000Z</time>
      </trkpt>
      <trkpt lat="47.49159" lon="6.76514">
        <ele>314</ele>
        <time>2015-11-29T08:33:06.000Z</time>
      </trkpt>
      <trkpt lat="47.49162" lon="6.76512">
        <ele>314</ele>
        <time>2015-11-29T08:33:07.000Z</time>
      </trkpt>
      <trkpt lat="47.49165" lon="6.7651">
        <ele>314</ele>
        <time>2015-11-29T08:33:08.000Z</time>
      </trkpt>
      <trkpt lat="47.49167" lon="6.76508">
        <ele>314</ele>
        <time>2015-11-29T08:33:09.000Z</time>
      </trkpt>
      <trkpt lat="47.4917" lon="6.76507">
        <ele>314</ele>
        <time>2015-11-29T08:33:10.000Z</time>
      </trkpt>
      <trkpt lat="47.49173" lon="6.76503">
        <ele>314</ele>
        <time>2015-11-29T08:33:13.000Z</time>
      </trkpt>
      <trkpt lat="47.49174" lon="6.76501">
        <ele>314</ele>
        <time>2015-11-29T08:33:14.000Z</time>
      </trkpt>
      <trkpt lat="47.49177" lon="6.76499">
        <ele>315</ele>
        <time>2015-11-29T08:33:15.000Z</time>
      </trkpt>
      <trkpt lat="47.49178" lon="6.76497">
        <ele>315</ele>
        <time>2015-11-29T08:33:16.000Z</time>
      </trkpt>
      <trkpt lat="47.49178" lon="6.7649">
        <ele>315</ele>
        <time>2015-11-29T08:34:18.000Z</time>
      </trkpt>
      <trkpt lat="47.49179" lon="6.7649">
        <ele>315</ele>
        <time>2015-11-29T08:34:19.000Z</time>
      </trkpt>
      <trkpt lat="47.4918" lon="6.76496">
        <ele>315</ele>
        <time>2015-11-29T08:34:28.000Z</time>
      </trkpt>
      <trkpt lat="47.49179" lon="6.76497">
        <ele>315</ele>
        <time>2015-11-29T08:34:29.000Z</time>
      </trkpt>
      <trkpt lat="47.49176" lon="6.765">
        <ele>314</ele>
        <time>2015-11-29T08:34:52.000Z</time>
      </trkpt>
      <trkpt lat="47.49175" lon="6.76501">
        <ele>314</ele>
        <time>2015-11-29T08:34:53.000Z</time>
      </trkpt>
      <trkpt lat="47.49173" lon="6.76503">
        <ele>314</ele>
        <time>2015-11-29T08:34:56.000Z</time>
      </trkpt>
      <trkpt lat="47.49172" lon="6.76505">
        <ele>314</ele>
        <time>2015-11-29T08:34:57.000Z</time>
      </trkpt>
      <trkpt lat="47.4917" lon="6.76506">
        <ele>314</ele>
        <time>2015-11-29T08:34:58.000Z</time>
      </trkpt>
      <trkpt lat="47.49167" lon="6.76508">
        <ele>314</ele>
        <time>2015-11-29T08:34:59.000Z</time>
      </trkpt>
      <trkpt lat="47.49164" lon="6.7651">
        <ele>314</ele>
        <time>2015-11-29T08:35:00.000Z</time>
      </trkpt>
      <trkpt lat="47.4916" lon="6.76513">
        <ele>314</ele>
        <time>2015-11-29T08:35:01.000Z</time>
      </trkpt>
      <trkpt lat="47.49152" lon="6.76518">
        <ele>315</ele>
        <time>2015-11-29T08:35:02.000Z</time>
      </trkpt>
      <trkpt lat="47.49148" lon="6.76521">
        <ele>315</ele>
        <time>2015-11-29T08:35:03.000Z</time>
      </trkpt>
      <trkpt lat="47.49143" lon="6.76523">
        <ele>315</ele>
        <time>2015-11-29T08:35:04.000Z</time>
      </trkpt>
      <trkpt lat="47.49138" lon="6.76523">
        <ele>315</ele>
        <time>2015-11-29T08:35:05.000Z</time>
      </trkpt>
      <trkpt lat="47.49134" lon="6.76522">
        <ele>316</ele>
        <time>2015-11-29T08:35:06.000Z</time>
      </trkpt>
      <trkpt lat="47.4913" lon="6.76522">
        <ele>316</ele>
        <time>2015-11-29T08:35:07.000Z</time>
      </trkpt>
      <trkpt lat="47.49126" lon="6.76519">
        <ele>316</ele>
        <time>2015-11-29T08:35:08.000Z</time>
      </trkpt>
      <trkpt lat="47.49124" lon="6.76516">
        <ele>316</ele>
        <time>2015-11-29T08:35:09.000Z</time>
      </trkpt>
      <trkpt lat="47.49123" lon="6.7651">
        <ele>316</ele>
        <time>2015-11-29T08:35:10.000Z</time>
      </trkpt>
      <trkpt lat="47.49121" lon="6.76505">
        <ele>316</ele>
        <time>2015-11-29T08:35:11.000Z</time>
      </trkpt>
      <trkpt lat="47.49123" lon="6.765">
        <ele>316</ele>
        <time>2015-11-29T08:35:12.000Z</time>
      </trkpt>
      <trkpt lat="47.49123" lon="6.76496">
        <ele>317</ele>
        <time>2015-11-29T08:35:13.000Z</time>
      </trkpt>
      <trkpt lat="47.49124" lon="6.76491">
        <ele>317</ele>
        <time>2015-11-29T08:35:14.000Z</time>
      </trkpt>
      <trkpt lat="47.49124" lon="6.76486">
        <ele>317</ele>
        <time>2015-11-29T08:35:15.000Z</time>
      </trkpt>
      <trkpt lat="47.49124" lon="6.76482">
        <ele>317</ele>
        <time>2015-11-29T08:35:16.000Z</time>
      </trkpt>
      <trkpt lat="47.49123" lon="6.76477">
        <ele>317</ele>
        <time>2015-11-29T08:35:17.000Z</time>
      </trkpt>
      <trkpt lat="47.49123" lon="6.76472">
        <ele>317</ele>
        <time>2015-11-29T08:35:18.000Z</time>
      </trkpt>
      <trkpt lat="47.49123" lon="6.76467">
        <ele>317</ele>
        <time>2015-11-29T08:35:19.000Z</time>
      </trkpt>
      <trkpt lat="47.49123" lon="6.76462">
        <ele>317</ele>
        <time>2015-11-29T08:35:20.000Z</time>
      </trkpt>
      <trkpt lat="47.49124" lon="6.76457">
        <ele>317</ele>
        <time>2015-11-29T08:35:21.000Z</time>
      </trkpt>
      <trkpt lat="47.49124" lon="6.76451">
        <ele>317</ele>
        <time>2015-11-29T08:35:22.000Z</time>
      </trkpt>
      <trkpt lat="47.49123" lon="6.76446">
        <ele>317</ele>
        <time>2015-11-29T08:35:23.000Z</time>
      </trkpt>
      <trkpt lat="47.49123" lon="6.7644">
        <ele>317</ele>
        <time>2015-11-29T08:35:24.000Z</time>
      </trkpt>
      <trkpt lat="47.49122" lon="6.76435">
        <ele>317</ele>
        <time>2015-11-29T08:35:25.000Z</time>
      </trkpt>
      <trkpt lat="47.49122" lon="6.7643">
        <ele>317</ele>
        <time>2015-11-29T08:35:26.000Z</time>
      </trkpt>
      <trkpt lat="47.49121" lon="6.76427">
        <ele>317</ele>
        <time>2015-11-29T08:35:27.000Z</time>
      </trkpt>
      <trkpt lat="47.49119" lon="6.76423">
        <ele>317</ele>
        <time>2015-11-29T08:35:29.000Z</time>
      </trkpt>
      <trkpt lat="47.49117" lon="6.76423">
        <ele>318</ele>
        <time>2015-11-29T08:35:30.000Z</time>
      </trkpt>
      <trkpt lat="47.49113" lon="6.76424">
        <ele>318</ele>
        <time>2015-11-29T08:35:32.000Z</time>
      </trkpt>
      <trkpt lat="47.49111" lon="6.76424">
        <ele>318</ele>
        <time>2015-11-29T08:35:33.000Z</time>
      </trkpt>
      <trkpt lat="47.49108" lon="6.76423">
        <ele>318</ele>
        <time>2015-11-29T08:35:34.000Z</time>
      </trkpt>
      <trkpt lat="47.49106" lon="6.76421">
        <ele>318</ele>
        <time>2015-11-29T08:35:35.000Z</time>
      </trkpt>
      <trkpt lat="47.49104" lon="6.76417">
        <ele>319</ele>
        <time>2015-11-29T08:35:36.000Z</time>
      </trkpt>
      <trkpt lat="47.49102" lon="6.76414">
        <ele>319</ele>
        <time>2015-11-29T08:35:37.000Z</time>
      </trkpt>
      <trkpt lat="47.49101" lon="6.76411">
        <ele>319</ele>
        <time>2015-11-29T08:35:38.000Z</time>
      </trkpt>
      <trkpt lat="47.491" lon="6.76408">
        <ele>319</ele>
        <time>2015-11-29T08:35:39.000Z</time>
      </trkpt>
      <trkpt lat="47.49099" lon="6.76401">
        <ele>319</ele>
        <time>2015-11-29T08:35:41.000Z</time>
      </trkpt>
      <trkpt lat="47.49099" lon="6.76398">
        <ele>319</ele>
        <time>2015-11-29T08:35:42.000Z</time>
      </trkpt>
      <trkpt lat="47.491" lon="6.76394">
        <ele>319</ele>
        <time>2015-11-29T08:35:43.000Z</time>
      </trkpt>
      <trkpt lat="47.491" lon="6.76391">
        <ele>319</ele>
        <time>2015-11-29T08:35:44.000Z</time>
      </trkpt>
      <trkpt lat="47.491" lon="6.76387">
        <ele>319</ele>
        <time>2015-11-29T08:35:45.000Z</time>
      </trkpt>
      <trkpt lat="47.49101" lon="6.76384">
        <ele>319</ele>
        <time>2015-11-29T08:35:46.000Z</time>
      </trkpt>
      <trkpt lat="47.49101" lon="6.7638">
        <ele>319</ele>
        <time>2015-11-29T08:35:47.000Z</time>
      </trkpt>
      <trkpt lat="47.491" lon="6.76376">
        <ele>319</ele>
        <time>2015-11-29T08:35:48.000Z</time>
      </trkpt>
      <trkpt lat="47.491" lon="6.76373">
        <ele>319</ele>
        <time>2015-11-29T08:35:49.000Z</time>
      </trkpt>
      <trkpt lat="47.491" lon="6.76369">
        <ele>319</ele>
        <time>2015-11-29T08:35:50.000Z</time>
      </trkpt>
      <trkpt lat="47.49099" lon="6.76366">
        <ele>319</ele>
        <time>2015-11-29T08:35:51.000Z</time>
      </trkpt>
      <trkpt lat="47.49099" lon="6.76362">
        <ele>319</ele>
        <time>2015-11-29T08:35:52.000Z</time>
      </trkpt>
      <trkpt lat="47.49099" lon="6.76358">
        <ele>319</ele>
        <time>2015-11-29T08:35:53.000Z</time>
      </trkpt>
      <trkpt lat="47.49098" lon="6.76353">
        <ele>320</ele>
        <time>2015-11-29T08:35:54.000Z</time>
      </trkpt>
      <trkpt lat="47.49098" lon="6.76349">
        <ele>320</ele>
        <time>2015-11-29T08:35:55.000Z</time>
      </trkpt>
      <trkpt lat="47.49097" lon="6.76344">
        <ele>320</ele>
        <time>2015-11-29T08:35:56.000Z</time>
      </trkpt>
      <trkpt lat="47.49097" lon="6.76339">
        <ele>321</ele>
        <time>2015-11-29T08:35:57.000Z</time>
      </trkpt>
      <trkpt lat="47.49097" lon="6.76335">
        <ele>321</ele>
        <time>2015-11-29T08:35:58.000Z</time>
      </trkpt>
      <trkpt lat="47.49096" lon="6.7633">
        <ele>321</ele>
        <time>2015-11-29T08:35:59.000Z</time>
      </trkpt>
      <trkpt lat="47.49096" lon="6.76325">
        <ele>321</ele>
        <time>2015-11-29T08:36:00.000Z</time>
      </trkpt>
      <trkpt lat="47.49096" lon="6.7632">
        <ele>321</ele>
        <time>2015-11-29T08:36:01.000Z</time>
      </trkpt>
      <trkpt lat="47.49096" lon="6.76316">
        <ele>321</ele>
        <time>2015-11-29T08:36:02.000Z</time>
      </trkpt>
      <trkpt lat="47.49095" lon="6.76312">
        <ele>321</ele>
        <time>2015-11-29T08:36:03.000Z</time>
      </trkpt>
      <trkpt lat="47.49095" lon="6.76308">
        <ele>321</ele>
        <time>2015-11-29T08:36:04.000Z</time>
      </trkpt>
      <trkpt lat="47.49095" lon="6.76304">
        <ele>321</ele>
        <time>2015-11-29T08:36:05.000Z</time>
      </trkpt>
      <trkpt lat="47.49095" lon="6.76299">
        <ele>321</ele>
        <time>2015-11-29T08:36:06.000Z</time>
      </trkpt>
      <trkpt lat="47.49095" lon="6.76295">
        <ele>321</ele>
        <time>2015-11-29T08:36:07.000Z</time>
      </trkpt>
      <trkpt lat="47.49094" lon="6.7629">
        <ele>321</ele>
        <time>2015-11-29T08:36:08.000Z</time>
      </trkpt>
      <trkpt lat="47.49094" lon="6.76286">
        <ele>321</ele>
        <time>2015-11-29T08:36:09.000Z</time>
      </trkpt>
      <trkpt lat="47.49093" lon="6.76281">
        <ele>321</ele>
        <time>2015-11-29T08:36:10.000Z</time>
      </trkpt>
      <trkpt lat="47.49093" lon="6.76277">
        <ele>321</ele>
        <time>2015-11-29T08:36:11.000Z</time>
      </trkpt>
      <trkpt lat="47.49093" lon="6.76273">
        <ele>322</ele>
        <time>2015-11-29T08:36:12.000Z</time>
      </trkpt>
      <trkpt lat="47.49092" lon="6.76269">
        <ele>322</ele>
        <time>2015-11-29T08:36:13.000Z</time>
      </trkpt>
      <trkpt lat="47.49092" lon="6.76264">
        <ele>322</ele>
        <time>2015-11-29T08:36:14.000Z</time>
      </trkpt>
      <trkpt lat="47.49091" lon="6.76258">
        <ele>323</ele>
        <time>2015-11-29T08:36:15.000Z</time>
      </trkpt>
      <trkpt lat="47.49091" lon="6.76252">
        <ele>323</ele>
        <time>2015-11-29T08:36:16.000Z</time>
      </trkpt>
      <trkpt lat="47.49091" lon="6.76247">
        <ele>324</ele>
        <time>2015-11-29T08:36:17.000Z</time>
      </trkpt>
      <trkpt lat="47.49091" lon="6.76241">
        <ele>323</ele>
        <time>2015-11-29T08:36:18.000Z</time>
      </trkpt>
      <trkpt lat="47.49091" lon="6.76235">
        <ele>323</ele>
        <time>2015-11-29T08:36:19.000Z</time>
      </trkpt>
      <trkpt lat="47.49091" lon="6.7623">
        <ele>323</ele>
        <time>2015-11-29T08:36:20.000Z</time>
      </trkpt>
      <trkpt lat="47.49091" lon="6.76225">
        <ele>323</ele>
        <time>2015-11-29T08:36:21.000Z</time>
      </trkpt>
      <trkpt lat="47.49091" lon="6.76219">
        <ele>322</ele>
        <time>2015-11-29T08:36:22.000Z</time>
      </trkpt>
      <trkpt lat="47.49091" lon="6.76214">
        <ele>322</ele>
        <time>2015-11-29T08:36:23.000Z</time>
      </trkpt>
      <trkpt lat="47.49091" lon="6.76208">
        <ele>322</ele>
        <time>2015-11-29T08:36:24.000Z</time>
      </trkpt>
      <trkpt lat="47.4909" lon="6.76201">
        <ele>322</ele>
        <time>2015-11-29T08:36:25.000Z</time>
      </trkpt>
      <trkpt lat="47.49089" lon="6.76195">
        <ele>322</ele>
        <time>2015-11-29T08:36:26.000Z</time>
      </trkpt>
      <trkpt lat="47.49089" lon="6.76189">
        <ele>322</ele>
        <time>2015-11-29T08:36:27.000Z</time>
      </trkpt>
      <trkpt lat="47.49088" lon="6.76182">
        <ele>323</ele>
        <time>2015-11-29T08:36:28.000Z</time>
      </trkpt>
      <trkpt lat="47.49087" lon="6.76177">
        <ele>323</ele>
        <time>2015-11-29T08:36:29.000Z</time>
      </trkpt>
      <trkpt lat="47.49086" lon="6.76172">
        <ele>323</ele>
        <time>2015-11-29T08:36:30.000Z</time>
      </trkpt>
      <trkpt lat="47.49085" lon="6.76167">
        <ele>324</ele>
        <time>2015-11-29T08:36:31.000Z</time>
      </trkpt>
      <trkpt lat="47.49084" lon="6.76162">
        <ele>324</ele>
        <time>2015-11-29T08:36:32.000Z</time>
      </trkpt>
      <trkpt lat="47.49083" lon="6.76157">
        <ele>331</ele>
        <time>2015-11-29T08:36:33.000Z</time>
      </trkpt>
      <trkpt lat="47.49083" lon="6.76152">
        <ele>333</ele>
        <time>2015-11-29T08:36:34.000Z</time>
      </trkpt>
      <trkpt lat="47.49082" lon="6.76147">
        <ele>334</ele>
        <time>2015-11-29T08:36:35.000Z</time>
      </trkpt>
      <trkpt lat="47.49082" lon="6.76142">
        <ele>336</ele>
        <time>2015-11-29T08:36:36.000Z</time>
      </trkpt>
      <trkpt lat="47.49081" lon="6.76137">
        <ele>337</ele>
        <time>2015-11-29T08:36:37.000Z</time>
      </trkpt>
      <trkpt lat="47.4908" lon="6.76133">
        <ele>338</ele>
        <time>2015-11-29T08:36:38.000Z</time>
      </trkpt>
      <trkpt lat="47.49079" lon="6.76128">
        <ele>338</ele>
        <time>2015-11-29T08:36:39.000Z</time>
      </trkpt>
      <trkpt lat="47.49077" lon="6.76124">
        <ele>339</ele>
        <time>2015-11-29T08:36:40.000Z</time>
      </trkpt>
      <trkpt lat="47.49076" lon="6.76119">
        <ele>339</ele>
        <time>2015-11-29T08:36:41.000Z</time>
      </trkpt>
      <trkpt lat="47.49076" lon="6.76114">
        <ele>339</ele>
        <time>2015-11-29T08:36:42.000Z</time>
      </trkpt>
      <trkpt lat="47.49075" lon="6.7611">
        <ele>338</ele>
        <time>2015-11-29T08:36:43.000Z</time>
      </trkpt>
      <trkpt lat="47.49075" lon="6.76105">
        <ele>338</ele>
        <time>2015-11-29T08:36:44.000Z</time>
      </trkpt>
      <trkpt lat="47.49075" lon="6.761">
        <ele>337</ele>
        <time>2015-11-29T08:36:45.000Z</time>
      </trkpt>
      <trkpt lat="47.49075" lon="6.76095">
        <ele>336</ele>
        <time>2015-11-29T08:36:46.000Z</time>
      </trkpt>
      <trkpt lat="47.49075" lon="6.7609">
        <ele>334</ele>
        <time>2015-11-29T08:36:47.000Z</time>
      </trkpt>
      <trkpt lat="47.49075" lon="6.76085">
        <ele>333</ele>
        <time>2015-11-29T08:36:48.000Z</time>
      </trkpt>
      <trkpt lat="47.49076" lon="6.7608">
        <ele>334</ele>
        <time>2015-11-29T08:36:49.000Z</time>
      </trkpt>
      <trkpt lat="47.49077" lon="6.76075">
        <ele>336</ele>
        <time>2015-11-29T08:36:50.000Z</time>
      </trkpt>
      <trkpt lat="47.49078" lon="6.7607">
        <ele>338</ele>
        <time>2015-11-29T08:36:51.000Z</time>
      </trkpt>
      <trkpt lat="47.4908" lon="6.76065">
        <ele>339</ele>
        <time>2015-11-29T08:36:52.000Z</time>
      </trkpt>
      <trkpt lat="47.49081" lon="6.76061">
        <ele>340</ele>
        <time>2015-11-29T08:36:53.000Z</time>
      </trkpt>
      <trkpt lat="47.49083" lon="6.76057">
        <ele>341</ele>
        <time>2015-11-29T08:36:54.000Z</time>
      </trkpt>
      <trkpt lat="47.49084" lon="6.76052">
        <ele>326</ele>
        <time>2015-11-29T08:36:55.000Z</time>
      </trkpt>
      <trkpt lat="47.49085" lon="6.76048">
        <ele>327</ele>
        <time>2015-11-29T08:36:56.000Z</time>
      </trkpt>
      <trkpt lat="47.49086" lon="6.76043">
        <ele>327</ele>
        <time>2015-11-29T08:36:57.000Z</time>
      </trkpt>
      <trkpt lat="47.49087" lon="6.76038">
        <ele>327</ele>
        <time>2015-11-29T08:36:58.000Z</time>
      </trkpt>
      <trkpt lat="47.49087" lon="6.76033">
        <ele>327</ele>
        <time>2015-11-29T08:36:59.000Z</time>
      </trkpt>
      <trkpt lat="47.49088" lon="6.76028">
        <ele>328</ele>
        <time>2015-11-29T08:37:00.000Z</time>
      </trkpt>
      <trkpt lat="47.4909" lon="6.76022">
        <ele>328</ele>
        <time>2015-11-29T08:37:01.000Z</time>
      </trkpt>
      <trkpt lat="47.49091" lon="6.76017">
        <ele>329</ele>
        <time>2015-11-29T08:37:02.000Z</time>
      </trkpt>
      <trkpt lat="47.49092" lon="6.76012">
        <ele>329</ele>
        <time>2015-11-29T08:37:03.000Z</time>
      </trkpt>
      <trkpt lat="47.49093" lon="6.76009">
        <ele>329</ele>
        <time>2015-11-29T08:37:04.000Z</time>
      </trkpt>
      <trkpt lat="47.49094" lon="6.76005">
        <ele>330</ele>
        <time>2015-11-29T08:37:05.000Z</time>
      </trkpt>
      <trkpt lat="47.49096" lon="6.76001">
        <ele>330</ele>
        <time>2015-11-29T08:37:06.000Z</time>
      </trkpt>
      <trkpt lat="47.49097" lon="6.75997">
        <ele>331</ele>
        <time>2015-11-29T08:37:07.000Z</time>
      </trkpt>
      <trkpt lat="47.49099" lon="6.75992">
        <ele>330</ele>
        <time>2015-11-29T08:37:08.000Z</time>
      </trkpt>
      <trkpt lat="47.49101" lon="6.75987">
        <ele>330</ele>
        <time>2015-11-29T08:37:09.000Z</time>
      </trkpt>
      <trkpt lat="47.49102" lon="6.75983">
        <ele>330</ele>
        <time>2015-11-29T08:37:10.000Z</time>
      </trkpt>
      <trkpt lat="47.49104" lon="6.75978">
        <ele>330</ele>
        <time>2015-11-29T08:37:11.000Z</time>
      </trkpt>
      <trkpt lat="47.49107" lon="6.75974">
        <ele>329</ele>
        <time>2015-11-29T08:37:12.000Z</time>
      </trkpt>
      <trkpt lat="47.49109" lon="6.7597">
        <ele>329</ele>
        <time>2015-11-29T08:37:13.000Z</time>
      </trkpt>
      <trkpt lat="47.49112" lon="6.75965">
        <ele>329</ele>
        <time>2015-11-29T08:37:14.000Z</time>
      </trkpt>
      <trkpt lat="47.49114" lon="6.7596">
        <ele>329</ele>
        <time>2015-11-29T08:37:15.000Z</time>
      </trkpt>
      <trkpt lat="47.49116" lon="6.75955">
        <ele>329</ele>
        <time>2015-11-29T08:37:16.000Z</time>
      </trkpt>
      <trkpt lat="47.49117" lon="6.7595">
        <ele>329</ele>
        <time>2015-11-29T08:37:17.000Z</time>
      </trkpt>
      <trkpt lat="47.49118" lon="6.75946">
        <ele>329</ele>
        <time>2015-11-29T08:37:18.000Z</time>
      </trkpt>
      <trkpt lat="47.49119" lon="6.75942">
        <ele>329</ele>
        <time>2015-11-29T08:37:19.000Z</time>
      </trkpt>
      <trkpt lat="47.4912" lon="6.75939">
        <ele>329</ele>
        <time>2015-11-29T08:37:20.000Z</time>
      </trkpt>
      <trkpt lat="47.49121" lon="6.75936">
        <ele>329</ele>
        <time>2015-11-29T08:37:21.000Z</time>
      </trkpt>
      <trkpt lat="47.49122" lon="6.75932">
        <ele>329</ele>
        <time>2015-11-29T08:37:22.000Z</time>
      </trkpt>
      <trkpt lat="47.49123" lon="6.75927">
        <ele>329</ele>
        <time>2015-11-29T08:37:23.000Z</time>
      </trkpt>
      <trkpt lat="47.49124" lon="6.75922">
        <ele>329</ele>
        <time>2015-11-29T08:37:24.000Z</time>
      </trkpt>
      <trkpt lat="47.49125" lon="6.75916">
        <ele>332</ele>
        <time>2015-11-29T08:37:25.000Z</time>
      </trkpt>
      <trkpt lat="47.49126" lon="6.75911">
        <ele>332</ele>
        <time>2015-11-29T08:37:26.000Z</time>
      </trkpt>
      <trkpt lat="47.49127" lon="6.75905">
        <ele>332</ele>
        <time>2015-11-29T08:37:27.000Z</time>
      </trkpt>
      <trkpt lat="47.49129" lon="6.759">
        <ele>332</ele>
        <time>2015-11-29T08:37:28.000Z</time>
      </trkpt>
      <trkpt lat="47.4913" lon="6.75893">
        <ele>332</ele>
        <time>2015-11-29T08:37:29.000Z</time>
      </trkpt>
      <trkpt lat="47.4913" lon="6.75886">
        <ele>332</ele>
        <time>2015-11-29T08:37:30.000Z</time>
      </trkpt>
      <trkpt lat="47.49131" lon="6.75879">
        <ele>332</ele>
        <time>2015-11-29T08:37:31.000Z</time>
      </trkpt>
      <trkpt lat="47.49132" lon="6.75871">
        <ele>332</ele>
        <time>2015-11-29T08:37:32.000Z</time>
      </trkpt>
      <trkpt lat="47.49133" lon="6.75865">
        <ele>332</ele>
        <time>2015-11-29T08:37:33.000Z</time>
      </trkpt>
      <trkpt lat="47.49141" lon="6.75848">
        <ele>332</ele>
        <time>2015-11-29T08:37:34.000Z</time>
      </trkpt>
      <trkpt lat="47.49143" lon="6.7584">
        <ele>331</ele>
        <time>2015-11-29T08:37:35.000Z</time>
      </trkpt>
      <trkpt lat="47.49145" lon="6.75834">
        <ele>331</ele>
        <time>2015-11-29T08:37:36.000Z</time>
      </trkpt>
      <trkpt lat="47.49149" lon="6.75827">
        <ele>333</ele>
        <time>2015-11-29T08:37:37.000Z</time>
      </trkpt>
      <trkpt lat="47.49151" lon="6.75819">
        <ele>334</ele>
        <time>2015-11-29T08:37:38.000Z</time>
      </trkpt>
      <trkpt lat="47.49153" lon="6.75813">
        <ele>334</ele>
        <time>2015-11-29T08:37:39.000Z</time>
      </trkpt>
      <trkpt lat="47.49156" lon="6.75806">
        <ele>335</ele>
        <time>2015-11-29T08:37:40.000Z</time>
      </trkpt>
      <trkpt lat="47.49159" lon="6.75798">
        <ele>336</ele>
        <time>2015-11-29T08:37:41.000Z</time>
      </trkpt>
      <trkpt lat="47.49161" lon="6.75792">
        <ele>336</ele>
        <time>2015-11-29T08:37:42.000Z</time>
      </trkpt>
      <trkpt lat="47.49163" lon="6.75785">
        <ele>337</ele>
        <time>2015-11-29T08:37:43.000Z</time>
      </trkpt>
      <trkpt lat="47.49165" lon="6.7578">
        <ele>337</ele>
        <time>2015-11-29T08:37:44.000Z</time>
      </trkpt>
      <trkpt lat="47.49167" lon="6.75775">
        <ele>328</ele>
        <time>2015-11-29T08:37:45.000Z</time>
      </trkpt>
      <trkpt lat="47.49169" lon="6.75769">
        <ele>329</ele>
        <time>2015-11-29T08:37:46.000Z</time>
      </trkpt>
      <trkpt lat="47.4917" lon="6.75764">
        <ele>330</ele>
        <time>2015-11-29T08:37:47.000Z</time>
      </trkpt>
      <trkpt lat="47.49172" lon="6.75759">
        <ele>331</ele>
        <time>2015-11-29T08:37:48.000Z</time>
      </trkpt>
      <trkpt lat="47.49171" lon="6.75745">
        <ele>334</ele>
        <time>2015-11-29T08:37:49.000Z</time>
      </trkpt>
      <trkpt lat="47.49172" lon="6.7574">
        <ele>334</ele>
        <time>2015-11-29T08:37:50.000Z</time>
      </trkpt>
      <trkpt lat="47.49176" lon="6.75734">
        <ele>334</ele>
        <time>2015-11-29T08:37:51.000Z</time>
      </trkpt>
      <trkpt lat="47.49178" lon="6.75729">
        <ele>333</ele>
        <time>2015-11-29T08:37:52.000Z</time>
      </trkpt>
      <trkpt lat="47.49181" lon="6.75723">
        <ele>333</ele>
        <time>2015-11-29T08:37:53.000Z</time>
      </trkpt>
      <trkpt lat="47.49185" lon="6.75722">
        <ele>333</ele>
        <time>2015-11-29T08:37:54.000Z</time>
      </trkpt>
      <trkpt lat="47.49187" lon="6.7572">
        <ele>333</ele>
        <time>2015-11-29T08:37:55.000Z</time>
      </trkpt>
      <trkpt lat="47.4919" lon="6.75715">
        <ele>333</ele>
        <time>2015-11-29T08:37:56.000Z</time>
      </trkpt>
      <trkpt lat="47.49192" lon="6.75712">
        <ele>333</ele>
        <time>2015-11-29T08:37:57.000Z</time>
      </trkpt>
      <trkpt lat="47.49195" lon="6.75707">
        <ele>333</ele>
        <time>2015-11-29T08:37:58.000Z</time>
      </trkpt>
      <trkpt lat="47.49196" lon="6.75701">
        <ele>333</ele>
        <time>2015-11-29T08:37:59.000Z</time>
      </trkpt>
      <trkpt lat="47.49196" lon="6.75695">
        <ele>334</ele>
        <time>2015-11-29T08:38:00.000Z</time>
      </trkpt>
      <trkpt lat="47.49197" lon="6.7569">
        <ele>334</ele>
        <time>2015-11-29T08:38:01.000Z</time>
      </trkpt>
      <trkpt lat="47.49198" lon="6.75685">
        <ele>334</ele>
        <time>2015-11-29T08:38:02.000Z</time>
      </trkpt>
      <trkpt lat="47.49199" lon="6.75681">
        <ele>334</ele>
        <time>2015-11-29T08:38:03.000Z</time>
      </trkpt>
      <trkpt lat="47.49202" lon="6.75679">
        <ele>334</ele>
        <time>2015-11-29T08:38:04.000Z</time>
      </trkpt>
      <trkpt lat="47.49204" lon="6.75677">
        <ele>334</ele>
        <time>2015-11-29T08:38:05.000Z</time>
      </trkpt>
      <trkpt lat="47.49206" lon="6.75676">
        <ele>333</ele>
        <time>2015-11-29T08:38:06.000Z</time>
      </trkpt>
      <trkpt lat="47.49208" lon="6.75674">
        <ele>333</ele>
        <time>2015-11-29T08:38:07.000Z</time>
      </trkpt>
      <trkpt lat="47.4921" lon="6.75671">
        <ele>332</ele>
        <time>2015-11-29T08:38:08.000Z</time>
      </trkpt>
      <trkpt lat="47.49211" lon="6.75667">
        <ele>332</ele>
        <time>2015-11-29T08:38:09.000Z</time>
      </trkpt>
      <trkpt lat="47.49212" lon="6.75663">
        <ele>337</ele>
        <time>2015-11-29T08:38:10.000Z</time>
      </trkpt>
      <trkpt lat="47.49213" lon="6.75658">
        <ele>337</ele>
        <time>2015-11-29T08:38:11.000Z</time>
      </trkpt>
      <trkpt lat="47.49214" lon="6.75653">
        <ele>337</ele>
        <time>2015-11-29T08:38:12.000Z</time>
      </trkpt>
      <trkpt lat="47.49215" lon="6.75648">
        <ele>337</ele>
        <time>2015-11-29T08:38:13.000Z</time>
      </trkpt>
      <trkpt lat="47.49216" lon="6.75643">
        <ele>338</ele>
        <time>2015-11-29T08:38:14.000Z</time>
      </trkpt>
      <trkpt lat="47.49218" lon="6.75639">
        <ele>337</ele>
        <time>2015-11-29T08:38:15.000Z</time>
      </trkpt>
      <trkpt lat="47.49221" lon="6.75636">
        <ele>337</ele>
        <time>2015-11-29T08:38:16.000Z</time>
      </trkpt>
      <trkpt lat="47.49223" lon="6.75632">
        <ele>337</ele>
        <time>2015-11-29T08:38:17.000Z</time>
      </trkpt>
      <trkpt lat="47.49226" lon="6.75628">
        <ele>337</ele>
        <time>2015-11-29T08:38:18.000Z</time>
      </trkpt>
      <trkpt lat="47.49228" lon="6.75623">
        <ele>337</ele>
        <time>2015-11-29T08:38:19.000Z</time>
      </trkpt>
      <trkpt lat="47.49229" lon="6.75617">
        <ele>337</ele>
        <time>2015-11-29T08:38:20.000Z</time>
      </trkpt>
      <trkpt lat="47.49231" lon="6.75611">
        <ele>337</ele>
        <time>2015-11-29T08:38:21.000Z</time>
      </trkpt>
      <trkpt lat="47.49232" lon="6.75605">
        <ele>337</ele>
        <time>2015-11-29T08:38:22.000Z</time>
      </trkpt>
      <trkpt lat="47.49233" lon="6.75599">
        <ele>337</ele>
        <time>2015-11-29T08:38:23.000Z</time>
      </trkpt>
      <trkpt lat="47.49234" lon="6.75593">
        <ele>337</ele>
        <time>2015-11-29T08:38:24.000Z</time>
      </trkpt>
      <trkpt lat="47.49234" lon="6.75587">
        <ele>336</ele>
        <time>2015-11-29T08:38:25.000Z</time>
      </trkpt>
      <trkpt lat="47.49235" lon="6.75581">
        <ele>340</ele>
        <time>2015-11-29T08:38:26.000Z</time>
      </trkpt>
      <trkpt lat="47.49234" lon="6.75576">
        <ele>340</ele>
        <time>2015-11-29T08:38:27.000Z</time>
      </trkpt>
      <trkpt lat="47.49234" lon="6.75572">
        <ele>341</ele>
        <time>2015-11-29T08:38:28.000Z</time>
      </trkpt>
      <trkpt lat="47.49234" lon="6.75568">
        <ele>341</ele>
        <time>2015-11-29T08:38:29.000Z</time>
      </trkpt>
      <trkpt lat="47.49234" lon="6.75563">
        <ele>342</ele>
        <time>2015-11-29T08:38:30.000Z</time>
      </trkpt>
      <trkpt lat="47.49234" lon="6.75558">
        <ele>343</ele>
        <time>2015-11-29T08:38:31.000Z</time>
      </trkpt>
      <trkpt lat="47.49235" lon="6.75552">
        <ele>343</ele>
        <time>2015-11-29T08:38:32.000Z</time>
      </trkpt>
      <trkpt lat="47.49235" lon="6.75546">
        <ele>344</ele>
        <time>2015-11-29T08:38:33.000Z</time>
      </trkpt>
      <trkpt lat="47.49236" lon="6.7554">
        <ele>344</ele>
        <time>2015-11-29T08:38:34.000Z</time>
      </trkpt>
      <trkpt lat="47.49236" lon="6.75534">
        <ele>344</ele>
        <time>2015-11-29T08:38:35.000Z</time>
      </trkpt>
      <trkpt lat="47.49236" lon="6.75528">
        <ele>344</ele>
        <time>2015-11-29T08:38:36.000Z</time>
      </trkpt>
      <trkpt lat="47.49237" lon="6.75523">
        <ele>344</ele>
        <time>2015-11-29T08:38:37.000Z</time>
      </trkpt>
      <trkpt lat="47.49239" lon="6.75518">
        <ele>343</ele>
        <time>2015-11-29T08:38:38.000Z</time>
      </trkpt>
      <trkpt lat="47.4924" lon="6.75513">
        <ele>343</ele>
        <time>2015-11-29T08:38:39.000Z</time>
      </trkpt>
      <trkpt lat="47.49242" lon="6.75508">
        <ele>342</ele>
        <time>2015-11-29T08:38:40.000Z</time>
      </trkpt>
      <trkpt lat="47.49242" lon="6.75502">
        <ele>341</ele>
        <time>2015-11-29T08:38:41.000Z</time>
      </trkpt>
      <trkpt lat="47.49243" lon="6.75496">
        <ele>343</ele>
        <time>2015-11-29T08:38:42.000Z</time>
      </trkpt>
      <trkpt lat="47.49244" lon="6.7549">
        <ele>344</ele>
        <time>2015-11-29T08:38:43.000Z</time>
      </trkpt>
      <trkpt lat="47.49245" lon="6.75484">
        <ele>346</ele>
        <time>2015-11-29T08:38:44.000Z</time>
      </trkpt>
      <trkpt lat="47.49245" lon="6.75478">
        <ele>347</ele>
        <time>2015-11-29T08:38:45.000Z</time>
      </trkpt>
      <trkpt lat="47.49246" lon="6.75473">
        <ele>348</ele>
        <time>2015-11-29T08:38:46.000Z</time>
      </trkpt>
      <trkpt lat="47.49247" lon="6.75469">
        <ele>348</ele>
        <time>2015-11-29T08:38:47.000Z</time>
      </trkpt>
      <trkpt lat="47.49248" lon="6.75464">
        <ele>349</ele>
        <time>2015-11-29T08:38:48.000Z</time>
      </trkpt>
      <trkpt lat="47.4925" lon="6.75458">
        <ele>349</ele>
        <time>2015-11-29T08:38:49.000Z</time>
      </trkpt>
      <trkpt lat="47.49252" lon="6.75451">
        <ele>338</ele>
        <time>2015-11-29T08:38:50.000Z</time>
      </trkpt>
      <trkpt lat="47.49254" lon="6.75445">
        <ele>338</ele>
        <time>2015-11-29T08:38:51.000Z</time>
      </trkpt>
      <trkpt lat="47.49255" lon="6.75439">
        <ele>339</ele>
        <time>2015-11-29T08:38:52.000Z</time>
      </trkpt>
      <trkpt lat="47.49257" lon="6.75433">
        <ele>340</ele>
        <time>2015-11-29T08:38:53.000Z</time>
      </trkpt>
      <trkpt lat="47.49258" lon="6.75428">
        <ele>340</ele>
        <time>2015-11-29T08:38:54.000Z</time>
      </trkpt>
      <trkpt lat="47.49258" lon="6.75422">
        <ele>341</ele>
        <time>2015-11-29T08:38:55.000Z</time>
      </trkpt>
      <trkpt lat="47.49257" lon="6.75417">
        <ele>343</ele>
        <time>2015-11-29T08:38:56.000Z</time>
      </trkpt>
      <trkpt lat="47.49257" lon="6.75411">
        <ele>342</ele>
        <time>2015-11-29T08:38:57.000Z</time>
      </trkpt>
      <trkpt lat="47.49257" lon="6.75405">
        <ele>342</ele>
        <time>2015-11-29T08:38:58.000Z</time>
      </trkpt>
      <trkpt lat="47.49258" lon="6.754">
        <ele>341</ele>
        <time>2015-11-29T08:38:59.000Z</time>
      </trkpt>
      <trkpt lat="47.4926" lon="6.75396">
        <ele>341</ele>
        <time>2015-11-29T08:39:00.000Z</time>
      </trkpt>
      <trkpt lat="47.4926" lon="6.75392">
        <ele>341</ele>
        <time>2015-11-29T08:39:01.000Z</time>
      </trkpt>
      <trkpt lat="47.49261" lon="6.75387">
        <ele>341</ele>
        <time>2015-11-29T08:39:02.000Z</time>
      </trkpt>
      <trkpt lat="47.49261" lon="6.75382">
        <ele>341</ele>
        <time>2015-11-29T08:39:03.000Z</time>
      </trkpt>
      <trkpt lat="47.49261" lon="6.75377">
        <ele>341</ele>
        <time>2015-11-29T08:39:04.000Z</time>
      </trkpt>
      <trkpt lat="47.49262" lon="6.75372">
        <ele>341</ele>
        <time>2015-11-29T08:39:05.000Z</time>
      </trkpt>
      <trkpt lat="47.49263" lon="6.75366">
        <ele>341</ele>
        <time>2015-11-29T08:39:06.000Z</time>
      </trkpt>
      <trkpt lat="47.49264" lon="6.7536">
        <ele>341</ele>
        <time>2015-11-29T08:39:07.000Z</time>
      </trkpt>
      <trkpt lat="47.49265" lon="6.75354">
        <ele>342</ele>
        <time>2015-11-29T08:39:08.000Z</time>
      </trkpt>
      <trkpt lat="47.49266" lon="6.75349">
        <ele>342</ele>
        <time>2015-11-29T08:39:09.000Z</time>
      </trkpt>
      <trkpt lat="47.49268" lon="6.75345">
        <ele>342</ele>
        <time>2015-11-29T08:39:10.000Z</time>
      </trkpt>
      <trkpt lat="47.4927" lon="6.75342">
        <ele>342</ele>
        <time>2015-11-29T08:39:11.000Z</time>
      </trkpt>
      <trkpt lat="47.49271" lon="6.75339">
        <ele>342</ele>
        <time>2015-11-29T08:39:12.000Z</time>
      </trkpt>
      <trkpt lat="47.49272" lon="6.75336">
        <ele>342</ele>
        <time>2015-11-29T08:39:13.000Z</time>
      </trkpt>
      <trkpt lat="47.49272" lon="6.75331">
        <ele>343</ele>
        <time>2015-11-29T08:39:14.000Z</time>
      </trkpt>
      <trkpt lat="47.49273" lon="6.75326">
        <ele>343</ele>
        <time>2015-11-29T08:39:15.000Z</time>
      </trkpt>
      <trkpt lat="47.49273" lon="6.75321">
        <ele>342</ele>
        <time>2015-11-29T08:39:16.000Z</time>
      </trkpt>
      <trkpt lat="47.49273" lon="6.75316">
        <ele>342</ele>
        <time>2015-11-29T08:39:17.000Z</time>
      </trkpt>
      <trkpt lat="47.49274" lon="6.75311">
        <ele>342</ele>
        <time>2015-11-29T08:39:18.000Z</time>
      </trkpt>
      <trkpt lat="47.49275" lon="6.75307">
        <ele>342</ele>
        <time>2015-11-29T08:39:19.000Z</time>
      </trkpt>
      <trkpt lat="47.49275" lon="6.75303">
        <ele>342</ele>
        <time>2015-11-29T08:39:20.000Z</time>
      </trkpt>
      <trkpt lat="47.49274" lon="6.75299">
        <ele>341</ele>
        <time>2015-11-29T08:39:21.000Z</time>
      </trkpt>
      <trkpt lat="47.49274" lon="6.75294">
        <ele>341</ele>
        <time>2015-11-29T08:39:22.000Z</time>
      </trkpt>
      <trkpt lat="47.49274" lon="6.7529">
        <ele>342</ele>
        <time>2015-11-29T08:39:23.000Z</time>
      </trkpt>
      <trkpt lat="47.49274" lon="6.75284">
        <ele>342</ele>
        <time>2015-11-29T08:39:24.000Z</time>
      </trkpt>
      <trkpt lat="47.49274" lon="6.7528">
        <ele>342</ele>
        <time>2015-11-29T08:39:25.000Z</time>
      </trkpt>
      <trkpt lat="47.49273" lon="6.75274">
        <ele>342</ele>
        <time>2015-11-29T08:39:26.000Z</time>
      </trkpt>
      <trkpt lat="47.49273" lon="6.7527">
        <ele>342</ele>
        <time>2015-11-29T08:39:27.000Z</time>
      </trkpt>
      <trkpt lat="47.49271" lon="6.75266">
        <ele>343</ele>
        <time>2015-11-29T08:39:28.000Z</time>
      </trkpt>
      <trkpt lat="47.49271" lon="6.75262">
        <ele>343</ele>
        <time>2015-11-29T08:39:29.000Z</time>
      </trkpt>
      <trkpt lat="47.49271" lon="6.75258">
        <ele>343</ele>
        <time>2015-11-29T08:39:30.000Z</time>
      </trkpt>
      <trkpt lat="47.49271" lon="6.75253">
        <ele>343</ele>
        <time>2015-11-29T08:39:31.000Z</time>
      </trkpt>
      <trkpt lat="47.49271" lon="6.7525">
        <ele>345</ele>
        <time>2015-11-29T08:39:32.000Z</time>
      </trkpt>
      <trkpt lat="47.4927" lon="6.75243">
        <ele>345</ele>
        <time>2015-11-29T08:39:34.000Z</time>
      </trkpt>
      <trkpt lat="47.4927" lon="6.75241">
        <ele>345</ele>
        <time>2015-11-29T08:39:35.000Z</time>
      </trkpt>
      <trkpt lat="47.49271" lon="6.75234">
        <ele>345</ele>
        <time>2015-11-29T08:39:37.000Z</time>
      </trkpt>
      <trkpt lat="47.49271" lon="6.7523">
        <ele>345</ele>
        <time>2015-11-29T08:39:38.000Z</time>
      </trkpt>
      <trkpt lat="47.49271" lon="6.75225">
        <ele>345</ele>
        <time>2015-11-29T08:39:39.000Z</time>
      </trkpt>
      <trkpt lat="47.49271" lon="6.75219">
        <ele>345</ele>
        <time>2015-11-29T08:39:40.000Z</time>
      </trkpt>
      <trkpt lat="47.4927" lon="6.75214">
        <ele>345</ele>
        <time>2015-11-29T08:39:41.000Z</time>
      </trkpt>
      <trkpt lat="47.4927" lon="6.75209">
        <ele>345</ele>
        <time>2015-11-29T08:39:42.000Z</time>
      </trkpt>
      <trkpt lat="47.49269" lon="6.75203">
        <ele>345</ele>
        <time>2015-11-29T08:39:43.000Z</time>
      </trkpt>
      <trkpt lat="47.49269" lon="6.75197">
        <ele>346</ele>
        <time>2015-11-29T08:39:44.000Z</time>
      </trkpt>
      <trkpt lat="47.49269" lon="6.75192">
        <ele>346</ele>
        <time>2015-11-29T08:39:45.000Z</time>
      </trkpt>
      <trkpt lat="47.49269" lon="6.75187">
        <ele>347</ele>
        <time>2015-11-29T08:39:46.000Z</time>
      </trkpt>
      <trkpt lat="47.49269" lon="6.75183">
        <ele>347</ele>
        <time>2015-11-29T08:39:47.000Z</time>
      </trkpt>
      <trkpt lat="47.49269" lon="6.75179">
        <ele>347</ele>
        <time>2015-11-29T08:39:48.000Z</time>
      </trkpt>
      <trkpt lat="47.49268" lon="6.75173">
        <ele>348</ele>
        <time>2015-11-29T08:39:49.000Z</time>
      </trkpt>
      <trkpt lat="47.49267" lon="6.75167">
        <ele>349</ele>
        <time>2015-11-29T08:39:50.000Z</time>
      </trkpt>
      <trkpt lat="47.49266" lon="6.7516">
        <ele>350</ele>
        <time>2015-11-29T08:39:51.000Z</time>
      </trkpt>
      <trkpt lat="47.49264" lon="6.75153">
        <ele>350</ele>
        <time>2015-11-29T08:39:52.000Z</time>
      </trkpt>
      <trkpt lat="47.49263" lon="6.75146">
        <ele>350</ele>
        <time>2015-11-29T08:39:53.000Z</time>
      </trkpt>
      <trkpt lat="47.49262" lon="6.75139">
        <ele>350</ele>
        <time>2015-11-29T08:39:54.000Z</time>
      </trkpt>
      <trkpt lat="47.4926" lon="6.75133">
        <ele>350</ele>
        <time>2015-11-29T08:39:55.000Z</time>
      </trkpt>
      <trkpt lat="47.4926" lon="6.75127">
        <ele>350</ele>
        <time>2015-11-29T08:39:56.000Z</time>
      </trkpt>
      <trkpt lat="47.49261" lon="6.7512">
        <ele>350</ele>
        <time>2015-11-29T08:39:57.000Z</time>
      </trkpt>
      <trkpt lat="47.49262" lon="6.75114">
        <ele>351</ele>
        <time>2015-11-29T08:39:58.000Z</time>
      </trkpt>
      <trkpt lat="47.49264" lon="6.75108">
        <ele>351</ele>
        <time>2015-11-29T08:39:59.000Z</time>
      </trkpt>
      <trkpt lat="47.49266" lon="6.75103">
        <ele>351</ele>
        <time>2015-11-29T08:40:00.000Z</time>
      </trkpt>
      <trkpt lat="47.49268" lon="6.75099">
        <ele>352</ele>
        <time>2015-11-29T08:40:01.000Z</time>
      </trkpt>
      <trkpt lat="47.49271" lon="6.75094">
        <ele>351</ele>
        <time>2015-11-29T08:40:02.000Z</time>
      </trkpt>
      <trkpt lat="47.49274" lon="6.75089">
        <ele>351</ele>
        <time>2015-11-29T08:40:03.000Z</time>
      </trkpt>
      <trkpt lat="47.49277" lon="6.75085">
        <ele>351</ele>
        <time>2015-11-29T08:40:04.000Z</time>
      </trkpt>
      <trkpt lat="47.49279" lon="6.75081">
        <ele>352</ele>
        <time>2015-11-29T08:40:05.000Z</time>
      </trkpt>
      <trkpt lat="47.4928" lon="6.75076">
        <ele>352</ele>
        <time>2015-11-29T08:40:06.000Z</time>
      </trkpt>
      <trkpt lat="47.49282" lon="6.75072">
        <ele>352</ele>
        <time>2015-11-29T08:40:07.000Z</time>
      </trkpt>
      <trkpt lat="47.49283" lon="6.75067">
        <ele>352</ele>
        <time>2015-11-29T08:40:08.000Z</time>
      </trkpt>
      <trkpt lat="47.49285" lon="6.75062">
        <ele>351</ele>
        <time>2015-11-29T08:40:09.000Z</time>
      </trkpt>
      <trkpt lat="47.49286" lon="6.75058">
        <ele>351</ele>
        <time>2015-11-29T08:40:10.000Z</time>
      </trkpt>
      <trkpt lat="47.49289" lon="6.75054">
        <ele>351</ele>
        <time>2015-11-29T08:40:12.000Z</time>
      </trkpt>
      <trkpt lat="47.4929" lon="6.75052">
        <ele>351</ele>
        <time>2015-11-29T08:40:13.000Z</time>
      </trkpt>
      <trkpt lat="47.49292" lon="6.75049">
        <ele>351</ele>
        <time>2015-11-29T08:40:14.000Z</time>
      </trkpt>
      <trkpt lat="47.49293" lon="6.75045">
        <ele>350</ele>
        <time>2015-11-29T08:40:15.000Z</time>
      </trkpt>
      <trkpt lat="47.49294" lon="6.7504">
        <ele>350</ele>
        <time>2015-11-29T08:40:17.000Z</time>
      </trkpt>
      <trkpt lat="47.49294" lon="6.75037">
        <ele>351</ele>
        <time>2015-11-29T08:40:18.000Z</time>
      </trkpt>
      <trkpt lat="47.49295" lon="6.75032">
        <ele>351</ele>
        <time>2015-11-29T08:40:20.000Z</time>
      </trkpt>
      <trkpt lat="47.49296" lon="6.7503">
        <ele>351</ele>
        <time>2015-11-29T08:40:21.000Z</time>
      </trkpt>
      <trkpt lat="47.49298" lon="6.75024">
        <ele>350</ele>
        <time>2015-11-29T08:40:23.000Z</time>
      </trkpt>
      <trkpt lat="47.49299" lon="6.75021">
        <ele>350</ele>
        <time>2015-11-29T08:40:24.000Z</time>
      </trkpt>
      <trkpt lat="47.493" lon="6.75017">
        <ele>350</ele>
        <time>2015-11-29T08:40:25.000Z</time>
      </trkpt>
      <trkpt lat="47.49301" lon="6.75013">
        <ele>350</ele>
        <time>2015-11-29T08:40:26.000Z</time>
      </trkpt>
      <trkpt lat="47.49302" lon="6.75008">
        <ele>350</ele>
        <time>2015-11-29T08:40:27.000Z</time>
      </trkpt>
      <trkpt lat="47.49302" lon="6.75004">
        <ele>350</ele>
        <time>2015-11-29T08:40:28.000Z</time>
      </trkpt>
      <trkpt lat="47.49303" lon="6.74999">
        <ele>353</ele>
        <time>2015-11-29T08:40:29.000Z</time>
      </trkpt>
      <trkpt lat="47.49304" lon="6.74995">
        <ele>352</ele>
        <time>2015-11-29T08:40:30.000Z</time>
      </trkpt>
      <trkpt lat="47.49305" lon="6.74992">
        <ele>352</ele>
        <time>2015-11-29T08:40:31.000Z</time>
      </trkpt>
      <trkpt lat="47.49305" lon="6.74988">
        <ele>353</ele>
        <time>2015-11-29T08:40:32.000Z</time>
      </trkpt>
      <trkpt lat="47.49305" lon="6.74985">
        <ele>353</ele>
        <time>2015-11-29T08:40:33.000Z</time>
      </trkpt>
      <trkpt lat="47.49305" lon="6.74981">
        <ele>353</ele>
        <time>2015-11-29T08:40:34.000Z</time>
      </trkpt>
      <trkpt lat="47.49305" lon="6.74977">
        <ele>353</ele>
        <time>2015-11-29T08:40:35.000Z</time>
      </trkpt>
      <trkpt lat="47.49305" lon="6.74973">
        <ele>353</ele>
        <time>2015-11-29T08:40:36.000Z</time>
      </trkpt>
      <trkpt lat="47.49306" lon="6.74968">
        <ele>354</ele>
        <time>2015-11-29T08:40:38.000Z</time>
      </trkpt>
      <trkpt lat="47.49306" lon="6.74965">
        <ele>354</ele>
        <time>2015-11-29T08:40:39.000Z</time>
      </trkpt>
      <trkpt lat="47.49307" lon="6.74959">
        <ele>354</ele>
        <time>2015-11-29T08:40:41.000Z</time>
      </trkpt>
      <trkpt lat="47.49308" lon="6.74955">
        <ele>354</ele>
        <time>2015-11-29T08:40:42.000Z</time>
      </trkpt>
      <trkpt lat="47.49308" lon="6.74951">
        <ele>354</ele>
        <time>2015-11-29T08:40:43.000Z</time>
      </trkpt>
      <trkpt lat="47.49309" lon="6.74947">
        <ele>354</ele>
        <time>2015-11-29T08:40:44.000Z</time>
      </trkpt>
      <trkpt lat="47.4931" lon="6.74943">
        <ele>354</ele>
        <time>2015-11-29T08:40:45.000Z</time>
      </trkpt>
      <trkpt lat="47.49311" lon="6.74938">
        <ele>354</ele>
        <time>2015-11-29T08:40:46.000Z</time>
      </trkpt>
      <trkpt lat="47.49312" lon="6.74933">
        <ele>353</ele>
        <time>2015-11-29T08:40:47.000Z</time>
      </trkpt>
      <trkpt lat="47.49313" lon="6.74929">
        <ele>353</ele>
        <time>2015-11-29T08:40:48.000Z</time>
      </trkpt>
      <trkpt lat="47.49313" lon="6.74925">
        <ele>353</ele>
        <time>2015-11-29T08:40:49.000Z</time>
      </trkpt>
      <trkpt lat="47.49314" lon="6.74921">
        <ele>353</ele>
        <time>2015-11-29T08:40:50.000Z</time>
      </trkpt>
      <trkpt lat="47.49315" lon="6.74918">
        <ele>352</ele>
        <time>2015-11-29T08:40:51.000Z</time>
      </trkpt>
      <trkpt lat="47.49316" lon="6.74914">
        <ele>354</ele>
        <time>2015-11-29T08:40:52.000Z</time>
      </trkpt>
      <trkpt lat="47.49317" lon="6.7491">
        <ele>354</ele>
        <time>2015-11-29T08:40:53.000Z</time>
      </trkpt>
      <trkpt lat="47.49319" lon="6.74907">
        <ele>354</ele>
        <time>2015-11-29T08:40:54.000Z</time>
      </trkpt>
      <trkpt lat="47.4932" lon="6.74903">
        <ele>354</ele>
        <time>2015-11-29T08:40:55.000Z</time>
      </trkpt>
      <trkpt lat="47.49321" lon="6.74899">
        <ele>355</ele>
        <time>2015-11-29T08:40:56.000Z</time>
      </trkpt>
      <trkpt lat="47.49321" lon="6.74895">
        <ele>355</ele>
        <time>2015-11-29T08:40:57.000Z</time>
      </trkpt>
      <trkpt lat="47.49322" lon="6.7489">
        <ele>355</ele>
        <time>2015-11-29T08:40:58.000Z</time>
      </trkpt>
      <trkpt lat="47.49321" lon="6.74886">
        <ele>356</ele>
        <time>2015-11-29T08:40:59.000Z</time>
      </trkpt>
      <trkpt lat="47.49321" lon="6.74882">
        <ele>356</ele>
        <time>2015-11-29T08:41:00.000Z</time>
      </trkpt>
      <trkpt lat="47.4932" lon="6.74878">
        <ele>356</ele>
        <time>2015-11-29T08:41:01.000Z</time>
      </trkpt>
      <trkpt lat="47.49319" lon="6.74875">
        <ele>356</ele>
        <time>2015-11-29T08:41:02.000Z</time>
      </trkpt>
      <trkpt lat="47.49318" lon="6.74871">
        <ele>357</ele>
        <time>2015-11-29T08:41:03.000Z</time>
      </trkpt>
      <trkpt lat="47.49318" lon="6.74867">
        <ele>357</ele>
        <time>2015-11-29T08:41:04.000Z</time>
      </trkpt>
      <trkpt lat="47.49318" lon="6.74863">
        <ele>356</ele>
        <time>2015-11-29T08:41:05.000Z</time>
      </trkpt>
      <trkpt lat="47.49318" lon="6.74859">
        <ele>356</ele>
        <time>2015-11-29T08:41:06.000Z</time>
      </trkpt>
      <trkpt lat="47.49318" lon="6.74855">
        <ele>356</ele>
        <time>2015-11-29T08:41:07.000Z</time>
      </trkpt>
      <trkpt lat="47.49318" lon="6.7485">
        <ele>355</ele>
        <time>2015-11-29T08:41:08.000Z</time>
      </trkpt>
      <trkpt lat="47.49319" lon="6.74846">
        <ele>355</ele>
        <time>2015-11-29T08:41:09.000Z</time>
      </trkpt>
      <trkpt lat="47.4932" lon="6.74842">
        <ele>354</ele>
        <time>2015-11-29T08:41:10.000Z</time>
      </trkpt>
      <trkpt lat="47.49321" lon="6.74837">
        <ele>354</ele>
        <time>2015-11-29T08:41:11.000Z</time>
      </trkpt>
      <trkpt lat="47.49322" lon="6.74833">
        <ele>354</ele>
        <time>2015-11-29T08:41:12.000Z</time>
      </trkpt>
      <trkpt lat="47.49323" lon="6.74829">
        <ele>354</ele>
        <time>2015-11-29T08:41:13.000Z</time>
      </trkpt>
      <trkpt lat="47.49325" lon="6.74825">
        <ele>355</ele>
        <time>2015-11-29T08:41:14.000Z</time>
      </trkpt>
      <trkpt lat="47.49326" lon="6.74821">
        <ele>355</ele>
        <time>2015-11-29T08:41:15.000Z</time>
      </trkpt>
      <trkpt lat="47.49327" lon="6.74818">
        <ele>356</ele>
        <time>2015-11-29T08:41:16.000Z</time>
      </trkpt>
      <trkpt lat="47.49327" lon="6.74814">
        <ele>357</ele>
        <time>2015-11-29T08:41:17.000Z</time>
      </trkpt>
      <trkpt lat="47.49327" lon="6.7481">
        <ele>358</ele>
        <time>2015-11-29T08:41:18.000Z</time>
      </trkpt>
      <trkpt lat="47.49326" lon="6.74805">
        <ele>358</ele>
        <time>2015-11-29T08:41:19.000Z</time>
      </trkpt>
      <trkpt lat="47.49326" lon="6.74801">
        <ele>359</ele>
        <time>2015-11-29T08:41:20.000Z</time>
      </trkpt>
      <trkpt lat="47.49325" lon="6.74796">
        <ele>359</ele>
        <time>2015-11-29T08:41:21.000Z</time>
      </trkpt>
      <trkpt lat="47.49325" lon="6.74792">
        <ele>360</ele>
        <time>2015-11-29T08:41:22.000Z</time>
      </trkpt>
      <trkpt lat="47.49325" lon="6.74786">
        <ele>360</ele>
        <time>2015-11-29T08:41:24.000Z</time>
      </trkpt>
      <trkpt lat="47.49325" lon="6.74784">
        <ele>360</ele>
        <time>2015-11-29T08:41:25.000Z</time>
      </trkpt>
      <trkpt lat="47.49326" lon="6.74779">
        <ele>360</ele>
        <time>2015-11-29T08:41:27.000Z</time>
      </trkpt>
      <trkpt lat="47.49327" lon="6.74777">
        <ele>359</ele>
        <time>2015-11-29T08:41:28.000Z</time>
      </trkpt>
      <trkpt lat="47.49326" lon="6.74771">
        <ele>359</ele>
        <time>2015-11-29T08:41:31.000Z</time>
      </trkpt>
      <trkpt lat="47.49326" lon="6.74769">
        <ele>359</ele>
        <time>2015-11-29T08:41:32.000Z</time>
      </trkpt>
      <trkpt lat="47.49326" lon="6.74763">
        <ele>358</ele>
        <time>2015-11-29T08:41:34.000Z</time>
      </trkpt>
      <trkpt lat="47.49326" lon="6.74759">
        <ele>358</ele>
        <time>2015-11-29T08:41:35.000Z</time>
      </trkpt>
      <trkpt lat="47.49325" lon="6.74754">
        <ele>357</ele>
        <time>2015-11-29T08:41:36.000Z</time>
      </trkpt>
      <trkpt lat="47.49325" lon="6.74748">
        <ele>358</ele>
        <time>2015-11-29T08:41:37.000Z</time>
      </trkpt>
      <trkpt lat="47.49325" lon="6.74743">
        <ele>359</ele>
        <time>2015-11-29T08:41:38.000Z</time>
      </trkpt>
      <trkpt lat="47.49325" lon="6.74738">
        <ele>361</ele>
        <time>2015-11-29T08:41:39.000Z</time>
      </trkpt>
      <trkpt lat="47.49325" lon="6.74734">
        <ele>362</ele>
        <time>2015-11-29T08:41:40.000Z</time>
      </trkpt>
      <trkpt lat="47.49325" lon="6.7473">
        <ele>362</ele>
        <time>2015-11-29T08:41:41.000Z</time>
      </trkpt>
      <trkpt lat="47.49326" lon="6.74727">
        <ele>363</ele>
        <time>2015-11-29T08:41:42.000Z</time>
      </trkpt>
      <trkpt lat="47.49327" lon="6.74723">
        <ele>363</ele>
        <time>2015-11-29T08:41:43.000Z</time>
      </trkpt>
      <trkpt lat="47.49328" lon="6.74719">
        <ele>364</ele>
        <time>2015-11-29T08:41:44.000Z</time>
      </trkpt>
      <trkpt lat="47.49328" lon="6.74715">
        <ele>364</ele>
        <time>2015-11-29T08:41:45.000Z</time>
      </trkpt>
      <trkpt lat="47.49328" lon="6.74711">
        <ele>365</ele>
        <time>2015-11-29T08:41:46.000Z</time>
      </trkpt>
      <trkpt lat="47.49327" lon="6.74708">
        <ele>365</ele>
        <time>2015-11-29T08:41:47.000Z</time>
      </trkpt>
      <trkpt lat="47.49327" lon="6.74702">
        <ele>365</ele>
        <time>2015-11-29T08:41:49.000Z</time>
      </trkpt>
      <trkpt lat="47.49328" lon="6.74699">
        <ele>365</ele>
        <time>2015-11-29T08:41:50.000Z</time>
      </trkpt>
      <trkpt lat="47.49329" lon="6.74696">
        <ele>365</ele>
        <time>2015-11-29T08:41:51.000Z</time>
      </trkpt>
      <trkpt lat="47.4933" lon="6.74693">
        <ele>365</ele>
        <time>2015-11-29T08:41:52.000Z</time>
      </trkpt>
      <trkpt lat="47.49333" lon="6.74687">
        <ele>364</ele>
        <time>2015-11-29T08:41:54.000Z</time>
      </trkpt>
      <trkpt lat="47.49333" lon="6.74685">
        <ele>364</ele>
        <time>2015-11-29T08:41:55.000Z</time>
      </trkpt>
      <trkpt lat="47.49333" lon="6.74679">
        <ele>363</ele>
        <time>2015-11-29T08:41:57.000Z</time>
      </trkpt>
      <trkpt lat="47.49332" lon="6.74675">
        <ele>362</ele>
        <time>2015-11-29T08:41:58.000Z</time>
      </trkpt>
      <trkpt lat="47.49332" lon="6.74669">
        <ele>361</ele>
        <time>2015-11-29T08:42:00.000Z</time>
      </trkpt>
      <trkpt lat="47.49332" lon="6.74667">
        <ele>361</ele>
        <time>2015-11-29T08:42:01.000Z</time>
      </trkpt>
      <trkpt lat="47.49332" lon="6.7466">
        <ele>363</ele>
        <time>2015-11-29T08:42:03.000Z</time>
      </trkpt>
      <trkpt lat="47.49333" lon="6.74656">
        <ele>364</ele>
        <time>2015-11-29T08:42:04.000Z</time>
      </trkpt>
      <trkpt lat="47.49332" lon="6.74653">
        <ele>365</ele>
        <time>2015-11-29T08:42:05.000Z</time>
      </trkpt>
      <trkpt lat="47.49331" lon="6.74649">
        <ele>366</ele>
        <time>2015-11-29T08:42:06.000Z</time>
      </trkpt>
      <trkpt lat="47.4933" lon="6.74645">
        <ele>366</ele>
        <time>2015-11-29T08:42:07.000Z</time>
      </trkpt>
      <trkpt lat="47.4933" lon="6.74642">
        <ele>367</ele>
        <time>2015-11-29T08:42:08.000Z</time>
      </trkpt>
      <trkpt lat="47.4933" lon="6.74638">
        <ele>367</ele>
        <time>2015-11-29T08:42:09.000Z</time>
      </trkpt>
      <trkpt lat="47.49331" lon="6.74635">
        <ele>367</ele>
        <time>2015-11-29T08:42:10.000Z</time>
      </trkpt>
      <trkpt lat="47.49332" lon="6.74631">
        <ele>367</ele>
        <time>2015-11-29T08:42:11.000Z</time>
      </trkpt>
      <trkpt lat="47.49332" lon="6.74628">
        <ele>367</ele>
        <time>2015-11-29T08:42:12.000Z</time>
      </trkpt>
      <trkpt lat="47.49332" lon="6.74622">
        <ele>367</ele>
        <time>2015-11-29T08:42:14.000Z</time>
      </trkpt>
      <trkpt lat="47.49333" lon="6.74619">
        <ele>367</ele>
        <time>2015-11-29T08:42:15.000Z</time>
      </trkpt>
      <trkpt lat="47.49335" lon="6.74615">
        <ele>354</ele>
        <time>2015-11-29T08:42:17.000Z</time>
      </trkpt>
      <trkpt lat="47.49336" lon="6.74612">
        <ele>355</ele>
        <time>2015-11-29T08:42:18.000Z</time>
      </trkpt>
      <trkpt lat="47.49336" lon="6.74608">
        <ele>355</ele>
        <time>2015-11-29T08:42:19.000Z</time>
      </trkpt>
      <trkpt lat="47.49336" lon="6.74604">
        <ele>355</ele>
        <time>2015-11-29T08:42:20.000Z</time>
      </trkpt>
      <trkpt lat="47.49336" lon="6.74599">
        <ele>356</ele>
        <time>2015-11-29T08:42:21.000Z</time>
      </trkpt>
      <trkpt lat="47.49336" lon="6.74594">
        <ele>357</ele>
        <time>2015-11-29T08:42:22.000Z</time>
      </trkpt>
      <trkpt lat="47.49337" lon="6.74588">
        <ele>358</ele>
        <time>2015-11-29T08:42:23.000Z</time>
      </trkpt>
      <trkpt lat="47.49337" lon="6.74583">
        <ele>359</ele>
        <time>2015-11-29T08:42:24.000Z</time>
      </trkpt>
      <trkpt lat="47.49337" lon="6.74578">
        <ele>358</ele>
        <time>2015-11-29T08:42:26.000Z</time>
      </trkpt>
      <trkpt lat="47.49337" lon="6.74576">
        <ele>358</ele>
        <time>2015-11-29T08:42:27.000Z</time>
      </trkpt>
      <trkpt lat="47.49336" lon="6.74573">
        <ele>358</ele>
        <time>2015-11-29T08:42:29.000Z</time>
      </trkpt>
      <trkpt lat="47.49335" lon="6.7457">
        <ele>357</ele>
        <time>2015-11-29T08:42:30.000Z</time>
      </trkpt>
      <trkpt lat="47.49334" lon="6.74566">
        <ele>357</ele>
        <time>2015-11-29T08:42:31.000Z</time>
      </trkpt>
      <trkpt lat="47.49333" lon="6.74563">
        <ele>356</ele>
        <time>2015-11-29T08:42:32.000Z</time>
      </trkpt>
      <trkpt lat="47.49334" lon="6.74558">
        <ele>356</ele>
        <time>2015-11-29T08:42:34.000Z</time>
      </trkpt>
      <trkpt lat="47.49334" lon="6.74556">
        <ele>356</ele>
        <time>2015-11-29T08:42:35.000Z</time>
      </trkpt>
      <trkpt lat="47.49336" lon="6.74551">
        <ele>356</ele>
        <time>2015-11-29T08:42:37.000Z</time>
      </trkpt>
      <trkpt lat="47.49336" lon="6.74549">
        <ele>356</ele>
        <time>2015-11-29T08:42:38.000Z</time>
      </trkpt>
      <trkpt lat="47.49335" lon="6.74544">
        <ele>356</ele>
        <time>2015-11-29T08:42:40.000Z</time>
      </trkpt>
      <trkpt lat="47.49335" lon="6.74541">
        <ele>356</ele>
        <time>2015-11-29T08:42:41.000Z</time>
      </trkpt>
      <trkpt lat="47.49334" lon="6.74534">
        <ele>356</ele>
        <time>2015-11-29T08:42:43.000Z</time>
      </trkpt>
      <trkpt lat="47.49334" lon="6.74531">
        <ele>356</ele>
        <time>2015-11-29T08:42:44.000Z</time>
      </trkpt>
      <trkpt lat="47.49334" lon="6.74527">
        <ele>357</ele>
        <time>2015-11-29T08:42:45.000Z</time>
      </trkpt>
      <trkpt lat="47.49334" lon="6.74523">
        <ele>357</ele>
        <time>2015-11-29T08:42:46.000Z</time>
      </trkpt>
      <trkpt lat="47.49334" lon="6.74517">
        <ele>358</ele>
        <time>2015-11-29T08:42:47.000Z</time>
      </trkpt>
      <trkpt lat="47.49335" lon="6.74512">
        <ele>359</ele>
        <time>2015-11-29T08:42:48.000Z</time>
      </trkpt>
      <trkpt lat="47.49336" lon="6.74506">
        <ele>360</ele>
        <time>2015-11-29T08:42:49.000Z</time>
      </trkpt>
      <trkpt lat="47.49337" lon="6.745">
        <ele>361</ele>
        <time>2015-11-29T08:42:50.000Z</time>
      </trkpt>
      <trkpt lat="47.49339" lon="6.74493">
        <ele>360</ele>
        <time>2015-11-29T08:42:51.000Z</time>
      </trkpt>
      <trkpt lat="47.4934" lon="6.74487">
        <ele>359</ele>
        <time>2015-11-29T08:42:52.000Z</time>
      </trkpt>
      <trkpt lat="47.4934" lon="6.74481">
        <ele>358</ele>
        <time>2015-11-29T08:42:53.000Z</time>
      </trkpt>
      <trkpt lat="47.49341" lon="6.74475">
        <ele>358</ele>
        <time>2015-11-29T08:42:54.000Z</time>
      </trkpt>
      <trkpt lat="47.49342" lon="6.74469">
        <ele>358</ele>
        <time>2015-11-29T08:42:55.000Z</time>
      </trkpt>
      <trkpt lat="47.49343" lon="6.74463">
        <ele>357</ele>
        <time>2015-11-29T08:42:56.000Z</time>
      </trkpt>
      <trkpt lat="47.49344" lon="6.74458">
        <ele>357</ele>
        <time>2015-11-29T08:42:57.000Z</time>
      </trkpt>
      <trkpt lat="47.49344" lon="6.74453">
        <ele>358</ele>
        <time>2015-11-29T08:42:58.000Z</time>
      </trkpt>
      <trkpt lat="47.49344" lon="6.74448">
        <ele>358</ele>
        <time>2015-11-29T08:42:59.000Z</time>
      </trkpt>
      <trkpt lat="47.49344" lon="6.74444">
        <ele>358</ele>
        <time>2015-11-29T08:43:00.000Z</time>
      </trkpt>
      <trkpt lat="47.49344" lon="6.74439">
        <ele>358</ele>
        <time>2015-11-29T08:43:01.000Z</time>
      </trkpt>
      <trkpt lat="47.49345" lon="6.74435">
        <ele>359</ele>
        <time>2015-11-29T08:43:02.000Z</time>
      </trkpt>
      <trkpt lat="47.49346" lon="6.74432">
        <ele>359</ele>
        <time>2015-11-29T08:43:03.000Z</time>
      </trkpt>
      <trkpt lat="47.49346" lon="6.74428">
        <ele>359</ele>
        <time>2015-11-29T08:43:04.000Z</time>
      </trkpt>
      <trkpt lat="47.49347" lon="6.74424">
        <ele>360</ele>
        <time>2015-11-29T08:43:05.000Z</time>
      </trkpt>
      <trkpt lat="47.49347" lon="6.74419">
        <ele>360</ele>
        <time>2015-11-29T08:43:06.000Z</time>
      </trkpt>
      <trkpt lat="47.49349" lon="6.74414">
        <ele>360</ele>
        <time>2015-11-29T08:43:07.000Z</time>
      </trkpt>
      <trkpt lat="47.4935" lon="6.7441">
        <ele>360</ele>
        <time>2015-11-29T08:43:08.000Z</time>
      </trkpt>
      <trkpt lat="47.4935" lon="6.74405">
        <ele>359</ele>
        <time>2015-11-29T08:43:09.000Z</time>
      </trkpt>
      <trkpt lat="47.4935" lon="6.74401">
        <ele>359</ele>
        <time>2015-11-29T08:43:10.000Z</time>
      </trkpt>
      <trkpt lat="47.49349" lon="6.74395">
        <ele>359</ele>
        <time>2015-11-29T08:43:12.000Z</time>
      </trkpt>
      <trkpt lat="47.49349" lon="6.74393">
        <ele>359</ele>
        <time>2015-11-29T08:43:13.000Z</time>
      </trkpt>
      <trkpt lat="47.49349" lon="6.74389">
        <ele>358</ele>
        <time>2015-11-29T08:43:15.000Z</time>
      </trkpt>
      <trkpt lat="47.49349" lon="6.74386">
        <ele>358</ele>
        <time>2015-11-29T08:43:16.000Z</time>
      </trkpt>
      <trkpt lat="47.4935" lon="6.7438">
        <ele>358</ele>
        <time>2015-11-29T08:43:18.000Z</time>
      </trkpt>
      <trkpt lat="47.4935" lon="6.74377">
        <ele>358</ele>
        <time>2015-11-29T08:43:19.000Z</time>
      </trkpt>
      <trkpt lat="47.49351" lon="6.74373">
        <ele>358</ele>
        <time>2015-11-29T08:43:20.000Z</time>
      </trkpt>
      <trkpt lat="47.49352" lon="6.74369">
        <ele>358</ele>
        <time>2015-11-29T08:43:21.000Z</time>
      </trkpt>
      <trkpt lat="47.49353" lon="6.74366">
        <ele>358</ele>
        <time>2015-11-29T08:43:22.000Z</time>
      </trkpt>
      <trkpt lat="47.49354" lon="6.74362">
        <ele>358</ele>
        <time>2015-11-29T08:43:23.000Z</time>
      </trkpt>
      <trkpt lat="47.49354" lon="6.74358">
        <ele>359</ele>
        <time>2015-11-29T08:43:24.000Z</time>
      </trkpt>
      <trkpt lat="47.49355" lon="6.74354">
        <ele>359</ele>
        <time>2015-11-29T08:43:25.000Z</time>
      </trkpt>
      <trkpt lat="47.49356" lon="6.74349">
        <ele>359</ele>
        <time>2015-11-29T08:43:26.000Z</time>
      </trkpt>
      <trkpt lat="47.49356" lon="6.74345">
        <ele>359</ele>
        <time>2015-11-29T08:43:27.000Z</time>
      </trkpt>
      <trkpt lat="47.49356" lon="6.74341">
        <ele>359</ele>
        <time>2015-11-29T08:43:28.000Z</time>
      </trkpt>
      <trkpt lat="47.49356" lon="6.74337">
        <ele>360</ele>
        <time>2015-11-29T08:43:29.000Z</time>
      </trkpt>
      <trkpt lat="47.49355" lon="6.74333">
        <ele>360</ele>
        <time>2015-11-29T08:43:30.000Z</time>
      </trkpt>
      <trkpt lat="47.49355" lon="6.74328">
        <ele>361</ele>
        <time>2015-11-29T08:43:31.000Z</time>
      </trkpt>
      <trkpt lat="47.49354" lon="6.74324">
        <ele>360</ele>
        <time>2015-11-29T08:43:32.000Z</time>
      </trkpt>
      <trkpt lat="47.49354" lon="6.7432">
        <ele>360</ele>
        <time>2015-11-29T08:43:33.000Z</time>
      </trkpt>
      <trkpt lat="47.49354" lon="6.74316">
        <ele>360</ele>
        <time>2015-11-29T08:43:34.000Z</time>
      </trkpt>
      <trkpt lat="47.49354" lon="6.74312">
        <ele>360</ele>
        <time>2015-11-29T08:43:35.000Z</time>
      </trkpt>
      <trkpt lat="47.49353" lon="6.74308">
        <ele>360</ele>
        <time>2015-11-29T08:43:36.000Z</time>
      </trkpt>
      <trkpt lat="47.49353" lon="6.74305">
        <ele>360</ele>
        <time>2015-11-29T08:43:37.000Z</time>
      </trkpt>
      <trkpt lat="47.49353" lon="6.74301">
        <ele>360</ele>
        <time>2015-11-29T08:43:38.000Z</time>
      </trkpt>
      <trkpt lat="47.49352" lon="6.74297">
        <ele>360</ele>
        <time>2015-11-29T08:43:39.000Z</time>
      </trkpt>
      <trkpt lat="47.49351" lon="6.74293">
        <ele>360</ele>
        <time>2015-11-29T08:43:40.000Z</time>
      </trkpt>
      <trkpt lat="47.4935" lon="6.74288">
        <ele>360</ele>
        <time>2015-11-29T08:43:41.000Z</time>
      </trkpt>
      <trkpt lat="47.4935" lon="6.74284">
        <ele>360</ele>
        <time>2015-11-29T08:43:42.000Z</time>
      </trkpt>
      <trkpt lat="47.4935" lon="6.74279">
        <ele>360</ele>
        <time>2015-11-29T08:43:43.000Z</time>
      </trkpt>
      <trkpt lat="47.49351" lon="6.74273">
        <ele>361</ele>
        <time>2015-11-29T08:43:44.000Z</time>
      </trkpt>
      <trkpt lat="47.49352" lon="6.74266">
        <ele>361</ele>
        <time>2015-11-29T08:43:45.000Z</time>
      </trkpt>
      <trkpt lat="47.49354" lon="6.74258">
        <ele>362</ele>
        <time>2015-11-29T08:43:46.000Z</time>
      </trkpt>
      <trkpt lat="47.49356" lon="6.7425">
        <ele>361</ele>
        <time>2015-11-29T08:43:47.000Z</time>
      </trkpt>
      <trkpt lat="47.49357" lon="6.74244">
        <ele>362</ele>
        <time>2015-11-29T08:43:48.000Z</time>
      </trkpt>
      <trkpt lat="47.49358" lon="6.74238">
        <ele>361</ele>
        <time>2015-11-29T08:43:49.000Z</time>
      </trkpt>
      <trkpt lat="47.49359" lon="6.74232">
        <ele>361</ele>
        <time>2015-11-29T08:43:50.000Z</time>
      </trkpt>
      <trkpt lat="47.4936" lon="6.74226">
        <ele>360</ele>
        <time>2015-11-29T08:43:51.000Z</time>
      </trkpt>
      <trkpt lat="47.4936" lon="6.74219">
        <ele>360</ele>
        <time>2015-11-29T08:43:52.000Z</time>
      </trkpt>
      <trkpt lat="47.49361" lon="6.74213">
        <ele>360</ele>
        <time>2015-11-29T08:43:53.000Z</time>
      </trkpt>
      <trkpt lat="47.49362" lon="6.74206">
        <ele>360</ele>
        <time>2015-11-29T08:43:54.000Z</time>
      </trkpt>
      <trkpt lat="47.49363" lon="6.74198">
        <ele>360</ele>
        <time>2015-11-29T08:43:55.000Z</time>
      </trkpt>
      <trkpt lat="47.49364" lon="6.7419">
        <ele>360</ele>
        <time>2015-11-29T08:43:56.000Z</time>
      </trkpt>
      <trkpt lat="47.49365" lon="6.74182">
        <ele>360</ele>
        <time>2015-11-29T08:43:57.000Z</time>
      </trkpt>
      <trkpt lat="47.49366" lon="6.74173">
        <ele>360</ele>
        <time>2015-11-29T08:43:58.000Z</time>
      </trkpt>
      <trkpt lat="47.49367" lon="6.74165">
        <ele>360</ele>
        <time>2015-11-29T08:43:59.000Z</time>
      </trkpt>
      <trkpt lat="47.49368" lon="6.74157">
        <ele>359</ele>
        <time>2015-11-29T08:44:00.000Z</time>
      </trkpt>
      <trkpt lat="47.49369" lon="6.74149">
        <ele>359</ele>
        <time>2015-11-29T08:44:01.000Z</time>
      </trkpt>
      <trkpt lat="47.4937" lon="6.74141">
        <ele>359</ele>
        <time>2015-11-29T08:44:02.000Z</time>
      </trkpt>
      <trkpt lat="47.49371" lon="6.74133">
        <ele>358</ele>
        <time>2015-11-29T08:44:03.000Z</time>
      </trkpt>
      <trkpt lat="47.49372" lon="6.74125">
        <ele>358</ele>
        <time>2015-11-29T08:44:04.000Z</time>
      </trkpt>
      <trkpt lat="47.49374" lon="6.74117">
        <ele>358</ele>
        <time>2015-11-29T08:44:05.000Z</time>
      </trkpt>
      <trkpt lat="47.49376" lon="6.7411">
        <ele>358</ele>
        <time>2015-11-29T08:44:06.000Z</time>
      </trkpt>
      <trkpt lat="47.49378" lon="6.74103">
        <ele>357</ele>
        <time>2015-11-29T08:44:07.000Z</time>
      </trkpt>
      <trkpt lat="47.4938" lon="6.74096">
        <ele>357</ele>
        <time>2015-11-29T08:44:08.000Z</time>
      </trkpt>
      <trkpt lat="47.49382" lon="6.74089">
        <ele>356</ele>
        <time>2015-11-29T08:44:09.000Z</time>
      </trkpt>
      <trkpt lat="47.49383" lon="6.74082">
        <ele>355</ele>
        <time>2015-11-29T08:44:10.000Z</time>
      </trkpt>
      <trkpt lat="47.49384" lon="6.74074">
        <ele>355</ele>
        <time>2015-11-29T08:44:11.000Z</time>
      </trkpt>
      <trkpt lat="47.49384" lon="6.74067">
        <ele>355</ele>
        <time>2015-11-29T08:44:12.000Z</time>
      </trkpt>
      <trkpt lat="47.49383" lon="6.74059">
        <ele>355</ele>
        <time>2015-11-29T08:44:13.000Z</time>
      </trkpt>
      <trkpt lat="47.49383" lon="6.74051">
        <ele>355</ele>
        <time>2015-11-29T08:44:14.000Z</time>
      </trkpt>
      <trkpt lat="47.49383" lon="6.74045">
        <ele>355</ele>
        <time>2015-11-29T08:44:15.000Z</time>
      </trkpt>
      <trkpt lat="47.49383" lon="6.74039">
        <ele>355</ele>
        <time>2015-11-29T08:44:16.000Z</time>
      </trkpt>
      <trkpt lat="47.49383" lon="6.74033">
        <ele>355</ele>
        <time>2015-11-29T08:44:17.000Z</time>
      </trkpt>
      <trkpt lat="47.49383" lon="6.74027">
        <ele>355</ele>
        <time>2015-11-29T08:44:18.000Z</time>
      </trkpt>
      <trkpt lat="47.49384" lon="6.7402">
        <ele>355</ele>
        <time>2015-11-29T08:44:19.000Z</time>
      </trkpt>
      <trkpt lat="47.49385" lon="6.74014">
        <ele>355</ele>
        <time>2015-11-29T08:44:20.000Z</time>
      </trkpt>
      <trkpt lat="47.49385" lon="6.74007">
        <ele>355</ele>
        <time>2015-11-29T08:44:21.000Z</time>
      </trkpt>
      <trkpt lat="47.49385" lon="6.74">
        <ele>353</ele>
        <time>2015-11-29T08:44:22.000Z</time>
      </trkpt>
      <trkpt lat="47.49385" lon="6.73991">
        <ele>353</ele>
        <time>2015-11-29T08:44:23.000Z</time>
      </trkpt>
      <trkpt lat="47.49386" lon="6.73983">
        <ele>353</ele>
        <time>2015-11-29T08:44:24.000Z</time>
      </trkpt>
      <trkpt lat="47.49386" lon="6.73976">
        <ele>353</ele>
        <time>2015-11-29T08:44:25.000Z</time>
      </trkpt>
      <trkpt lat="47.49385" lon="6.7397">
        <ele>353</ele>
        <time>2015-11-29T08:44:26.000Z</time>
      </trkpt>
      <trkpt lat="47.49385" lon="6.73964">
        <ele>353</ele>
        <time>2015-11-29T08:44:27.000Z</time>
      </trkpt>
      <trkpt lat="47.49384" lon="6.73957">
        <ele>353</ele>
        <time>2015-11-29T08:44:28.000Z</time>
      </trkpt>
      <trkpt lat="47.49383" lon="6.7395">
        <ele>353</ele>
        <time>2015-11-29T08:44:29.000Z</time>
      </trkpt>
      <trkpt lat="47.49387" lon="6.73927">
        <ele>352</ele>
        <time>2015-11-29T08:44:30.000Z</time>
      </trkpt>
      <trkpt lat="47.49387" lon="6.7392">
        <ele>352</ele>
        <time>2015-11-29T08:44:31.000Z</time>
      </trkpt>
      <trkpt lat="47.49387" lon="6.73912">
        <ele>350</ele>
        <time>2015-11-29T08:44:32.000Z</time>
      </trkpt>
      <trkpt lat="47.49387" lon="6.73906">
        <ele>350</ele>
        <time>2015-11-29T08:44:33.000Z</time>
      </trkpt>
      <trkpt lat="47.49387" lon="6.73899">
        <ele>350</ele>
        <time>2015-11-29T08:44:34.000Z</time>
      </trkpt>
      <trkpt lat="47.49389" lon="6.73892">
        <ele>350</ele>
        <time>2015-11-29T08:44:35.000Z</time>
      </trkpt>
      <trkpt lat="47.4939" lon="6.73883">
        <ele>350</ele>
        <time>2015-11-29T08:44:36.000Z</time>
      </trkpt>
      <trkpt lat="47.49391" lon="6.73875">
        <ele>350</ele>
        <time>2015-11-29T08:44:37.000Z</time>
      </trkpt>
      <trkpt lat="47.49393" lon="6.73867">
        <ele>349</ele>
        <time>2015-11-29T08:44:38.000Z</time>
      </trkpt>
      <trkpt lat="47.49394" lon="6.7386">
        <ele>349</ele>
        <time>2015-11-29T08:44:39.000Z</time>
      </trkpt>
      <trkpt lat="47.49394" lon="6.73853">
        <ele>349</ele>
        <time>2015-11-29T08:44:40.000Z</time>
      </trkpt>
      <trkpt lat="47.49397" lon="6.73847">
        <ele>348</ele>
        <time>2015-11-29T08:44:41.000Z</time>
      </trkpt>
      <trkpt lat="47.49401" lon="6.73842">
        <ele>347</ele>
        <time>2015-11-29T08:44:42.000Z</time>
      </trkpt>
      <trkpt lat="47.49403" lon="6.73835">
        <ele>347</ele>
        <time>2015-11-29T08:44:43.000Z</time>
      </trkpt>
      <trkpt lat="47.49407" lon="6.7383">
        <ele>346</ele>
        <time>2015-11-29T08:44:44.000Z</time>
      </trkpt>
      <trkpt lat="47.4941" lon="6.73822">
        <ele>346</ele>
        <time>2015-11-29T08:44:45.000Z</time>
      </trkpt>
      <trkpt lat="47.49413" lon="6.73816">
        <ele>347</ele>
        <time>2015-11-29T08:44:46.000Z</time>
      </trkpt>
      <trkpt lat="47.49416" lon="6.7381">
        <ele>347</ele>
        <time>2015-11-29T08:44:47.000Z</time>
      </trkpt>
      <trkpt lat="47.49421" lon="6.73802">
        <ele>341</ele>
        <time>2015-11-29T08:44:48.000Z</time>
      </trkpt>
      <trkpt lat="47.49426" lon="6.73795">
        <ele>340</ele>
        <time>2015-11-29T08:44:49.000Z</time>
      </trkpt>
      <trkpt lat="47.4943" lon="6.73787">
        <ele>340</ele>
        <time>2015-11-29T08:44:50.000Z</time>
      </trkpt>
      <trkpt lat="47.49434" lon="6.73779">
        <ele>340</ele>
        <time>2015-11-29T08:44:51.000Z</time>
      </trkpt>
      <trkpt lat="47.49437" lon="6.73771">
        <ele>340</ele>
        <time>2015-11-29T08:44:52.000Z</time>
      </trkpt>
      <trkpt lat="47.49441" lon="6.73762">
        <ele>340</ele>
        <time>2015-11-29T08:44:53.000Z</time>
      </trkpt>
      <trkpt lat="47.49445" lon="6.73754">
        <ele>340</ele>
        <time>2015-11-29T08:44:54.000Z</time>
      </trkpt>
      <trkpt lat="47.49448" lon="6.73747">
        <ele>340</ele>
        <time>2015-11-29T08:44:55.000Z</time>
      </trkpt>
      <trkpt lat="47.49451" lon="6.73738">
        <ele>339</ele>
        <time>2015-11-29T08:44:56.000Z</time>
      </trkpt>
      <trkpt lat="47.49454" lon="6.7373">
        <ele>339</ele>
        <time>2015-11-29T08:44:57.000Z</time>
      </trkpt>
      <trkpt lat="47.49458" lon="6.73721">
        <ele>338</ele>
        <time>2015-11-29T08:44:58.000Z</time>
      </trkpt>
      <trkpt lat="47.49462" lon="6.73712">
        <ele>338</ele>
        <time>2015-11-29T08:44:59.000Z</time>
      </trkpt>
      <trkpt lat="47.49466" lon="6.73703">
        <ele>338</ele>
        <time>2015-11-29T08:45:00.000Z</time>
      </trkpt>
      <trkpt lat="47.4947" lon="6.73694">
        <ele>337</ele>
        <time>2015-11-29T08:45:01.000Z</time>
      </trkpt>
      <trkpt lat="47.49474" lon="6.73685">
        <ele>337</ele>
        <time>2015-11-29T08:45:02.000Z</time>
      </trkpt>
      <trkpt lat="47.49477" lon="6.73678">
        <ele>336</ele>
        <time>2015-11-29T08:45:03.000Z</time>
      </trkpt>
      <trkpt lat="47.49481" lon="6.7367">
        <ele>335</ele>
        <time>2015-11-29T08:45:04.000Z</time>
      </trkpt>
      <trkpt lat="47.49485" lon="6.73664">
        <ele>335</ele>
        <time>2015-11-29T08:45:05.000Z</time>
      </trkpt>
      <trkpt lat="47.49489" lon="6.73657">
        <ele>335</ele>
        <time>2015-11-29T08:45:06.000Z</time>
      </trkpt>
      <trkpt lat="47.49493" lon="6.73651">
        <ele>335</ele>
        <time>2015-11-29T08:45:07.000Z</time>
      </trkpt>
      <trkpt lat="47.49498" lon="6.73644">
        <ele>336</ele>
        <time>2015-11-29T08:45:08.000Z</time>
      </trkpt>
      <trkpt lat="47.49502" lon="6.73638">
        <ele>332</ele>
        <time>2015-11-29T08:45:09.000Z</time>
      </trkpt>
      <trkpt lat="47.49508" lon="6.73631">
        <ele>332</ele>
        <time>2015-11-29T08:45:10.000Z</time>
      </trkpt>
      <trkpt lat="47.49512" lon="6.73625">
        <ele>332</ele>
        <time>2015-11-29T08:45:11.000Z</time>
      </trkpt>
      <trkpt lat="47.49517" lon="6.73619">
        <ele>332</ele>
        <time>2015-11-29T08:45:12.000Z</time>
      </trkpt>
      <trkpt lat="47.49522" lon="6.73613">
        <ele>332</ele>
        <time>2015-11-29T08:45:13.000Z</time>
      </trkpt>
      <trkpt lat="47.49527" lon="6.73607">
        <ele>332</ele>
        <time>2015-11-29T08:45:14.000Z</time>
      </trkpt>
      <trkpt lat="47.49532" lon="6.73602">
        <ele>332</ele>
        <time>2015-11-29T08:45:15.000Z</time>
      </trkpt>
      <trkpt lat="47.49537" lon="6.73596">
        <ele>332</ele>
        <time>2015-11-29T08:45:16.000Z</time>
      </trkpt>
      <trkpt lat="47.49541" lon="6.73591">
        <ele>332</ele>
        <time>2015-11-29T08:45:17.000Z</time>
      </trkpt>
      <trkpt lat="47.49546" lon="6.73586">
        <ele>332</ele>
        <time>2015-11-29T08:45:18.000Z</time>
      </trkpt>
      <trkpt lat="47.49551" lon="6.73581">
        <ele>333</ele>
        <time>2015-11-29T08:45:19.000Z</time>
      </trkpt>
      <trkpt lat="47.49556" lon="6.73575">
        <ele>333</ele>
        <time>2015-11-29T08:45:20.000Z</time>
      </trkpt>
      <trkpt lat="47.49561" lon="6.7357">
        <ele>333</ele>
        <time>2015-11-29T08:45:21.000Z</time>
      </trkpt>
      <trkpt lat="47.49566" lon="6.73564">
        <ele>333</ele>
        <time>2015-11-29T08:45:22.000Z</time>
      </trkpt>
      <trkpt lat="47.49571" lon="6.73559">
        <ele>333</ele>
        <time>2015-11-29T08:45:23.000Z</time>
      </trkpt>
      <trkpt lat="47.49576" lon="6.73553">
        <ele>333</ele>
        <time>2015-11-29T08:45:24.000Z</time>
      </trkpt>
      <trkpt lat="47.49581" lon="6.73549">
        <ele>333</ele>
        <time>2015-11-29T08:45:25.000Z</time>
      </trkpt>
      <trkpt lat="47.49585" lon="6.73545">
        <ele>331</ele>
        <time>2015-11-29T08:45:26.000Z</time>
      </trkpt>
      <trkpt lat="47.4959" lon="6.73541">
        <ele>332</ele>
        <time>2015-11-29T08:45:27.000Z</time>
      </trkpt>
      <trkpt lat="47.49594" lon="6.73536">
        <ele>332</ele>
        <time>2015-11-29T08:45:28.000Z</time>
      </trkpt>
      <trkpt lat="47.49598" lon="6.73531">
        <ele>332</ele>
        <time>2015-11-29T08:45:29.000Z</time>
      </trkpt>
      <trkpt lat="47.49602" lon="6.73527">
        <ele>332</ele>
        <time>2015-11-29T08:45:30.000Z</time>
      </trkpt>
      <trkpt lat="47.49605" lon="6.73522">
        <ele>332</ele>
        <time>2015-11-29T08:45:31.000Z</time>
      </trkpt>
      <trkpt lat="47.49609" lon="6.73518">
        <ele>332</ele>
        <time>2015-11-29T08:45:32.000Z</time>
      </trkpt>
      <trkpt lat="47.49613" lon="6.73513">
        <ele>332</ele>
        <time>2015-11-29T08:45:33.000Z</time>
      </trkpt>
      <trkpt lat="47.49616" lon="6.73509">
        <ele>332</ele>
        <time>2015-11-29T08:45:34.000Z</time>
      </trkpt>
      <trkpt lat="47.4962" lon="6.73504">
        <ele>332</ele>
        <time>2015-11-29T08:45:35.000Z</time>
      </trkpt>
      <trkpt lat="47.49624" lon="6.73498">
        <ele>333</ele>
        <time>2015-11-29T08:45:36.000Z</time>
      </trkpt>
      <trkpt lat="47.49627" lon="6.73494">
        <ele>333</ele>
        <time>2015-11-29T08:45:37.000Z</time>
      </trkpt>
      <trkpt lat="47.49631" lon="6.73489">
        <ele>333</ele>
        <time>2015-11-29T08:45:38.000Z</time>
      </trkpt>
      <trkpt lat="47.49634" lon="6.73483">
        <ele>333</ele>
        <time>2015-11-29T08:45:39.000Z</time>
      </trkpt>
      <trkpt lat="47.49638" lon="6.73477">
        <ele>334</ele>
        <time>2015-11-29T08:45:40.000Z</time>
      </trkpt>
      <trkpt lat="47.49642" lon="6.73472">
        <ele>334</ele>
        <time>2015-11-29T08:45:41.000Z</time>
      </trkpt>
      <trkpt lat="47.49646" lon="6.73467">
        <ele>334</ele>
        <time>2015-11-29T08:45:42.000Z</time>
      </trkpt>
      <trkpt lat="47.4965" lon="6.73462">
        <ele>334</ele>
        <time>2015-11-29T08:45:43.000Z</time>
      </trkpt>
      <trkpt lat="47.49654" lon="6.73457">
        <ele>334</ele>
        <time>2015-11-29T08:45:44.000Z</time>
      </trkpt>
      <trkpt lat="47.49657" lon="6.73452">
        <ele>334</ele>
        <time>2015-11-29T08:45:45.000Z</time>
      </trkpt>
      <trkpt lat="47.4966" lon="6.73448">
        <ele>334</ele>
        <time>2015-11-29T08:45:46.000Z</time>
      </trkpt>
      <trkpt lat="47.49663" lon="6.73443">
        <ele>334</ele>
        <time>2015-11-29T08:45:47.000Z</time>
      </trkpt>
      <trkpt lat="47.49666" lon="6.73438">
        <ele>334</ele>
        <time>2015-11-29T08:45:48.000Z</time>
      </trkpt>
      <trkpt lat="47.4967" lon="6.73434">
        <ele>333</ele>
        <time>2015-11-29T08:45:49.000Z</time>
      </trkpt>
      <trkpt lat="47.49672" lon="6.73429">
        <ele>334</ele>
        <time>2015-11-29T08:45:50.000Z</time>
      </trkpt>
      <trkpt lat="47.49675" lon="6.73425">
        <ele>334</ele>
        <time>2015-11-29T08:45:51.000Z</time>
      </trkpt>
      <trkpt lat="47.49679" lon="6.73421">
        <ele>334</ele>
        <time>2015-11-29T08:45:52.000Z</time>
      </trkpt>
      <trkpt lat="47.49682" lon="6.73416">
        <ele>334</ele>
        <time>2015-11-29T08:45:53.000Z</time>
      </trkpt>
      <trkpt lat="47.49684" lon="6.73412">
        <ele>334</ele>
        <time>2015-11-29T08:45:54.000Z</time>
      </trkpt>
      <trkpt lat="47.49687" lon="6.73408">
        <ele>334</ele>
        <time>2015-11-29T08:45:55.000Z</time>
      </trkpt>
      <trkpt lat="47.4969" lon="6.73404">
        <ele>334</ele>
        <time>2015-11-29T08:45:56.000Z</time>
      </trkpt>
      <trkpt lat="47.49692" lon="6.734">
        <ele>334</ele>
        <time>2015-11-29T08:45:57.000Z</time>
      </trkpt>
      <trkpt lat="47.49695" lon="6.73396">
        <ele>334</ele>
        <time>2015-11-29T08:45:58.000Z</time>
      </trkpt>
      <trkpt lat="47.49698" lon="6.73393">
        <ele>334</ele>
        <time>2015-11-29T08:45:59.000Z</time>
      </trkpt>
      <trkpt lat="47.49701" lon="6.73389">
        <ele>334</ele>
        <time>2015-11-29T08:46:00.000Z</time>
      </trkpt>
      <trkpt lat="47.49704" lon="6.73385">
        <ele>334</ele>
        <time>2015-11-29T08:46:01.000Z</time>
      </trkpt>
      <trkpt lat="47.49707" lon="6.73381">
        <ele>334</ele>
        <time>2015-11-29T08:46:02.000Z</time>
      </trkpt>
      <trkpt lat="47.49709" lon="6.73377">
        <ele>334</ele>
        <time>2015-11-29T08:46:03.000Z</time>
      </trkpt>
      <trkpt lat="47.49712" lon="6.73373">
        <ele>334</ele>
        <time>2015-11-29T08:46:04.000Z</time>
      </trkpt>
      <trkpt lat="47.49715" lon="6.73368">
        <ele>334</ele>
        <time>2015-11-29T08:46:05.000Z</time>
      </trkpt>
      <trkpt lat="47.49718" lon="6.73364">
        <ele>334</ele>
        <time>2015-11-29T08:46:06.000Z</time>
      </trkpt>
      <trkpt lat="47.49721" lon="6.73359">
        <ele>334</ele>
        <time>2015-11-29T08:46:07.000Z</time>
      </trkpt>
      <trkpt lat="47.49724" lon="6.73355">
        <ele>334</ele>
        <time>2015-11-29T08:46:08.000Z</time>
      </trkpt>
      <trkpt lat="47.49727" lon="6.7335">
        <ele>334</ele>
        <time>2015-11-29T08:46:09.000Z</time>
      </trkpt>
      <trkpt lat="47.4973" lon="6.73345">
        <ele>333</ele>
        <time>2015-11-29T08:46:10.000Z</time>
      </trkpt>
      <trkpt lat="47.49733" lon="6.73341">
        <ele>333</ele>
        <time>2015-11-29T08:46:11.000Z</time>
      </trkpt>
      <trkpt lat="47.49735" lon="6.73336">
        <ele>333</ele>
        <time>2015-11-29T08:46:12.000Z</time>
      </trkpt>
      <trkpt lat="47.49738" lon="6.73332">
        <ele>334</ele>
        <time>2015-11-29T08:46:13.000Z</time>
      </trkpt>
      <trkpt lat="47.49741" lon="6.73328">
        <ele>334</ele>
        <time>2015-11-29T08:46:14.000Z</time>
      </trkpt>
      <trkpt lat="47.49745" lon="6.73324">
        <ele>334</ele>
        <time>2015-11-29T08:46:15.000Z</time>
      </trkpt>
      <trkpt lat="47.49748" lon="6.7332">
        <ele>334</ele>
        <time>2015-11-29T08:46:16.000Z</time>
      </trkpt>
      <trkpt lat="47.49751" lon="6.73316">
        <ele>333</ele>
        <time>2015-11-29T08:46:17.000Z</time>
      </trkpt>
      <trkpt lat="47.49754" lon="6.73312">
        <ele>333</ele>
        <time>2015-11-29T08:46:18.000Z</time>
      </trkpt>
      <trkpt lat="47.49757" lon="6.73308">
        <ele>334</ele>
        <time>2015-11-29T08:46:19.000Z</time>
      </trkpt>
      <trkpt lat="47.4976" lon="6.73303">
        <ele>334</ele>
        <time>2015-11-29T08:46:20.000Z</time>
      </trkpt>
      <trkpt lat="47.49762" lon="6.73298">
        <ele>334</ele>
        <time>2015-11-29T08:46:21.000Z</time>
      </trkpt>
      <trkpt lat="47.49765" lon="6.73294">
        <ele>334</ele>
        <time>2015-11-29T08:46:22.000Z</time>
      </trkpt>
      <trkpt lat="47.49768" lon="6.73289">
        <ele>334</ele>
        <time>2015-11-29T08:46:23.000Z</time>
      </trkpt>
      <trkpt lat="47.4977" lon="6.73284">
        <ele>334</ele>
        <time>2015-11-29T08:46:24.000Z</time>
      </trkpt>
      <trkpt lat="47.49773" lon="6.73279">
        <ele>335</ele>
        <time>2015-11-29T08:46:25.001Z</time>
      </trkpt>
      <trkpt lat="47.49775" lon="6.73274">
        <ele>335</ele>
        <time>2015-11-29T08:46:26.000Z</time>
      </trkpt>
      <trkpt lat="47.49777" lon="6.7327">
        <ele>335</ele>
        <time>2015-11-29T08:46:27.000Z</time>
      </trkpt>
      <trkpt lat="47.4978" lon="6.73265">
        <ele>335</ele>
        <time>2015-11-29T08:46:28.000Z</time>
      </trkpt>
      <trkpt lat="47.49782" lon="6.73261">
        <ele>335</ele>
        <time>2015-11-29T08:46:29.000Z</time>
      </trkpt>
      <trkpt lat="47.49784" lon="6.73256">
        <ele>335</ele>
        <time>2015-11-29T08:46:30.000Z</time>
      </trkpt>
      <trkpt lat="47.49787" lon="6.73251">
        <ele>335</ele>
        <time>2015-11-29T08:46:31.000Z</time>
      </trkpt>
      <trkpt lat="47.49789" lon="6.73246">
        <ele>337</ele>
        <time>2015-11-29T08:46:32.000Z</time>
      </trkpt>
      <trkpt lat="47.49792" lon="6.73241">
        <ele>337</ele>
        <time>2015-11-29T08:46:33.000Z</time>
      </trkpt>
      <trkpt lat="47.49794" lon="6.73236">
        <ele>337</ele>
        <time>2015-11-29T08:46:34.000Z</time>
      </trkpt>
      <trkpt lat="47.49796" lon="6.73231">
        <ele>337</ele>
        <time>2015-11-29T08:46:35.000Z</time>
      </trkpt>
      <trkpt lat="47.49798" lon="6.73225">
        <ele>337</ele>
        <time>2015-11-29T08:46:36.000Z</time>
      </trkpt>
      <trkpt lat="47.498" lon="6.7322">
        <ele>337</ele>
        <time>2015-11-29T08:46:37.000Z</time>
      </trkpt>
      <trkpt lat="47.49802" lon="6.73215">
        <ele>337</ele>
        <time>2015-11-29T08:46:37.999Z</time>
      </trkpt>
      <trkpt lat="47.49803" lon="6.73209">
        <ele>337</ele>
        <time>2015-11-29T08:46:39.000Z</time>
      </trkpt>
      <trkpt lat="47.49805" lon="6.73204">
        <ele>337</ele>
        <time>2015-11-29T08:46:40.000Z</time>
      </trkpt>
      <trkpt lat="47.49806" lon="6.73199">
        <ele>337</ele>
        <time>2015-11-29T08:46:41.000Z</time>
      </trkpt>
      <trkpt lat="47.49808" lon="6.73193">
        <ele>337</ele>
        <time>2015-11-29T08:46:42.000Z</time>
      </trkpt>
      <trkpt lat="47.4981" lon="6.73188">
        <ele>337</ele>
        <time>2015-11-29T08:46:43.000Z</time>
      </trkpt>
      <trkpt lat="47.49811" lon="6.73183">
        <ele>337</ele>
        <time>2015-11-29T08:46:44.000Z</time>
      </trkpt>
      <trkpt lat="47.49813" lon="6.73177">
        <ele>337</ele>
        <time>2015-11-29T08:46:45.000Z</time>
      </trkpt>
      <trkpt lat="47.49815" lon="6.73172">
        <ele>337</ele>
        <time>2015-11-29T08:46:46.000Z</time>
      </trkpt>
      <trkpt lat="47.49816" lon="6.73167">
        <ele>337</ele>
        <time>2015-11-29T08:46:47.000Z</time>
      </trkpt>
      <trkpt lat="47.49817" lon="6.73163">
        <ele>338</ele>
        <time>2015-11-29T08:46:48.000Z</time>
      </trkpt>
      <trkpt lat="47.49819" lon="6.73158">
        <ele>338</ele>
        <time>2015-11-29T08:46:49.000Z</time>
      </trkpt>
      <trkpt lat="47.49819" lon="6.73153">
        <ele>338</ele>
        <time>2015-11-29T08:46:50.000Z</time>
      </trkpt>
      <trkpt lat="47.49821" lon="6.73149">
        <ele>338</ele>
        <time>2015-11-29T08:46:51.000Z</time>
      </trkpt>
      <trkpt lat="47.49822" lon="6.73145">
        <ele>338</ele>
        <time>2015-11-29T08:46:52.000Z</time>
      </trkpt>
      <trkpt lat="47.49823" lon="6.7314">
        <ele>339</ele>
        <time>2015-11-29T08:46:53.000Z</time>
      </trkpt>
      <trkpt lat="47.49824" lon="6.73136">
        <ele>339</ele>
        <time>2015-11-29T08:46:54.000Z</time>
      </trkpt>
      <trkpt lat="47.49825" lon="6.73131">
        <ele>339</ele>
        <time>2015-11-29T08:46:55.000Z</time>
      </trkpt>
      <trkpt lat="47.49826" lon="6.73127">
        <ele>339</ele>
        <time>2015-11-29T08:46:56.000Z</time>
      </trkpt>
      <trkpt lat="47.49827" lon="6.73122">
        <ele>339</ele>
        <time>2015-11-29T08:46:57.000Z</time>
      </trkpt>
      <trkpt lat="47.49828" lon="6.73118">
        <ele>339</ele>
        <time>2015-11-29T08:46:58.000Z</time>
      </trkpt>
      <trkpt lat="47.49829" lon="6.73114">
        <ele>339</ele>
        <time>2015-11-29T08:46:59.000Z</time>
      </trkpt>
      <trkpt lat="47.4983" lon="6.7311">
        <ele>339</ele>
        <time>2015-11-29T08:47:00.000Z</time>
      </trkpt>
      <trkpt lat="47.49831" lon="6.73106">
        <ele>339</ele>
        <time>2015-11-29T08:47:01.000Z</time>
      </trkpt>
      <trkpt lat="47.49832" lon="6.73101">
        <ele>340</ele>
        <time>2015-11-29T08:47:02.000Z</time>
      </trkpt>
      <trkpt lat="47.49833" lon="6.73096">
        <ele>340</ele>
        <time>2015-11-29T08:47:03.000Z</time>
      </trkpt>
      <trkpt lat="47.49834" lon="6.73091">
        <ele>339</ele>
        <time>2015-11-29T08:47:04.000Z</time>
      </trkpt>
      <trkpt lat="47.49835" lon="6.73087">
        <ele>340</ele>
        <time>2015-11-29T08:47:05.000Z</time>
      </trkpt>
      <trkpt lat="47.49837" lon="6.73082">
        <ele>340</ele>
        <time>2015-11-29T08:47:06.000Z</time>
      </trkpt>
      <trkpt lat="47.49838" lon="6.73078">
        <ele>340</ele>
        <time>2015-11-29T08:47:07.000Z</time>
      </trkpt>
      <trkpt lat="47.4984" lon="6.73074">
        <ele>340</ele>
        <time>2015-11-29T08:47:08.000Z</time>
      </trkpt>
      <trkpt lat="47.49841" lon="6.73069">
        <ele>340</ele>
        <time>2015-11-29T08:47:09.000Z</time>
      </trkpt>
      <trkpt lat="47.49842" lon="6.73065">
        <ele>340</ele>
        <time>2015-11-29T08:47:10.000Z</time>
      </trkpt>
      <trkpt lat="47.49844" lon="6.73061">
        <ele>340</ele>
        <time>2015-11-29T08:47:11.000Z</time>
      </trkpt>
      <trkpt lat="47.49846" lon="6.73057">
        <ele>340</ele>
        <time>2015-11-29T08:47:12.000Z</time>
      </trkpt>
      <trkpt lat="47.49847" lon="6.73052">
        <ele>340</ele>
        <time>2015-11-29T08:47:13.000Z</time>
      </trkpt>
      <trkpt lat="47.49848" lon="6.73048">
        <ele>340</ele>
        <time>2015-11-29T08:47:14.000Z</time>
      </trkpt>
      <trkpt lat="47.4985" lon="6.73044">
        <ele>340</ele>
        <time>2015-11-29T08:47:15.000Z</time>
      </trkpt>
      <trkpt lat="47.49852" lon="6.73039">
        <ele>340</ele>
        <time>2015-11-29T08:47:16.000Z</time>
      </trkpt>
      <trkpt lat="47.49853" lon="6.73035">
        <ele>341</ele>
        <time>2015-11-29T08:47:17.000Z</time>
      </trkpt>
      <trkpt lat="47.49855" lon="6.7303">
        <ele>341</ele>
        <time>2015-11-29T08:47:18.000Z</time>
      </trkpt>
      <trkpt lat="47.49857" lon="6.73026">
        <ele>341</ele>
        <time>2015-11-29T08:47:18.999Z</time>
      </trkpt>
      <trkpt lat="47.49859" lon="6.73022">
        <ele>341</ele>
        <time>2015-11-29T08:47:20.000Z</time>
      </trkpt>
      <trkpt lat="47.49861" lon="6.73018">
        <ele>341</ele>
        <time>2015-11-29T08:47:21.000Z</time>
      </trkpt>
      <trkpt lat="47.49863" lon="6.73014">
        <ele>341</ele>
        <time>2015-11-29T08:47:22.002Z</time>
      </trkpt>
      <trkpt lat="47.49865" lon="6.7301">
        <ele>341</ele>
        <time>2015-11-29T08:47:23.000Z</time>
      </trkpt>
      <trkpt lat="47.49867" lon="6.73006">
        <ele>341</ele>
        <time>2015-11-29T08:47:24.000Z</time>
      </trkpt>
      <trkpt lat="47.49868" lon="6.73001">
        <ele>341</ele>
        <time>2015-11-29T08:47:25.000Z</time>
      </trkpt>
      <trkpt lat="47.4987" lon="6.72996">
        <ele>342</ele>
        <time>2015-11-29T08:47:26.000Z</time>
      </trkpt>
      <trkpt lat="47.49872" lon="6.72992">
        <ele>342</ele>
        <time>2015-11-29T08:47:27.000Z</time>
      </trkpt>
      <trkpt lat="47.49874" lon="6.72989">
        <ele>342</ele>
        <time>2015-11-29T08:47:28.000Z</time>
      </trkpt>
      <trkpt lat="47.49876" lon="6.72985">
        <ele>342</ele>
        <time>2015-11-29T08:47:29.000Z</time>
      </trkpt>
      <trkpt lat="47.49879" lon="6.72982">
        <ele>342</ele>
        <time>2015-11-29T08:47:30.000Z</time>
      </trkpt>
      <trkpt lat="47.49881" lon="6.72978">
        <ele>342</ele>
        <time>2015-11-29T08:47:31.000Z</time>
      </trkpt>
      <trkpt lat="47.49884" lon="6.72973">
        <ele>342</ele>
        <time>2015-11-29T08:47:32.000Z</time>
      </trkpt>
      <trkpt lat="47.49888" lon="6.72965">
        <ele>342</ele>
        <time>2015-11-29T08:47:33.000Z</time>
      </trkpt>
      <trkpt lat="47.49891" lon="6.72961">
        <ele>342</ele>
        <time>2015-11-29T08:47:34.000Z</time>
      </trkpt>
      <trkpt lat="47.49894" lon="6.72955">
        <ele>342</ele>
        <time>2015-11-29T08:47:35.000Z</time>
      </trkpt>
      <trkpt lat="47.49899" lon="6.72954">
        <ele>342</ele>
        <time>2015-11-29T08:47:36.000Z</time>
      </trkpt>
      <trkpt lat="47.49902" lon="6.72952">
        <ele>342</ele>
        <time>2015-11-29T08:47:37.000Z</time>
      </trkpt>
      <trkpt lat="47.49907" lon="6.72954">
        <ele>341</ele>
        <time>2015-11-29T08:47:38.000Z</time>
      </trkpt>
      <trkpt lat="47.49911" lon="6.72957">
        <ele>341</ele>
        <time>2015-11-29T08:47:39.000Z</time>
      </trkpt>
      <trkpt lat="47.49915" lon="6.72959">
        <ele>341</ele>
        <time>2015-11-29T08:47:40.000Z</time>
      </trkpt>
      <trkpt lat="47.49921" lon="6.7296">
        <ele>339</ele>
        <time>2015-11-29T08:47:41.000Z</time>
      </trkpt>
      <trkpt lat="47.49926" lon="6.72959">
        <ele>339</ele>
        <time>2015-11-29T08:47:42.000Z</time>
      </trkpt>
      <trkpt lat="47.49931" lon="6.72961">
        <ele>339</ele>
        <time>2015-11-29T08:47:43.000Z</time>
      </trkpt>
      <trkpt lat="47.49937" lon="6.72964">
        <ele>339</ele>
        <time>2015-11-29T08:47:44.000Z</time>
      </trkpt>
      <trkpt lat="47.49943" lon="6.72967">
        <ele>339</ele>
        <time>2015-11-29T08:47:45.000Z</time>
      </trkpt>
      <trkpt lat="47.49949" lon="6.72969">
        <ele>339</ele>
        <time>2015-11-29T08:47:46.000Z</time>
      </trkpt>
      <trkpt lat="47.49956" lon="6.72969">
        <ele>339</ele>
        <time>2015-11-29T08:47:47.000Z</time>
      </trkpt>
      <trkpt lat="47.49963" lon="6.72971">
        <ele>339</ele>
        <time>2015-11-29T08:47:48.000Z</time>
      </trkpt>
      <trkpt lat="47.49971" lon="6.72972">
        <ele>338</ele>
        <time>2015-11-29T08:47:49.000Z</time>
      </trkpt>
      <trkpt lat="47.49976" lon="6.72975">
        <ele>338</ele>
        <time>2015-11-29T08:47:50.000Z</time>
      </trkpt>
      <trkpt lat="47.49981" lon="6.72981">
        <ele>338</ele>
        <time>2015-11-29T08:47:51.000Z</time>
      </trkpt>
      <trkpt lat="47.49986" lon="6.72987">
        <ele>338</ele>
        <time>2015-11-29T08:47:52.000Z</time>
      </trkpt>
      <trkpt lat="47.4999" lon="6.72993">
        <ele>338</ele>
        <time>2015-11-29T08:47:53.000Z</time>
      </trkpt>
      <trkpt lat="47.49994" lon="6.73">
        <ele>337</ele>
        <time>2015-11-29T08:47:54.000Z</time>
      </trkpt>
      <trkpt lat="47.49997" lon="6.73007">
        <ele>337</ele>
        <time>2015-11-29T08:47:55.000Z</time>
      </trkpt>
      <trkpt lat="47.5" lon="6.73013">
        <ele>337</ele>
        <time>2015-11-29T08:47:56.000Z</time>
      </trkpt>
      <trkpt lat="47.50004" lon="6.73019">
        <ele>337</ele>
        <time>2015-11-29T08:47:57.000Z</time>
      </trkpt>
      <trkpt lat="47.50008" lon="6.73025">
        <ele>337</ele>
        <time>2015-11-29T08:47:58.000Z</time>
      </trkpt>
      <trkpt lat="47.50012" lon="6.7303">
        <ele>337</ele>
        <time>2015-11-29T08:47:59.000Z</time>
      </trkpt>
      <trkpt lat="47.50016" lon="6.73034">
        <ele>337</ele>
        <time>2015-11-29T08:48:00.000Z</time>
      </trkpt>
      <trkpt lat="47.50021" lon="6.73039">
        <ele>337</ele>
        <time>2015-11-29T08:48:01.000Z</time>
      </trkpt>
      <trkpt lat="47.50025" lon="6.73044">
        <ele>337</ele>
        <time>2015-11-29T08:48:02.000Z</time>
      </trkpt>
      <trkpt lat="47.50029" lon="6.7305">
        <ele>337</ele>
        <time>2015-11-29T08:48:03.000Z</time>
      </trkpt>
      <trkpt lat="47.50034" lon="6.73054">
        <ele>337</ele>
        <time>2015-11-29T08:48:04.000Z</time>
      </trkpt>
      <trkpt lat="47.50037" lon="6.7306">
        <ele>337</ele>
        <time>2015-11-29T08:48:05.000Z</time>
      </trkpt>
      <trkpt lat="47.5004" lon="6.73065">
        <ele>337</ele>
        <time>2015-11-29T08:48:06.000Z</time>
      </trkpt>
      <trkpt lat="47.50044" lon="6.73069">
        <ele>337</ele>
        <time>2015-11-29T08:48:07.000Z</time>
      </trkpt>
      <trkpt lat="47.50048" lon="6.73073">
        <ele>337</ele>
        <time>2015-11-29T08:48:08.000Z</time>
      </trkpt>
      <trkpt lat="47.50053" lon="6.73078">
        <ele>337</ele>
        <time>2015-11-29T08:48:09.000Z</time>
      </trkpt>
      <trkpt lat="47.50057" lon="6.73083">
        <ele>337</ele>
        <time>2015-11-29T08:48:10.000Z</time>
      </trkpt>
      <trkpt lat="47.50063" lon="6.73089">
        <ele>337</ele>
        <time>2015-11-29T08:48:11.000Z</time>
      </trkpt>
      <trkpt lat="47.5007" lon="6.73094">
        <ele>337</ele>
        <time>2015-11-29T08:48:12.000Z</time>
      </trkpt>
      <trkpt lat="47.50075" lon="6.73099">
        <ele>338</ele>
        <time>2015-11-29T08:48:13.000Z</time>
      </trkpt>
      <trkpt lat="47.5008" lon="6.73102">
        <ele>338</ele>
        <time>2015-11-29T08:48:14.000Z</time>
      </trkpt>
      <trkpt lat="47.50084" lon="6.73105">
        <ele>339</ele>
        <time>2015-11-29T08:48:15.000Z</time>
      </trkpt>
      <trkpt lat="47.50088" lon="6.73108">
        <ele>339</ele>
        <time>2015-11-29T08:48:16.000Z</time>
      </trkpt>
      <trkpt lat="47.50094" lon="6.73111">
        <ele>339</ele>
        <time>2015-11-29T08:48:17.000Z</time>
      </trkpt>
      <trkpt lat="47.501" lon="6.73114">
        <ele>339</ele>
        <time>2015-11-29T08:48:18.000Z</time>
      </trkpt>
      <trkpt lat="47.50105" lon="6.73117">
        <ele>339</ele>
        <time>2015-11-29T08:48:19.001Z</time>
      </trkpt>
      <trkpt lat="47.50109" lon="6.73118">
        <ele>339</ele>
        <time>2015-11-29T08:48:20.000Z</time>
      </trkpt>
      <trkpt lat="47.50115" lon="6.73118">
        <ele>339</ele>
        <time>2015-11-29T08:48:21.000Z</time>
      </trkpt>
      <trkpt lat="47.5012" lon="6.73118">
        <ele>339</ele>
        <time>2015-11-29T08:48:22.000Z</time>
      </trkpt>
      <trkpt lat="47.50125" lon="6.73119">
        <ele>339</ele>
        <time>2015-11-29T08:48:23.000Z</time>
      </trkpt>
      <trkpt lat="47.50129" lon="6.7312">
        <ele>340</ele>
        <time>2015-11-29T08:48:24.000Z</time>
      </trkpt>
      <trkpt lat="47.50133" lon="6.7312">
        <ele>340</ele>
        <time>2015-11-29T08:48:25.000Z</time>
      </trkpt>
      <trkpt lat="47.50137" lon="6.73121">
        <ele>340</ele>
        <time>2015-11-29T08:48:26.000Z</time>
      </trkpt>
      <trkpt lat="47.5014" lon="6.73122">
        <ele>340</ele>
        <time>2015-11-29T08:48:27.000Z</time>
      </trkpt>
      <trkpt lat="47.50143" lon="6.73121">
        <ele>340</ele>
        <time>2015-11-29T08:48:28.000Z</time>
      </trkpt>
      <trkpt lat="47.50147" lon="6.73121">
        <ele>340</ele>
        <time>2015-11-29T08:48:28.999Z</time>
      </trkpt>
      <trkpt lat="47.5015" lon="6.7312">
        <ele>340</ele>
        <time>2015-11-29T08:48:30.000Z</time>
      </trkpt>
      <trkpt lat="47.50154" lon="6.73121">
        <ele>340</ele>
        <time>2015-11-29T08:48:31.000Z</time>
      </trkpt>
      <trkpt lat="47.50158" lon="6.73122">
        <ele>340</ele>
        <time>2015-11-29T08:48:32.000Z</time>
      </trkpt>
      <trkpt lat="47.5016" lon="6.73121">
        <ele>340</ele>
        <time>2015-11-29T08:48:33.000Z</time>
      </trkpt>
      <trkpt lat="47.50162" lon="6.73123">
        <ele>340</ele>
        <time>2015-11-29T08:48:34.000Z</time>
      </trkpt>
      <trkpt lat="47.50165" lon="6.73124">
        <ele>340</ele>
        <time>2015-11-29T08:48:35.000Z</time>
      </trkpt>
      <trkpt lat="47.50167" lon="6.73126">
        <ele>341</ele>
        <time>2015-11-29T08:48:36.000Z</time>
      </trkpt>
      <trkpt lat="47.50169" lon="6.73128">
        <ele>341</ele>
        <time>2015-11-29T08:48:37.000Z</time>
      </trkpt>
      <trkpt lat="47.50171" lon="6.7313">
        <ele>341</ele>
        <time>2015-11-29T08:48:38.000Z</time>
      </trkpt>
      <trkpt lat="47.50175" lon="6.73134">
        <ele>341</ele>
        <time>2015-11-29T08:48:41.000Z</time>
      </trkpt>
      <trkpt lat="47.50176" lon="6.73135">
        <ele>341</ele>
        <time>2015-11-29T08:48:42.000Z</time>
      </trkpt>
      <trkpt lat="47.50179" lon="6.73135">
        <ele>341</ele>
        <time>2015-11-29T08:48:44.000Z</time>
      </trkpt>
      <trkpt lat="47.50182" lon="6.73134">
        <ele>341</ele>
        <time>2015-11-29T08:48:45.000Z</time>
      </trkpt>
      <trkpt lat="47.50185" lon="6.73132">
        <ele>341</ele>
        <time>2015-11-29T08:48:46.000Z</time>
      </trkpt>
      <trkpt lat="47.50188" lon="6.7313">
        <ele>341</ele>
        <time>2015-11-29T08:48:46.999Z</time>
      </trkpt>
      <trkpt lat="47.50191" lon="6.73126">
        <ele>341</ele>
        <time>2015-11-29T08:48:48.000Z</time>
      </trkpt>
      <trkpt lat="47.50193" lon="6.73121">
        <ele>341</ele>
        <time>2015-11-29T08:48:49.000Z</time>
      </trkpt>
      <trkpt lat="47.50197" lon="6.73111">
        <ele>341</ele>
        <time>2015-11-29T08:48:50.000Z</time>
      </trkpt>
      <trkpt lat="47.50199" lon="6.73105">
        <ele>341</ele>
        <time>2015-11-29T08:48:51.000Z</time>
      </trkpt>
      <trkpt lat="47.50202" lon="6.73099">
        <ele>341</ele>
        <time>2015-11-29T08:48:52.000Z</time>
      </trkpt>
      <trkpt lat="47.50204" lon="6.73092">
        <ele>341</ele>
        <time>2015-11-29T08:48:53.000Z</time>
      </trkpt>
      <trkpt lat="47.50206" lon="6.73086">
        <ele>341</ele>
        <time>2015-11-29T08:48:53.999Z</time>
      </trkpt>
      <trkpt lat="47.5021" lon="6.73078">
        <ele>341</ele>
        <time>2015-11-29T08:48:55.000Z</time>
      </trkpt>
      <trkpt lat="47.50212" lon="6.73072">
        <ele>341</ele>
        <time>2015-11-29T08:48:56.000Z</time>
      </trkpt>
      <trkpt lat="47.50215" lon="6.73067">
        <ele>341</ele>
        <time>2015-11-29T08:48:57.000Z</time>
      </trkpt>
      <trkpt lat="47.50216" lon="6.7306">
        <ele>341</ele>
        <time>2015-11-29T08:48:58.000Z</time>
      </trkpt>
      <trkpt lat="47.50218" lon="6.73053">
        <ele>341</ele>
        <time>2015-11-29T08:48:59.000Z</time>
      </trkpt>
      <trkpt lat="47.50221" lon="6.73047">
        <ele>341</ele>
        <time>2015-11-29T08:49:00.000Z</time>
      </trkpt>
      <trkpt lat="47.50223" lon="6.7304">
        <ele>341</ele>
        <time>2015-11-29T08:49:01.000Z</time>
      </trkpt>
      <trkpt lat="47.50225" lon="6.73033">
        <ele>341</ele>
        <time>2015-11-29T08:49:02.000Z</time>
      </trkpt>
      <trkpt lat="47.50228" lon="6.73025">
        <ele>341</ele>
        <time>2015-11-29T08:49:03.000Z</time>
      </trkpt>
      <trkpt lat="47.50232" lon="6.73019">
        <ele>341</ele>
        <time>2015-11-29T08:49:04.000Z</time>
      </trkpt>
      <trkpt lat="47.50233" lon="6.73013">
        <ele>341</ele>
        <time>2015-11-29T08:49:05.000Z</time>
      </trkpt>
      <trkpt lat="47.50235" lon="6.73006">
        <ele>341</ele>
        <time>2015-11-29T08:49:06.000Z</time>
      </trkpt>
      <trkpt lat="47.50238" lon="6.73">
        <ele>341</ele>
        <time>2015-11-29T08:49:07.000Z</time>
      </trkpt>
      <trkpt lat="47.5024" lon="6.72992">
        <ele>341</ele>
        <time>2015-11-29T08:49:08.000Z</time>
      </trkpt>
      <trkpt lat="47.50244" lon="6.72987">
        <ele>340</ele>
        <time>2015-11-29T08:49:09.000Z</time>
      </trkpt>
      <trkpt lat="47.50247" lon="6.7298">
        <ele>340</ele>
        <time>2015-11-29T08:49:10.000Z</time>
      </trkpt>
      <trkpt lat="47.50249" lon="6.72975">
        <ele>340</ele>
        <time>2015-11-29T08:49:11.000Z</time>
      </trkpt>
      <trkpt lat="47.50251" lon="6.7297">
        <ele>341</ele>
        <time>2015-11-29T08:49:12.000Z</time>
      </trkpt>
      <trkpt lat="47.50254" lon="6.72966">
        <ele>342</ele>
        <time>2015-11-29T08:49:13.000Z</time>
      </trkpt>
      <trkpt lat="47.50257" lon="6.72961">
        <ele>342</ele>
        <time>2015-11-29T08:49:14.000Z</time>
      </trkpt>
      <trkpt lat="47.50258" lon="6.72953">
        <ele>341</ele>
        <time>2015-11-29T08:49:15.000Z</time>
      </trkpt>
      <trkpt lat="47.5026" lon="6.72947">
        <ele>341</ele>
        <time>2015-11-29T08:49:15.999Z</time>
      </trkpt>
      <trkpt lat="47.50262" lon="6.72942">
        <ele>341</ele>
        <time>2015-11-29T08:49:17.000Z</time>
      </trkpt>
      <trkpt lat="47.50264" lon="6.72937">
        <ele>341</ele>
        <time>2015-11-29T08:49:18.000Z</time>
      </trkpt>
      <trkpt lat="47.50266" lon="6.72931">
        <ele>341</ele>
        <time>2015-11-29T08:49:19.000Z</time>
      </trkpt>
      <trkpt lat="47.50267" lon="6.72924">
        <ele>341</ele>
        <time>2015-11-29T08:49:20.000Z</time>
      </trkpt>
      <trkpt lat="47.50269" lon="6.72919">
        <ele>341</ele>
        <time>2015-11-29T08:49:21.000Z</time>
      </trkpt>
      <trkpt lat="47.50269" lon="6.72914">
        <ele>341</ele>
        <time>2015-11-29T08:49:22.000Z</time>
      </trkpt>
      <trkpt lat="47.50271" lon="6.72908">
        <ele>341</ele>
        <time>2015-11-29T08:49:23.000Z</time>
      </trkpt>
      <trkpt lat="47.50272" lon="6.72903">
        <ele>341</ele>
        <time>2015-11-29T08:49:24.000Z</time>
      </trkpt>
      <trkpt lat="47.50274" lon="6.72899">
        <ele>341</ele>
        <time>2015-11-29T08:49:25.000Z</time>
      </trkpt>
      <trkpt lat="47.50275" lon="6.72895">
        <ele>341</ele>
        <time>2015-11-29T08:49:26.000Z</time>
      </trkpt>
      <trkpt lat="47.50281" lon="6.72895">
        <ele>341</ele>
        <time>2015-11-29T08:49:27.000Z</time>
      </trkpt>
      <trkpt lat="47.50284" lon="6.72894">
        <ele>341</ele>
        <time>2015-11-29T08:49:28.000Z</time>
      </trkpt>
      <trkpt lat="47.50288" lon="6.72895">
        <ele>341</ele>
        <time>2015-11-29T08:49:29.000Z</time>
      </trkpt>
      <trkpt lat="47.50293" lon="6.72896">
        <ele>342</ele>
        <time>2015-11-29T08:49:30.000Z</time>
      </trkpt>
      <trkpt lat="47.50297" lon="6.72897">
        <ele>342</ele>
        <time>2015-11-29T08:49:30.999Z</time>
      </trkpt>
      <trkpt lat="47.50301" lon="6.72899">
        <ele>342</ele>
        <time>2015-11-29T08:49:32.000Z</time>
      </trkpt>
      <trkpt lat="47.50305" lon="6.729">
        <ele>342</ele>
        <time>2015-11-29T08:49:33.000Z</time>
      </trkpt>
      <trkpt lat="47.50309" lon="6.72901">
        <ele>342</ele>
        <time>2015-11-29T08:49:34.000Z</time>
      </trkpt>
      <trkpt lat="47.50313" lon="6.72902">
        <ele>342</ele>
        <time>2015-11-29T08:49:35.000Z</time>
      </trkpt>
      <trkpt lat="47.50317" lon="6.72904">
        <ele>342</ele>
        <time>2015-11-29T08:49:36.000Z</time>
      </trkpt>
      <trkpt lat="47.50323" lon="6.72905">
        <ele>342</ele>
        <time>2015-11-29T08:49:37.000Z</time>
      </trkpt>
      <trkpt lat="47.50327" lon="6.72908">
        <ele>342</ele>
        <time>2015-11-29T08:49:38.000Z</time>
      </trkpt>
      <trkpt lat="47.50331" lon="6.72909">
        <ele>343</ele>
        <time>2015-11-29T08:49:39.000Z</time>
      </trkpt>
      <trkpt lat="47.50335" lon="6.72911">
        <ele>344</ele>
        <time>2015-11-29T08:49:40.000Z</time>
      </trkpt>
      <trkpt lat="47.50337" lon="6.72911">
        <ele>344</ele>
        <time>2015-11-29T08:49:40.999Z</time>
      </trkpt>
      <trkpt lat="47.50341" lon="6.72913">
        <ele>344</ele>
        <time>2015-11-29T08:49:42.000Z</time>
      </trkpt>
      <trkpt lat="47.50344" lon="6.72915">
        <ele>344</ele>
        <time>2015-11-29T08:49:43.000Z</time>
      </trkpt>
      <trkpt lat="47.50348" lon="6.72915">
        <ele>344</ele>
        <time>2015-11-29T08:49:44.000Z</time>
      </trkpt>
      <trkpt lat="47.50349" lon="6.72915">
        <ele>344</ele>
        <time>2015-11-29T08:49:45.000Z</time>
      </trkpt>
      <trkpt lat="47.50352" lon="6.72915">
        <ele>344</ele>
        <time>2015-11-29T08:49:46.000Z</time>
      </trkpt>
      <trkpt lat="47.50355" lon="6.72916">
        <ele>345</ele>
        <time>2015-11-29T08:49:47.000Z</time>
      </trkpt>
      <trkpt lat="47.50358" lon="6.72917">
        <ele>345</ele>
        <time>2015-11-29T08:49:48.000Z</time>
      </trkpt>
      <trkpt lat="47.5036" lon="6.72918">
        <ele>345</ele>
        <time>2015-11-29T08:49:49.000Z</time>
      </trkpt>
      <trkpt lat="47.50363" lon="6.72919">
        <ele>346</ele>
        <time>2015-11-29T08:49:50.000Z</time>
      </trkpt>
      <trkpt lat="47.50366" lon="6.7292">
        <ele>346</ele>
        <time>2015-11-29T08:49:51.000Z</time>
      </trkpt>
      <trkpt lat="47.50369" lon="6.7292">
        <ele>346</ele>
        <time>2015-11-29T08:49:52.000Z</time>
      </trkpt>
      <trkpt lat="47.50372" lon="6.72921">
        <ele>346</ele>
        <time>2015-11-29T08:49:53.000Z</time>
      </trkpt>
      <trkpt lat="47.50374" lon="6.72922">
        <ele>346</ele>
        <time>2015-11-29T08:49:54.000Z</time>
      </trkpt>
      <trkpt lat="47.50377" lon="6.72923">
        <ele>346</ele>
        <time>2015-11-29T08:49:55.000Z</time>
      </trkpt>
      <trkpt lat="47.5038" lon="6.72924">
        <ele>346</ele>
        <time>2015-11-29T08:49:56.000Z</time>
      </trkpt>
      <trkpt lat="47.50383" lon="6.72925">
        <ele>347</ele>
        <time>2015-11-29T08:49:57.000Z</time>
      </trkpt>
      <trkpt lat="47.50386" lon="6.72927">
        <ele>347</ele>
        <time>2015-11-29T08:49:58.000Z</time>
      </trkpt>
      <trkpt lat="47.50388" lon="6.72928">
        <ele>347</ele>
        <time>2015-11-29T08:49:59.000Z</time>
      </trkpt>
      <trkpt lat="47.50391" lon="6.72929">
        <ele>347</ele>
        <time>2015-11-29T08:50:00.000Z</time>
      </trkpt>
      <trkpt lat="47.50394" lon="6.7293">
        <ele>347</ele>
        <time>2015-11-29T08:50:01.000Z</time>
      </trkpt>
      <trkpt lat="47.50397" lon="6.72931">
        <ele>347</ele>
        <time>2015-11-29T08:50:02.000Z</time>
      </trkpt>
      <trkpt lat="47.504" lon="6.72932">
        <ele>347</ele>
        <time>2015-11-29T08:50:03.000Z</time>
      </trkpt>
      <trkpt lat="47.50403" lon="6.72932">
        <ele>347</ele>
        <time>2015-11-29T08:50:04.000Z</time>
      </trkpt>
      <trkpt lat="47.50406" lon="6.72933">
        <ele>348</ele>
        <time>2015-11-29T08:50:05.000Z</time>
      </trkpt>
      <trkpt lat="47.5041" lon="6.72933">
        <ele>348</ele>
        <time>2015-11-29T08:50:06.000Z</time>
      </trkpt>
      <trkpt lat="47.50413" lon="6.72933">
        <ele>348</ele>
        <time>2015-11-29T08:50:07.000Z</time>
      </trkpt>
      <trkpt lat="47.50416" lon="6.72933">
        <ele>348</ele>
        <time>2015-11-29T08:50:08.000Z</time>
      </trkpt>
      <trkpt lat="47.50419" lon="6.72934">
        <ele>351</ele>
        <time>2015-11-29T08:50:08.999Z</time>
      </trkpt>
      <trkpt lat="47.50423" lon="6.72935">
        <ele>351</ele>
        <time>2015-11-29T08:50:11.000Z</time>
      </trkpt>
      <trkpt lat="47.50425" lon="6.72936">
        <ele>351</ele>
        <time>2015-11-29T08:50:12.000Z</time>
      </trkpt>
      <trkpt lat="47.50428" lon="6.72936">
        <ele>352</ele>
        <time>2015-11-29T08:50:13.000Z</time>
      </trkpt>
      <trkpt lat="47.50431" lon="6.72937">
        <ele>352</ele>
        <time>2015-11-29T08:50:14.000Z</time>
      </trkpt>
      <trkpt lat="47.50434" lon="6.72938">
        <ele>352</ele>
        <time>2015-11-29T08:50:15.000Z</time>
      </trkpt>
      <trkpt lat="47.50437" lon="6.72939">
        <ele>352</ele>
        <time>2015-11-29T08:50:16.000Z</time>
      </trkpt>
      <trkpt lat="47.5044" lon="6.7294">
        <ele>352</ele>
        <time>2015-11-29T08:50:17.000Z</time>
      </trkpt>
      <trkpt lat="47.50443" lon="6.7294">
        <ele>352</ele>
        <time>2015-11-29T08:50:18.000Z</time>
      </trkpt>
      <trkpt lat="47.50445" lon="6.7294">
        <ele>353</ele>
        <time>2015-11-29T08:50:19.000Z</time>
      </trkpt>
      <trkpt lat="47.50448" lon="6.7294">
        <ele>353</ele>
        <time>2015-11-29T08:50:20.000Z</time>
      </trkpt>
      <trkpt lat="47.50451" lon="6.7294">
        <ele>353</ele>
        <time>2015-11-29T08:50:21.000Z</time>
      </trkpt>
      <trkpt lat="47.50454" lon="6.7294">
        <ele>353</ele>
        <time>2015-11-29T08:50:21.999Z</time>
      </trkpt>
      <trkpt lat="47.50456" lon="6.72939">
        <ele>353</ele>
        <time>2015-11-29T08:50:23.000Z</time>
      </trkpt>
      <trkpt lat="47.50459" lon="6.72938">
        <ele>353</ele>
        <time>2015-11-29T08:50:24.000Z</time>
      </trkpt>
      <trkpt lat="47.50461" lon="6.72936">
        <ele>354</ele>
        <time>2015-11-29T08:50:25.000Z</time>
      </trkpt>
      <trkpt lat="47.50463" lon="6.72933">
        <ele>354</ele>
        <time>2015-11-29T08:50:26.000Z</time>
      </trkpt>
      <trkpt lat="47.50465" lon="6.72931">
        <ele>354</ele>
        <time>2015-11-29T08:50:27.000Z</time>
      </trkpt>
      <trkpt lat="47.50467" lon="6.72928">
        <ele>354</ele>
        <time>2015-11-29T08:50:28.000Z</time>
      </trkpt>
      <trkpt lat="47.50469" lon="6.72925">
        <ele>354</ele>
        <time>2015-11-29T08:50:29.000Z</time>
      </trkpt>
      <trkpt lat="47.50471" lon="6.72922">
        <ele>354</ele>
        <time>2015-11-29T08:50:30.000Z</time>
      </trkpt>
      <trkpt lat="47.50473" lon="6.72919">
        <ele>354</ele>
        <time>2015-11-29T08:50:31.000Z</time>
      </trkpt>
      <trkpt lat="47.50475" lon="6.72915">
        <ele>354</ele>
        <time>2015-11-29T08:50:32.000Z</time>
      </trkpt>
      <trkpt lat="47.50477" lon="6.72912">
        <ele>354</ele>
        <time>2015-11-29T08:50:33.000Z</time>
      </trkpt>
      <trkpt lat="47.50478" lon="6.72909">
        <ele>354</ele>
        <time>2015-11-29T08:50:34.000Z</time>
      </trkpt>
      <trkpt lat="47.50481" lon="6.72906">
        <ele>354</ele>
        <time>2015-11-29T08:50:35.000Z</time>
      </trkpt>
      <trkpt lat="47.50483" lon="6.72904">
        <ele>354</ele>
        <time>2015-11-29T08:50:36.000Z</time>
      </trkpt>
      <trkpt lat="47.50485" lon="6.72902">
        <ele>355</ele>
        <time>2015-11-29T08:50:37.000Z</time>
      </trkpt>
      <trkpt lat="47.50488" lon="6.729">
        <ele>355</ele>
        <time>2015-11-29T08:50:38.000Z</time>
      </trkpt>
      <trkpt lat="47.50491" lon="6.72896">
        <ele>354</ele>
        <time>2015-11-29T08:50:40.000Z</time>
      </trkpt>
      <trkpt lat="47.50492" lon="6.72893">
        <ele>354</ele>
        <time>2015-11-29T08:50:41.000Z</time>
      </trkpt>
      <trkpt lat="47.50494" lon="6.72891">
        <ele>354</ele>
        <time>2015-11-29T08:50:42.000Z</time>
      </trkpt>
      <trkpt lat="47.50496" lon="6.72889">
        <ele>354</ele>
        <time>2015-11-29T08:50:43.000Z</time>
      </trkpt>
      <trkpt lat="47.50497" lon="6.72886">
        <ele>354</ele>
        <time>2015-11-29T08:50:44.000Z</time>
      </trkpt>
      <trkpt lat="47.50499" lon="6.72884">
        <ele>354</ele>
        <time>2015-11-29T08:50:45.000Z</time>
      </trkpt>
      <trkpt lat="47.50501" lon="6.72882">
        <ele>362</ele>
        <time>2015-11-29T08:50:46.001Z</time>
      </trkpt>
      <trkpt lat="47.50504" lon="6.72878">
        <ele>362</ele>
        <time>2015-11-29T08:50:47.000Z</time>
      </trkpt>
      <trkpt lat="47.50506" lon="6.72876">
        <ele>363</ele>
        <time>2015-11-29T08:50:48.000Z</time>
      </trkpt>
      <trkpt lat="47.50509" lon="6.72873">
        <ele>363</ele>
        <time>2015-11-29T08:50:49.000Z</time>
      </trkpt>
      <trkpt lat="47.50511" lon="6.72871">
        <ele>363</ele>
        <time>2015-11-29T08:50:50.000Z</time>
      </trkpt>
      <trkpt lat="47.50513" lon="6.72869">
        <ele>363</ele>
        <time>2015-11-29T08:50:51.000Z</time>
      </trkpt>
      <trkpt lat="47.50514" lon="6.72866">
        <ele>363</ele>
        <time>2015-11-29T08:50:52.000Z</time>
      </trkpt>
      <trkpt lat="47.50516" lon="6.72864">
        <ele>363</ele>
        <time>2015-11-29T08:50:53.000Z</time>
      </trkpt>
      <trkpt lat="47.50518" lon="6.72862">
        <ele>363</ele>
        <time>2015-11-29T08:50:54.000Z</time>
      </trkpt>
      <trkpt lat="47.50521" lon="6.7286">
        <ele>363</ele>
        <time>2015-11-29T08:50:55.000Z</time>
      </trkpt>
      <trkpt lat="47.50524" lon="6.72858">
        <ele>363</ele>
        <time>2015-11-29T08:50:56.000Z</time>
      </trkpt>
      <trkpt lat="47.50526" lon="6.72856">
        <ele>363</ele>
        <time>2015-11-29T08:50:57.000Z</time>
      </trkpt>
      <trkpt lat="47.50529" lon="6.72854">
        <ele>364</ele>
        <time>2015-11-29T08:50:58.000Z</time>
      </trkpt>
      <trkpt lat="47.50532" lon="6.72852">
        <ele>364</ele>
        <time>2015-11-29T08:50:59.000Z</time>
      </trkpt>
      <trkpt lat="47.50535" lon="6.72851">
        <ele>364</ele>
        <time>2015-11-29T08:51:00.000Z</time>
      </trkpt>
      <trkpt lat="47.50537" lon="6.72849">
        <ele>365</ele>
        <time>2015-11-29T08:51:01.000Z</time>
      </trkpt>
      <trkpt lat="47.5054" lon="6.72848">
        <ele>365</ele>
        <time>2015-11-29T08:51:02.000Z</time>
      </trkpt>
      <trkpt lat="47.50542" lon="6.72846">
        <ele>365</ele>
        <time>2015-11-29T08:51:03.000Z</time>
      </trkpt>
      <trkpt lat="47.50546" lon="6.72844">
        <ele>366</ele>
        <time>2015-11-29T08:51:05.000Z</time>
      </trkpt>
      <trkpt lat="47.50547" lon="6.72843">
        <ele>366</ele>
        <time>2015-11-29T08:51:06.000Z</time>
      </trkpt>
      <trkpt lat="47.50549" lon="6.72841">
        <ele>366</ele>
        <time>2015-11-29T08:51:08.000Z</time>
      </trkpt>
      <trkpt lat="47.50551" lon="6.7284">
        <ele>366</ele>
        <time>2015-11-29T08:51:09.000Z</time>
      </trkpt>
      <trkpt lat="47.50554" lon="6.72835">
        <ele>367</ele>
        <time>2015-11-29T08:51:12.000Z</time>
      </trkpt>
      <trkpt lat="47.50554" lon="6.72833">
        <ele>365</ele>
        <time>2015-11-29T08:51:13.000Z</time>
      </trkpt>
      <trkpt lat="47.50556" lon="6.72832">
        <ele>365</ele>
        <time>2015-11-29T08:51:15.999Z</time>
      </trkpt>
      <trkpt lat="47.5056" lon="6.72834">
        <ele>367</ele>
        <time>2015-11-29T08:51:17.000Z</time>
      </trkpt>
      <trkpt lat="47.50564" lon="6.72835">
        <ele>368</ele>
        <time>2015-11-29T08:51:18.999Z</time>
      </trkpt>
      <trkpt lat="47.50566" lon="6.72834">
        <ele>368</ele>
        <time>2015-11-29T08:51:20.000Z</time>
      </trkpt>
      <trkpt lat="47.5057" lon="6.72832">
        <ele>368</ele>
        <time>2015-11-29T08:51:22.001Z</time>
      </trkpt>
      <trkpt lat="47.50572" lon="6.72828">
        <ele>368</ele>
        <time>2015-11-29T08:51:23.000Z</time>
      </trkpt>
      <trkpt lat="47.50574" lon="6.72826">
        <ele>368</ele>
        <time>2015-11-29T08:51:24.000Z</time>
      </trkpt>
      <trkpt lat="47.50576" lon="6.72825">
        <ele>368</ele>
        <time>2015-11-29T08:51:25.000Z</time>
      </trkpt>
      <trkpt lat="47.5058" lon="6.72822">
        <ele>368</ele>
        <time>2015-11-29T08:51:27.000Z</time>
      </trkpt>
      <trkpt lat="47.50581" lon="6.72819">
        <ele>368</ele>
        <time>2015-11-29T08:51:28.000Z</time>
      </trkpt>
      <trkpt lat="47.50583" lon="6.72814">
        <ele>367</ele>
        <time>2015-11-29T08:51:30.000Z</time>
      </trkpt>
      <trkpt lat="47.50584" lon="6.72813">
        <ele>375</ele>
        <time>2015-11-29T08:51:31.000Z</time>
      </trkpt>
      <trkpt lat="47.50587" lon="6.72811">
        <ele>376</ele>
        <time>2015-11-29T08:51:33.000Z</time>
      </trkpt>
      <trkpt lat="47.50589" lon="6.72811">
        <ele>376</ele>
        <time>2015-11-29T08:51:34.000Z</time>
      </trkpt>
      <trkpt lat="47.50592" lon="6.72809">
        <ele>376</ele>
        <time>2015-11-29T08:51:36.000Z</time>
      </trkpt>
      <trkpt lat="47.50593" lon="6.72808">
        <ele>376</ele>
        <time>2015-11-29T08:51:37.000Z</time>
      </trkpt>
      <trkpt lat="47.50596" lon="6.72806">
        <ele>377</ele>
        <time>2015-11-29T08:51:39.000Z</time>
      </trkpt>
      <trkpt lat="47.50598" lon="6.72804">
        <ele>377</ele>
        <time>2015-11-29T08:51:40.000Z</time>
      </trkpt>
      <trkpt lat="47.50601" lon="6.728">
        <ele>377</ele>
        <time>2015-11-29T08:51:43.000Z</time>
      </trkpt>
      <trkpt lat="47.50602" lon="6.72798">
        <ele>377</ele>
        <time>2015-11-29T08:51:44.000Z</time>
      </trkpt>
      <trkpt lat="47.50605" lon="6.72793">
        <ele>378</ele>
        <time>2015-11-29T08:51:46.000Z</time>
      </trkpt>
      <trkpt lat="47.50607" lon="6.72791">
        <ele>378</ele>
        <time>2015-11-29T08:51:47.000Z</time>
      </trkpt>
      <trkpt lat="47.5061" lon="6.7279">
        <ele>378</ele>
        <time>2015-11-29T08:51:48.000Z</time>
      </trkpt>
      <trkpt lat="47.50612" lon="6.72787">
        <ele>378</ele>
        <time>2015-11-29T08:51:49.000Z</time>
      </trkpt>
      <trkpt lat="47.50614" lon="6.72785">
        <ele>378</ele>
        <time>2015-11-29T08:51:50.000Z</time>
      </trkpt>
      <trkpt lat="47.50615" lon="6.72782">
        <ele>378</ele>
        <time>2015-11-29T08:51:51.000Z</time>
      </trkpt>
      <trkpt lat="47.50617" lon="6.72779">
        <ele>379</ele>
        <time>2015-11-29T08:51:52.000Z</time>
      </trkpt>
      <trkpt lat="47.50619" lon="6.72776">
        <ele>379</ele>
        <time>2015-11-29T08:51:53.000Z</time>
      </trkpt>
      <trkpt lat="47.50621" lon="6.72773">
        <ele>379</ele>
        <time>2015-11-29T08:51:54.000Z</time>
      </trkpt>
      <trkpt lat="47.50623" lon="6.7277">
        <ele>379</ele>
        <time>2015-11-29T08:51:55.000Z</time>
      </trkpt>
      <trkpt lat="47.50625" lon="6.72767">
        <ele>379</ele>
        <time>2015-11-29T08:51:56.000Z</time>
      </trkpt>
      <trkpt lat="47.50627" lon="6.72764">
        <ele>380</ele>
        <time>2015-11-29T08:51:57.000Z</time>
      </trkpt>
      <trkpt lat="47.50628" lon="6.72761">
        <ele>380</ele>
        <time>2015-11-29T08:51:58.000Z</time>
      </trkpt>
      <trkpt lat="47.50629" lon="6.72758">
        <ele>380</ele>
        <time>2015-11-29T08:51:59.000Z</time>
      </trkpt>
      <trkpt lat="47.50631" lon="6.72756">
        <ele>380</ele>
        <time>2015-11-29T08:52:00.000Z</time>
      </trkpt>
      <trkpt lat="47.50633" lon="6.72753">
        <ele>381</ele>
        <time>2015-11-29T08:52:01.000Z</time>
      </trkpt>
      <trkpt lat="47.50636" lon="6.72749">
        <ele>378</ele>
        <time>2015-11-29T08:52:03.000Z</time>
      </trkpt>
      <trkpt lat="47.50637" lon="6.72747">
        <ele>378</ele>
        <time>2015-11-29T08:52:03.999Z</time>
      </trkpt>
      <trkpt lat="47.50639" lon="6.72744">
        <ele>379</ele>
        <time>2015-11-29T08:52:05.000Z</time>
      </trkpt>
      <trkpt lat="47.50641" lon="6.72742">
        <ele>379</ele>
        <time>2015-11-29T08:52:06.000Z</time>
      </trkpt>
      <trkpt lat="47.50643" lon="6.72737">
        <ele>379</ele>
        <time>2015-11-29T08:52:08.001Z</time>
      </trkpt>
      <trkpt lat="47.50643" lon="6.72734">
        <ele>379</ele>
        <time>2015-11-29T08:52:08.999Z</time>
      </trkpt>
      <trkpt lat="47.50645" lon="6.72729">
        <ele>379</ele>
        <time>2015-11-29T08:52:10.999Z</time>
      </trkpt>
      <trkpt lat="47.50648" lon="6.72726">
        <ele>379</ele>
        <time>2015-11-29T08:52:12.000Z</time>
      </trkpt>
      <trkpt lat="47.50648" lon="6.72724">
        <ele>379</ele>
        <time>2015-11-29T08:52:13.000Z</time>
      </trkpt>
      <trkpt lat="47.50651" lon="6.7272">
        <ele>378</ele>
        <time>2015-11-29T08:52:14.000Z</time>
      </trkpt>
      <trkpt lat="47.50653" lon="6.72718">
        <ele>378</ele>
        <time>2015-11-29T08:52:15.000Z</time>
      </trkpt>
      <trkpt lat="47.50655" lon="6.72715">
        <ele>378</ele>
        <time>2015-11-29T08:52:16.000Z</time>
      </trkpt>
      <trkpt lat="47.50658" lon="6.72713">
        <ele>378</ele>
        <time>2015-11-29T08:52:17.000Z</time>
      </trkpt>
      <trkpt lat="47.50661" lon="6.72711">
        <ele>378</ele>
        <time>2015-11-29T08:52:18.000Z</time>
      </trkpt>
      <trkpt lat="47.50664" lon="6.72708">
        <ele>378</ele>
        <time>2015-11-29T08:52:19.000Z</time>
      </trkpt>
      <trkpt lat="47.50667" lon="6.72706">
        <ele>389</ele>
        <time>2015-11-29T08:52:20.000Z</time>
      </trkpt>
      <trkpt lat="47.50669" lon="6.72703">
        <ele>389</ele>
        <time>2015-11-29T08:52:21.000Z</time>
      </trkpt>
      <trkpt lat="47.50672" lon="6.72701">
        <ele>389</ele>
        <time>2015-11-29T08:52:22.000Z</time>
      </trkpt>
      <trkpt lat="47.50674" lon="6.72699">
        <ele>389</ele>
        <time>2015-11-29T08:52:23.000Z</time>
      </trkpt>
      <trkpt lat="47.50677" lon="6.72697">
        <ele>389</ele>
        <time>2015-11-29T08:52:24.000Z</time>
      </trkpt>
      <trkpt lat="47.50679" lon="6.72695">
        <ele>389</ele>
        <time>2015-11-29T08:52:25.000Z</time>
      </trkpt>
      <trkpt lat="47.50681" lon="6.72694">
        <ele>389</ele>
        <time>2015-11-29T08:52:26.000Z</time>
      </trkpt>
      <trkpt lat="47.50684" lon="6.72691">
        <ele>389</ele>
        <time>2015-11-29T08:52:28.000Z</time>
      </trkpt>
      <trkpt lat="47.50686" lon="6.72689">
        <ele>389</ele>
        <time>2015-11-29T08:52:29.000Z</time>
      </trkpt>
      <trkpt lat="47.5069" lon="6.72686">
        <ele>389</ele>
        <time>2015-11-29T08:52:31.000Z</time>
      </trkpt>
      <trkpt lat="47.50691" lon="6.72684">
        <ele>389</ele>
        <time>2015-11-29T08:52:32.000Z</time>
      </trkpt>
      <trkpt lat="47.50694" lon="6.7268">
        <ele>389</ele>
        <time>2015-11-29T08:52:34.000Z</time>
      </trkpt>
      <trkpt lat="47.50696" lon="6.72679">
        <ele>389</ele>
        <time>2015-11-29T08:52:35.000Z</time>
      </trkpt>
      <trkpt lat="47.50699" lon="6.72676">
        <ele>390</ele>
        <time>2015-11-29T08:52:37.000Z</time>
      </trkpt>
      <trkpt lat="47.50702" lon="6.72674">
        <ele>390</ele>
        <time>2015-11-29T08:52:38.000Z</time>
      </trkpt>
      <trkpt lat="47.50705" lon="6.72672">
        <ele>391</ele>
        <time>2015-11-29T08:52:39.000Z</time>
      </trkpt>
      <trkpt lat="47.50708" lon="6.72669">
        <ele>391</ele>
        <time>2015-11-29T08:52:40.000Z</time>
      </trkpt>
      <trkpt lat="47.5071" lon="6.72666">
        <ele>387</ele>
        <time>2015-11-29T08:52:41.000Z</time>
      </trkpt>
      <trkpt lat="47.50712" lon="6.72664">
        <ele>387</ele>
        <time>2015-11-29T08:52:42.000Z</time>
      </trkpt>
      <trkpt lat="47.50714" lon="6.7266">
        <ele>387</ele>
        <time>2015-11-29T08:52:44.000Z</time>
      </trkpt>
      <trkpt lat="47.50716" lon="6.72659">
        <ele>387</ele>
        <time>2015-11-29T08:52:45.000Z</time>
      </trkpt>
      <trkpt lat="47.50718" lon="6.72656">
        <ele>387</ele>
        <time>2015-11-29T08:52:46.000Z</time>
      </trkpt>
      <trkpt lat="47.50719" lon="6.72654">
        <ele>388</ele>
        <time>2015-11-29T08:52:47.000Z</time>
      </trkpt>
      <trkpt lat="47.50721" lon="6.72651">
        <ele>388</ele>
        <time>2015-11-29T08:52:48.000Z</time>
      </trkpt>
      <trkpt lat="47.50724" lon="6.72648">
        <ele>388</ele>
        <time>2015-11-29T08:52:49.000Z</time>
      </trkpt>
      <trkpt lat="47.50726" lon="6.72646">
        <ele>388</ele>
        <time>2015-11-29T08:52:50.000Z</time>
      </trkpt>
      <trkpt lat="47.50728" lon="6.72644">
        <ele>388</ele>
        <time>2015-11-29T08:52:51.000Z</time>
      </trkpt>
      <trkpt lat="47.5073" lon="6.72642">
        <ele>388</ele>
        <time>2015-11-29T08:52:52.000Z</time>
      </trkpt>
      <trkpt lat="47.50733" lon="6.7264">
        <ele>388</ele>
        <time>2015-11-29T08:52:53.000Z</time>
      </trkpt>
      <trkpt lat="47.50735" lon="6.72638">
        <ele>388</ele>
        <time>2015-11-29T08:52:54.000Z</time>
      </trkpt>
      <trkpt lat="47.50737" lon="6.72636">
        <ele>388</ele>
        <time>2015-11-29T08:52:55.000Z</time>
      </trkpt>
      <trkpt lat="47.5074" lon="6.72634">
        <ele>388</ele>
        <time>2015-11-29T08:52:56.000Z</time>
      </trkpt>
      <trkpt lat="47.50742" lon="6.72631">
        <ele>388</ele>
        <time>2015-11-29T08:52:57.000Z</time>
      </trkpt>
      <trkpt lat="47.50745" lon="6.72628">
        <ele>388</ele>
        <time>2015-11-29T08:52:58.000Z</time>
      </trkpt>
      <trkpt lat="47.50746" lon="6.72626">
        <ele>388</ele>
        <time>2015-11-29T08:52:59.000Z</time>
      </trkpt>
      <trkpt lat="47.50748" lon="6.72624">
        <ele>388</ele>
        <time>2015-11-29T08:53:00.000Z</time>
      </trkpt>
      <trkpt lat="47.50751" lon="6.72621">
        <ele>397</ele>
        <time>2015-11-29T08:53:01.000Z</time>
      </trkpt>
      <trkpt lat="47.50752" lon="6.72619">
        <ele>397</ele>
        <time>2015-11-29T08:53:02.000Z</time>
      </trkpt>
      <trkpt lat="47.50755" lon="6.72616">
        <ele>397</ele>
        <time>2015-11-29T08:53:03.000Z</time>
      </trkpt>
      <trkpt lat="47.50758" lon="6.72613">
        <ele>397</ele>
        <time>2015-11-29T08:53:04.000Z</time>
      </trkpt>
      <trkpt lat="47.50761" lon="6.7261">
        <ele>396</ele>
        <time>2015-11-29T08:53:05.000Z</time>
      </trkpt>
      <trkpt lat="47.50764" lon="6.72606">
        <ele>396</ele>
        <time>2015-11-29T08:53:06.000Z</time>
      </trkpt>
      <trkpt lat="47.50766" lon="6.72603">
        <ele>396</ele>
        <time>2015-11-29T08:53:07.000Z</time>
      </trkpt>
      <trkpt lat="47.50768" lon="6.72601">
        <ele>396</ele>
        <time>2015-11-29T08:53:08.000Z</time>
      </trkpt>
      <trkpt lat="47.5077" lon="6.72598">
        <ele>396</ele>
        <time>2015-11-29T08:53:09.000Z</time>
      </trkpt>
      <trkpt lat="47.50772" lon="6.72595">
        <ele>396</ele>
        <time>2015-11-29T08:53:10.000Z</time>
      </trkpt>
      <trkpt lat="47.50774" lon="6.72592">
        <ele>396</ele>
        <time>2015-11-29T08:53:11.000Z</time>
      </trkpt>
      <trkpt lat="47.50776" lon="6.72589">
        <ele>396</ele>
        <time>2015-11-29T08:53:12.000Z</time>
      </trkpt>
      <trkpt lat="47.50779" lon="6.72586">
        <ele>397</ele>
        <time>2015-11-29T08:53:13.000Z</time>
      </trkpt>
      <trkpt lat="47.50781" lon="6.72583">
        <ele>391</ele>
        <time>2015-11-29T08:53:14.000Z</time>
      </trkpt>
      <trkpt lat="47.50782" lon="6.72581">
        <ele>391</ele>
        <time>2015-11-29T08:53:15.000Z</time>
      </trkpt>
      <trkpt lat="47.50784" lon="6.72578">
        <ele>391</ele>
        <time>2015-11-29T08:53:16.000Z</time>
      </trkpt>
      <trkpt lat="47.50785" lon="6.72576">
        <ele>391</ele>
        <time>2015-11-29T08:53:17.000Z</time>
      </trkpt>
      <trkpt lat="47.50787" lon="6.72573">
        <ele>391</ele>
        <time>2015-11-29T08:53:18.000Z</time>
      </trkpt>
      <trkpt lat="47.50789" lon="6.72571">
        <ele>391</ele>
        <time>2015-11-29T08:53:19.000Z</time>
      </trkpt>
      <trkpt lat="47.5079" lon="6.72568">
        <ele>391</ele>
        <time>2015-11-29T08:53:20.000Z</time>
      </trkpt>
      <trkpt lat="47.50792" lon="6.72566">
        <ele>392</ele>
        <time>2015-11-29T08:53:21.000Z</time>
      </trkpt>
      <trkpt lat="47.50794" lon="6.72564">
        <ele>392</ele>
        <time>2015-11-29T08:53:22.000Z</time>
      </trkpt>
      <trkpt lat="47.50796" lon="6.72561">
        <ele>392</ele>
        <time>2015-11-29T08:53:23.000Z</time>
      </trkpt>
      <trkpt lat="47.50798" lon="6.72558">
        <ele>392</ele>
        <time>2015-11-29T08:53:24.000Z</time>
      </trkpt>
      <trkpt lat="47.508" lon="6.72555">
        <ele>392</ele>
        <time>2015-11-29T08:53:25.000Z</time>
      </trkpt>
      <trkpt lat="47.50803" lon="6.72552">
        <ele>392</ele>
        <time>2015-11-29T08:53:26.000Z</time>
      </trkpt>
      <trkpt lat="47.50805" lon="6.7255">
        <ele>392</ele>
        <time>2015-11-29T08:53:27.000Z</time>
      </trkpt>
      <trkpt lat="47.50807" lon="6.72547">
        <ele>392</ele>
        <time>2015-11-29T08:53:28.000Z</time>
      </trkpt>
      <trkpt lat="47.5081" lon="6.72545">
        <ele>392</ele>
        <time>2015-11-29T08:53:29.000Z</time>
      </trkpt>
      <trkpt lat="47.50813" lon="6.72543">
        <ele>392</ele>
        <time>2015-11-29T08:53:30.000Z</time>
      </trkpt>
      <trkpt lat="47.50816" lon="6.72542">
        <ele>392</ele>
        <time>2015-11-29T08:53:31.000Z</time>
      </trkpt>
      <trkpt lat="47.5082" lon="6.72541">
        <ele>392</ele>
        <time>2015-11-29T08:53:32.000Z</time>
      </trkpt>
      <trkpt lat="47.50823" lon="6.7254">
        <ele>392</ele>
        <time>2015-11-29T08:53:33.000Z</time>
      </trkpt>
      <trkpt lat="47.50827" lon="6.72538">
        <ele>392</ele>
        <time>2015-11-29T08:53:34.000Z</time>
      </trkpt>
      <trkpt lat="47.5083" lon="6.72537">
        <ele>392</ele>
        <time>2015-11-29T08:53:35.000Z</time>
      </trkpt>
      <trkpt lat="47.50833" lon="6.72535">
        <ele>392</ele>
        <time>2015-11-29T08:53:36.000Z</time>
      </trkpt>
      <trkpt lat="47.50836" lon="6.72534">
        <ele>400</ele>
        <time>2015-11-29T08:53:37.000Z</time>
      </trkpt>
      <trkpt lat="47.50838" lon="6.72533">
        <ele>400</ele>
        <time>2015-11-29T08:53:38.000Z</time>
      </trkpt>
      <trkpt lat="47.50841" lon="6.72533">
        <ele>400</ele>
        <time>2015-11-29T08:53:39.000Z</time>
      </trkpt>
      <trkpt lat="47.50843" lon="6.72532">
        <ele>400</ele>
        <time>2015-11-29T08:53:40.000Z</time>
      </trkpt>
      <trkpt lat="47.50846" lon="6.7253">
        <ele>400</ele>
        <time>2015-11-29T08:53:41.000Z</time>
      </trkpt>
      <trkpt lat="47.50848" lon="6.72529">
        <ele>400</ele>
        <time>2015-11-29T08:53:42.000Z</time>
      </trkpt>
      <trkpt lat="47.5085" lon="6.72528">
        <ele>401</ele>
        <time>2015-11-29T08:53:43.000Z</time>
      </trkpt>
      <trkpt lat="47.50853" lon="6.72527">
        <ele>401</ele>
        <time>2015-11-29T08:53:44.000Z</time>
      </trkpt>
      <trkpt lat="47.50855" lon="6.72526">
        <ele>401</ele>
        <time>2015-11-29T08:53:45.000Z</time>
      </trkpt>
      <trkpt lat="47.50857" lon="6.72526">
        <ele>401</ele>
        <time>2015-11-29T08:53:46.000Z</time>
      </trkpt>
      <trkpt lat="47.5086" lon="6.72525">
        <ele>401</ele>
        <time>2015-11-29T08:53:47.000Z</time>
      </trkpt>
      <trkpt lat="47.50862" lon="6.72524">
        <ele>402</ele>
        <time>2015-11-29T08:53:48.000Z</time>
      </trkpt>
      <trkpt lat="47.50865" lon="6.72524">
        <ele>402</ele>
        <time>2015-11-29T08:53:49.000Z</time>
      </trkpt>
      <trkpt lat="47.50868" lon="6.72523">
        <ele>402</ele>
        <time>2015-11-29T08:53:50.000Z</time>
      </trkpt>
      <trkpt lat="47.5087" lon="6.72522">
        <ele>402</ele>
        <time>2015-11-29T08:53:51.000Z</time>
      </trkpt>
      <trkpt lat="47.50874" lon="6.72521">
        <ele>403</ele>
        <time>2015-11-29T08:53:53.000Z</time>
      </trkpt>
      <trkpt lat="47.50876" lon="6.7252">
        <ele>403</ele>
        <time>2015-11-29T08:53:54.000Z</time>
      </trkpt>
      <trkpt lat="47.50879" lon="6.72518">
        <ele>403</ele>
        <time>2015-11-29T08:53:56.000Z</time>
      </trkpt>
      <trkpt lat="47.50881" lon="6.72517">
        <ele>403</ele>
        <time>2015-11-29T08:53:57.000Z</time>
      </trkpt>
      <trkpt lat="47.50884" lon="6.72516">
        <ele>404</ele>
        <time>2015-11-29T08:53:59.000Z</time>
      </trkpt>
      <trkpt lat="47.50886" lon="6.72516">
        <ele>404</ele>
        <time>2015-11-29T08:54:00.000Z</time>
      </trkpt>
      <trkpt lat="47.5089" lon="6.72515">
        <ele>404</ele>
        <time>2015-11-29T08:54:02.000Z</time>
      </trkpt>
      <trkpt lat="47.50892" lon="6.72515">
        <ele>404</ele>
        <time>2015-11-29T08:54:03.000Z</time>
      </trkpt>
      <trkpt lat="47.50896" lon="6.72513">
        <ele>405</ele>
        <time>2015-11-29T08:54:06.000Z</time>
      </trkpt>
      <trkpt lat="47.50898" lon="6.72512">
        <ele>405</ele>
        <time>2015-11-29T08:54:07.000Z</time>
      </trkpt>
      <trkpt lat="47.50901" lon="6.72511">
        <ele>405</ele>
        <time>2015-11-29T08:54:08.000Z</time>
      </trkpt>
      <trkpt lat="47.50904" lon="6.72511">
        <ele>405</ele>
        <time>2015-11-29T08:54:09.000Z</time>
      </trkpt>
      <trkpt lat="47.50907" lon="6.72511">
        <ele>405</ele>
        <time>2015-11-29T08:54:11.000Z</time>
      </trkpt>
      <trkpt lat="47.50909" lon="6.72511">
        <ele>405</ele>
        <time>2015-11-29T08:54:12.000Z</time>
      </trkpt>
      <trkpt lat="47.50912" lon="6.72512">
        <ele>406</ele>
        <time>2015-11-29T08:54:14.000Z</time>
      </trkpt>
      <trkpt lat="47.50914" lon="6.72511">
        <ele>406</ele>
        <time>2015-11-29T08:54:15.000Z</time>
      </trkpt>
      <trkpt lat="47.50918" lon="6.72511">
        <ele>410</ele>
        <time>2015-11-29T08:54:17.000Z</time>
      </trkpt>
      <trkpt lat="47.5092" lon="6.7251">
        <ele>410</ele>
        <time>2015-11-29T08:54:18.000Z</time>
      </trkpt>
      <trkpt lat="47.50924" lon="6.72508">
        <ele>410</ele>
        <time>2015-11-29T08:54:21.000Z</time>
      </trkpt>
      <trkpt lat="47.50925" lon="6.72507">
        <ele>410</ele>
        <time>2015-11-29T08:54:22.000Z</time>
      </trkpt>
      <trkpt lat="47.50929" lon="6.72506">
        <ele>411</ele>
        <time>2015-11-29T08:54:24.000Z</time>
      </trkpt>
      <trkpt lat="47.5093" lon="6.72506">
        <ele>411</ele>
        <time>2015-11-29T08:54:25.000Z</time>
      </trkpt>
      <trkpt lat="47.50933" lon="6.72505">
        <ele>412</ele>
        <time>2015-11-29T08:54:27.000Z</time>
      </trkpt>
      <trkpt lat="47.50935" lon="6.72505">
        <ele>412</ele>
        <time>2015-11-29T08:54:28.000Z</time>
      </trkpt>
      <trkpt lat="47.50938" lon="6.72505">
        <ele>412</ele>
        <time>2015-11-29T08:54:30.000Z</time>
      </trkpt>
      <trkpt lat="47.5094" lon="6.72505">
        <ele>413</ele>
        <time>2015-11-29T08:54:31.000Z</time>
      </trkpt>
      <trkpt lat="47.50944" lon="6.72504">
        <ele>413</ele>
        <time>2015-11-29T08:54:35.000Z</time>
      </trkpt>
      <trkpt lat="47.50945" lon="6.72504">
        <ele>413</ele>
        <time>2015-11-29T08:54:36.000Z</time>
      </trkpt>
      <trkpt lat="47.50949" lon="6.72502">
        <ele>414</ele>
        <time>2015-11-29T08:54:38.000Z</time>
      </trkpt>
      <trkpt lat="47.50951" lon="6.72502">
        <ele>414</ele>
        <time>2015-11-29T08:54:39.000Z</time>
      </trkpt>
      <trkpt lat="47.50954" lon="6.725">
        <ele>414</ele>
        <time>2015-11-29T08:54:41.000Z</time>
      </trkpt>
      <trkpt lat="47.50956" lon="6.72499">
        <ele>408</ele>
        <time>2015-11-29T08:54:42.000Z</time>
      </trkpt>
      <trkpt lat="47.5096" lon="6.72497">
        <ele>409</ele>
        <time>2015-11-29T08:54:46.000Z</time>
      </trkpt>
      <trkpt lat="47.50961" lon="6.72497">
        <ele>409</ele>
        <time>2015-11-29T08:54:47.000Z</time>
      </trkpt>
      <trkpt lat="47.50965" lon="6.72497">
        <ele>409</ele>
        <time>2015-11-29T08:54:50.000Z</time>
      </trkpt>
      <trkpt lat="47.50966" lon="6.72497">
        <ele>409</ele>
        <time>2015-11-29T08:54:51.000Z</time>
      </trkpt>
      <trkpt lat="47.5097" lon="6.72498">
        <ele>410</ele>
        <time>2015-11-29T08:54:54.000Z</time>
      </trkpt>
      <trkpt lat="47.50972" lon="6.72499">
        <ele>410</ele>
        <time>2015-11-29T08:54:55.000Z</time>
      </trkpt>
      <trkpt lat="47.50974" lon="6.725">
        <ele>410</ele>
        <time>2015-11-29T08:54:56.000Z</time>
      </trkpt>
      <trkpt lat="47.50977" lon="6.725">
        <ele>416</ele>
        <time>2015-11-29T08:54:57.000Z</time>
      </trkpt>
      <trkpt lat="47.50979" lon="6.72501">
        <ele>416</ele>
        <time>2015-11-29T08:54:58.000Z</time>
      </trkpt>
      <trkpt lat="47.50981" lon="6.72501">
        <ele>416</ele>
        <time>2015-11-29T08:54:59.000Z</time>
      </trkpt>
      <trkpt lat="47.50985" lon="6.72502">
        <ele>417</ele>
        <time>2015-11-29T08:55:01.000Z</time>
      </trkpt>
      <trkpt lat="47.50988" lon="6.72502">
        <ele>417</ele>
        <time>2015-11-29T08:55:02.000Z</time>
      </trkpt>
      <trkpt lat="47.5099" lon="6.72502">
        <ele>417</ele>
        <time>2015-11-29T08:55:03.000Z</time>
      </trkpt>
      <trkpt lat="47.50992" lon="6.72502">
        <ele>417</ele>
        <time>2015-11-29T08:55:04.000Z</time>
      </trkpt>
      <trkpt lat="47.50996" lon="6.72502">
        <ele>417</ele>
        <time>2015-11-29T08:55:06.000Z</time>
      </trkpt>
      <trkpt lat="47.50998" lon="6.72503">
        <ele>417</ele>
        <time>2015-11-29T08:55:07.000Z</time>
      </trkpt>
      <trkpt lat="47.51002" lon="6.72503">
        <ele>418</ele>
        <time>2015-11-29T08:55:09.000Z</time>
      </trkpt>
      <trkpt lat="47.51003" lon="6.72504">
        <ele>419</ele>
        <time>2015-11-29T08:55:10.000Z</time>
      </trkpt>
      <trkpt lat="47.51007" lon="6.72504">
        <ele>419</ele>
        <time>2015-11-29T08:55:12.000Z</time>
      </trkpt>
      <trkpt lat="47.5101" lon="6.72504">
        <ele>420</ele>
        <time>2015-11-29T08:55:13.000Z</time>
      </trkpt>
      <trkpt lat="47.51012" lon="6.72505">
        <ele>421</ele>
        <time>2015-11-29T08:55:14.000Z</time>
      </trkpt>
      <trkpt lat="47.51014" lon="6.72506">
        <ele>421</ele>
        <time>2015-11-29T08:55:15.000Z</time>
      </trkpt>
      <trkpt lat="47.51016" lon="6.72507">
        <ele>422</ele>
        <time>2015-11-29T08:55:16.000Z</time>
      </trkpt>
      <trkpt lat="47.51019" lon="6.72507">
        <ele>422</ele>
        <time>2015-11-29T08:55:17.000Z</time>
      </trkpt>
      <trkpt lat="47.51021" lon="6.72508">
        <ele>422</ele>
        <time>2015-11-29T08:55:18.000Z</time>
      </trkpt>
      <trkpt lat="47.51023" lon="6.72509">
        <ele>423</ele>
        <time>2015-11-29T08:55:19.000Z</time>
      </trkpt>
      <trkpt lat="47.51027" lon="6.7251">
        <ele>423</ele>
        <time>2015-11-29T08:55:21.000Z</time>
      </trkpt>
      <trkpt lat="47.51029" lon="6.7251">
        <ele>424</ele>
        <time>2015-11-29T08:55:22.000Z</time>
      </trkpt>
      <trkpt lat="47.51033" lon="6.7251">
        <ele>424</ele>
        <time>2015-11-29T08:55:24.000Z</time>
      </trkpt>
      <trkpt lat="47.51034" lon="6.7251">
        <ele>424</ele>
        <time>2015-11-29T08:55:25.000Z</time>
      </trkpt>
      <trkpt lat="47.51038" lon="6.72511">
        <ele>425</ele>
        <time>2015-11-29T08:55:27.000Z</time>
      </trkpt>
      <trkpt lat="47.51039" lon="6.72511">
        <ele>425</ele>
        <time>2015-11-29T08:55:28.000Z</time>
      </trkpt>
      <trkpt lat="47.51044" lon="6.72511">
        <ele>425</ele>
        <time>2015-11-29T08:55:31.000Z</time>
      </trkpt>
      <trkpt lat="47.51045" lon="6.72511">
        <ele>425</ele>
        <time>2015-11-29T08:55:32.000Z</time>
      </trkpt>
      <trkpt lat="47.51049" lon="6.72513">
        <ele>426</ele>
        <time>2015-11-29T08:55:34.000Z</time>
      </trkpt>
      <trkpt lat="47.51051" lon="6.72513">
        <ele>426</ele>
        <time>2015-11-29T08:55:35.000Z</time>
      </trkpt>
      <trkpt lat="47.51055" lon="6.72514">
        <ele>426</ele>
        <time>2015-11-29T08:55:38.000Z</time>
      </trkpt>
      <trkpt lat="47.51056" lon="6.72515">
        <ele>427</ele>
        <time>2015-11-29T08:55:39.000Z</time>
      </trkpt>
      <trkpt lat="47.51059" lon="6.72518">
        <ele>427</ele>
        <time>2015-11-29T08:55:41.000Z</time>
      </trkpt>
      <trkpt lat="47.51061" lon="6.72519">
        <ele>427</ele>
        <time>2015-11-29T08:55:42.000Z</time>
      </trkpt>
      <trkpt lat="47.51064" lon="6.72522">
        <ele>427</ele>
        <time>2015-11-29T08:55:44.000Z</time>
      </trkpt>
      <trkpt lat="47.51066" lon="6.72523">
        <ele>427</ele>
        <time>2015-11-29T08:55:45.000Z</time>
      </trkpt>
      <trkpt lat="47.51069" lon="6.72525">
        <ele>427</ele>
        <time>2015-11-29T08:55:47.000Z</time>
      </trkpt>
      <trkpt lat="47.51071" lon="6.72526">
        <ele>427</ele>
        <time>2015-11-29T08:55:48.000Z</time>
      </trkpt>
      <trkpt lat="47.51074" lon="6.72528">
        <ele>427</ele>
        <time>2015-11-29T08:55:50.000Z</time>
      </trkpt>
      <trkpt lat="47.51076" lon="6.72529">
        <ele>427</ele>
        <time>2015-11-29T08:55:51.000Z</time>
      </trkpt>
      <trkpt lat="47.51079" lon="6.72531">
        <ele>427</ele>
        <time>2015-11-29T08:55:53.000Z</time>
      </trkpt>
      <trkpt lat="47.51081" lon="6.72532">
        <ele>427</ele>
        <time>2015-11-29T08:55:54.000Z</time>
      </trkpt>
      <trkpt lat="47.51085" lon="6.72533">
        <ele>430</ele>
        <time>2015-11-29T08:55:57.000Z</time>
      </trkpt>
      <trkpt lat="47.51087" lon="6.72534">
        <ele>430</ele>
        <time>2015-11-29T08:55:58.000Z</time>
      </trkpt>
      <trkpt lat="47.51091" lon="6.72533">
        <ele>431</ele>
        <time>2015-11-29T08:56:00.000Z</time>
      </trkpt>
      <trkpt lat="47.51092" lon="6.72532">
        <ele>431</ele>
        <time>2015-11-29T08:56:01.000Z</time>
      </trkpt>
      <trkpt lat="47.51095" lon="6.72533">
        <ele>431</ele>
        <time>2015-11-29T08:56:03.000Z</time>
      </trkpt>
      <trkpt lat="47.51097" lon="6.72534">
        <ele>431</ele>
        <time>2015-11-29T08:56:04.000Z</time>
      </trkpt>
      <trkpt lat="47.51101" lon="6.72535">
        <ele>430</ele>
        <time>2015-11-29T08:56:06.000Z</time>
      </trkpt>
      <trkpt lat="47.51102" lon="6.72536">
        <ele>430</ele>
        <time>2015-11-29T08:56:07.000Z</time>
      </trkpt>
      <trkpt lat="47.51105" lon="6.72538">
        <ele>430</ele>
        <time>2015-11-29T08:56:09.000Z</time>
      </trkpt>
      <trkpt lat="47.51107" lon="6.72539">
        <ele>430</ele>
        <time>2015-11-29T08:56:10.000Z</time>
      </trkpt>
      <trkpt lat="47.5111" lon="6.7254">
        <ele>430</ele>
        <time>2015-11-29T08:56:12.000Z</time>
      </trkpt>
      <trkpt lat="47.51111" lon="6.72541">
        <ele>430</ele>
        <time>2015-11-29T08:56:13.000Z</time>
      </trkpt>
      <trkpt lat="47.51114" lon="6.72543">
        <ele>430</ele>
        <time>2015-11-29T08:56:15.000Z</time>
      </trkpt>
      <trkpt lat="47.51116" lon="6.72543">
        <ele>430</ele>
        <time>2015-11-29T08:56:16.000Z</time>
      </trkpt>
      <trkpt lat="47.51118" lon="6.72543">
        <ele>430</ele>
        <time>2015-11-29T08:56:17.000Z</time>
      </trkpt>
      <trkpt lat="47.51121" lon="6.72542">
        <ele>430</ele>
        <time>2015-11-29T08:56:18.000Z</time>
      </trkpt>
      <trkpt lat="47.51125" lon="6.72542">
        <ele>430</ele>
        <time>2015-11-29T08:56:20.000Z</time>
      </trkpt>
      <trkpt lat="47.51127" lon="6.72542">
        <ele>430</ele>
        <time>2015-11-29T08:56:21.000Z</time>
      </trkpt>
      <trkpt lat="47.51131" lon="6.72544">
        <ele>430</ele>
        <time>2015-11-29T08:56:24.000Z</time>
      </trkpt>
      <trkpt lat="47.51132" lon="6.72545">
        <ele>430</ele>
        <time>2015-11-29T08:56:25.000Z</time>
      </trkpt>
      <trkpt lat="47.51135" lon="6.72547">
        <ele>430</ele>
        <time>2015-11-29T08:56:27.000Z</time>
      </trkpt>
      <trkpt lat="47.51136" lon="6.72548">
        <ele>430</ele>
        <time>2015-11-29T08:56:28.002Z</time>
      </trkpt>
      <trkpt lat="47.5114" lon="6.72547">
        <ele>430</ele>
        <time>2015-11-29T08:56:30.000Z</time>
      </trkpt>
      <trkpt lat="47.51141" lon="6.72546">
        <ele>430</ele>
        <time>2015-11-29T08:56:31.000Z</time>
      </trkpt>
      <trkpt lat="47.51145" lon="6.72546">
        <ele>430</ele>
        <time>2015-11-29T08:56:34.000Z</time>
      </trkpt>
      <trkpt lat="47.51146" lon="6.72547">
        <ele>430</ele>
        <time>2015-11-29T08:56:35.000Z</time>
      </trkpt>
      <trkpt lat="47.5115" lon="6.72547">
        <ele>430</ele>
        <time>2015-11-29T08:56:42.000Z</time>
      </trkpt>
      <trkpt lat="47.51151" lon="6.72547">
        <ele>430</ele>
        <time>2015-11-29T08:56:43.000Z</time>
      </trkpt>
      <trkpt lat="47.51155" lon="6.72547">
        <ele>430</ele>
        <time>2015-11-29T08:57:17.000Z</time>
      </trkpt>
      <trkpt lat="47.51155" lon="6.72548">
        <ele>430</ele>
        <time>2015-11-29T08:57:18.000Z</time>
      </trkpt>
      <trkpt lat="47.5116" lon="6.72549">
        <ele>430</ele>
        <time>2015-11-29T08:57:52.000Z</time>
      </trkpt>
      <trkpt lat="47.5116" lon="6.72549">
        <ele>430</ele>
        <time>2015-11-29T08:57:53.000Z</time>
      </trkpt>
      <trkpt lat="47.51164" lon="6.72551">
        <ele>430</ele>
        <time>2015-11-29T08:58:15.000Z</time>
      </trkpt>
      <trkpt lat="47.51165" lon="6.72552">
        <ele>430</ele>
        <time>2015-11-29T08:58:16.000Z</time>
      </trkpt>
      <trkpt lat="47.51169" lon="6.7255">
        <ele>430</ele>
        <time>2015-11-29T08:58:18.000Z</time>
      </trkpt>
      <trkpt lat="47.51171" lon="6.72548">
        <ele>430</ele>
        <time>2015-11-29T08:58:19.000Z</time>
      </trkpt>
      <trkpt lat="47.51174" lon="6.72546">
        <ele>430</ele>
        <time>2015-11-29T08:58:20.000Z</time>
      </trkpt>
      <trkpt lat="47.51177" lon="6.72544">
        <ele>431</ele>
        <time>2015-11-29T08:58:21.001Z</time>
      </trkpt>
      <trkpt lat="47.51181" lon="6.72544">
        <ele>431</ele>
        <time>2015-11-29T08:58:22.000Z</time>
      </trkpt>
      <trkpt lat="47.51183" lon="6.72545">
        <ele>430</ele>
        <time>2015-11-29T08:58:23.000Z</time>
      </trkpt>
      <trkpt lat="47.51185" lon="6.72544">
        <ele>431</ele>
        <time>2015-11-29T08:58:23.999Z</time>
      </trkpt>
      <trkpt lat="47.51187" lon="6.72548">
        <ele>430</ele>
        <time>2015-11-29T08:58:25.000Z</time>
      </trkpt>
      <trkpt lat="47.51189" lon="6.7255">
        <ele>430</ele>
        <time>2015-11-29T08:58:26.000Z</time>
      </trkpt>
      <trkpt lat="47.51191" lon="6.72552">
        <ele>430</ele>
        <time>2015-11-29T08:58:27.000Z</time>
      </trkpt>
      <trkpt lat="47.51195" lon="6.72553">
        <ele>430</ele>
        <time>2015-11-29T08:58:29.000Z</time>
      </trkpt>
      <trkpt lat="47.51197" lon="6.72553">
        <ele>430</ele>
        <time>2015-11-29T08:58:30.000Z</time>
      </trkpt>
      <trkpt lat="47.51199" lon="6.72552">
        <ele>430</ele>
        <time>2015-11-29T08:58:33.000Z</time>
      </trkpt>
      <trkpt lat="47.51202" lon="6.72554">
        <ele>430</ele>
        <time>2015-11-29T08:58:34.000Z</time>
      </trkpt>
      <trkpt lat="47.51204" lon="6.72556">
        <ele>430</ele>
        <time>2015-11-29T08:58:35.000Z</time>
      </trkpt>
      <trkpt lat="47.51209" lon="6.7256">
        <ele>430</ele>
        <time>2015-11-29T08:58:36.000Z</time>
      </trkpt>
      <trkpt lat="47.51211" lon="6.72561">
        <ele>430</ele>
        <time>2015-11-29T08:58:37.001Z</time>
      </trkpt>
      <trkpt lat="47.51216" lon="6.72563">
        <ele>430</ele>
        <time>2015-11-29T08:58:38.000Z</time>
      </trkpt>
      <trkpt lat="47.51218" lon="6.72564">
        <ele>429</ele>
        <time>2015-11-29T08:58:39.001Z</time>
      </trkpt>
      <trkpt lat="47.5122" lon="6.72564">
        <ele>429</ele>
        <time>2015-11-29T08:58:40.000Z</time>
      </trkpt>
      <trkpt lat="47.51223" lon="6.72564">
        <ele>429</ele>
        <time>2015-11-29T08:58:42.000Z</time>
      </trkpt>
      <trkpt lat="47.51225" lon="6.72564">
        <ele>429</ele>
        <time>2015-11-29T08:58:43.000Z</time>
      </trkpt>
      <trkpt lat="47.51228" lon="6.72565">
        <ele>429</ele>
        <time>2015-11-29T08:58:45.000Z</time>
      </trkpt>
      <trkpt lat="47.5123" lon="6.72566">
        <ele>429</ele>
        <time>2015-11-29T08:58:46.000Z</time>
      </trkpt>
      <trkpt lat="47.51234" lon="6.72568">
        <ele>429</ele>
        <time>2015-11-29T08:58:48.000Z</time>
      </trkpt>
      <trkpt lat="47.51236" lon="6.72569">
        <ele>429</ele>
        <time>2015-11-29T08:58:49.000Z</time>
      </trkpt>
      <trkpt lat="47.51238" lon="6.7257">
        <ele>428</ele>
        <time>2015-11-29T08:58:50.000Z</time>
      </trkpt>
      <trkpt lat="47.51241" lon="6.72571">
        <ele>428</ele>
        <time>2015-11-29T08:58:51.000Z</time>
      </trkpt>
      <trkpt lat="47.51244" lon="6.72572">
        <ele>428</ele>
        <time>2015-11-29T08:58:52.000Z</time>
      </trkpt>
      <trkpt lat="47.51247" lon="6.72573">
        <ele>428</ele>
        <time>2015-11-29T08:58:53.000Z</time>
      </trkpt>
      <trkpt lat="47.5125" lon="6.72575">
        <ele>427</ele>
        <time>2015-11-29T08:58:54.000Z</time>
      </trkpt>
      <trkpt lat="47.51254" lon="6.72577">
        <ele>426</ele>
        <time>2015-11-29T08:58:55.000Z</time>
      </trkpt>
      <trkpt lat="47.51258" lon="6.72579">
        <ele>426</ele>
        <time>2015-11-29T08:58:56.000Z</time>
      </trkpt>
      <trkpt lat="47.51262" lon="6.72582">
        <ele>427</ele>
        <time>2015-11-29T08:58:57.000Z</time>
      </trkpt>
      <trkpt lat="47.51266" lon="6.72584">
        <ele>425</ele>
        <time>2015-11-29T08:58:58.000Z</time>
      </trkpt>
      <trkpt lat="47.5127" lon="6.72587">
        <ele>424</ele>
        <time>2015-11-29T08:58:59.000Z</time>
      </trkpt>
      <trkpt lat="47.51273" lon="6.72589">
        <ele>424</ele>
        <time>2015-11-29T08:59:00.000Z</time>
      </trkpt>
      <trkpt lat="47.51276" lon="6.72591">
        <ele>424</ele>
        <time>2015-11-29T08:59:01.000Z</time>
      </trkpt>
      <trkpt lat="47.51279" lon="6.72593">
        <ele>424</ele>
        <time>2015-11-29T08:59:02.000Z</time>
      </trkpt>
      <trkpt lat="47.51283" lon="6.72595">
        <ele>424</ele>
        <time>2015-11-29T08:59:03.000Z</time>
      </trkpt>
      <trkpt lat="47.51287" lon="6.72597">
        <ele>424</ele>
        <time>2015-11-29T08:59:04.000Z</time>
      </trkpt>
      <trkpt lat="47.51291" lon="6.726">
        <ele>424</ele>
        <time>2015-11-29T08:59:05.000Z</time>
      </trkpt>
      <trkpt lat="47.51294" lon="6.72603">
        <ele>423</ele>
        <time>2015-11-29T08:59:06.000Z</time>
      </trkpt>
      <trkpt lat="47.51298" lon="6.72607">
        <ele>423</ele>
        <time>2015-11-29T08:59:07.000Z</time>
      </trkpt>
      <trkpt lat="47.51301" lon="6.72609">
        <ele>423</ele>
        <time>2015-11-29T08:59:08.000Z</time>
      </trkpt>
      <trkpt lat="47.51303" lon="6.72611">
        <ele>423</ele>
        <time>2015-11-29T08:59:09.000Z</time>
      </trkpt>
      <trkpt lat="47.51307" lon="6.72613">
        <ele>423</ele>
        <time>2015-11-29T08:59:11.000Z</time>
      </trkpt>
      <trkpt lat="47.51309" lon="6.72614">
        <ele>423</ele>
        <time>2015-11-29T08:59:12.000Z</time>
      </trkpt>
      <trkpt lat="47.51312" lon="6.72615">
        <ele>423</ele>
        <time>2015-11-29T08:59:15.000Z</time>
      </trkpt>
      <trkpt lat="47.51314" lon="6.72615">
        <ele>423</ele>
        <time>2015-11-29T08:59:16.000Z</time>
      </trkpt>
      <trkpt lat="47.51316" lon="6.72615">
        <ele>423</ele>
        <time>2015-11-29T08:59:17.000Z</time>
      </trkpt>
      <trkpt lat="47.51319" lon="6.72615">
        <ele>423</ele>
        <time>2015-11-29T08:59:18.000Z</time>
      </trkpt>
      <trkpt lat="47.51322" lon="6.72615">
        <ele>423</ele>
        <time>2015-11-29T08:59:19.000Z</time>
      </trkpt>
      <trkpt lat="47.51325" lon="6.72615">
        <ele>423</ele>
        <time>2015-11-29T08:59:20.000Z</time>
      </trkpt>
      <trkpt lat="47.51328" lon="6.72616">
        <ele>423</ele>
        <time>2015-11-29T08:59:21.000Z</time>
      </trkpt>
      <trkpt lat="47.51331" lon="6.72616">
        <ele>423</ele>
        <time>2015-11-29T08:59:22.000Z</time>
      </trkpt>
      <trkpt lat="47.51334" lon="6.72617">
        <ele>426</ele>
        <time>2015-11-29T08:59:23.000Z</time>
      </trkpt>
      <trkpt lat="47.51337" lon="6.72617">
        <ele>426</ele>
        <time>2015-11-29T08:59:24.000Z</time>
      </trkpt>
      <trkpt lat="47.5134" lon="6.72617">
        <ele>426</ele>
        <time>2015-11-29T08:59:25.000Z</time>
      </trkpt>
      <trkpt lat="47.51343" lon="6.72617">
        <ele>426</ele>
        <time>2015-11-29T08:59:26.000Z</time>
      </trkpt>
      <trkpt lat="47.51346" lon="6.72616">
        <ele>426</ele>
        <time>2015-11-29T08:59:27.000Z</time>
      </trkpt>
      <trkpt lat="47.51348" lon="6.72615">
        <ele>426</ele>
        <time>2015-11-29T08:59:28.000Z</time>
      </trkpt>
      <trkpt lat="47.51351" lon="6.72614">
        <ele>426</ele>
        <time>2015-11-29T08:59:29.000Z</time>
      </trkpt>
      <trkpt lat="47.51354" lon="6.72613">
        <ele>426</ele>
        <time>2015-11-29T08:59:30.000Z</time>
      </trkpt>
      <trkpt lat="47.51357" lon="6.72611">
        <ele>426</ele>
        <time>2015-11-29T08:59:31.000Z</time>
      </trkpt>
      <trkpt lat="47.51359" lon="6.72609">
        <ele>426</ele>
        <time>2015-11-29T08:59:32.000Z</time>
      </trkpt>
      <trkpt lat="47.5136" lon="6.72606">
        <ele>426</ele>
        <time>2015-11-29T08:59:33.000Z</time>
      </trkpt>
      <trkpt lat="47.51362" lon="6.72603">
        <ele>426</ele>
        <time>2015-11-29T08:59:34.000Z</time>
      </trkpt>
      <trkpt lat="47.51363" lon="6.726">
        <ele>426</ele>
        <time>2015-11-29T08:59:35.000Z</time>
      </trkpt>
      <trkpt lat="47.51365" lon="6.72597">
        <ele>426</ele>
        <time>2015-11-29T08:59:36.000Z</time>
      </trkpt>
      <trkpt lat="47.51366" lon="6.72594">
        <ele>426</ele>
        <time>2015-11-29T08:59:37.000Z</time>
      </trkpt>
      <trkpt lat="47.51367" lon="6.7259">
        <ele>426</ele>
        <time>2015-11-29T08:59:38.000Z</time>
      </trkpt>
      <trkpt lat="47.51368" lon="6.72587">
        <ele>426</ele>
        <time>2015-11-29T08:59:39.000Z</time>
      </trkpt>
      <trkpt lat="47.51368" lon="6.72583">
        <ele>426</ele>
        <time>2015-11-29T08:59:40.000Z</time>
      </trkpt>
      <trkpt lat="47.51368" lon="6.72577">
        <ele>426</ele>
        <time>2015-11-29T08:59:42.000Z</time>
      </trkpt>
      <trkpt lat="47.51368" lon="6.72574">
        <ele>426</ele>
        <time>2015-11-29T08:59:43.000Z</time>
      </trkpt>
      <trkpt lat="47.51369" lon="6.72568">
        <ele>426</ele>
        <time>2015-11-29T08:59:45.000Z</time>
      </trkpt>
      <trkpt lat="47.51369" lon="6.72564">
        <ele>426</ele>
        <time>2015-11-29T08:59:46.000Z</time>
      </trkpt>
      <trkpt lat="47.51369" lon="6.72563">
        <ele>426</ele>
        <time>2015-11-29T08:59:47.000Z</time>
      </trkpt>
      <trkpt lat="47.51371" lon="6.72557">
        <ele>426</ele>
        <time>2015-11-29T08:59:48.000Z</time>
      </trkpt>
      <trkpt lat="47.51372" lon="6.72552">
        <ele>426</ele>
        <time>2015-11-29T08:59:49.000Z</time>
      </trkpt>
      <trkpt lat="47.51372" lon="6.72547">
        <ele>426</ele>
        <time>2015-11-29T08:59:50.000Z</time>
      </trkpt>
      <trkpt lat="47.51372" lon="6.72542">
        <ele>426</ele>
        <time>2015-11-29T08:59:51.000Z</time>
      </trkpt>
      <trkpt lat="47.51372" lon="6.72537">
        <ele>426</ele>
        <time>2015-11-29T08:59:52.000Z</time>
      </trkpt>
      <trkpt lat="47.51372" lon="6.72532">
        <ele>426</ele>
        <time>2015-11-29T08:59:53.000Z</time>
      </trkpt>
      <trkpt lat="47.51372" lon="6.72527">
        <ele>426</ele>
        <time>2015-11-29T08:59:54.000Z</time>
      </trkpt>
      <trkpt lat="47.51372" lon="6.72522">
        <ele>426</ele>
        <time>2015-11-29T08:59:55.000Z</time>
      </trkpt>
      <trkpt lat="47.51372" lon="6.72517">
        <ele>426</ele>
        <time>2015-11-29T08:59:56.000Z</time>
      </trkpt>
      <trkpt lat="47.51372" lon="6.72512">
        <ele>426</ele>
        <time>2015-11-29T08:59:57.000Z</time>
      </trkpt>
      <trkpt lat="47.51371" lon="6.72507">
        <ele>426</ele>
        <time>2015-11-29T08:59:58.000Z</time>
      </trkpt>
      <trkpt lat="47.51371" lon="6.72502">
        <ele>426</ele>
        <time>2015-11-29T08:59:59.000Z</time>
      </trkpt>
      <trkpt lat="47.5137" lon="6.72497">
        <ele>427</ele>
        <time>2015-11-29T09:00:00.000Z</time>
      </trkpt>
      <trkpt lat="47.5137" lon="6.72492">
        <ele>427</ele>
        <time>2015-11-29T09:00:01.000Z</time>
      </trkpt>
      <trkpt lat="47.51369" lon="6.72488">
        <ele>427</ele>
        <time>2015-11-29T09:00:02.000Z</time>
      </trkpt>
      <trkpt lat="47.51368" lon="6.72483">
        <ele>427</ele>
        <time>2015-11-29T09:00:03.000Z</time>
      </trkpt>
      <trkpt lat="47.51368" lon="6.7248">
        <ele>427</ele>
        <time>2015-11-29T09:00:04.000Z</time>
      </trkpt>
      <trkpt lat="47.51369" lon="6.72473">
        <ele>427</ele>
        <time>2015-11-29T09:00:06.000Z</time>
      </trkpt>
      <trkpt lat="47.51369" lon="6.7247">
        <ele>427</ele>
        <time>2015-11-29T09:00:07.000Z</time>
      </trkpt>
      <trkpt lat="47.51368" lon="6.72466">
        <ele>427</ele>
        <time>2015-11-29T09:00:08.000Z</time>
      </trkpt>
      <trkpt lat="47.51367" lon="6.72463">
        <ele>427</ele>
        <time>2015-11-29T09:00:09.000Z</time>
      </trkpt>
      <trkpt lat="47.51366" lon="6.72457">
        <ele>427</ele>
        <time>2015-11-29T09:00:11.000Z</time>
      </trkpt>
      <trkpt lat="47.51365" lon="6.72454">
        <ele>427</ele>
        <time>2015-11-29T09:00:12.000Z</time>
      </trkpt>
      <trkpt lat="47.51364" lon="6.72451">
        <ele>428</ele>
        <time>2015-11-29T09:00:13.000Z</time>
      </trkpt>
      <trkpt lat="47.51363" lon="6.72447">
        <ele>428</ele>
        <time>2015-11-29T09:00:13.999Z</time>
      </trkpt>
      <trkpt lat="47.51362" lon="6.72442">
        <ele>428</ele>
        <time>2015-11-29T09:00:16.000Z</time>
      </trkpt>
      <trkpt lat="47.51361" lon="6.72439">
        <ele>428</ele>
        <time>2015-11-29T09:00:17.000Z</time>
      </trkpt>
      <trkpt lat="47.5136" lon="6.72432">
        <ele>429</ele>
        <time>2015-11-29T09:00:19.000Z</time>
      </trkpt>
      <trkpt lat="47.51359" lon="6.7243">
        <ele>429</ele>
        <time>2015-11-29T09:00:20.000Z</time>
      </trkpt>
      <trkpt lat="47.5136" lon="6.72423">
        <ele>429</ele>
        <time>2015-11-29T09:00:23.000Z</time>
      </trkpt>
      <trkpt lat="47.5136" lon="6.72421">
        <ele>429</ele>
        <time>2015-11-29T09:00:24.000Z</time>
      </trkpt>
      <trkpt lat="47.51358" lon="6.72416">
        <ele>429</ele>
        <time>2015-11-29T09:00:26.000Z</time>
      </trkpt>
      <trkpt lat="47.51357" lon="6.72412">
        <ele>429</ele>
        <time>2015-11-29T09:00:27.000Z</time>
      </trkpt>
      <trkpt lat="47.51355" lon="6.72409">
        <ele>429</ele>
        <time>2015-11-29T09:00:28.000Z</time>
      </trkpt>
      <trkpt lat="47.51354" lon="6.72406">
        <ele>429</ele>
        <time>2015-11-29T09:00:29.000Z</time>
      </trkpt>
      <trkpt lat="47.51353" lon="6.72399">
        <ele>429</ele>
        <time>2015-11-29T09:00:30.000Z</time>
      </trkpt>
      <trkpt lat="47.51351" lon="6.72395">
        <ele>429</ele>
        <time>2015-11-29T09:00:31.000Z</time>
      </trkpt>
      <trkpt lat="47.5135" lon="6.72391">
        <ele>429</ele>
        <time>2015-11-29T09:00:32.000Z</time>
      </trkpt>
      <trkpt lat="47.51349" lon="6.72387">
        <ele>429</ele>
        <time>2015-11-29T09:00:33.000Z</time>
      </trkpt>
      <trkpt lat="47.51348" lon="6.72382">
        <ele>429</ele>
        <time>2015-11-29T09:00:34.000Z</time>
      </trkpt>
      <trkpt lat="47.51348" lon="6.72378">
        <ele>428</ele>
        <time>2015-11-29T09:00:35.000Z</time>
      </trkpt>
      <trkpt lat="47.51348" lon="6.72374">
        <ele>428</ele>
        <time>2015-11-29T09:00:36.000Z</time>
      </trkpt>
      <trkpt lat="47.51347" lon="6.7237">
        <ele>429</ele>
        <time>2015-11-29T09:00:37.000Z</time>
      </trkpt>
      <trkpt lat="47.51347" lon="6.72366">
        <ele>429</ele>
        <time>2015-11-29T09:00:38.000Z</time>
      </trkpt>
      <trkpt lat="47.51346" lon="6.72363">
        <ele>429</ele>
        <time>2015-11-29T09:00:39.000Z</time>
      </trkpt>
      <trkpt lat="47.51345" lon="6.7236">
        <ele>429</ele>
        <time>2015-11-29T09:00:40.000Z</time>
      </trkpt>
      <trkpt lat="47.51344" lon="6.72353">
        <ele>430</ele>
        <time>2015-11-29T09:00:42.000Z</time>
      </trkpt>
      <trkpt lat="47.51343" lon="6.7235">
        <ele>430</ele>
        <time>2015-11-29T09:00:43.000Z</time>
      </trkpt>
      <trkpt lat="47.51342" lon="6.72347">
        <ele>431</ele>
        <time>2015-11-29T09:00:44.000Z</time>
      </trkpt>
      <trkpt lat="47.51342" lon="6.72344">
        <ele>431</ele>
        <time>2015-11-29T09:00:45.000Z</time>
      </trkpt>
      <trkpt lat="47.51341" lon="6.72338">
        <ele>432</ele>
        <time>2015-11-29T09:00:47.000Z</time>
      </trkpt>
      <trkpt lat="47.51341" lon="6.72335">
        <ele>432</ele>
        <time>2015-11-29T09:00:48.000Z</time>
      </trkpt>
      <trkpt lat="47.51343" lon="6.72329">
        <ele>430</ele>
        <time>2015-11-29T09:00:51.000Z</time>
      </trkpt>
      <trkpt lat="47.51343" lon="6.72327">
        <ele>430</ele>
        <time>2015-11-29T09:00:52.000Z</time>
      </trkpt>
      <trkpt lat="47.51344" lon="6.72321">
        <ele>428</ele>
        <time>2015-11-29T09:00:55.000Z</time>
      </trkpt>
      <trkpt lat="47.51344" lon="6.72318">
        <ele>428</ele>
        <time>2015-11-29T09:00:56.000Z</time>
      </trkpt>
      <trkpt lat="47.51344" lon="6.72314">
        <ele>427</ele>
        <time>2015-11-29T09:00:57.000Z</time>
      </trkpt>
      <trkpt lat="47.51343" lon="6.72311">
        <ele>427</ele>
        <time>2015-11-29T09:00:58.000Z</time>
      </trkpt>
      <trkpt lat="47.51343" lon="6.72305">
        <ele>426</ele>
        <time>2015-11-29T09:01:00.000Z</time>
      </trkpt>
      <trkpt lat="47.51343" lon="6.72301">
        <ele>425</ele>
        <time>2015-11-29T09:01:01.000Z</time>
      </trkpt>
      <trkpt lat="47.51344" lon="6.72295">
        <ele>425</ele>
        <time>2015-11-29T09:01:03.000Z</time>
      </trkpt>
      <trkpt lat="47.51344" lon="6.72292">
        <ele>425</ele>
        <time>2015-11-29T09:01:04.000Z</time>
      </trkpt>
      <trkpt lat="47.51344" lon="6.72289">
        <ele>424</ele>
        <time>2015-11-29T09:01:05.000Z</time>
      </trkpt>
      <trkpt lat="47.51345" lon="6.72285">
        <ele>424</ele>
        <time>2015-11-29T09:01:06.000Z</time>
      </trkpt>
      <trkpt lat="47.51344" lon="6.7228">
        <ele>424</ele>
        <time>2015-11-29T09:01:08.000Z</time>
      </trkpt>
      <trkpt lat="47.51344" lon="6.72278">
        <ele>424</ele>
        <time>2015-11-29T09:01:09.000Z</time>
      </trkpt>
      <trkpt lat="47.51344" lon="6.72271">
        <ele>424</ele>
        <time>2015-11-29T09:01:14.000Z</time>
      </trkpt>
      <trkpt lat="47.51344" lon="6.72269">
        <ele>425</ele>
        <time>2015-11-29T09:01:15.000Z</time>
      </trkpt>
      <trkpt lat="47.51343" lon="6.72264">
        <ele>425</ele>
        <time>2015-11-29T09:01:19.000Z</time>
      </trkpt>
      <trkpt lat="47.51343" lon="6.72262">
        <ele>425</ele>
        <time>2015-11-29T09:01:20.000Z</time>
      </trkpt>
      <trkpt lat="47.51342" lon="6.72256">
        <ele>426</ele>
        <time>2015-11-29T09:01:40.000Z</time>
      </trkpt>
      <trkpt lat="47.51341" lon="6.72256">
        <ele>426</ele>
        <time>2015-11-29T09:01:41.000Z</time>
      </trkpt>
      <trkpt lat="47.5134" lon="6.72262">
        <ele>426</ele>
        <time>2015-11-29T09:01:47.000Z</time>
      </trkpt>
      <trkpt lat="47.51341" lon="6.72264">
        <ele>425</ele>
        <time>2015-11-29T09:01:48.000Z</time>
      </trkpt>
      <trkpt lat="47.51341" lon="6.7227">
        <ele>425</ele>
        <time>2015-11-29T09:01:51.000Z</time>
      </trkpt>
      <trkpt lat="47.51342" lon="6.72272">
        <ele>425</ele>
        <time>2015-11-29T09:01:52.001Z</time>
      </trkpt>
      <trkpt lat="47.51342" lon="6.72277">
        <ele>424</ele>
        <time>2015-11-29T09:01:54.000Z</time>
      </trkpt>
      <trkpt lat="47.51342" lon="6.7228">
        <ele>424</ele>
        <time>2015-11-29T09:01:55.000Z</time>
      </trkpt>
      <trkpt lat="47.51343" lon="6.72283">
        <ele>424</ele>
        <time>2015-11-29T09:01:56.000Z</time>
      </trkpt>
      <trkpt lat="47.51344" lon="6.72286">
        <ele>424</ele>
        <time>2015-11-29T09:01:57.000Z</time>
      </trkpt>
      <trkpt lat="47.51345" lon="6.72292">
        <ele>424</ele>
        <time>2015-11-29T09:01:59.000Z</time>
      </trkpt>
      <trkpt lat="47.51346" lon="6.72294">
        <ele>425</ele>
        <time>2015-11-29T09:02:00.000Z</time>
      </trkpt>
      <trkpt lat="47.51347" lon="6.72298">
        <ele>425</ele>
        <time>2015-11-29T09:02:02.000Z</time>
      </trkpt>
      <trkpt lat="47.51348" lon="6.723">
        <ele>425</ele>
        <time>2015-11-29T09:02:03.000Z</time>
      </trkpt>
      <trkpt lat="47.5135" lon="6.72306">
        <ele>425</ele>
        <time>2015-11-29T09:02:06.000Z</time>
      </trkpt>
      <trkpt lat="47.5135" lon="6.72307">
        <ele>425</ele>
        <time>2015-11-29T09:02:07.000Z</time>
      </trkpt>
      <trkpt lat="47.5135" lon="6.72314">
        <ele>426</ele>
        <time>2015-11-29T09:02:09.000Z</time>
      </trkpt>
      <trkpt lat="47.51349" lon="6.72318">
        <ele>427</ele>
        <time>2015-11-29T09:02:10.000Z</time>
      </trkpt>
      <trkpt lat="47.5135" lon="6.72323">
        <ele>427</ele>
        <time>2015-11-29T09:02:12.000Z</time>
      </trkpt>
      <trkpt lat="47.51352" lon="6.72325">
        <ele>427</ele>
        <time>2015-11-29T09:02:13.000Z</time>
      </trkpt>
      <trkpt lat="47.51355" lon="6.72325">
        <ele>426</ele>
        <time>2015-11-29T09:02:15.000Z</time>
      </trkpt>
      <trkpt lat="47.51356" lon="6.72325">
        <ele>426</ele>
        <time>2015-11-29T09:02:16.000Z</time>
      </trkpt>
      <trkpt lat="47.5136" lon="6.72322">
        <ele>425</ele>
        <time>2015-11-29T09:02:19.000Z</time>
      </trkpt>
      <trkpt lat="47.51361" lon="6.72321">
        <ele>425</ele>
        <time>2015-11-29T09:02:20.000Z</time>
      </trkpt>
      <trkpt lat="47.51364" lon="6.7232">
        <ele>424</ele>
        <time>2015-11-29T09:02:22.000Z</time>
      </trkpt>
      <trkpt lat="47.51366" lon="6.7232">
        <ele>424</ele>
        <time>2015-11-29T09:02:23.000Z</time>
      </trkpt>
      <trkpt lat="47.5137" lon="6.72322">
        <ele>423</ele>
        <time>2015-11-29T09:02:38.000Z</time>
      </trkpt>
      <trkpt lat="47.5137" lon="6.72321">
        <ele>423</ele>
        <time>2015-11-29T09:02:39.000Z</time>
      </trkpt>
      <trkpt lat="47.51374" lon="6.72319">
        <ele>422</ele>
        <time>2015-11-29T09:02:57.000Z</time>
      </trkpt>
      <trkpt lat="47.51376" lon="6.72317">
        <ele>422</ele>
        <time>2015-11-29T09:02:58.000Z</time>
      </trkpt>
      <trkpt lat="47.51379" lon="6.72316">
        <ele>421</ele>
        <time>2015-11-29T09:02:59.000Z</time>
      </trkpt>
      <trkpt lat="47.51382" lon="6.72314">
        <ele>421</ele>
        <time>2015-11-29T09:03:00.000Z</time>
      </trkpt>
      <trkpt lat="47.51385" lon="6.72313">
        <ele>420</ele>
        <time>2015-11-29T09:03:01.000Z</time>
      </trkpt>
      <trkpt lat="47.51388" lon="6.72312">
        <ele>420</ele>
        <time>2015-11-29T09:03:02.000Z</time>
      </trkpt>
      <trkpt lat="47.51391" lon="6.72311">
        <ele>419</ele>
        <time>2015-11-29T09:03:03.000Z</time>
      </trkpt>
      <trkpt lat="47.51394" lon="6.7231">
        <ele>419</ele>
        <time>2015-11-29T09:03:04.000Z</time>
      </trkpt>
      <trkpt lat="47.51397" lon="6.72309">
        <ele>419</ele>
        <time>2015-11-29T09:03:05.000Z</time>
      </trkpt>
      <trkpt lat="47.514" lon="6.72307">
        <ele>418</ele>
        <time>2015-11-29T09:03:06.000Z</time>
      </trkpt>
      <trkpt lat="47.51403" lon="6.72306">
        <ele>418</ele>
        <time>2015-11-29T09:03:07.000Z</time>
      </trkpt>
      <trkpt lat="47.51408" lon="6.72304">
        <ele>418</ele>
        <time>2015-11-29T09:03:08.000Z</time>
      </trkpt>
      <trkpt lat="47.5141" lon="6.72303">
        <ele>418</ele>
        <time>2015-11-29T09:03:09.000Z</time>
      </trkpt>
      <trkpt lat="47.51416" lon="6.723">
        <ele>417</ele>
        <time>2015-11-29T09:03:10.000Z</time>
      </trkpt>
      <trkpt lat="47.5142" lon="6.72298">
        <ele>409</ele>
        <time>2015-11-29T09:03:11.000Z</time>
      </trkpt>
      <trkpt lat="47.51424" lon="6.72296">
        <ele>408</ele>
        <time>2015-11-29T09:03:12.000Z</time>
      </trkpt>
      <trkpt lat="47.51427" lon="6.72294">
        <ele>408</ele>
        <time>2015-11-29T09:03:13.000Z</time>
      </trkpt>
      <trkpt lat="47.5143" lon="6.72291">
        <ele>408</ele>
        <time>2015-11-29T09:03:14.000Z</time>
      </trkpt>
      <trkpt lat="47.51434" lon="6.72289">
        <ele>408</ele>
        <time>2015-11-29T09:03:15.000Z</time>
      </trkpt>
      <trkpt lat="47.51439" lon="6.72287">
        <ele>407</ele>
        <time>2015-11-29T09:03:16.000Z</time>
      </trkpt>
      <trkpt lat="47.51443" lon="6.72286">
        <ele>407</ele>
        <time>2015-11-29T09:03:17.000Z</time>
      </trkpt>
      <trkpt lat="47.51448" lon="6.72285">
        <ele>407</ele>
        <time>2015-11-29T09:03:18.000Z</time>
      </trkpt>
      <trkpt lat="47.51452" lon="6.72284">
        <ele>407</ele>
        <time>2015-11-29T09:03:19.000Z</time>
      </trkpt>
      <trkpt lat="47.51455" lon="6.72283">
        <ele>407</ele>
        <time>2015-11-29T09:03:20.000Z</time>
      </trkpt>
      <trkpt lat="47.51457" lon="6.72283">
        <ele>407</ele>
        <time>2015-11-29T09:03:21.000Z</time>
      </trkpt>
      <trkpt lat="47.51459" lon="6.72282">
        <ele>407</ele>
        <time>2015-11-29T09:03:22.000Z</time>
      </trkpt>
      <trkpt lat="47.51462" lon="6.7228">
        <ele>406</ele>
        <time>2015-11-29T09:03:23.000Z</time>
      </trkpt>
      <trkpt lat="47.51464" lon="6.72278">
        <ele>406</ele>
        <time>2015-11-29T09:03:24.000Z</time>
      </trkpt>
      <trkpt lat="47.51467" lon="6.72277">
        <ele>406</ele>
        <time>2015-11-29T09:03:25.000Z</time>
      </trkpt>
      <trkpt lat="47.5147" lon="6.72277">
        <ele>406</ele>
        <time>2015-11-29T09:03:26.000Z</time>
      </trkpt>
      <trkpt lat="47.51472" lon="6.72278">
        <ele>406</ele>
        <time>2015-11-29T09:03:27.000Z</time>
      </trkpt>
      <trkpt lat="47.51474" lon="6.72278">
        <ele>406</ele>
        <time>2015-11-29T09:03:28.000Z</time>
      </trkpt>
      <trkpt lat="47.51477" lon="6.72278">
        <ele>406</ele>
        <time>2015-11-29T09:03:29.000Z</time>
      </trkpt>
      <trkpt lat="47.51479" lon="6.72278">
        <ele>406</ele>
        <time>2015-11-29T09:03:30.000Z</time>
      </trkpt>
      <trkpt lat="47.51481" lon="6.72277">
        <ele>405</ele>
        <time>2015-11-29T09:03:31.000Z</time>
      </trkpt>
      <trkpt lat="47.51483" lon="6.72277">
        <ele>405</ele>
        <time>2015-11-29T09:03:32.000Z</time>
      </trkpt>
      <trkpt lat="47.51486" lon="6.72276">
        <ele>405</ele>
        <time>2015-11-29T09:03:33.000Z</time>
      </trkpt>
      <trkpt lat="47.51488" lon="6.72274">
        <ele>405</ele>
        <time>2015-11-29T09:03:34.000Z</time>
      </trkpt>
      <trkpt lat="47.5149" lon="6.72271">
        <ele>405</ele>
        <time>2015-11-29T09:03:35.000Z</time>
      </trkpt>
      <trkpt lat="47.51492" lon="6.72268">
        <ele>404</ele>
        <time>2015-11-29T09:03:36.000Z</time>
      </trkpt>
      <trkpt lat="47.51494" lon="6.72265">
        <ele>404</ele>
        <time>2015-11-29T09:03:37.000Z</time>
      </trkpt>
      <trkpt lat="47.51497" lon="6.72263">
        <ele>403</ele>
        <time>2015-11-29T09:03:38.000Z</time>
      </trkpt>
      <trkpt lat="47.51501" lon="6.72262">
        <ele>401</ele>
        <time>2015-11-29T09:03:39.000Z</time>
      </trkpt>
      <trkpt lat="47.51504" lon="6.7226">
        <ele>400</ele>
        <time>2015-11-29T09:03:40.000Z</time>
      </trkpt>
      <trkpt lat="47.51508" lon="6.72258">
        <ele>400</ele>
        <time>2015-11-29T09:03:41.000Z</time>
      </trkpt>
      <trkpt lat="47.51512" lon="6.72256">
        <ele>400</ele>
        <time>2015-11-29T09:03:42.000Z</time>
      </trkpt>
      <trkpt lat="47.51517" lon="6.72254">
        <ele>400</ele>
        <time>2015-11-29T09:03:43.000Z</time>
      </trkpt>
      <trkpt lat="47.51522" lon="6.72253">
        <ele>400</ele>
        <time>2015-11-29T09:03:44.000Z</time>
      </trkpt>
      <trkpt lat="47.51527" lon="6.72252">
        <ele>399</ele>
        <time>2015-11-29T09:03:45.000Z</time>
      </trkpt>
      <trkpt lat="47.51532" lon="6.7225">
        <ele>399</ele>
        <time>2015-11-29T09:03:46.000Z</time>
      </trkpt>
      <trkpt lat="47.51552" lon="6.72244">
        <ele>396</ele>
        <time>2015-11-29T09:03:47.000Z</time>
      </trkpt>
      <trkpt lat="47.51561" lon="6.72243">
        <ele>395</ele>
        <time>2015-11-29T09:03:48.000Z</time>
      </trkpt>
      <trkpt lat="47.51567" lon="6.72242">
        <ele>395</ele>
        <time>2015-11-29T09:03:49.000Z</time>
      </trkpt>
      <trkpt lat="47.51573" lon="6.72239">
        <ele>395</ele>
        <time>2015-11-29T09:03:50.000Z</time>
      </trkpt>
      <trkpt lat="47.51583" lon="6.72238">
        <ele>394</ele>
        <time>2015-11-29T09:03:51.000Z</time>
      </trkpt>
      <trkpt lat="47.51592" lon="6.72236">
        <ele>392</ele>
        <time>2015-11-29T09:03:52.000Z</time>
      </trkpt>
      <trkpt lat="47.51601" lon="6.72234">
        <ele>392</ele>
        <time>2015-11-29T09:03:53.000Z</time>
      </trkpt>
      <trkpt lat="47.5161" lon="6.72232">
        <ele>392</ele>
        <time>2015-11-29T09:03:54.000Z</time>
      </trkpt>
      <trkpt lat="47.51614" lon="6.7223">
        <ele>392</ele>
        <time>2015-11-29T09:03:55.000Z</time>
      </trkpt>
      <trkpt lat="47.51618" lon="6.72227">
        <ele>392</ele>
        <time>2015-11-29T09:03:56.000Z</time>
      </trkpt>
      <trkpt lat="47.51624" lon="6.72225">
        <ele>392</ele>
        <time>2015-11-29T09:03:57.000Z</time>
      </trkpt>
      <trkpt lat="47.51628" lon="6.72222">
        <ele>392</ele>
        <time>2015-11-29T09:03:58.000Z</time>
      </trkpt>
      <trkpt lat="47.51638" lon="6.72218">
        <ele>391</ele>
        <time>2015-11-29T09:03:59.000Z</time>
      </trkpt>
      <trkpt lat="47.51649" lon="6.72216">
        <ele>391</ele>
        <time>2015-11-29T09:04:00.000Z</time>
      </trkpt>
      <trkpt lat="47.51656" lon="6.72212">
        <ele>391</ele>
        <time>2015-11-29T09:04:01.000Z</time>
      </trkpt>
      <trkpt lat="47.5166" lon="6.7221">
        <ele>391</ele>
        <time>2015-11-29T09:04:02.000Z</time>
      </trkpt>
      <trkpt lat="47.51668" lon="6.72204">
        <ele>391</ele>
        <time>2015-11-29T09:04:03.000Z</time>
      </trkpt>
      <trkpt lat="47.51674" lon="6.72202">
        <ele>391</ele>
        <time>2015-11-29T09:04:04.000Z</time>
      </trkpt>
      <trkpt lat="47.51677" lon="6.72197">
        <ele>391</ele>
        <time>2015-11-29T09:04:05.000Z</time>
      </trkpt>
      <trkpt lat="47.51686" lon="6.72194">
        <ele>391</ele>
        <time>2015-11-29T09:04:06.000Z</time>
      </trkpt>
      <trkpt lat="47.5169" lon="6.72193">
        <ele>391</ele>
        <time>2015-11-29T09:04:07.000Z</time>
      </trkpt>
      <trkpt lat="47.51693" lon="6.72192">
        <ele>391</ele>
        <time>2015-11-29T09:04:08.000Z</time>
      </trkpt>
      <trkpt lat="47.51696" lon="6.72192">
        <ele>391</ele>
        <time>2015-11-29T09:04:12.000Z</time>
      </trkpt>
      <trkpt lat="47.517" lon="6.72192">
        <ele>391</ele>
        <time>2015-11-29T09:04:13.000Z</time>
      </trkpt>
      <trkpt lat="47.51703" lon="6.72193">
        <ele>391</ele>
        <time>2015-11-29T09:04:14.000Z</time>
      </trkpt>
      <trkpt lat="47.51706" lon="6.72194">
        <ele>391</ele>
        <time>2015-11-29T09:04:15.000Z</time>
      </trkpt>
      <trkpt lat="47.51709" lon="6.72195">
        <ele>391</ele>
        <time>2015-11-29T09:04:16.000Z</time>
      </trkpt>
      <trkpt lat="47.51711" lon="6.72196">
        <ele>391</ele>
        <time>2015-11-29T09:04:17.000Z</time>
      </trkpt>
      <trkpt lat="47.51713" lon="6.72197">
        <ele>391</ele>
        <time>2015-11-29T09:04:18.000Z</time>
      </trkpt>
      <trkpt lat="47.51716" lon="6.72198">
        <ele>391</ele>
        <time>2015-11-29T09:04:19.000Z</time>
      </trkpt>
      <trkpt lat="47.51719" lon="6.72199">
        <ele>391</ele>
        <time>2015-11-29T09:04:20.000Z</time>
      </trkpt>
      <trkpt lat="47.51723" lon="6.722">
        <ele>391</ele>
        <time>2015-11-29T09:04:21.000Z</time>
      </trkpt>
      <trkpt lat="47.51727" lon="6.72201">
        <ele>391</ele>
        <time>2015-11-29T09:04:22.000Z</time>
      </trkpt>
      <trkpt lat="47.51732" lon="6.72203">
        <ele>391</ele>
        <time>2015-11-29T09:04:23.000Z</time>
      </trkpt>
      <trkpt lat="47.51737" lon="6.72204">
        <ele>391</ele>
        <time>2015-11-29T09:04:24.000Z</time>
      </trkpt>
      <trkpt lat="47.51763" lon="6.72207">
        <ele>389</ele>
        <time>2015-11-29T09:04:25.000Z</time>
      </trkpt>
      <trkpt lat="47.5177" lon="6.72209">
        <ele>389</ele>
        <time>2015-11-29T09:04:26.000Z</time>
      </trkpt>
      <trkpt lat="47.51775" lon="6.72211">
        <ele>389</ele>
        <time>2015-11-29T09:04:27.000Z</time>
      </trkpt>
      <trkpt lat="47.51781" lon="6.72214">
        <ele>389</ele>
        <time>2015-11-29T09:04:28.000Z</time>
      </trkpt>
      <trkpt lat="47.51786" lon="6.72216">
        <ele>389</ele>
        <time>2015-11-29T09:04:29.000Z</time>
      </trkpt>
      <trkpt lat="47.51792" lon="6.72218">
        <ele>388</ele>
        <time>2015-11-29T09:04:30.000Z</time>
      </trkpt>
      <trkpt lat="47.51797" lon="6.7222">
        <ele>388</ele>
        <time>2015-11-29T09:04:31.000Z</time>
      </trkpt>
      <trkpt lat="47.51803" lon="6.72222">
        <ele>388</ele>
        <time>2015-11-29T09:04:32.000Z</time>
      </trkpt>
      <trkpt lat="47.51809" lon="6.72223">
        <ele>388</ele>
        <time>2015-11-29T09:04:33.000Z</time>
      </trkpt>
      <trkpt lat="47.51815" lon="6.72223">
        <ele>388</ele>
        <time>2015-11-29T09:04:34.000Z</time>
      </trkpt>
      <trkpt lat="47.5182" lon="6.72223">
        <ele>387</ele>
        <time>2015-11-29T09:04:35.000Z</time>
      </trkpt>
      <trkpt lat="47.51824" lon="6.72224">
        <ele>387</ele>
        <time>2015-11-29T09:04:36.000Z</time>
      </trkpt>
      <trkpt lat="47.51828" lon="6.72224">
        <ele>387</ele>
        <time>2015-11-29T09:04:37.000Z</time>
      </trkpt>
      <trkpt lat="47.51832" lon="6.72225">
        <ele>387</ele>
        <time>2015-11-29T09:04:39.000Z</time>
      </trkpt>
      <trkpt lat="47.51835" lon="6.72225">
        <ele>384</ele>
        <time>2015-11-29T09:04:40.000Z</time>
      </trkpt>
      <trkpt lat="47.51838" lon="6.72224">
        <ele>384</ele>
        <time>2015-11-29T09:04:42.000Z</time>
      </trkpt>
      <trkpt lat="47.51841" lon="6.72223">
        <ele>384</ele>
        <time>2015-11-29T09:04:43.000Z</time>
      </trkpt>
      <trkpt lat="47.51845" lon="6.72222">
        <ele>384</ele>
        <time>2015-11-29T09:04:44.000Z</time>
      </trkpt>
      <trkpt lat="47.51849" lon="6.72221">
        <ele>384</ele>
        <time>2015-11-29T09:04:45.000Z</time>
      </trkpt>
      <trkpt lat="47.51854" lon="6.7222">
        <ele>384</ele>
        <time>2015-11-29T09:04:46.000Z</time>
      </trkpt>
      <trkpt lat="47.51858" lon="6.72219">
        <ele>384</ele>
        <time>2015-11-29T09:04:47.000Z</time>
      </trkpt>
      <trkpt lat="47.51863" lon="6.72219">
        <ele>384</ele>
        <time>2015-11-29T09:04:48.000Z</time>
      </trkpt>
      <trkpt lat="47.51867" lon="6.72218">
        <ele>383</ele>
        <time>2015-11-29T09:04:49.000Z</time>
      </trkpt>
      <trkpt lat="47.51871" lon="6.72218">
        <ele>383</ele>
        <time>2015-11-29T09:04:50.000Z</time>
      </trkpt>
      <trkpt lat="47.51874" lon="6.72218">
        <ele>383</ele>
        <time>2015-11-29T09:04:51.000Z</time>
      </trkpt>
      <trkpt lat="47.51878" lon="6.72217">
        <ele>383</ele>
        <time>2015-11-29T09:04:52.000Z</time>
      </trkpt>
      <trkpt lat="47.51881" lon="6.72216">
        <ele>383</ele>
        <time>2015-11-29T09:04:53.000Z</time>
      </trkpt>
      <trkpt lat="47.51884" lon="6.72215">
        <ele>383</ele>
        <time>2015-11-29T09:04:54.000Z</time>
      </trkpt>
      <trkpt lat="47.51887" lon="6.72214">
        <ele>383</ele>
        <time>2015-11-29T09:04:55.000Z</time>
      </trkpt>
      <trkpt lat="47.51891" lon="6.72214">
        <ele>383</ele>
        <time>2015-11-29T09:04:56.000Z</time>
      </trkpt>
      <trkpt lat="47.51894" lon="6.72213">
        <ele>383</ele>
        <time>2015-11-29T09:04:57.000Z</time>
      </trkpt>
      <trkpt lat="47.51897" lon="6.72211">
        <ele>383</ele>
        <time>2015-11-29T09:04:58.000Z</time>
      </trkpt>
      <trkpt lat="47.51899" lon="6.7221">
        <ele>383</ele>
        <time>2015-11-29T09:04:59.000Z</time>
      </trkpt>
      <trkpt lat="47.51902" lon="6.72209">
        <ele>383</ele>
        <time>2015-11-29T09:05:00.000Z</time>
      </trkpt>
      <trkpt lat="47.51904" lon="6.72207">
        <ele>383</ele>
        <time>2015-11-29T09:05:01.000Z</time>
      </trkpt>
      <trkpt lat="47.51907" lon="6.72206">
        <ele>382</ele>
        <time>2015-11-29T09:05:03.000Z</time>
      </trkpt>
      <trkpt lat="47.5191" lon="6.72206">
        <ele>382</ele>
        <time>2015-11-29T09:05:04.000Z</time>
      </trkpt>
      <trkpt lat="47.51912" lon="6.72207">
        <ele>382</ele>
        <time>2015-11-29T09:05:05.000Z</time>
      </trkpt>
      <trkpt lat="47.51915" lon="6.72208">
        <ele>382</ele>
        <time>2015-11-29T09:05:06.000Z</time>
      </trkpt>
      <trkpt lat="47.51918" lon="6.7221">
        <ele>382</ele>
        <time>2015-11-29T09:05:07.000Z</time>
      </trkpt>
      <trkpt lat="47.51921" lon="6.72211">
        <ele>382</ele>
        <time>2015-11-29T09:05:08.000Z</time>
      </trkpt>
      <trkpt lat="47.51924" lon="6.72213">
        <ele>382</ele>
        <time>2015-11-29T09:05:09.000Z</time>
      </trkpt>
      <trkpt lat="47.51927" lon="6.72215">
        <ele>382</ele>
        <time>2015-11-29T09:05:10.000Z</time>
      </trkpt>
      <trkpt lat="47.5193" lon="6.72217">
        <ele>382</ele>
        <time>2015-11-29T09:05:11.000Z</time>
      </trkpt>
      <trkpt lat="47.51933" lon="6.72217">
        <ele>382</ele>
        <time>2015-11-29T09:05:12.000Z</time>
      </trkpt>
      <trkpt lat="47.51936" lon="6.72219">
        <ele>382</ele>
        <time>2015-11-29T09:05:13.000Z</time>
      </trkpt>
      <trkpt lat="47.51939" lon="6.7222">
        <ele>382</ele>
        <time>2015-11-29T09:05:14.000Z</time>
      </trkpt>
      <trkpt lat="47.51942" lon="6.7222">
        <ele>382</ele>
        <time>2015-11-29T09:05:15.000Z</time>
      </trkpt>
      <trkpt lat="47.51944" lon="6.72221">
        <ele>382</ele>
        <time>2015-11-29T09:05:16.000Z</time>
      </trkpt>
      <trkpt lat="47.51947" lon="6.72222">
        <ele>382</ele>
        <time>2015-11-29T09:05:17.000Z</time>
      </trkpt>
      <trkpt lat="47.5195" lon="6.72222">
        <ele>382</ele>
        <time>2015-11-29T09:05:18.000Z</time>
      </trkpt>
      <trkpt lat="47.51954" lon="6.72223">
        <ele>382</ele>
        <time>2015-11-29T09:05:19.000Z</time>
      </trkpt>
      <trkpt lat="47.51956" lon="6.72223">
        <ele>382</ele>
        <time>2015-11-29T09:05:20.000Z</time>
      </trkpt>
      <trkpt lat="47.51959" lon="6.72223">
        <ele>382</ele>
        <time>2015-11-29T09:05:21.000Z</time>
      </trkpt>
      <trkpt lat="47.51962" lon="6.72223">
        <ele>382</ele>
        <time>2015-11-29T09:05:22.000Z</time>
      </trkpt>
      <trkpt lat="47.51964" lon="6.72222">
        <ele>382</ele>
        <time>2015-11-29T09:05:23.000Z</time>
      </trkpt>
      <trkpt lat="47.51966" lon="6.72221">
        <ele>382</ele>
        <time>2015-11-29T09:05:24.000Z</time>
      </trkpt>
      <trkpt lat="47.51969" lon="6.72221">
        <ele>382</ele>
        <time>2015-11-29T09:05:25.000Z</time>
      </trkpt>
      <trkpt lat="47.51971" lon="6.7222">
        <ele>382</ele>
        <time>2015-11-29T09:05:26.000Z</time>
      </trkpt>
      <trkpt lat="47.51975" lon="6.72218">
        <ele>383</ele>
        <time>2015-11-29T09:05:28.000Z</time>
      </trkpt>
      <trkpt lat="47.51977" lon="6.72217">
        <ele>383</ele>
        <time>2015-11-29T09:05:29.000Z</time>
      </trkpt>
      <trkpt lat="47.51979" lon="6.72215">
        <ele>383</ele>
        <time>2015-11-29T09:05:30.000Z</time>
      </trkpt>
      <trkpt lat="47.51981" lon="6.72214">
        <ele>383</ele>
        <time>2015-11-29T09:05:31.000Z</time>
      </trkpt>
      <trkpt lat="47.51985" lon="6.72211">
        <ele>383</ele>
        <time>2015-11-29T09:05:33.000Z</time>
      </trkpt>
      <trkpt lat="47.51986" lon="6.7221">
        <ele>383</ele>
        <time>2015-11-29T09:05:34.000Z</time>
      </trkpt>
      <trkpt lat="47.51989" lon="6.72205">
        <ele>383</ele>
        <time>2015-11-29T09:05:36.000Z</time>
      </trkpt>
      <trkpt lat="47.5199" lon="6.72202">
        <ele>383</ele>
        <time>2015-11-29T09:05:37.000Z</time>
      </trkpt>
      <trkpt lat="47.51991" lon="6.72196">
        <ele>384</ele>
        <time>2015-11-29T09:05:39.000Z</time>
      </trkpt>
      <trkpt lat="47.51991" lon="6.72194">
        <ele>384</ele>
        <time>2015-11-29T09:05:40.000Z</time>
      </trkpt>
      <trkpt lat="47.51993" lon="6.7219">
        <ele>384</ele>
        <time>2015-11-29T09:05:42.000Z</time>
      </trkpt>
      <trkpt lat="47.51994" lon="6.72188">
        <ele>384</ele>
        <time>2015-11-29T09:05:43.000Z</time>
      </trkpt>
      <trkpt lat="47.51996" lon="6.72184">
        <ele>385</ele>
        <time>2015-11-29T09:05:45.000Z</time>
      </trkpt>
      <trkpt lat="47.51998" lon="6.72182">
        <ele>385</ele>
        <time>2015-11-29T09:05:46.000Z</time>
      </trkpt>
      <trkpt lat="47.51999" lon="6.72176">
        <ele>385</ele>
        <time>2015-11-29T09:05:49.000Z</time>
      </trkpt>
      <trkpt lat="47.52" lon="6.72173">
        <ele>386</ele>
        <time>2015-11-29T09:05:50.000Z</time>
      </trkpt>
      <trkpt lat="47.52001" lon="6.7217">
        <ele>387</ele>
        <time>2015-11-29T09:05:51.000Z</time>
      </trkpt>
      <trkpt lat="47.52001" lon="6.72167">
        <ele>387</ele>
        <time>2015-11-29T09:05:52.000Z</time>
      </trkpt>
      <trkpt lat="47.52003" lon="6.72161">
        <ele>388</ele>
        <time>2015-11-29T09:05:54.000Z</time>
      </trkpt>
      <trkpt lat="47.52004" lon="6.72158">
        <ele>388</ele>
        <time>2015-11-29T09:05:55.000Z</time>
      </trkpt>
      <trkpt lat="47.52005" lon="6.72155">
        <ele>388</ele>
        <time>2015-11-29T09:05:56.000Z</time>
      </trkpt>
      <trkpt lat="47.52006" lon="6.72151">
        <ele>388</ele>
        <time>2015-11-29T09:05:57.000Z</time>
      </trkpt>
      <trkpt lat="47.52007" lon="6.72148">
        <ele>389</ele>
        <time>2015-11-29T09:05:58.000Z</time>
      </trkpt>
      <trkpt lat="47.52008" lon="6.72145">
        <ele>389</ele>
        <time>2015-11-29T09:05:59.000Z</time>
      </trkpt>
      <trkpt lat="47.5201" lon="6.7214">
        <ele>389</ele>
        <time>2015-11-29T09:06:01.000Z</time>
      </trkpt>
      <trkpt lat="47.52011" lon="6.72137">
        <ele>389</ele>
        <time>2015-11-29T09:06:02.000Z</time>
      </trkpt>
      <trkpt lat="47.52013" lon="6.72132">
        <ele>390</ele>
        <time>2015-11-29T09:06:04.000Z</time>
      </trkpt>
      <trkpt lat="47.52014" lon="6.7213">
        <ele>390</ele>
        <time>2015-11-29T09:06:05.000Z</time>
      </trkpt>
      <trkpt lat="47.52016" lon="6.72126">
        <ele>390</ele>
        <time>2015-11-29T09:06:07.000Z</time>
      </trkpt>
      <trkpt lat="47.52017" lon="6.72125">
        <ele>390</ele>
        <time>2015-11-29T09:06:08.000Z</time>
      </trkpt>
      <trkpt lat="47.52019" lon="6.7212">
        <ele>390</ele>
        <time>2015-11-29T09:06:10.000Z</time>
      </trkpt>
      <trkpt lat="47.5202" lon="6.72117">
        <ele>390</ele>
        <time>2015-11-29T09:06:11.000Z</time>
      </trkpt>
      <trkpt lat="47.52021" lon="6.72114">
        <ele>390</ele>
        <time>2015-11-29T09:06:12.000Z</time>
      </trkpt>
      <trkpt lat="47.52022" lon="6.72111">
        <ele>390</ele>
        <time>2015-11-29T09:06:13.000Z</time>
      </trkpt>
      <trkpt lat="47.52023" lon="6.72108">
        <ele>390</ele>
        <time>2015-11-29T09:06:14.000Z</time>
      </trkpt>
      <trkpt lat="47.52024" lon="6.72105">
        <ele>391</ele>
        <time>2015-11-29T09:06:15.000Z</time>
      </trkpt>
      <trkpt lat="47.52025" lon="6.72102">
        <ele>391</ele>
        <time>2015-11-29T09:06:16.000Z</time>
      </trkpt>
      <trkpt lat="47.52026" lon="6.72099">
        <ele>391</ele>
        <time>2015-11-29T09:06:17.000Z</time>
      </trkpt>
      <trkpt lat="47.52027" lon="6.72096">
        <ele>391</ele>
        <time>2015-11-29T09:06:18.000Z</time>
      </trkpt>
      <trkpt lat="47.52028" lon="6.72093">
        <ele>391</ele>
        <time>2015-11-29T09:06:19.000Z</time>
      </trkpt>
      <trkpt lat="47.52028" lon="6.72086">
        <ele>391</ele>
        <time>2015-11-29T09:06:21.000Z</time>
      </trkpt>
      <trkpt lat="47.52028" lon="6.72083">
        <ele>394</ele>
        <time>2015-11-29T09:06:22.000Z</time>
      </trkpt>
      <trkpt lat="47.52028" lon="6.72078">
        <ele>394</ele>
        <time>2015-11-29T09:06:24.000Z</time>
      </trkpt>
      <trkpt lat="47.52029" lon="6.72075">
        <ele>394</ele>
        <time>2015-11-29T09:06:25.000Z</time>
      </trkpt>
      <trkpt lat="47.52031" lon="6.7207">
        <ele>394</ele>
        <time>2015-11-29T09:06:27.000Z</time>
      </trkpt>
      <trkpt lat="47.52032" lon="6.72067">
        <ele>394</ele>
        <time>2015-11-29T09:06:28.000Z</time>
      </trkpt>
      <trkpt lat="47.52031" lon="6.72061">
        <ele>394</ele>
        <time>2015-11-29T09:06:30.000Z</time>
      </trkpt>
      <trkpt lat="47.52031" lon="6.72058">
        <ele>394</ele>
        <time>2015-11-29T09:06:31.000Z</time>
      </trkpt>
      <trkpt lat="47.52031" lon="6.72052">
        <ele>394</ele>
        <time>2015-11-29T09:06:33.000Z</time>
      </trkpt>
      <trkpt lat="47.52032" lon="6.72049">
        <ele>394</ele>
        <time>2015-11-29T09:06:34.000Z</time>
      </trkpt>
      <trkpt lat="47.52033" lon="6.72043">
        <ele>395</ele>
        <time>2015-11-29T09:06:36.000Z</time>
      </trkpt>
      <trkpt lat="47.52033" lon="6.72041">
        <ele>395</ele>
        <time>2015-11-29T09:06:37.000Z</time>
      </trkpt>
      <trkpt lat="47.52035" lon="6.72036">
        <ele>395</ele>
        <time>2015-11-29T09:06:39.000Z</time>
      </trkpt>
      <trkpt lat="47.52035" lon="6.72033">
        <ele>395</ele>
        <time>2015-11-29T09:06:40.000Z</time>
      </trkpt>
      <trkpt lat="47.52035" lon="6.72027">
        <ele>395</ele>
        <time>2015-11-29T09:06:42.000Z</time>
      </trkpt>
      <trkpt lat="47.52035" lon="6.72024">
        <ele>395</ele>
        <time>2015-11-29T09:06:43.000Z</time>
      </trkpt>
      <trkpt lat="47.52034" lon="6.7202">
        <ele>395</ele>
        <time>2015-11-29T09:06:44.000Z</time>
      </trkpt>
      <trkpt lat="47.52034" lon="6.72016">
        <ele>395</ele>
        <time>2015-11-29T09:06:45.000Z</time>
      </trkpt>
      <trkpt lat="47.52035" lon="6.72012">
        <ele>395</ele>
        <time>2015-11-29T09:06:46.000Z</time>
      </trkpt>
      <trkpt lat="47.52035" lon="6.72009">
        <ele>395</ele>
        <time>2015-11-29T09:06:47.000Z</time>
      </trkpt>
      <trkpt lat="47.52035" lon="6.72006">
        <ele>395</ele>
        <time>2015-11-29T09:06:48.000Z</time>
      </trkpt>
      <trkpt lat="47.52035" lon="6.71999">
        <ele>397</ele>
        <time>2015-11-29T09:06:50.000Z</time>
      </trkpt>
      <trkpt lat="47.52035" lon="6.71996">
        <ele>397</ele>
        <time>2015-11-29T09:06:51.000Z</time>
      </trkpt>
      <trkpt lat="47.52034" lon="6.71992">
        <ele>397</ele>
        <time>2015-11-29T09:06:52.000Z</time>
      </trkpt>
      <trkpt lat="47.52033" lon="6.71986">
        <ele>397</ele>
        <time>2015-11-29T09:06:54.000Z</time>
      </trkpt>
      <trkpt lat="47.52033" lon="6.71983">
        <ele>397</ele>
        <time>2015-11-29T09:06:55.000Z</time>
      </trkpt>
      <trkpt lat="47.52033" lon="6.71978">
        <ele>397</ele>
        <time>2015-11-29T09:06:57.000Z</time>
      </trkpt>
      <trkpt lat="47.52033" lon="6.71976">
        <ele>397</ele>
        <time>2015-11-29T09:06:58.000Z</time>
      </trkpt>
      <trkpt lat="47.52033" lon="6.7197">
        <ele>398</ele>
        <time>2015-11-29T09:07:00.000Z</time>
      </trkpt>
      <trkpt lat="47.52033" lon="6.71966">
        <ele>398</ele>
        <time>2015-11-29T09:07:01.000Z</time>
      </trkpt>
      <trkpt lat="47.52032" lon="6.71962">
        <ele>398</ele>
        <time>2015-11-29T09:07:02.000Z</time>
      </trkpt>
      <trkpt lat="47.52031" lon="6.71958">
        <ele>398</ele>
        <time>2015-11-29T09:07:03.000Z</time>
      </trkpt>
      <trkpt lat="47.5203" lon="6.71952">
        <ele>398</ele>
        <time>2015-11-29T09:07:05.000Z</time>
      </trkpt>
      <trkpt lat="47.52029" lon="6.71949">
        <ele>398</ele>
        <time>2015-11-29T09:07:06.000Z</time>
      </trkpt>
      <trkpt lat="47.52029" lon="6.71944">
        <ele>398</ele>
        <time>2015-11-29T09:07:08.000Z</time>
      </trkpt>
      <trkpt lat="47.52029" lon="6.71941">
        <ele>398</ele>
        <time>2015-11-29T09:07:09.000Z</time>
      </trkpt>
      <trkpt lat="47.5203" lon="6.71935">
        <ele>398</ele>
        <time>2015-11-29T09:07:11.000Z</time>
      </trkpt>
      <trkpt lat="47.5203" lon="6.71932">
        <ele>398</ele>
        <time>2015-11-29T09:07:12.000Z</time>
      </trkpt>
      <trkpt lat="47.5203" lon="6.71926">
        <ele>398</ele>
        <time>2015-11-29T09:07:14.000Z</time>
      </trkpt>
      <trkpt lat="47.5203" lon="6.71923">
        <ele>398</ele>
        <time>2015-11-29T09:07:15.000Z</time>
      </trkpt>
      <trkpt lat="47.5203" lon="6.71919">
        <ele>398</ele>
        <time>2015-11-29T09:07:16.000Z</time>
      </trkpt>
      <trkpt lat="47.5203" lon="6.71916">
        <ele>399</ele>
        <time>2015-11-29T09:07:17.000Z</time>
      </trkpt>
      <trkpt lat="47.5203" lon="6.71912">
        <ele>399</ele>
        <time>2015-11-29T09:07:18.000Z</time>
      </trkpt>
      <trkpt lat="47.52031" lon="6.71908">
        <ele>399</ele>
        <time>2015-11-29T09:07:19.000Z</time>
      </trkpt>
      <trkpt lat="47.5203" lon="6.71904">
        <ele>399</ele>
        <time>2015-11-29T09:07:20.000Z</time>
      </trkpt>
      <trkpt lat="47.5203" lon="6.71901">
        <ele>399</ele>
        <time>2015-11-29T09:07:21.000Z</time>
      </trkpt>
      <trkpt lat="47.5203" lon="6.71897">
        <ele>399</ele>
        <time>2015-11-29T09:07:22.000Z</time>
      </trkpt>
      <trkpt lat="47.5203" lon="6.71893">
        <ele>399</ele>
        <time>2015-11-29T09:07:23.000Z</time>
      </trkpt>
      <trkpt lat="47.5203" lon="6.71889">
        <ele>399</ele>
        <time>2015-11-29T09:07:24.000Z</time>
      </trkpt>
      <trkpt lat="47.5203" lon="6.71885">
        <ele>400</ele>
        <time>2015-11-29T09:07:25.000Z</time>
      </trkpt>
      <trkpt lat="47.52031" lon="6.71881">
        <ele>400</ele>
        <time>2015-11-29T09:07:26.000Z</time>
      </trkpt>
      <trkpt lat="47.52031" lon="6.71877">
        <ele>400</ele>
        <time>2015-11-29T09:07:27.000Z</time>
      </trkpt>
      <trkpt lat="47.52032" lon="6.71873">
        <ele>400</ele>
        <time>2015-11-29T09:07:28.000Z</time>
      </trkpt>
      <trkpt lat="47.52033" lon="6.71869">
        <ele>400</ele>
        <time>2015-11-29T09:07:29.000Z</time>
      </trkpt>
      <trkpt lat="47.52033" lon="6.71865">
        <ele>400</ele>
        <time>2015-11-29T09:07:30.000Z</time>
      </trkpt>
      <trkpt lat="47.52033" lon="6.71861">
        <ele>400</ele>
        <time>2015-11-29T09:07:31.000Z</time>
      </trkpt>
      <trkpt lat="47.52033" lon="6.71856">
        <ele>400</ele>
        <time>2015-11-29T09:07:32.000Z</time>
      </trkpt>
      <trkpt lat="47.52033" lon="6.71852">
        <ele>400</ele>
        <time>2015-11-29T09:07:33.000Z</time>
      </trkpt>
      <trkpt lat="47.52033" lon="6.71847">
        <ele>400</ele>
        <time>2015-11-29T09:07:34.000Z</time>
      </trkpt>
      <trkpt lat="47.52033" lon="6.71842">
        <ele>400</ele>
        <time>2015-11-29T09:07:35.000Z</time>
      </trkpt>
      <trkpt lat="47.52033" lon="6.71838">
        <ele>400</ele>
        <time>2015-11-29T09:07:36.000Z</time>
      </trkpt>
      <trkpt lat="47.52033" lon="6.71834">
        <ele>400</ele>
        <time>2015-11-29T09:07:37.000Z</time>
      </trkpt>
      <trkpt lat="47.52033" lon="6.71831">
        <ele>403</ele>
        <time>2015-11-29T09:07:38.000Z</time>
      </trkpt>
      <trkpt lat="47.52033" lon="6.71827">
        <ele>403</ele>
        <time>2015-11-29T09:07:39.000Z</time>
      </trkpt>
      <trkpt lat="47.52033" lon="6.71823">
        <ele>403</ele>
        <time>2015-11-29T09:07:40.000Z</time>
      </trkpt>
      <trkpt lat="47.52032" lon="6.7182">
        <ele>403</ele>
        <time>2015-11-29T09:07:41.000Z</time>
      </trkpt>
      <trkpt lat="47.52032" lon="6.71816">
        <ele>403</ele>
        <time>2015-11-29T09:07:42.000Z</time>
      </trkpt>
      <trkpt lat="47.52031" lon="6.71813">
        <ele>403</ele>
        <time>2015-11-29T09:07:43.000Z</time>
      </trkpt>
      <trkpt lat="47.52031" lon="6.7181">
        <ele>403</ele>
        <time>2015-11-29T09:07:44.000Z</time>
      </trkpt>
      <trkpt lat="47.5203" lon="6.71805">
        <ele>403</ele>
        <time>2015-11-29T09:07:45.000Z</time>
      </trkpt>
      <trkpt lat="47.52029" lon="6.71801">
        <ele>404</ele>
        <time>2015-11-29T09:07:46.000Z</time>
      </trkpt>
      <trkpt lat="47.52028" lon="6.71797">
        <ele>404</ele>
        <time>2015-11-29T09:07:47.000Z</time>
      </trkpt>
      <trkpt lat="47.52028" lon="6.71792">
        <ele>404</ele>
        <time>2015-11-29T09:07:48.000Z</time>
      </trkpt>
      <trkpt lat="47.52028" lon="6.71788">
        <ele>404</ele>
        <time>2015-11-29T09:07:49.000Z</time>
      </trkpt>
      <trkpt lat="47.52028" lon="6.71784">
        <ele>404</ele>
        <time>2015-11-29T09:07:50.000Z</time>
      </trkpt>
      <trkpt lat="47.52028" lon="6.7178">
        <ele>405</ele>
        <time>2015-11-29T09:07:51.000Z</time>
      </trkpt>
      <trkpt lat="47.52028" lon="6.71776">
        <ele>405</ele>
        <time>2015-11-29T09:07:52.000Z</time>
      </trkpt>
      <trkpt lat="47.52029" lon="6.71773">
        <ele>405</ele>
        <time>2015-11-29T09:07:53.000Z</time>
      </trkpt>
      <trkpt lat="47.5203" lon="6.71769">
        <ele>405</ele>
        <time>2015-11-29T09:07:54.000Z</time>
      </trkpt>
      <trkpt lat="47.5203" lon="6.71765">
        <ele>405</ele>
        <time>2015-11-29T09:07:55.000Z</time>
      </trkpt>
      <trkpt lat="47.52031" lon="6.71761">
        <ele>405</ele>
        <time>2015-11-29T09:07:56.000Z</time>
      </trkpt>
      <trkpt lat="47.52032" lon="6.71758">
        <ele>405</ele>
        <time>2015-11-29T09:07:57.000Z</time>
      </trkpt>
      <trkpt lat="47.52033" lon="6.71754">
        <ele>405</ele>
        <time>2015-11-29T09:07:58.000Z</time>
      </trkpt>
      <trkpt lat="47.52034" lon="6.71751">
        <ele>405</ele>
        <time>2015-11-29T09:07:59.000Z</time>
      </trkpt>
      <trkpt lat="47.52036" lon="6.71748">
        <ele>409</ele>
        <time>2015-11-29T09:08:00.000Z</time>
      </trkpt>
      <trkpt lat="47.52037" lon="6.71745">
        <ele>409</ele>
        <time>2015-11-29T09:08:01.000Z</time>
      </trkpt>
      <trkpt lat="47.52037" lon="6.71741">
        <ele>409</ele>
        <time>2015-11-29T09:08:02.000Z</time>
      </trkpt>
      <trkpt lat="47.52038" lon="6.71738">
        <ele>409</ele>
        <time>2015-11-29T09:08:03.000Z</time>
      </trkpt>
      <trkpt lat="47.52039" lon="6.71734">
        <ele>409</ele>
        <time>2015-11-29T09:08:04.000Z</time>
      </trkpt>
      <trkpt lat="47.5204" lon="6.7173">
        <ele>409</ele>
        <time>2015-11-29T09:08:05.000Z</time>
      </trkpt>
      <trkpt lat="47.52042" lon="6.71726">
        <ele>409</ele>
        <time>2015-11-29T09:08:06.000Z</time>
      </trkpt>
      <trkpt lat="47.52045" lon="6.71722">
        <ele>409</ele>
        <time>2015-11-29T09:08:07.000Z</time>
      </trkpt>
      <trkpt lat="47.52047" lon="6.71718">
        <ele>409</ele>
        <time>2015-11-29T09:08:08.000Z</time>
      </trkpt>
      <trkpt lat="47.52049" lon="6.71714">
        <ele>409</ele>
        <time>2015-11-29T09:08:09.000Z</time>
      </trkpt>
      <trkpt lat="47.52051" lon="6.7171">
        <ele>410</ele>
        <time>2015-11-29T09:08:10.000Z</time>
      </trkpt>
      <trkpt lat="47.52053" lon="6.71706">
        <ele>410</ele>
        <time>2015-11-29T09:08:11.000Z</time>
      </trkpt>
      <trkpt lat="47.52055" lon="6.71703">
        <ele>410</ele>
        <time>2015-11-29T09:08:12.000Z</time>
      </trkpt>
      <trkpt lat="47.52057" lon="6.717">
        <ele>410</ele>
        <time>2015-11-29T09:08:13.000Z</time>
      </trkpt>
      <trkpt lat="47.52058" lon="6.71696">
        <ele>410</ele>
        <time>2015-11-29T09:08:14.000Z</time>
      </trkpt>
      <trkpt lat="47.52059" lon="6.71693">
        <ele>410</ele>
        <time>2015-11-29T09:08:15.000Z</time>
      </trkpt>
      <trkpt lat="47.52061" lon="6.7169">
        <ele>410</ele>
        <time>2015-11-29T09:08:16.000Z</time>
      </trkpt>
      <trkpt lat="47.52064" lon="6.71686">
        <ele>410</ele>
        <time>2015-11-29T09:08:17.000Z</time>
      </trkpt>
      <trkpt lat="47.52066" lon="6.71682">
        <ele>410</ele>
        <time>2015-11-29T09:08:18.000Z</time>
      </trkpt>
      <trkpt lat="47.52069" lon="6.71678">
        <ele>410</ele>
        <time>2015-11-29T09:08:19.000Z</time>
      </trkpt>
      <trkpt lat="47.52071" lon="6.71674">
        <ele>411</ele>
        <time>2015-11-29T09:08:20.000Z</time>
      </trkpt>
      <trkpt lat="47.52073" lon="6.7167">
        <ele>411</ele>
        <time>2015-11-29T09:08:21.000Z</time>
      </trkpt>
      <trkpt lat="47.52078" lon="6.71665">
        <ele>412</ele>
        <time>2015-11-29T09:08:22.000Z</time>
      </trkpt>
      <trkpt lat="47.5208" lon="6.7166">
        <ele>412</ele>
        <time>2015-11-29T09:08:23.000Z</time>
      </trkpt>
      <trkpt lat="47.52083" lon="6.71656">
        <ele>412</ele>
        <time>2015-11-29T09:08:24.000Z</time>
      </trkpt>
      <trkpt lat="47.52086" lon="6.71652">
        <ele>407</ele>
        <time>2015-11-29T09:08:25.000Z</time>
      </trkpt>
      <trkpt lat="47.52087" lon="6.71649">
        <ele>407</ele>
        <time>2015-11-29T09:08:26.000Z</time>
      </trkpt>
      <trkpt lat="47.5209" lon="6.71645">
        <ele>406</ele>
        <time>2015-11-29T09:08:27.000Z</time>
      </trkpt>
      <trkpt lat="47.52094" lon="6.71639">
        <ele>406</ele>
        <time>2015-11-29T09:08:28.000Z</time>
      </trkpt>
      <trkpt lat="47.52098" lon="6.71634">
        <ele>405</ele>
        <time>2015-11-29T09:08:29.000Z</time>
      </trkpt>
      <trkpt lat="47.52102" lon="6.71629">
        <ele>405</ele>
        <time>2015-11-29T09:08:30.000Z</time>
      </trkpt>
      <trkpt lat="47.52105" lon="6.71623">
        <ele>404</ele>
        <time>2015-11-29T09:08:31.000Z</time>
      </trkpt>
      <trkpt lat="47.52109" lon="6.71618">
        <ele>404</ele>
        <time>2015-11-29T09:08:32.000Z</time>
      </trkpt>
      <trkpt lat="47.52114" lon="6.71613">
        <ele>404</ele>
        <time>2015-11-29T09:08:33.000Z</time>
      </trkpt>
      <trkpt lat="47.52117" lon="6.7161">
        <ele>403</ele>
        <time>2015-11-29T09:08:34.000Z</time>
      </trkpt>
      <trkpt lat="47.5212" lon="6.71605">
        <ele>403</ele>
        <time>2015-11-29T09:08:35.001Z</time>
      </trkpt>
      <trkpt lat="47.52124" lon="6.71604">
        <ele>403</ele>
        <time>2015-11-29T09:08:36.000Z</time>
      </trkpt>
      <trkpt lat="47.52129" lon="6.71603">
        <ele>402</ele>
        <time>2015-11-29T09:08:37.000Z</time>
      </trkpt>
      <trkpt lat="47.52133" lon="6.71601">
        <ele>401</ele>
        <time>2015-11-29T09:08:38.000Z</time>
      </trkpt>
      <trkpt lat="47.52138" lon="6.716">
        <ele>401</ele>
        <time>2015-11-29T09:08:39.000Z</time>
      </trkpt>
      <trkpt lat="47.52143" lon="6.71599">
        <ele>400</ele>
        <time>2015-11-29T09:08:40.000Z</time>
      </trkpt>
      <trkpt lat="47.52148" lon="6.71598">
        <ele>400</ele>
        <time>2015-11-29T09:08:41.000Z</time>
      </trkpt>
      <trkpt lat="47.52152" lon="6.71597">
        <ele>399</ele>
        <time>2015-11-29T09:08:44.000Z</time>
      </trkpt>
      <trkpt lat="47.52154" lon="6.71596">
        <ele>399</ele>
        <time>2015-11-29T09:08:45.001Z</time>
      </trkpt>
      <trkpt lat="47.52158" lon="6.71595">
        <ele>398</ele>
        <time>2015-11-29T09:10:40.000Z</time>
      </trkpt>
      <trkpt lat="47.52158" lon="6.71595">
        <ele>398</ele>
        <time>2015-11-29T09:10:41.000Z</time>
      </trkpt>
      <trkpt lat="47.52162" lon="6.71594">
        <ele>398</ele>
        <time>2015-11-29T09:12:10.000Z</time>
      </trkpt>
      <trkpt lat="47.52162" lon="6.71591">
        <ele>397</ele>
        <time>2015-11-29T09:12:11.000Z</time>
      </trkpt>
      <trkpt lat="47.52163" lon="6.71588">
        <ele>396</ele>
        <time>2015-11-29T09:12:12.000Z</time>
      </trkpt>
      <trkpt lat="47.52164" lon="6.71584">
        <ele>396</ele>
        <time>2015-11-29T09:12:13.000Z</time>
      </trkpt>
      <trkpt lat="47.52165" lon="6.71577">
        <ele>397</ele>
        <time>2015-11-29T09:12:14.000Z</time>
      </trkpt>
      <trkpt lat="47.52166" lon="6.71571">
        <ele>397</ele>
        <time>2015-11-29T09:12:15.000Z</time>
      </trkpt>
      <trkpt lat="47.52167" lon="6.71564">
        <ele>392</ele>
        <time>2015-11-29T09:12:16.000Z</time>
      </trkpt>
      <trkpt lat="47.52167" lon="6.71558">
        <ele>392</ele>
        <time>2015-11-29T09:12:17.000Z</time>
      </trkpt>
      <trkpt lat="47.52167" lon="6.7155">
        <ele>391</ele>
        <time>2015-11-29T09:12:18.000Z</time>
      </trkpt>
      <trkpt lat="47.52167" lon="6.71543">
        <ele>391</ele>
        <time>2015-11-29T09:12:19.000Z</time>
      </trkpt>
      <trkpt lat="47.52167" lon="6.71536">
        <ele>391</ele>
        <time>2015-11-29T09:12:20.000Z</time>
      </trkpt>
      <trkpt lat="47.52167" lon="6.71531">
        <ele>391</ele>
        <time>2015-11-29T09:12:21.000Z</time>
      </trkpt>
      <trkpt lat="47.52167" lon="6.71525">
        <ele>391</ele>
        <time>2015-11-29T09:12:22.000Z</time>
      </trkpt>
      <trkpt lat="47.52167" lon="6.7152">
        <ele>398</ele>
        <time>2015-11-29T09:12:23.000Z</time>
      </trkpt>
      <trkpt lat="47.52167" lon="6.71515">
        <ele>392</ele>
        <time>2015-11-29T09:12:24.000Z</time>
      </trkpt>
      <trkpt lat="47.52167" lon="6.7151">
        <ele>393</ele>
        <time>2015-11-29T09:12:25.000Z</time>
      </trkpt>
      <trkpt lat="47.52169" lon="6.715">
        <ele>394</ele>
        <time>2015-11-29T09:12:26.000Z</time>
      </trkpt>
      <trkpt lat="47.52169" lon="6.71493">
        <ele>392</ele>
        <time>2015-11-29T09:12:27.000Z</time>
      </trkpt>
      <trkpt lat="47.52169" lon="6.71486">
        <ele>390</ele>
        <time>2015-11-29T09:12:28.000Z</time>
      </trkpt>
      <trkpt lat="47.52168" lon="6.71478">
        <ele>389</ele>
        <time>2015-11-29T09:12:29.000Z</time>
      </trkpt>
      <trkpt lat="47.52169" lon="6.71472">
        <ele>389</ele>
        <time>2015-11-29T09:12:30.000Z</time>
      </trkpt>
      <trkpt lat="47.52168" lon="6.71465">
        <ele>388</ele>
        <time>2015-11-29T09:12:31.000Z</time>
      </trkpt>
      <trkpt lat="47.52167" lon="6.7146">
        <ele>388</ele>
        <time>2015-11-29T09:12:32.000Z</time>
      </trkpt>
      <trkpt lat="47.52166" lon="6.71453">
        <ele>393</ele>
        <time>2015-11-29T09:12:33.000Z</time>
      </trkpt>
      <trkpt lat="47.52164" lon="6.71445">
        <ele>393</ele>
        <time>2015-11-29T09:12:34.000Z</time>
      </trkpt>
      <trkpt lat="47.52163" lon="6.71438">
        <ele>392</ele>
        <time>2015-11-29T09:12:35.001Z</time>
      </trkpt>
      <trkpt lat="47.52159" lon="6.71429">
        <ele>391</ele>
        <time>2015-11-29T09:12:36.000Z</time>
      </trkpt>
      <trkpt lat="47.52156" lon="6.71421">
        <ele>390</ele>
        <time>2015-11-29T09:12:37.000Z</time>
      </trkpt>
      <trkpt lat="47.52153" lon="6.71413">
        <ele>388</ele>
        <time>2015-11-29T09:12:38.000Z</time>
      </trkpt>
      <trkpt lat="47.5215" lon="6.71406">
        <ele>388</ele>
        <time>2015-11-29T09:12:39.000Z</time>
      </trkpt>
      <trkpt lat="47.52147" lon="6.71398">
        <ele>389</ele>
        <time>2015-11-29T09:12:40.000Z</time>
      </trkpt>
      <trkpt lat="47.52144" lon="6.71389">
        <ele>389</ele>
        <time>2015-11-29T09:12:41.000Z</time>
      </trkpt>
      <trkpt lat="47.52142" lon="6.7138">
        <ele>389</ele>
        <time>2015-11-29T09:12:42.000Z</time>
      </trkpt>
      <trkpt lat="47.52141" lon="6.7137">
        <ele>388</ele>
        <time>2015-11-29T09:12:43.000Z</time>
      </trkpt>
      <trkpt lat="47.52141" lon="6.71363">
        <ele>388</ele>
        <time>2015-11-29T09:12:44.000Z</time>
      </trkpt>
      <trkpt lat="47.52142" lon="6.71353">
        <ele>387</ele>
        <time>2015-11-29T09:12:45.000Z</time>
      </trkpt>
      <trkpt lat="47.52144" lon="6.71344">
        <ele>387</ele>
        <time>2015-11-29T09:12:46.000Z</time>
      </trkpt>
      <trkpt lat="47.52152" lon="6.71334">
        <ele>385</ele>
        <time>2015-11-29T09:12:47.000Z</time>
      </trkpt>
      <trkpt lat="47.52159" lon="6.71326">
        <ele>383</ele>
        <time>2015-11-29T09:12:48.000Z</time>
      </trkpt>
      <trkpt lat="47.52166" lon="6.71318">
        <ele>383</ele>
        <time>2015-11-29T09:12:49.000Z</time>
      </trkpt>
      <trkpt lat="47.52172" lon="6.71313">
        <ele>379</ele>
        <time>2015-11-29T09:12:50.000Z</time>
      </trkpt>
      <trkpt lat="47.52178" lon="6.71308">
        <ele>378</ele>
        <time>2015-11-29T09:12:51.000Z</time>
      </trkpt>
      <trkpt lat="47.52185" lon="6.71301">
        <ele>377</ele>
        <time>2015-11-29T09:12:52.000Z</time>
      </trkpt>
      <trkpt lat="47.52191" lon="6.71294">
        <ele>377</ele>
        <time>2015-11-29T09:12:53.000Z</time>
      </trkpt>
      <trkpt lat="47.52198" lon="6.71287">
        <ele>377</ele>
        <time>2015-11-29T09:12:54.000Z</time>
      </trkpt>
      <trkpt lat="47.52205" lon="6.71281">
        <ele>376</ele>
        <time>2015-11-29T09:12:55.000Z</time>
      </trkpt>
      <trkpt lat="47.52213" lon="6.71273">
        <ele>376</ele>
        <time>2015-11-29T09:12:56.000Z</time>
      </trkpt>
      <trkpt lat="47.5222" lon="6.71266">
        <ele>375</ele>
        <time>2015-11-29T09:12:57.000Z</time>
      </trkpt>
      <trkpt lat="47.52226" lon="6.7126">
        <ele>374</ele>
        <time>2015-11-29T09:12:58.000Z</time>
      </trkpt>
      <trkpt lat="47.52232" lon="6.71253">
        <ele>374</ele>
        <time>2015-11-29T09:12:59.000Z</time>
      </trkpt>
      <trkpt lat="47.52238" lon="6.71247">
        <ele>371</ele>
        <time>2015-11-29T09:13:00.000Z</time>
      </trkpt>
      <trkpt lat="47.52244" lon="6.71242">
        <ele>371</ele>
        <time>2015-11-29T09:13:01.000Z</time>
      </trkpt>
      <trkpt lat="47.52249" lon="6.71238">
        <ele>371</ele>
        <time>2015-11-29T09:13:02.000Z</time>
      </trkpt>
      <trkpt lat="47.52253" lon="6.71233">
        <ele>369</ele>
        <time>2015-11-29T09:13:03.000Z</time>
      </trkpt>
      <trkpt lat="47.52258" lon="6.71231">
        <ele>369</ele>
        <time>2015-11-29T09:13:04.000Z</time>
      </trkpt>
      <trkpt lat="47.52263" lon="6.71228">
        <ele>369</ele>
        <time>2015-11-29T09:13:05.000Z</time>
      </trkpt>
      <trkpt lat="47.52269" lon="6.71225">
        <ele>368</ele>
        <time>2015-11-29T09:13:06.000Z</time>
      </trkpt>
      <trkpt lat="47.52274" lon="6.71221">
        <ele>368</ele>
        <time>2015-11-29T09:13:07.000Z</time>
      </trkpt>
      <trkpt lat="47.52278" lon="6.71216">
        <ele>368</ele>
        <time>2015-11-29T09:13:08.000Z</time>
      </trkpt>
      <trkpt lat="47.52283" lon="6.71208">
        <ele>368</ele>
        <time>2015-11-29T09:13:09.000Z</time>
      </trkpt>
      <trkpt lat="47.52288" lon="6.712">
        <ele>367</ele>
        <time>2015-11-29T09:13:10.000Z</time>
      </trkpt>
      <trkpt lat="47.52294" lon="6.71193">
        <ele>367</ele>
        <time>2015-11-29T09:13:11.000Z</time>
      </trkpt>
      <trkpt lat="47.52299" lon="6.71186">
        <ele>367</ele>
        <time>2015-11-29T09:13:12.000Z</time>
      </trkpt>
      <trkpt lat="47.52304" lon="6.71179">
        <ele>367</ele>
        <time>2015-11-29T09:13:12.999Z</time>
      </trkpt>
      <trkpt lat="47.52312" lon="6.71171">
        <ele>367</ele>
        <time>2015-11-29T09:13:13.999Z</time>
      </trkpt>
      <trkpt lat="47.52319" lon="6.71164">
        <ele>366</ele>
        <time>2015-11-29T09:13:15.000Z</time>
      </trkpt>
      <trkpt lat="47.52325" lon="6.7116">
        <ele>366</ele>
        <time>2015-11-29T09:13:16.000Z</time>
      </trkpt>
      <trkpt lat="47.5233" lon="6.71159">
        <ele>366</ele>
        <time>2015-11-29T09:13:17.000Z</time>
      </trkpt>
      <trkpt lat="47.52335" lon="6.7116">
        <ele>367</ele>
        <time>2015-11-29T09:13:17.999Z</time>
      </trkpt>
      <trkpt lat="47.52341" lon="6.7116">
        <ele>367</ele>
        <time>2015-11-29T09:13:19.000Z</time>
      </trkpt>
      <trkpt lat="47.52345" lon="6.71164">
        <ele>366</ele>
        <time>2015-11-29T09:13:20.000Z</time>
      </trkpt>
      <trkpt lat="47.52351" lon="6.71169">
        <ele>366</ele>
        <time>2015-11-29T09:13:21.000Z</time>
      </trkpt>
      <trkpt lat="47.52357" lon="6.71174">
        <ele>365</ele>
        <time>2015-11-29T09:13:22.000Z</time>
      </trkpt>
      <trkpt lat="47.52362" lon="6.7118">
        <ele>365</ele>
        <time>2015-11-29T09:13:23.000Z</time>
      </trkpt>
      <trkpt lat="47.52367" lon="6.71184">
        <ele>365</ele>
        <time>2015-11-29T09:13:24.000Z</time>
      </trkpt>
      <trkpt lat="47.52374" lon="6.71187">
        <ele>364</ele>
        <time>2015-11-29T09:13:25.000Z</time>
      </trkpt>
      <trkpt lat="47.5238" lon="6.7119">
        <ele>364</ele>
        <time>2015-11-29T09:13:26.000Z</time>
      </trkpt>
      <trkpt lat="47.52388" lon="6.71191">
        <ele>364</ele>
        <time>2015-11-29T09:13:27.000Z</time>
      </trkpt>
      <trkpt lat="47.52397" lon="6.7119">
        <ele>364</ele>
        <time>2015-11-29T09:13:28.000Z</time>
      </trkpt>
      <trkpt lat="47.52405" lon="6.71189">
        <ele>363</ele>
        <time>2015-11-29T09:13:29.000Z</time>
      </trkpt>
      <trkpt lat="47.52413" lon="6.71188">
        <ele>363</ele>
        <time>2015-11-29T09:13:30.000Z</time>
      </trkpt>
      <trkpt lat="47.52421" lon="6.71186">
        <ele>362</ele>
        <time>2015-11-29T09:13:31.000Z</time>
      </trkpt>
      <trkpt lat="47.5243" lon="6.71185">
        <ele>361</ele>
        <time>2015-11-29T09:13:32.000Z</time>
      </trkpt>
      <trkpt lat="47.52439" lon="6.71183">
        <ele>361</ele>
        <time>2015-11-29T09:13:33.000Z</time>
      </trkpt>
      <trkpt lat="47.52447" lon="6.71182">
        <ele>361</ele>
        <time>2015-11-29T09:13:34.000Z</time>
      </trkpt>
      <trkpt lat="47.52455" lon="6.71182">
        <ele>361</ele>
        <time>2015-11-29T09:13:35.000Z</time>
      </trkpt>
      <trkpt lat="47.52462" lon="6.71182">
        <ele>361</ele>
        <time>2015-11-29T09:13:36.000Z</time>
      </trkpt>
      <trkpt lat="47.52469" lon="6.71184">
        <ele>361</ele>
        <time>2015-11-29T09:13:37.000Z</time>
      </trkpt>
      <trkpt lat="47.52477" lon="6.71185">
        <ele>360</ele>
        <time>2015-11-29T09:13:38.000Z</time>
      </trkpt>
      <trkpt lat="47.52485" lon="6.71189">
        <ele>360</ele>
        <time>2015-11-29T09:13:39.000Z</time>
      </trkpt>
      <trkpt lat="47.52491" lon="6.71198">
        <ele>360</ele>
        <time>2015-11-29T09:13:40.000Z</time>
      </trkpt>
      <trkpt lat="47.52497" lon="6.71205">
        <ele>360</ele>
        <time>2015-11-29T09:13:41.000Z</time>
      </trkpt>
      <trkpt lat="47.52503" lon="6.71212">
        <ele>360</ele>
        <time>2015-11-29T09:13:42.000Z</time>
      </trkpt>
      <trkpt lat="47.52509" lon="6.71221">
        <ele>360</ele>
        <time>2015-11-29T09:13:43.000Z</time>
      </trkpt>
      <trkpt lat="47.52514" lon="6.71228">
        <ele>360</ele>
        <time>2015-11-29T09:13:44.000Z</time>
      </trkpt>
      <trkpt lat="47.52521" lon="6.71234">
        <ele>360</ele>
        <time>2015-11-29T09:13:45.000Z</time>
      </trkpt>
      <trkpt lat="47.52524" lon="6.71239">
        <ele>360</ele>
        <time>2015-11-29T09:13:46.000Z</time>
      </trkpt>
      <trkpt lat="47.52532" lon="6.71242">
        <ele>360</ele>
        <time>2015-11-29T09:13:47.000Z</time>
      </trkpt>
      <trkpt lat="47.52538" lon="6.71244">
        <ele>360</ele>
        <time>2015-11-29T09:13:48.000Z</time>
      </trkpt>
      <trkpt lat="47.52546" lon="6.7125">
        <ele>361</ele>
        <time>2015-11-29T09:13:49.000Z</time>
      </trkpt>
      <trkpt lat="47.5255" lon="6.71251">
        <ele>361</ele>
        <time>2015-11-29T09:13:50.000Z</time>
      </trkpt>
      <trkpt lat="47.52556" lon="6.71255">
        <ele>362</ele>
        <time>2015-11-29T09:13:51.000Z</time>
      </trkpt>
      <trkpt lat="47.52562" lon="6.71256">
        <ele>362</ele>
        <time>2015-11-29T09:13:52.000Z</time>
      </trkpt>
      <trkpt lat="47.52568" lon="6.71258">
        <ele>362</ele>
        <time>2015-11-29T09:13:53.000Z</time>
      </trkpt>
      <trkpt lat="47.52575" lon="6.71259">
        <ele>362</ele>
        <time>2015-11-29T09:13:54.000Z</time>
      </trkpt>
      <trkpt lat="47.52582" lon="6.71261">
        <ele>362</ele>
        <time>2015-11-29T09:13:55.000Z</time>
      </trkpt>
      <trkpt lat="47.52581" lon="6.71261">
        <ele>362</ele>
        <time>2015-11-29T09:13:56.000Z</time>
      </trkpt>
      <trkpt lat="47.52588" lon="6.71263">
        <ele>363</ele>
        <time>2015-11-29T09:13:57.000Z</time>
      </trkpt>
      <trkpt lat="47.52596" lon="6.71263">
        <ele>364</ele>
        <time>2015-11-29T09:13:58.000Z</time>
      </trkpt>
      <trkpt lat="47.52605" lon="6.71264">
        <ele>364</ele>
        <time>2015-11-29T09:13:59.000Z</time>
      </trkpt>
      <trkpt lat="47.52613" lon="6.71266">
        <ele>364</ele>
        <time>2015-11-29T09:14:00.000Z</time>
      </trkpt>
      <trkpt lat="47.5262" lon="6.71269">
        <ele>364</ele>
        <time>2015-11-29T09:14:01.000Z</time>
      </trkpt>
      <trkpt lat="47.52627" lon="6.71269">
        <ele>364</ele>
        <time>2015-11-29T09:14:02.000Z</time>
      </trkpt>
      <trkpt lat="47.52637" lon="6.71273">
        <ele>364</ele>
        <time>2015-11-29T09:14:03.000Z</time>
      </trkpt>
      <trkpt lat="47.52647" lon="6.71276">
        <ele>364</ele>
        <time>2015-11-29T09:14:04.000Z</time>
      </trkpt>
      <trkpt lat="47.52655" lon="6.71277">
        <ele>364</ele>
        <time>2015-11-29T09:14:05.000Z</time>
      </trkpt>
      <trkpt lat="47.52662" lon="6.71278">
        <ele>364</ele>
        <time>2015-11-29T09:14:06.001Z</time>
      </trkpt>
      <trkpt lat="47.5267" lon="6.71283">
        <ele>364</ele>
        <time>2015-11-29T09:14:07.000Z</time>
      </trkpt>
      <trkpt lat="47.52679" lon="6.71284">
        <ele>365</ele>
        <time>2015-11-29T09:14:08.000Z</time>
      </trkpt>
      <trkpt lat="47.52687" lon="6.71286">
        <ele>365</ele>
        <time>2015-11-29T09:14:09.000Z</time>
      </trkpt>
      <trkpt lat="47.52694" lon="6.71286">
        <ele>365</ele>
        <time>2015-11-29T09:14:10.000Z</time>
      </trkpt>
      <trkpt lat="47.52701" lon="6.71286">
        <ele>365</ele>
        <time>2015-11-29T09:14:11.000Z</time>
      </trkpt>
      <trkpt lat="47.52707" lon="6.71285">
        <ele>365</ele>
        <time>2015-11-29T09:14:12.000Z</time>
      </trkpt>
      <trkpt lat="47.52703" lon="6.71273">
        <ele>364</ele>
        <time>2015-11-29T09:14:13.000Z</time>
      </trkpt>
      <trkpt lat="47.52705" lon="6.71268">
        <ele>364</ele>
        <time>2015-11-29T09:14:14.000Z</time>
      </trkpt>
      <trkpt lat="47.52706" lon="6.7126">
        <ele>364</ele>
        <time>2015-11-29T09:14:15.000Z</time>
      </trkpt>
      <trkpt lat="47.52706" lon="6.71255">
        <ele>364</ele>
        <time>2015-11-29T09:14:16.000Z</time>
      </trkpt>
      <trkpt lat="47.52707" lon="6.7125">
        <ele>361</ele>
        <time>2015-11-29T09:14:17.000Z</time>
      </trkpt>
      <trkpt lat="47.52708" lon="6.71245">
        <ele>361</ele>
        <time>2015-11-29T09:14:18.000Z</time>
      </trkpt>
      <trkpt lat="47.52708" lon="6.71242">
        <ele>361</ele>
        <time>2015-11-29T09:14:19.000Z</time>
      </trkpt>
      <trkpt lat="47.52708" lon="6.71238">
        <ele>361</ele>
        <time>2015-11-29T09:14:20.000Z</time>
      </trkpt>
      <trkpt lat="47.52708" lon="6.71234">
        <ele>361</ele>
        <time>2015-11-29T09:14:21.000Z</time>
      </trkpt>
      <trkpt lat="47.52708" lon="6.7123">
        <ele>361</ele>
        <time>2015-11-29T09:14:22.000Z</time>
      </trkpt>
      <trkpt lat="47.52707" lon="6.71227">
        <ele>361</ele>
        <time>2015-11-29T09:14:23.000Z</time>
      </trkpt>
      <trkpt lat="47.52707" lon="6.7122">
        <ele>361</ele>
        <time>2015-11-29T09:14:25.000Z</time>
      </trkpt>
      <trkpt lat="47.52707" lon="6.71218">
        <ele>361</ele>
        <time>2015-11-29T09:14:26.000Z</time>
      </trkpt>
      <trkpt lat="47.52705" lon="6.71211">
        <ele>361</ele>
        <time>2015-11-29T09:14:29.000Z</time>
      </trkpt>
      <trkpt lat="47.52706" lon="6.71209">
        <ele>361</ele>
        <time>2015-11-29T09:14:30.000Z</time>
      </trkpt>
      <trkpt lat="47.52707" lon="6.71205">
        <ele>361</ele>
        <time>2015-11-29T09:14:33.000Z</time>
      </trkpt>
      <trkpt lat="47.52708" lon="6.71204">
        <ele>361</ele>
        <time>2015-11-29T09:14:34.000Z</time>
      </trkpt>
      <trkpt lat="47.52711" lon="6.71199">
        <ele>361</ele>
        <time>2015-11-29T09:14:39.000Z</time>
      </trkpt>
      <trkpt lat="47.52711" lon="6.71199">
        <ele>361</ele>
        <time>2015-11-29T09:14:40.000Z</time>
      </trkpt>
      <trkpt lat="47.52715" lon="6.71196">
        <ele>361</ele>
        <time>2015-11-29T09:14:43.000Z</time>
      </trkpt>
      <trkpt lat="47.52716" lon="6.71194">
        <ele>361</ele>
        <time>2015-11-29T09:14:44.000Z</time>
      </trkpt>
      <trkpt lat="47.52718" lon="6.7119">
        <ele>361</ele>
        <time>2015-11-29T09:14:46.000Z</time>
      </trkpt>
      <trkpt lat="47.52719" lon="6.71188">
        <ele>361</ele>
        <time>2015-11-29T09:14:47.000Z</time>
      </trkpt>
      <trkpt lat="47.52721" lon="6.71186">
        <ele>361</ele>
        <time>2015-11-29T09:14:48.000Z</time>
      </trkpt>
      <trkpt lat="47.52723" lon="6.71183">
        <ele>361</ele>
        <time>2015-11-29T09:14:49.000Z</time>
      </trkpt>
      <trkpt lat="47.52724" lon="6.7118">
        <ele>361</ele>
        <time>2015-11-29T09:14:50.000Z</time>
      </trkpt>
      <trkpt lat="47.52726" lon="6.71176">
        <ele>361</ele>
        <time>2015-11-29T09:14:51.000Z</time>
      </trkpt>
      <trkpt lat="47.52728" lon="6.71171">
        <ele>361</ele>
        <time>2015-11-29T09:14:52.000Z</time>
      </trkpt>
      <trkpt lat="47.52732" lon="6.71147">
        <ele>360</ele>
        <time>2015-11-29T09:14:53.000Z</time>
      </trkpt>
      <trkpt lat="47.52734" lon="6.71137">
        <ele>360</ele>
        <time>2015-11-29T09:14:54.000Z</time>
      </trkpt>
      <trkpt lat="47.52735" lon="6.71129">
        <ele>360</ele>
        <time>2015-11-29T09:14:55.000Z</time>
      </trkpt>
      <trkpt lat="47.52735" lon="6.7112">
        <ele>360</ele>
        <time>2015-11-29T09:14:56.000Z</time>
      </trkpt>
      <trkpt lat="47.52735" lon="6.71112">
        <ele>359</ele>
        <time>2015-11-29T09:14:57.000Z</time>
      </trkpt>
      <trkpt lat="47.52731" lon="6.71096">
        <ele>359</ele>
        <time>2015-11-29T09:14:58.000Z</time>
      </trkpt>
      <trkpt lat="47.52731" lon="6.71083">
        <ele>358</ele>
        <time>2015-11-29T09:14:59.000Z</time>
      </trkpt>
      <trkpt lat="47.5273" lon="6.71071">
        <ele>359</ele>
        <time>2015-11-29T09:15:00.000Z</time>
      </trkpt>
      <trkpt lat="47.52733" lon="6.7106">
        <ele>359</ele>
        <time>2015-11-29T09:15:01.000Z</time>
      </trkpt>
      <trkpt lat="47.52736" lon="6.7105">
        <ele>359</ele>
        <time>2015-11-29T09:15:02.000Z</time>
      </trkpt>
      <trkpt lat="47.52739" lon="6.71041">
        <ele>359</ele>
        <time>2015-11-29T09:15:03.000Z</time>
      </trkpt>
      <trkpt lat="47.52737" lon="6.71032">
        <ele>359</ele>
        <time>2015-11-29T09:15:04.000Z</time>
      </trkpt>
      <trkpt lat="47.52735" lon="6.71025">
        <ele>359</ele>
        <time>2015-11-29T09:15:05.000Z</time>
      </trkpt>
      <trkpt lat="47.52735" lon="6.71021">
        <ele>359</ele>
        <time>2015-11-29T09:15:06.000Z</time>
      </trkpt>
      <trkpt lat="47.52733" lon="6.71018">
        <ele>358</ele>
        <time>2015-11-29T09:15:07.000Z</time>
      </trkpt>
      <trkpt lat="47.52732" lon="6.71014">
        <ele>358</ele>
        <time>2015-11-29T09:15:08.000Z</time>
      </trkpt>
      <trkpt lat="47.52729" lon="6.71008">
        <ele>358</ele>
        <time>2015-11-29T09:15:09.000Z</time>
      </trkpt>
      <trkpt lat="47.52727" lon="6.71002">
        <ele>359</ele>
        <time>2015-11-29T09:15:10.000Z</time>
      </trkpt>
      <trkpt lat="47.52725" lon="6.70996">
        <ele>360</ele>
        <time>2015-11-29T09:15:11.000Z</time>
      </trkpt>
      <trkpt lat="47.52726" lon="6.70989">
        <ele>360</ele>
        <time>2015-11-29T09:15:12.000Z</time>
      </trkpt>
      <trkpt lat="47.52726" lon="6.70984">
        <ele>360</ele>
        <time>2015-11-29T09:15:13.000Z</time>
      </trkpt>
      <trkpt lat="47.52725" lon="6.70979">
        <ele>360</ele>
        <time>2015-11-29T09:15:14.000Z</time>
      </trkpt>
      <trkpt lat="47.52725" lon="6.70974">
        <ele>361</ele>
        <time>2015-11-29T09:15:15.000Z</time>
      </trkpt>
      <trkpt lat="47.52724" lon="6.70969">
        <ele>361</ele>
        <time>2015-11-29T09:15:16.000Z</time>
      </trkpt>
      <trkpt lat="47.52724" lon="6.70965">
        <ele>361</ele>
        <time>2015-11-29T09:15:16.999Z</time>
      </trkpt>
      <trkpt lat="47.52725" lon="6.7096">
        <ele>361</ele>
        <time>2015-11-29T09:15:18.000Z</time>
      </trkpt>
      <trkpt lat="47.52725" lon="6.70956">
        <ele>361</ele>
        <time>2015-11-29T09:15:19.000Z</time>
      </trkpt>
      <trkpt lat="47.52726" lon="6.70952">
        <ele>361</ele>
        <time>2015-11-29T09:15:20.000Z</time>
      </trkpt>
      <trkpt lat="47.52727" lon="6.70948">
        <ele>360</ele>
        <time>2015-11-29T09:15:21.000Z</time>
      </trkpt>
      <trkpt lat="47.52727" lon="6.70944">
        <ele>360</ele>
        <time>2015-11-29T09:15:22.000Z</time>
      </trkpt>
      <trkpt lat="47.52728" lon="6.70939">
        <ele>360</ele>
        <time>2015-11-29T09:15:23.000Z</time>
      </trkpt>
      <trkpt lat="47.52728" lon="6.70933">
        <ele>359</ele>
        <time>2015-11-29T09:15:24.000Z</time>
      </trkpt>
      <trkpt lat="47.52728" lon="6.70928">
        <ele>359</ele>
        <time>2015-11-29T09:15:25.000Z</time>
      </trkpt>
      <trkpt lat="47.52728" lon="6.70922">
        <ele>359</ele>
        <time>2015-11-29T09:15:26.000Z</time>
      </trkpt>
      <trkpt lat="47.52729" lon="6.70916">
        <ele>359</ele>
        <time>2015-11-29T09:15:27.000Z</time>
      </trkpt>
      <trkpt lat="47.52729" lon="6.7091">
        <ele>359</ele>
        <time>2015-11-29T09:15:28.000Z</time>
      </trkpt>
      <trkpt lat="47.52729" lon="6.70905">
        <ele>359</ele>
        <time>2015-11-29T09:15:29.000Z</time>
      </trkpt>
      <trkpt lat="47.52729" lon="6.70899">
        <ele>360</ele>
        <time>2015-11-29T09:15:30.000Z</time>
      </trkpt>
      <trkpt lat="47.52729" lon="6.70893">
        <ele>360</ele>
        <time>2015-11-29T09:15:31.000Z</time>
      </trkpt>
      <trkpt lat="47.52729" lon="6.70887">
        <ele>361</ele>
        <time>2015-11-29T09:15:32.000Z</time>
      </trkpt>
      <trkpt lat="47.52729" lon="6.70881">
        <ele>361</ele>
        <time>2015-11-29T09:15:33.000Z</time>
      </trkpt>
      <trkpt lat="47.52729" lon="6.70874">
        <ele>361</ele>
        <time>2015-11-29T09:15:34.000Z</time>
      </trkpt>
      <trkpt lat="47.52729" lon="6.70868">
        <ele>361</ele>
        <time>2015-11-29T09:15:35.000Z</time>
      </trkpt>
      <trkpt lat="47.5273" lon="6.7086">
        <ele>361</ele>
        <time>2015-11-29T09:15:36.000Z</time>
      </trkpt>
      <trkpt lat="47.5273" lon="6.70853">
        <ele>360</ele>
        <time>2015-11-29T09:15:37.000Z</time>
      </trkpt>
      <trkpt lat="47.5273" lon="6.70846">
        <ele>360</ele>
        <time>2015-11-29T09:15:38.000Z</time>
      </trkpt>
      <trkpt lat="47.5273" lon="6.70839">
        <ele>359</ele>
        <time>2015-11-29T09:15:39.000Z</time>
      </trkpt>
      <trkpt lat="47.52729" lon="6.70833">
        <ele>361</ele>
        <time>2015-11-29T09:15:40.000Z</time>
      </trkpt>
      <trkpt lat="47.52728" lon="6.70828">
        <ele>361</ele>
        <time>2015-11-29T09:15:41.000Z</time>
      </trkpt>
      <trkpt lat="47.52725" lon="6.70825">
        <ele>362</ele>
        <time>2015-11-29T09:15:42.000Z</time>
      </trkpt>
      <trkpt lat="47.52723" lon="6.70819">
        <ele>363</ele>
        <time>2015-11-29T09:15:43.000Z</time>
      </trkpt>
      <trkpt lat="47.52723" lon="6.70813">
        <ele>363</ele>
        <time>2015-11-29T09:15:44.000Z</time>
      </trkpt>
      <trkpt lat="47.52724" lon="6.70811">
        <ele>363</ele>
        <time>2015-11-29T09:15:45.000Z</time>
      </trkpt>
      <trkpt lat="47.52725" lon="6.70807">
        <ele>363</ele>
        <time>2015-11-29T09:15:46.000Z</time>
      </trkpt>
      <trkpt lat="47.52725" lon="6.70803">
        <ele>363</ele>
        <time>2015-11-29T09:15:47.000Z</time>
      </trkpt>
      <trkpt lat="47.52726" lon="6.70798">
        <ele>364</ele>
        <time>2015-11-29T09:15:48.000Z</time>
      </trkpt>
      <trkpt lat="47.52726" lon="6.70792">
        <ele>364</ele>
        <time>2015-11-29T09:15:49.000Z</time>
      </trkpt>
      <trkpt lat="47.52723" lon="6.70791">
        <ele>364</ele>
        <time>2015-11-29T09:15:50.000Z</time>
      </trkpt>
      <trkpt lat="47.52722" lon="6.70786">
        <ele>364</ele>
        <time>2015-11-29T09:15:51.000Z</time>
      </trkpt>
      <trkpt lat="47.52722" lon="6.70782">
        <ele>364</ele>
        <time>2015-11-29T09:15:52.000Z</time>
      </trkpt>
      <trkpt lat="47.52721" lon="6.70779">
        <ele>364</ele>
        <time>2015-11-29T09:15:53.000Z</time>
      </trkpt>
      <trkpt lat="47.52721" lon="6.70775">
        <ele>364</ele>
        <time>2015-11-29T09:15:54.000Z</time>
      </trkpt>
      <trkpt lat="47.5272" lon="6.70771">
        <ele>364</ele>
        <time>2015-11-29T09:15:55.000Z</time>
      </trkpt>
      <trkpt lat="47.5272" lon="6.70767">
        <ele>365</ele>
        <time>2015-11-29T09:15:56.000Z</time>
      </trkpt>
      <trkpt lat="47.52719" lon="6.70763">
        <ele>365</ele>
        <time>2015-11-29T09:15:57.000Z</time>
      </trkpt>
      <trkpt lat="47.52718" lon="6.70759">
        <ele>365</ele>
        <time>2015-11-29T09:15:58.000Z</time>
      </trkpt>
      <trkpt lat="47.52718" lon="6.70754">
        <ele>365</ele>
        <time>2015-11-29T09:15:59.000Z</time>
      </trkpt>
      <trkpt lat="47.52717" lon="6.70749">
        <ele>365</ele>
        <time>2015-11-29T09:16:00.000Z</time>
      </trkpt>
      <trkpt lat="47.52716" lon="6.70744">
        <ele>365</ele>
        <time>2015-11-29T09:16:01.000Z</time>
      </trkpt>
      <trkpt lat="47.52715" lon="6.70738">
        <ele>365</ele>
        <time>2015-11-29T09:16:02.000Z</time>
      </trkpt>
      <trkpt lat="47.52714" lon="6.70733">
        <ele>365</ele>
        <time>2015-11-29T09:16:03.000Z</time>
      </trkpt>
      <trkpt lat="47.52714" lon="6.70727">
        <ele>365</ele>
        <time>2015-11-29T09:16:04.000Z</time>
      </trkpt>
      <trkpt lat="47.52714" lon="6.70721">
        <ele>365</ele>
        <time>2015-11-29T09:16:05.000Z</time>
      </trkpt>
      <trkpt lat="47.52713" lon="6.70715">
        <ele>365</ele>
        <time>2015-11-29T09:16:06.000Z</time>
      </trkpt>
      <trkpt lat="47.52713" lon="6.70708">
        <ele>365</ele>
        <time>2015-11-29T09:16:07.000Z</time>
      </trkpt>
      <trkpt lat="47.52712" lon="6.70702">
        <ele>365</ele>
        <time>2015-11-29T09:16:08.000Z</time>
      </trkpt>
      <trkpt lat="47.52712" lon="6.70696">
        <ele>365</ele>
        <time>2015-11-29T09:16:09.000Z</time>
      </trkpt>
      <trkpt lat="47.52712" lon="6.70689">
        <ele>365</ele>
        <time>2015-11-29T09:16:10.000Z</time>
      </trkpt>
      <trkpt lat="47.52712" lon="6.70683">
        <ele>365</ele>
        <time>2015-11-29T09:16:11.000Z</time>
      </trkpt>
      <trkpt lat="47.52712" lon="6.70677">
        <ele>365</ele>
        <time>2015-11-29T09:16:12.000Z</time>
      </trkpt>
      <trkpt lat="47.52711" lon="6.70672">
        <ele>365</ele>
        <time>2015-11-29T09:16:13.000Z</time>
      </trkpt>
      <trkpt lat="47.5271" lon="6.70668">
        <ele>365</ele>
        <time>2015-11-29T09:16:14.000Z</time>
      </trkpt>
      <trkpt lat="47.52709" lon="6.70663">
        <ele>362</ele>
        <time>2015-11-29T09:16:15.000Z</time>
      </trkpt>
      <trkpt lat="47.52709" lon="6.70659">
        <ele>362</ele>
        <time>2015-11-29T09:16:16.000Z</time>
      </trkpt>
      <trkpt lat="47.52709" lon="6.70655">
        <ele>362</ele>
        <time>2015-11-29T09:16:17.000Z</time>
      </trkpt>
      <trkpt lat="47.5271" lon="6.70651">
        <ele>362</ele>
        <time>2015-11-29T09:16:18.000Z</time>
      </trkpt>
      <trkpt lat="47.52711" lon="6.70648">
        <ele>361</ele>
        <time>2015-11-29T09:16:19.000Z</time>
      </trkpt>
      <trkpt lat="47.52713" lon="6.70644">
        <ele>361</ele>
        <time>2015-11-29T09:16:20.000Z</time>
      </trkpt>
      <trkpt lat="47.52715" lon="6.70641">
        <ele>361</ele>
        <time>2015-11-29T09:16:21.000Z</time>
      </trkpt>
      <trkpt lat="47.52718" lon="6.70638">
        <ele>360</ele>
        <time>2015-11-29T09:16:22.000Z</time>
      </trkpt>
      <trkpt lat="47.52722" lon="6.70635">
        <ele>360</ele>
        <time>2015-11-29T09:16:23.000Z</time>
      </trkpt>
      <trkpt lat="47.52726" lon="6.70633">
        <ele>359</ele>
        <time>2015-11-29T09:16:24.000Z</time>
      </trkpt>
      <trkpt lat="47.52729" lon="6.7063">
        <ele>359</ele>
        <time>2015-11-29T09:16:25.000Z</time>
      </trkpt>
      <trkpt lat="47.52733" lon="6.70628">
        <ele>358</ele>
        <time>2015-11-29T09:16:26.000Z</time>
      </trkpt>
      <trkpt lat="47.52736" lon="6.70625">
        <ele>358</ele>
        <time>2015-11-29T09:16:27.000Z</time>
      </trkpt>
      <trkpt lat="47.52739" lon="6.70622">
        <ele>358</ele>
        <time>2015-11-29T09:16:28.000Z</time>
      </trkpt>
      <trkpt lat="47.52741" lon="6.70619">
        <ele>357</ele>
        <time>2015-11-29T09:16:29.000Z</time>
      </trkpt>
      <trkpt lat="47.52743" lon="6.70617">
        <ele>357</ele>
        <time>2015-11-29T09:16:30.000Z</time>
      </trkpt>
      <trkpt lat="47.52746" lon="6.70615">
        <ele>357</ele>
        <time>2015-11-29T09:16:31.000Z</time>
      </trkpt>
      <trkpt lat="47.52748" lon="6.70612">
        <ele>356</ele>
        <time>2015-11-29T09:16:32.000Z</time>
      </trkpt>
      <trkpt lat="47.52751" lon="6.7061">
        <ele>350</ele>
        <time>2015-11-29T09:16:33.000Z</time>
      </trkpt>
      <trkpt lat="47.52754" lon="6.70609">
        <ele>350</ele>
        <time>2015-11-29T09:16:34.000Z</time>
      </trkpt>
      <trkpt lat="47.52757" lon="6.70607">
        <ele>350</ele>
        <time>2015-11-29T09:16:35.000Z</time>
      </trkpt>
      <trkpt lat="47.52761" lon="6.70605">
        <ele>350</ele>
        <time>2015-11-29T09:16:36.000Z</time>
      </trkpt>
      <trkpt lat="47.52764" lon="6.70604">
        <ele>350</ele>
        <time>2015-11-29T09:16:37.000Z</time>
      </trkpt>
      <trkpt lat="47.52767" lon="6.70602">
        <ele>350</ele>
        <time>2015-11-29T09:16:38.000Z</time>
      </trkpt>
      <trkpt lat="47.52769" lon="6.70599">
        <ele>350</ele>
        <time>2015-11-29T09:16:39.000Z</time>
      </trkpt>
      <trkpt lat="47.52772" lon="6.70596">
        <ele>350</ele>
        <time>2015-11-29T09:16:40.000Z</time>
      </trkpt>
      <trkpt lat="47.52774" lon="6.70592">
        <ele>350</ele>
        <time>2015-11-29T09:16:41.000Z</time>
      </trkpt>
      <trkpt lat="47.52776" lon="6.70587">
        <ele>350</ele>
        <time>2015-11-29T09:16:42.000Z</time>
      </trkpt>
      <trkpt lat="47.52778" lon="6.70582">
        <ele>348</ele>
        <time>2015-11-29T09:16:43.000Z</time>
      </trkpt>
      <trkpt lat="47.52779" lon="6.70578">
        <ele>348</ele>
        <time>2015-11-29T09:16:44.000Z</time>
      </trkpt>
      <trkpt lat="47.5278" lon="6.70574">
        <ele>348</ele>
        <time>2015-11-29T09:16:45.000Z</time>
      </trkpt>
      <trkpt lat="47.52781" lon="6.70569">
        <ele>348</ele>
        <time>2015-11-29T09:16:47.000Z</time>
      </trkpt>
      <trkpt lat="47.52781" lon="6.70566">
        <ele>348</ele>
        <time>2015-11-29T09:16:48.000Z</time>
      </trkpt>
      <trkpt lat="47.52782" lon="6.7056">
        <ele>348</ele>
        <time>2015-11-29T09:16:51.000Z</time>
      </trkpt>
      <trkpt lat="47.52782" lon="6.70559">
        <ele>348</ele>
        <time>2015-11-29T09:16:52.000Z</time>
      </trkpt>
      <trkpt lat="47.52783" lon="6.70553">
        <ele>348</ele>
        <time>2015-11-29T09:16:56.000Z</time>
      </trkpt>
      <trkpt lat="47.52784" lon="6.70551">
        <ele>348</ele>
        <time>2015-11-29T09:16:57.000Z</time>
      </trkpt>
      <trkpt lat="47.52786" lon="6.70551">
        <ele>348</ele>
        <time>2015-11-29T09:16:59.000Z</time>
      </trkpt>
      <trkpt lat="47.52788" lon="6.70553">
        <ele>348</ele>
        <time>2015-11-29T09:17:00.000Z</time>
      </trkpt>
      <trkpt lat="47.52791" lon="6.70554">
        <ele>348</ele>
        <time>2015-11-29T09:17:01.000Z</time>
      </trkpt>
      <trkpt lat="47.52793" lon="6.70555">
        <ele>348</ele>
        <time>2015-11-29T09:17:02.000Z</time>
      </trkpt>
      <trkpt lat="47.52796" lon="6.70555">
        <ele>348</ele>
        <time>2015-11-29T09:17:03.000Z</time>
      </trkpt>
      <trkpt lat="47.52798" lon="6.70556">
        <ele>348</ele>
        <time>2015-11-29T09:17:04.000Z</time>
      </trkpt>
      <trkpt lat="47.52801" lon="6.70557">
        <ele>348</ele>
        <time>2015-11-29T09:17:05.000Z</time>
      </trkpt>
      <trkpt lat="47.52804" lon="6.70558">
        <ele>348</ele>
        <time>2015-11-29T09:17:06.000Z</time>
      </trkpt>
      <trkpt lat="47.52806" lon="6.7056">
        <ele>348</ele>
        <time>2015-11-29T09:17:07.000Z</time>
      </trkpt>
      <trkpt lat="47.52808" lon="6.70561">
        <ele>349</ele>
        <time>2015-11-29T09:17:08.000Z</time>
      </trkpt>
      <trkpt lat="47.52812" lon="6.70563">
        <ele>349</ele>
        <time>2015-11-29T09:17:10.000Z</time>
      </trkpt>
      <trkpt lat="47.52814" lon="6.70563">
        <ele>349</ele>
        <time>2015-11-29T09:17:11.000Z</time>
      </trkpt>
      <trkpt lat="47.52817" lon="6.70564">
        <ele>349</ele>
        <time>2015-11-29T09:17:12.000Z</time>
      </trkpt>
      <trkpt lat="47.52819" lon="6.70565">
        <ele>349</ele>
        <time>2015-11-29T09:17:13.000Z</time>
      </trkpt>
      <trkpt lat="47.52823" lon="6.70567">
        <ele>349</ele>
        <time>2015-11-29T09:17:15.000Z</time>
      </trkpt>
      <trkpt lat="47.52825" lon="6.70568">
        <ele>349</ele>
        <time>2015-11-29T09:17:16.000Z</time>
      </trkpt>
      <trkpt lat="47.52828" lon="6.70568">
        <ele>349</ele>
        <time>2015-11-29T09:17:19.000Z</time>
      </trkpt>
      <trkpt lat="47.5283" lon="6.70569">
        <ele>349</ele>
        <time>2015-11-29T09:17:20.000Z</time>
      </trkpt>
      <trkpt lat="47.52833" lon="6.70572">
        <ele>349</ele>
        <time>2015-11-29T09:17:23.000Z</time>
      </trkpt>
      <trkpt lat="47.52834" lon="6.70573">
        <ele>352</ele>
        <time>2015-11-29T09:17:24.000Z</time>
      </trkpt>
      <trkpt lat="47.52838" lon="6.7057">
        <ele>353</ele>
        <time>2015-11-29T09:17:27.000Z</time>
      </trkpt>
      <trkpt lat="47.52838" lon="6.70569">
        <ele>353</ele>
        <time>2015-11-29T09:17:28.000Z</time>
      </trkpt>
      <trkpt lat="47.52841" lon="6.70565">
        <ele>354</ele>
        <time>2015-11-29T09:17:31.000Z</time>
      </trkpt>
      <trkpt lat="47.52841" lon="6.70564">
        <ele>354</ele>
        <time>2015-11-29T09:17:32.000Z</time>
      </trkpt>
      <trkpt lat="47.52843" lon="6.70559">
        <ele>354</ele>
        <time>2015-11-29T09:17:34.000Z</time>
      </trkpt>
      <trkpt lat="47.52844" lon="6.70557">
        <ele>354</ele>
        <time>2015-11-29T09:17:35.000Z</time>
      </trkpt>
      <trkpt lat="47.52847" lon="6.70553">
        <ele>355</ele>
        <time>2015-11-29T09:17:37.000Z</time>
      </trkpt>
      <trkpt lat="47.52848" lon="6.70551">
        <ele>355</ele>
        <time>2015-11-29T09:17:38.000Z</time>
      </trkpt>
      <trkpt lat="47.5285" lon="6.70547">
        <ele>355</ele>
        <time>2015-11-29T09:17:40.000Z</time>
      </trkpt>
      <trkpt lat="47.5285" lon="6.70545">
        <ele>355</ele>
        <time>2015-11-29T09:17:41.000Z</time>
      </trkpt>
      <trkpt lat="47.5285" lon="6.70539">
        <ele>355</ele>
        <time>2015-11-29T09:17:43.000Z</time>
      </trkpt>
      <trkpt lat="47.5285" lon="6.70537">
        <ele>355</ele>
        <time>2015-11-29T09:17:44.000Z</time>
      </trkpt>
      <trkpt lat="47.52849" lon="6.70534">
        <ele>355</ele>
        <time>2015-11-29T09:17:45.000Z</time>
      </trkpt>
      <trkpt lat="47.52848" lon="6.70531">
        <ele>354</ele>
        <time>2015-11-29T09:17:46.000Z</time>
      </trkpt>
      <trkpt lat="47.52846" lon="6.70527">
        <ele>354</ele>
        <time>2015-11-29T09:17:47.000Z</time>
      </trkpt>
      <trkpt lat="47.52845" lon="6.70525">
        <ele>354</ele>
        <time>2015-11-29T09:17:48.000Z</time>
      </trkpt>
      <trkpt lat="47.52844" lon="6.7052">
        <ele>353</ele>
        <time>2015-11-29T09:17:50.000Z</time>
      </trkpt>
      <trkpt lat="47.52844" lon="6.70518">
        <ele>353</ele>
        <time>2015-11-29T09:17:51.000Z</time>
      </trkpt>
      <trkpt lat="47.52845" lon="6.70512">
        <ele>353</ele>
        <time>2015-11-29T09:17:53.000Z</time>
      </trkpt>
      <trkpt lat="47.52844" lon="6.70508">
        <ele>352</ele>
        <time>2015-11-29T09:17:54.000Z</time>
      </trkpt>
      <trkpt lat="47.52843" lon="6.70502">
        <ele>351</ele>
        <time>2015-11-29T09:17:56.000Z</time>
      </trkpt>
      <trkpt lat="47.52842" lon="6.70499">
        <ele>350</ele>
        <time>2015-11-29T09:17:57.000Z</time>
      </trkpt>
      <trkpt lat="47.5284" lon="6.70494">
        <ele>350</ele>
        <time>2015-11-29T09:17:59.000Z</time>
      </trkpt>
      <trkpt lat="47.5284" lon="6.70491">
        <ele>350</ele>
        <time>2015-11-29T09:18:00.000Z</time>
      </trkpt>
      <trkpt lat="47.52842" lon="6.70486">
        <ele>351</ele>
        <time>2015-11-29T09:18:02.000Z</time>
      </trkpt>
      <trkpt lat="47.52844" lon="6.70484">
        <ele>351</ele>
        <time>2015-11-29T09:18:03.000Z</time>
      </trkpt>
      <trkpt lat="47.52844" lon="6.70479">
        <ele>351</ele>
        <time>2015-11-29T09:18:07.000Z</time>
      </trkpt>
      <trkpt lat="47.52843" lon="6.70478">
        <ele>351</ele>
        <time>2015-11-29T09:18:08.000Z</time>
      </trkpt>
      <trkpt lat="47.52846" lon="6.70474">
        <ele>351</ele>
        <time>2015-11-29T09:18:11.000Z</time>
      </trkpt>
      <trkpt lat="47.52847" lon="6.70473">
        <ele>351</ele>
        <time>2015-11-29T09:18:12.000Z</time>
      </trkpt>
      <trkpt lat="47.5285" lon="6.70469">
        <ele>351</ele>
        <time>2015-11-29T09:18:16.000Z</time>
      </trkpt>
      <trkpt lat="47.52851" lon="6.70467">
        <ele>351</ele>
        <time>2015-11-29T09:18:17.000Z</time>
      </trkpt>
      <trkpt lat="47.52852" lon="6.70462">
        <ele>351</ele>
        <time>2015-11-29T09:18:20.000Z</time>
      </trkpt>
      <trkpt lat="47.52852" lon="6.70458">
        <ele>351</ele>
        <time>2015-11-29T09:18:21.000Z</time>
      </trkpt>
      <trkpt lat="47.52854" lon="6.70453">
        <ele>351</ele>
        <time>2015-11-29T09:18:24.000Z</time>
      </trkpt>
      <trkpt lat="47.52855" lon="6.70452">
        <ele>351</ele>
        <time>2015-11-29T09:18:25.000Z</time>
      </trkpt>
      <trkpt lat="47.52858" lon="6.70449">
        <ele>351</ele>
        <time>2015-11-29T09:18:31.000Z</time>
      </trkpt>
      <trkpt lat="47.52859" lon="6.70449">
        <ele>351</ele>
        <time>2015-11-29T09:18:32.000Z</time>
      </trkpt>
      <trkpt lat="47.52863" lon="6.70447">
        <ele>351</ele>
        <time>2015-11-29T09:18:37.000Z</time>
      </trkpt>
      <trkpt lat="47.52864" lon="6.70446">
        <ele>351</ele>
        <time>2015-11-29T09:18:38.000Z</time>
      </trkpt>
      <trkpt lat="47.52867" lon="6.70444">
        <ele>351</ele>
        <time>2015-11-29T09:18:42.000Z</time>
      </trkpt>
      <trkpt lat="47.52868" lon="6.70443">
        <ele>351</ele>
        <time>2015-11-29T09:18:43.000Z</time>
      </trkpt>
      <trkpt lat="47.52873" lon="6.70442">
        <ele>352</ele>
        <time>2015-11-29T09:18:51.000Z</time>
      </trkpt>
      <trkpt lat="47.52873" lon="6.70442">
        <ele>352</ele>
        <time>2015-11-29T09:18:52.000Z</time>
      </trkpt>
      <trkpt lat="47.52877" lon="6.70442">
        <ele>352</ele>
        <time>2015-11-29T09:18:58.000Z</time>
      </trkpt>
      <trkpt lat="47.52878" lon="6.70442">
        <ele>352</ele>
        <time>2015-11-29T09:18:59.000Z</time>
      </trkpt>
      <trkpt lat="47.52882" lon="6.70441">
        <ele>352</ele>
        <time>2015-11-29T09:19:04.000Z</time>
      </trkpt>
      <trkpt lat="47.52883" lon="6.70441">
        <ele>352</ele>
        <time>2015-11-29T09:19:05.000Z</time>
      </trkpt>
      <trkpt lat="47.52887" lon="6.7044">
        <ele>352</ele>
        <time>2015-11-29T09:19:10.000Z</time>
      </trkpt>
      <trkpt lat="47.52888" lon="6.70441">
        <ele>352</ele>
        <time>2015-11-29T09:19:11.000Z</time>
      </trkpt>
      <trkpt lat="47.52892" lon="6.70443">
        <ele>352</ele>
        <time>2015-11-29T09:19:21.000Z</time>
      </trkpt>
      <trkpt lat="47.52893" lon="6.70443">
        <ele>352</ele>
        <time>2015-11-29T09:19:22.000Z</time>
      </trkpt>
      <trkpt lat="47.52896" lon="6.70445">
        <ele>353</ele>
        <time>2015-11-29T09:19:27.000Z</time>
      </trkpt>
      <trkpt lat="47.52897" lon="6.70445">
        <ele>353</ele>
        <time>2015-11-29T09:19:28.000Z</time>
      </trkpt>
      <trkpt lat="47.52901" lon="6.70445">
        <ele>353</ele>
        <time>2015-11-29T09:19:30.000Z</time>
      </trkpt>
      <trkpt lat="47.52902" lon="6.70445">
        <ele>353</ele>
        <time>2015-11-29T09:19:31.000Z</time>
      </trkpt>
      <trkpt lat="47.52907" lon="6.70445">
        <ele>353</ele>
        <time>2015-11-29T09:19:33.000Z</time>
      </trkpt>
      <trkpt lat="47.52908" lon="6.70445">
        <ele>353</ele>
        <time>2015-11-29T09:19:34.000Z</time>
      </trkpt>
      <trkpt lat="47.52911" lon="6.70446">
        <ele>353</ele>
        <time>2015-11-29T09:19:37.000Z</time>
      </trkpt>
      <trkpt lat="47.52913" lon="6.70446">
        <ele>353</ele>
        <time>2015-11-29T09:19:38.000Z</time>
      </trkpt>
      <trkpt lat="47.52916" lon="6.70445">
        <ele>353</ele>
        <time>2015-11-29T09:19:40.000Z</time>
      </trkpt>
      <trkpt lat="47.52918" lon="6.70446">
        <ele>359</ele>
        <time>2015-11-29T09:19:41.000Z</time>
      </trkpt>
      <trkpt lat="47.52922" lon="6.70449">
        <ele>360</ele>
        <time>2015-11-29T09:19:43.000Z</time>
      </trkpt>
      <trkpt lat="47.52924" lon="6.7045">
        <ele>360</ele>
        <time>2015-11-29T09:19:44.000Z</time>
      </trkpt>
      <trkpt lat="47.52927" lon="6.70452">
        <ele>361</ele>
        <time>2015-11-29T09:19:46.000Z</time>
      </trkpt>
      <trkpt lat="47.52929" lon="6.70453">
        <ele>361</ele>
        <time>2015-11-29T09:19:47.000Z</time>
      </trkpt>
      <trkpt lat="47.52933" lon="6.70455">
        <ele>361</ele>
        <time>2015-11-29T09:19:49.000Z</time>
      </trkpt>
      <trkpt lat="47.52935" lon="6.70456">
        <ele>361</ele>
        <time>2015-11-29T09:19:50.000Z</time>
      </trkpt>
      <trkpt lat="47.52938" lon="6.70459">
        <ele>362</ele>
        <time>2015-11-29T09:19:52.000Z</time>
      </trkpt>
      <trkpt lat="47.52939" lon="6.70461">
        <ele>362</ele>
        <time>2015-11-29T09:19:53.000Z</time>
      </trkpt>
      <trkpt lat="47.52942" lon="6.70464">
        <ele>362</ele>
        <time>2015-11-29T09:19:55.000Z</time>
      </trkpt>
      <trkpt lat="47.52944" lon="6.70464">
        <ele>362</ele>
        <time>2015-11-29T09:19:56.000Z</time>
      </trkpt>
      <trkpt lat="47.52946" lon="6.70466">
        <ele>363</ele>
        <time>2015-11-29T09:19:57.000Z</time>
      </trkpt>
      <trkpt lat="47.52948" lon="6.70467">
        <ele>363</ele>
        <time>2015-11-29T09:19:58.000Z</time>
      </trkpt>
      <trkpt lat="47.52952" lon="6.70469">
        <ele>363</ele>
        <time>2015-11-29T09:20:04.000Z</time>
      </trkpt>
      <trkpt lat="47.52953" lon="6.70469">
        <ele>363</ele>
        <time>2015-11-29T09:20:05.000Z</time>
      </trkpt>
      <trkpt lat="47.52957" lon="6.70471">
        <ele>364</ele>
        <time>2015-11-29T09:20:09.000Z</time>
      </trkpt>
      <trkpt lat="47.52957" lon="6.70471">
        <ele>364</ele>
        <time>2015-11-29T09:20:10.000Z</time>
      </trkpt>
      <trkpt lat="47.52961" lon="6.70473">
        <ele>364</ele>
        <time>2015-11-29T09:20:13.000Z</time>
      </trkpt>
      <trkpt lat="47.52962" lon="6.70474">
        <ele>364</ele>
        <time>2015-11-29T09:20:14.000Z</time>
      </trkpt>
      <trkpt lat="47.52965" lon="6.70476">
        <ele>364</ele>
        <time>2015-11-29T09:20:17.000Z</time>
      </trkpt>
      <trkpt lat="47.52965" lon="6.70477">
        <ele>365</ele>
        <time>2015-11-29T09:20:18.000Z</time>
      </trkpt>
      <trkpt lat="47.52968" lon="6.7048">
        <ele>365</ele>
        <time>2015-11-29T09:20:20.000Z</time>
      </trkpt>
      <trkpt lat="47.5297" lon="6.70481">
        <ele>365</ele>
        <time>2015-11-29T09:20:21.000Z</time>
      </trkpt>
      <trkpt lat="47.52973" lon="6.70481">
        <ele>365</ele>
        <time>2015-11-29T09:20:22.000Z</time>
      </trkpt>
      <trkpt lat="47.52975" lon="6.7048">
        <ele>366</ele>
        <time>2015-11-29T09:20:23.000Z</time>
      </trkpt>
      <trkpt lat="47.52979" lon="6.7048">
        <ele>366</ele>
        <time>2015-11-29T09:20:25.000Z</time>
      </trkpt>
      <trkpt lat="47.52981" lon="6.7048">
        <ele>366</ele>
        <time>2015-11-29T09:20:26.000Z</time>
      </trkpt>
      <trkpt lat="47.52984" lon="6.70481">
        <ele>367</ele>
        <time>2015-11-29T09:20:28.000Z</time>
      </trkpt>
      <trkpt lat="47.52986" lon="6.70481">
        <ele>367</ele>
        <time>2015-11-29T09:20:29.000Z</time>
      </trkpt>
      <trkpt lat="47.52989" lon="6.70482">
        <ele>367</ele>
        <time>2015-11-29T09:20:31.000Z</time>
      </trkpt>
      <trkpt lat="47.52991" lon="6.70483">
        <ele>368</ele>
        <time>2015-11-29T09:20:32.000Z</time>
      </trkpt>
      <trkpt lat="47.52994" lon="6.70484">
        <ele>368</ele>
        <time>2015-11-29T09:20:34.000Z</time>
      </trkpt>
      <trkpt lat="47.52996" lon="6.70486">
        <ele>369</ele>
        <time>2015-11-29T09:20:35.000Z</time>
      </trkpt>
      <trkpt lat="47.52998" lon="6.70487">
        <ele>369</ele>
        <time>2015-11-29T09:20:36.000Z</time>
      </trkpt>
      <trkpt lat="47.53" lon="6.70489">
        <ele>374</ele>
        <time>2015-11-29T09:20:37.000Z</time>
      </trkpt>
      <trkpt lat="47.53004" lon="6.70492">
        <ele>374</ele>
        <time>2015-11-29T09:20:39.000Z</time>
      </trkpt>
      <trkpt lat="47.53006" lon="6.70493">
        <ele>374</ele>
        <time>2015-11-29T09:20:40.000Z</time>
      </trkpt>
      <trkpt lat="47.53007" lon="6.70493">
        <ele>374</ele>
        <time>2015-11-29T09:20:41.000Z</time>
      </trkpt>
      <trkpt lat="47.53011" lon="6.70495">
        <ele>375</ele>
        <time>2015-11-29T09:20:42.000Z</time>
      </trkpt>
      <trkpt lat="47.53014" lon="6.70495">
        <ele>375</ele>
        <time>2015-11-29T09:20:44.000Z</time>
      </trkpt>
      <trkpt lat="47.53016" lon="6.70495">
        <ele>375</ele>
        <time>2015-11-29T09:20:45.000Z</time>
      </trkpt>
      <trkpt lat="47.53019" lon="6.70495">
        <ele>376</ele>
        <time>2015-11-29T09:20:47.000Z</time>
      </trkpt>
      <trkpt lat="47.53021" lon="6.70494">
        <ele>376</ele>
        <time>2015-11-29T09:20:48.000Z</time>
      </trkpt>
      <trkpt lat="47.53024" lon="6.70494">
        <ele>376</ele>
        <time>2015-11-29T09:20:50.000Z</time>
      </trkpt>
      <trkpt lat="47.53026" lon="6.70495">
        <ele>377</ele>
        <time>2015-11-29T09:20:51.000Z</time>
      </trkpt>
      <trkpt lat="47.5303" lon="6.70494">
        <ele>377</ele>
        <time>2015-11-29T09:20:56.000Z</time>
      </trkpt>
      <trkpt lat="47.53031" lon="6.70495">
        <ele>377</ele>
        <time>2015-11-29T09:20:57.000Z</time>
      </trkpt>
      <trkpt lat="47.53034" lon="6.70497">
        <ele>378</ele>
        <time>2015-11-29T09:21:01.000Z</time>
      </trkpt>
      <trkpt lat="47.53035" lon="6.70498">
        <ele>378</ele>
        <time>2015-11-29T09:21:02.000Z</time>
      </trkpt>
      <trkpt lat="47.53038" lon="6.70498">
        <ele>378</ele>
        <time>2015-11-29T09:21:04.000Z</time>
      </trkpt>
      <trkpt lat="47.5304" lon="6.70498">
        <ele>379</ele>
        <time>2015-11-29T09:21:05.000Z</time>
      </trkpt>
      <trkpt lat="47.53043" lon="6.70499">
        <ele>379</ele>
        <time>2015-11-29T09:21:07.000Z</time>
      </trkpt>
      <trkpt lat="47.53044" lon="6.70499">
        <ele>379</ele>
        <time>2015-11-29T09:21:08.000Z</time>
      </trkpt>
      <trkpt lat="47.53049" lon="6.70499">
        <ele>380</ele>
        <time>2015-11-29T09:21:10.000Z</time>
      </trkpt>
      <trkpt lat="47.5305" lon="6.70499">
        <ele>380</ele>
        <time>2015-11-29T09:21:11.000Z</time>
      </trkpt>
      <trkpt lat="47.53054" lon="6.70496">
        <ele>381</ele>
        <time>2015-11-29T09:21:15.000Z</time>
      </trkpt>
      <trkpt lat="47.53055" lon="6.70495">
        <ele>381</ele>
        <time>2015-11-29T09:21:16.000Z</time>
      </trkpt>
      <trkpt lat="47.53059" lon="6.70493">
        <ele>382</ele>
        <time>2015-11-29T09:21:19.000Z</time>
      </trkpt>
      <trkpt lat="47.53061" lon="6.70493">
        <ele>382</ele>
        <time>2015-11-29T09:21:20.000Z</time>
      </trkpt>
      <trkpt lat="47.53065" lon="6.70492">
        <ele>383</ele>
        <time>2015-11-29T09:21:23.000Z</time>
      </trkpt>
      <trkpt lat="47.53066" lon="6.70491">
        <ele>383</ele>
        <time>2015-11-29T09:21:24.000Z</time>
      </trkpt>
      <trkpt lat="47.53069" lon="6.7049">
        <ele>384</ele>
        <time>2015-11-29T09:21:26.000Z</time>
      </trkpt>
      <trkpt lat="47.53071" lon="6.70489">
        <ele>384</ele>
        <time>2015-11-29T09:21:27.000Z</time>
      </trkpt>
      <trkpt lat="47.53075" lon="6.70487">
        <ele>384</ele>
        <time>2015-11-29T09:21:30.000Z</time>
      </trkpt>
      <trkpt lat="47.53076" lon="6.70486">
        <ele>384</ele>
        <time>2015-11-29T09:21:31.000Z</time>
      </trkpt>
      <trkpt lat="47.5308" lon="6.70484">
        <ele>384</ele>
        <time>2015-11-29T09:21:34.000Z</time>
      </trkpt>
      <trkpt lat="47.53082" lon="6.70483">
        <ele>384</ele>
        <time>2015-11-29T09:21:35.000Z</time>
      </trkpt>
      <trkpt lat="47.53085" lon="6.70481">
        <ele>391</ele>
        <time>2015-11-29T09:21:37.000Z</time>
      </trkpt>
      <trkpt lat="47.53087" lon="6.7048">
        <ele>391</ele>
        <time>2015-11-29T09:21:38.000Z</time>
      </trkpt>
      <trkpt lat="47.53091" lon="6.70477">
        <ele>391</ele>
        <time>2015-11-29T09:21:41.000Z</time>
      </trkpt>
      <trkpt lat="47.53092" lon="6.70477">
        <ele>391</ele>
        <time>2015-11-29T09:21:42.000Z</time>
      </trkpt>
      <trkpt lat="47.53095" lon="6.70475">
        <ele>391</ele>
        <time>2015-11-29T09:21:44.000Z</time>
      </trkpt>
      <trkpt lat="47.53097" lon="6.70474">
        <ele>391</ele>
        <time>2015-11-29T09:21:45.000Z</time>
      </trkpt>
      <trkpt lat="47.53101" lon="6.70472">
        <ele>391</ele>
        <time>2015-11-29T09:21:47.000Z</time>
      </trkpt>
      <trkpt lat="47.53103" lon="6.70471">
        <ele>391</ele>
        <time>2015-11-29T09:21:48.000Z</time>
      </trkpt>
      <trkpt lat="47.53107" lon="6.70467">
        <ele>391</ele>
        <time>2015-11-29T09:21:50.000Z</time>
      </trkpt>
      <trkpt lat="47.53109" lon="6.70465">
        <ele>392</ele>
        <time>2015-11-29T09:21:51.000Z</time>
      </trkpt>
      <trkpt lat="47.53111" lon="6.70463">
        <ele>392</ele>
        <time>2015-11-29T09:21:52.000Z</time>
      </trkpt>
      <trkpt lat="47.53112" lon="6.70461">
        <ele>392</ele>
        <time>2015-11-29T09:21:53.000Z</time>
      </trkpt>
      <trkpt lat="47.53115" lon="6.70459">
        <ele>392</ele>
        <time>2015-11-29T09:21:54.000Z</time>
      </trkpt>
      <trkpt lat="47.53116" lon="6.70457">
        <ele>392</ele>
        <time>2015-11-29T09:21:55.000Z</time>
      </trkpt>
      <trkpt lat="47.5312" lon="6.70454">
        <ele>392</ele>
        <time>2015-11-29T09:21:57.000Z</time>
      </trkpt>
      <trkpt lat="47.53121" lon="6.70453">
        <ele>392</ele>
        <time>2015-11-29T09:21:58.000Z</time>
      </trkpt>
      <trkpt lat="47.53125" lon="6.7045">
        <ele>392</ele>
        <time>2015-11-29T09:22:01.000Z</time>
      </trkpt>
      <trkpt lat="47.53127" lon="6.7045">
        <ele>392</ele>
        <time>2015-11-29T09:22:02.000Z</time>
      </trkpt>
      <trkpt lat="47.53129" lon="6.70447">
        <ele>392</ele>
        <time>2015-11-29T09:22:04.000Z</time>
      </trkpt>
      <trkpt lat="47.5313" lon="6.70445">
        <ele>392</ele>
        <time>2015-11-29T09:22:05.000Z</time>
      </trkpt>
      <trkpt lat="47.53132" lon="6.70442">
        <ele>392</ele>
        <time>2015-11-29T09:22:07.000Z</time>
      </trkpt>
      <trkpt lat="47.53134" lon="6.7044">
        <ele>393</ele>
        <time>2015-11-29T09:22:08.000Z</time>
      </trkpt>
      <trkpt lat="47.53137" lon="6.70437">
        <ele>393</ele>
        <time>2015-11-29T09:22:10.000Z</time>
      </trkpt>
      <trkpt lat="47.53138" lon="6.70436">
        <ele>393</ele>
        <time>2015-11-29T09:22:11.000Z</time>
      </trkpt>
      <trkpt lat="47.53141" lon="6.70434">
        <ele>393</ele>
        <time>2015-11-29T09:22:13.000Z</time>
      </trkpt>
      <trkpt lat="47.53143" lon="6.70433">
        <ele>393</ele>
        <time>2015-11-29T09:22:14.000Z</time>
      </trkpt>
      <trkpt lat="47.53146" lon="6.7043">
        <ele>393</ele>
        <time>2015-11-29T09:22:16.000Z</time>
      </trkpt>
      <trkpt lat="47.53147" lon="6.70428">
        <ele>394</ele>
        <time>2015-11-29T09:22:17.000Z</time>
      </trkpt>
      <trkpt lat="47.5315" lon="6.70427">
        <ele>394</ele>
        <time>2015-11-29T09:22:18.999Z</time>
      </trkpt>
      <trkpt lat="47.53152" lon="6.70426">
        <ele>394</ele>
        <time>2015-11-29T09:22:20.000Z</time>
      </trkpt>
      <trkpt lat="47.53155" lon="6.70425">
        <ele>394</ele>
        <time>2015-11-29T09:22:22.000Z</time>
      </trkpt>
      <trkpt lat="47.53156" lon="6.70424">
        <ele>395</ele>
        <time>2015-11-29T09:22:23.000Z</time>
      </trkpt>
      <trkpt lat="47.53159" lon="6.70421">
        <ele>395</ele>
        <time>2015-11-29T09:22:26.000Z</time>
      </trkpt>
      <trkpt lat="47.5316" lon="6.70419">
        <ele>395</ele>
        <time>2015-11-29T09:22:27.000Z</time>
      </trkpt>
      <trkpt lat="47.53162" lon="6.70417">
        <ele>395</ele>
        <time>2015-11-29T09:22:29.000Z</time>
      </trkpt>
      <trkpt lat="47.53164" lon="6.70415">
        <ele>395</ele>
        <time>2015-11-29T09:22:30.000Z</time>
      </trkpt>
      <trkpt lat="47.53168" lon="6.70413">
        <ele>396</ele>
        <time>2015-11-29T09:22:32.000Z</time>
      </trkpt>
      <trkpt lat="47.53169" lon="6.70412">
        <ele>396</ele>
        <time>2015-11-29T09:22:33.000Z</time>
      </trkpt>
      <trkpt lat="47.53172" lon="6.70409">
        <ele>396</ele>
        <time>2015-11-29T09:22:35.000Z</time>
      </trkpt>
      <trkpt lat="47.53174" lon="6.70408">
        <ele>396</ele>
        <time>2015-11-29T09:22:36.000Z</time>
      </trkpt>
      <trkpt lat="47.53179" lon="6.70406">
        <ele>396</ele>
        <time>2015-11-29T09:22:38.000Z</time>
      </trkpt>
      <trkpt lat="47.5318" lon="6.70405">
        <ele>396</ele>
        <time>2015-11-29T09:22:39.000Z</time>
      </trkpt>
      <trkpt lat="47.53183" lon="6.70402">
        <ele>396</ele>
        <time>2015-11-29T09:22:41.000Z</time>
      </trkpt>
      <trkpt lat="47.53184" lon="6.70401">
        <ele>396</ele>
        <time>2015-11-29T09:22:42.000Z</time>
      </trkpt>
      <trkpt lat="47.53187" lon="6.70399">
        <ele>396</ele>
        <time>2015-11-29T09:22:44.000Z</time>
      </trkpt>
      <trkpt lat="47.53188" lon="6.70398">
        <ele>396</ele>
        <time>2015-11-29T09:22:45.000Z</time>
      </trkpt>
      <trkpt lat="47.53191" lon="6.70396">
        <ele>396</ele>
        <time>2015-11-29T09:22:47.000Z</time>
      </trkpt>
      <trkpt lat="47.53193" lon="6.70395">
        <ele>396</ele>
        <time>2015-11-29T09:22:48.000Z</time>
      </trkpt>
      <trkpt lat="47.53196" lon="6.70392">
        <ele>396</ele>
        <time>2015-11-29T09:22:50.000Z</time>
      </trkpt>
      <trkpt lat="47.53198" lon="6.70391">
        <ele>396</ele>
        <time>2015-11-29T09:22:51.000Z</time>
      </trkpt>
      <trkpt lat="47.53202" lon="6.70389">
        <ele>396</ele>
        <time>2015-11-29T09:22:53.000Z</time>
      </trkpt>
      <trkpt lat="47.53204" lon="6.70389">
        <ele>396</ele>
        <time>2015-11-29T09:22:54.000Z</time>
      </trkpt>
      <trkpt lat="47.53207" lon="6.70389">
        <ele>397</ele>
        <time>2015-11-29T09:22:56.000Z</time>
      </trkpt>
      <trkpt lat="47.53209" lon="6.70388">
        <ele>397</ele>
        <time>2015-11-29T09:22:57.000Z</time>
      </trkpt>
      <trkpt lat="47.53212" lon="6.70387">
        <ele>397</ele>
        <time>2015-11-29T09:22:58.000Z</time>
      </trkpt>
      <trkpt lat="47.53214" lon="6.70386">
        <ele>397</ele>
        <time>2015-11-29T09:22:59.000Z</time>
      </trkpt>
      <trkpt lat="47.53217" lon="6.70384">
        <ele>397</ele>
        <time>2015-11-29T09:23:01.000Z</time>
      </trkpt>
      <trkpt lat="47.53219" lon="6.70383">
        <ele>397</ele>
        <time>2015-11-29T09:23:02.000Z</time>
      </trkpt>
      <trkpt lat="47.53222" lon="6.70382">
        <ele>397</ele>
        <time>2015-11-29T09:23:04.000Z</time>
      </trkpt>
      <trkpt lat="47.53224" lon="6.70381">
        <ele>397</ele>
        <time>2015-11-29T09:23:05.000Z</time>
      </trkpt>
      <trkpt lat="47.53228" lon="6.70379">
        <ele>397</ele>
        <time>2015-11-29T09:23:07.000Z</time>
      </trkpt>
      <trkpt lat="47.5323" lon="6.70378">
        <ele>397</ele>
        <time>2015-11-29T09:23:08.000Z</time>
      </trkpt>
      <trkpt lat="47.53232" lon="6.70378">
        <ele>397</ele>
        <time>2015-11-29T09:23:09.000Z</time>
      </trkpt>
      <trkpt lat="47.53234" lon="6.70376">
        <ele>397</ele>
        <time>2015-11-29T09:23:10.000Z</time>
      </trkpt>
      <trkpt lat="47.53236" lon="6.70375">
        <ele>397</ele>
        <time>2015-11-29T09:23:11.000Z</time>
      </trkpt>
      <trkpt lat="47.53239" lon="6.70373">
        <ele>397</ele>
        <time>2015-11-29T09:23:12.000Z</time>
      </trkpt>
      <trkpt lat="47.53241" lon="6.70371">
        <ele>397</ele>
        <time>2015-11-29T09:23:13.000Z</time>
      </trkpt>
      <trkpt lat="47.53245" lon="6.70369">
        <ele>397</ele>
        <time>2015-11-29T09:23:14.000Z</time>
      </trkpt>
      <trkpt lat="47.53248" lon="6.70368">
        <ele>397</ele>
        <time>2015-11-29T09:23:15.000Z</time>
      </trkpt>
      <trkpt lat="47.53251" lon="6.70366">
        <ele>402</ele>
        <time>2015-11-29T09:23:16.000Z</time>
      </trkpt>
      <trkpt lat="47.53255" lon="6.70364">
        <ele>401</ele>
        <time>2015-11-29T09:23:17.000Z</time>
      </trkpt>
      <trkpt lat="47.53257" lon="6.70363">
        <ele>401</ele>
        <time>2015-11-29T09:23:18.000Z</time>
      </trkpt>
      <trkpt lat="47.53259" lon="6.70362">
        <ele>401</ele>
        <time>2015-11-29T09:23:19.000Z</time>
      </trkpt>
      <trkpt lat="47.53262" lon="6.70361">
        <ele>401</ele>
        <time>2015-11-29T09:23:20.000Z</time>
      </trkpt>
      <trkpt lat="47.53264" lon="6.70359">
        <ele>401</ele>
        <time>2015-11-29T09:23:21.000Z</time>
      </trkpt>
      <trkpt lat="47.53267" lon="6.70358">
        <ele>401</ele>
        <time>2015-11-29T09:23:22.000Z</time>
      </trkpt>
      <trkpt lat="47.5327" lon="6.70357">
        <ele>401</ele>
        <time>2015-11-29T09:23:23.000Z</time>
      </trkpt>
      <trkpt lat="47.53273" lon="6.70356">
        <ele>401</ele>
        <time>2015-11-29T09:23:24.000Z</time>
      </trkpt>
      <trkpt lat="47.53275" lon="6.70354">
        <ele>401</ele>
        <time>2015-11-29T09:23:25.000Z</time>
      </trkpt>
      <trkpt lat="47.53277" lon="6.70354">
        <ele>402</ele>
        <time>2015-11-29T09:23:26.000Z</time>
      </trkpt>
      <trkpt lat="47.5328" lon="6.70353">
        <ele>402</ele>
        <time>2015-11-29T09:23:27.000Z</time>
      </trkpt>
      <trkpt lat="47.53282" lon="6.70352">
        <ele>402</ele>
        <time>2015-11-29T09:23:28.000Z</time>
      </trkpt>
      <trkpt lat="47.53285" lon="6.70352">
        <ele>402</ele>
        <time>2015-11-29T09:23:29.000Z</time>
      </trkpt>
      <trkpt lat="47.53286" lon="6.70351">
        <ele>402</ele>
        <time>2015-11-29T09:23:30.000Z</time>
      </trkpt>
      <trkpt lat="47.5329" lon="6.70348">
        <ele>402</ele>
        <time>2015-11-29T09:24:40.000Z</time>
      </trkpt>
      <trkpt lat="47.5329" lon="6.70348">
        <ele>402</ele>
        <time>2015-11-29T09:24:41.000Z</time>
      </trkpt>
      <trkpt lat="47.53292" lon="6.70343">
        <ele>402</ele>
        <time>2015-11-29T09:25:00.000Z</time>
      </trkpt>
      <trkpt lat="47.53292" lon="6.70341">
        <ele>402</ele>
        <time>2015-11-29T09:25:01.000Z</time>
      </trkpt>
      <trkpt lat="47.53292" lon="6.70338">
        <ele>402</ele>
        <time>2015-11-29T09:25:02.000Z</time>
      </trkpt>
      <trkpt lat="47.53293" lon="6.70334">
        <ele>402</ele>
        <time>2015-11-29T09:25:03.000Z</time>
      </trkpt>
      <trkpt lat="47.53293" lon="6.70331">
        <ele>395</ele>
        <time>2015-11-29T09:25:04.000Z</time>
      </trkpt>
      <trkpt lat="47.53293" lon="6.70327">
        <ele>395</ele>
        <time>2015-11-29T09:25:05.000Z</time>
      </trkpt>
      <trkpt lat="47.53293" lon="6.70324">
        <ele>394</ele>
        <time>2015-11-29T09:25:06.000Z</time>
      </trkpt>
      <trkpt lat="47.53294" lon="6.7032">
        <ele>394</ele>
        <time>2015-11-29T09:25:07.000Z</time>
      </trkpt>
      <trkpt lat="47.53295" lon="6.70316">
        <ele>394</ele>
        <time>2015-11-29T09:25:08.000Z</time>
      </trkpt>
      <trkpt lat="47.53296" lon="6.70313">
        <ele>394</ele>
        <time>2015-11-29T09:25:09.000Z</time>
      </trkpt>
      <trkpt lat="47.53297" lon="6.70309">
        <ele>394</ele>
        <time>2015-11-29T09:25:10.000Z</time>
      </trkpt>
      <trkpt lat="47.53299" lon="6.70306">
        <ele>393</ele>
        <time>2015-11-29T09:25:11.000Z</time>
      </trkpt>
      <trkpt lat="47.533" lon="6.703">
        <ele>393</ele>
        <time>2015-11-29T09:25:13.000Z</time>
      </trkpt>
      <trkpt lat="47.53301" lon="6.70297">
        <ele>393</ele>
        <time>2015-11-29T09:25:14.000Z</time>
      </trkpt>
      <trkpt lat="47.53302" lon="6.70294">
        <ele>393</ele>
        <time>2015-11-29T09:25:15.000Z</time>
      </trkpt>
      <trkpt lat="47.53303" lon="6.70291">
        <ele>392</ele>
        <time>2015-11-29T09:25:16.000Z</time>
      </trkpt>
      <trkpt lat="47.53304" lon="6.70288">
        <ele>392</ele>
        <time>2015-11-29T09:25:17.000Z</time>
      </trkpt>
      <trkpt lat="47.53305" lon="6.70285">
        <ele>392</ele>
        <time>2015-11-29T09:25:18.000Z</time>
      </trkpt>
      <trkpt lat="47.53306" lon="6.70282">
        <ele>392</ele>
        <time>2015-11-29T09:25:19.000Z</time>
      </trkpt>
      <trkpt lat="47.53306" lon="6.70278">
        <ele>391</ele>
        <time>2015-11-29T09:25:20.000Z</time>
      </trkpt>
      <trkpt lat="47.53307" lon="6.70273">
        <ele>391</ele>
        <time>2015-11-29T09:25:21.000Z</time>
      </trkpt>
      <trkpt lat="47.53307" lon="6.70269">
        <ele>391</ele>
        <time>2015-11-29T09:25:22.000Z</time>
      </trkpt>
      <trkpt lat="47.53308" lon="6.70264">
        <ele>390</ele>
        <time>2015-11-29T09:25:23.000Z</time>
      </trkpt>
      <trkpt lat="47.5331" lon="6.70261">
        <ele>390</ele>
        <time>2015-11-29T09:25:24.000Z</time>
      </trkpt>
      <trkpt lat="47.53313" lon="6.70258">
        <ele>390</ele>
        <time>2015-11-29T09:25:25.000Z</time>
      </trkpt>
      <trkpt lat="47.53316" lon="6.70255">
        <ele>390</ele>
        <time>2015-11-29T09:25:26.000Z</time>
      </trkpt>
      <trkpt lat="47.53319" lon="6.70252">
        <ele>389</ele>
        <time>2015-11-29T09:25:27.000Z</time>
      </trkpt>
      <trkpt lat="47.5332" lon="6.70247">
        <ele>384</ele>
        <time>2015-11-29T09:25:28.000Z</time>
      </trkpt>
      <trkpt lat="47.53321" lon="6.70241">
        <ele>384</ele>
        <time>2015-11-29T09:25:29.000Z</time>
      </trkpt>
      <trkpt lat="47.53321" lon="6.70236">
        <ele>383</ele>
        <time>2015-11-29T09:25:30.000Z</time>
      </trkpt>
      <trkpt lat="47.5332" lon="6.7023">
        <ele>382</ele>
        <time>2015-11-29T09:25:31.000Z</time>
      </trkpt>
      <trkpt lat="47.5332" lon="6.70225">
        <ele>382</ele>
        <time>2015-11-29T09:25:32.000Z</time>
      </trkpt>
      <trkpt lat="47.5332" lon="6.70221">
        <ele>381</ele>
        <time>2015-11-29T09:25:33.000Z</time>
      </trkpt>
      <trkpt lat="47.53319" lon="6.70217">
        <ele>381</ele>
        <time>2015-11-29T09:25:34.000Z</time>
      </trkpt>
      <trkpt lat="47.53319" lon="6.70213">
        <ele>380</ele>
        <time>2015-11-29T09:25:35.000Z</time>
      </trkpt>
      <trkpt lat="47.53319" lon="6.70208">
        <ele>379</ele>
        <time>2015-11-29T09:25:36.000Z</time>
      </trkpt>
      <trkpt lat="47.53317" lon="6.702">
        <ele>379</ele>
        <time>2015-11-29T09:25:37.000Z</time>
      </trkpt>
      <trkpt lat="47.53315" lon="6.7019">
        <ele>378</ele>
        <time>2015-11-29T09:25:38.000Z</time>
      </trkpt>
      <trkpt lat="47.53312" lon="6.70181">
        <ele>377</ele>
        <time>2015-11-29T09:25:39.000Z</time>
      </trkpt>
      <trkpt lat="47.53309" lon="6.70172">
        <ele>377</ele>
        <time>2015-11-29T09:25:40.000Z</time>
      </trkpt>
      <trkpt lat="47.53306" lon="6.70165">
        <ele>371</ele>
        <time>2015-11-29T09:25:41.000Z</time>
      </trkpt>
      <trkpt lat="47.53304" lon="6.70159">
        <ele>371</ele>
        <time>2015-11-29T09:25:42.000Z</time>
      </trkpt>
      <trkpt lat="47.53303" lon="6.70153">
        <ele>371</ele>
        <time>2015-11-29T09:25:43.000Z</time>
      </trkpt>
      <trkpt lat="47.53302" lon="6.70147">
        <ele>371</ele>
        <time>2015-11-29T09:25:44.000Z</time>
      </trkpt>
      <trkpt lat="47.53302" lon="6.70141">
        <ele>370</ele>
        <time>2015-11-29T09:25:45.000Z</time>
      </trkpt>
      <trkpt lat="47.53302" lon="6.70135">
        <ele>370</ele>
        <time>2015-11-29T09:25:46.000Z</time>
      </trkpt>
      <trkpt lat="47.53303" lon="6.70129">
        <ele>370</ele>
        <time>2015-11-29T09:25:47.000Z</time>
      </trkpt>
      <trkpt lat="47.53304" lon="6.70123">
        <ele>370</ele>
        <time>2015-11-29T09:25:48.000Z</time>
      </trkpt>
      <trkpt lat="47.53305" lon="6.70116">
        <ele>369</ele>
        <time>2015-11-29T09:25:49.000Z</time>
      </trkpt>
      <trkpt lat="47.53306" lon="6.70108">
        <ele>369</ele>
        <time>2015-11-29T09:25:50.000Z</time>
      </trkpt>
      <trkpt lat="47.53306" lon="6.70101">
        <ele>369</ele>
        <time>2015-11-29T09:25:51.000Z</time>
      </trkpt>
      <trkpt lat="47.53307" lon="6.70095">
        <ele>369</ele>
        <time>2015-11-29T09:25:52.000Z</time>
      </trkpt>
      <trkpt lat="47.53308" lon="6.70089">
        <ele>368</ele>
        <time>2015-11-29T09:25:53.000Z</time>
      </trkpt>
      <trkpt lat="47.5331" lon="6.70083">
        <ele>366</ele>
        <time>2015-11-29T09:25:54.000Z</time>
      </trkpt>
      <trkpt lat="47.53312" lon="6.70077">
        <ele>366</ele>
        <time>2015-11-29T09:25:55.000Z</time>
      </trkpt>
      <trkpt lat="47.53314" lon="6.70071">
        <ele>366</ele>
        <time>2015-11-29T09:25:56.000Z</time>
      </trkpt>
      <trkpt lat="47.53316" lon="6.70063">
        <ele>366</ele>
        <time>2015-11-29T09:25:57.000Z</time>
      </trkpt>
      <trkpt lat="47.53317" lon="6.70055">
        <ele>365</ele>
        <time>2015-11-29T09:25:58.000Z</time>
      </trkpt>
      <trkpt lat="47.53319" lon="6.70046">
        <ele>365</ele>
        <time>2015-11-29T09:25:59.000Z</time>
      </trkpt>
      <trkpt lat="47.53321" lon="6.70036">
        <ele>365</ele>
        <time>2015-11-29T09:26:00.000Z</time>
      </trkpt>
      <trkpt lat="47.53323" lon="6.70025">
        <ele>365</ele>
        <time>2015-11-29T09:26:01.000Z</time>
      </trkpt>
      <trkpt lat="47.53328" lon="6.69996">
        <ele>363</ele>
        <time>2015-11-29T09:26:02.000Z</time>
      </trkpt>
      <trkpt lat="47.53328" lon="6.69988">
        <ele>362</ele>
        <time>2015-11-29T09:26:03.000Z</time>
      </trkpt>
      <trkpt lat="47.53329" lon="6.69977">
        <ele>362</ele>
        <time>2015-11-29T09:26:04.000Z</time>
      </trkpt>
      <trkpt lat="47.53331" lon="6.69967">
        <ele>361</ele>
        <time>2015-11-29T09:26:05.000Z</time>
      </trkpt>
      <trkpt lat="47.53331" lon="6.69957">
        <ele>361</ele>
        <time>2015-11-29T09:26:06.000Z</time>
      </trkpt>
      <trkpt lat="47.53331" lon="6.69947">
        <ele>360</ele>
        <time>2015-11-29T09:26:07.000Z</time>
      </trkpt>
      <trkpt lat="47.53331" lon="6.69937">
        <ele>360</ele>
        <time>2015-11-29T09:26:08.000Z</time>
      </trkpt>
      <trkpt lat="47.5333" lon="6.69928">
        <ele>359</ele>
        <time>2015-11-29T09:26:09.000Z</time>
      </trkpt>
      <trkpt lat="47.5333" lon="6.69923">
        <ele>359</ele>
        <time>2015-11-29T09:26:10.000Z</time>
      </trkpt>
      <trkpt lat="47.53329" lon="6.69917">
        <ele>359</ele>
        <time>2015-11-29T09:26:11.000Z</time>
      </trkpt>
      <trkpt lat="47.53328" lon="6.69911">
        <ele>357</ele>
        <time>2015-11-29T09:26:12.000Z</time>
      </trkpt>
      <trkpt lat="47.53328" lon="6.69905">
        <ele>356</ele>
        <time>2015-11-29T09:26:13.000Z</time>
      </trkpt>
      <trkpt lat="47.53327" lon="6.69899">
        <ele>355</ele>
        <time>2015-11-29T09:26:14.000Z</time>
      </trkpt>
      <trkpt lat="47.53326" lon="6.69893">
        <ele>355</ele>
        <time>2015-11-29T09:26:15.000Z</time>
      </trkpt>
      <trkpt lat="47.53325" lon="6.69885">
        <ele>354</ele>
        <time>2015-11-29T09:26:16.000Z</time>
      </trkpt>
      <trkpt lat="47.53322" lon="6.69854">
        <ele>352</ele>
        <time>2015-11-29T09:26:17.000Z</time>
      </trkpt>
      <trkpt lat="47.53321" lon="6.6984">
        <ele>351</ele>
        <time>2015-11-29T09:26:18.000Z</time>
      </trkpt>
      <trkpt lat="47.5332" lon="6.69826">
        <ele>349</ele>
        <time>2015-11-29T09:26:19.000Z</time>
      </trkpt>
      <trkpt lat="47.53319" lon="6.69813">
        <ele>348</ele>
        <time>2015-11-29T09:26:20.000Z</time>
      </trkpt>
      <trkpt lat="47.53318" lon="6.69801">
        <ele>347</ele>
        <time>2015-11-29T09:26:21.000Z</time>
      </trkpt>
      <trkpt lat="47.53317" lon="6.69786">
        <ele>347</ele>
        <time>2015-11-29T09:26:22.000Z</time>
      </trkpt>
      <trkpt lat="47.53315" lon="6.69774">
        <ele>346</ele>
        <time>2015-11-29T09:26:23.000Z</time>
      </trkpt>
      <trkpt lat="47.53313" lon="6.69763">
        <ele>346</ele>
        <time>2015-11-29T09:26:24.000Z</time>
      </trkpt>
      <trkpt lat="47.53312" lon="6.69753">
        <ele>346</ele>
        <time>2015-11-29T09:26:25.000Z</time>
      </trkpt>
      <trkpt lat="47.53311" lon="6.69742">
        <ele>346</ele>
        <time>2015-11-29T09:26:26.000Z</time>
      </trkpt>
      <trkpt lat="47.5331" lon="6.69732">
        <ele>346</ele>
        <time>2015-11-29T09:26:27.000Z</time>
      </trkpt>
      <trkpt lat="47.5331" lon="6.69724">
        <ele>346</ele>
        <time>2015-11-29T09:26:28.000Z</time>
      </trkpt>
      <trkpt lat="47.53308" lon="6.69716">
        <ele>346</ele>
        <time>2015-11-29T09:26:29.000Z</time>
      </trkpt>
      <trkpt lat="47.53307" lon="6.69709">
        <ele>346</ele>
        <time>2015-11-29T09:26:30.000Z</time>
      </trkpt>
      <trkpt lat="47.53307" lon="6.69703">
        <ele>346</ele>
        <time>2015-11-29T09:26:31.000Z</time>
      </trkpt>
      <trkpt lat="47.53306" lon="6.69696">
        <ele>346</ele>
        <time>2015-11-29T09:26:32.000Z</time>
      </trkpt>
      <trkpt lat="47.53305" lon="6.6969">
        <ele>346</ele>
        <time>2015-11-29T09:26:33.000Z</time>
      </trkpt>
      <trkpt lat="47.53304" lon="6.69683">
        <ele>346</ele>
        <time>2015-11-29T09:26:34.000Z</time>
      </trkpt>
      <trkpt lat="47.53304" lon="6.69677">
        <ele>346</ele>
        <time>2015-11-29T09:26:35.000Z</time>
      </trkpt>
      <trkpt lat="47.53304" lon="6.69671">
        <ele>346</ele>
        <time>2015-11-29T09:26:36.000Z</time>
      </trkpt>
      <trkpt lat="47.53303" lon="6.69666">
        <ele>346</ele>
        <time>2015-11-29T09:26:37.000Z</time>
      </trkpt>
      <trkpt lat="47.53303" lon="6.6966">
        <ele>346</ele>
        <time>2015-11-29T09:26:38.000Z</time>
      </trkpt>
      <trkpt lat="47.53302" lon="6.69655">
        <ele>346</ele>
        <time>2015-11-29T09:26:39.000Z</time>
      </trkpt>
      <trkpt lat="47.53302" lon="6.6965">
        <ele>347</ele>
        <time>2015-11-29T09:26:40.000Z</time>
      </trkpt>
      <trkpt lat="47.53301" lon="6.69645">
        <ele>347</ele>
        <time>2015-11-29T09:26:41.000Z</time>
      </trkpt>
      <trkpt lat="47.53301" lon="6.6964">
        <ele>347</ele>
        <time>2015-11-29T09:26:42.000Z</time>
      </trkpt>
      <trkpt lat="47.533" lon="6.69634">
        <ele>347</ele>
        <time>2015-11-29T09:26:43.000Z</time>
      </trkpt>
      <trkpt lat="47.533" lon="6.69629">
        <ele>347</ele>
        <time>2015-11-29T09:26:44.000Z</time>
      </trkpt>
      <trkpt lat="47.53299" lon="6.69623">
        <ele>347</ele>
        <time>2015-11-29T09:26:45.000Z</time>
      </trkpt>
      <trkpt lat="47.53299" lon="6.69618">
        <ele>347</ele>
        <time>2015-11-29T09:26:46.000Z</time>
      </trkpt>
      <trkpt lat="47.53298" lon="6.69613">
        <ele>347</ele>
        <time>2015-11-29T09:26:47.000Z</time>
      </trkpt>
      <trkpt lat="47.53298" lon="6.69608">
        <ele>347</ele>
        <time>2015-11-29T09:26:48.000Z</time>
      </trkpt>
      <trkpt lat="47.53297" lon="6.69603">
        <ele>347</ele>
        <time>2015-11-29T09:26:49.000Z</time>
      </trkpt>
      <trkpt lat="47.53297" lon="6.69598">
        <ele>347</ele>
        <time>2015-11-29T09:26:50.000Z</time>
      </trkpt>
      <trkpt lat="47.53296" lon="6.69593">
        <ele>347</ele>
        <time>2015-11-29T09:26:51.000Z</time>
      </trkpt>
      <trkpt lat="47.53295" lon="6.69588">
        <ele>347</ele>
        <time>2015-11-29T09:26:52.000Z</time>
      </trkpt>
      <trkpt lat="47.53294" lon="6.69583">
        <ele>346</ele>
        <time>2015-11-29T09:26:53.000Z</time>
      </trkpt>
      <trkpt lat="47.53293" lon="6.69578">
        <ele>346</ele>
        <time>2015-11-29T09:26:54.000Z</time>
      </trkpt>
      <trkpt lat="47.53293" lon="6.69574">
        <ele>346</ele>
        <time>2015-11-29T09:26:55.000Z</time>
      </trkpt>
      <trkpt lat="47.53292" lon="6.6957">
        <ele>346</ele>
        <time>2015-11-29T09:26:56.000Z</time>
      </trkpt>
      <trkpt lat="47.53291" lon="6.69566">
        <ele>346</ele>
        <time>2015-11-29T09:26:57.000Z</time>
      </trkpt>
      <trkpt lat="47.53291" lon="6.69561">
        <ele>346</ele>
        <time>2015-11-29T09:26:58.000Z</time>
      </trkpt>
      <trkpt lat="47.5329" lon="6.69557">
        <ele>346</ele>
        <time>2015-11-29T09:26:59.000Z</time>
      </trkpt>
      <trkpt lat="47.53289" lon="6.69552">
        <ele>346</ele>
        <time>2015-11-29T09:27:00.000Z</time>
      </trkpt>
      <trkpt lat="47.53289" lon="6.69548">
        <ele>346</ele>
        <time>2015-11-29T09:27:01.000Z</time>
      </trkpt>
      <trkpt lat="47.53288" lon="6.69543">
        <ele>346</ele>
        <time>2015-11-29T09:27:02.000Z</time>
      </trkpt>
      <trkpt lat="47.53287" lon="6.69538">
        <ele>346</ele>
        <time>2015-11-29T09:27:03.000Z</time>
      </trkpt>
      <trkpt lat="47.53286" lon="6.69534">
        <ele>346</ele>
        <time>2015-11-29T09:27:04.000Z</time>
      </trkpt>
      <trkpt lat="47.53286" lon="6.6953">
        <ele>346</ele>
        <time>2015-11-29T09:27:05.000Z</time>
      </trkpt>
      <trkpt lat="47.53284" lon="6.69526">
        <ele>346</ele>
        <time>2015-11-29T09:27:06.000Z</time>
      </trkpt>
      <trkpt lat="47.53282" lon="6.69524">
        <ele>346</ele>
        <time>2015-11-29T09:27:07.000Z</time>
      </trkpt>
      <trkpt lat="47.53279" lon="6.69523">
        <ele>346</ele>
        <time>2015-11-29T09:27:08.000Z</time>
      </trkpt>
      <trkpt lat="47.53276" lon="6.69522">
        <ele>346</ele>
        <time>2015-11-29T09:27:09.000Z</time>
      </trkpt>
      <trkpt lat="47.53272" lon="6.69522">
        <ele>346</ele>
        <time>2015-11-29T09:27:10.000Z</time>
      </trkpt>
      <trkpt lat="47.53268" lon="6.69522">
        <ele>346</ele>
        <time>2015-11-29T09:27:11.000Z</time>
      </trkpt>
      <trkpt lat="47.53265" lon="6.69522">
        <ele>346</ele>
        <time>2015-11-29T09:27:12.000Z</time>
      </trkpt>
      <trkpt lat="47.53261" lon="6.69523">
        <ele>346</ele>
        <time>2015-11-29T09:27:13.000Z</time>
      </trkpt>
      <trkpt lat="47.53257" lon="6.69523">
        <ele>346</ele>
        <time>2015-11-29T09:27:14.000Z</time>
      </trkpt>
      <trkpt lat="47.53253" lon="6.69523">
        <ele>346</ele>
        <time>2015-11-29T09:27:15.000Z</time>
      </trkpt>
      <trkpt lat="47.5325" lon="6.69523">
        <ele>348</ele>
        <time>2015-11-29T09:27:16.000Z</time>
      </trkpt>
      <trkpt lat="47.53246" lon="6.69523">
        <ele>348</ele>
        <time>2015-11-29T09:27:17.000Z</time>
      </trkpt>
      <trkpt lat="47.53242" lon="6.69523">
        <ele>348</ele>
        <time>2015-11-29T09:27:18.000Z</time>
      </trkpt>
      <trkpt lat="47.53239" lon="6.69524">
        <ele>348</ele>
        <time>2015-11-29T09:27:19.000Z</time>
      </trkpt>
      <trkpt lat="47.53235" lon="6.69524">
        <ele>348</ele>
        <time>2015-11-29T09:27:20.000Z</time>
      </trkpt>
      <trkpt lat="47.53232" lon="6.69524">
        <ele>348</ele>
        <time>2015-11-29T09:27:21.000Z</time>
      </trkpt>
      <trkpt lat="47.53228" lon="6.69524">
        <ele>349</ele>
        <time>2015-11-29T09:27:22.000Z</time>
      </trkpt>
      <trkpt lat="47.53225" lon="6.69524">
        <ele>349</ele>
        <time>2015-11-29T09:27:23.000Z</time>
      </trkpt>
      <trkpt lat="47.53221" lon="6.69525">
        <ele>349</ele>
        <time>2015-11-29T09:27:24.000Z</time>
      </trkpt>
      <trkpt lat="47.53218" lon="6.69525">
        <ele>349</ele>
        <time>2015-11-29T09:27:25.000Z</time>
      </trkpt>
      <trkpt lat="47.53215" lon="6.69525">
        <ele>349</ele>
        <time>2015-11-29T09:27:26.000Z</time>
      </trkpt>
      <trkpt lat="47.53211" lon="6.69526">
        <ele>349</ele>
        <time>2015-11-29T09:27:27.000Z</time>
      </trkpt>
      <trkpt lat="47.53208" lon="6.69527">
        <ele>349</ele>
        <time>2015-11-29T09:27:28.000Z</time>
      </trkpt>
      <trkpt lat="47.53204" lon="6.69528">
        <ele>350</ele>
        <time>2015-11-29T09:27:29.000Z</time>
      </trkpt>
      <trkpt lat="47.53201" lon="6.69529">
        <ele>350</ele>
        <time>2015-11-29T09:27:30.000Z</time>
      </trkpt>
      <trkpt lat="47.53198" lon="6.6953">
        <ele>350</ele>
        <time>2015-11-29T09:27:31.000Z</time>
      </trkpt>
      <trkpt lat="47.53194" lon="6.69531">
        <ele>350</ele>
        <time>2015-11-29T09:27:32.000Z</time>
      </trkpt>
      <trkpt lat="47.53191" lon="6.69533">
        <ele>350</ele>
        <time>2015-11-29T09:27:33.000Z</time>
      </trkpt>
      <trkpt lat="47.53188" lon="6.69535">
        <ele>350</ele>
        <time>2015-11-29T09:27:34.000Z</time>
      </trkpt>
      <trkpt lat="47.53185" lon="6.69536">
        <ele>350</ele>
        <time>2015-11-29T09:27:35.000Z</time>
      </trkpt>
      <trkpt lat="47.53181" lon="6.69537">
        <ele>350</ele>
        <time>2015-11-29T09:27:36.000Z</time>
      </trkpt>
      <trkpt lat="47.53177" lon="6.69538">
        <ele>351</ele>
        <time>2015-11-29T09:27:37.000Z</time>
      </trkpt>
      <trkpt lat="47.53173" lon="6.69539">
        <ele>351</ele>
        <time>2015-11-29T09:27:38.000Z</time>
      </trkpt>
      <trkpt lat="47.53169" lon="6.69539">
        <ele>351</ele>
        <time>2015-11-29T09:27:39.000Z</time>
      </trkpt>
      <trkpt lat="47.53165" lon="6.6954">
        <ele>353</ele>
        <time>2015-11-29T09:27:40.000Z</time>
      </trkpt>
      <trkpt lat="47.5316" lon="6.6954">
        <ele>353</ele>
        <time>2015-11-29T09:27:41.000Z</time>
      </trkpt>
      <trkpt lat="47.53156" lon="6.6954">
        <ele>353</ele>
        <time>2015-11-29T09:27:42.000Z</time>
      </trkpt>
      <trkpt lat="47.53152" lon="6.6954">
        <ele>353</ele>
        <time>2015-11-29T09:27:43.000Z</time>
      </trkpt>
      <trkpt lat="47.53148" lon="6.6954">
        <ele>353</ele>
        <time>2015-11-29T09:27:44.000Z</time>
      </trkpt>
      <trkpt lat="47.53144" lon="6.69539">
        <ele>353</ele>
        <time>2015-11-29T09:27:45.000Z</time>
      </trkpt>
      <trkpt lat="47.5314" lon="6.69538">
        <ele>353</ele>
        <time>2015-11-29T09:27:46.000Z</time>
      </trkpt>
      <trkpt lat="47.53136" lon="6.69538">
        <ele>353</ele>
        <time>2015-11-29T09:27:47.000Z</time>
      </trkpt>
      <trkpt lat="47.53132" lon="6.69537">
        <ele>353</ele>
        <time>2015-11-29T09:27:48.000Z</time>
      </trkpt>
      <trkpt lat="47.53128" lon="6.69536">
        <ele>353</ele>
        <time>2015-11-29T09:27:49.000Z</time>
      </trkpt>
      <trkpt lat="47.53124" lon="6.69535">
        <ele>353</ele>
        <time>2015-11-29T09:27:50.000Z</time>
      </trkpt>
      <trkpt lat="47.53121" lon="6.69533">
        <ele>353</ele>
        <time>2015-11-29T09:27:51.000Z</time>
      </trkpt>
      <trkpt lat="47.53119" lon="6.6953">
        <ele>353</ele>
        <time>2015-11-29T09:27:52.000Z</time>
      </trkpt>
      <trkpt lat="47.53118" lon="6.69526">
        <ele>353</ele>
        <time>2015-11-29T09:27:53.000Z</time>
      </trkpt>
      <trkpt lat="47.53118" lon="6.6952">
        <ele>352</ele>
        <time>2015-11-29T09:27:54.000Z</time>
      </trkpt>
      <trkpt lat="47.53119" lon="6.69514">
        <ele>352</ele>
        <time>2015-11-29T09:27:55.000Z</time>
      </trkpt>
      <trkpt lat="47.53119" lon="6.69508">
        <ele>352</ele>
        <time>2015-11-29T09:27:56.000Z</time>
      </trkpt>
      <trkpt lat="47.5312" lon="6.69503">
        <ele>352</ele>
        <time>2015-11-29T09:27:57.000Z</time>
      </trkpt>
      <trkpt lat="47.5312" lon="6.69498">
        <ele>349</ele>
        <time>2015-11-29T09:27:58.000Z</time>
      </trkpt>
      <trkpt lat="47.5312" lon="6.69493">
        <ele>349</ele>
        <time>2015-11-29T09:27:59.000Z</time>
      </trkpt>
      <trkpt lat="47.5312" lon="6.69488">
        <ele>349</ele>
        <time>2015-11-29T09:28:00.000Z</time>
      </trkpt>
      <trkpt lat="47.53121" lon="6.69484">
        <ele>349</ele>
        <time>2015-11-29T09:28:01.000Z</time>
      </trkpt>
      <trkpt lat="47.53121" lon="6.69479">
        <ele>348</ele>
        <time>2015-11-29T09:28:02.000Z</time>
      </trkpt>
      <trkpt lat="47.53121" lon="6.69474">
        <ele>348</ele>
        <time>2015-11-29T09:28:03.000Z</time>
      </trkpt>
      <trkpt lat="47.53122" lon="6.6947">
        <ele>348</ele>
        <time>2015-11-29T09:28:04.000Z</time>
      </trkpt>
      <trkpt lat="47.53122" lon="6.69465">
        <ele>348</ele>
        <time>2015-11-29T09:28:05.000Z</time>
      </trkpt>
      <trkpt lat="47.53122" lon="6.69461">
        <ele>348</ele>
        <time>2015-11-29T09:28:06.000Z</time>
      </trkpt>
      <trkpt lat="47.53122" lon="6.69457">
        <ele>348</ele>
        <time>2015-11-29T09:28:07.000Z</time>
      </trkpt>
      <trkpt lat="47.53122" lon="6.69454">
        <ele>348</ele>
        <time>2015-11-29T09:28:08.000Z</time>
      </trkpt>
      <trkpt lat="47.53123" lon="6.6945">
        <ele>348</ele>
        <time>2015-11-29T09:28:09.000Z</time>
      </trkpt>
      <trkpt lat="47.53123" lon="6.69445">
        <ele>348</ele>
        <time>2015-11-29T09:28:10.000Z</time>
      </trkpt>
      <trkpt lat="47.53123" lon="6.69441">
        <ele>348</ele>
        <time>2015-11-29T09:28:11.000Z</time>
      </trkpt>
      <trkpt lat="47.53123" lon="6.69437">
        <ele>348</ele>
        <time>2015-11-29T09:28:12.000Z</time>
      </trkpt>
      <trkpt lat="47.53122" lon="6.69432">
        <ele>348</ele>
        <time>2015-11-29T09:28:13.000Z</time>
      </trkpt>
      <trkpt lat="47.53122" lon="6.69427">
        <ele>348</ele>
        <time>2015-11-29T09:28:14.000Z</time>
      </trkpt>
      <trkpt lat="47.53121" lon="6.69423">
        <ele>348</ele>
        <time>2015-11-29T09:28:15.000Z</time>
      </trkpt>
      <trkpt lat="47.53121" lon="6.69418">
        <ele>348</ele>
        <time>2015-11-29T09:28:16.000Z</time>
      </trkpt>
      <trkpt lat="47.53121" lon="6.69414">
        <ele>348</ele>
        <time>2015-11-29T09:28:17.000Z</time>
      </trkpt>
      <trkpt lat="47.5312" lon="6.69409">
        <ele>348</ele>
        <time>2015-11-29T09:28:18.000Z</time>
      </trkpt>
      <trkpt lat="47.5312" lon="6.69405">
        <ele>348</ele>
        <time>2015-11-29T09:28:19.000Z</time>
      </trkpt>
      <trkpt lat="47.5312" lon="6.69402">
        <ele>348</ele>
        <time>2015-11-29T09:28:20.000Z</time>
      </trkpt>
      <trkpt lat="47.53119" lon="6.69398">
        <ele>348</ele>
        <time>2015-11-29T09:28:21.000Z</time>
      </trkpt>
      <trkpt lat="47.53119" lon="6.69394">
        <ele>348</ele>
        <time>2015-11-29T09:28:22.000Z</time>
      </trkpt>
      <trkpt lat="47.53118" lon="6.6939">
        <ele>348</ele>
        <time>2015-11-29T09:28:23.000Z</time>
      </trkpt>
      <trkpt lat="47.53118" lon="6.69386">
        <ele>348</ele>
        <time>2015-11-29T09:28:24.000Z</time>
      </trkpt>
      <trkpt lat="47.53118" lon="6.69382">
        <ele>348</ele>
        <time>2015-11-29T09:28:25.000Z</time>
      </trkpt>
      <trkpt lat="47.53118" lon="6.69378">
        <ele>348</ele>
        <time>2015-11-29T09:28:26.000Z</time>
      </trkpt>
      <trkpt lat="47.53117" lon="6.69374">
        <ele>348</ele>
        <time>2015-11-29T09:28:27.000Z</time>
      </trkpt>
      <trkpt lat="47.53117" lon="6.6937">
        <ele>349</ele>
        <time>2015-11-29T09:28:28.000Z</time>
      </trkpt>
      <trkpt lat="47.53117" lon="6.69366">
        <ele>349</ele>
        <time>2015-11-29T09:28:29.000Z</time>
      </trkpt>
      <trkpt lat="47.53117" lon="6.69362">
        <ele>349</ele>
        <time>2015-11-29T09:28:30.000Z</time>
      </trkpt>
      <trkpt lat="47.53117" lon="6.69358">
        <ele>349</ele>
        <time>2015-11-29T09:28:31.000Z</time>
      </trkpt>
      <trkpt lat="47.53117" lon="6.69354">
        <ele>349</ele>
        <time>2015-11-29T09:28:32.000Z</time>
      </trkpt>
      <trkpt lat="47.53117" lon="6.6935">
        <ele>349</ele>
        <time>2015-11-29T09:28:33.000Z</time>
      </trkpt>
      <trkpt lat="47.53116" lon="6.69346">
        <ele>349</ele>
        <time>2015-11-29T09:28:34.000Z</time>
      </trkpt>
      <trkpt lat="47.53116" lon="6.69342">
        <ele>349</ele>
        <time>2015-11-29T09:28:35.000Z</time>
      </trkpt>
      <trkpt lat="47.53116" lon="6.69338">
        <ele>349</ele>
        <time>2015-11-29T09:28:36.000Z</time>
      </trkpt>
      <trkpt lat="47.53116" lon="6.69335">
        <ele>349</ele>
        <time>2015-11-29T09:28:37.000Z</time>
      </trkpt>
      <trkpt lat="47.53116" lon="6.69331">
        <ele>350</ele>
        <time>2015-11-29T09:28:38.000Z</time>
      </trkpt>
      <trkpt lat="47.53116" lon="6.69327">
        <ele>350</ele>
        <time>2015-11-29T09:28:39.000Z</time>
      </trkpt>
      <trkpt lat="47.53116" lon="6.69322">
        <ele>350</ele>
        <time>2015-11-29T09:28:40.000Z</time>
      </trkpt>
      <trkpt lat="47.53115" lon="6.69318">
        <ele>350</ele>
        <time>2015-11-29T09:28:41.000Z</time>
      </trkpt>
      <trkpt lat="47.53115" lon="6.69314">
        <ele>350</ele>
        <time>2015-11-29T09:28:42.001Z</time>
      </trkpt>
      <trkpt lat="47.53115" lon="6.6931">
        <ele>350</ele>
        <time>2015-11-29T09:28:43.000Z</time>
      </trkpt>
      <trkpt lat="47.53115" lon="6.69306">
        <ele>350</ele>
        <time>2015-11-29T09:28:44.000Z</time>
      </trkpt>
      <trkpt lat="47.53114" lon="6.69303">
        <ele>350</ele>
        <time>2015-11-29T09:28:45.000Z</time>
      </trkpt>
      <trkpt lat="47.53114" lon="6.69299">
        <ele>350</ele>
        <time>2015-11-29T09:28:46.000Z</time>
      </trkpt>
      <trkpt lat="47.53114" lon="6.69296">
        <ele>350</ele>
        <time>2015-11-29T09:28:47.000Z</time>
      </trkpt>
      <trkpt lat="47.53114" lon="6.69292">
        <ele>350</ele>
        <time>2015-11-29T09:28:48.000Z</time>
      </trkpt>
      <trkpt lat="47.53114" lon="6.69288">
        <ele>350</ele>
        <time>2015-11-29T09:28:49.000Z</time>
      </trkpt>
      <trkpt lat="47.53114" lon="6.69284">
        <ele>351</ele>
        <time>2015-11-29T09:28:50.000Z</time>
      </trkpt>
      <trkpt lat="47.53114" lon="6.69281">
        <ele>351</ele>
        <time>2015-11-29T09:28:51.000Z</time>
      </trkpt>
      <trkpt lat="47.53113" lon="6.69277">
        <ele>351</ele>
        <time>2015-11-29T09:28:52.000Z</time>
      </trkpt>
      <trkpt lat="47.53113" lon="6.69274">
        <ele>351</ele>
        <time>2015-11-29T09:28:53.000Z</time>
      </trkpt>
      <trkpt lat="47.53113" lon="6.6927">
        <ele>351</ele>
        <time>2015-11-29T09:28:54.000Z</time>
      </trkpt>
      <trkpt lat="47.53112" lon="6.69267">
        <ele>351</ele>
        <time>2015-11-29T09:28:55.000Z</time>
      </trkpt>
      <trkpt lat="47.53112" lon="6.69263">
        <ele>351</ele>
        <time>2015-11-29T09:28:56.000Z</time>
      </trkpt>
      <trkpt lat="47.53112" lon="6.6926">
        <ele>351</ele>
        <time>2015-11-29T09:28:57.000Z</time>
      </trkpt>
      <trkpt lat="47.53112" lon="6.69257">
        <ele>351</ele>
        <time>2015-11-29T09:28:58.000Z</time>
      </trkpt>
      <trkpt lat="47.53112" lon="6.69253">
        <ele>351</ele>
        <time>2015-11-29T09:28:59.000Z</time>
      </trkpt>
      <trkpt lat="47.53111" lon="6.69247">
        <ele>352</ele>
        <time>2015-11-29T09:29:01.000Z</time>
      </trkpt>
      <trkpt lat="47.53111" lon="6.69244">
        <ele>352</ele>
        <time>2015-11-29T09:29:02.000Z</time>
      </trkpt>
      <trkpt lat="47.53111" lon="6.69239">
        <ele>352</ele>
        <time>2015-11-29T09:29:04.000Z</time>
      </trkpt>
      <trkpt lat="47.53112" lon="6.69236">
        <ele>352</ele>
        <time>2015-11-29T09:29:05.000Z</time>
      </trkpt>
      <trkpt lat="47.53112" lon="6.69229">
        <ele>353</ele>
        <time>2015-11-29T09:29:07.000Z</time>
      </trkpt>
      <trkpt lat="47.53112" lon="6.69226">
        <ele>353</ele>
        <time>2015-11-29T09:29:08.000Z</time>
      </trkpt>
      <trkpt lat="47.53112" lon="6.69222">
        <ele>353</ele>
        <time>2015-11-29T09:29:09.000Z</time>
      </trkpt>
      <trkpt lat="47.53112" lon="6.69219">
        <ele>353</ele>
        <time>2015-11-29T09:29:10.000Z</time>
      </trkpt>
      <trkpt lat="47.53111" lon="6.69212">
        <ele>353</ele>
        <time>2015-11-29T09:29:12.000Z</time>
      </trkpt>
      <trkpt lat="47.53111" lon="6.6921">
        <ele>353</ele>
        <time>2015-11-29T09:29:13.000Z</time>
      </trkpt>
      <trkpt lat="47.53111" lon="6.69203">
        <ele>353</ele>
        <time>2015-11-29T09:29:16.000Z</time>
      </trkpt>
      <trkpt lat="47.53111" lon="6.69201">
        <ele>353</ele>
        <time>2015-11-29T09:29:17.000Z</time>
      </trkpt>
      <trkpt lat="47.5311" lon="6.69195">
        <ele>353</ele>
        <time>2015-11-29T09:29:19.000Z</time>
      </trkpt>
      <trkpt lat="47.5311" lon="6.69192">
        <ele>353</ele>
        <time>2015-11-29T09:29:20.000Z</time>
      </trkpt>
      <trkpt lat="47.5311" lon="6.69187">
        <ele>353</ele>
        <time>2015-11-29T09:29:22.000Z</time>
      </trkpt>
      <trkpt lat="47.5311" lon="6.69185">
        <ele>353</ele>
        <time>2015-11-29T09:29:23.000Z</time>
      </trkpt>
      <trkpt lat="47.5311" lon="6.69181">
        <ele>353</ele>
        <time>2015-11-29T09:29:25.000Z</time>
      </trkpt>
      <trkpt lat="47.53109" lon="6.69178">
        <ele>353</ele>
        <time>2015-11-29T09:29:26.000Z</time>
      </trkpt>
      <trkpt lat="47.53109" lon="6.69173">
        <ele>353</ele>
        <time>2015-11-29T09:29:28.000Z</time>
      </trkpt>
      <trkpt lat="47.53109" lon="6.6917">
        <ele>354</ele>
        <time>2015-11-29T09:29:29.000Z</time>
      </trkpt>
      <trkpt lat="47.53109" lon="6.69165">
        <ele>355</ele>
        <time>2015-11-29T09:29:31.000Z</time>
      </trkpt>
      <trkpt lat="47.53109" lon="6.69162">
        <ele>355</ele>
        <time>2015-11-29T09:29:32.000Z</time>
      </trkpt>
      <trkpt lat="47.53108" lon="6.69157">
        <ele>355</ele>
        <time>2015-11-29T09:29:34.000Z</time>
      </trkpt>
      <trkpt lat="47.53108" lon="6.69154">
        <ele>355</ele>
        <time>2015-11-29T09:29:35.000Z</time>
      </trkpt>
      <trkpt lat="47.53108" lon="6.69148">
        <ele>356</ele>
        <time>2015-11-29T09:29:37.000Z</time>
      </trkpt>
      <trkpt lat="47.53108" lon="6.69145">
        <ele>356</ele>
        <time>2015-11-29T09:29:38.000Z</time>
      </trkpt>
      <trkpt lat="47.53107" lon="6.69139">
        <ele>356</ele>
        <time>2015-11-29T09:29:40.000Z</time>
      </trkpt>
      <trkpt lat="47.53107" lon="6.69137">
        <ele>356</ele>
        <time>2015-11-29T09:29:41.000Z</time>
      </trkpt>
      <trkpt lat="47.53107" lon="6.69131">
        <ele>356</ele>
        <time>2015-11-29T09:29:43.000Z</time>
      </trkpt>
      <trkpt lat="47.53107" lon="6.69129">
        <ele>356</ele>
        <time>2015-11-29T09:29:44.000Z</time>
      </trkpt>
      <trkpt lat="47.53106" lon="6.69123">
        <ele>356</ele>
        <time>2015-11-29T09:29:47.000Z</time>
      </trkpt>
      <trkpt lat="47.53106" lon="6.69121">
        <ele>356</ele>
        <time>2015-11-29T09:29:48.000Z</time>
      </trkpt>
      <trkpt lat="47.53106" lon="6.69116">
        <ele>356</ele>
        <time>2015-11-29T09:29:51.000Z</time>
      </trkpt>
      <trkpt lat="47.53105" lon="6.69113">
        <ele>357</ele>
        <time>2015-11-29T09:29:52.000Z</time>
      </trkpt>
      <trkpt lat="47.53105" lon="6.69109">
        <ele>357</ele>
        <time>2015-11-29T09:29:54.000Z</time>
      </trkpt>
      <trkpt lat="47.53105" lon="6.69106">
        <ele>357</ele>
        <time>2015-11-29T09:29:55.000Z</time>
      </trkpt>
      <trkpt lat="47.53105" lon="6.69101">
        <ele>357</ele>
        <time>2015-11-29T09:29:57.000Z</time>
      </trkpt>
      <trkpt lat="47.53104" lon="6.69099">
        <ele>357</ele>
        <time>2015-11-29T09:29:58.000Z</time>
      </trkpt>
      <trkpt lat="47.53104" lon="6.69094">
        <ele>357</ele>
        <time>2015-11-29T09:30:00.000Z</time>
      </trkpt>
      <trkpt lat="47.53103" lon="6.69091">
        <ele>357</ele>
        <time>2015-11-29T09:30:01.000Z</time>
      </trkpt>
      <trkpt lat="47.53102" lon="6.69085">
        <ele>357</ele>
        <time>2015-11-29T09:30:03.000Z</time>
      </trkpt>
      <trkpt lat="47.53102" lon="6.69082">
        <ele>359</ele>
        <time>2015-11-29T09:30:04.000Z</time>
      </trkpt>
      <trkpt lat="47.53102" lon="6.69077">
        <ele>359</ele>
        <time>2015-11-29T09:30:06.000Z</time>
      </trkpt>
      <trkpt lat="47.53102" lon="6.69074">
        <ele>359</ele>
        <time>2015-11-29T09:30:07.000Z</time>
      </trkpt>
      <trkpt lat="47.53103" lon="6.69068">
        <ele>359</ele>
        <time>2015-11-29T09:30:10.000Z</time>
      </trkpt>
      <trkpt lat="47.53103" lon="6.69066">
        <ele>359</ele>
        <time>2015-11-29T09:30:11.000Z</time>
      </trkpt>
      <trkpt lat="47.53103" lon="6.69061">
        <ele>359</ele>
        <time>2015-11-29T09:30:13.000Z</time>
      </trkpt>
      <trkpt lat="47.53103" lon="6.69058">
        <ele>360</ele>
        <time>2015-11-29T09:30:14.000Z</time>
      </trkpt>
      <trkpt lat="47.53102" lon="6.69052">
        <ele>360</ele>
        <time>2015-11-29T09:30:16.000Z</time>
      </trkpt>
      <trkpt lat="47.53102" lon="6.69049">
        <ele>360</ele>
        <time>2015-11-29T09:30:17.000Z</time>
      </trkpt>
      <trkpt lat="47.53101" lon="6.69043">
        <ele>360</ele>
        <time>2015-11-29T09:30:19.000Z</time>
      </trkpt>
      <trkpt lat="47.531" lon="6.6904">
        <ele>360</ele>
        <time>2015-11-29T09:30:20.000Z</time>
      </trkpt>
      <trkpt lat="47.531" lon="6.69033">
        <ele>360</ele>
        <time>2015-11-29T09:30:22.000Z</time>
      </trkpt>
      <trkpt lat="47.531" lon="6.6903">
        <ele>360</ele>
        <time>2015-11-29T09:30:23.000Z</time>
      </trkpt>
      <trkpt lat="47.53099" lon="6.69024">
        <ele>361</ele>
        <time>2015-11-29T09:30:25.000Z</time>
      </trkpt>
      <trkpt lat="47.53099" lon="6.69021">
        <ele>361</ele>
        <time>2015-11-29T09:30:26.000Z</time>
      </trkpt>
      <trkpt lat="47.53099" lon="6.69014">
        <ele>361</ele>
        <time>2015-11-29T09:30:28.000Z</time>
      </trkpt>
      <trkpt lat="47.53098" lon="6.69011">
        <ele>361</ele>
        <time>2015-11-29T09:30:29.000Z</time>
      </trkpt>
      <trkpt lat="47.53098" lon="6.69006">
        <ele>361</ele>
        <time>2015-11-29T09:30:31.000Z</time>
      </trkpt>
      <trkpt lat="47.53098" lon="6.69003">
        <ele>361</ele>
        <time>2015-11-29T09:30:32.000Z</time>
      </trkpt>
      <trkpt lat="47.53097" lon="6.68998">
        <ele>362</ele>
        <time>2015-11-29T09:30:34.000Z</time>
      </trkpt>
      <trkpt lat="47.53097" lon="6.68995">
        <ele>362</ele>
        <time>2015-11-29T09:30:35.000Z</time>
      </trkpt>
      <trkpt lat="47.53097" lon="6.68989">
        <ele>362</ele>
        <time>2015-11-29T09:30:37.000Z</time>
      </trkpt>
      <trkpt lat="47.53096" lon="6.68987">
        <ele>362</ele>
        <time>2015-11-29T09:30:37.998Z</time>
      </trkpt>
      <trkpt lat="47.53096" lon="6.68981">
        <ele>362</ele>
        <time>2015-11-29T09:30:40.000Z</time>
      </trkpt>
      <trkpt lat="47.53096" lon="6.68978">
        <ele>363</ele>
        <time>2015-11-29T09:30:41.000Z</time>
      </trkpt>
      <trkpt lat="47.53095" lon="6.68973">
        <ele>363</ele>
        <time>2015-11-29T09:30:43.000Z</time>
      </trkpt>
      <trkpt lat="47.53095" lon="6.6897">
        <ele>363</ele>
        <time>2015-11-29T09:30:44.000Z</time>
      </trkpt>
      <trkpt lat="47.53095" lon="6.68965">
        <ele>363</ele>
        <time>2015-11-29T09:30:46.000Z</time>
      </trkpt>
      <trkpt lat="47.53095" lon="6.68962">
        <ele>363</ele>
        <time>2015-11-29T09:30:47.000Z</time>
      </trkpt>
      <trkpt lat="47.53095" lon="6.68957">
        <ele>363</ele>
        <time>2015-11-29T09:30:49.000Z</time>
      </trkpt>
      <trkpt lat="47.53096" lon="6.68954">
        <ele>363</ele>
        <time>2015-11-29T09:30:50.000Z</time>
      </trkpt>
      <trkpt lat="47.53096" lon="6.68948">
        <ele>363</ele>
        <time>2015-11-29T09:30:52.000Z</time>
      </trkpt>
      <trkpt lat="47.53096" lon="6.68945">
        <ele>363</ele>
        <time>2015-11-29T09:30:53.000Z</time>
      </trkpt>
      <trkpt lat="47.53096" lon="6.68942">
        <ele>363</ele>
        <time>2015-11-29T09:30:54.000Z</time>
      </trkpt>
      <trkpt lat="47.53095" lon="6.68938">
        <ele>363</ele>
        <time>2015-11-29T09:30:55.000Z</time>
      </trkpt>
      <trkpt lat="47.53095" lon="6.68934">
        <ele>363</ele>
        <time>2015-11-29T09:30:56.000Z</time>
      </trkpt>
      <trkpt lat="47.53095" lon="6.68931">
        <ele>363</ele>
        <time>2015-11-29T09:30:57.000Z</time>
      </trkpt>
      <trkpt lat="47.53095" lon="6.68927">
        <ele>363</ele>
        <time>2015-11-29T09:30:58.000Z</time>
      </trkpt>
      <trkpt lat="47.53095" lon="6.68924">
        <ele>363</ele>
        <time>2015-11-29T09:30:59.000Z</time>
      </trkpt>
      <trkpt lat="47.53095" lon="6.68917">
        <ele>364</ele>
        <time>2015-11-29T09:31:01.000Z</time>
      </trkpt>
      <trkpt lat="47.53095" lon="6.68914">
        <ele>364</ele>
        <time>2015-11-29T09:31:02.000Z</time>
      </trkpt>
      <trkpt lat="47.53095" lon="6.68908">
        <ele>364</ele>
        <time>2015-11-29T09:31:04.000Z</time>
      </trkpt>
      <trkpt lat="47.53095" lon="6.68906">
        <ele>364</ele>
        <time>2015-11-29T09:31:05.000Z</time>
      </trkpt>
      <trkpt lat="47.53095" lon="6.689">
        <ele>364</ele>
        <time>2015-11-29T09:31:07.000Z</time>
      </trkpt>
      <trkpt lat="47.53095" lon="6.68897">
        <ele>364</ele>
        <time>2015-11-29T09:31:08.000Z</time>
      </trkpt>
      <trkpt lat="47.53095" lon="6.68892">
        <ele>364</ele>
        <time>2015-11-29T09:31:10.000Z</time>
      </trkpt>
      <trkpt lat="47.53095" lon="6.68889">
        <ele>364</ele>
        <time>2015-11-29T09:31:11.000Z</time>
      </trkpt>
      <trkpt lat="47.53094" lon="6.68883">
        <ele>365</ele>
        <time>2015-11-29T09:31:13.000Z</time>
      </trkpt>
      <trkpt lat="47.53094" lon="6.6888">
        <ele>365</ele>
        <time>2015-11-29T09:31:14.000Z</time>
      </trkpt>
      <trkpt lat="47.53094" lon="6.68877">
        <ele>365</ele>
        <time>2015-11-29T09:31:15.000Z</time>
      </trkpt>
      <trkpt lat="47.53094" lon="6.68873">
        <ele>365</ele>
        <time>2015-11-29T09:31:16.000Z</time>
      </trkpt>
      <trkpt lat="47.53094" lon="6.68869">
        <ele>365</ele>
        <time>2015-11-29T09:31:17.000Z</time>
      </trkpt>
      <trkpt lat="47.53094" lon="6.68866">
        <ele>365</ele>
        <time>2015-11-29T09:31:18.000Z</time>
      </trkpt>
      <trkpt lat="47.53095" lon="6.6886">
        <ele>365</ele>
        <time>2015-11-29T09:31:20.000Z</time>
      </trkpt>
      <trkpt lat="47.53095" lon="6.68857">
        <ele>365</ele>
        <time>2015-11-29T09:31:21.000Z</time>
      </trkpt>
      <trkpt lat="47.53094" lon="6.6885">
        <ele>365</ele>
        <time>2015-11-29T09:31:23.000Z</time>
      </trkpt>
      <trkpt lat="47.53094" lon="6.68847">
        <ele>365</ele>
        <time>2015-11-29T09:31:24.000Z</time>
      </trkpt>
      <trkpt lat="47.53094" lon="6.68842">
        <ele>365</ele>
        <time>2015-11-29T09:31:26.000Z</time>
      </trkpt>
      <trkpt lat="47.53094" lon="6.68839">
        <ele>365</ele>
        <time>2015-11-29T09:31:27.000Z</time>
      </trkpt>
      <trkpt lat="47.53093" lon="6.68833">
        <ele>366</ele>
        <time>2015-11-29T09:31:29.000Z</time>
      </trkpt>
      <trkpt lat="47.53093" lon="6.6883">
        <ele>366</ele>
        <time>2015-11-29T09:31:30.000Z</time>
      </trkpt>
      <trkpt lat="47.53093" lon="6.68824">
        <ele>366</ele>
        <time>2015-11-29T09:31:32.000Z</time>
      </trkpt>
      <trkpt lat="47.53093" lon="6.68821">
        <ele>366</ele>
        <time>2015-11-29T09:31:33.000Z</time>
      </trkpt>
      <trkpt lat="47.53093" lon="6.68816">
        <ele>366</ele>
        <time>2015-11-29T09:31:35.000Z</time>
      </trkpt>
      <trkpt lat="47.53093" lon="6.68813">
        <ele>366</ele>
        <time>2015-11-29T09:31:36.000Z</time>
      </trkpt>
      <trkpt lat="47.53093" lon="6.68808">
        <ele>366</ele>
        <time>2015-11-29T09:31:38.000Z</time>
      </trkpt>
      <trkpt lat="47.53093" lon="6.68805">
        <ele>366</ele>
        <time>2015-11-29T09:31:39.000Z</time>
      </trkpt>
      <trkpt lat="47.53093" lon="6.68801">
        <ele>366</ele>
        <time>2015-11-29T09:31:40.000Z</time>
      </trkpt>
      <trkpt lat="47.53093" lon="6.68798">
        <ele>366</ele>
        <time>2015-11-29T09:31:41.000Z</time>
      </trkpt>
      <trkpt lat="47.53092" lon="6.68791">
        <ele>366</ele>
        <time>2015-11-29T09:31:43.000Z</time>
      </trkpt>
      <trkpt lat="47.53091" lon="6.68789">
        <ele>366</ele>
        <time>2015-11-29T09:31:44.000Z</time>
      </trkpt>
      <trkpt lat="47.53091" lon="6.68782">
        <ele>366</ele>
        <time>2015-11-29T09:31:46.000Z</time>
      </trkpt>
      <trkpt lat="47.5309" lon="6.68779">
        <ele>366</ele>
        <time>2015-11-29T09:31:47.000Z</time>
      </trkpt>
      <trkpt lat="47.5309" lon="6.68773">
        <ele>367</ele>
        <time>2015-11-29T09:31:49.000Z</time>
      </trkpt>
      <trkpt lat="47.53089" lon="6.6877">
        <ele>367</ele>
        <time>2015-11-29T09:31:50.000Z</time>
      </trkpt>
      <trkpt lat="47.53089" lon="6.68764">
        <ele>367</ele>
        <time>2015-11-29T09:31:52.000Z</time>
      </trkpt>
      <trkpt lat="47.53088" lon="6.68761">
        <ele>367</ele>
        <time>2015-11-29T09:31:53.000Z</time>
      </trkpt>
      <trkpt lat="47.53088" lon="6.68755">
        <ele>367</ele>
        <time>2015-11-29T09:31:55.000Z</time>
      </trkpt>
      <trkpt lat="47.53087" lon="6.68753">
        <ele>367</ele>
        <time>2015-11-29T09:31:56.000Z</time>
      </trkpt>
      <trkpt lat="47.53087" lon="6.68748">
        <ele>367</ele>
        <time>2015-11-29T09:31:58.000Z</time>
      </trkpt>
      <trkpt lat="47.53087" lon="6.68745">
        <ele>367</ele>
        <time>2015-11-29T09:31:59.000Z</time>
      </trkpt>
      <trkpt lat="47.53086" lon="6.68739">
        <ele>368</ele>
        <time>2015-11-29T09:32:01.000Z</time>
      </trkpt>
      <trkpt lat="47.53086" lon="6.68736">
        <ele>368</ele>
        <time>2015-11-29T09:32:02.000Z</time>
      </trkpt>
      <trkpt lat="47.53085" lon="6.6873">
        <ele>368</ele>
        <time>2015-11-29T09:32:04.000Z</time>
      </trkpt>
      <trkpt lat="47.53085" lon="6.68727">
        <ele>368</ele>
        <time>2015-11-29T09:32:05.000Z</time>
      </trkpt>
      <trkpt lat="47.53085" lon="6.6872">
        <ele>368</ele>
        <time>2015-11-29T09:32:07.000Z</time>
      </trkpt>
      <trkpt lat="47.53085" lon="6.68717">
        <ele>368</ele>
        <time>2015-11-29T09:32:08.000Z</time>
      </trkpt>
      <trkpt lat="47.53085" lon="6.68711">
        <ele>368</ele>
        <time>2015-11-29T09:32:10.000Z</time>
      </trkpt>
      <trkpt lat="47.53085" lon="6.68709">
        <ele>368</ele>
        <time>2015-11-29T09:32:11.000Z</time>
      </trkpt>
      <trkpt lat="47.53085" lon="6.68703">
        <ele>369</ele>
        <time>2015-11-29T09:32:13.000Z</time>
      </trkpt>
      <trkpt lat="47.53085" lon="6.687">
        <ele>369</ele>
        <time>2015-11-29T09:32:14.000Z</time>
      </trkpt>
      <trkpt lat="47.53085" lon="6.68695">
        <ele>369</ele>
        <time>2015-11-29T09:32:16.000Z</time>
      </trkpt>
      <trkpt lat="47.53084" lon="6.68693">
        <ele>369</ele>
        <time>2015-11-29T09:32:17.000Z</time>
      </trkpt>
      <trkpt lat="47.53084" lon="6.68687">
        <ele>369</ele>
        <time>2015-11-29T09:32:19.000Z</time>
      </trkpt>
      <trkpt lat="47.53083" lon="6.68685">
        <ele>369</ele>
        <time>2015-11-29T09:32:20.000Z</time>
      </trkpt>
      <trkpt lat="47.53083" lon="6.68679">
        <ele>369</ele>
        <time>2015-11-29T09:32:22.000Z</time>
      </trkpt>
      <trkpt lat="47.53084" lon="6.68676">
        <ele>370</ele>
        <time>2015-11-29T09:32:23.000Z</time>
      </trkpt>
      <trkpt lat="47.53084" lon="6.68669">
        <ele>370</ele>
        <time>2015-11-29T09:32:25.000Z</time>
      </trkpt>
      <trkpt lat="47.53084" lon="6.68666">
        <ele>370</ele>
        <time>2015-11-29T09:32:26.000Z</time>
      </trkpt>
      <trkpt lat="47.53083" lon="6.68662">
        <ele>370</ele>
        <time>2015-11-29T09:32:27.000Z</time>
      </trkpt>
      <trkpt lat="47.53083" lon="6.68659">
        <ele>371</ele>
        <time>2015-11-29T09:32:28.000Z</time>
      </trkpt>
      <trkpt lat="47.53082" lon="6.68656">
        <ele>371</ele>
        <time>2015-11-29T09:32:29.000Z</time>
      </trkpt>
      <trkpt lat="47.53082" lon="6.68652">
        <ele>371</ele>
        <time>2015-11-29T09:32:30.000Z</time>
      </trkpt>
      <trkpt lat="47.53082" lon="6.68646">
        <ele>371</ele>
        <time>2015-11-29T09:32:32.000Z</time>
      </trkpt>
      <trkpt lat="47.53082" lon="6.68643">
        <ele>371</ele>
        <time>2015-11-29T09:32:33.000Z</time>
      </trkpt>
      <trkpt lat="47.53081" lon="6.68639">
        <ele>372</ele>
        <time>2015-11-29T09:32:34.000Z</time>
      </trkpt>
      <trkpt lat="47.53081" lon="6.68636">
        <ele>372</ele>
        <time>2015-11-29T09:32:35.000Z</time>
      </trkpt>
      <trkpt lat="47.53081" lon="6.68632">
        <ele>372</ele>
        <time>2015-11-29T09:32:36.000Z</time>
      </trkpt>
      <trkpt lat="47.53081" lon="6.68628">
        <ele>372</ele>
        <time>2015-11-29T09:32:37.000Z</time>
      </trkpt>
      <trkpt lat="47.53081" lon="6.68625">
        <ele>372</ele>
        <time>2015-11-29T09:32:38.000Z</time>
      </trkpt>
      <trkpt lat="47.5308" lon="6.68621">
        <ele>372</ele>
        <time>2015-11-29T09:32:39.000Z</time>
      </trkpt>
      <trkpt lat="47.5308" lon="6.68617">
        <ele>372</ele>
        <time>2015-11-29T09:32:40.000Z</time>
      </trkpt>
      <trkpt lat="47.53079" lon="6.68614">
        <ele>373</ele>
        <time>2015-11-29T09:32:41.000Z</time>
      </trkpt>
      <trkpt lat="47.53079" lon="6.6861">
        <ele>373</ele>
        <time>2015-11-29T09:32:42.000Z</time>
      </trkpt>
      <trkpt lat="47.53079" lon="6.68606">
        <ele>373</ele>
        <time>2015-11-29T09:32:43.000Z</time>
      </trkpt>
      <trkpt lat="47.53078" lon="6.68603">
        <ele>373</ele>
        <time>2015-11-29T09:32:44.000Z</time>
      </trkpt>
      <trkpt lat="47.53078" lon="6.68599">
        <ele>373</ele>
        <time>2015-11-29T09:32:45.000Z</time>
      </trkpt>
      <trkpt lat="47.53077" lon="6.68595">
        <ele>373</ele>
        <time>2015-11-29T09:32:46.000Z</time>
      </trkpt>
      <trkpt lat="47.53077" lon="6.68591">
        <ele>373</ele>
        <time>2015-11-29T09:32:47.000Z</time>
      </trkpt>
      <trkpt lat="47.53076" lon="6.68587">
        <ele>374</ele>
        <time>2015-11-29T09:32:48.000Z</time>
      </trkpt>
      <trkpt lat="47.53076" lon="6.68584">
        <ele>374</ele>
        <time>2015-11-29T09:32:49.000Z</time>
      </trkpt>
      <trkpt lat="47.53075" lon="6.68578">
        <ele>374</ele>
        <time>2015-11-29T09:32:51.000Z</time>
      </trkpt>
      <trkpt lat="47.53074" lon="6.68575">
        <ele>375</ele>
        <time>2015-11-29T09:32:52.000Z</time>
      </trkpt>
      <trkpt lat="47.53073" lon="6.6857">
        <ele>375</ele>
        <time>2015-11-29T09:32:54.000Z</time>
      </trkpt>
      <trkpt lat="47.53073" lon="6.68567">
        <ele>375</ele>
        <time>2015-11-29T09:32:55.000Z</time>
      </trkpt>
      <trkpt lat="47.53073" lon="6.68563">
        <ele>375</ele>
        <time>2015-11-29T09:32:55.999Z</time>
      </trkpt>
      <trkpt lat="47.53072" lon="6.6856">
        <ele>375</ele>
        <time>2015-11-29T09:32:57.000Z</time>
      </trkpt>
      <trkpt lat="47.5307" lon="6.68554">
        <ele>375</ele>
        <time>2015-11-29T09:32:59.000Z</time>
      </trkpt>
      <trkpt lat="47.5307" lon="6.68551">
        <ele>375</ele>
        <time>2015-11-29T09:33:00.000Z</time>
      </trkpt>
      <trkpt lat="47.53068" lon="6.68545">
        <ele>375</ele>
        <time>2015-11-29T09:33:02.000Z</time>
      </trkpt>
      <trkpt lat="47.53067" lon="6.68542">
        <ele>375</ele>
        <time>2015-11-29T09:33:03.000Z</time>
      </trkpt>
      <trkpt lat="47.53066" lon="6.68537">
        <ele>375</ele>
        <time>2015-11-29T09:33:05.000Z</time>
      </trkpt>
      <trkpt lat="47.53065" lon="6.68535">
        <ele>375</ele>
        <time>2015-11-29T09:33:06.000Z</time>
      </trkpt>
      <trkpt lat="47.53064" lon="6.68529">
        <ele>376</ele>
        <time>2015-11-29T09:33:08.000Z</time>
      </trkpt>
      <trkpt lat="47.53063" lon="6.68527">
        <ele>376</ele>
        <time>2015-11-29T09:33:09.000Z</time>
      </trkpt>
      <trkpt lat="47.53062" lon="6.68522">
        <ele>376</ele>
        <time>2015-11-29T09:33:11.000Z</time>
      </trkpt>
      <trkpt lat="47.53061" lon="6.6852">
        <ele>376</ele>
        <time>2015-11-29T09:33:12.000Z</time>
      </trkpt>
      <trkpt lat="47.5306" lon="6.68514">
        <ele>376</ele>
        <time>2015-11-29T09:33:14.000Z</time>
      </trkpt>
      <trkpt lat="47.53059" lon="6.68511">
        <ele>376</ele>
        <time>2015-11-29T09:33:14.999Z</time>
      </trkpt>
      <trkpt lat="47.53057" lon="6.68505">
        <ele>376</ele>
        <time>2015-11-29T09:33:17.000Z</time>
      </trkpt>
      <trkpt lat="47.53057" lon="6.68502">
        <ele>376</ele>
        <time>2015-11-29T09:33:18.000Z</time>
      </trkpt>
      <trkpt lat="47.53055" lon="6.68497">
        <ele>377</ele>
        <time>2015-11-29T09:33:21.000Z</time>
      </trkpt>
      <trkpt lat="47.53055" lon="6.68495">
        <ele>377</ele>
        <time>2015-11-29T09:33:22.000Z</time>
      </trkpt>
      <trkpt lat="47.53053" lon="6.6849">
        <ele>377</ele>
        <time>2015-11-29T09:33:24.000Z</time>
      </trkpt>
      <trkpt lat="47.53053" lon="6.68487">
        <ele>377</ele>
        <time>2015-11-29T09:33:25.000Z</time>
      </trkpt>
      <trkpt lat="47.53051" lon="6.68482">
        <ele>377</ele>
        <time>2015-11-29T09:33:27.000Z</time>
      </trkpt>
      <trkpt lat="47.53051" lon="6.68479">
        <ele>377</ele>
        <time>2015-11-29T09:33:28.000Z</time>
      </trkpt>
      <trkpt lat="47.53049" lon="6.68473">
        <ele>377</ele>
        <time>2015-11-29T09:33:30.000Z</time>
      </trkpt>
      <trkpt lat="47.53049" lon="6.6847">
        <ele>377</ele>
        <time>2015-11-29T09:33:31.000Z</time>
      </trkpt>
      <trkpt lat="47.53047" lon="6.68464">
        <ele>377</ele>
        <time>2015-11-29T09:33:33.000Z</time>
      </trkpt>
      <trkpt lat="47.53047" lon="6.68461">
        <ele>377</ele>
        <time>2015-11-29T09:33:34.000Z</time>
      </trkpt>
      <trkpt lat="47.53046" lon="6.68457">
        <ele>378</ele>
        <time>2015-11-29T09:33:35.000Z</time>
      </trkpt>
      <trkpt lat="47.53045" lon="6.68454">
        <ele>378</ele>
        <time>2015-11-29T09:33:36.000Z</time>
      </trkpt>
      <trkpt lat="47.53045" lon="6.6845">
        <ele>378</ele>
        <time>2015-11-29T09:33:37.000Z</time>
      </trkpt>
      <trkpt lat="47.53044" lon="6.68447">
        <ele>378</ele>
        <time>2015-11-29T09:33:38.000Z</time>
      </trkpt>
      <trkpt lat="47.53043" lon="6.6844">
        <ele>378</ele>
        <time>2015-11-29T09:33:40.001Z</time>
      </trkpt>
      <trkpt lat="47.53043" lon="6.68439">
        <ele>378</ele>
        <time>2015-11-29T09:33:41.000Z</time>
      </trkpt>
      <trkpt lat="47.53042" lon="6.68434">
        <ele>378</ele>
        <time>2015-11-29T09:33:43.000Z</time>
      </trkpt>
      <trkpt lat="47.53042" lon="6.68432">
        <ele>378</ele>
        <time>2015-11-29T09:33:44.000Z</time>
      </trkpt>
      <trkpt lat="47.53041" lon="6.68427">
        <ele>378</ele>
        <time>2015-11-29T09:33:46.000Z</time>
      </trkpt>
      <trkpt lat="47.53041" lon="6.68425">
        <ele>378</ele>
        <time>2015-11-29T09:33:47.000Z</time>
      </trkpt>
      <trkpt lat="47.53039" lon="6.68419">
        <ele>378</ele>
        <time>2015-11-29T09:33:49.000Z</time>
      </trkpt>
      <trkpt lat="47.53038" lon="6.68416">
        <ele>379</ele>
        <time>2015-11-29T09:33:50.000Z</time>
      </trkpt>
      <trkpt lat="47.53037" lon="6.68411">
        <ele>379</ele>
        <time>2015-11-29T09:33:52.000Z</time>
      </trkpt>
      <trkpt lat="47.53036" lon="6.68408">
        <ele>379</ele>
        <time>2015-11-29T09:33:53.000Z</time>
      </trkpt>
      <trkpt lat="47.53034" lon="6.68402">
        <ele>379</ele>
        <time>2015-11-29T09:33:57.000Z</time>
      </trkpt>
      <trkpt lat="47.53033" lon="6.684">
        <ele>379</ele>
        <time>2015-11-29T09:33:58.000Z</time>
      </trkpt>
      <trkpt lat="47.53032" lon="6.68395">
        <ele>379</ele>
        <time>2015-11-29T09:34:01.000Z</time>
      </trkpt>
      <trkpt lat="47.53032" lon="6.68393">
        <ele>379</ele>
        <time>2015-11-29T09:34:02.000Z</time>
      </trkpt>
      <trkpt lat="47.53035" lon="6.68388">
        <ele>380</ele>
        <time>2015-11-29T09:34:05.000Z</time>
      </trkpt>
      <trkpt lat="47.53036" lon="6.68387">
        <ele>380</ele>
        <time>2015-11-29T09:34:06.000Z</time>
      </trkpt>
      <trkpt lat="47.5304" lon="6.68386">
        <ele>380</ele>
        <time>2015-11-29T09:34:10.000Z</time>
      </trkpt>
      <trkpt lat="47.53041" lon="6.68386">
        <ele>380</ele>
        <time>2015-11-29T09:34:11.000Z</time>
      </trkpt>
      <trkpt lat="47.53043" lon="6.68382">
        <ele>380</ele>
        <time>2015-11-29T09:38:02.000Z</time>
      </trkpt>
      <trkpt lat="47.53044" lon="6.68381">
        <ele>380</ele>
        <time>2015-11-29T09:38:03.000Z</time>
      </trkpt>
      <trkpt lat="47.53047" lon="6.6838">
        <ele>380</ele>
        <time>2015-11-29T09:38:06.000Z</time>
      </trkpt>
      <trkpt lat="47.53049" lon="6.68381">
        <ele>380</ele>
        <time>2015-11-29T09:38:07.000Z</time>
      </trkpt>
      <trkpt lat="47.53052" lon="6.68382">
        <ele>380</ele>
        <time>2015-11-29T09:38:08.000Z</time>
      </trkpt>
      <trkpt lat="47.53054" lon="6.68382">
        <ele>380</ele>
        <time>2015-11-29T09:38:09.000Z</time>
      </trkpt>
      <trkpt lat="47.53058" lon="6.68383">
        <ele>380</ele>
        <time>2015-11-29T09:38:11.000Z</time>
      </trkpt>
      <trkpt lat="47.5306" lon="6.68383">
        <ele>380</ele>
        <time>2015-11-29T09:38:12.000Z</time>
      </trkpt>
      <trkpt lat="47.53065" lon="6.68383">
        <ele>380</ele>
        <time>2015-11-29T09:38:14.000Z</time>
      </trkpt>
      <trkpt lat="47.53067" lon="6.68382">
        <ele>380</ele>
        <time>2015-11-29T09:38:15.000Z</time>
      </trkpt>
      <trkpt lat="47.53069" lon="6.68382">
        <ele>380</ele>
        <time>2015-11-29T09:38:16.001Z</time>
      </trkpt>
      <trkpt lat="47.53072" lon="6.68382">
        <ele>380</ele>
        <time>2015-11-29T09:38:17.000Z</time>
      </trkpt>
      <trkpt lat="47.53074" lon="6.68382">
        <ele>380</ele>
        <time>2015-11-29T09:38:18.000Z</time>
      </trkpt>
      <trkpt lat="47.53077" lon="6.68382">
        <ele>380</ele>
        <time>2015-11-29T09:38:19.000Z</time>
      </trkpt>
      <trkpt lat="47.53079" lon="6.68382">
        <ele>380</ele>
        <time>2015-11-29T09:38:20.000Z</time>
      </trkpt>
      <trkpt lat="47.53081" lon="6.68382">
        <ele>380</ele>
        <time>2015-11-29T09:38:21.000Z</time>
      </trkpt>
      <trkpt lat="47.53084" lon="6.68382">
        <ele>381</ele>
        <time>2015-11-29T09:38:22.000Z</time>
      </trkpt>
      <trkpt lat="47.53086" lon="6.68382">
        <ele>381</ele>
        <time>2015-11-29T09:38:23.000Z</time>
      </trkpt>
      <trkpt lat="47.53089" lon="6.68382">
        <ele>381</ele>
        <time>2015-11-29T09:38:24.000Z</time>
      </trkpt>
      <trkpt lat="47.53091" lon="6.68381">
        <ele>381</ele>
        <time>2015-11-29T09:38:25.000Z</time>
      </trkpt>
      <trkpt lat="47.53094" lon="6.68381">
        <ele>381</ele>
        <time>2015-11-29T09:38:26.000Z</time>
      </trkpt>
      <trkpt lat="47.53096" lon="6.68381">
        <ele>381</ele>
        <time>2015-11-29T09:38:27.000Z</time>
      </trkpt>
      <trkpt lat="47.53098" lon="6.68381">
        <ele>381</ele>
        <time>2015-11-29T09:38:28.000Z</time>
      </trkpt>
      <trkpt lat="47.53101" lon="6.68381">
        <ele>381</ele>
        <time>2015-11-29T09:38:29.000Z</time>
      </trkpt>
      <trkpt lat="47.53105" lon="6.68379">
        <ele>381</ele>
        <time>2015-11-29T09:38:31.000Z</time>
      </trkpt>
      <trkpt lat="47.53107" lon="6.68379">
        <ele>381</ele>
        <time>2015-11-29T09:38:32.000Z</time>
      </trkpt>
      <trkpt lat="47.53111" lon="6.68378">
        <ele>381</ele>
        <time>2015-11-29T09:38:34.000Z</time>
      </trkpt>
      <trkpt lat="47.53114" lon="6.68378">
        <ele>381</ele>
        <time>2015-11-29T09:38:35.000Z</time>
      </trkpt>
      <trkpt lat="47.53116" lon="6.68378">
        <ele>381</ele>
        <time>2015-11-29T09:38:35.999Z</time>
      </trkpt>
      <trkpt lat="47.53119" lon="6.68378">
        <ele>381</ele>
        <time>2015-11-29T09:38:37.000Z</time>
      </trkpt>
      <trkpt lat="47.53121" lon="6.68378">
        <ele>381</ele>
        <time>2015-11-29T09:38:38.000Z</time>
      </trkpt>
      <trkpt lat="47.53123" lon="6.68378">
        <ele>381</ele>
        <time>2015-11-29T09:38:39.000Z</time>
      </trkpt>
      <trkpt lat="47.53126" lon="6.68378">
        <ele>381</ele>
        <time>2015-11-29T09:38:40.000Z</time>
      </trkpt>
      <trkpt lat="47.53128" lon="6.68378">
        <ele>382</ele>
        <time>2015-11-29T09:38:41.001Z</time>
      </trkpt>
      <trkpt lat="47.5313" lon="6.68378">
        <ele>382</ele>
        <time>2015-11-29T09:38:42.001Z</time>
      </trkpt>
      <trkpt lat="47.53133" lon="6.68378">
        <ele>382</ele>
        <time>2015-11-29T09:38:43.000Z</time>
      </trkpt>
      <trkpt lat="47.53135" lon="6.68377">
        <ele>382</ele>
        <time>2015-11-29T09:38:43.998Z</time>
      </trkpt>
      <trkpt lat="47.53138" lon="6.68378">
        <ele>382</ele>
        <time>2015-11-29T09:38:45.000Z</time>
      </trkpt>
      <trkpt lat="47.5314" lon="6.68378">
        <ele>382</ele>
        <time>2015-11-29T09:38:45.999Z</time>
      </trkpt>
      <trkpt lat="47.53143" lon="6.68378">
        <ele>382</ele>
        <time>2015-11-29T09:38:47.002Z</time>
      </trkpt>
      <trkpt lat="47.53146" lon="6.68378">
        <ele>382</ele>
        <time>2015-11-29T09:38:48.000Z</time>
      </trkpt>
      <trkpt lat="47.53149" lon="6.68378">
        <ele>382</ele>
        <time>2015-11-29T09:38:49.000Z</time>
      </trkpt>
      <trkpt lat="47.53152" lon="6.68378">
        <ele>382</ele>
        <time>2015-11-29T09:38:50.000Z</time>
      </trkpt>
      <trkpt lat="47.53154" lon="6.68379">
        <ele>382</ele>
        <time>2015-11-29T09:38:51.000Z</time>
      </trkpt>
      <trkpt lat="47.53157" lon="6.68379">
        <ele>382</ele>
        <time>2015-11-29T09:38:52.000Z</time>
      </trkpt>
      <trkpt lat="47.53159" lon="6.68379">
        <ele>382</ele>
        <time>2015-11-29T09:38:53.000Z</time>
      </trkpt>
      <trkpt lat="47.53161" lon="6.68379">
        <ele>382</ele>
        <time>2015-11-29T09:38:54.000Z</time>
      </trkpt>
      <trkpt lat="47.53164" lon="6.68378">
        <ele>382</ele>
        <time>2015-11-29T09:38:55.000Z</time>
      </trkpt>
      <trkpt lat="47.53167" lon="6.68378">
        <ele>378</ele>
        <time>2015-11-29T09:38:56.000Z</time>
      </trkpt>
      <trkpt lat="47.53169" lon="6.68377">
        <ele>378</ele>
        <time>2015-11-29T09:38:57.000Z</time>
      </trkpt>
      <trkpt lat="47.53173" lon="6.68376">
        <ele>378</ele>
        <time>2015-11-29T09:38:59.001Z</time>
      </trkpt>
      <trkpt lat="47.53176" lon="6.68376">
        <ele>378</ele>
        <time>2015-11-29T09:39:00.000Z</time>
      </trkpt>
      <trkpt lat="47.53179" lon="6.68375">
        <ele>378</ele>
        <time>2015-11-29T09:39:01.000Z</time>
      </trkpt>
      <trkpt lat="47.53181" lon="6.68374">
        <ele>378</ele>
        <time>2015-11-29T09:39:02.000Z</time>
      </trkpt>
      <trkpt lat="47.53184" lon="6.68372">
        <ele>377</ele>
        <time>2015-11-29T09:39:03.000Z</time>
      </trkpt>
      <trkpt lat="47.53186" lon="6.68371">
        <ele>377</ele>
        <time>2015-11-29T09:39:04.000Z</time>
      </trkpt>
      <trkpt lat="47.53189" lon="6.68369">
        <ele>377</ele>
        <time>2015-11-29T09:39:05.000Z</time>
      </trkpt>
      <trkpt lat="47.53192" lon="6.68367">
        <ele>377</ele>
        <time>2015-11-29T09:39:06.000Z</time>
      </trkpt>
      <trkpt lat="47.53195" lon="6.68366">
        <ele>377</ele>
        <time>2015-11-29T09:39:07.000Z</time>
      </trkpt>
      <trkpt lat="47.53199" lon="6.68366">
        <ele>376</ele>
        <time>2015-11-29T09:39:08.000Z</time>
      </trkpt>
      <trkpt lat="47.5321" lon="6.68368">
        <ele>375</ele>
        <time>2015-11-29T09:39:09.000Z</time>
      </trkpt>
      <trkpt lat="47.53216" lon="6.68368">
        <ele>375</ele>
        <time>2015-11-29T09:39:10.000Z</time>
      </trkpt>
      <trkpt lat="47.5322" lon="6.6837">
        <ele>374</ele>
        <time>2015-11-29T09:39:11.000Z</time>
      </trkpt>
      <trkpt lat="47.53225" lon="6.6837">
        <ele>374</ele>
        <time>2015-11-29T09:39:12.000Z</time>
      </trkpt>
      <trkpt lat="47.53231" lon="6.6837">
        <ele>374</ele>
        <time>2015-11-29T09:39:13.000Z</time>
      </trkpt>
      <trkpt lat="47.53237" lon="6.68372">
        <ele>373</ele>
        <time>2015-11-29T09:39:14.000Z</time>
      </trkpt>
      <trkpt lat="47.53242" lon="6.68372">
        <ele>373</ele>
        <time>2015-11-29T09:39:15.000Z</time>
      </trkpt>
      <trkpt lat="47.53247" lon="6.68373">
        <ele>373</ele>
        <time>2015-11-29T09:39:16.000Z</time>
      </trkpt>
      <trkpt lat="47.53253" lon="6.68373">
        <ele>366</ele>
        <time>2015-11-29T09:39:17.000Z</time>
      </trkpt>
      <trkpt lat="47.53259" lon="6.68374">
        <ele>366</ele>
        <time>2015-11-29T09:39:18.000Z</time>
      </trkpt>
      <trkpt lat="47.53264" lon="6.68374">
        <ele>366</ele>
        <time>2015-11-29T09:39:19.000Z</time>
      </trkpt>
      <trkpt lat="47.53269" lon="6.68372">
        <ele>366</ele>
        <time>2015-11-29T09:39:20.000Z</time>
      </trkpt>
      <trkpt lat="47.53275" lon="6.68374">
        <ele>366</ele>
        <time>2015-11-29T09:39:21.000Z</time>
      </trkpt>
      <trkpt lat="47.53281" lon="6.68375">
        <ele>366</ele>
        <time>2015-11-29T09:39:22.000Z</time>
      </trkpt>
      <trkpt lat="47.53285" lon="6.68376">
        <ele>366</ele>
        <time>2015-11-29T09:39:23.000Z</time>
      </trkpt>
      <trkpt lat="47.53291" lon="6.68376">
        <ele>365</ele>
        <time>2015-11-29T09:39:24.000Z</time>
      </trkpt>
      <trkpt lat="47.53295" lon="6.68377">
        <ele>365</ele>
        <time>2015-11-29T09:39:24.999Z</time>
      </trkpt>
      <trkpt lat="47.53301" lon="6.68377">
        <ele>365</ele>
        <time>2015-11-29T09:39:26.000Z</time>
      </trkpt>
      <trkpt lat="47.53308" lon="6.68378">
        <ele>365</ele>
        <time>2015-11-29T09:39:27.000Z</time>
      </trkpt>
      <trkpt lat="47.53314" lon="6.6838">
        <ele>364</ele>
        <time>2015-11-29T09:39:28.000Z</time>
      </trkpt>
      <trkpt lat="47.53319" lon="6.68381">
        <ele>364</ele>
        <time>2015-11-29T09:39:28.999Z</time>
      </trkpt>
      <trkpt lat="47.53325" lon="6.68381">
        <ele>364</ele>
        <time>2015-11-29T09:39:30.000Z</time>
      </trkpt>
      <trkpt lat="47.53329" lon="6.68382">
        <ele>364</ele>
        <time>2015-11-29T09:39:31.000Z</time>
      </trkpt>
      <trkpt lat="47.53335" lon="6.68382">
        <ele>366</ele>
        <time>2015-11-29T09:39:32.000Z</time>
      </trkpt>
      <trkpt lat="47.53342" lon="6.68385">
        <ele>366</ele>
        <time>2015-11-29T09:39:33.000Z</time>
      </trkpt>
      <trkpt lat="47.53348" lon="6.68386">
        <ele>366</ele>
        <time>2015-11-29T09:39:34.000Z</time>
      </trkpt>
      <trkpt lat="47.53352" lon="6.68386">
        <ele>367</ele>
        <time>2015-11-29T09:39:34.999Z</time>
      </trkpt>
      <trkpt lat="47.53354" lon="6.68382">
        <ele>367</ele>
        <time>2015-11-29T09:39:37.000Z</time>
      </trkpt>
      <trkpt lat="47.53357" lon="6.68385">
        <ele>367</ele>
        <time>2015-11-29T09:39:38.000Z</time>
      </trkpt>
      <trkpt lat="47.53361" lon="6.68384">
        <ele>367</ele>
        <time>2015-11-29T09:39:40.000Z</time>
      </trkpt>
      <trkpt lat="47.53362" lon="6.68384">
        <ele>368</ele>
        <time>2015-11-29T09:39:41.001Z</time>
      </trkpt>
      <trkpt lat="47.53366" lon="6.68384">
        <ele>368</ele>
        <time>2015-11-29T09:39:44.000Z</time>
      </trkpt>
      <trkpt lat="47.53367" lon="6.68383">
        <ele>368</ele>
        <time>2015-11-29T09:39:45.000Z</time>
      </trkpt>
      <trkpt lat="47.53371" lon="6.68381">
        <ele>368</ele>
        <time>2015-11-29T09:39:48.000Z</time>
      </trkpt>
      <trkpt lat="47.53372" lon="6.6838">
        <ele>368</ele>
        <time>2015-11-29T09:39:49.000Z</time>
      </trkpt>
      <trkpt lat="47.53374" lon="6.68377">
        <ele>368</ele>
        <time>2015-11-29T09:39:50.000Z</time>
      </trkpt>
      <trkpt lat="47.53375" lon="6.68374">
        <ele>368</ele>
        <time>2015-11-29T09:39:51.000Z</time>
      </trkpt>
      <trkpt lat="47.53376" lon="6.6837">
        <ele>369</ele>
        <time>2015-11-29T09:39:52.000Z</time>
      </trkpt>
      <trkpt lat="47.53377" lon="6.68367">
        <ele>369</ele>
        <time>2015-11-29T09:39:53.000Z</time>
      </trkpt>
      <trkpt lat="47.53381" lon="6.68364">
        <ele>369</ele>
        <time>2015-11-29T09:39:55.000Z</time>
      </trkpt>
      <trkpt lat="47.53383" lon="6.68364">
        <ele>369</ele>
        <time>2015-11-29T09:39:56.000Z</time>
      </trkpt>
      <trkpt lat="47.53385" lon="6.68365">
        <ele>369</ele>
        <time>2015-11-29T09:39:57.000Z</time>
      </trkpt>
      <trkpt lat="47.53388" lon="6.68365">
        <ele>369</ele>
        <time>2015-11-29T09:39:58.000Z</time>
      </trkpt>
      <trkpt lat="47.53391" lon="6.68367">
        <ele>370</ele>
        <time>2015-11-29T09:40:00.000Z</time>
      </trkpt>
      <trkpt lat="47.53393" lon="6.68367">
        <ele>370</ele>
        <time>2015-11-29T09:40:01.000Z</time>
      </trkpt>
      <trkpt lat="47.53396" lon="6.68368">
        <ele>370</ele>
        <time>2015-11-29T09:40:03.000Z</time>
      </trkpt>
      <trkpt lat="47.53398" lon="6.68369">
        <ele>370</ele>
        <time>2015-11-29T09:40:04.000Z</time>
      </trkpt>
      <trkpt lat="47.53402" lon="6.6837">
        <ele>370</ele>
        <time>2015-11-29T09:40:08.000Z</time>
      </trkpt>
      <trkpt lat="47.53403" lon="6.6837">
        <ele>370</ele>
        <time>2015-11-29T09:40:09.000Z</time>
      </trkpt>
      <trkpt lat="47.53407" lon="6.68369">
        <ele>370</ele>
        <time>2015-11-29T09:40:12.000Z</time>
      </trkpt>
      <trkpt lat="47.53408" lon="6.6837">
        <ele>371</ele>
        <time>2015-11-29T09:40:13.000Z</time>
      </trkpt>
      <trkpt lat="47.53412" lon="6.68371">
        <ele>371</ele>
        <time>2015-11-29T09:40:15.000Z</time>
      </trkpt>
      <trkpt lat="47.53414" lon="6.68371">
        <ele>371</ele>
        <time>2015-11-29T09:40:16.000Z</time>
      </trkpt>
      <trkpt lat="47.53417" lon="6.68374">
        <ele>376</ele>
        <time>2015-11-29T09:40:18.000Z</time>
      </trkpt>
      <trkpt lat="47.53419" lon="6.68375">
        <ele>377</ele>
        <time>2015-11-29T09:40:19.000Z</time>
      </trkpt>
      <trkpt lat="47.53421" lon="6.68376">
        <ele>377</ele>
        <time>2015-11-29T09:40:20.000Z</time>
      </trkpt>
      <trkpt lat="47.53424" lon="6.68377">
        <ele>377</ele>
        <time>2015-11-29T09:40:21.000Z</time>
      </trkpt>
      <trkpt lat="47.53426" lon="6.68378">
        <ele>377</ele>
        <time>2015-11-29T09:40:22.000Z</time>
      </trkpt>
      <trkpt lat="47.53428" lon="6.68378">
        <ele>377</ele>
        <time>2015-11-29T09:40:23.000Z</time>
      </trkpt>
      <trkpt lat="47.53432" lon="6.68378">
        <ele>377</ele>
        <time>2015-11-29T09:40:25.000Z</time>
      </trkpt>
      <trkpt lat="47.53433" lon="6.68378">
        <ele>377</ele>
        <time>2015-11-29T09:40:26.000Z</time>
      </trkpt>
      <trkpt lat="47.53437" lon="6.68378">
        <ele>377</ele>
        <time>2015-11-29T09:40:28.000Z</time>
      </trkpt>
      <trkpt lat="47.53439" lon="6.68376">
        <ele>377</ele>
        <time>2015-11-29T09:40:29.000Z</time>
      </trkpt>
      <trkpt lat="47.53443" lon="6.68374">
        <ele>377</ele>
        <time>2015-11-29T09:40:31.000Z</time>
      </trkpt>
      <trkpt lat="47.53445" lon="6.68374">
        <ele>377</ele>
        <time>2015-11-29T09:40:32.000Z</time>
      </trkpt>
      <trkpt lat="47.53448" lon="6.68374">
        <ele>377</ele>
        <time>2015-11-29T09:40:33.000Z</time>
      </trkpt>
      <trkpt lat="47.5345" lon="6.68374">
        <ele>377</ele>
        <time>2015-11-29T09:40:34.000Z</time>
      </trkpt>
      <trkpt lat="47.53453" lon="6.68372">
        <ele>377</ele>
        <time>2015-11-29T09:40:35.000Z</time>
      </trkpt>
      <trkpt lat="47.53455" lon="6.6837">
        <ele>377</ele>
        <time>2015-11-29T09:40:36.000Z</time>
      </trkpt>
      <trkpt lat="47.53458" lon="6.68367">
        <ele>377</ele>
        <time>2015-11-29T09:40:37.000Z</time>
      </trkpt>
      <trkpt lat="47.53461" lon="6.68365">
        <ele>377</ele>
        <time>2015-11-29T09:40:38.000Z</time>
      </trkpt>
      <trkpt lat="47.53465" lon="6.68364">
        <ele>377</ele>
        <time>2015-11-29T09:40:39.000Z</time>
      </trkpt>
      <trkpt lat="47.53469" lon="6.68364">
        <ele>377</ele>
        <time>2015-11-29T09:40:40.000Z</time>
      </trkpt>
      <trkpt lat="47.53473" lon="6.68364">
        <ele>377</ele>
        <time>2015-11-29T09:40:41.000Z</time>
      </trkpt>
      <trkpt lat="47.53482" lon="6.68362">
        <ele>377</ele>
        <time>2015-11-29T09:40:42.000Z</time>
      </trkpt>
      <trkpt lat="47.53486" lon="6.68362">
        <ele>378</ele>
        <time>2015-11-29T09:40:43.000Z</time>
      </trkpt>
      <trkpt lat="47.53489" lon="6.68362">
        <ele>378</ele>
        <time>2015-11-29T09:40:44.000Z</time>
      </trkpt>
      <trkpt lat="47.53491" lon="6.68363">
        <ele>378</ele>
        <time>2015-11-29T09:40:45.000Z</time>
      </trkpt>
      <trkpt lat="47.53493" lon="6.68364">
        <ele>378</ele>
        <time>2015-11-29T09:40:46.000Z</time>
      </trkpt>
      <trkpt lat="47.53495" lon="6.68365">
        <ele>378</ele>
        <time>2015-11-29T09:40:47.000Z</time>
      </trkpt>
      <trkpt lat="47.53499" lon="6.68364">
        <ele>378</ele>
        <time>2015-11-29T09:40:48.000Z</time>
      </trkpt>
      <trkpt lat="47.53502" lon="6.68365">
        <ele>380</ele>
        <time>2015-11-29T09:40:49.000Z</time>
      </trkpt>
      <trkpt lat="47.53503" lon="6.68364">
        <ele>380</ele>
        <time>2015-11-29T09:40:50.000Z</time>
      </trkpt>
      <trkpt lat="47.53507" lon="6.68363">
        <ele>380</ele>
        <time>2015-11-29T09:40:51.000Z</time>
      </trkpt>
      <trkpt lat="47.53509" lon="6.68363">
        <ele>380</ele>
        <time>2015-11-29T09:40:52.000Z</time>
      </trkpt>
      <trkpt lat="47.53513" lon="6.68362">
        <ele>380</ele>
        <time>2015-11-29T09:40:54.000Z</time>
      </trkpt>
      <trkpt lat="47.53515" lon="6.68362">
        <ele>380</ele>
        <time>2015-11-29T09:40:55.000Z</time>
      </trkpt>
      <trkpt lat="47.53517" lon="6.68361">
        <ele>380</ele>
        <time>2015-11-29T09:40:56.000Z</time>
      </trkpt>
      <trkpt lat="47.5352" lon="6.68361">
        <ele>380</ele>
        <time>2015-11-29T09:40:57.000Z</time>
      </trkpt>
      <trkpt lat="47.53523" lon="6.6836">
        <ele>380</ele>
        <time>2015-11-29T09:40:58.000Z</time>
      </trkpt>
      <trkpt lat="47.53526" lon="6.68359">
        <ele>380</ele>
        <time>2015-11-29T09:40:59.000Z</time>
      </trkpt>
      <trkpt lat="47.53529" lon="6.68355">
        <ele>380</ele>
        <time>2015-11-29T09:41:00.000Z</time>
      </trkpt>
      <trkpt lat="47.53533" lon="6.68352">
        <ele>380</ele>
        <time>2015-11-29T09:41:01.000Z</time>
      </trkpt>
      <trkpt lat="47.53536" lon="6.68348">
        <ele>380</ele>
        <time>2015-11-29T09:41:02.000Z</time>
      </trkpt>
      <trkpt lat="47.53538" lon="6.68342">
        <ele>380</ele>
        <time>2015-11-29T09:41:03.000Z</time>
      </trkpt>
      <trkpt lat="47.5354" lon="6.68336">
        <ele>380</ele>
        <time>2015-11-29T09:41:04.000Z</time>
      </trkpt>
      <trkpt lat="47.53542" lon="6.68332">
        <ele>377</ele>
        <time>2015-11-29T09:41:05.000Z</time>
      </trkpt>
      <trkpt lat="47.53543" lon="6.68328">
        <ele>377</ele>
        <time>2015-11-29T09:41:06.000Z</time>
      </trkpt>
      <trkpt lat="47.53546" lon="6.68325">
        <ele>377</ele>
        <time>2015-11-29T09:41:07.000Z</time>
      </trkpt>
      <trkpt lat="47.53549" lon="6.68322">
        <ele>377</ele>
        <time>2015-11-29T09:41:08.000Z</time>
      </trkpt>
      <trkpt lat="47.53553" lon="6.68322">
        <ele>377</ele>
        <time>2015-11-29T09:41:09.000Z</time>
      </trkpt>
      <trkpt lat="47.53558" lon="6.68323">
        <ele>378</ele>
        <time>2015-11-29T09:41:10.000Z</time>
      </trkpt>
      <trkpt lat="47.53563" lon="6.68325">
        <ele>378</ele>
        <time>2015-11-29T09:41:11.000Z</time>
      </trkpt>
      <trkpt lat="47.53568" lon="6.68328">
        <ele>379</ele>
        <time>2015-11-29T09:41:12.000Z</time>
      </trkpt>
      <trkpt lat="47.53573" lon="6.6833">
        <ele>379</ele>
        <time>2015-11-29T09:41:13.000Z</time>
      </trkpt>
      <trkpt lat="47.53577" lon="6.68332">
        <ele>380</ele>
        <time>2015-11-29T09:41:14.000Z</time>
      </trkpt>
      <trkpt lat="47.5358" lon="6.68334">
        <ele>381</ele>
        <time>2015-11-29T09:41:15.000Z</time>
      </trkpt>
      <trkpt lat="47.53583" lon="6.68335">
        <ele>381</ele>
        <time>2015-11-29T09:41:16.000Z</time>
      </trkpt>
      <trkpt lat="47.53586" lon="6.68336">
        <ele>381</ele>
        <time>2015-11-29T09:41:17.000Z</time>
      </trkpt>
      <trkpt lat="47.53589" lon="6.68336">
        <ele>381</ele>
        <time>2015-11-29T09:41:18.000Z</time>
      </trkpt>
      <trkpt lat="47.53592" lon="6.68337">
        <ele>381</ele>
        <time>2015-11-29T09:41:19.000Z</time>
      </trkpt>
      <trkpt lat="47.53595" lon="6.68338">
        <ele>381</ele>
        <time>2015-11-29T09:41:20.000Z</time>
      </trkpt>
      <trkpt lat="47.53598" lon="6.68338">
        <ele>381</ele>
        <time>2015-11-29T09:41:21.000Z</time>
      </trkpt>
      <trkpt lat="47.536" lon="6.68338">
        <ele>381</ele>
        <time>2015-11-29T09:41:22.000Z</time>
      </trkpt>
      <trkpt lat="47.53603" lon="6.68336">
        <ele>381</ele>
        <time>2015-11-29T09:41:24.000Z</time>
      </trkpt>
      <trkpt lat="47.53605" lon="6.68335">
        <ele>381</ele>
        <time>2015-11-29T09:41:25.000Z</time>
      </trkpt>
      <trkpt lat="47.53607" lon="6.68335">
        <ele>381</ele>
        <time>2015-11-29T09:41:26.000Z</time>
      </trkpt>
      <trkpt lat="47.5361" lon="6.68335">
        <ele>381</ele>
        <time>2015-11-29T09:41:27.000Z</time>
      </trkpt>
      <trkpt lat="47.53613" lon="6.68334">
        <ele>381</ele>
        <time>2015-11-29T09:41:28.000Z</time>
      </trkpt>
      <trkpt lat="47.53616" lon="6.68334">
        <ele>381</ele>
        <time>2015-11-29T09:41:29.000Z</time>
      </trkpt>
      <trkpt lat="47.5362" lon="6.68333">
        <ele>381</ele>
        <time>2015-11-29T09:41:30.000Z</time>
      </trkpt>
      <trkpt lat="47.53623" lon="6.68332">
        <ele>381</ele>
        <time>2015-11-29T09:41:31.000Z</time>
      </trkpt>
      <trkpt lat="47.53627" lon="6.68331">
        <ele>382</ele>
        <time>2015-11-29T09:41:32.000Z</time>
      </trkpt>
      <trkpt lat="47.5363" lon="6.68329">
        <ele>382</ele>
        <time>2015-11-29T09:41:33.000Z</time>
      </trkpt>
      <trkpt lat="47.53634" lon="6.68328">
        <ele>382</ele>
        <time>2015-11-29T09:41:34.000Z</time>
      </trkpt>
      <trkpt lat="47.53638" lon="6.68327">
        <ele>382</ele>
        <time>2015-11-29T09:41:35.000Z</time>
      </trkpt>
      <trkpt lat="47.53641" lon="6.68326">
        <ele>382</ele>
        <time>2015-11-29T09:41:36.000Z</time>
      </trkpt>
      <trkpt lat="47.53644" lon="6.68326">
        <ele>382</ele>
        <time>2015-11-29T09:41:37.000Z</time>
      </trkpt>
      <trkpt lat="47.53648" lon="6.68326">
        <ele>382</ele>
        <time>2015-11-29T09:41:38.000Z</time>
      </trkpt>
      <trkpt lat="47.53651" lon="6.68327">
        <ele>382</ele>
        <time>2015-11-29T09:41:39.000Z</time>
      </trkpt>
      <trkpt lat="47.53654" lon="6.68327">
        <ele>382</ele>
        <time>2015-11-29T09:41:40.000Z</time>
      </trkpt>
      <trkpt lat="47.53657" lon="6.68328">
        <ele>382</ele>
        <time>2015-11-29T09:41:41.000Z</time>
      </trkpt>
      <trkpt lat="47.5366" lon="6.68328">
        <ele>383</ele>
        <time>2015-11-29T09:41:42.000Z</time>
      </trkpt>
      <trkpt lat="47.53663" lon="6.68327">
        <ele>383</ele>
        <time>2015-11-29T09:41:43.000Z</time>
      </trkpt>
      <trkpt lat="47.53665" lon="6.68325">
        <ele>383</ele>
        <time>2015-11-29T09:41:44.000Z</time>
      </trkpt>
      <trkpt lat="47.53668" lon="6.68324">
        <ele>384</ele>
        <time>2015-11-29T09:41:45.000Z</time>
      </trkpt>
      <trkpt lat="47.5367" lon="6.68323">
        <ele>384</ele>
        <time>2015-11-29T09:41:46.000Z</time>
      </trkpt>
      <trkpt lat="47.53673" lon="6.68322">
        <ele>384</ele>
        <time>2015-11-29T09:41:47.000Z</time>
      </trkpt>
      <trkpt lat="47.53676" lon="6.68322">
        <ele>384</ele>
        <time>2015-11-29T09:41:48.000Z</time>
      </trkpt>
      <trkpt lat="47.5368" lon="6.68322">
        <ele>384</ele>
        <time>2015-11-29T09:41:49.000Z</time>
      </trkpt>
      <trkpt lat="47.53683" lon="6.68322">
        <ele>384</ele>
        <time>2015-11-29T09:41:50.000Z</time>
      </trkpt>
      <trkpt lat="47.53687" lon="6.68323">
        <ele>384</ele>
        <time>2015-11-29T09:41:51.000Z</time>
      </trkpt>
      <trkpt lat="47.5369" lon="6.68323">
        <ele>385</ele>
        <time>2015-11-29T09:41:52.000Z</time>
      </trkpt>
      <trkpt lat="47.53693" lon="6.68323">
        <ele>385</ele>
        <time>2015-11-29T09:41:53.000Z</time>
      </trkpt>
      <trkpt lat="47.53696" lon="6.68323">
        <ele>385</ele>
        <time>2015-11-29T09:41:54.000Z</time>
      </trkpt>
      <trkpt lat="47.53698" lon="6.68322">
        <ele>385</ele>
        <time>2015-11-29T09:41:55.000Z</time>
      </trkpt>
      <trkpt lat="47.537" lon="6.68321">
        <ele>385</ele>
        <time>2015-11-29T09:41:56.000Z</time>
      </trkpt>
      <trkpt lat="47.53703" lon="6.6832">
        <ele>385</ele>
        <time>2015-11-29T09:41:57.000Z</time>
      </trkpt>
      <trkpt lat="47.53706" lon="6.68318">
        <ele>385</ele>
        <time>2015-11-29T09:41:58.000Z</time>
      </trkpt>
      <trkpt lat="47.53709" lon="6.68315">
        <ele>385</ele>
        <time>2015-11-29T09:41:59.000Z</time>
      </trkpt>
      <trkpt lat="47.53712" lon="6.68313">
        <ele>385</ele>
        <time>2015-11-29T09:42:00.000Z</time>
      </trkpt>
      <trkpt lat="47.53715" lon="6.6831">
        <ele>385</ele>
        <time>2015-11-29T09:42:01.000Z</time>
      </trkpt>
      <trkpt lat="47.53717" lon="6.68307">
        <ele>386</ele>
        <time>2015-11-29T09:42:02.000Z</time>
      </trkpt>
      <trkpt lat="47.5372" lon="6.68304">
        <ele>386</ele>
        <time>2015-11-29T09:42:03.000Z</time>
      </trkpt>
      <trkpt lat="47.53723" lon="6.683">
        <ele>386</ele>
        <time>2015-11-29T09:42:04.000Z</time>
      </trkpt>
      <trkpt lat="47.53726" lon="6.68297">
        <ele>386</ele>
        <time>2015-11-29T09:42:05.000Z</time>
      </trkpt>
      <trkpt lat="47.53728" lon="6.68295">
        <ele>386</ele>
        <time>2015-11-29T09:42:06.000Z</time>
      </trkpt>
      <trkpt lat="47.53731" lon="6.68292">
        <ele>386</ele>
        <time>2015-11-29T09:42:07.000Z</time>
      </trkpt>
      <trkpt lat="47.53734" lon="6.6829">
        <ele>386</ele>
        <time>2015-11-29T09:42:08.000Z</time>
      </trkpt>
      <trkpt lat="47.53736" lon="6.68288">
        <ele>386</ele>
        <time>2015-11-29T09:42:09.000Z</time>
      </trkpt>
      <trkpt lat="47.53739" lon="6.68285">
        <ele>386</ele>
        <time>2015-11-29T09:42:10.000Z</time>
      </trkpt>
      <trkpt lat="47.53741" lon="6.68283">
        <ele>386</ele>
        <time>2015-11-29T09:42:11.000Z</time>
      </trkpt>
      <trkpt lat="47.53743" lon="6.6828">
        <ele>387</ele>
        <time>2015-11-29T09:42:12.000Z</time>
      </trkpt>
      <trkpt lat="47.53745" lon="6.68277">
        <ele>387</ele>
        <time>2015-11-29T09:42:13.000Z</time>
      </trkpt>
      <trkpt lat="47.53747" lon="6.68273">
        <ele>387</ele>
        <time>2015-11-29T09:42:14.000Z</time>
      </trkpt>
      <trkpt lat="47.53748" lon="6.6827">
        <ele>387</ele>
        <time>2015-11-29T09:42:15.000Z</time>
      </trkpt>
      <trkpt lat="47.53749" lon="6.68266">
        <ele>387</ele>
        <time>2015-11-29T09:42:16.000Z</time>
      </trkpt>
      <trkpt lat="47.53749" lon="6.68263">
        <ele>388</ele>
        <time>2015-11-29T09:42:17.000Z</time>
      </trkpt>
      <trkpt lat="47.53749" lon="6.68257">
        <ele>388</ele>
        <time>2015-11-29T09:42:19.000Z</time>
      </trkpt>
      <trkpt lat="47.53748" lon="6.68254">
        <ele>388</ele>
        <time>2015-11-29T09:42:20.000Z</time>
      </trkpt>
      <trkpt lat="47.53747" lon="6.6825">
        <ele>389</ele>
        <time>2015-11-29T09:42:21.000Z</time>
      </trkpt>
      <trkpt lat="47.53747" lon="6.68245">
        <ele>389</ele>
        <time>2015-11-29T09:42:22.000Z</time>
      </trkpt>
      <trkpt lat="47.53746" lon="6.6824">
        <ele>388</ele>
        <time>2015-11-29T09:42:23.000Z</time>
      </trkpt>
      <trkpt lat="47.53745" lon="6.68234">
        <ele>388</ele>
        <time>2015-11-29T09:42:24.000Z</time>
      </trkpt>
      <trkpt lat="47.53744" lon="6.68229">
        <ele>388</ele>
        <time>2015-11-29T09:42:25.000Z</time>
      </trkpt>
      <trkpt lat="47.53742" lon="6.68224">
        <ele>388</ele>
        <time>2015-11-29T09:42:26.000Z</time>
      </trkpt>
      <trkpt lat="47.53741" lon="6.68219">
        <ele>388</ele>
        <time>2015-11-29T09:42:27.000Z</time>
      </trkpt>
      <trkpt lat="47.5374" lon="6.68215">
        <ele>388</ele>
        <time>2015-11-29T09:42:28.000Z</time>
      </trkpt>
      <trkpt lat="47.5374" lon="6.68211">
        <ele>387</ele>
        <time>2015-11-29T09:42:29.000Z</time>
      </trkpt>
      <trkpt lat="47.5374" lon="6.68208">
        <ele>387</ele>
        <time>2015-11-29T09:42:30.000Z</time>
      </trkpt>
      <trkpt lat="47.53739" lon="6.68204">
        <ele>387</ele>
        <time>2015-11-29T09:42:31.000Z</time>
      </trkpt>
      <trkpt lat="47.5374" lon="6.682">
        <ele>388</ele>
        <time>2015-11-29T09:42:32.000Z</time>
      </trkpt>
      <trkpt lat="47.5374" lon="6.68196">
        <ele>388</ele>
        <time>2015-11-29T09:42:33.000Z</time>
      </trkpt>
      <trkpt lat="47.53741" lon="6.68192">
        <ele>388</ele>
        <time>2015-11-29T09:42:34.000Z</time>
      </trkpt>
      <trkpt lat="47.53742" lon="6.68189">
        <ele>388</ele>
        <time>2015-11-29T09:42:35.000Z</time>
      </trkpt>
      <trkpt lat="47.53743" lon="6.68184">
        <ele>388</ele>
        <time>2015-11-29T09:42:36.000Z</time>
      </trkpt>
      <trkpt lat="47.53744" lon="6.6818">
        <ele>388</ele>
        <time>2015-11-29T09:42:37.000Z</time>
      </trkpt>
      <trkpt lat="47.53745" lon="6.68177">
        <ele>388</ele>
        <time>2015-11-29T09:42:38.000Z</time>
      </trkpt>
      <trkpt lat="47.53746" lon="6.68174">
        <ele>388</ele>
        <time>2015-11-29T09:42:39.000Z</time>
      </trkpt>
      <trkpt lat="47.53746" lon="6.6817">
        <ele>389</ele>
        <time>2015-11-29T09:42:40.000Z</time>
      </trkpt>
      <trkpt lat="47.53746" lon="6.68166">
        <ele>389</ele>
        <time>2015-11-29T09:42:41.000Z</time>
      </trkpt>
      <trkpt lat="47.53746" lon="6.68161">
        <ele>388</ele>
        <time>2015-11-29T09:42:42.000Z</time>
      </trkpt>
      <trkpt lat="47.53746" lon="6.68156">
        <ele>388</ele>
        <time>2015-11-29T09:42:43.000Z</time>
      </trkpt>
      <trkpt lat="47.53747" lon="6.68151">
        <ele>387</ele>
        <time>2015-11-29T09:42:44.000Z</time>
      </trkpt>
      <trkpt lat="47.53748" lon="6.68146">
        <ele>387</ele>
        <time>2015-11-29T09:42:45.000Z</time>
      </trkpt>
      <trkpt lat="47.5375" lon="6.68142">
        <ele>387</ele>
        <time>2015-11-29T09:42:46.000Z</time>
      </trkpt>
      <trkpt lat="47.53751" lon="6.68138">
        <ele>386</ele>
        <time>2015-11-29T09:42:47.000Z</time>
      </trkpt>
      <trkpt lat="47.53752" lon="6.68134">
        <ele>386</ele>
        <time>2015-11-29T09:42:48.000Z</time>
      </trkpt>
      <trkpt lat="47.53753" lon="6.68131">
        <ele>386</ele>
        <time>2015-11-29T09:42:49.000Z</time>
      </trkpt>
      <trkpt lat="47.53754" lon="6.68128">
        <ele>386</ele>
        <time>2015-11-29T09:42:50.000Z</time>
      </trkpt>
      <trkpt lat="47.53754" lon="6.68124">
        <ele>386</ele>
        <time>2015-11-29T09:42:51.000Z</time>
      </trkpt>
      <trkpt lat="47.53755" lon="6.6812">
        <ele>386</ele>
        <time>2015-11-29T09:42:52.000Z</time>
      </trkpt>
      <trkpt lat="47.53756" lon="6.68116">
        <ele>386</ele>
        <time>2015-11-29T09:42:53.000Z</time>
      </trkpt>
      <trkpt lat="47.53756" lon="6.68111">
        <ele>386</ele>
        <time>2015-11-29T09:42:54.000Z</time>
      </trkpt>
      <trkpt lat="47.53757" lon="6.68107">
        <ele>386</ele>
        <time>2015-11-29T09:42:55.000Z</time>
      </trkpt>
      <trkpt lat="47.53758" lon="6.68104">
        <ele>386</ele>
        <time>2015-11-29T09:42:56.000Z</time>
      </trkpt>
      <trkpt lat="47.5376" lon="6.68098">
        <ele>386</ele>
        <time>2015-11-29T09:42:58.000Z</time>
      </trkpt>
      <trkpt lat="47.53761" lon="6.68096">
        <ele>385</ele>
        <time>2015-11-29T09:42:59.000Z</time>
      </trkpt>
      <trkpt lat="47.53765" lon="6.68093">
        <ele>385</ele>
        <time>2015-11-29T09:43:01.000Z</time>
      </trkpt>
      <trkpt lat="47.53768" lon="6.68092">
        <ele>385</ele>
        <time>2015-11-29T09:43:02.000Z</time>
      </trkpt>
      <trkpt lat="47.53771" lon="6.68091">
        <ele>385</ele>
        <time>2015-11-29T09:43:04.000Z</time>
      </trkpt>
      <trkpt lat="47.53773" lon="6.6809">
        <ele>385</ele>
        <time>2015-11-29T09:43:05.000Z</time>
      </trkpt>
      <trkpt lat="47.53777" lon="6.6809">
        <ele>385</ele>
        <time>2015-11-29T09:43:07.000Z</time>
      </trkpt>
      <trkpt lat="47.5378" lon="6.68091">
        <ele>385</ele>
        <time>2015-11-29T09:43:08.000Z</time>
      </trkpt>
      <trkpt lat="47.53783" lon="6.68092">
        <ele>385</ele>
        <time>2015-11-29T09:43:09.000Z</time>
      </trkpt>
      <trkpt lat="47.53787" lon="6.68093">
        <ele>385</ele>
        <time>2015-11-29T09:43:10.000Z</time>
      </trkpt>
      <trkpt lat="47.53791" lon="6.68095">
        <ele>384</ele>
        <time>2015-11-29T09:43:11.000Z</time>
      </trkpt>
      <trkpt lat="47.53795" lon="6.68096">
        <ele>384</ele>
        <time>2015-11-29T09:43:12.000Z</time>
      </trkpt>
      <trkpt lat="47.53798" lon="6.68096">
        <ele>384</ele>
        <time>2015-11-29T09:43:13.000Z</time>
      </trkpt>
      <trkpt lat="47.53802" lon="6.68096">
        <ele>384</ele>
        <time>2015-11-29T09:43:14.000Z</time>
      </trkpt>
      <trkpt lat="47.53805" lon="6.68096">
        <ele>384</ele>
        <time>2015-11-29T09:43:15.000Z</time>
      </trkpt>
      <trkpt lat="47.53809" lon="6.68095">
        <ele>383</ele>
        <time>2015-11-29T09:43:16.000Z</time>
      </trkpt>
      <trkpt lat="47.53813" lon="6.68093">
        <ele>383</ele>
        <time>2015-11-29T09:43:17.000Z</time>
      </trkpt>
      <trkpt lat="47.53817" lon="6.68091">
        <ele>383</ele>
        <time>2015-11-29T09:43:18.000Z</time>
      </trkpt>
      <trkpt lat="47.5382" lon="6.6809">
        <ele>382</ele>
        <time>2015-11-29T09:43:19.000Z</time>
      </trkpt>
      <trkpt lat="47.53824" lon="6.68088">
        <ele>382</ele>
        <time>2015-11-29T09:43:20.000Z</time>
      </trkpt>
      <trkpt lat="47.53827" lon="6.68088">
        <ele>381</ele>
        <time>2015-11-29T09:43:21.000Z</time>
      </trkpt>
      <trkpt lat="47.53829" lon="6.68087">
        <ele>381</ele>
        <time>2015-11-29T09:43:22.000Z</time>
      </trkpt>
      <trkpt lat="47.53833" lon="6.68083">
        <ele>380</ele>
        <time>2015-11-29T09:43:24.000Z</time>
      </trkpt>
      <trkpt lat="47.53835" lon="6.68081">
        <ele>380</ele>
        <time>2015-11-29T09:43:25.000Z</time>
      </trkpt>
      <trkpt lat="47.53837" lon="6.68078">
        <ele>379</ele>
        <time>2015-11-29T09:43:26.000Z</time>
      </trkpt>
      <trkpt lat="47.53839" lon="6.68076">
        <ele>379</ele>
        <time>2015-11-29T09:43:27.000Z</time>
      </trkpt>
      <trkpt lat="47.53841" lon="6.68074">
        <ele>378</ele>
        <time>2015-11-29T09:43:28.000Z</time>
      </trkpt>
      <trkpt lat="47.53844" lon="6.68072">
        <ele>378</ele>
        <time>2015-11-29T09:43:29.000Z</time>
      </trkpt>
      <trkpt lat="47.53847" lon="6.6807">
        <ele>378</ele>
        <time>2015-11-29T09:43:30.000Z</time>
      </trkpt>
      <trkpt lat="47.5385" lon="6.68069">
        <ele>377</ele>
        <time>2015-11-29T09:43:31.000Z</time>
      </trkpt>
      <trkpt lat="47.53853" lon="6.68068">
        <ele>377</ele>
        <time>2015-11-29T09:43:32.000Z</time>
      </trkpt>
      <trkpt lat="47.53856" lon="6.68066">
        <ele>377</ele>
        <time>2015-11-29T09:43:33.000Z</time>
      </trkpt>
      <trkpt lat="47.53859" lon="6.68065">
        <ele>377</ele>
        <time>2015-11-29T09:43:34.000Z</time>
      </trkpt>
      <trkpt lat="47.53861" lon="6.68064">
        <ele>377</ele>
        <time>2015-11-29T09:43:35.000Z</time>
      </trkpt>
      <trkpt lat="47.53864" lon="6.68062">
        <ele>376</ele>
        <time>2015-11-29T09:43:37.000Z</time>
      </trkpt>
      <trkpt lat="47.53866" lon="6.68061">
        <ele>376</ele>
        <time>2015-11-29T09:43:38.000Z</time>
      </trkpt>
      <trkpt lat="47.53869" lon="6.68058">
        <ele>376</ele>
        <time>2015-11-29T09:43:40.000Z</time>
      </trkpt>
      <trkpt lat="47.53871" lon="6.68056">
        <ele>376</ele>
        <time>2015-11-29T09:43:41.000Z</time>
      </trkpt>
      <trkpt lat="47.53875" lon="6.68055">
        <ele>376</ele>
        <time>2015-11-29T09:43:43.000Z</time>
      </trkpt>
      <trkpt lat="47.53877" lon="6.68055">
        <ele>376</ele>
        <time>2015-11-29T09:43:44.000Z</time>
      </trkpt>
      <trkpt lat="47.5388" lon="6.68052">
        <ele>376</ele>
        <time>2015-11-29T09:43:53.000Z</time>
      </trkpt>
      <trkpt lat="47.5388" lon="6.6805">
        <ele>376</ele>
        <time>2015-11-29T09:43:54.000Z</time>
      </trkpt>
      <trkpt lat="47.53881" lon="6.68045">
        <ele>376</ele>
        <time>2015-11-29T09:43:56.000Z</time>
      </trkpt>
      <trkpt lat="47.5388" lon="6.6804">
        <ele>376</ele>
        <time>2015-11-29T09:43:57.000Z</time>
      </trkpt>
      <trkpt lat="47.53878" lon="6.68034">
        <ele>376</ele>
        <time>2015-11-29T09:43:58.000Z</time>
      </trkpt>
      <trkpt lat="47.53875" lon="6.68028">
        <ele>376</ele>
        <time>2015-11-29T09:43:59.000Z</time>
      </trkpt>
      <trkpt lat="47.53872" lon="6.68021">
        <ele>375</ele>
        <time>2015-11-29T09:44:00.000Z</time>
      </trkpt>
      <trkpt lat="47.53866" lon="6.68011">
        <ele>375</ele>
        <time>2015-11-29T09:44:01.000Z</time>
      </trkpt>
      <trkpt lat="47.53863" lon="6.68005">
        <ele>375</ele>
        <time>2015-11-29T09:44:02.000Z</time>
      </trkpt>
      <trkpt lat="47.5386" lon="6.67999">
        <ele>374</ele>
        <time>2015-11-29T09:44:03.000Z</time>
      </trkpt>
      <trkpt lat="47.53857" lon="6.67994">
        <ele>374</ele>
        <time>2015-11-29T09:44:04.000Z</time>
      </trkpt>
      <trkpt lat="47.53853" lon="6.67988">
        <ele>373</ele>
        <time>2015-11-29T09:44:05.000Z</time>
      </trkpt>
      <trkpt lat="47.5385" lon="6.67983">
        <ele>373</ele>
        <time>2015-11-29T09:44:06.000Z</time>
      </trkpt>
      <trkpt lat="47.53846" lon="6.67978">
        <ele>373</ele>
        <time>2015-11-29T09:44:07.000Z</time>
      </trkpt>
      <trkpt lat="47.53843" lon="6.67972">
        <ele>373</ele>
        <time>2015-11-29T09:44:08.000Z</time>
      </trkpt>
      <trkpt lat="47.5384" lon="6.67967">
        <ele>373</ele>
        <time>2015-11-29T09:44:09.000Z</time>
      </trkpt>
      <trkpt lat="47.53836" lon="6.67962">
        <ele>373</ele>
        <time>2015-11-29T09:44:10.000Z</time>
      </trkpt>
      <trkpt lat="47.53832" lon="6.67957">
        <ele>371</ele>
        <time>2015-11-29T09:44:11.000Z</time>
      </trkpt>
      <trkpt lat="47.53828" lon="6.67951">
        <ele>371</ele>
        <time>2015-11-29T09:44:12.000Z</time>
      </trkpt>
      <trkpt lat="47.53824" lon="6.67946">
        <ele>371</ele>
        <time>2015-11-29T09:44:13.000Z</time>
      </trkpt>
      <trkpt lat="47.53821" lon="6.67943">
        <ele>371</ele>
        <time>2015-11-29T09:44:14.000Z</time>
      </trkpt>
      <trkpt lat="47.53817" lon="6.67937">
        <ele>371</ele>
        <time>2015-11-29T09:44:15.000Z</time>
      </trkpt>
      <trkpt lat="47.53813" lon="6.67932">
        <ele>370</ele>
        <time>2015-11-29T09:44:16.000Z</time>
      </trkpt>
      <trkpt lat="47.5381" lon="6.67927">
        <ele>370</ele>
        <time>2015-11-29T09:44:17.000Z</time>
      </trkpt>
      <trkpt lat="47.53806" lon="6.67921">
        <ele>370</ele>
        <time>2015-11-29T09:44:18.000Z</time>
      </trkpt>
      <trkpt lat="47.53803" lon="6.67916">
        <ele>368</ele>
        <time>2015-11-29T09:44:19.000Z</time>
      </trkpt>
      <trkpt lat="47.53799" lon="6.67912">
        <ele>368</ele>
        <time>2015-11-29T09:44:20.000Z</time>
      </trkpt>
      <trkpt lat="47.53795" lon="6.67908">
        <ele>368</ele>
        <time>2015-11-29T09:44:21.000Z</time>
      </trkpt>
      <trkpt lat="47.53792" lon="6.67904">
        <ele>368</ele>
        <time>2015-11-29T09:44:22.000Z</time>
      </trkpt>
      <trkpt lat="47.53789" lon="6.67899">
        <ele>368</ele>
        <time>2015-11-29T09:44:23.000Z</time>
      </trkpt>
      <trkpt lat="47.53786" lon="6.67894">
        <ele>368</ele>
        <time>2015-11-29T09:44:24.000Z</time>
      </trkpt>
      <trkpt lat="47.53782" lon="6.6789">
        <ele>368</ele>
        <time>2015-11-29T09:44:25.000Z</time>
      </trkpt>
      <trkpt lat="47.53778" lon="6.67885">
        <ele>368</ele>
        <time>2015-11-29T09:44:26.000Z</time>
      </trkpt>
      <trkpt lat="47.53774" lon="6.67881">
        <ele>368</ele>
        <time>2015-11-29T09:44:27.000Z</time>
      </trkpt>
      <trkpt lat="47.5377" lon="6.67876">
        <ele>368</ele>
        <time>2015-11-29T09:44:28.000Z</time>
      </trkpt>
      <trkpt lat="47.53765" lon="6.67871">
        <ele>367</ele>
        <time>2015-11-29T09:44:29.000Z</time>
      </trkpt>
      <trkpt lat="47.5376" lon="6.67863">
        <ele>367</ele>
        <time>2015-11-29T09:44:30.000Z</time>
      </trkpt>
      <trkpt lat="47.53755" lon="6.67859">
        <ele>367</ele>
        <time>2015-11-29T09:44:31.000Z</time>
      </trkpt>
      <trkpt lat="47.53751" lon="6.67854">
        <ele>367</ele>
        <time>2015-11-29T09:44:32.000Z</time>
      </trkpt>
      <trkpt lat="47.53748" lon="6.67851">
        <ele>366</ele>
        <time>2015-11-29T09:44:33.000Z</time>
      </trkpt>
      <trkpt lat="47.53745" lon="6.67848">
        <ele>365</ele>
        <time>2015-11-29T09:44:34.000Z</time>
      </trkpt>
      <trkpt lat="47.53742" lon="6.67844">
        <ele>365</ele>
        <time>2015-11-29T09:44:35.000Z</time>
      </trkpt>
      <trkpt lat="47.53738" lon="6.67841">
        <ele>365</ele>
        <time>2015-11-29T09:44:36.000Z</time>
      </trkpt>
      <trkpt lat="47.53736" lon="6.67837">
        <ele>365</ele>
        <time>2015-11-29T09:44:37.000Z</time>
      </trkpt>
      <trkpt lat="47.53733" lon="6.67834">
        <ele>366</ele>
        <time>2015-11-29T09:44:38.000Z</time>
      </trkpt>
      <trkpt lat="47.53731" lon="6.6783">
        <ele>367</ele>
        <time>2015-11-29T09:44:39.000Z</time>
      </trkpt>
      <trkpt lat="47.53727" lon="6.67822">
        <ele>367</ele>
        <time>2015-11-29T09:44:40.000Z</time>
      </trkpt>
      <trkpt lat="47.53725" lon="6.67817">
        <ele>367</ele>
        <time>2015-11-29T09:44:41.000Z</time>
      </trkpt>
      <trkpt lat="47.53724" lon="6.67812">
        <ele>368</ele>
        <time>2015-11-29T09:44:42.000Z</time>
      </trkpt>
      <trkpt lat="47.53723" lon="6.67806">
        <ele>368</ele>
        <time>2015-11-29T09:44:43.000Z</time>
      </trkpt>
      <trkpt lat="47.53721" lon="6.67802">
        <ele>368</ele>
        <time>2015-11-29T09:44:44.000Z</time>
      </trkpt>
      <trkpt lat="47.53719" lon="6.67797">
        <ele>368</ele>
        <time>2015-11-29T09:44:45.000Z</time>
      </trkpt>
      <trkpt lat="47.53717" lon="6.67792">
        <ele>368</ele>
        <time>2015-11-29T09:44:46.000Z</time>
      </trkpt>
      <trkpt lat="47.53715" lon="6.67786">
        <ele>369</ele>
        <time>2015-11-29T09:44:47.000Z</time>
      </trkpt>
      <trkpt lat="47.53713" lon="6.6778">
        <ele>369</ele>
        <time>2015-11-29T09:44:48.000Z</time>
      </trkpt>
      <trkpt lat="47.53712" lon="6.67775">
        <ele>369</ele>
        <time>2015-11-29T09:44:49.000Z</time>
      </trkpt>
      <trkpt lat="47.5371" lon="6.67771">
        <ele>369</ele>
        <time>2015-11-29T09:44:50.000Z</time>
      </trkpt>
      <trkpt lat="47.53709" lon="6.67767">
        <ele>369</ele>
        <time>2015-11-29T09:44:51.000Z</time>
      </trkpt>
      <trkpt lat="47.53708" lon="6.67763">
        <ele>369</ele>
        <time>2015-11-29T09:44:52.000Z</time>
      </trkpt>
      <trkpt lat="47.53707" lon="6.67759">
        <ele>370</ele>
        <time>2015-11-29T09:44:53.000Z</time>
      </trkpt>
      <trkpt lat="47.53706" lon="6.67755">
        <ele>370</ele>
        <time>2015-11-29T09:44:54.000Z</time>
      </trkpt>
      <trkpt lat="47.53706" lon="6.67752">
        <ele>370</ele>
        <time>2015-11-29T09:44:55.000Z</time>
      </trkpt>
      <trkpt lat="47.53705" lon="6.67749">
        <ele>373</ele>
        <time>2015-11-29T09:44:56.000Z</time>
      </trkpt>
      <trkpt lat="47.53705" lon="6.67745">
        <ele>373</ele>
        <time>2015-11-29T09:44:57.000Z</time>
      </trkpt>
      <trkpt lat="47.53705" lon="6.67739">
        <ele>373</ele>
        <time>2015-11-29T09:44:59.000Z</time>
      </trkpt>
      <trkpt lat="47.53706" lon="6.67737">
        <ele>373</ele>
        <time>2015-11-29T09:45:00.000Z</time>
      </trkpt>
      <trkpt lat="47.53708" lon="6.67736">
        <ele>373</ele>
        <time>2015-11-29T09:45:01.000Z</time>
      </trkpt>
      <trkpt lat="47.53711" lon="6.67735">
        <ele>373</ele>
        <time>2015-11-29T09:45:02.000Z</time>
      </trkpt>
      <trkpt lat="47.53714" lon="6.67734">
        <ele>373</ele>
        <time>2015-11-29T09:45:03.000Z</time>
      </trkpt>
      <trkpt lat="47.53718" lon="6.67734">
        <ele>373</ele>
        <time>2015-11-29T09:45:04.000Z</time>
      </trkpt>
      <trkpt lat="47.53722" lon="6.67734">
        <ele>373</ele>
        <time>2015-11-29T09:45:05.000Z</time>
      </trkpt>
      <trkpt lat="47.53725" lon="6.67734">
        <ele>373</ele>
        <time>2015-11-29T09:45:06.000Z</time>
      </trkpt>
      <trkpt lat="47.53728" lon="6.67734">
        <ele>373</ele>
        <time>2015-11-29T09:45:07.000Z</time>
      </trkpt>
      <trkpt lat="47.53731" lon="6.67735">
        <ele>373</ele>
        <time>2015-11-29T09:45:08.000Z</time>
      </trkpt>
      <trkpt lat="47.53734" lon="6.67735">
        <ele>373</ele>
        <time>2015-11-29T09:45:09.000Z</time>
      </trkpt>
      <trkpt lat="47.53737" lon="6.67736">
        <ele>373</ele>
        <time>2015-11-29T09:45:10.000Z</time>
      </trkpt>
      <trkpt lat="47.5374" lon="6.67735">
        <ele>373</ele>
        <time>2015-11-29T09:45:10.999Z</time>
      </trkpt>
      <trkpt lat="47.53743" lon="6.67735">
        <ele>373</ele>
        <time>2015-11-29T09:45:12.000Z</time>
      </trkpt>
      <trkpt lat="47.53745" lon="6.67735">
        <ele>373</ele>
        <time>2015-11-29T09:45:13.000Z</time>
      </trkpt>
      <trkpt lat="47.53748" lon="6.67735">
        <ele>373</ele>
        <time>2015-11-29T09:45:14.000Z</time>
      </trkpt>
      <trkpt lat="47.53751" lon="6.67735">
        <ele>373</ele>
        <time>2015-11-29T09:45:14.999Z</time>
      </trkpt>
      <trkpt lat="47.53755" lon="6.67736">
        <ele>373</ele>
        <time>2015-11-29T09:45:16.000Z</time>
      </trkpt>
      <trkpt lat="47.53758" lon="6.67737">
        <ele>373</ele>
        <time>2015-11-29T09:45:17.000Z</time>
      </trkpt>
      <trkpt lat="47.53762" lon="6.67737">
        <ele>373</ele>
        <time>2015-11-29T09:45:18.002Z</time>
      </trkpt>
      <trkpt lat="47.53765" lon="6.67738">
        <ele>373</ele>
        <time>2015-11-29T09:45:19.000Z</time>
      </trkpt>
      <trkpt lat="47.53769" lon="6.67739">
        <ele>374</ele>
        <time>2015-11-29T09:45:20.000Z</time>
      </trkpt>
      <trkpt lat="47.53773" lon="6.6774">
        <ele>374</ele>
        <time>2015-11-29T09:45:21.000Z</time>
      </trkpt>
      <trkpt lat="47.53778" lon="6.67742">
        <ele>374</ele>
        <time>2015-11-29T09:45:22.000Z</time>
      </trkpt>
      <trkpt lat="47.53781" lon="6.67743">
        <ele>374</ele>
        <time>2015-11-29T09:45:23.000Z</time>
      </trkpt>
      <trkpt lat="47.53785" lon="6.67745">
        <ele>374</ele>
        <time>2015-11-29T09:45:24.000Z</time>
      </trkpt>
      <trkpt lat="47.53788" lon="6.67746">
        <ele>374</ele>
        <time>2015-11-29T09:45:25.000Z</time>
      </trkpt>
      <trkpt lat="47.53792" lon="6.67747">
        <ele>374</ele>
        <time>2015-11-29T09:45:26.000Z</time>
      </trkpt>
      <trkpt lat="47.53795" lon="6.67748">
        <ele>374</ele>
        <time>2015-11-29T09:45:27.000Z</time>
      </trkpt>
      <trkpt lat="47.53799" lon="6.67748">
        <ele>374</ele>
        <time>2015-11-29T09:45:28.000Z</time>
      </trkpt>
      <trkpt lat="47.53802" lon="6.67749">
        <ele>374</ele>
        <time>2015-11-29T09:45:28.999Z</time>
      </trkpt>
      <trkpt lat="47.53806" lon="6.67749">
        <ele>374</ele>
        <time>2015-11-29T09:45:30.000Z</time>
      </trkpt>
      <trkpt lat="47.53809" lon="6.67749">
        <ele>374</ele>
        <time>2015-11-29T09:45:31.000Z</time>
      </trkpt>
      <trkpt lat="47.53812" lon="6.6775">
        <ele>374</ele>
        <time>2015-11-29T09:45:32.000Z</time>
      </trkpt>
      <trkpt lat="47.53816" lon="6.6775">
        <ele>372</ele>
        <time>2015-11-29T09:45:33.000Z</time>
      </trkpt>
      <trkpt lat="47.53818" lon="6.6775">
        <ele>372</ele>
        <time>2015-11-29T09:45:34.000Z</time>
      </trkpt>
      <trkpt lat="47.53821" lon="6.67751">
        <ele>373</ele>
        <time>2015-11-29T09:45:35.000Z</time>
      </trkpt>
      <trkpt lat="47.53824" lon="6.67751">
        <ele>373</ele>
        <time>2015-11-29T09:45:36.000Z</time>
      </trkpt>
      <trkpt lat="47.53827" lon="6.67753">
        <ele>373</ele>
        <time>2015-11-29T09:45:37.000Z</time>
      </trkpt>
      <trkpt lat="47.5383" lon="6.67753">
        <ele>373</ele>
        <time>2015-11-29T09:45:38.000Z</time>
      </trkpt>
      <trkpt lat="47.53834" lon="6.67753">
        <ele>374</ele>
        <time>2015-11-29T09:45:39.000Z</time>
      </trkpt>
      <trkpt lat="47.53838" lon="6.67753">
        <ele>374</ele>
        <time>2015-11-29T09:45:40.000Z</time>
      </trkpt>
      <trkpt lat="47.53849" lon="6.6775">
        <ele>374</ele>
        <time>2015-11-29T09:45:41.000Z</time>
      </trkpt>
      <trkpt lat="47.53855" lon="6.67745">
        <ele>374</ele>
        <time>2015-11-29T09:45:42.000Z</time>
      </trkpt>
      <trkpt lat="47.5386" lon="6.67742">
        <ele>374</ele>
        <time>2015-11-29T09:45:43.000Z</time>
      </trkpt>
      <trkpt lat="47.53865" lon="6.67738">
        <ele>374</ele>
        <time>2015-11-29T09:45:44.000Z</time>
      </trkpt>
      <trkpt lat="47.53873" lon="6.67735">
        <ele>374</ele>
        <time>2015-11-29T09:45:45.000Z</time>
      </trkpt>
      <trkpt lat="47.53879" lon="6.67731">
        <ele>374</ele>
        <time>2015-11-29T09:45:46.000Z</time>
      </trkpt>
      <trkpt lat="47.53884" lon="6.67725">
        <ele>374</ele>
        <time>2015-11-29T09:45:47.000Z</time>
      </trkpt>
      <trkpt lat="47.53888" lon="6.67722">
        <ele>374</ele>
        <time>2015-11-29T09:45:48.000Z</time>
      </trkpt>
      <trkpt lat="47.53894" lon="6.67719">
        <ele>374</ele>
        <time>2015-11-29T09:45:49.000Z</time>
      </trkpt>
      <trkpt lat="47.53898" lon="6.67715">
        <ele>374</ele>
        <time>2015-11-29T09:45:50.000Z</time>
      </trkpt>
      <trkpt lat="47.53902" lon="6.67713">
        <ele>374</ele>
        <time>2015-11-29T09:45:51.000Z</time>
      </trkpt>
      <trkpt lat="47.53907" lon="6.6771">
        <ele>374</ele>
        <time>2015-11-29T09:45:52.000Z</time>
      </trkpt>
      <trkpt lat="47.53912" lon="6.67708">
        <ele>374</ele>
        <time>2015-11-29T09:45:53.000Z</time>
      </trkpt>
      <trkpt lat="47.53917" lon="6.67705">
        <ele>374</ele>
        <time>2015-11-29T09:45:54.000Z</time>
      </trkpt>
      <trkpt lat="47.53921" lon="6.67704">
        <ele>374</ele>
        <time>2015-11-29T09:45:55.000Z</time>
      </trkpt>
      <trkpt lat="47.53926" lon="6.67702">
        <ele>374</ele>
        <time>2015-11-29T09:45:56.000Z</time>
      </trkpt>
      <trkpt lat="47.5393" lon="6.677">
        <ele>374</ele>
        <time>2015-11-29T09:45:57.000Z</time>
      </trkpt>
      <trkpt lat="47.53935" lon="6.67699">
        <ele>374</ele>
        <time>2015-11-29T09:45:58.000Z</time>
      </trkpt>
      <trkpt lat="47.53939" lon="6.67697">
        <ele>375</ele>
        <time>2015-11-29T09:45:59.000Z</time>
      </trkpt>
      <trkpt lat="47.53943" lon="6.67697">
        <ele>375</ele>
        <time>2015-11-29T09:46:00.000Z</time>
      </trkpt>
      <trkpt lat="47.53946" lon="6.67696">
        <ele>375</ele>
        <time>2015-11-29T09:46:01.000Z</time>
      </trkpt>
      <trkpt lat="47.5395" lon="6.67694">
        <ele>375</ele>
        <time>2015-11-29T09:46:02.000Z</time>
      </trkpt>
      <trkpt lat="47.53953" lon="6.67693">
        <ele>375</ele>
        <time>2015-11-29T09:46:03.000Z</time>
      </trkpt>
      <trkpt lat="47.53956" lon="6.67692">
        <ele>375</ele>
        <time>2015-11-29T09:46:04.000Z</time>
      </trkpt>
      <trkpt lat="47.53959" lon="6.6769">
        <ele>375</ele>
        <time>2015-11-29T09:46:05.000Z</time>
      </trkpt>
      <trkpt lat="47.53962" lon="6.67689">
        <ele>375</ele>
        <time>2015-11-29T09:46:06.000Z</time>
      </trkpt>
      <trkpt lat="47.53965" lon="6.67688">
        <ele>375</ele>
        <time>2015-11-29T09:46:07.000Z</time>
      </trkpt>
      <trkpt lat="47.53969" lon="6.67687">
        <ele>375</ele>
        <time>2015-11-29T09:46:08.000Z</time>
      </trkpt>
      <trkpt lat="47.53972" lon="6.67686">
        <ele>375</ele>
        <time>2015-11-29T09:46:09.000Z</time>
      </trkpt>
      <trkpt lat="47.53976" lon="6.67684">
        <ele>375</ele>
        <time>2015-11-29T09:46:10.000Z</time>
      </trkpt>
      <trkpt lat="47.5398" lon="6.67683">
        <ele>375</ele>
        <time>2015-11-29T09:46:11.000Z</time>
      </trkpt>
      <trkpt lat="47.53984" lon="6.67681">
        <ele>375</ele>
        <time>2015-11-29T09:46:12.000Z</time>
      </trkpt>
      <trkpt lat="47.53988" lon="6.6768">
        <ele>375</ele>
        <time>2015-11-29T09:46:13.000Z</time>
      </trkpt>
      <trkpt lat="47.53992" lon="6.67678">
        <ele>375</ele>
        <time>2015-11-29T09:46:14.000Z</time>
      </trkpt>
      <trkpt lat="47.53996" lon="6.67676">
        <ele>375</ele>
        <time>2015-11-29T09:46:15.000Z</time>
      </trkpt>
      <trkpt lat="47.53999" lon="6.67673">
        <ele>375</ele>
        <time>2015-11-29T09:46:16.000Z</time>
      </trkpt>
      <trkpt lat="47.54002" lon="6.67671">
        <ele>376</ele>
        <time>2015-11-29T09:46:17.000Z</time>
      </trkpt>
      <trkpt lat="47.54005" lon="6.67668">
        <ele>377</ele>
        <time>2015-11-29T09:46:18.000Z</time>
      </trkpt>
      <trkpt lat="47.54008" lon="6.67665">
        <ele>377</ele>
        <time>2015-11-29T09:46:19.000Z</time>
      </trkpt>
      <trkpt lat="47.5401" lon="6.67661">
        <ele>377</ele>
        <time>2015-11-29T09:46:20.000Z</time>
      </trkpt>
      <trkpt lat="47.54012" lon="6.67658">
        <ele>378</ele>
        <time>2015-11-29T09:46:21.000Z</time>
      </trkpt>
      <trkpt lat="47.54015" lon="6.67654">
        <ele>378</ele>
        <time>2015-11-29T09:46:22.000Z</time>
      </trkpt>
      <trkpt lat="47.54018" lon="6.6765">
        <ele>379</ele>
        <time>2015-11-29T09:46:23.000Z</time>
      </trkpt>
      <trkpt lat="47.54021" lon="6.67645">
        <ele>379</ele>
        <time>2015-11-29T09:46:24.000Z</time>
      </trkpt>
      <trkpt lat="47.54024" lon="6.67641">
        <ele>379</ele>
        <time>2015-11-29T09:46:25.000Z</time>
      </trkpt>
      <trkpt lat="47.54027" lon="6.67637">
        <ele>380</ele>
        <time>2015-11-29T09:46:26.000Z</time>
      </trkpt>
      <trkpt lat="47.5403" lon="6.67633">
        <ele>380</ele>
        <time>2015-11-29T09:46:27.000Z</time>
      </trkpt>
      <trkpt lat="47.54033" lon="6.6763">
        <ele>380</ele>
        <time>2015-11-29T09:46:28.000Z</time>
      </trkpt>
      <trkpt lat="47.54036" lon="6.67627">
        <ele>380</ele>
        <time>2015-11-29T09:46:29.000Z</time>
      </trkpt>
      <trkpt lat="47.54038" lon="6.67625">
        <ele>380</ele>
        <time>2015-11-29T09:46:30.000Z</time>
      </trkpt>
      <trkpt lat="47.54041" lon="6.67622">
        <ele>381</ele>
        <time>2015-11-29T09:46:31.000Z</time>
      </trkpt>
      <trkpt lat="47.54044" lon="6.67619">
        <ele>381</ele>
        <time>2015-11-29T09:46:32.000Z</time>
      </trkpt>
      <trkpt lat="47.54047" lon="6.67616">
        <ele>381</ele>
        <time>2015-11-29T09:46:33.000Z</time>
      </trkpt>
      <trkpt lat="47.5405" lon="6.67614">
        <ele>381</ele>
        <time>2015-11-29T09:46:34.000Z</time>
      </trkpt>
      <trkpt lat="47.54053" lon="6.67613">
        <ele>381</ele>
        <time>2015-11-29T09:46:35.000Z</time>
      </trkpt>
      <trkpt lat="47.54057" lon="6.67613">
        <ele>382</ele>
        <time>2015-11-29T09:46:36.000Z</time>
      </trkpt>
      <trkpt lat="47.5406" lon="6.67613">
        <ele>382</ele>
        <time>2015-11-29T09:46:37.000Z</time>
      </trkpt>
      <trkpt lat="47.54065" lon="6.67613">
        <ele>382</ele>
        <time>2015-11-29T09:46:38.000Z</time>
      </trkpt>
      <trkpt lat="47.54069" lon="6.67613">
        <ele>382</ele>
        <time>2015-11-29T09:46:39.000Z</time>
      </trkpt>
      <trkpt lat="47.54073" lon="6.67613">
        <ele>383</ele>
        <time>2015-11-29T09:46:40.000Z</time>
      </trkpt>
      <trkpt lat="47.54077" lon="6.67613">
        <ele>383</ele>
        <time>2015-11-29T09:46:41.000Z</time>
      </trkpt>
      <trkpt lat="47.54082" lon="6.67614">
        <ele>383</ele>
        <time>2015-11-29T09:46:42.000Z</time>
      </trkpt>
      <trkpt lat="47.54087" lon="6.67613">
        <ele>387</ele>
        <time>2015-11-29T09:46:43.000Z</time>
      </trkpt>
      <trkpt lat="47.54091" lon="6.67612">
        <ele>387</ele>
        <time>2015-11-29T09:46:44.000Z</time>
      </trkpt>
      <trkpt lat="47.54096" lon="6.67616">
        <ele>387</ele>
        <time>2015-11-29T09:46:45.000Z</time>
      </trkpt>
      <trkpt lat="47.541" lon="6.67617">
        <ele>388</ele>
        <time>2015-11-29T09:46:46.000Z</time>
      </trkpt>
      <trkpt lat="47.54104" lon="6.67616">
        <ele>388</ele>
        <time>2015-11-29T09:46:47.000Z</time>
      </trkpt>
      <trkpt lat="47.54107" lon="6.67612">
        <ele>387</ele>
        <time>2015-11-29T09:46:48.000Z</time>
      </trkpt>
      <trkpt lat="47.54109" lon="6.67612">
        <ele>387</ele>
        <time>2015-11-29T09:46:49.000Z</time>
      </trkpt>
      <trkpt lat="47.54111" lon="6.67609">
        <ele>387</ele>
        <time>2015-11-29T09:46:51.000Z</time>
      </trkpt>
      <trkpt lat="47.54114" lon="6.67608">
        <ele>387</ele>
        <time>2015-11-29T09:46:52.000Z</time>
      </trkpt>
      <trkpt lat="47.54118" lon="6.67607">
        <ele>387</ele>
        <time>2015-11-29T09:46:53.000Z</time>
      </trkpt>
      <trkpt lat="47.54122" lon="6.67607">
        <ele>387</ele>
        <time>2015-11-29T09:46:54.000Z</time>
      </trkpt>
      <trkpt lat="47.54126" lon="6.67607">
        <ele>387</ele>
        <time>2015-11-29T09:46:55.000Z</time>
      </trkpt>
      <trkpt lat="47.54131" lon="6.67606">
        <ele>387</ele>
        <time>2015-11-29T09:46:56.000Z</time>
      </trkpt>
      <trkpt lat="47.54135" lon="6.67606">
        <ele>387</ele>
        <time>2015-11-29T09:46:57.000Z</time>
      </trkpt>
      <trkpt lat="47.54139" lon="6.67605">
        <ele>387</ele>
        <time>2015-11-29T09:46:58.000Z</time>
      </trkpt>
      <trkpt lat="47.54143" lon="6.67605">
        <ele>387</ele>
        <time>2015-11-29T09:46:59.000Z</time>
      </trkpt>
      <trkpt lat="47.54147" lon="6.67605">
        <ele>387</ele>
        <time>2015-11-29T09:47:00.000Z</time>
      </trkpt>
      <trkpt lat="47.54151" lon="6.67604">
        <ele>387</ele>
        <time>2015-11-29T09:47:01.000Z</time>
      </trkpt>
      <trkpt lat="47.54156" lon="6.67602">
        <ele>387</ele>
        <time>2015-11-29T09:47:02.000Z</time>
      </trkpt>
      <trkpt lat="47.54164" lon="6.67594">
        <ele>386</ele>
        <time>2015-11-29T09:47:03.000Z</time>
      </trkpt>
      <trkpt lat="47.5417" lon="6.67593">
        <ele>386</ele>
        <time>2015-11-29T09:47:04.000Z</time>
      </trkpt>
      <trkpt lat="47.54175" lon="6.6759">
        <ele>386</ele>
        <time>2015-11-29T09:47:05.000Z</time>
      </trkpt>
      <trkpt lat="47.5418" lon="6.67584">
        <ele>386</ele>
        <time>2015-11-29T09:47:06.000Z</time>
      </trkpt>
      <trkpt lat="47.54185" lon="6.67582">
        <ele>383</ele>
        <time>2015-11-29T09:47:07.000Z</time>
      </trkpt>
      <trkpt lat="47.54187" lon="6.6758">
        <ele>383</ele>
        <time>2015-11-29T09:47:08.000Z</time>
      </trkpt>
      <trkpt lat="47.5419" lon="6.6758">
        <ele>383</ele>
        <time>2015-11-29T09:47:09.000Z</time>
      </trkpt>
      <trkpt lat="47.54192" lon="6.67579">
        <ele>383</ele>
        <time>2015-11-29T09:47:10.000Z</time>
      </trkpt>
      <trkpt lat="47.54195" lon="6.67578">
        <ele>383</ele>
        <time>2015-11-29T09:47:11.000Z</time>
      </trkpt>
      <trkpt lat="47.54198" lon="6.6758">
        <ele>383</ele>
        <time>2015-11-29T09:47:11.999Z</time>
      </trkpt>
      <trkpt lat="47.54202" lon="6.6758">
        <ele>383</ele>
        <time>2015-11-29T09:47:13.000Z</time>
      </trkpt>
      <trkpt lat="47.54201" lon="6.67568">
        <ele>382</ele>
        <time>2015-11-29T09:47:14.000Z</time>
      </trkpt>
      <trkpt lat="47.54203" lon="6.67563">
        <ele>382</ele>
        <time>2015-11-29T09:47:15.000Z</time>
      </trkpt>
      <trkpt lat="47.54206" lon="6.67561">
        <ele>382</ele>
        <time>2015-11-29T09:47:16.000Z</time>
      </trkpt>
      <trkpt lat="47.54208" lon="6.67558">
        <ele>382</ele>
        <time>2015-11-29T09:47:17.000Z</time>
      </trkpt>
      <trkpt lat="47.54215" lon="6.67565">
        <ele>382</ele>
        <time>2015-11-29T09:47:18.000Z</time>
      </trkpt>
      <trkpt lat="47.5422" lon="6.67566">
        <ele>382</ele>
        <time>2015-11-29T09:47:19.000Z</time>
      </trkpt>
      <trkpt lat="47.54226" lon="6.67567">
        <ele>383</ele>
        <time>2015-11-29T09:47:20.000Z</time>
      </trkpt>
      <trkpt lat="47.54231" lon="6.67572">
        <ele>383</ele>
        <time>2015-11-29T09:47:21.000Z</time>
      </trkpt>
      <trkpt lat="47.54232" lon="6.6757">
        <ele>383</ele>
        <time>2015-11-29T09:47:22.001Z</time>
      </trkpt>
      <trkpt lat="47.54235" lon="6.67569">
        <ele>383</ele>
        <time>2015-11-29T09:47:23.000Z</time>
      </trkpt>
      <trkpt lat="47.54238" lon="6.67568">
        <ele>383</ele>
        <time>2015-11-29T09:47:24.000Z</time>
      </trkpt>
      <trkpt lat="47.5424" lon="6.67566">
        <ele>383</ele>
        <time>2015-11-29T09:47:25.001Z</time>
      </trkpt>
      <trkpt lat="47.54245" lon="6.6757">
        <ele>383</ele>
        <time>2015-11-29T09:47:26.000Z</time>
      </trkpt>
      <trkpt lat="47.54247" lon="6.67574">
        <ele>383</ele>
        <time>2015-11-29T09:47:27.000Z</time>
      </trkpt>
      <trkpt lat="47.54252" lon="6.67574">
        <ele>384</ele>
        <time>2015-11-29T09:47:28.000Z</time>
      </trkpt>
      <trkpt lat="47.54257" lon="6.67574">
        <ele>384</ele>
        <time>2015-11-29T09:47:29.000Z</time>
      </trkpt>
      <trkpt lat="47.54261" lon="6.67575">
        <ele>384</ele>
        <time>2015-11-29T09:47:30.000Z</time>
      </trkpt>
      <trkpt lat="47.54265" lon="6.67574">
        <ele>384</ele>
        <time>2015-11-29T09:47:31.000Z</time>
      </trkpt>
      <trkpt lat="47.54269" lon="6.67572">
        <ele>384</ele>
        <time>2015-11-29T09:47:32.000Z</time>
      </trkpt>
      <trkpt lat="47.54273" lon="6.67571">
        <ele>384</ele>
        <time>2015-11-29T09:47:33.000Z</time>
      </trkpt>
      <trkpt lat="47.54277" lon="6.67569">
        <ele>384</ele>
        <time>2015-11-29T09:47:34.000Z</time>
      </trkpt>
      <trkpt lat="47.54282" lon="6.67568">
        <ele>384</ele>
        <time>2015-11-29T09:47:35.000Z</time>
      </trkpt>
      <trkpt lat="47.54287" lon="6.67566">
        <ele>384</ele>
        <time>2015-11-29T09:47:36.000Z</time>
      </trkpt>
      <trkpt lat="47.54292" lon="6.67565">
        <ele>384</ele>
        <time>2015-11-29T09:47:37.000Z</time>
      </trkpt>
      <trkpt lat="47.54297" lon="6.67564">
        <ele>384</ele>
        <time>2015-11-29T09:47:38.000Z</time>
      </trkpt>
      <trkpt lat="47.54301" lon="6.67562">
        <ele>385</ele>
        <time>2015-11-29T09:47:39.000Z</time>
      </trkpt>
      <trkpt lat="47.54305" lon="6.67561">
        <ele>385</ele>
        <time>2015-11-29T09:47:40.000Z</time>
      </trkpt>
      <trkpt lat="47.54309" lon="6.6756">
        <ele>385</ele>
        <time>2015-11-29T09:47:41.000Z</time>
      </trkpt>
      <trkpt lat="47.54313" lon="6.67559">
        <ele>385</ele>
        <time>2015-11-29T09:47:42.000Z</time>
      </trkpt>
      <trkpt lat="47.54317" lon="6.67558">
        <ele>385</ele>
        <time>2015-11-29T09:47:43.000Z</time>
      </trkpt>
      <trkpt lat="47.54321" lon="6.67557">
        <ele>385</ele>
        <time>2015-11-29T09:47:44.000Z</time>
      </trkpt>
      <trkpt lat="47.54325" lon="6.67555">
        <ele>385</ele>
        <time>2015-11-29T09:47:45.000Z</time>
      </trkpt>
      <trkpt lat="47.5433" lon="6.67554">
        <ele>385</ele>
        <time>2015-11-29T09:47:46.000Z</time>
      </trkpt>
      <trkpt lat="47.54334" lon="6.67552">
        <ele>388</ele>
        <time>2015-11-29T09:47:47.000Z</time>
      </trkpt>
      <trkpt lat="47.54337" lon="6.67551">
        <ele>388</ele>
        <time>2015-11-29T09:47:48.000Z</time>
      </trkpt>
      <trkpt lat="47.54341" lon="6.67549">
        <ele>388</ele>
        <time>2015-11-29T09:47:49.000Z</time>
      </trkpt>
      <trkpt lat="47.54351" lon="6.67547">
        <ele>389</ele>
        <time>2015-11-29T09:47:50.000Z</time>
      </trkpt>
      <trkpt lat="47.54355" lon="6.67544">
        <ele>389</ele>
        <time>2015-11-29T09:47:51.000Z</time>
      </trkpt>
      <trkpt lat="47.54357" lon="6.67541">
        <ele>389</ele>
        <time>2015-11-29T09:47:52.000Z</time>
      </trkpt>
      <trkpt lat="47.5436" lon="6.67539">
        <ele>389</ele>
        <time>2015-11-29T09:47:53.000Z</time>
      </trkpt>
      <trkpt lat="47.54363" lon="6.67538">
        <ele>389</ele>
        <time>2015-11-29T09:47:54.000Z</time>
      </trkpt>
      <trkpt lat="47.54367" lon="6.67535">
        <ele>389</ele>
        <time>2015-11-29T09:47:55.000Z</time>
      </trkpt>
      <trkpt lat="47.54371" lon="6.67534">
        <ele>389</ele>
        <time>2015-11-29T09:47:56.000Z</time>
      </trkpt>
      <trkpt lat="47.54375" lon="6.67532">
        <ele>389</ele>
        <time>2015-11-29T09:47:57.000Z</time>
      </trkpt>
      <trkpt lat="47.54378" lon="6.67531">
        <ele>389</ele>
        <time>2015-11-29T09:47:58.000Z</time>
      </trkpt>
      <trkpt lat="47.54382" lon="6.6753">
        <ele>389</ele>
        <time>2015-11-29T09:47:59.000Z</time>
      </trkpt>
      <trkpt lat="47.54385" lon="6.67529">
        <ele>389</ele>
        <time>2015-11-29T09:48:00.000Z</time>
      </trkpt>
      <trkpt lat="47.54388" lon="6.67528">
        <ele>389</ele>
        <time>2015-11-29T09:48:01.000Z</time>
      </trkpt>
      <trkpt lat="47.5439" lon="6.67527">
        <ele>389</ele>
        <time>2015-11-29T09:48:02.000Z</time>
      </trkpt>
      <trkpt lat="47.54392" lon="6.67526">
        <ele>389</ele>
        <time>2015-11-29T09:48:03.000Z</time>
      </trkpt>
      <trkpt lat="47.54395" lon="6.67525">
        <ele>389</ele>
        <time>2015-11-29T09:48:04.000Z</time>
      </trkpt>
      <trkpt lat="47.54397" lon="6.67524">
        <ele>389</ele>
        <time>2015-11-29T09:48:05.000Z</time>
      </trkpt>
      <trkpt lat="47.544" lon="6.67522">
        <ele>389</ele>
        <time>2015-11-29T09:48:06.000Z</time>
      </trkpt>
      <trkpt lat="47.54403" lon="6.67521">
        <ele>389</ele>
        <time>2015-11-29T09:48:07.000Z</time>
      </trkpt>
      <trkpt lat="47.54407" lon="6.67519">
        <ele>389</ele>
        <time>2015-11-29T09:48:08.000Z</time>
      </trkpt>
      <trkpt lat="47.54411" lon="6.67517">
        <ele>389</ele>
        <time>2015-11-29T09:48:09.000Z</time>
      </trkpt>
      <trkpt lat="47.54415" lon="6.67515">
        <ele>388</ele>
        <time>2015-11-29T09:48:10.000Z</time>
      </trkpt>
      <trkpt lat="47.5442" lon="6.67514">
        <ele>391</ele>
        <time>2015-11-29T09:48:11.000Z</time>
      </trkpt>
      <trkpt lat="47.54425" lon="6.67513">
        <ele>391</ele>
        <time>2015-11-29T09:48:12.000Z</time>
      </trkpt>
      <trkpt lat="47.5443" lon="6.67512">
        <ele>391</ele>
        <time>2015-11-29T09:48:13.000Z</time>
      </trkpt>
      <trkpt lat="47.54444" lon="6.67512">
        <ele>393</ele>
        <time>2015-11-29T09:48:14.000Z</time>
      </trkpt>
      <trkpt lat="47.54449" lon="6.67512">
        <ele>393</ele>
        <time>2015-11-29T09:48:15.000Z</time>
      </trkpt>
      <trkpt lat="47.54453" lon="6.67511">
        <ele>393</ele>
        <time>2015-11-29T09:48:16.000Z</time>
      </trkpt>
      <trkpt lat="47.54455" lon="6.6751">
        <ele>393</ele>
        <time>2015-11-29T09:48:17.000Z</time>
      </trkpt>
      <trkpt lat="47.54459" lon="6.67509">
        <ele>393</ele>
        <time>2015-11-29T09:48:18.000Z</time>
      </trkpt>
      <trkpt lat="47.54463" lon="6.6751">
        <ele>393</ele>
        <time>2015-11-29T09:48:19.000Z</time>
      </trkpt>
      <trkpt lat="47.54468" lon="6.67509">
        <ele>393</ele>
        <time>2015-11-29T09:48:20.000Z</time>
      </trkpt>
      <trkpt lat="47.54473" lon="6.6751">
        <ele>393</ele>
        <time>2015-11-29T09:48:21.000Z</time>
      </trkpt>
      <trkpt lat="47.54476" lon="6.67511">
        <ele>393</ele>
        <time>2015-11-29T09:48:22.000Z</time>
      </trkpt>
      <trkpt lat="47.54478" lon="6.6751">
        <ele>393</ele>
        <time>2015-11-29T09:48:23.000Z</time>
      </trkpt>
      <trkpt lat="47.54482" lon="6.6751">
        <ele>393</ele>
        <time>2015-11-29T09:48:24.000Z</time>
      </trkpt>
      <trkpt lat="47.54486" lon="6.6751">
        <ele>393</ele>
        <time>2015-11-29T09:48:25.000Z</time>
      </trkpt>
      <trkpt lat="47.54489" lon="6.67509">
        <ele>393</ele>
        <time>2015-11-29T09:48:26.000Z</time>
      </trkpt>
      <trkpt lat="47.54493" lon="6.67509">
        <ele>392</ele>
        <time>2015-11-29T09:48:27.000Z</time>
      </trkpt>
      <trkpt lat="47.54496" lon="6.67509">
        <ele>392</ele>
        <time>2015-11-29T09:48:28.000Z</time>
      </trkpt>
      <trkpt lat="47.54499" lon="6.67508">
        <ele>392</ele>
        <time>2015-11-29T09:48:29.000Z</time>
      </trkpt>
      <trkpt lat="47.54503" lon="6.67508">
        <ele>393</ele>
        <time>2015-11-29T09:48:30.000Z</time>
      </trkpt>
      <trkpt lat="47.54507" lon="6.67508">
        <ele>393</ele>
        <time>2015-11-29T09:48:31.000Z</time>
      </trkpt>
      <trkpt lat="47.54511" lon="6.67507">
        <ele>394</ele>
        <time>2015-11-29T09:48:32.000Z</time>
      </trkpt>
      <trkpt lat="47.54517" lon="6.67507">
        <ele>394</ele>
        <time>2015-11-29T09:48:33.000Z</time>
      </trkpt>
      <trkpt lat="47.54531" lon="6.67504">
        <ele>396</ele>
        <time>2015-11-29T09:48:34.000Z</time>
      </trkpt>
      <trkpt lat="47.54536" lon="6.67504">
        <ele>396</ele>
        <time>2015-11-29T09:48:35.000Z</time>
      </trkpt>
      <trkpt lat="47.5454" lon="6.67503">
        <ele>396</ele>
        <time>2015-11-29T09:48:36.000Z</time>
      </trkpt>
      <trkpt lat="47.54542" lon="6.67503">
        <ele>396</ele>
        <time>2015-11-29T09:48:37.000Z</time>
      </trkpt>
      <trkpt lat="47.54546" lon="6.67503">
        <ele>396</ele>
        <time>2015-11-29T09:48:38.000Z</time>
      </trkpt>
      <trkpt lat="47.54549" lon="6.67503">
        <ele>396</ele>
        <time>2015-11-29T09:48:39.000Z</time>
      </trkpt>
      <trkpt lat="47.54553" lon="6.67503">
        <ele>396</ele>
        <time>2015-11-29T09:48:40.000Z</time>
      </trkpt>
      <trkpt lat="47.54557" lon="6.67502">
        <ele>396</ele>
        <time>2015-11-29T09:48:41.000Z</time>
      </trkpt>
      <trkpt lat="47.5456" lon="6.67502">
        <ele>396</ele>
        <time>2015-11-29T09:48:42.000Z</time>
      </trkpt>
      <trkpt lat="47.54563" lon="6.67502">
        <ele>396</ele>
        <time>2015-11-29T09:48:43.000Z</time>
      </trkpt>
      <trkpt lat="47.54566" lon="6.67502">
        <ele>395</ele>
        <time>2015-11-29T09:48:44.000Z</time>
      </trkpt>
      <trkpt lat="47.54569" lon="6.67501">
        <ele>395</ele>
        <time>2015-11-29T09:48:45.000Z</time>
      </trkpt>
      <trkpt lat="47.54573" lon="6.67501">
        <ele>394</ele>
        <time>2015-11-29T09:48:46.000Z</time>
      </trkpt>
      <trkpt lat="47.54577" lon="6.675">
        <ele>394</ele>
        <time>2015-11-29T09:48:47.000Z</time>
      </trkpt>
      <trkpt lat="47.54581" lon="6.675">
        <ele>392</ele>
        <time>2015-11-29T09:48:48.000Z</time>
      </trkpt>
      <trkpt lat="47.54585" lon="6.675">
        <ele>392</ele>
        <time>2015-11-29T09:48:49.000Z</time>
      </trkpt>
      <trkpt lat="47.54589" lon="6.675">
        <ele>394</ele>
        <time>2015-11-29T09:48:50.000Z</time>
      </trkpt>
      <trkpt lat="47.54592" lon="6.675">
        <ele>395</ele>
        <time>2015-11-29T09:48:51.000Z</time>
      </trkpt>
      <trkpt lat="47.54596" lon="6.67501">
        <ele>395</ele>
        <time>2015-11-29T09:48:52.000Z</time>
      </trkpt>
      <trkpt lat="47.54598" lon="6.67501">
        <ele>396</ele>
        <time>2015-11-29T09:48:53.000Z</time>
      </trkpt>
      <trkpt lat="47.54601" lon="6.67502">
        <ele>396</ele>
        <time>2015-11-29T09:48:54.000Z</time>
      </trkpt>
      <trkpt lat="47.54604" lon="6.67504">
        <ele>397</ele>
        <time>2015-11-29T09:48:55.000Z</time>
      </trkpt>
      <trkpt lat="47.54607" lon="6.67505">
        <ele>397</ele>
        <time>2015-11-29T09:48:56.000Z</time>
      </trkpt>
      <trkpt lat="47.5461" lon="6.67506">
        <ele>397</ele>
        <time>2015-11-29T09:48:57.000Z</time>
      </trkpt>
      <trkpt lat="47.54612" lon="6.67508">
        <ele>398</ele>
        <time>2015-11-29T09:48:58.000Z</time>
      </trkpt>
      <trkpt lat="47.54615" lon="6.67509">
        <ele>398</ele>
        <time>2015-11-29T09:48:59.000Z</time>
      </trkpt>
      <trkpt lat="47.54618" lon="6.6751">
        <ele>398</ele>
        <time>2015-11-29T09:49:00.000Z</time>
      </trkpt>
      <trkpt lat="47.54621" lon="6.67511">
        <ele>398</ele>
        <time>2015-11-29T09:49:01.000Z</time>
      </trkpt>
      <trkpt lat="47.54623" lon="6.67513">
        <ele>398</ele>
        <time>2015-11-29T09:49:02.000Z</time>
      </trkpt>
      <trkpt lat="47.54626" lon="6.67514">
        <ele>398</ele>
        <time>2015-11-29T09:49:03.000Z</time>
      </trkpt>
      <trkpt lat="47.5463" lon="6.67515">
        <ele>399</ele>
        <time>2015-11-29T09:49:05.000Z</time>
      </trkpt>
      <trkpt lat="47.54632" lon="6.67516">
        <ele>399</ele>
        <time>2015-11-29T09:49:06.000Z</time>
      </trkpt>
      <trkpt lat="47.54634" lon="6.67517">
        <ele>399</ele>
        <time>2015-11-29T09:49:07.000Z</time>
      </trkpt>
      <trkpt lat="47.54637" lon="6.67518">
        <ele>399</ele>
        <time>2015-11-29T09:49:08.000Z</time>
      </trkpt>
      <trkpt lat="47.5464" lon="6.67519">
        <ele>399</ele>
        <time>2015-11-29T09:49:09.000Z</time>
      </trkpt>
      <trkpt lat="47.54642" lon="6.67521">
        <ele>399</ele>
        <time>2015-11-29T09:49:10.000Z</time>
      </trkpt>
      <trkpt lat="47.54645" lon="6.67522">
        <ele>399</ele>
        <time>2015-11-29T09:49:11.000Z</time>
      </trkpt>
      <trkpt lat="47.54647" lon="6.67524">
        <ele>399</ele>
        <time>2015-11-29T09:49:12.000Z</time>
      </trkpt>
      <trkpt lat="47.5465" lon="6.67525">
        <ele>399</ele>
        <time>2015-11-29T09:49:13.000Z</time>
      </trkpt>
      <trkpt lat="47.54652" lon="6.67525">
        <ele>399</ele>
        <time>2015-11-29T09:49:14.000Z</time>
      </trkpt>
      <trkpt lat="47.54655" lon="6.67526">
        <ele>399</ele>
        <time>2015-11-29T09:49:15.000Z</time>
      </trkpt>
      <trkpt lat="47.54657" lon="6.67527">
        <ele>399</ele>
        <time>2015-11-29T09:49:16.000Z</time>
      </trkpt>
      <trkpt lat="47.54661" lon="6.67529">
        <ele>399</ele>
        <time>2015-11-29T09:49:18.000Z</time>
      </trkpt>
      <trkpt lat="47.54663" lon="6.6753">
        <ele>399</ele>
        <time>2015-11-29T09:49:19.000Z</time>
      </trkpt>
      <trkpt lat="47.54664" lon="6.67531">
        <ele>400</ele>
        <time>2015-11-29T09:49:20.000Z</time>
      </trkpt>
      <trkpt lat="47.54667" lon="6.67533">
        <ele>402</ele>
        <time>2015-11-29T09:49:21.000Z</time>
      </trkpt>
      <trkpt lat="47.5467" lon="6.67535">
        <ele>403</ele>
        <time>2015-11-29T09:49:22.000Z</time>
      </trkpt>
      <trkpt lat="47.54674" lon="6.67536">
        <ele>403</ele>
        <time>2015-11-29T09:49:23.000Z</time>
      </trkpt>
      <trkpt lat="47.54678" lon="6.67537">
        <ele>403</ele>
        <time>2015-11-29T09:49:24.000Z</time>
      </trkpt>
      <trkpt lat="47.54681" lon="6.67537">
        <ele>403</ele>
        <time>2015-11-29T09:49:25.000Z</time>
      </trkpt>
      <trkpt lat="47.54684" lon="6.67537">
        <ele>403</ele>
        <time>2015-11-29T09:49:26.000Z</time>
      </trkpt>
      <trkpt lat="47.54687" lon="6.67538">
        <ele>404</ele>
        <time>2015-11-29T09:49:27.000Z</time>
      </trkpt>
      <trkpt lat="47.5469" lon="6.67538">
        <ele>404</ele>
        <time>2015-11-29T09:49:28.000Z</time>
      </trkpt>
      <trkpt lat="47.54693" lon="6.67538">
        <ele>404</ele>
        <time>2015-11-29T09:49:29.000Z</time>
      </trkpt>
      <trkpt lat="47.54696" lon="6.67538">
        <ele>404</ele>
        <time>2015-11-29T09:49:30.000Z</time>
      </trkpt>
      <trkpt lat="47.54699" lon="6.67538">
        <ele>404</ele>
        <time>2015-11-29T09:49:31.000Z</time>
      </trkpt>
      <trkpt lat="47.54702" lon="6.67538">
        <ele>404</ele>
        <time>2015-11-29T09:49:32.000Z</time>
      </trkpt>
      <trkpt lat="47.54705" lon="6.67537">
        <ele>404</ele>
        <time>2015-11-29T09:49:33.000Z</time>
      </trkpt>
      <trkpt lat="47.54708" lon="6.67537">
        <ele>405</ele>
        <time>2015-11-29T09:49:34.000Z</time>
      </trkpt>
      <trkpt lat="47.54712" lon="6.67537">
        <ele>405</ele>
        <time>2015-11-29T09:49:35.000Z</time>
      </trkpt>
      <trkpt lat="47.54715" lon="6.67537">
        <ele>405</ele>
        <time>2015-11-29T09:49:36.000Z</time>
      </trkpt>
      <trkpt lat="47.54718" lon="6.67536">
        <ele>405</ele>
        <time>2015-11-29T09:49:37.000Z</time>
      </trkpt>
      <trkpt lat="47.54721" lon="6.67536">
        <ele>405</ele>
        <time>2015-11-29T09:49:38.000Z</time>
      </trkpt>
      <trkpt lat="47.54724" lon="6.67535">
        <ele>405</ele>
        <time>2015-11-29T09:49:39.000Z</time>
      </trkpt>
      <trkpt lat="47.54727" lon="6.67534">
        <ele>405</ele>
        <time>2015-11-29T09:49:40.000Z</time>
      </trkpt>
      <trkpt lat="47.5473" lon="6.67534">
        <ele>405</ele>
        <time>2015-11-29T09:49:41.000Z</time>
      </trkpt>
      <trkpt lat="47.54732" lon="6.67533">
        <ele>405</ele>
        <time>2015-11-29T09:49:42.000Z</time>
      </trkpt>
      <trkpt lat="47.54734" lon="6.67533">
        <ele>405</ele>
        <time>2015-11-29T09:49:43.000Z</time>
      </trkpt>
      <trkpt lat="47.54737" lon="6.67534">
        <ele>405</ele>
        <time>2015-11-29T09:49:45.000Z</time>
      </trkpt>
      <trkpt lat="47.54739" lon="6.67535">
        <ele>405</ele>
        <time>2015-11-29T09:49:46.000Z</time>
      </trkpt>
      <trkpt lat="47.54741" lon="6.67537">
        <ele>405</ele>
        <time>2015-11-29T09:49:48.000Z</time>
      </trkpt>
      <trkpt lat="47.54743" lon="6.67537">
        <ele>406</ele>
        <time>2015-11-29T09:49:49.000Z</time>
      </trkpt>
      <trkpt lat="47.54747" lon="6.67536">
        <ele>405</ele>
        <time>2015-11-29T09:49:51.000Z</time>
      </trkpt>
      <trkpt lat="47.54749" lon="6.67536">
        <ele>405</ele>
        <time>2015-11-29T09:49:52.000Z</time>
      </trkpt>
      <trkpt lat="47.54753" lon="6.67537">
        <ele>411</ele>
        <time>2015-11-29T09:49:54.000Z</time>
      </trkpt>
      <trkpt lat="47.54756" lon="6.67537">
        <ele>411</ele>
        <time>2015-11-29T09:49:55.000Z</time>
      </trkpt>
      <trkpt lat="47.5476" lon="6.67538">
        <ele>411</ele>
        <time>2015-11-29T09:49:57.000Z</time>
      </trkpt>
      <trkpt lat="47.54761" lon="6.67538">
        <ele>411</ele>
        <time>2015-11-29T09:49:58.000Z</time>
      </trkpt>
      <trkpt lat="47.54765" lon="6.67538">
        <ele>411</ele>
        <time>2015-11-29T09:50:00.000Z</time>
      </trkpt>
      <trkpt lat="47.54767" lon="6.67537">
        <ele>411</ele>
        <time>2015-11-29T09:50:01.000Z</time>
      </trkpt>
      <trkpt lat="47.5477" lon="6.67537">
        <ele>411</ele>
        <time>2015-11-29T09:50:02.000Z</time>
      </trkpt>
      <trkpt lat="47.54772" lon="6.67538">
        <ele>411</ele>
        <time>2015-11-29T09:50:03.000Z</time>
      </trkpt>
      <trkpt lat="47.54775" lon="6.67538">
        <ele>412</ele>
        <time>2015-11-29T09:50:04.000Z</time>
      </trkpt>
      <trkpt lat="47.54777" lon="6.67537">
        <ele>412</ele>
        <time>2015-11-29T09:50:05.000Z</time>
      </trkpt>
      <trkpt lat="47.54781" lon="6.67536">
        <ele>412</ele>
        <time>2015-11-29T09:50:06.000Z</time>
      </trkpt>
      <trkpt lat="47.54784" lon="6.67536">
        <ele>412</ele>
        <time>2015-11-29T09:50:07.000Z</time>
      </trkpt>
      <trkpt lat="47.54787" lon="6.67536">
        <ele>412</ele>
        <time>2015-11-29T09:50:08.000Z</time>
      </trkpt>
      <trkpt lat="47.5479" lon="6.67536">
        <ele>412</ele>
        <time>2015-11-29T09:50:09.000Z</time>
      </trkpt>
      <trkpt lat="47.54793" lon="6.67536">
        <ele>413</ele>
        <time>2015-11-29T09:50:10.000Z</time>
      </trkpt>
      <trkpt lat="47.54796" lon="6.67536">
        <ele>413</ele>
        <time>2015-11-29T09:50:11.000Z</time>
      </trkpt>
      <trkpt lat="47.54799" lon="6.67537">
        <ele>413</ele>
        <time>2015-11-29T09:50:12.000Z</time>
      </trkpt>
      <trkpt lat="47.54801" lon="6.67537">
        <ele>413</ele>
        <time>2015-11-29T09:50:13.000Z</time>
      </trkpt>
      <trkpt lat="47.54804" lon="6.67537">
        <ele>413</ele>
        <time>2015-11-29T09:50:14.000Z</time>
      </trkpt>
      <trkpt lat="47.54807" lon="6.67537">
        <ele>413</ele>
        <time>2015-11-29T09:50:15.000Z</time>
      </trkpt>
      <trkpt lat="47.54811" lon="6.67537">
        <ele>413</ele>
        <time>2015-11-29T09:50:16.000Z</time>
      </trkpt>
      <trkpt lat="47.54815" lon="6.67538">
        <ele>414</ele>
        <time>2015-11-29T09:50:17.000Z</time>
      </trkpt>
      <trkpt lat="47.54818" lon="6.67538">
        <ele>414</ele>
        <time>2015-11-29T09:50:18.000Z</time>
      </trkpt>
      <trkpt lat="47.54821" lon="6.67539">
        <ele>414</ele>
        <time>2015-11-29T09:50:19.000Z</time>
      </trkpt>
      <trkpt lat="47.54824" lon="6.67539">
        <ele>414</ele>
        <time>2015-11-29T09:50:20.000Z</time>
      </trkpt>
      <trkpt lat="47.54827" lon="6.6754">
        <ele>414</ele>
        <time>2015-11-29T09:50:21.000Z</time>
      </trkpt>
      <trkpt lat="47.54829" lon="6.67541">
        <ele>414</ele>
        <time>2015-11-29T09:50:22.000Z</time>
      </trkpt>
      <trkpt lat="47.54833" lon="6.67541">
        <ele>415</ele>
        <time>2015-11-29T09:50:23.000Z</time>
      </trkpt>
      <trkpt lat="47.54836" lon="6.67542">
        <ele>419</ele>
        <time>2015-11-29T09:50:24.000Z</time>
      </trkpt>
      <trkpt lat="47.54839" lon="6.67542">
        <ele>419</ele>
        <time>2015-11-29T09:50:25.000Z</time>
      </trkpt>
      <trkpt lat="47.54843" lon="6.67544">
        <ele>419</ele>
        <time>2015-11-29T09:50:26.000Z</time>
      </trkpt>
      <trkpt lat="47.54846" lon="6.67545">
        <ele>420</ele>
        <time>2015-11-29T09:50:27.000Z</time>
      </trkpt>
      <trkpt lat="47.54849" lon="6.67546">
        <ele>420</ele>
        <time>2015-11-29T09:50:28.000Z</time>
      </trkpt>
      <trkpt lat="47.54852" lon="6.67547">
        <ele>420</ele>
        <time>2015-11-29T09:50:29.000Z</time>
      </trkpt>
      <trkpt lat="47.54855" lon="6.67547">
        <ele>420</ele>
        <time>2015-11-29T09:50:30.000Z</time>
      </trkpt>
      <trkpt lat="47.54858" lon="6.67547">
        <ele>420</ele>
        <time>2015-11-29T09:50:31.000Z</time>
      </trkpt>
      <trkpt lat="47.54862" lon="6.67547">
        <ele>420</ele>
        <time>2015-11-29T09:50:32.000Z</time>
      </trkpt>
      <trkpt lat="47.54864" lon="6.67547">
        <ele>420</ele>
        <time>2015-11-29T09:50:33.000Z</time>
      </trkpt>
      <trkpt lat="47.54867" lon="6.67546">
        <ele>420</ele>
        <time>2015-11-29T09:50:34.000Z</time>
      </trkpt>
      <trkpt lat="47.5487" lon="6.67546">
        <ele>420</ele>
        <time>2015-11-29T09:50:35.000Z</time>
      </trkpt>
      <trkpt lat="47.54872" lon="6.67545">
        <ele>420</ele>
        <time>2015-11-29T09:50:36.000Z</time>
      </trkpt>
      <trkpt lat="47.54876" lon="6.67545">
        <ele>420</ele>
        <time>2015-11-29T09:50:37.000Z</time>
      </trkpt>
      <trkpt lat="47.5488" lon="6.67544">
        <ele>420</ele>
        <time>2015-11-29T09:50:38.000Z</time>
      </trkpt>
      <trkpt lat="47.54883" lon="6.67544">
        <ele>420</ele>
        <time>2015-11-29T09:50:39.000Z</time>
      </trkpt>
      <trkpt lat="47.54886" lon="6.67543">
        <ele>420</ele>
        <time>2015-11-29T09:50:40.000Z</time>
      </trkpt>
      <trkpt lat="47.54888" lon="6.67544">
        <ele>421</ele>
        <time>2015-11-29T09:50:41.000Z</time>
      </trkpt>
      <trkpt lat="47.5489" lon="6.67545">
        <ele>421</ele>
        <time>2015-11-29T09:50:42.000Z</time>
      </trkpt>
      <trkpt lat="47.54892" lon="6.67547">
        <ele>421</ele>
        <time>2015-11-29T09:50:43.000Z</time>
      </trkpt>
      <trkpt lat="47.54894" lon="6.67548">
        <ele>421</ele>
        <time>2015-11-29T09:50:44.000Z</time>
      </trkpt>
      <trkpt lat="47.54897" lon="6.67549">
        <ele>421</ele>
        <time>2015-11-29T09:50:45.000Z</time>
      </trkpt>
      <trkpt lat="47.549" lon="6.67549">
        <ele>421</ele>
        <time>2015-11-29T09:50:46.000Z</time>
      </trkpt>
      <trkpt lat="47.54903" lon="6.6755">
        <ele>422</ele>
        <time>2015-11-29T09:50:47.000Z</time>
      </trkpt>
      <trkpt lat="47.54907" lon="6.67551">
        <ele>422</ele>
        <time>2015-11-29T09:50:49.000Z</time>
      </trkpt>
      <trkpt lat="47.54909" lon="6.67551">
        <ele>422</ele>
        <time>2015-11-29T09:50:50.000Z</time>
      </trkpt>
      <trkpt lat="47.54911" lon="6.67551">
        <ele>422</ele>
        <time>2015-11-29T09:50:51.000Z</time>
      </trkpt>
      <trkpt lat="47.54914" lon="6.67551">
        <ele>422</ele>
        <time>2015-11-29T09:50:52.000Z</time>
      </trkpt>
      <trkpt lat="47.54917" lon="6.6755">
        <ele>424</ele>
        <time>2015-11-29T09:50:53.000Z</time>
      </trkpt>
      <trkpt lat="47.5492" lon="6.67549">
        <ele>424</ele>
        <time>2015-11-29T09:50:54.000Z</time>
      </trkpt>
      <trkpt lat="47.54923" lon="6.67549">
        <ele>424</ele>
        <time>2015-11-29T09:50:55.000Z</time>
      </trkpt>
      <trkpt lat="47.54934" lon="6.67549">
        <ele>424</ele>
        <time>2015-11-29T09:50:56.000Z</time>
      </trkpt>
      <trkpt lat="47.54938" lon="6.67547">
        <ele>424</ele>
        <time>2015-11-29T09:50:57.000Z</time>
      </trkpt>
      <trkpt lat="47.54942" lon="6.67548">
        <ele>424</ele>
        <time>2015-11-29T09:50:58.000Z</time>
      </trkpt>
      <trkpt lat="47.54946" lon="6.6755">
        <ele>424</ele>
        <time>2015-11-29T09:50:59.000Z</time>
      </trkpt>
      <trkpt lat="47.54949" lon="6.67551">
        <ele>424</ele>
        <time>2015-11-29T09:51:00.000Z</time>
      </trkpt>
      <trkpt lat="47.54954" lon="6.67554">
        <ele>425</ele>
        <time>2015-11-29T09:51:01.000Z</time>
      </trkpt>
      <trkpt lat="47.54958" lon="6.67556">
        <ele>425</ele>
        <time>2015-11-29T09:51:02.000Z</time>
      </trkpt>
      <trkpt lat="47.54962" lon="6.67557">
        <ele>425</ele>
        <time>2015-11-29T09:51:03.000Z</time>
      </trkpt>
      <trkpt lat="47.54967" lon="6.67558">
        <ele>425</ele>
        <time>2015-11-29T09:51:04.000Z</time>
      </trkpt>
      <trkpt lat="47.54971" lon="6.67557">
        <ele>425</ele>
        <time>2015-11-29T09:51:05.000Z</time>
      </trkpt>
      <trkpt lat="47.54975" lon="6.67559">
        <ele>426</ele>
        <time>2015-11-29T09:51:06.000Z</time>
      </trkpt>
      <trkpt lat="47.54978" lon="6.67559">
        <ele>426</ele>
        <time>2015-11-29T09:51:07.000Z</time>
      </trkpt>
      <trkpt lat="47.54981" lon="6.6756">
        <ele>426</ele>
        <time>2015-11-29T09:51:08.000Z</time>
      </trkpt>
      <trkpt lat="47.54984" lon="6.6756">
        <ele>426</ele>
        <time>2015-11-29T09:51:09.000Z</time>
      </trkpt>
      <trkpt lat="47.54987" lon="6.6756">
        <ele>427</ele>
        <time>2015-11-29T09:51:10.000Z</time>
      </trkpt>
      <trkpt lat="47.5499" lon="6.6756">
        <ele>427</ele>
        <time>2015-11-29T09:51:11.000Z</time>
      </trkpt>
      <trkpt lat="47.54993" lon="6.67559">
        <ele>427</ele>
        <time>2015-11-29T09:51:12.000Z</time>
      </trkpt>
      <trkpt lat="47.54996" lon="6.67558">
        <ele>427</ele>
        <time>2015-11-29T09:51:13.000Z</time>
      </trkpt>
      <trkpt lat="47.54999" lon="6.67558">
        <ele>427</ele>
        <time>2015-11-29T09:51:14.000Z</time>
      </trkpt>
      <trkpt lat="47.55003" lon="6.67559">
        <ele>429</ele>
        <time>2015-11-29T09:51:15.000Z</time>
      </trkpt>
      <trkpt lat="47.55006" lon="6.67559">
        <ele>429</ele>
        <time>2015-11-29T09:51:16.000Z</time>
      </trkpt>
      <trkpt lat="47.5501" lon="6.6756">
        <ele>429</ele>
        <time>2015-11-29T09:51:17.000Z</time>
      </trkpt>
      <trkpt lat="47.55013" lon="6.67561">
        <ele>429</ele>
        <time>2015-11-29T09:51:18.000Z</time>
      </trkpt>
      <trkpt lat="47.55016" lon="6.67561">
        <ele>429</ele>
        <time>2015-11-29T09:51:19.000Z</time>
      </trkpt>
      <trkpt lat="47.55019" lon="6.6756">
        <ele>429</ele>
        <time>2015-11-29T09:51:20.000Z</time>
      </trkpt>
      <trkpt lat="47.55022" lon="6.67559">
        <ele>429</ele>
        <time>2015-11-29T09:51:21.000Z</time>
      </trkpt>
      <trkpt lat="47.55025" lon="6.67557">
        <ele>429</ele>
        <time>2015-11-29T09:51:22.000Z</time>
      </trkpt>
      <trkpt lat="47.55028" lon="6.67556">
        <ele>429</ele>
        <time>2015-11-29T09:51:23.000Z</time>
      </trkpt>
      <trkpt lat="47.55032" lon="6.67554">
        <ele>428</ele>
        <time>2015-11-29T09:51:24.000Z</time>
      </trkpt>
      <trkpt lat="47.55036" lon="6.67553">
        <ele>429</ele>
        <time>2015-11-29T09:51:25.000Z</time>
      </trkpt>
      <trkpt lat="47.5504" lon="6.67553">
        <ele>429</ele>
        <time>2015-11-29T09:51:26.000Z</time>
      </trkpt>
      <trkpt lat="47.55043" lon="6.67553">
        <ele>429</ele>
        <time>2015-11-29T09:51:27.000Z</time>
      </trkpt>
      <trkpt lat="47.55047" lon="6.67554">
        <ele>429</ele>
        <time>2015-11-29T09:51:28.000Z</time>
      </trkpt>
      <trkpt lat="47.5505" lon="6.67554">
        <ele>429</ele>
        <time>2015-11-29T09:51:29.000Z</time>
      </trkpt>
      <trkpt lat="47.55053" lon="6.67555">
        <ele>429</ele>
        <time>2015-11-29T09:51:30.000Z</time>
      </trkpt>
      <trkpt lat="47.55057" lon="6.67556">
        <ele>429</ele>
        <time>2015-11-29T09:51:31.000Z</time>
      </trkpt>
      <trkpt lat="47.5506" lon="6.67556">
        <ele>430</ele>
        <time>2015-11-29T09:51:32.000Z</time>
      </trkpt>
      <trkpt lat="47.55064" lon="6.67557">
        <ele>430</ele>
        <time>2015-11-29T09:51:33.000Z</time>
      </trkpt>
      <trkpt lat="47.55068" lon="6.67557">
        <ele>430</ele>
        <time>2015-11-29T09:51:34.000Z</time>
      </trkpt>
      <trkpt lat="47.55072" lon="6.67557">
        <ele>430</ele>
        <time>2015-11-29T09:51:35.000Z</time>
      </trkpt>
      <trkpt lat="47.55077" lon="6.67556">
        <ele>430</ele>
        <time>2015-11-29T09:51:36.000Z</time>
      </trkpt>
      <trkpt lat="47.5508" lon="6.67556">
        <ele>430</ele>
        <time>2015-11-29T09:51:37.000Z</time>
      </trkpt>
      <trkpt lat="47.55084" lon="6.67556">
        <ele>434</ele>
        <time>2015-11-29T09:51:38.000Z</time>
      </trkpt>
      <trkpt lat="47.55088" lon="6.67556">
        <ele>434</ele>
        <time>2015-11-29T09:51:39.000Z</time>
      </trkpt>
      <trkpt lat="47.55091" lon="6.67556">
        <ele>434</ele>
        <time>2015-11-29T09:51:40.000Z</time>
      </trkpt>
      <trkpt lat="47.55095" lon="6.67556">
        <ele>434</ele>
        <time>2015-11-29T09:51:41.000Z</time>
      </trkpt>
      <trkpt lat="47.55099" lon="6.67556">
        <ele>434</ele>
        <time>2015-11-29T09:51:42.000Z</time>
      </trkpt>
      <trkpt lat="47.55104" lon="6.67557">
        <ele>434</ele>
        <time>2015-11-29T09:51:43.000Z</time>
      </trkpt>
      <trkpt lat="47.55109" lon="6.67558">
        <ele>434</ele>
        <time>2015-11-29T09:51:44.000Z</time>
      </trkpt>
      <trkpt lat="47.55113" lon="6.67559">
        <ele>434</ele>
        <time>2015-11-29T09:51:45.000Z</time>
      </trkpt>
      <trkpt lat="47.55118" lon="6.6756">
        <ele>434</ele>
        <time>2015-11-29T09:51:46.000Z</time>
      </trkpt>
      <trkpt lat="47.55123" lon="6.6756">
        <ele>434</ele>
        <time>2015-11-29T09:51:47.000Z</time>
      </trkpt>
      <trkpt lat="47.55127" lon="6.67559">
        <ele>434</ele>
        <time>2015-11-29T09:51:48.000Z</time>
      </trkpt>
      <trkpt lat="47.5513" lon="6.67558">
        <ele>435</ele>
        <time>2015-11-29T09:51:49.000Z</time>
      </trkpt>
      <trkpt lat="47.55134" lon="6.67556">
        <ele>435</ele>
        <time>2015-11-29T09:51:50.000Z</time>
      </trkpt>
      <trkpt lat="47.55136" lon="6.67554">
        <ele>435</ele>
        <time>2015-11-29T09:51:51.000Z</time>
      </trkpt>
      <trkpt lat="47.55139" lon="6.67552">
        <ele>435</ele>
        <time>2015-11-29T09:51:52.000Z</time>
      </trkpt>
      <trkpt lat="47.55141" lon="6.67552">
        <ele>435</ele>
        <time>2015-11-29T09:51:53.000Z</time>
      </trkpt>
      <trkpt lat="47.55144" lon="6.67552">
        <ele>435</ele>
        <time>2015-11-29T09:51:54.000Z</time>
      </trkpt>
      <trkpt lat="47.55148" lon="6.67554">
        <ele>435</ele>
        <time>2015-11-29T09:51:55.000Z</time>
      </trkpt>
      <trkpt lat="47.55151" lon="6.67556">
        <ele>435</ele>
        <time>2015-11-29T09:51:56.000Z</time>
      </trkpt>
      <trkpt lat="47.55155" lon="6.67558">
        <ele>436</ele>
        <time>2015-11-29T09:51:57.000Z</time>
      </trkpt>
      <trkpt lat="47.55158" lon="6.6756">
        <ele>436</ele>
        <time>2015-11-29T09:51:58.000Z</time>
      </trkpt>
      <trkpt lat="47.55161" lon="6.67562">
        <ele>436</ele>
        <time>2015-11-29T09:51:59.000Z</time>
      </trkpt>
      <trkpt lat="47.55164" lon="6.67563">
        <ele>436</ele>
        <time>2015-11-29T09:52:00.000Z</time>
      </trkpt>
      <trkpt lat="47.55167" lon="6.67563">
        <ele>438</ele>
        <time>2015-11-29T09:52:01.001Z</time>
      </trkpt>
      <trkpt lat="47.55171" lon="6.67565">
        <ele>438</ele>
        <time>2015-11-29T09:52:02.000Z</time>
      </trkpt>
      <trkpt lat="47.55175" lon="6.67566">
        <ele>439</ele>
        <time>2015-11-29T09:52:03.000Z</time>
      </trkpt>
      <trkpt lat="47.55179" lon="6.67569">
        <ele>439</ele>
        <time>2015-11-29T09:52:04.000Z</time>
      </trkpt>
      <trkpt lat="47.55182" lon="6.6757">
        <ele>439</ele>
        <time>2015-11-29T09:52:05.000Z</time>
      </trkpt>
      <trkpt lat="47.55185" lon="6.6757">
        <ele>439</ele>
        <time>2015-11-29T09:52:06.000Z</time>
      </trkpt>
      <trkpt lat="47.55188" lon="6.67569">
        <ele>438</ele>
        <time>2015-11-29T09:52:07.000Z</time>
      </trkpt>
      <trkpt lat="47.55191" lon="6.67566">
        <ele>438</ele>
        <time>2015-11-29T09:52:08.000Z</time>
      </trkpt>
      <trkpt lat="47.55199" lon="6.6757">
        <ele>438</ele>
        <time>2015-11-29T09:52:09.000Z</time>
      </trkpt>
      <trkpt lat="47.55203" lon="6.67575">
        <ele>438</ele>
        <time>2015-11-29T09:52:10.000Z</time>
      </trkpt>
      <trkpt lat="47.55207" lon="6.67575">
        <ele>438</ele>
        <time>2015-11-29T09:52:11.000Z</time>
      </trkpt>
      <trkpt lat="47.55208" lon="6.67575">
        <ele>439</ele>
        <time>2015-11-29T09:52:12.000Z</time>
      </trkpt>
      <trkpt lat="47.55211" lon="6.67572">
        <ele>438</ele>
        <time>2015-11-29T09:52:15.001Z</time>
      </trkpt>
      <trkpt lat="47.55217" lon="6.67571">
        <ele>439</ele>
        <time>2015-11-29T09:52:16.000Z</time>
      </trkpt>
      <trkpt lat="47.55223" lon="6.67572">
        <ele>439</ele>
        <time>2015-11-29T09:52:17.000Z</time>
      </trkpt>
      <trkpt lat="47.55226" lon="6.67574">
        <ele>439</ele>
        <time>2015-11-29T09:52:18.000Z</time>
      </trkpt>
      <trkpt lat="47.5523" lon="6.67574">
        <ele>439</ele>
        <time>2015-11-29T09:52:19.000Z</time>
      </trkpt>
      <trkpt lat="47.55232" lon="6.67575">
        <ele>439</ele>
        <time>2015-11-29T09:52:19.998Z</time>
      </trkpt>
      <trkpt lat="47.55235" lon="6.67573">
        <ele>439</ele>
        <time>2015-11-29T09:52:21.000Z</time>
      </trkpt>
      <trkpt lat="47.55238" lon="6.67572">
        <ele>439</ele>
        <time>2015-11-29T09:52:22.000Z</time>
      </trkpt>
      <trkpt lat="47.5524" lon="6.67572">
        <ele>439</ele>
        <time>2015-11-29T09:52:23.000Z</time>
      </trkpt>
      <trkpt lat="47.55244" lon="6.67572">
        <ele>440</ele>
        <time>2015-11-29T09:52:25.000Z</time>
      </trkpt>
      <trkpt lat="47.55246" lon="6.67573">
        <ele>440</ele>
        <time>2015-11-29T09:52:26.000Z</time>
      </trkpt>
      <trkpt lat="47.55248" lon="6.67573">
        <ele>440</ele>
        <time>2015-11-29T09:52:27.000Z</time>
      </trkpt>
      <trkpt lat="47.55251" lon="6.67574">
        <ele>439</ele>
        <time>2015-11-29T09:52:28.000Z</time>
      </trkpt>
      <trkpt lat="47.55253" lon="6.67574">
        <ele>439</ele>
        <time>2015-11-29T09:52:29.000Z</time>
      </trkpt>
      <trkpt lat="47.55256" lon="6.67575">
        <ele>439</ele>
        <time>2015-11-29T09:52:30.000Z</time>
      </trkpt>
      <trkpt lat="47.55259" lon="6.67576">
        <ele>439</ele>
        <time>2015-11-29T09:52:31.000Z</time>
      </trkpt>
      <trkpt lat="47.55262" lon="6.67577">
        <ele>439</ele>
        <time>2015-11-29T09:52:32.000Z</time>
      </trkpt>
      <trkpt lat="47.55264" lon="6.67579">
        <ele>438</ele>
        <time>2015-11-29T09:52:33.000Z</time>
      </trkpt>
      <trkpt lat="47.55266" lon="6.6758">
        <ele>438</ele>
        <time>2015-11-29T09:52:34.000Z</time>
      </trkpt>
      <trkpt lat="47.55268" lon="6.67581">
        <ele>438</ele>
        <time>2015-11-29T09:52:35.000Z</time>
      </trkpt>
      <trkpt lat="47.5527" lon="6.67582">
        <ele>438</ele>
        <time>2015-11-29T09:52:36.000Z</time>
      </trkpt>
      <trkpt lat="47.55273" lon="6.67584">
        <ele>445</ele>
        <time>2015-11-29T09:52:37.000Z</time>
      </trkpt>
      <trkpt lat="47.55275" lon="6.67585">
        <ele>445</ele>
        <time>2015-11-29T09:52:38.000Z</time>
      </trkpt>
      <trkpt lat="47.55278" lon="6.67586">
        <ele>446</ele>
        <time>2015-11-29T09:52:39.000Z</time>
      </trkpt>
      <trkpt lat="47.55281" lon="6.67586">
        <ele>446</ele>
        <time>2015-11-29T09:52:40.000Z</time>
      </trkpt>
      <trkpt lat="47.55284" lon="6.67587">
        <ele>446</ele>
        <time>2015-11-29T09:52:41.000Z</time>
      </trkpt>
      <trkpt lat="47.55287" lon="6.67587">
        <ele>446</ele>
        <time>2015-11-29T09:52:42.000Z</time>
      </trkpt>
      <trkpt lat="47.55289" lon="6.67586">
        <ele>446</ele>
        <time>2015-11-29T09:52:43.000Z</time>
      </trkpt>
      <trkpt lat="47.55292" lon="6.67585">
        <ele>446</ele>
        <time>2015-11-29T09:52:44.000Z</time>
      </trkpt>
      <trkpt lat="47.55294" lon="6.67586">
        <ele>445</ele>
        <time>2015-11-29T09:52:45.000Z</time>
      </trkpt>
      <trkpt lat="47.55296" lon="6.67587">
        <ele>445</ele>
        <time>2015-11-29T09:52:46.000Z</time>
      </trkpt>
      <trkpt lat="47.55299" lon="6.67589">
        <ele>445</ele>
        <time>2015-11-29T09:52:47.000Z</time>
      </trkpt>
      <trkpt lat="47.55301" lon="6.6759">
        <ele>445</ele>
        <time>2015-11-29T09:52:48.000Z</time>
      </trkpt>
      <trkpt lat="47.55304" lon="6.67591">
        <ele>445</ele>
        <time>2015-11-29T09:52:49.000Z</time>
      </trkpt>
      <trkpt lat="47.55306" lon="6.67592">
        <ele>445</ele>
        <time>2015-11-29T09:52:50.000Z</time>
      </trkpt>
      <trkpt lat="47.55309" lon="6.67593">
        <ele>445</ele>
        <time>2015-11-29T09:52:51.000Z</time>
      </trkpt>
      <trkpt lat="47.55312" lon="6.67595">
        <ele>445</ele>
        <time>2015-11-29T09:52:52.000Z</time>
      </trkpt>
      <trkpt lat="47.55315" lon="6.67597">
        <ele>444</ele>
        <time>2015-11-29T09:52:53.000Z</time>
      </trkpt>
      <trkpt lat="47.55318" lon="6.67599">
        <ele>444</ele>
        <time>2015-11-29T09:52:54.000Z</time>
      </trkpt>
      <trkpt lat="47.55321" lon="6.676">
        <ele>444</ele>
        <time>2015-11-29T09:52:55.000Z</time>
      </trkpt>
      <trkpt lat="47.55325" lon="6.676">
        <ele>444</ele>
        <time>2015-11-29T09:52:56.000Z</time>
      </trkpt>
      <trkpt lat="47.55328" lon="6.676">
        <ele>444</ele>
        <time>2015-11-29T09:52:57.000Z</time>
      </trkpt>
      <trkpt lat="47.55332" lon="6.67601">
        <ele>443</ele>
        <time>2015-11-29T09:52:58.000Z</time>
      </trkpt>
      <trkpt lat="47.55335" lon="6.67601">
        <ele>444</ele>
        <time>2015-11-29T09:52:59.000Z</time>
      </trkpt>
      <trkpt lat="47.55338" lon="6.67601">
        <ele>445</ele>
        <time>2015-11-29T09:53:00.000Z</time>
      </trkpt>
      <trkpt lat="47.55341" lon="6.67601">
        <ele>445</ele>
        <time>2015-11-29T09:53:01.000Z</time>
      </trkpt>
      <trkpt lat="47.55343" lon="6.67601">
        <ele>445</ele>
        <time>2015-11-29T09:53:02.000Z</time>
      </trkpt>
      <trkpt lat="47.55347" lon="6.67601">
        <ele>445</ele>
        <time>2015-11-29T09:53:04.000Z</time>
      </trkpt>
      <trkpt lat="47.55349" lon="6.67602">
        <ele>446</ele>
        <time>2015-11-29T09:53:05.000Z</time>
      </trkpt>
      <trkpt lat="47.55351" lon="6.67602">
        <ele>446</ele>
        <time>2015-11-29T09:53:06.000Z</time>
      </trkpt>
      <trkpt lat="47.55354" lon="6.67603">
        <ele>447</ele>
        <time>2015-11-29T09:53:07.000Z</time>
      </trkpt>
      <trkpt lat="47.55357" lon="6.67604">
        <ele>447</ele>
        <time>2015-11-29T09:53:08.000Z</time>
      </trkpt>
      <trkpt lat="47.5536" lon="6.67604">
        <ele>448</ele>
        <time>2015-11-29T09:53:09.000Z</time>
      </trkpt>
      <trkpt lat="47.55363" lon="6.67605">
        <ele>448</ele>
        <time>2015-11-29T09:53:10.000Z</time>
      </trkpt>
      <trkpt lat="47.55366" lon="6.67606">
        <ele>448</ele>
        <time>2015-11-29T09:53:11.000Z</time>
      </trkpt>
      <trkpt lat="47.55369" lon="6.67608">
        <ele>449</ele>
        <time>2015-11-29T09:53:12.000Z</time>
      </trkpt>
      <trkpt lat="47.55372" lon="6.67609">
        <ele>449</ele>
        <time>2015-11-29T09:53:13.000Z</time>
      </trkpt>
      <trkpt lat="47.55375" lon="6.6761">
        <ele>449</ele>
        <time>2015-11-29T09:53:14.000Z</time>
      </trkpt>
      <trkpt lat="47.55378" lon="6.67611">
        <ele>450</ele>
        <time>2015-11-29T09:53:15.000Z</time>
      </trkpt>
      <trkpt lat="47.55381" lon="6.67611">
        <ele>450</ele>
        <time>2015-11-29T09:53:16.000Z</time>
      </trkpt>
      <trkpt lat="47.55385" lon="6.67612">
        <ele>450</ele>
        <time>2015-11-29T09:53:17.000Z</time>
      </trkpt>
      <trkpt lat="47.55388" lon="6.67612">
        <ele>450</ele>
        <time>2015-11-29T09:53:18.000Z</time>
      </trkpt>
      <trkpt lat="47.55392" lon="6.67612">
        <ele>450</ele>
        <time>2015-11-29T09:53:19.000Z</time>
      </trkpt>
      <trkpt lat="47.55395" lon="6.67612">
        <ele>450</ele>
        <time>2015-11-29T09:53:20.000Z</time>
      </trkpt>
      <trkpt lat="47.55398" lon="6.67612">
        <ele>450</ele>
        <time>2015-11-29T09:53:21.000Z</time>
      </trkpt>
      <trkpt lat="47.55401" lon="6.67613">
        <ele>450</ele>
        <time>2015-11-29T09:53:22.000Z</time>
      </trkpt>
      <trkpt lat="47.55403" lon="6.67614">
        <ele>450</ele>
        <time>2015-11-29T09:53:23.000Z</time>
      </trkpt>
      <trkpt lat="47.55406" lon="6.67615">
        <ele>451</ele>
        <time>2015-11-29T09:53:24.000Z</time>
      </trkpt>
      <trkpt lat="47.55409" lon="6.67615">
        <ele>451</ele>
        <time>2015-11-29T09:53:25.000Z</time>
      </trkpt>
      <trkpt lat="47.55412" lon="6.67616">
        <ele>451</ele>
        <time>2015-11-29T09:53:26.000Z</time>
      </trkpt>
      <trkpt lat="47.55415" lon="6.67616">
        <ele>451</ele>
        <time>2015-11-29T09:53:27.000Z</time>
      </trkpt>
      <trkpt lat="47.55417" lon="6.67616">
        <ele>455</ele>
        <time>2015-11-29T09:53:28.000Z</time>
      </trkpt>
      <trkpt lat="47.55419" lon="6.67615">
        <ele>455</ele>
        <time>2015-11-29T09:53:29.000Z</time>
      </trkpt>
      <trkpt lat="47.55422" lon="6.67613">
        <ele>455</ele>
        <time>2015-11-29T09:53:30.000Z</time>
      </trkpt>
      <trkpt lat="47.55425" lon="6.67612">
        <ele>455</ele>
        <time>2015-11-29T09:53:31.000Z</time>
      </trkpt>
      <trkpt lat="47.55428" lon="6.6761">
        <ele>455</ele>
        <time>2015-11-29T09:53:32.000Z</time>
      </trkpt>
      <trkpt lat="47.55431" lon="6.67609">
        <ele>455</ele>
        <time>2015-11-29T09:53:33.000Z</time>
      </trkpt>
      <trkpt lat="47.55433" lon="6.67607">
        <ele>455</ele>
        <time>2015-11-29T09:53:34.000Z</time>
      </trkpt>
      <trkpt lat="47.55436" lon="6.67606">
        <ele>455</ele>
        <time>2015-11-29T09:53:35.000Z</time>
      </trkpt>
      <trkpt lat="47.55439" lon="6.67604">
        <ele>455</ele>
        <time>2015-11-29T09:53:37.000Z</time>
      </trkpt>
      <trkpt lat="47.5544" lon="6.67603">
        <ele>455</ele>
        <time>2015-11-29T09:53:38.000Z</time>
      </trkpt>
      <trkpt lat="47.55444" lon="6.67601">
        <ele>455</ele>
        <time>2015-11-29T09:53:40.000Z</time>
      </trkpt>
      <trkpt lat="47.55446" lon="6.67599">
        <ele>455</ele>
        <time>2015-11-29T09:53:41.000Z</time>
      </trkpt>
      <trkpt lat="47.55448" lon="6.67597">
        <ele>455</ele>
        <time>2015-11-29T09:53:42.000Z</time>
      </trkpt>
      <trkpt lat="47.55451" lon="6.67595">
        <ele>456</ele>
        <time>2015-11-29T09:53:43.000Z</time>
      </trkpt>
      <trkpt lat="47.55453" lon="6.67594">
        <ele>456</ele>
        <time>2015-11-29T09:53:44.000Z</time>
      </trkpt>
      <trkpt lat="47.55455" lon="6.67592">
        <ele>456</ele>
        <time>2015-11-29T09:53:45.000Z</time>
      </trkpt>
      <trkpt lat="47.55459" lon="6.67589">
        <ele>456</ele>
        <time>2015-11-29T09:53:48.000Z</time>
      </trkpt>
      <trkpt lat="47.5546" lon="6.67589">
        <ele>456</ele>
        <time>2015-11-29T09:53:49.000Z</time>
      </trkpt>
      <trkpt lat="47.55462" lon="6.67585">
        <ele>456</ele>
        <time>2015-11-29T09:53:52.000Z</time>
      </trkpt>
      <trkpt lat="47.55463" lon="6.67583">
        <ele>451</ele>
        <time>2015-11-29T09:53:53.000Z</time>
      </trkpt>
      <trkpt lat="47.55465" lon="6.67581">
        <ele>452</ele>
        <time>2015-11-29T09:53:55.000Z</time>
      </trkpt>
      <trkpt lat="47.55467" lon="6.67581">
        <ele>452</ele>
        <time>2015-11-29T09:53:56.000Z</time>
      </trkpt>
      <trkpt lat="47.55471" lon="6.67582">
        <ele>452</ele>
        <time>2015-11-29T09:53:58.000Z</time>
      </trkpt>
      <trkpt lat="47.55473" lon="6.67583">
        <ele>452</ele>
        <time>2015-11-29T09:53:59.000Z</time>
      </trkpt>
      <trkpt lat="47.55477" lon="6.67581">
        <ele>453</ele>
        <time>2015-11-29T09:54:02.000Z</time>
      </trkpt>
      <trkpt lat="47.55478" lon="6.6758">
        <ele>453</ele>
        <time>2015-11-29T09:54:03.000Z</time>
      </trkpt>
      <trkpt lat="47.55481" lon="6.67576">
        <ele>453</ele>
        <time>2015-11-29T09:54:09.000Z</time>
      </trkpt>
      <trkpt lat="47.55482" lon="6.67575">
        <ele>454</ele>
        <time>2015-11-29T09:54:10.000Z</time>
      </trkpt>
      <trkpt lat="47.55486" lon="6.67572">
        <ele>454</ele>
        <time>2015-11-29T09:54:12.000Z</time>
      </trkpt>
      <trkpt lat="47.55487" lon="6.67571">
        <ele>454</ele>
        <time>2015-11-29T09:54:13.000Z</time>
      </trkpt>
      <trkpt lat="47.5549" lon="6.6757">
        <ele>454</ele>
        <time>2015-11-29T09:54:14.000Z</time>
      </trkpt>
      <trkpt lat="47.55492" lon="6.6757">
        <ele>454</ele>
        <time>2015-11-29T09:54:15.000Z</time>
      </trkpt>
      <trkpt lat="47.55494" lon="6.67568">
        <ele>454</ele>
        <time>2015-11-29T09:54:16.000Z</time>
      </trkpt>
      <trkpt lat="47.55497" lon="6.67567">
        <ele>454</ele>
        <time>2015-11-29T09:54:17.000Z</time>
      </trkpt>
      <trkpt lat="47.55499" lon="6.67566">
        <ele>454</ele>
        <time>2015-11-29T09:54:18.000Z</time>
      </trkpt>
      <trkpt lat="47.55501" lon="6.67564">
        <ele>458</ele>
        <time>2015-11-29T09:54:19.000Z</time>
      </trkpt>
      <trkpt lat="47.55503" lon="6.67563">
        <ele>458</ele>
        <time>2015-11-29T09:54:20.000Z</time>
      </trkpt>
      <trkpt lat="47.55505" lon="6.67561">
        <ele>458</ele>
        <time>2015-11-29T09:54:21.000Z</time>
      </trkpt>
      <trkpt lat="47.55507" lon="6.67558">
        <ele>458</ele>
        <time>2015-11-29T09:54:22.000Z</time>
      </trkpt>
      <trkpt lat="47.55509" lon="6.67555">
        <ele>458</ele>
        <time>2015-11-29T09:54:23.000Z</time>
      </trkpt>
      <trkpt lat="47.55512" lon="6.67553">
        <ele>458</ele>
        <time>2015-11-29T09:54:25.000Z</time>
      </trkpt>
      <trkpt lat="47.55514" lon="6.67552">
        <ele>458</ele>
        <time>2015-11-29T09:54:26.000Z</time>
      </trkpt>
      <trkpt lat="47.55517" lon="6.67551">
        <ele>458</ele>
        <time>2015-11-29T09:54:28.000Z</time>
      </trkpt>
      <trkpt lat="47.55519" lon="6.6755">
        <ele>458</ele>
        <time>2015-11-29T09:54:29.000Z</time>
      </trkpt>
      <trkpt lat="47.55522" lon="6.67547">
        <ele>458</ele>
        <time>2015-11-29T09:54:31.000Z</time>
      </trkpt>
      <trkpt lat="47.55524" lon="6.67546">
        <ele>458</ele>
        <time>2015-11-29T09:54:32.000Z</time>
      </trkpt>
      <trkpt lat="47.55527" lon="6.67544">
        <ele>458</ele>
        <time>2015-11-29T09:54:34.000Z</time>
      </trkpt>
      <trkpt lat="47.55528" lon="6.67542">
        <ele>458</ele>
        <time>2015-11-29T09:54:35.000Z</time>
      </trkpt>
      <trkpt lat="47.5553" lon="6.67536">
        <ele>458</ele>
        <time>2015-11-29T09:54:38.000Z</time>
      </trkpt>
      <trkpt lat="47.5553" lon="6.67533">
        <ele>458</ele>
        <time>2015-11-29T09:54:39.000Z</time>
      </trkpt>
      <trkpt lat="47.55531" lon="6.6753">
        <ele>458</ele>
        <time>2015-11-29T09:54:40.000Z</time>
      </trkpt>
      <trkpt lat="47.55532" lon="6.67526">
        <ele>459</ele>
        <time>2015-11-29T09:54:41.000Z</time>
      </trkpt>
      <trkpt lat="47.55532" lon="6.67523">
        <ele>459</ele>
        <time>2015-11-29T09:54:42.000Z</time>
      </trkpt>
      <trkpt lat="47.55532" lon="6.67519">
        <ele>459</ele>
        <time>2015-11-29T09:54:43.000Z</time>
      </trkpt>
      <trkpt lat="47.55532" lon="6.67515">
        <ele>459</ele>
        <time>2015-11-29T09:54:44.000Z</time>
      </trkpt>
      <trkpt lat="47.55533" lon="6.67511">
        <ele>459</ele>
        <time>2015-11-29T09:54:45.000Z</time>
      </trkpt>
      <trkpt lat="47.55533" lon="6.67508">
        <ele>459</ele>
        <time>2015-11-29T09:54:46.000Z</time>
      </trkpt>
      <trkpt lat="47.55534" lon="6.67504">
        <ele>459</ele>
        <time>2015-11-29T09:54:47.000Z</time>
      </trkpt>
      <trkpt lat="47.55536" lon="6.67499">
        <ele>461</ele>
        <time>2015-11-29T09:54:49.000Z</time>
      </trkpt>
      <trkpt lat="47.55537" lon="6.67496">
        <ele>461</ele>
        <time>2015-11-29T09:54:50.000Z</time>
      </trkpt>
      <trkpt lat="47.55539" lon="6.6749">
        <ele>462</ele>
        <time>2015-11-29T09:54:52.000Z</time>
      </trkpt>
      <trkpt lat="47.55539" lon="6.67486">
        <ele>462</ele>
        <time>2015-11-29T09:54:53.000Z</time>
      </trkpt>
      <trkpt lat="47.5554" lon="6.67483">
        <ele>462</ele>
        <time>2015-11-29T09:54:54.000Z</time>
      </trkpt>
      <trkpt lat="47.55541" lon="6.6748">
        <ele>462</ele>
        <time>2015-11-29T09:54:55.000Z</time>
      </trkpt>
      <trkpt lat="47.55541" lon="6.67473">
        <ele>462</ele>
        <time>2015-11-29T09:54:57.000Z</time>
      </trkpt>
      <trkpt lat="47.55542" lon="6.6747">
        <ele>462</ele>
        <time>2015-11-29T09:54:58.000Z</time>
      </trkpt>
      <trkpt lat="47.55543" lon="6.67465">
        <ele>463</ele>
        <time>2015-11-29T09:55:00.000Z</time>
      </trkpt>
      <trkpt lat="47.55544" lon="6.67462">
        <ele>463</ele>
        <time>2015-11-29T09:55:01.000Z</time>
      </trkpt>
      <trkpt lat="47.55546" lon="6.67458">
        <ele>463</ele>
        <time>2015-11-29T09:55:03.000Z</time>
      </trkpt>
      <trkpt lat="47.55547" lon="6.67455">
        <ele>463</ele>
        <time>2015-11-29T09:55:04.000Z</time>
      </trkpt>
      <trkpt lat="47.55551" lon="6.67451">
        <ele>464</ele>
        <time>2015-11-29T09:55:06.000Z</time>
      </trkpt>
      <trkpt lat="47.55552" lon="6.67448">
        <ele>464</ele>
        <time>2015-11-29T09:55:07.000Z</time>
      </trkpt>
      <trkpt lat="47.55554" lon="6.67443">
        <ele>464</ele>
        <time>2015-11-29T09:55:09.000Z</time>
      </trkpt>
      <trkpt lat="47.55554" lon="6.67441">
        <ele>464</ele>
        <time>2015-11-29T09:55:10.000Z</time>
      </trkpt>
      <trkpt lat="47.55556" lon="6.67435">
        <ele>465</ele>
        <time>2015-11-29T09:55:13.000Z</time>
      </trkpt>
      <trkpt lat="47.55557" lon="6.67433">
        <ele>465</ele>
        <time>2015-11-29T09:55:14.000Z</time>
      </trkpt>
      <trkpt lat="47.55558" lon="6.67428">
        <ele>466</ele>
        <time>2015-11-29T09:55:19.000Z</time>
      </trkpt>
      <trkpt lat="47.55559" lon="6.67427">
        <ele>466</ele>
        <time>2015-11-29T09:55:20.000Z</time>
      </trkpt>
      <trkpt lat="47.55562" lon="6.67424">
        <ele>466</ele>
        <time>2015-11-29T09:55:24.000Z</time>
      </trkpt>
      <trkpt lat="47.55563" lon="6.67423">
        <ele>467</ele>
        <time>2015-11-29T09:55:25.000Z</time>
      </trkpt>
      <trkpt lat="47.55567" lon="6.67422">
        <ele>467</ele>
        <time>2015-11-29T09:55:28.000Z</time>
      </trkpt>
      <trkpt lat="47.55568" lon="6.67421">
        <ele>468</ele>
        <time>2015-11-29T09:55:29.000Z</time>
      </trkpt>
      <trkpt lat="47.55571" lon="6.67417">
        <ele>468</ele>
        <time>2015-11-29T09:55:33.000Z</time>
      </trkpt>
      <trkpt lat="47.55572" lon="6.67416">
        <ele>471</ele>
        <time>2015-11-29T09:55:34.000Z</time>
      </trkpt>
      <trkpt lat="47.55575" lon="6.67412">
        <ele>471</ele>
        <time>2015-11-29T09:55:37.000Z</time>
      </trkpt>
      <trkpt lat="47.55576" lon="6.67411">
        <ele>471</ele>
        <time>2015-11-29T09:55:38.000Z</time>
      </trkpt>
      <trkpt lat="47.55578" lon="6.67405">
        <ele>471</ele>
        <time>2015-11-29T09:55:41.000Z</time>
      </trkpt>
      <trkpt lat="47.55578" lon="6.67404">
        <ele>471</ele>
        <time>2015-11-29T09:55:42.000Z</time>
      </trkpt>
      <trkpt lat="47.5558" lon="6.67398">
        <ele>470</ele>
        <time>2015-11-29T09:55:46.000Z</time>
      </trkpt>
      <trkpt lat="47.55581" lon="6.67397">
        <ele>470</ele>
        <time>2015-11-29T09:55:47.000Z</time>
      </trkpt>
      <trkpt lat="47.55582" lon="6.67392">
        <ele>470</ele>
        <time>2015-11-29T09:55:50.000Z</time>
      </trkpt>
      <trkpt lat="47.55582" lon="6.6739">
        <ele>470</ele>
        <time>2015-11-29T09:55:51.000Z</time>
      </trkpt>
      <trkpt lat="47.55586" lon="6.67385">
        <ele>472</ele>
        <time>2015-11-29T09:55:56.000Z</time>
      </trkpt>
      <trkpt lat="47.55587" lon="6.67384">
        <ele>472</ele>
        <time>2015-11-29T09:55:57.000Z</time>
      </trkpt>
      <trkpt lat="47.55587" lon="6.67379">
        <ele>472</ele>
        <time>2015-11-29T09:55:59.000Z</time>
      </trkpt>
      <trkpt lat="47.55588" lon="6.67376">
        <ele>472</ele>
        <time>2015-11-29T09:56:00.000Z</time>
      </trkpt>
      <trkpt lat="47.55588" lon="6.67372">
        <ele>473</ele>
        <time>2015-11-29T09:56:02.000Z</time>
      </trkpt>
      <trkpt lat="47.55589" lon="6.6737">
        <ele>473</ele>
        <time>2015-11-29T09:56:03.000Z</time>
      </trkpt>
      <trkpt lat="47.5559" lon="6.67363">
        <ele>473</ele>
        <time>2015-11-29T09:56:06.000Z</time>
      </trkpt>
      <trkpt lat="47.5559" lon="6.67361">
        <ele>473</ele>
        <time>2015-11-29T09:56:07.000Z</time>
      </trkpt>
      <trkpt lat="47.55591" lon="6.67355">
        <ele>474</ele>
        <time>2015-11-29T09:56:10.000Z</time>
      </trkpt>
      <trkpt lat="47.55592" lon="6.67354">
        <ele>474</ele>
        <time>2015-11-29T09:56:11.000Z</time>
      </trkpt>
      <trkpt lat="47.55593" lon="6.67349">
        <ele>474</ele>
        <time>2015-11-29T09:56:15.000Z</time>
      </trkpt>
      <trkpt lat="47.55593" lon="6.67347">
        <ele>474</ele>
        <time>2015-11-29T09:56:16.000Z</time>
      </trkpt>
      <trkpt lat="47.55593" lon="6.67341">
        <ele>475</ele>
        <time>2015-11-29T09:56:19.000Z</time>
      </trkpt>
      <trkpt lat="47.55593" lon="6.6734">
        <ele>475</ele>
        <time>2015-11-29T09:56:20.000Z</time>
      </trkpt>
      <trkpt lat="47.55597" lon="6.67336">
        <ele>475</ele>
        <time>2015-11-29T09:56:24.000Z</time>
      </trkpt>
      <trkpt lat="47.55598" lon="6.67335">
        <ele>475</ele>
        <time>2015-11-29T09:56:25.000Z</time>
      </trkpt>
      <trkpt lat="47.556" lon="6.6733">
        <ele>479</ele>
        <time>2015-11-29T09:56:29.000Z</time>
      </trkpt>
      <trkpt lat="47.556" lon="6.67329">
        <ele>479</ele>
        <time>2015-11-29T09:56:30.000Z</time>
      </trkpt>
      <trkpt lat="47.55603" lon="6.67326">
        <ele>479</ele>
        <time>2015-11-29T09:56:33.000Z</time>
      </trkpt>
      <trkpt lat="47.55604" lon="6.67325">
        <ele>479</ele>
        <time>2015-11-29T09:56:34.000Z</time>
      </trkpt>
      <trkpt lat="47.55607" lon="6.67322">
        <ele>480</ele>
        <time>2015-11-29T09:56:37.000Z</time>
      </trkpt>
      <trkpt lat="47.55607" lon="6.6732">
        <ele>480</ele>
        <time>2015-11-29T09:56:38.000Z</time>
      </trkpt>
      <trkpt lat="47.55608" lon="6.67314">
        <ele>480</ele>
        <time>2015-11-29T09:56:41.000Z</time>
      </trkpt>
      <trkpt lat="47.55609" lon="6.67313">
        <ele>480</ele>
        <time>2015-11-29T09:56:42.000Z</time>
      </trkpt>
      <trkpt lat="47.55611" lon="6.67309">
        <ele>480</ele>
        <time>2015-11-29T09:56:45.000Z</time>
      </trkpt>
      <trkpt lat="47.55612" lon="6.67308">
        <ele>480</ele>
        <time>2015-11-29T09:56:46.000Z</time>
      </trkpt>
      <trkpt lat="47.55614" lon="6.67305">
        <ele>481</ele>
        <time>2015-11-29T09:56:48.000Z</time>
      </trkpt>
      <trkpt lat="47.55615" lon="6.67303">
        <ele>481</ele>
        <time>2015-11-29T09:56:49.000Z</time>
      </trkpt>
      <trkpt lat="47.55617" lon="6.67297">
        <ele>481</ele>
        <time>2015-11-29T09:56:52.000Z</time>
      </trkpt>
      <trkpt lat="47.55618" lon="6.67296">
        <ele>481</ele>
        <time>2015-11-29T09:56:53.000Z</time>
      </trkpt>
      <trkpt lat="47.55621" lon="6.67291">
        <ele>481</ele>
        <time>2015-11-29T09:56:56.000Z</time>
      </trkpt>
      <trkpt lat="47.55622" lon="6.67289">
        <ele>481</ele>
        <time>2015-11-29T09:56:57.000Z</time>
      </trkpt>
      <trkpt lat="47.55623" lon="6.67284">
        <ele>482</ele>
        <time>2015-11-29T09:57:04.000Z</time>
      </trkpt>
      <trkpt lat="47.55623" lon="6.67283">
        <ele>482</ele>
        <time>2015-11-29T09:57:05.000Z</time>
      </trkpt>
      <trkpt lat="47.55626" lon="6.67279">
        <ele>482</ele>
        <time>2015-11-29T09:57:08.000Z</time>
      </trkpt>
      <trkpt lat="47.55627" lon="6.67277">
        <ele>482</ele>
        <time>2015-11-29T09:57:09.000Z</time>
      </trkpt>
      <trkpt lat="47.55629" lon="6.67276">
        <ele>482</ele>
        <time>2015-11-29T09:57:10.000Z</time>
      </trkpt>
      <trkpt lat="47.55632" lon="6.67274">
        <ele>483</ele>
        <time>2015-11-29T09:57:11.000Z</time>
      </trkpt>
      <trkpt lat="47.55635" lon="6.67269">
        <ele>483</ele>
        <time>2015-11-29T09:57:13.000Z</time>
      </trkpt>
      <trkpt lat="47.55636" lon="6.67267">
        <ele>483</ele>
        <time>2015-11-29T09:57:14.000Z</time>
      </trkpt>
      <trkpt lat="47.55638" lon="6.67263">
        <ele>483</ele>
        <time>2015-11-29T09:57:16.000Z</time>
      </trkpt>
      <trkpt lat="47.5564" lon="6.67262">
        <ele>484</ele>
        <time>2015-11-29T09:57:17.000Z</time>
      </trkpt>
      <trkpt lat="47.55643" lon="6.67259">
        <ele>484</ele>
        <time>2015-11-29T09:57:19.000Z</time>
      </trkpt>
      <trkpt lat="47.55644" lon="6.67257">
        <ele>484</ele>
        <time>2015-11-29T09:57:20.000Z</time>
      </trkpt>
      <trkpt lat="47.55648" lon="6.67256">
        <ele>485</ele>
        <time>2015-11-29T09:57:22.000Z</time>
      </trkpt>
      <trkpt lat="47.5565" lon="6.67256">
        <ele>485</ele>
        <time>2015-11-29T09:57:23.000Z</time>
      </trkpt>
      <trkpt lat="47.55654" lon="6.67257">
        <ele>486</ele>
        <time>2015-11-29T09:57:25.000Z</time>
      </trkpt>
      <trkpt lat="47.55656" lon="6.67257">
        <ele>486</ele>
        <time>2015-11-29T09:57:26.000Z</time>
      </trkpt>
      <trkpt lat="47.55658" lon="6.67257">
        <ele>486</ele>
        <time>2015-11-29T09:57:27.000Z</time>
      </trkpt>
      <trkpt lat="47.5566" lon="6.67256">
        <ele>487</ele>
        <time>2015-11-29T09:57:28.000Z</time>
      </trkpt>
      <trkpt lat="47.55664" lon="6.67255">
        <ele>487</ele>
        <time>2015-11-29T09:57:30.000Z</time>
      </trkpt>
      <trkpt lat="47.55667" lon="6.67255">
        <ele>488</ele>
        <time>2015-11-29T09:57:31.000Z</time>
      </trkpt>
      <trkpt lat="47.55671" lon="6.67252">
        <ele>488</ele>
        <time>2015-11-29T09:57:34.000Z</time>
      </trkpt>
      <trkpt lat="47.55672" lon="6.67252">
        <ele>488</ele>
        <time>2015-11-29T09:57:35.000Z</time>
      </trkpt>
      <trkpt lat="47.55675" lon="6.6725">
        <ele>491</ele>
        <time>2015-11-29T09:57:37.000Z</time>
      </trkpt>
      <trkpt lat="47.55677" lon="6.67249">
        <ele>492</ele>
        <time>2015-11-29T09:57:38.000Z</time>
      </trkpt>
      <trkpt lat="47.5568" lon="6.67248">
        <ele>492</ele>
        <time>2015-11-29T09:57:40.000Z</time>
      </trkpt>
      <trkpt lat="47.55682" lon="6.67247">
        <ele>493</ele>
        <time>2015-11-29T09:57:41.000Z</time>
      </trkpt>
      <trkpt lat="47.55685" lon="6.67245">
        <ele>493</ele>
        <time>2015-11-29T09:57:43.000Z</time>
      </trkpt>
      <trkpt lat="47.55687" lon="6.67244">
        <ele>493</ele>
        <time>2015-11-29T09:57:44.000Z</time>
      </trkpt>
      <trkpt lat="47.55689" lon="6.67241">
        <ele>494</ele>
        <time>2015-11-29T09:57:46.000Z</time>
      </trkpt>
      <trkpt lat="47.5569" lon="6.6724">
        <ele>494</ele>
        <time>2015-11-29T09:57:47.000Z</time>
      </trkpt>
      <trkpt lat="47.55694" lon="6.67236">
        <ele>495</ele>
        <time>2015-11-29T09:57:51.000Z</time>
      </trkpt>
      <trkpt lat="47.55695" lon="6.67235">
        <ele>495</ele>
        <time>2015-11-29T09:57:52.000Z</time>
      </trkpt>
      <trkpt lat="47.55698" lon="6.67231">
        <ele>495</ele>
        <time>2015-11-29T09:57:56.000Z</time>
      </trkpt>
      <trkpt lat="47.55699" lon="6.6723">
        <ele>495</ele>
        <time>2015-11-29T09:57:57.000Z</time>
      </trkpt>
      <trkpt lat="47.55703" lon="6.67228">
        <ele>496</ele>
        <time>2015-11-29T09:58:00.000Z</time>
      </trkpt>
      <trkpt lat="47.55705" lon="6.67228">
        <ele>496</ele>
        <time>2015-11-29T09:58:01.000Z</time>
      </trkpt>
      <trkpt lat="47.55709" lon="6.67226">
        <ele>496</ele>
        <time>2015-11-29T09:58:03.000Z</time>
      </trkpt>
      <trkpt lat="47.5571" lon="6.67225">
        <ele>496</ele>
        <time>2015-11-29T09:58:04.000Z</time>
      </trkpt>
      <trkpt lat="47.55713" lon="6.67224">
        <ele>496</ele>
        <time>2015-11-29T09:58:06.000Z</time>
      </trkpt>
      <trkpt lat="47.55715" lon="6.67222">
        <ele>496</ele>
        <time>2015-11-29T09:58:07.000Z</time>
      </trkpt>
      <trkpt lat="47.55718" lon="6.6722">
        <ele>497</ele>
        <time>2015-11-29T09:58:09.000Z</time>
      </trkpt>
      <trkpt lat="47.55719" lon="6.67218">
        <ele>497</ele>
        <time>2015-11-29T09:58:10.000Z</time>
      </trkpt>
      <trkpt lat="47.55722" lon="6.67216">
        <ele>497</ele>
        <time>2015-11-29T09:58:12.000Z</time>
      </trkpt>
      <trkpt lat="47.55723" lon="6.67214">
        <ele>497</ele>
        <time>2015-11-29T09:58:13.000Z</time>
      </trkpt>
      <trkpt lat="47.55727" lon="6.6721">
        <ele>498</ele>
        <time>2015-11-29T09:58:16.000Z</time>
      </trkpt>
      <trkpt lat="47.55728" lon="6.67209">
        <ele>498</ele>
        <time>2015-11-29T09:58:17.000Z</time>
      </trkpt>
      <trkpt lat="47.5573" lon="6.67205">
        <ele>498</ele>
        <time>2015-11-29T09:58:19.000Z</time>
      </trkpt>
      <trkpt lat="47.55731" lon="6.67204">
        <ele>498</ele>
        <time>2015-11-29T09:58:20.000Z</time>
      </trkpt>
      <trkpt lat="47.55735" lon="6.67202">
        <ele>499</ele>
        <time>2015-11-29T09:58:23.000Z</time>
      </trkpt>
      <trkpt lat="47.55736" lon="6.672">
        <ele>499</ele>
        <time>2015-11-29T09:58:24.000Z</time>
      </trkpt>
      <trkpt lat="47.55736" lon="6.67194">
        <ele>499</ele>
        <time>2015-11-29T09:58:28.000Z</time>
      </trkpt>
      <trkpt lat="47.55736" lon="6.67193">
        <ele>500</ele>
        <time>2015-11-29T09:58:29.000Z</time>
      </trkpt>
      <trkpt lat="47.55736" lon="6.67187">
        <ele>500</ele>
        <time>2015-11-29T09:58:32.000Z</time>
      </trkpt>
      <trkpt lat="47.55736" lon="6.67185">
        <ele>500</ele>
        <time>2015-11-29T09:58:33.000Z</time>
      </trkpt>
      <trkpt lat="47.55737" lon="6.6718">
        <ele>501</ele>
        <time>2015-11-29T09:58:39.000Z</time>
      </trkpt>
      <trkpt lat="47.55737" lon="6.67179">
        <ele>501</ele>
        <time>2015-11-29T09:58:40.000Z</time>
      </trkpt>
      <trkpt lat="47.5574" lon="6.67175">
        <ele>502</ele>
        <time>2015-11-29T09:58:43.000Z</time>
      </trkpt>
      <trkpt lat="47.5574" lon="6.67174">
        <ele>503</ele>
        <time>2015-11-29T09:58:44.000Z</time>
      </trkpt>
      <trkpt lat="47.55742" lon="6.67168">
        <ele>503</ele>
        <time>2015-11-29T09:58:47.000Z</time>
      </trkpt>
      <trkpt lat="47.55742" lon="6.67165">
        <ele>506</ele>
        <time>2015-11-29T09:58:48.000Z</time>
      </trkpt>
      <trkpt lat="47.55743" lon="6.67161">
        <ele>506</ele>
        <time>2015-11-29T09:58:50.000Z</time>
      </trkpt>
      <trkpt lat="47.55744" lon="6.67158">
        <ele>506</ele>
        <time>2015-11-29T09:58:51.000Z</time>
      </trkpt>
      <trkpt lat="47.55747" lon="6.67155">
        <ele>506</ele>
        <time>2015-11-29T09:58:54.000Z</time>
      </trkpt>
      <trkpt lat="47.55747" lon="6.67154">
        <ele>506</ele>
        <time>2015-11-29T09:58:55.000Z</time>
      </trkpt>
      <trkpt lat="47.55749" lon="6.6715">
        <ele>506</ele>
        <time>2015-11-29T09:58:57.000Z</time>
      </trkpt>
      <trkpt lat="47.55749" lon="6.67147">
        <ele>506</ele>
        <time>2015-11-29T09:58:58.000Z</time>
      </trkpt>
      <trkpt lat="47.55751" lon="6.67142">
        <ele>506</ele>
        <time>2015-11-29T09:59:00.000Z</time>
      </trkpt>
      <trkpt lat="47.55752" lon="6.67139">
        <ele>506</ele>
        <time>2015-11-29T09:59:01.000Z</time>
      </trkpt>
      <trkpt lat="47.55754" lon="6.67134">
        <ele>506</ele>
        <time>2015-11-29T09:59:03.000Z</time>
      </trkpt>
      <trkpt lat="47.55756" lon="6.67131">
        <ele>506</ele>
        <time>2015-11-29T09:59:04.000Z</time>
      </trkpt>
      <trkpt lat="47.55757" lon="6.67128">
        <ele>506</ele>
        <time>2015-11-29T09:59:05.000Z</time>
      </trkpt>
      <trkpt lat="47.55758" lon="6.67124">
        <ele>507</ele>
        <time>2015-11-29T09:59:06.000Z</time>
      </trkpt>
      <trkpt lat="47.5576" lon="6.67119">
        <ele>507</ele>
        <time>2015-11-29T09:59:08.000Z</time>
      </trkpt>
      <trkpt lat="47.55761" lon="6.67116">
        <ele>507</ele>
        <time>2015-11-29T09:59:09.000Z</time>
      </trkpt>
      <trkpt lat="47.55763" lon="6.67111">
        <ele>507</ele>
        <time>2015-11-29T09:59:11.000Z</time>
      </trkpt>
      <trkpt lat="47.55764" lon="6.67109">
        <ele>507</ele>
        <time>2015-11-29T09:59:12.000Z</time>
      </trkpt>
      <trkpt lat="47.55766" lon="6.67103">
        <ele>507</ele>
        <time>2015-11-29T09:59:15.000Z</time>
      </trkpt>
      <trkpt lat="47.55766" lon="6.67101">
        <ele>507</ele>
        <time>2015-11-29T09:59:16.000Z</time>
      </trkpt>
      <trkpt lat="47.55769" lon="6.67098">
        <ele>507</ele>
        <time>2015-11-29T09:59:18.000Z</time>
      </trkpt>
      <trkpt lat="47.55771" lon="6.67096">
        <ele>507</ele>
        <time>2015-11-29T09:59:19.000Z</time>
      </trkpt>
      <trkpt lat="47.55773" lon="6.67091">
        <ele>507</ele>
        <time>2015-11-29T09:59:21.000Z</time>
      </trkpt>
      <trkpt lat="47.55774" lon="6.67088">
        <ele>507</ele>
        <time>2015-11-29T09:59:22.000Z</time>
      </trkpt>
      <trkpt lat="47.55776" lon="6.67083">
        <ele>505</ele>
        <time>2015-11-29T09:59:24.000Z</time>
      </trkpt>
      <trkpt lat="47.55778" lon="6.67081">
        <ele>505</ele>
        <time>2015-11-29T09:59:25.000Z</time>
      </trkpt>
      <trkpt lat="47.55779" lon="6.67075">
        <ele>504</ele>
        <time>2015-11-29T09:59:27.000Z</time>
      </trkpt>
      <trkpt lat="47.5578" lon="6.67073">
        <ele>504</ele>
        <time>2015-11-29T09:59:28.000Z</time>
      </trkpt>
      <trkpt lat="47.55783" lon="6.67068">
        <ele>504</ele>
        <time>2015-11-29T09:59:31.000Z</time>
      </trkpt>
      <trkpt lat="47.55784" lon="6.67067">
        <ele>504</ele>
        <time>2015-11-29T09:59:32.000Z</time>
      </trkpt>
      <trkpt lat="47.55781" lon="6.67064">
        <ele>504</ele>
        <time>2015-11-29T09:59:40.000Z</time>
      </trkpt>
      <trkpt lat="47.5578" lon="6.67063">
        <ele>504</ele>
        <time>2015-11-29T09:59:41.000Z</time>
      </trkpt>
      <trkpt lat="47.55777" lon="6.67061">
        <ele>504</ele>
        <time>2015-11-29T09:59:44.000Z</time>
      </trkpt>
      <trkpt lat="47.55775" lon="6.6706">
        <ele>504</ele>
        <time>2015-11-29T09:59:45.000Z</time>
      </trkpt>
      <trkpt lat="47.55771" lon="6.67058">
        <ele>504</ele>
        <time>2015-11-29T09:59:48.000Z</time>
      </trkpt>
      <trkpt lat="47.5577" lon="6.67057">
        <ele>504</ele>
        <time>2015-11-29T09:59:49.000Z</time>
      </trkpt>
      <trkpt lat="47.55766" lon="6.67053">
        <ele>504</ele>
        <time>2015-11-29T09:59:52.000Z</time>
      </trkpt>
      <trkpt lat="47.55765" lon="6.67052">
        <ele>504</ele>
        <time>2015-11-29T09:59:53.000Z</time>
      </trkpt>
      <trkpt lat="47.55762" lon="6.67048">
        <ele>504</ele>
        <time>2015-11-29T09:59:55.000Z</time>
      </trkpt>
      <trkpt lat="47.5576" lon="6.67047">
        <ele>504</ele>
        <time>2015-11-29T09:59:56.000Z</time>
      </trkpt>
      <trkpt lat="47.55758" lon="6.67044">
        <ele>504</ele>
        <time>2015-11-29T09:59:57.000Z</time>
      </trkpt>
      <trkpt lat="47.55756" lon="6.67042">
        <ele>504</ele>
        <time>2015-11-29T09:59:58.000Z</time>
      </trkpt>
      <trkpt lat="47.55754" lon="6.6704">
        <ele>504</ele>
        <time>2015-11-29T09:59:59.000Z</time>
      </trkpt>
      <trkpt lat="47.55751" lon="6.67037">
        <ele>504</ele>
        <time>2015-11-29T10:00:00.000Z</time>
      </trkpt>
      <trkpt lat="47.55749" lon="6.67035">
        <ele>508</ele>
        <time>2015-11-29T10:00:01.000Z</time>
      </trkpt>
      <trkpt lat="47.55748" lon="6.67032">
        <ele>508</ele>
        <time>2015-11-29T10:00:02.000Z</time>
      </trkpt>
      <trkpt lat="47.55744" lon="6.67029">
        <ele>508</ele>
        <time>2015-11-29T10:00:04.000Z</time>
      </trkpt>
      <trkpt lat="47.55743" lon="6.67027">
        <ele>507</ele>
        <time>2015-11-29T10:00:05.000Z</time>
      </trkpt>
      <trkpt lat="47.55741" lon="6.67025">
        <ele>507</ele>
        <time>2015-11-29T10:00:06.000Z</time>
      </trkpt>
      <trkpt lat="47.55739" lon="6.67023">
        <ele>507</ele>
        <time>2015-11-29T10:00:07.000Z</time>
      </trkpt>
      <trkpt lat="47.55737" lon="6.67021">
        <ele>507</ele>
        <time>2015-11-29T10:00:08.000Z</time>
      </trkpt>
      <trkpt lat="47.55734" lon="6.67019">
        <ele>507</ele>
        <time>2015-11-29T10:00:09.000Z</time>
      </trkpt>
      <trkpt lat="47.55731" lon="6.67017">
        <ele>507</ele>
        <time>2015-11-29T10:00:11.000Z</time>
      </trkpt>
      <trkpt lat="47.5573" lon="6.67016">
        <ele>507</ele>
        <time>2015-11-29T10:00:12.000Z</time>
      </trkpt>
      <trkpt lat="47.55727" lon="6.67013">
        <ele>507</ele>
        <time>2015-11-29T10:00:15.000Z</time>
      </trkpt>
      <trkpt lat="47.55727" lon="6.67011">
        <ele>507</ele>
        <time>2015-11-29T10:00:16.000Z</time>
      </trkpt>
      <trkpt lat="47.55726" lon="6.67006">
        <ele>507</ele>
        <time>2015-11-29T10:00:18.000Z</time>
      </trkpt>
      <trkpt lat="47.55726" lon="6.67003">
        <ele>507</ele>
        <time>2015-11-29T10:00:19.000Z</time>
      </trkpt>
      <trkpt lat="47.55724" lon="6.66998">
        <ele>503</ele>
        <time>2015-11-29T10:00:21.000Z</time>
      </trkpt>
      <trkpt lat="47.55724" lon="6.66996">
        <ele>503</ele>
        <time>2015-11-29T10:00:22.000Z</time>
      </trkpt>
      <trkpt lat="47.55723" lon="6.66991">
        <ele>503</ele>
        <time>2015-11-29T10:00:29.000Z</time>
      </trkpt>
      <trkpt lat="47.55723" lon="6.6699">
        <ele>503</ele>
        <time>2015-11-29T10:00:30.000Z</time>
      </trkpt>
      <trkpt lat="47.55722" lon="6.66983">
        <ele>502</ele>
        <time>2015-11-29T10:01:00.000Z</time>
      </trkpt>
      <trkpt lat="47.55722" lon="6.66983">
        <ele>502</ele>
        <time>2015-11-29T10:01:01.000Z</time>
      </trkpt>
      <trkpt lat="47.55725" lon="6.66978">
        <ele>502</ele>
        <time>2015-11-29T10:02:23.000Z</time>
      </trkpt>
      <trkpt lat="47.55725" lon="6.66978">
        <ele>502</ele>
        <time>2015-11-29T10:02:24.000Z</time>
      </trkpt>
      <trkpt lat="47.55723" lon="6.66984">
        <ele>502</ele>
        <time>2015-11-29T10:04:29.000Z</time>
      </trkpt>
      <trkpt lat="47.55724" lon="6.66985">
        <ele>502</ele>
        <time>2015-11-29T10:04:30.000Z</time>
      </trkpt>
      <trkpt lat="47.5572" lon="6.66987">
        <ele>503</ele>
        <time>2015-11-29T10:04:57.000Z</time>
      </trkpt>
      <trkpt lat="47.55718" lon="6.66987">
        <ele>503</ele>
        <time>2015-11-29T10:04:58.000Z</time>
      </trkpt>
      <trkpt lat="47.55715" lon="6.66985">
        <ele>503</ele>
        <time>2015-11-29T10:05:00.000Z</time>
      </trkpt>
      <trkpt lat="47.55713" lon="6.66985">
        <ele>503</ele>
        <time>2015-11-29T10:05:01.000Z</time>
      </trkpt>
      <trkpt lat="47.5571" lon="6.66985">
        <ele>503</ele>
        <time>2015-11-29T10:05:03.000Z</time>
      </trkpt>
      <trkpt lat="47.55708" lon="6.66984">
        <ele>503</ele>
        <time>2015-11-29T10:05:04.000Z</time>
      </trkpt>
      <trkpt lat="47.55704" lon="6.66982">
        <ele>503</ele>
        <time>2015-11-29T10:05:06.000Z</time>
      </trkpt>
      <trkpt lat="47.55702" lon="6.6698">
        <ele>503</ele>
        <time>2015-11-29T10:05:07.000Z</time>
      </trkpt>
      <trkpt lat="47.55698" lon="6.66977">
        <ele>503</ele>
        <time>2015-11-29T10:05:09.000Z</time>
      </trkpt>
      <trkpt lat="47.55696" lon="6.66976">
        <ele>503</ele>
        <time>2015-11-29T10:05:10.000Z</time>
      </trkpt>
      <trkpt lat="47.55692" lon="6.66974">
        <ele>503</ele>
        <time>2015-11-29T10:05:12.000Z</time>
      </trkpt>
      <trkpt lat="47.5569" lon="6.66974">
        <ele>503</ele>
        <time>2015-11-29T10:05:13.000Z</time>
      </trkpt>
      <trkpt lat="47.55688" lon="6.66974">
        <ele>503</ele>
        <time>2015-11-29T10:05:14.000Z</time>
      </trkpt>
      <trkpt lat="47.55685" lon="6.66973">
        <ele>503</ele>
        <time>2015-11-29T10:05:15.000Z</time>
      </trkpt>
      <trkpt lat="47.55682" lon="6.66971">
        <ele>504</ele>
        <time>2015-11-29T10:05:16.000Z</time>
      </trkpt>
      <trkpt lat="47.5568" lon="6.66969">
        <ele>503</ele>
        <time>2015-11-29T10:05:17.000Z</time>
      </trkpt>
      <trkpt lat="47.55677" lon="6.66968">
        <ele>503</ele>
        <time>2015-11-29T10:05:18.000Z</time>
      </trkpt>
      <trkpt lat="47.55673" lon="6.66966">
        <ele>503</ele>
        <time>2015-11-29T10:05:19.000Z</time>
      </trkpt>
      <trkpt lat="47.5567" lon="6.66963">
        <ele>503</ele>
        <time>2015-11-29T10:05:20.000Z</time>
      </trkpt>
      <trkpt lat="47.55666" lon="6.66961">
        <ele>505</ele>
        <time>2015-11-29T10:05:21.000Z</time>
      </trkpt>
      <trkpt lat="47.55659" lon="6.66959">
        <ele>504</ele>
        <time>2015-11-29T10:05:22.000Z</time>
      </trkpt>
      <trkpt lat="47.55655" lon="6.6696">
        <ele>504</ele>
        <time>2015-11-29T10:05:23.000Z</time>
      </trkpt>
      <trkpt lat="47.55652" lon="6.66958">
        <ele>504</ele>
        <time>2015-11-29T10:05:24.000Z</time>
      </trkpt>
      <trkpt lat="47.5565" lon="6.66954">
        <ele>504</ele>
        <time>2015-11-29T10:05:26.000Z</time>
      </trkpt>
      <trkpt lat="47.55647" lon="6.66952">
        <ele>504</ele>
        <time>2015-11-29T10:05:27.000Z</time>
      </trkpt>
      <trkpt lat="47.55643" lon="6.66951">
        <ele>504</ele>
        <time>2015-11-29T10:05:28.000Z</time>
      </trkpt>
      <trkpt lat="47.5564" lon="6.66949">
        <ele>504</ele>
        <time>2015-11-29T10:05:29.000Z</time>
      </trkpt>
      <trkpt lat="47.55634" lon="6.6695">
        <ele>504</ele>
        <time>2015-11-29T10:05:30.000Z</time>
      </trkpt>
      <trkpt lat="47.55627" lon="6.66951">
        <ele>503</ele>
        <time>2015-11-29T10:05:31.000Z</time>
      </trkpt>
      <trkpt lat="47.5562" lon="6.66951">
        <ele>503</ele>
        <time>2015-11-29T10:05:32.000Z</time>
      </trkpt>
      <trkpt lat="47.55616" lon="6.66948">
        <ele>503</ele>
        <time>2015-11-29T10:05:33.000Z</time>
      </trkpt>
      <trkpt lat="47.55611" lon="6.66943">
        <ele>503</ele>
        <time>2015-11-29T10:05:34.000Z</time>
      </trkpt>
      <trkpt lat="47.55607" lon="6.66938">
        <ele>503</ele>
        <time>2015-11-29T10:05:35.000Z</time>
      </trkpt>
      <trkpt lat="47.55601" lon="6.66931">
        <ele>503</ele>
        <time>2015-11-29T10:05:36.000Z</time>
      </trkpt>
      <trkpt lat="47.55594" lon="6.66924">
        <ele>504</ele>
        <time>2015-11-29T10:05:37.000Z</time>
      </trkpt>
      <trkpt lat="47.5559" lon="6.66918">
        <ele>504</ele>
        <time>2015-11-29T10:05:38.000Z</time>
      </trkpt>
      <trkpt lat="47.55593" lon="6.66914">
        <ele>502</ele>
        <time>2015-11-29T10:05:39.000Z</time>
      </trkpt>
      <trkpt lat="47.55587" lon="6.66905">
        <ele>502</ele>
        <time>2015-11-29T10:05:40.000Z</time>
      </trkpt>
      <trkpt lat="47.55582" lon="6.66896">
        <ele>501</ele>
        <time>2015-11-29T10:05:41.000Z</time>
      </trkpt>
      <trkpt lat="47.55577" lon="6.66887">
        <ele>500</ele>
        <time>2015-11-29T10:05:42.000Z</time>
      </trkpt>
      <trkpt lat="47.55571" lon="6.66879">
        <ele>499</ele>
        <time>2015-11-29T10:05:43.000Z</time>
      </trkpt>
      <trkpt lat="47.55565" lon="6.66867">
        <ele>499</ele>
        <time>2015-11-29T10:05:44.000Z</time>
      </trkpt>
      <trkpt lat="47.55558" lon="6.66858">
        <ele>499</ele>
        <time>2015-11-29T10:05:45.000Z</time>
      </trkpt>
      <trkpt lat="47.5555" lon="6.66846">
        <ele>499</ele>
        <time>2015-11-29T10:05:46.000Z</time>
      </trkpt>
      <trkpt lat="47.55543" lon="6.66835">
        <ele>499</ele>
        <time>2015-11-29T10:05:47.000Z</time>
      </trkpt>
      <trkpt lat="47.55539" lon="6.66826">
        <ele>499</ele>
        <time>2015-11-29T10:05:48.000Z</time>
      </trkpt>
      <trkpt lat="47.55535" lon="6.6682">
        <ele>499</ele>
        <time>2015-11-29T10:05:49.000Z</time>
      </trkpt>
      <trkpt lat="47.55531" lon="6.66814">
        <ele>499</ele>
        <time>2015-11-29T10:05:50.000Z</time>
      </trkpt>
      <trkpt lat="47.55526" lon="6.66808">
        <ele>499</ele>
        <time>2015-11-29T10:05:51.000Z</time>
      </trkpt>
      <trkpt lat="47.55522" lon="6.66804">
        <ele>499</ele>
        <time>2015-11-29T10:05:52.000Z</time>
      </trkpt>
      <trkpt lat="47.55517" lon="6.66798">
        <ele>499</ele>
        <time>2015-11-29T10:05:53.000Z</time>
      </trkpt>
      <trkpt lat="47.55514" lon="6.66792">
        <ele>499</ele>
        <time>2015-11-29T10:05:54.000Z</time>
      </trkpt>
      <trkpt lat="47.5551" lon="6.66785">
        <ele>499</ele>
        <time>2015-11-29T10:05:55.000Z</time>
      </trkpt>
      <trkpt lat="47.55505" lon="6.6678">
        <ele>500</ele>
        <time>2015-11-29T10:05:56.000Z</time>
      </trkpt>
      <trkpt lat="47.55501" lon="6.66774">
        <ele>500</ele>
        <time>2015-11-29T10:05:57.000Z</time>
      </trkpt>
      <trkpt lat="47.55497" lon="6.66768">
        <ele>500</ele>
        <time>2015-11-29T10:05:58.000Z</time>
      </trkpt>
      <trkpt lat="47.55494" lon="6.66764">
        <ele>501</ele>
        <time>2015-11-29T10:05:59.000Z</time>
      </trkpt>
      <trkpt lat="47.55491" lon="6.6676">
        <ele>501</ele>
        <time>2015-11-29T10:06:00.000Z</time>
      </trkpt>
      <trkpt lat="47.55487" lon="6.66754">
        <ele>501</ele>
        <time>2015-11-29T10:06:01.000Z</time>
      </trkpt>
      <trkpt lat="47.55482" lon="6.66747">
        <ele>501</ele>
        <time>2015-11-29T10:06:02.000Z</time>
      </trkpt>
      <trkpt lat="47.55479" lon="6.66742">
        <ele>501</ele>
        <time>2015-11-29T10:06:03.000Z</time>
      </trkpt>
      <trkpt lat="47.55476" lon="6.66738">
        <ele>501</ele>
        <time>2015-11-29T10:06:04.000Z</time>
      </trkpt>
      <trkpt lat="47.55472" lon="6.66733">
        <ele>501</ele>
        <time>2015-11-29T10:06:05.000Z</time>
      </trkpt>
      <trkpt lat="47.55469" lon="6.66727">
        <ele>501</ele>
        <time>2015-11-29T10:06:06.000Z</time>
      </trkpt>
      <trkpt lat="47.55465" lon="6.66721">
        <ele>500</ele>
        <time>2015-11-29T10:06:07.000Z</time>
      </trkpt>
      <trkpt lat="47.55461" lon="6.66716">
        <ele>500</ele>
        <time>2015-11-29T10:06:08.000Z</time>
      </trkpt>
      <trkpt lat="47.55456" lon="6.66709">
        <ele>500</ele>
        <time>2015-11-29T10:06:09.000Z</time>
      </trkpt>
      <trkpt lat="47.55452" lon="6.66702">
        <ele>500</ele>
        <time>2015-11-29T10:06:10.000Z</time>
      </trkpt>
      <trkpt lat="47.55447" lon="6.66697">
        <ele>500</ele>
        <time>2015-11-29T10:06:11.000Z</time>
      </trkpt>
      <trkpt lat="47.55443" lon="6.66691">
        <ele>500</ele>
        <time>2015-11-29T10:06:12.000Z</time>
      </trkpt>
      <trkpt lat="47.55439" lon="6.66686">
        <ele>501</ele>
        <time>2015-11-29T10:06:13.000Z</time>
      </trkpt>
      <trkpt lat="47.55435" lon="6.66683">
        <ele>501</ele>
        <time>2015-11-29T10:06:14.000Z</time>
      </trkpt>
      <trkpt lat="47.55431" lon="6.6668">
        <ele>501</ele>
        <time>2015-11-29T10:06:15.000Z</time>
      </trkpt>
      <trkpt lat="47.55429" lon="6.66677">
        <ele>501</ele>
        <time>2015-11-29T10:06:16.000Z</time>
      </trkpt>
      <trkpt lat="47.55425" lon="6.66672">
        <ele>501</ele>
        <time>2015-11-29T10:06:17.000Z</time>
      </trkpt>
      <trkpt lat="47.55421" lon="6.66668">
        <ele>502</ele>
        <time>2015-11-29T10:06:18.000Z</time>
      </trkpt>
      <trkpt lat="47.55418" lon="6.66662">
        <ele>501</ele>
        <time>2015-11-29T10:06:19.000Z</time>
      </trkpt>
      <trkpt lat="47.55415" lon="6.66659">
        <ele>501</ele>
        <time>2015-11-29T10:06:20.000Z</time>
      </trkpt>
      <trkpt lat="47.55412" lon="6.66653">
        <ele>501</ele>
        <time>2015-11-29T10:06:21.000Z</time>
      </trkpt>
      <trkpt lat="47.55408" lon="6.66648">
        <ele>501</ele>
        <time>2015-11-29T10:06:22.000Z</time>
      </trkpt>
      <trkpt lat="47.55407" lon="6.66646">
        <ele>501</ele>
        <time>2015-11-29T10:06:24.000Z</time>
      </trkpt>
      <trkpt lat="47.55405" lon="6.66642">
        <ele>501</ele>
        <time>2015-11-29T10:06:25.000Z</time>
      </trkpt>
      <trkpt lat="47.55403" lon="6.66639">
        <ele>501</ele>
        <time>2015-11-29T10:06:26.000Z</time>
      </trkpt>
      <trkpt lat="47.55402" lon="6.66636">
        <ele>501</ele>
        <time>2015-11-29T10:06:27.000Z</time>
      </trkpt>
      <trkpt lat="47.55399" lon="6.66631">
        <ele>501</ele>
        <time>2015-11-29T10:06:29.000Z</time>
      </trkpt>
      <trkpt lat="47.55396" lon="6.66624">
        <ele>501</ele>
        <time>2015-11-29T10:06:30.000Z</time>
      </trkpt>
      <trkpt lat="47.55394" lon="6.66619">
        <ele>501</ele>
        <time>2015-11-29T10:06:31.000Z</time>
      </trkpt>
      <trkpt lat="47.55392" lon="6.66616">
        <ele>501</ele>
        <time>2015-11-29T10:06:32.000Z</time>
      </trkpt>
      <trkpt lat="47.55391" lon="6.66613">
        <ele>501</ele>
        <time>2015-11-29T10:06:33.000Z</time>
      </trkpt>
      <trkpt lat="47.55389" lon="6.6661">
        <ele>501</ele>
        <time>2015-11-29T10:06:34.000Z</time>
      </trkpt>
      <trkpt lat="47.55388" lon="6.66607">
        <ele>501</ele>
        <time>2015-11-29T10:06:35.000Z</time>
      </trkpt>
      <trkpt lat="47.55387" lon="6.66603">
        <ele>501</ele>
        <time>2015-11-29T10:06:36.000Z</time>
      </trkpt>
      <trkpt lat="47.55385" lon="6.666">
        <ele>501</ele>
        <time>2015-11-29T10:06:37.000Z</time>
      </trkpt>
      <trkpt lat="47.55383" lon="6.66595">
        <ele>501</ele>
        <time>2015-11-29T10:06:38.000Z</time>
      </trkpt>
      <trkpt lat="47.55381" lon="6.66589">
        <ele>501</ele>
        <time>2015-11-29T10:06:39.000Z</time>
      </trkpt>
      <trkpt lat="47.55378" lon="6.66584">
        <ele>501</ele>
        <time>2015-11-29T10:06:40.000Z</time>
      </trkpt>
      <trkpt lat="47.55375" lon="6.66579">
        <ele>501</ele>
        <time>2015-11-29T10:06:41.000Z</time>
      </trkpt>
      <trkpt lat="47.55372" lon="6.66575">
        <ele>501</ele>
        <time>2015-11-29T10:06:42.000Z</time>
      </trkpt>
      <trkpt lat="47.55369" lon="6.66572">
        <ele>501</ele>
        <time>2015-11-29T10:06:43.000Z</time>
      </trkpt>
      <trkpt lat="47.55367" lon="6.66568">
        <ele>501</ele>
        <time>2015-11-29T10:06:44.000Z</time>
      </trkpt>
      <trkpt lat="47.55364" lon="6.66565">
        <ele>501</ele>
        <time>2015-11-29T10:06:45.000Z</time>
      </trkpt>
      <trkpt lat="47.55361" lon="6.66561">
        <ele>501</ele>
        <time>2015-11-29T10:06:46.000Z</time>
      </trkpt>
      <trkpt lat="47.55358" lon="6.66557">
        <ele>501</ele>
        <time>2015-11-29T10:06:47.000Z</time>
      </trkpt>
      <trkpt lat="47.55355" lon="6.66554">
        <ele>501</ele>
        <time>2015-11-29T10:06:48.000Z</time>
      </trkpt>
      <trkpt lat="47.55353" lon="6.66551">
        <ele>501</ele>
        <time>2015-11-29T10:06:49.000Z</time>
      </trkpt>
      <trkpt lat="47.55351" lon="6.66548">
        <ele>501</ele>
        <time>2015-11-29T10:06:50.000Z</time>
      </trkpt>
      <trkpt lat="47.55348" lon="6.66545">
        <ele>502</ele>
        <time>2015-11-29T10:06:51.000Z</time>
      </trkpt>
      <trkpt lat="47.55346" lon="6.66542">
        <ele>502</ele>
        <time>2015-11-29T10:06:52.000Z</time>
      </trkpt>
      <trkpt lat="47.55344" lon="6.66538">
        <ele>502</ele>
        <time>2015-11-29T10:06:53.000Z</time>
      </trkpt>
      <trkpt lat="47.55343" lon="6.66535">
        <ele>502</ele>
        <time>2015-11-29T10:06:54.000Z</time>
      </trkpt>
      <trkpt lat="47.55341" lon="6.66531">
        <ele>502</ele>
        <time>2015-11-29T10:06:55.000Z</time>
      </trkpt>
      <trkpt lat="47.55339" lon="6.66527">
        <ele>503</ele>
        <time>2015-11-29T10:06:56.000Z</time>
      </trkpt>
      <trkpt lat="47.55338" lon="6.66523">
        <ele>503</ele>
        <time>2015-11-29T10:06:57.000Z</time>
      </trkpt>
      <trkpt lat="47.55336" lon="6.6652">
        <ele>503</ele>
        <time>2015-11-29T10:06:58.000Z</time>
      </trkpt>
      <trkpt lat="47.55335" lon="6.66518">
        <ele>504</ele>
        <time>2015-11-29T10:06:59.000Z</time>
      </trkpt>
      <trkpt lat="47.55333" lon="6.66515">
        <ele>506</ele>
        <time>2015-11-29T10:07:00.000Z</time>
      </trkpt>
      <trkpt lat="47.55331" lon="6.66511">
        <ele>506</ele>
        <time>2015-11-29T10:07:01.000Z</time>
      </trkpt>
      <trkpt lat="47.55329" lon="6.66507">
        <ele>506</ele>
        <time>2015-11-29T10:07:02.000Z</time>
      </trkpt>
      <trkpt lat="47.55327" lon="6.66503">
        <ele>506</ele>
        <time>2015-11-29T10:07:03.000Z</time>
      </trkpt>
      <trkpt lat="47.55324" lon="6.66498">
        <ele>507</ele>
        <time>2015-11-29T10:07:04.000Z</time>
      </trkpt>
      <trkpt lat="47.55322" lon="6.66494">
        <ele>508</ele>
        <time>2015-11-29T10:07:05.000Z</time>
      </trkpt>
      <trkpt lat="47.55319" lon="6.66489">
        <ele>508</ele>
        <time>2015-11-29T10:07:06.000Z</time>
      </trkpt>
      <trkpt lat="47.55317" lon="6.66484">
        <ele>508</ele>
        <time>2015-11-29T10:07:07.000Z</time>
      </trkpt>
      <trkpt lat="47.55315" lon="6.6648">
        <ele>508</ele>
        <time>2015-11-29T10:07:08.000Z</time>
      </trkpt>
      <trkpt lat="47.55313" lon="6.66475">
        <ele>508</ele>
        <time>2015-11-29T10:07:09.000Z</time>
      </trkpt>
      <trkpt lat="47.55311" lon="6.66471">
        <ele>508</ele>
        <time>2015-11-29T10:07:10.000Z</time>
      </trkpt>
      <trkpt lat="47.55309" lon="6.66467">
        <ele>508</ele>
        <time>2015-11-29T10:07:11.000Z</time>
      </trkpt>
      <trkpt lat="47.55307" lon="6.66464">
        <ele>508</ele>
        <time>2015-11-29T10:07:12.000Z</time>
      </trkpt>
      <trkpt lat="47.55305" lon="6.6646">
        <ele>508</ele>
        <time>2015-11-29T10:07:13.000Z</time>
      </trkpt>
      <trkpt lat="47.55303" lon="6.66457">
        <ele>508</ele>
        <time>2015-11-29T10:07:14.000Z</time>
      </trkpt>
      <trkpt lat="47.55302" lon="6.66453">
        <ele>508</ele>
        <time>2015-11-29T10:07:15.000Z</time>
      </trkpt>
      <trkpt lat="47.553" lon="6.66449">
        <ele>508</ele>
        <time>2015-11-29T10:07:16.000Z</time>
      </trkpt>
      <trkpt lat="47.55299" lon="6.66445">
        <ele>508</ele>
        <time>2015-11-29T10:07:17.000Z</time>
      </trkpt>
      <trkpt lat="47.55299" lon="6.6644">
        <ele>509</ele>
        <time>2015-11-29T10:07:18.000Z</time>
      </trkpt>
      <trkpt lat="47.55299" lon="6.66436">
        <ele>509</ele>
        <time>2015-11-29T10:07:19.000Z</time>
      </trkpt>
      <trkpt lat="47.55299" lon="6.66433">
        <ele>509</ele>
        <time>2015-11-29T10:07:20.000Z</time>
      </trkpt>
      <trkpt lat="47.55299" lon="6.66426">
        <ele>509</ele>
        <time>2015-11-29T10:07:22.000Z</time>
      </trkpt>
      <trkpt lat="47.55298" lon="6.66423">
        <ele>509</ele>
        <time>2015-11-29T10:07:23.000Z</time>
      </trkpt>
      <trkpt lat="47.55297" lon="6.66419">
        <ele>509</ele>
        <time>2015-11-29T10:07:24.000Z</time>
      </trkpt>
      <trkpt lat="47.55296" lon="6.66415">
        <ele>508</ele>
        <time>2015-11-29T10:07:25.000Z</time>
      </trkpt>
      <trkpt lat="47.55295" lon="6.66412">
        <ele>508</ele>
        <time>2015-11-29T10:07:26.000Z</time>
      </trkpt>
      <trkpt lat="47.55294" lon="6.66408">
        <ele>508</ele>
        <time>2015-11-29T10:07:27.000Z</time>
      </trkpt>
      <trkpt lat="47.55292" lon="6.66403">
        <ele>508</ele>
        <time>2015-11-29T10:07:29.000Z</time>
      </trkpt>
      <trkpt lat="47.55291" lon="6.664">
        <ele>508</ele>
        <time>2015-11-29T10:07:30.000Z</time>
      </trkpt>
      <trkpt lat="47.55289" lon="6.66394">
        <ele>508</ele>
        <time>2015-11-29T10:07:32.000Z</time>
      </trkpt>
      <trkpt lat="47.55288" lon="6.66392">
        <ele>508</ele>
        <time>2015-11-29T10:07:33.000Z</time>
      </trkpt>
      <trkpt lat="47.55286" lon="6.66387">
        <ele>508</ele>
        <time>2015-11-29T10:07:35.000Z</time>
      </trkpt>
      <trkpt lat="47.55284" lon="6.66384">
        <ele>508</ele>
        <time>2015-11-29T10:07:36.000Z</time>
      </trkpt>
      <trkpt lat="47.55282" lon="6.66381">
        <ele>508</ele>
        <time>2015-11-29T10:07:38.000Z</time>
      </trkpt>
      <trkpt lat="47.55281" lon="6.66378">
        <ele>508</ele>
        <time>2015-11-29T10:07:39.000Z</time>
      </trkpt>
      <trkpt lat="47.55279" lon="6.66372">
        <ele>508</ele>
        <time>2015-11-29T10:07:41.000Z</time>
      </trkpt>
      <trkpt lat="47.55278" lon="6.66369">
        <ele>508</ele>
        <time>2015-11-29T10:07:42.000Z</time>
      </trkpt>
      <trkpt lat="47.55276" lon="6.66364">
        <ele>508</ele>
        <time>2015-11-29T10:07:44.000Z</time>
      </trkpt>
      <trkpt lat="47.55275" lon="6.66362">
        <ele>509</ele>
        <time>2015-11-29T10:07:45.000Z</time>
      </trkpt>
      <trkpt lat="47.55271" lon="6.66358">
        <ele>509</ele>
        <time>2015-11-29T10:07:47.000Z</time>
      </trkpt>
      <trkpt lat="47.55269" lon="6.66357">
        <ele>509</ele>
        <time>2015-11-29T10:07:48.000Z</time>
      </trkpt>
      <trkpt lat="47.55266" lon="6.66355">
        <ele>510</ele>
        <time>2015-11-29T10:07:49.000Z</time>
      </trkpt>
      <trkpt lat="47.55263" lon="6.66353">
        <ele>510</ele>
        <time>2015-11-29T10:07:50.000Z</time>
      </trkpt>
      <trkpt lat="47.55261" lon="6.66351">
        <ele>510</ele>
        <time>2015-11-29T10:07:51.000Z</time>
      </trkpt>
      <trkpt lat="47.55259" lon="6.66349">
        <ele>511</ele>
        <time>2015-11-29T10:07:52.000Z</time>
      </trkpt>
      <trkpt lat="47.55257" lon="6.66347">
        <ele>511</ele>
        <time>2015-11-29T10:07:53.000Z</time>
      </trkpt>
      <trkpt lat="47.55255" lon="6.66344">
        <ele>511</ele>
        <time>2015-11-29T10:07:54.000Z</time>
      </trkpt>
      <trkpt lat="47.55253" lon="6.66342">
        <ele>512</ele>
        <time>2015-11-29T10:07:55.000Z</time>
      </trkpt>
      <trkpt lat="47.55251" lon="6.6634">
        <ele>512</ele>
        <time>2015-11-29T10:07:56.000Z</time>
      </trkpt>
      <trkpt lat="47.55249" lon="6.66338">
        <ele>514</ele>
        <time>2015-11-29T10:07:57.000Z</time>
      </trkpt>
      <trkpt lat="47.55246" lon="6.66337">
        <ele>514</ele>
        <time>2015-11-29T10:07:58.000Z</time>
      </trkpt>
      <trkpt lat="47.55244" lon="6.66335">
        <ele>513</ele>
        <time>2015-11-29T10:07:59.000Z</time>
      </trkpt>
      <trkpt lat="47.55242" lon="6.66333">
        <ele>513</ele>
        <time>2015-11-29T10:08:00.000Z</time>
      </trkpt>
      <trkpt lat="47.5524" lon="6.66331">
        <ele>513</ele>
        <time>2015-11-29T10:08:01.000Z</time>
      </trkpt>
      <trkpt lat="47.55239" lon="6.66327">
        <ele>513</ele>
        <time>2015-11-29T10:08:02.000Z</time>
      </trkpt>
      <trkpt lat="47.55237" lon="6.66324">
        <ele>513</ele>
        <time>2015-11-29T10:08:03.000Z</time>
      </trkpt>
      <trkpt lat="47.55236" lon="6.6632">
        <ele>513</ele>
        <time>2015-11-29T10:08:04.000Z</time>
      </trkpt>
      <trkpt lat="47.55234" lon="6.66316">
        <ele>513</ele>
        <time>2015-11-29T10:08:05.000Z</time>
      </trkpt>
      <trkpt lat="47.55232" lon="6.66312">
        <ele>512</ele>
        <time>2015-11-29T10:08:06.000Z</time>
      </trkpt>
      <trkpt lat="47.5523" lon="6.66308">
        <ele>512</ele>
        <time>2015-11-29T10:08:07.000Z</time>
      </trkpt>
      <trkpt lat="47.55228" lon="6.66306">
        <ele>512</ele>
        <time>2015-11-29T10:08:08.000Z</time>
      </trkpt>
      <trkpt lat="47.55225" lon="6.66303">
        <ele>512</ele>
        <time>2015-11-29T10:08:09.000Z</time>
      </trkpt>
      <trkpt lat="47.55223" lon="6.663">
        <ele>512</ele>
        <time>2015-11-29T10:08:10.000Z</time>
      </trkpt>
      <trkpt lat="47.5522" lon="6.66296">
        <ele>512</ele>
        <time>2015-11-29T10:08:11.000Z</time>
      </trkpt>
      <trkpt lat="47.55217" lon="6.66293">
        <ele>512</ele>
        <time>2015-11-29T10:08:12.000Z</time>
      </trkpt>
      <trkpt lat="47.55214" lon="6.6629">
        <ele>512</ele>
        <time>2015-11-29T10:08:13.000Z</time>
      </trkpt>
      <trkpt lat="47.55212" lon="6.66287">
        <ele>512</ele>
        <time>2015-11-29T10:08:14.000Z</time>
      </trkpt>
      <trkpt lat="47.55209" lon="6.66285">
        <ele>512</ele>
        <time>2015-11-29T10:08:15.000Z</time>
      </trkpt>
      <trkpt lat="47.55206" lon="6.66283">
        <ele>512</ele>
        <time>2015-11-29T10:08:16.000Z</time>
      </trkpt>
      <trkpt lat="47.55203" lon="6.66281">
        <ele>512</ele>
        <time>2015-11-29T10:08:17.000Z</time>
      </trkpt>
      <trkpt lat="47.55201" lon="6.66279">
        <ele>512</ele>
        <time>2015-11-29T10:08:18.000Z</time>
      </trkpt>
      <trkpt lat="47.55198" lon="6.66277">
        <ele>512</ele>
        <time>2015-11-29T10:08:19.000Z</time>
      </trkpt>
      <trkpt lat="47.55196" lon="6.66275">
        <ele>512</ele>
        <time>2015-11-29T10:08:20.000Z</time>
      </trkpt>
      <trkpt lat="47.55194" lon="6.66273">
        <ele>512</ele>
        <time>2015-11-29T10:08:21.000Z</time>
      </trkpt>
      <trkpt lat="47.55192" lon="6.66271">
        <ele>512</ele>
        <time>2015-11-29T10:08:22.000Z</time>
      </trkpt>
      <trkpt lat="47.55189" lon="6.66267">
        <ele>513</ele>
        <time>2015-11-29T10:08:23.000Z</time>
      </trkpt>
      <trkpt lat="47.55186" lon="6.66263">
        <ele>513</ele>
        <time>2015-11-29T10:08:24.000Z</time>
      </trkpt>
      <trkpt lat="47.55183" lon="6.66259">
        <ele>513</ele>
        <time>2015-11-29T10:08:25.000Z</time>
      </trkpt>
      <trkpt lat="47.55179" lon="6.66256">
        <ele>514</ele>
        <time>2015-11-29T10:08:26.000Z</time>
      </trkpt>
      <trkpt lat="47.55175" lon="6.66253">
        <ele>514</ele>
        <time>2015-11-29T10:08:27.000Z</time>
      </trkpt>
      <trkpt lat="47.55171" lon="6.66251">
        <ele>514</ele>
        <time>2015-11-29T10:08:28.000Z</time>
      </trkpt>
      <trkpt lat="47.55168" lon="6.66248">
        <ele>514</ele>
        <time>2015-11-29T10:08:29.000Z</time>
      </trkpt>
      <trkpt lat="47.55164" lon="6.66246">
        <ele>514</ele>
        <time>2015-11-29T10:08:30.000Z</time>
      </trkpt>
      <trkpt lat="47.55161" lon="6.66243">
        <ele>514</ele>
        <time>2015-11-29T10:08:31.000Z</time>
      </trkpt>
      <trkpt lat="47.55158" lon="6.6624">
        <ele>514</ele>
        <time>2015-11-29T10:08:32.000Z</time>
      </trkpt>
      <trkpt lat="47.55155" lon="6.66239">
        <ele>514</ele>
        <time>2015-11-29T10:08:33.000Z</time>
      </trkpt>
      <trkpt lat="47.55152" lon="6.66238">
        <ele>513</ele>
        <time>2015-11-29T10:08:34.000Z</time>
      </trkpt>
      <trkpt lat="47.5515" lon="6.66236">
        <ele>513</ele>
        <time>2015-11-29T10:08:35.000Z</time>
      </trkpt>
      <trkpt lat="47.55147" lon="6.66235">
        <ele>513</ele>
        <time>2015-11-29T10:08:36.000Z</time>
      </trkpt>
      <trkpt lat="47.55145" lon="6.66233">
        <ele>513</ele>
        <time>2015-11-29T10:08:37.000Z</time>
      </trkpt>
      <trkpt lat="47.55143" lon="6.6623">
        <ele>513</ele>
        <time>2015-11-29T10:08:38.000Z</time>
      </trkpt>
      <trkpt lat="47.55141" lon="6.66228">
        <ele>513</ele>
        <time>2015-11-29T10:08:39.000Z</time>
      </trkpt>
      <trkpt lat="47.55139" lon="6.66226">
        <ele>513</ele>
        <time>2015-11-29T10:08:40.000Z</time>
      </trkpt>
      <trkpt lat="47.55136" lon="6.66224">
        <ele>513</ele>
        <time>2015-11-29T10:08:41.000Z</time>
      </trkpt>
      <trkpt lat="47.55133" lon="6.66222">
        <ele>513</ele>
        <time>2015-11-29T10:08:42.000Z</time>
      </trkpt>
      <trkpt lat="47.55129" lon="6.66221">
        <ele>513</ele>
        <time>2015-11-29T10:08:43.000Z</time>
      </trkpt>
      <trkpt lat="47.55125" lon="6.6622">
        <ele>513</ele>
        <time>2015-11-29T10:08:44.000Z</time>
      </trkpt>
      <trkpt lat="47.55121" lon="6.66218">
        <ele>513</ele>
        <time>2015-11-29T10:08:45.000Z</time>
      </trkpt>
      <trkpt lat="47.55117" lon="6.66217">
        <ele>513</ele>
        <time>2015-11-29T10:08:46.000Z</time>
      </trkpt>
      <trkpt lat="47.55113" lon="6.66215">
        <ele>513</ele>
        <time>2015-11-29T10:08:47.000Z</time>
      </trkpt>
      <trkpt lat="47.5511" lon="6.66212">
        <ele>513</ele>
        <time>2015-11-29T10:08:48.000Z</time>
      </trkpt>
      <trkpt lat="47.55106" lon="6.6621">
        <ele>513</ele>
        <time>2015-11-29T10:08:49.000Z</time>
      </trkpt>
      <trkpt lat="47.55102" lon="6.66209">
        <ele>513</ele>
        <time>2015-11-29T10:08:50.000Z</time>
      </trkpt>
      <trkpt lat="47.55098" lon="6.66208">
        <ele>513</ele>
        <time>2015-11-29T10:08:51.000Z</time>
      </trkpt>
      <trkpt lat="47.55095" lon="6.66207">
        <ele>513</ele>
        <time>2015-11-29T10:08:52.000Z</time>
      </trkpt>
      <trkpt lat="47.55091" lon="6.66205">
        <ele>513</ele>
        <time>2015-11-29T10:08:53.000Z</time>
      </trkpt>
      <trkpt lat="47.55088" lon="6.66203">
        <ele>513</ele>
        <time>2015-11-29T10:08:54.000Z</time>
      </trkpt>
      <trkpt lat="47.55084" lon="6.66201">
        <ele>513</ele>
        <time>2015-11-29T10:08:55.000Z</time>
      </trkpt>
      <trkpt lat="47.55081" lon="6.66199">
        <ele>515</ele>
        <time>2015-11-29T10:08:56.000Z</time>
      </trkpt>
      <trkpt lat="47.55078" lon="6.66197">
        <ele>515</ele>
        <time>2015-11-29T10:08:57.000Z</time>
      </trkpt>
      <trkpt lat="47.55074" lon="6.66195">
        <ele>515</ele>
        <time>2015-11-29T10:08:58.000Z</time>
      </trkpt>
      <trkpt lat="47.55071" lon="6.66193">
        <ele>515</ele>
        <time>2015-11-29T10:08:59.000Z</time>
      </trkpt>
      <trkpt lat="47.55067" lon="6.6619">
        <ele>515</ele>
        <time>2015-11-29T10:09:00.000Z</time>
      </trkpt>
      <trkpt lat="47.55064" lon="6.66189">
        <ele>515</ele>
        <time>2015-11-29T10:09:01.000Z</time>
      </trkpt>
      <trkpt lat="47.55061" lon="6.66187">
        <ele>515</ele>
        <time>2015-11-29T10:09:02.000Z</time>
      </trkpt>
      <trkpt lat="47.55057" lon="6.66186">
        <ele>515</ele>
        <time>2015-11-29T10:09:03.000Z</time>
      </trkpt>
      <trkpt lat="47.55053" lon="6.66185">
        <ele>515</ele>
        <time>2015-11-29T10:09:04.000Z</time>
      </trkpt>
      <trkpt lat="47.55049" lon="6.66182">
        <ele>515</ele>
        <time>2015-11-29T10:09:05.000Z</time>
      </trkpt>
      <trkpt lat="47.55045" lon="6.6618">
        <ele>515</ele>
        <time>2015-11-29T10:09:06.000Z</time>
      </trkpt>
      <trkpt lat="47.55041" lon="6.66177">
        <ele>515</ele>
        <time>2015-11-29T10:09:07.000Z</time>
      </trkpt>
      <trkpt lat="47.55038" lon="6.66174">
        <ele>515</ele>
        <time>2015-11-29T10:09:08.000Z</time>
      </trkpt>
      <trkpt lat="47.55035" lon="6.66171">
        <ele>515</ele>
        <time>2015-11-29T10:09:09.000Z</time>
      </trkpt>
      <trkpt lat="47.55032" lon="6.66168">
        <ele>515</ele>
        <time>2015-11-29T10:09:10.000Z</time>
      </trkpt>
      <trkpt lat="47.55029" lon="6.66167">
        <ele>515</ele>
        <time>2015-11-29T10:09:11.000Z</time>
      </trkpt>
      <trkpt lat="47.55026" lon="6.66165">
        <ele>512</ele>
        <time>2015-11-29T10:09:12.000Z</time>
      </trkpt>
      <trkpt lat="47.55022" lon="6.66163">
        <ele>512</ele>
        <time>2015-11-29T10:09:13.000Z</time>
      </trkpt>
      <trkpt lat="47.55019" lon="6.66159">
        <ele>512</ele>
        <time>2015-11-29T10:09:14.000Z</time>
      </trkpt>
      <trkpt lat="47.55016" lon="6.66155">
        <ele>512</ele>
        <time>2015-11-29T10:09:15.000Z</time>
      </trkpt>
      <trkpt lat="47.55011" lon="6.66151">
        <ele>512</ele>
        <time>2015-11-29T10:09:16.000Z</time>
      </trkpt>
      <trkpt lat="47.55007" lon="6.66148">
        <ele>512</ele>
        <time>2015-11-29T10:09:17.000Z</time>
      </trkpt>
      <trkpt lat="47.55003" lon="6.66145">
        <ele>512</ele>
        <time>2015-11-29T10:09:18.000Z</time>
      </trkpt>
      <trkpt lat="47.54999" lon="6.66143">
        <ele>514</ele>
        <time>2015-11-29T10:09:19.000Z</time>
      </trkpt>
      <trkpt lat="47.54994" lon="6.66141">
        <ele>513</ele>
        <time>2015-11-29T10:09:20.000Z</time>
      </trkpt>
      <trkpt lat="47.5499" lon="6.66138">
        <ele>513</ele>
        <time>2015-11-29T10:09:21.000Z</time>
      </trkpt>
      <trkpt lat="47.54985" lon="6.66135">
        <ele>513</ele>
        <time>2015-11-29T10:09:22.000Z</time>
      </trkpt>
      <trkpt lat="47.54981" lon="6.6613">
        <ele>513</ele>
        <time>2015-11-29T10:09:23.000Z</time>
      </trkpt>
      <trkpt lat="47.54976" lon="6.66125">
        <ele>513</ele>
        <time>2015-11-29T10:09:24.000Z</time>
      </trkpt>
      <trkpt lat="47.54971" lon="6.66119">
        <ele>513</ele>
        <time>2015-11-29T10:09:25.000Z</time>
      </trkpt>
      <trkpt lat="47.54966" lon="6.66113">
        <ele>513</ele>
        <time>2015-11-29T10:09:26.000Z</time>
      </trkpt>
      <trkpt lat="47.54962" lon="6.66107">
        <ele>513</ele>
        <time>2015-11-29T10:09:27.000Z</time>
      </trkpt>
      <trkpt lat="47.54958" lon="6.66102">
        <ele>513</ele>
        <time>2015-11-29T10:09:28.000Z</time>
      </trkpt>
      <trkpt lat="47.54954" lon="6.66098">
        <ele>513</ele>
        <time>2015-11-29T10:09:29.000Z</time>
      </trkpt>
      <trkpt lat="47.5495" lon="6.66093">
        <ele>513</ele>
        <time>2015-11-29T10:09:30.000Z</time>
      </trkpt>
      <trkpt lat="47.54947" lon="6.66088">
        <ele>513</ele>
        <time>2015-11-29T10:09:31.000Z</time>
      </trkpt>
      <trkpt lat="47.54944" lon="6.66083">
        <ele>509</ele>
        <time>2015-11-29T10:09:32.000Z</time>
      </trkpt>
      <trkpt lat="47.54941" lon="6.66078">
        <ele>509</ele>
        <time>2015-11-29T10:09:33.000Z</time>
      </trkpt>
      <trkpt lat="47.54938" lon="6.66074">
        <ele>509</ele>
        <time>2015-11-29T10:09:34.000Z</time>
      </trkpt>
      <trkpt lat="47.54934" lon="6.66071">
        <ele>509</ele>
        <time>2015-11-29T10:09:35.000Z</time>
      </trkpt>
      <trkpt lat="47.5493" lon="6.66068">
        <ele>509</ele>
        <time>2015-11-29T10:09:36.000Z</time>
      </trkpt>
      <trkpt lat="47.54925" lon="6.66065">
        <ele>509</ele>
        <time>2015-11-29T10:09:37.000Z</time>
      </trkpt>
      <trkpt lat="47.54921" lon="6.66062">
        <ele>509</ele>
        <time>2015-11-29T10:09:38.000Z</time>
      </trkpt>
      <trkpt lat="47.54917" lon="6.66059">
        <ele>509</ele>
        <time>2015-11-29T10:09:39.000Z</time>
      </trkpt>
      <trkpt lat="47.54913" lon="6.66056">
        <ele>512</ele>
        <time>2015-11-29T10:09:40.000Z</time>
      </trkpt>
      <trkpt lat="47.54909" lon="6.66053">
        <ele>512</ele>
        <time>2015-11-29T10:09:41.000Z</time>
      </trkpt>
      <trkpt lat="47.54904" lon="6.6605">
        <ele>512</ele>
        <time>2015-11-29T10:09:42.000Z</time>
      </trkpt>
      <trkpt lat="47.549" lon="6.66046">
        <ele>512</ele>
        <time>2015-11-29T10:09:43.000Z</time>
      </trkpt>
      <trkpt lat="47.54896" lon="6.66044">
        <ele>512</ele>
        <time>2015-11-29T10:09:44.000Z</time>
      </trkpt>
      <trkpt lat="47.54892" lon="6.66041">
        <ele>512</ele>
        <time>2015-11-29T10:09:45.000Z</time>
      </trkpt>
      <trkpt lat="47.54888" lon="6.66038">
        <ele>512</ele>
        <time>2015-11-29T10:09:46.000Z</time>
      </trkpt>
      <trkpt lat="47.54885" lon="6.66036">
        <ele>512</ele>
        <time>2015-11-29T10:09:47.000Z</time>
      </trkpt>
      <trkpt lat="47.54881" lon="6.66034">
        <ele>512</ele>
        <time>2015-11-29T10:09:48.000Z</time>
      </trkpt>
      <trkpt lat="47.54876" lon="6.66031">
        <ele>512</ele>
        <time>2015-11-29T10:09:49.000Z</time>
      </trkpt>
      <trkpt lat="47.54872" lon="6.66029">
        <ele>512</ele>
        <time>2015-11-29T10:09:50.000Z</time>
      </trkpt>
      <trkpt lat="47.54868" lon="6.66028">
        <ele>512</ele>
        <time>2015-11-29T10:09:51.000Z</time>
      </trkpt>
      <trkpt lat="47.54864" lon="6.66026">
        <ele>512</ele>
        <time>2015-11-29T10:09:52.000Z</time>
      </trkpt>
      <trkpt lat="47.5486" lon="6.66024">
        <ele>512</ele>
        <time>2015-11-29T10:09:53.000Z</time>
      </trkpt>
      <trkpt lat="47.54856" lon="6.66021">
        <ele>512</ele>
        <time>2015-11-29T10:09:54.000Z</time>
      </trkpt>
      <trkpt lat="47.54852" lon="6.66019">
        <ele>512</ele>
        <time>2015-11-29T10:09:55.000Z</time>
      </trkpt>
      <trkpt lat="47.54848" lon="6.66016">
        <ele>513</ele>
        <time>2015-11-29T10:09:56.000Z</time>
      </trkpt>
      <trkpt lat="47.54843" lon="6.66014">
        <ele>513</ele>
        <time>2015-11-29T10:09:57.000Z</time>
      </trkpt>
      <trkpt lat="47.54839" lon="6.66012">
        <ele>513</ele>
        <time>2015-11-29T10:09:58.000Z</time>
      </trkpt>
      <trkpt lat="47.54834" lon="6.6601">
        <ele>513</ele>
        <time>2015-11-29T10:09:59.000Z</time>
      </trkpt>
      <trkpt lat="47.5483" lon="6.66008">
        <ele>514</ele>
        <time>2015-11-29T10:10:00.000Z</time>
      </trkpt>
      <trkpt lat="47.54827" lon="6.66007">
        <ele>514</ele>
        <time>2015-11-29T10:10:01.000Z</time>
      </trkpt>
      <trkpt lat="47.54822" lon="6.66007">
        <ele>514</ele>
        <time>2015-11-29T10:10:02.000Z</time>
      </trkpt>
      <trkpt lat="47.54818" lon="6.66005">
        <ele>514</ele>
        <time>2015-11-29T10:10:03.000Z</time>
      </trkpt>
      <trkpt lat="47.54812" lon="6.66003">
        <ele>514</ele>
        <time>2015-11-29T10:10:04.000Z</time>
      </trkpt>
      <trkpt lat="47.54807" lon="6.66001">
        <ele>514</ele>
        <time>2015-11-29T10:10:05.000Z</time>
      </trkpt>
      <trkpt lat="47.54802" lon="6.65998">
        <ele>511</ele>
        <time>2015-11-29T10:10:06.000Z</time>
      </trkpt>
      <trkpt lat="47.54798" lon="6.65995">
        <ele>511</ele>
        <time>2015-11-29T10:10:07.000Z</time>
      </trkpt>
      <trkpt lat="47.54793" lon="6.65993">
        <ele>511</ele>
        <time>2015-11-29T10:10:08.000Z</time>
      </trkpt>
      <trkpt lat="47.54788" lon="6.6599">
        <ele>511</ele>
        <time>2015-11-29T10:10:09.000Z</time>
      </trkpt>
      <trkpt lat="47.54783" lon="6.65988">
        <ele>511</ele>
        <time>2015-11-29T10:10:10.000Z</time>
      </trkpt>
      <trkpt lat="47.54778" lon="6.65985">
        <ele>511</ele>
        <time>2015-11-29T10:10:11.000Z</time>
      </trkpt>
      <trkpt lat="47.54773" lon="6.65983">
        <ele>511</ele>
        <time>2015-11-29T10:10:12.000Z</time>
      </trkpt>
      <trkpt lat="47.54769" lon="6.65981">
        <ele>511</ele>
        <time>2015-11-29T10:10:13.000Z</time>
      </trkpt>
      <trkpt lat="47.54761" lon="6.65974">
        <ele>511</ele>
        <time>2015-11-29T10:10:14.000Z</time>
      </trkpt>
      <trkpt lat="47.54756" lon="6.65971">
        <ele>511</ele>
        <time>2015-11-29T10:10:15.000Z</time>
      </trkpt>
      <trkpt lat="47.54752" lon="6.65969">
        <ele>511</ele>
        <time>2015-11-29T10:10:16.000Z</time>
      </trkpt>
      <trkpt lat="47.54746" lon="6.65967">
        <ele>513</ele>
        <time>2015-11-29T10:10:17.000Z</time>
      </trkpt>
      <trkpt lat="47.54744" lon="6.65967">
        <ele>513</ele>
        <time>2015-11-29T10:10:18.000Z</time>
      </trkpt>
      <trkpt lat="47.54741" lon="6.65966">
        <ele>513</ele>
        <time>2015-11-29T10:10:19.000Z</time>
      </trkpt>
      <trkpt lat="47.54737" lon="6.65964">
        <ele>513</ele>
        <time>2015-11-29T10:10:20.000Z</time>
      </trkpt>
      <trkpt lat="47.54732" lon="6.65953">
        <ele>512</ele>
        <time>2015-11-29T10:10:21.000Z</time>
      </trkpt>
      <trkpt lat="47.54729" lon="6.65949">
        <ele>512</ele>
        <time>2015-11-29T10:10:22.000Z</time>
      </trkpt>
      <trkpt lat="47.54725" lon="6.65945">
        <ele>512</ele>
        <time>2015-11-29T10:10:23.000Z</time>
      </trkpt>
      <trkpt lat="47.54721" lon="6.65941">
        <ele>512</ele>
        <time>2015-11-29T10:10:24.000Z</time>
      </trkpt>
      <trkpt lat="47.54718" lon="6.6594">
        <ele>512</ele>
        <time>2015-11-29T10:10:25.000Z</time>
      </trkpt>
      <trkpt lat="47.54714" lon="6.65938">
        <ele>512</ele>
        <time>2015-11-29T10:10:26.000Z</time>
      </trkpt>
      <trkpt lat="47.5471" lon="6.65936">
        <ele>513</ele>
        <time>2015-11-29T10:10:27.000Z</time>
      </trkpt>
      <trkpt lat="47.54707" lon="6.65935">
        <ele>513</ele>
        <time>2015-11-29T10:10:28.000Z</time>
      </trkpt>
      <trkpt lat="47.54702" lon="6.65933">
        <ele>513</ele>
        <time>2015-11-29T10:10:29.000Z</time>
      </trkpt>
      <trkpt lat="47.54698" lon="6.6593">
        <ele>513</ele>
        <time>2015-11-29T10:10:30.000Z</time>
      </trkpt>
      <trkpt lat="47.54694" lon="6.65928">
        <ele>513</ele>
        <time>2015-11-29T10:10:31.000Z</time>
      </trkpt>
      <trkpt lat="47.5469" lon="6.65927">
        <ele>513</ele>
        <time>2015-11-29T10:10:32.000Z</time>
      </trkpt>
      <trkpt lat="47.54687" lon="6.65925">
        <ele>513</ele>
        <time>2015-11-29T10:10:33.000Z</time>
      </trkpt>
      <trkpt lat="47.54683" lon="6.65925">
        <ele>513</ele>
        <time>2015-11-29T10:10:34.000Z</time>
      </trkpt>
      <trkpt lat="47.54679" lon="6.65925">
        <ele>513</ele>
        <time>2015-11-29T10:10:35.000Z</time>
      </trkpt>
      <trkpt lat="47.54675" lon="6.65924">
        <ele>514</ele>
        <time>2015-11-29T10:10:36.000Z</time>
      </trkpt>
      <trkpt lat="47.54671" lon="6.65924">
        <ele>514</ele>
        <time>2015-11-29T10:10:37.000Z</time>
      </trkpt>
      <trkpt lat="47.54668" lon="6.65923">
        <ele>514</ele>
        <time>2015-11-29T10:10:38.000Z</time>
      </trkpt>
      <trkpt lat="47.54665" lon="6.65922">
        <ele>514</ele>
        <time>2015-11-29T10:10:39.000Z</time>
      </trkpt>
      <trkpt lat="47.54662" lon="6.65922">
        <ele>514</ele>
        <time>2015-11-29T10:10:40.000Z</time>
      </trkpt>
      <trkpt lat="47.54659" lon="6.65921">
        <ele>514</ele>
        <time>2015-11-29T10:10:41.000Z</time>
      </trkpt>
      <trkpt lat="47.54656" lon="6.6592">
        <ele>514</ele>
        <time>2015-11-29T10:10:42.000Z</time>
      </trkpt>
      <trkpt lat="47.54653" lon="6.6592">
        <ele>514</ele>
        <time>2015-11-29T10:10:43.000Z</time>
      </trkpt>
      <trkpt lat="47.54649" lon="6.65919">
        <ele>514</ele>
        <time>2015-11-29T10:10:44.000Z</time>
      </trkpt>
      <trkpt lat="47.54641" lon="6.65915">
        <ele>512</ele>
        <time>2015-11-29T10:10:45.000Z</time>
      </trkpt>
      <trkpt lat="47.54637" lon="6.65912">
        <ele>512</ele>
        <time>2015-11-29T10:10:46.000Z</time>
      </trkpt>
      <trkpt lat="47.54634" lon="6.65912">
        <ele>512</ele>
        <time>2015-11-29T10:10:47.000Z</time>
      </trkpt>
      <trkpt lat="47.54632" lon="6.65911">
        <ele>512</ele>
        <time>2015-11-29T10:10:48.000Z</time>
      </trkpt>
      <trkpt lat="47.54629" lon="6.65911">
        <ele>512</ele>
        <time>2015-11-29T10:10:49.000Z</time>
      </trkpt>
      <trkpt lat="47.54621" lon="6.65907">
        <ele>512</ele>
        <time>2015-11-29T10:10:50.000Z</time>
      </trkpt>
      <trkpt lat="47.54616" lon="6.65904">
        <ele>512</ele>
        <time>2015-11-29T10:10:51.000Z</time>
      </trkpt>
      <trkpt lat="47.54611" lon="6.65901">
        <ele>512</ele>
        <time>2015-11-29T10:10:52.000Z</time>
      </trkpt>
      <trkpt lat="47.54607" lon="6.65899">
        <ele>512</ele>
        <time>2015-11-29T10:10:53.000Z</time>
      </trkpt>
      <trkpt lat="47.54603" lon="6.65895">
        <ele>512</ele>
        <time>2015-11-29T10:10:54.000Z</time>
      </trkpt>
      <trkpt lat="47.546" lon="6.65893">
        <ele>512</ele>
        <time>2015-11-29T10:10:55.000Z</time>
      </trkpt>
      <trkpt lat="47.54596" lon="6.65891">
        <ele>512</ele>
        <time>2015-11-29T10:10:56.000Z</time>
      </trkpt>
      <trkpt lat="47.54593" lon="6.65889">
        <ele>512</ele>
        <time>2015-11-29T10:10:57.000Z</time>
      </trkpt>
      <trkpt lat="47.5459" lon="6.65887">
        <ele>512</ele>
        <time>2015-11-29T10:10:58.000Z</time>
      </trkpt>
      <trkpt lat="47.54588" lon="6.65885">
        <ele>511</ele>
        <time>2015-11-29T10:10:59.000Z</time>
      </trkpt>
      <trkpt lat="47.54585" lon="6.65883">
        <ele>511</ele>
        <time>2015-11-29T10:11:00.000Z</time>
      </trkpt>
      <trkpt lat="47.54582" lon="6.65881">
        <ele>513</ele>
        <time>2015-11-29T10:11:01.000Z</time>
      </trkpt>
      <trkpt lat="47.5458" lon="6.65879">
        <ele>513</ele>
        <time>2015-11-29T10:11:02.000Z</time>
      </trkpt>
      <trkpt lat="47.54577" lon="6.65878">
        <ele>513</ele>
        <time>2015-11-29T10:11:03.000Z</time>
      </trkpt>
      <trkpt lat="47.54575" lon="6.65876">
        <ele>513</ele>
        <time>2015-11-29T10:11:04.000Z</time>
      </trkpt>
      <trkpt lat="47.54572" lon="6.65873">
        <ele>512</ele>
        <time>2015-11-29T10:11:05.000Z</time>
      </trkpt>
      <trkpt lat="47.54569" lon="6.65868">
        <ele>512</ele>
        <time>2015-11-29T10:11:06.000Z</time>
      </trkpt>
      <trkpt lat="47.54565" lon="6.65862">
        <ele>512</ele>
        <time>2015-11-29T10:11:07.000Z</time>
      </trkpt>
      <trkpt lat="47.54561" lon="6.65855">
        <ele>512</ele>
        <time>2015-11-29T10:11:08.000Z</time>
      </trkpt>
      <trkpt lat="47.54557" lon="6.65848">
        <ele>512</ele>
        <time>2015-11-29T10:11:09.000Z</time>
      </trkpt>
      <trkpt lat="47.54553" lon="6.65842">
        <ele>512</ele>
        <time>2015-11-29T10:11:10.000Z</time>
      </trkpt>
      <trkpt lat="47.54549" lon="6.65835">
        <ele>512</ele>
        <time>2015-11-29T10:11:11.000Z</time>
      </trkpt>
      <trkpt lat="47.54544" lon="6.65828">
        <ele>510</ele>
        <time>2015-11-29T10:11:12.000Z</time>
      </trkpt>
      <trkpt lat="47.5454" lon="6.65822">
        <ele>511</ele>
        <time>2015-11-29T10:11:13.000Z</time>
      </trkpt>
      <trkpt lat="47.54535" lon="6.65816">
        <ele>511</ele>
        <time>2015-11-29T10:11:14.000Z</time>
      </trkpt>
      <trkpt lat="47.5453" lon="6.65811">
        <ele>511</ele>
        <time>2015-11-29T10:11:15.000Z</time>
      </trkpt>
      <trkpt lat="47.54525" lon="6.65807">
        <ele>511</ele>
        <time>2015-11-29T10:11:16.000Z</time>
      </trkpt>
      <trkpt lat="47.54515" lon="6.65799">
        <ele>511</ele>
        <time>2015-11-29T10:11:17.000Z</time>
      </trkpt>
      <trkpt lat="47.54509" lon="6.65794">
        <ele>511</ele>
        <time>2015-11-29T10:11:18.000Z</time>
      </trkpt>
      <trkpt lat="47.54507" lon="6.65789">
        <ele>511</ele>
        <time>2015-11-29T10:11:19.000Z</time>
      </trkpt>
      <trkpt lat="47.54503" lon="6.65784">
        <ele>511</ele>
        <time>2015-11-29T10:11:20.000Z</time>
      </trkpt>
      <trkpt lat="47.54499" lon="6.6578">
        <ele>513</ele>
        <time>2015-11-29T10:11:21.000Z</time>
      </trkpt>
      <trkpt lat="47.54494" lon="6.65775">
        <ele>513</ele>
        <time>2015-11-29T10:11:22.000Z</time>
      </trkpt>
      <trkpt lat="47.54491" lon="6.65773">
        <ele>513</ele>
        <time>2015-11-29T10:11:23.000Z</time>
      </trkpt>
      <trkpt lat="47.54487" lon="6.6577">
        <ele>513</ele>
        <time>2015-11-29T10:11:24.000Z</time>
      </trkpt>
      <trkpt lat="47.54484" lon="6.65766">
        <ele>513</ele>
        <time>2015-11-29T10:11:25.000Z</time>
      </trkpt>
      <trkpt lat="47.54481" lon="6.65763">
        <ele>513</ele>
        <time>2015-11-29T10:11:26.000Z</time>
      </trkpt>
      <trkpt lat="47.54478" lon="6.6576">
        <ele>513</ele>
        <time>2015-11-29T10:11:27.000Z</time>
      </trkpt>
      <trkpt lat="47.54475" lon="6.65757">
        <ele>513</ele>
        <time>2015-11-29T10:11:28.000Z</time>
      </trkpt>
      <trkpt lat="47.54471" lon="6.65754">
        <ele>513</ele>
        <time>2015-11-29T10:11:29.000Z</time>
      </trkpt>
      <trkpt lat="47.54462" lon="6.65746">
        <ele>511</ele>
        <time>2015-11-29T10:11:30.000Z</time>
      </trkpt>
      <trkpt lat="47.5446" lon="6.65743">
        <ele>511</ele>
        <time>2015-11-29T10:11:31.000Z</time>
      </trkpt>
      <trkpt lat="47.54457" lon="6.6574">
        <ele>511</ele>
        <time>2015-11-29T10:11:32.000Z</time>
      </trkpt>
      <trkpt lat="47.54454" lon="6.65737">
        <ele>511</ele>
        <time>2015-11-29T10:11:33.000Z</time>
      </trkpt>
      <trkpt lat="47.5445" lon="6.65731">
        <ele>511</ele>
        <time>2015-11-29T10:11:34.000Z</time>
      </trkpt>
      <trkpt lat="47.54446" lon="6.65729">
        <ele>511</ele>
        <time>2015-11-29T10:11:35.000Z</time>
      </trkpt>
      <trkpt lat="47.54441" lon="6.65725">
        <ele>511</ele>
        <time>2015-11-29T10:11:36.000Z</time>
      </trkpt>
      <trkpt lat="47.54437" lon="6.65723">
        <ele>511</ele>
        <time>2015-11-29T10:11:37.000Z</time>
      </trkpt>
      <trkpt lat="47.54435" lon="6.65721">
        <ele>511</ele>
        <time>2015-11-29T10:11:38.000Z</time>
      </trkpt>
      <trkpt lat="47.54428" lon="6.65719">
        <ele>511</ele>
        <time>2015-11-29T10:11:39.000Z</time>
      </trkpt>
      <trkpt lat="47.54425" lon="6.65719">
        <ele>511</ele>
        <time>2015-11-29T10:11:40.000Z</time>
      </trkpt>
      <trkpt lat="47.54422" lon="6.65716">
        <ele>511</ele>
        <time>2015-11-29T10:11:41.000Z</time>
      </trkpt>
      <trkpt lat="47.54418" lon="6.65714">
        <ele>511</ele>
        <time>2015-11-29T10:11:42.000Z</time>
      </trkpt>
      <trkpt lat="47.54414" lon="6.65711">
        <ele>513</ele>
        <time>2015-11-29T10:11:43.000Z</time>
      </trkpt>
      <trkpt lat="47.54408" lon="6.65692">
        <ele>512</ele>
        <time>2015-11-29T10:11:44.000Z</time>
      </trkpt>
      <trkpt lat="47.54404" lon="6.65684">
        <ele>512</ele>
        <time>2015-11-29T10:11:45.000Z</time>
      </trkpt>
      <trkpt lat="47.544" lon="6.65676">
        <ele>512</ele>
        <time>2015-11-29T10:11:46.000Z</time>
      </trkpt>
      <trkpt lat="47.54395" lon="6.65671">
        <ele>512</ele>
        <time>2015-11-29T10:11:47.000Z</time>
      </trkpt>
      <trkpt lat="47.54391" lon="6.65665">
        <ele>510</ele>
        <time>2015-11-29T10:11:48.000Z</time>
      </trkpt>
      <trkpt lat="47.54387" lon="6.6566">
        <ele>510</ele>
        <time>2015-11-29T10:11:49.000Z</time>
      </trkpt>
      <trkpt lat="47.54383" lon="6.65655">
        <ele>510</ele>
        <time>2015-11-29T10:11:50.000Z</time>
      </trkpt>
      <trkpt lat="47.54379" lon="6.65651">
        <ele>510</ele>
        <time>2015-11-29T10:11:51.000Z</time>
      </trkpt>
      <trkpt lat="47.54376" lon="6.65648">
        <ele>510</ele>
        <time>2015-11-29T10:11:52.000Z</time>
      </trkpt>
      <trkpt lat="47.54371" lon="6.65639">
        <ele>510</ele>
        <time>2015-11-29T10:11:53.000Z</time>
      </trkpt>
      <trkpt lat="47.54366" lon="6.65634">
        <ele>510</ele>
        <time>2015-11-29T10:11:54.000Z</time>
      </trkpt>
      <trkpt lat="47.54362" lon="6.6563">
        <ele>510</ele>
        <time>2015-11-29T10:11:55.000Z</time>
      </trkpt>
      <trkpt lat="47.54357" lon="6.65624">
        <ele>509</ele>
        <time>2015-11-29T10:11:56.000Z</time>
      </trkpt>
      <trkpt lat="47.54349" lon="6.65615">
        <ele>509</ele>
        <time>2015-11-29T10:11:57.000Z</time>
      </trkpt>
      <trkpt lat="47.54344" lon="6.65609">
        <ele>509</ele>
        <time>2015-11-29T10:11:58.000Z</time>
      </trkpt>
      <trkpt lat="47.54339" lon="6.65606">
        <ele>509</ele>
        <time>2015-11-29T10:11:59.000Z</time>
      </trkpt>
      <trkpt lat="47.54334" lon="6.65598">
        <ele>508</ele>
        <time>2015-11-29T10:12:00.000Z</time>
      </trkpt>
      <trkpt lat="47.54327" lon="6.65592">
        <ele>508</ele>
        <time>2015-11-29T10:12:01.000Z</time>
      </trkpt>
      <trkpt lat="47.54322" lon="6.65587">
        <ele>508</ele>
        <time>2015-11-29T10:12:02.000Z</time>
      </trkpt>
      <trkpt lat="47.54318" lon="6.65582">
        <ele>506</ele>
        <time>2015-11-29T10:12:03.000Z</time>
      </trkpt>
      <trkpt lat="47.54311" lon="6.65578">
        <ele>506</ele>
        <time>2015-11-29T10:12:04.000Z</time>
      </trkpt>
      <trkpt lat="47.54308" lon="6.65573">
        <ele>506</ele>
        <time>2015-11-29T10:12:05.000Z</time>
      </trkpt>
      <trkpt lat="47.54305" lon="6.65572">
        <ele>506</ele>
        <time>2015-11-29T10:12:06.000Z</time>
      </trkpt>
      <trkpt lat="47.54301" lon="6.65567">
        <ele>506</ele>
        <time>2015-11-29T10:12:07.000Z</time>
      </trkpt>
      <trkpt lat="47.54297" lon="6.65564">
        <ele>506</ele>
        <time>2015-11-29T10:12:08.000Z</time>
      </trkpt>
      <trkpt lat="47.54294" lon="6.6556">
        <ele>506</ele>
        <time>2015-11-29T10:12:09.000Z</time>
      </trkpt>
      <trkpt lat="47.54291" lon="6.65549">
        <ele>506</ele>
        <time>2015-11-29T10:12:10.000Z</time>
      </trkpt>
      <trkpt lat="47.54287" lon="6.65544">
        <ele>505</ele>
        <time>2015-11-29T10:12:11.000Z</time>
      </trkpt>
      <trkpt lat="47.54283" lon="6.65539">
        <ele>505</ele>
        <time>2015-11-29T10:12:12.000Z</time>
      </trkpt>
      <trkpt lat="47.5428" lon="6.65536">
        <ele>505</ele>
        <time>2015-11-29T10:12:13.000Z</time>
      </trkpt>
      <trkpt lat="47.54277" lon="6.65532">
        <ele>505</ele>
        <time>2015-11-29T10:12:14.000Z</time>
      </trkpt>
      <trkpt lat="47.54275" lon="6.6553">
        <ele>505</ele>
        <time>2015-11-29T10:12:15.000Z</time>
      </trkpt>
      <trkpt lat="47.54273" lon="6.65527">
        <ele>505</ele>
        <time>2015-11-29T10:12:16.000Z</time>
      </trkpt>
      <trkpt lat="47.54271" lon="6.65525">
        <ele>505</ele>
        <time>2015-11-29T10:12:17.000Z</time>
      </trkpt>
      <trkpt lat="47.54268" lon="6.65524">
        <ele>505</ele>
        <time>2015-11-29T10:12:18.000Z</time>
      </trkpt>
      <trkpt lat="47.54266" lon="6.65522">
        <ele>505</ele>
        <time>2015-11-29T10:12:19.000Z</time>
      </trkpt>
      <trkpt lat="47.54262" lon="6.65521">
        <ele>505</ele>
        <time>2015-11-29T10:12:20.000Z</time>
      </trkpt>
      <trkpt lat="47.54259" lon="6.65519">
        <ele>505</ele>
        <time>2015-11-29T10:12:21.000Z</time>
      </trkpt>
      <trkpt lat="47.54255" lon="6.65517">
        <ele>505</ele>
        <time>2015-11-29T10:12:22.000Z</time>
      </trkpt>
      <trkpt lat="47.54251" lon="6.65515">
        <ele>505</ele>
        <time>2015-11-29T10:12:23.000Z</time>
      </trkpt>
      <trkpt lat="47.54248" lon="6.65513">
        <ele>505</ele>
        <time>2015-11-29T10:12:24.000Z</time>
      </trkpt>
      <trkpt lat="47.54244" lon="6.65511">
        <ele>505</ele>
        <time>2015-11-29T10:12:25.000Z</time>
      </trkpt>
      <trkpt lat="47.54241" lon="6.65508">
        <ele>505</ele>
        <time>2015-11-29T10:12:26.000Z</time>
      </trkpt>
      <trkpt lat="47.54238" lon="6.65506">
        <ele>505</ele>
        <time>2015-11-29T10:12:27.000Z</time>
      </trkpt>
      <trkpt lat="47.54235" lon="6.65504">
        <ele>505</ele>
        <time>2015-11-29T10:12:28.000Z</time>
      </trkpt>
      <trkpt lat="47.54231" lon="6.65502">
        <ele>505</ele>
        <time>2015-11-29T10:12:29.000Z</time>
      </trkpt>
      <trkpt lat="47.54228" lon="6.655">
        <ele>502</ele>
        <time>2015-11-29T10:12:30.000Z</time>
      </trkpt>
      <trkpt lat="47.54212" lon="6.65484">
        <ele>502</ele>
        <time>2015-11-29T10:12:31.000Z</time>
      </trkpt>
      <trkpt lat="47.54207" lon="6.65478">
        <ele>502</ele>
        <time>2015-11-29T10:12:32.000Z</time>
      </trkpt>
      <trkpt lat="47.54202" lon="6.65472">
        <ele>502</ele>
        <time>2015-11-29T10:12:33.000Z</time>
      </trkpt>
      <trkpt lat="47.54199" lon="6.65468">
        <ele>501</ele>
        <time>2015-11-29T10:12:34.000Z</time>
      </trkpt>
      <trkpt lat="47.54195" lon="6.65465">
        <ele>501</ele>
        <time>2015-11-29T10:12:35.000Z</time>
      </trkpt>
      <trkpt lat="47.54193" lon="6.65462">
        <ele>501</ele>
        <time>2015-11-29T10:12:36.000Z</time>
      </trkpt>
      <trkpt lat="47.54188" lon="6.65459">
        <ele>501</ele>
        <time>2015-11-29T10:12:37.000Z</time>
      </trkpt>
      <trkpt lat="47.54184" lon="6.65455">
        <ele>501</ele>
        <time>2015-11-29T10:12:38.000Z</time>
      </trkpt>
      <trkpt lat="47.54178" lon="6.65451">
        <ele>501</ele>
        <time>2015-11-29T10:12:39.000Z</time>
      </trkpt>
      <trkpt lat="47.54174" lon="6.65449">
        <ele>501</ele>
        <time>2015-11-29T10:12:40.000Z</time>
      </trkpt>
      <trkpt lat="47.5417" lon="6.65445">
        <ele>501</ele>
        <time>2015-11-29T10:12:41.000Z</time>
      </trkpt>
      <trkpt lat="47.54167" lon="6.65441">
        <ele>501</ele>
        <time>2015-11-29T10:12:42.000Z</time>
      </trkpt>
      <trkpt lat="47.54164" lon="6.65437">
        <ele>501</ele>
        <time>2015-11-29T10:12:43.000Z</time>
      </trkpt>
      <trkpt lat="47.54162" lon="6.65434">
        <ele>501</ele>
        <time>2015-11-29T10:12:44.000Z</time>
      </trkpt>
      <trkpt lat="47.54159" lon="6.65432">
        <ele>501</ele>
        <time>2015-11-29T10:12:45.000Z</time>
      </trkpt>
      <trkpt lat="47.54157" lon="6.65429">
        <ele>501</ele>
        <time>2015-11-29T10:12:46.000Z</time>
      </trkpt>
      <trkpt lat="47.54152" lon="6.65423">
        <ele>501</ele>
        <time>2015-11-29T10:12:47.000Z</time>
      </trkpt>
      <trkpt lat="47.54149" lon="6.65417">
        <ele>501</ele>
        <time>2015-11-29T10:12:48.000Z</time>
      </trkpt>
      <trkpt lat="47.54146" lon="6.65414">
        <ele>499</ele>
        <time>2015-11-29T10:12:49.000Z</time>
      </trkpt>
      <trkpt lat="47.54144" lon="6.6541">
        <ele>499</ele>
        <time>2015-11-29T10:12:50.000Z</time>
      </trkpt>
      <trkpt lat="47.54141" lon="6.65407">
        <ele>499</ele>
        <time>2015-11-29T10:12:51.000Z</time>
      </trkpt>
      <trkpt lat="47.54139" lon="6.65404">
        <ele>498</ele>
        <time>2015-11-29T10:12:52.000Z</time>
      </trkpt>
      <trkpt lat="47.54136" lon="6.654">
        <ele>498</ele>
        <time>2015-11-29T10:12:53.000Z</time>
      </trkpt>
      <trkpt lat="47.54133" lon="6.65397">
        <ele>498</ele>
        <time>2015-11-29T10:12:54.000Z</time>
      </trkpt>
      <trkpt lat="47.54131" lon="6.65393">
        <ele>498</ele>
        <time>2015-11-29T10:12:55.000Z</time>
      </trkpt>
      <trkpt lat="47.54128" lon="6.65389">
        <ele>498</ele>
        <time>2015-11-29T10:12:56.000Z</time>
      </trkpt>
      <trkpt lat="47.54125" lon="6.65387">
        <ele>498</ele>
        <time>2015-11-29T10:12:57.000Z</time>
      </trkpt>
      <trkpt lat="47.54123" lon="6.65384">
        <ele>498</ele>
        <time>2015-11-29T10:12:58.000Z</time>
      </trkpt>
      <trkpt lat="47.5412" lon="6.65381">
        <ele>498</ele>
        <time>2015-11-29T10:12:59.000Z</time>
      </trkpt>
      <trkpt lat="47.54117" lon="6.65377">
        <ele>498</ele>
        <time>2015-11-29T10:13:00.000Z</time>
      </trkpt>
      <trkpt lat="47.54113" lon="6.65371">
        <ele>497</ele>
        <time>2015-11-29T10:13:01.000Z</time>
      </trkpt>
      <trkpt lat="47.54109" lon="6.65365">
        <ele>497</ele>
        <time>2015-11-29T10:13:02.000Z</time>
      </trkpt>
      <trkpt lat="47.54103" lon="6.65358">
        <ele>497</ele>
        <time>2015-11-29T10:13:03.000Z</time>
      </trkpt>
      <trkpt lat="47.54098" lon="6.65352">
        <ele>497</ele>
        <time>2015-11-29T10:13:04.000Z</time>
      </trkpt>
      <trkpt lat="47.54092" lon="6.65346">
        <ele>496</ele>
        <time>2015-11-29T10:13:05.000Z</time>
      </trkpt>
      <trkpt lat="47.54087" lon="6.65339">
        <ele>496</ele>
        <time>2015-11-29T10:13:06.000Z</time>
      </trkpt>
      <trkpt lat="47.54083" lon="6.65332">
        <ele>495</ele>
        <time>2015-11-29T10:13:07.000Z</time>
      </trkpt>
      <trkpt lat="47.54079" lon="6.65326">
        <ele>494</ele>
        <time>2015-11-29T10:13:08.000Z</time>
      </trkpt>
      <trkpt lat="47.54076" lon="6.6532">
        <ele>494</ele>
        <time>2015-11-29T10:13:09.000Z</time>
      </trkpt>
      <trkpt lat="47.54066" lon="6.65293">
        <ele>493</ele>
        <time>2015-11-29T10:13:10.000Z</time>
      </trkpt>
      <trkpt lat="47.54062" lon="6.65287">
        <ele>493</ele>
        <time>2015-11-29T10:13:11.000Z</time>
      </trkpt>
      <trkpt lat="47.54057" lon="6.65282">
        <ele>492</ele>
        <time>2015-11-29T10:13:12.000Z</time>
      </trkpt>
      <trkpt lat="47.54053" lon="6.65272">
        <ele>492</ele>
        <time>2015-11-29T10:13:13.000Z</time>
      </trkpt>
      <trkpt lat="47.54049" lon="6.65265">
        <ele>492</ele>
        <time>2015-11-29T10:13:14.000Z</time>
      </trkpt>
      <trkpt lat="47.54045" lon="6.65257">
        <ele>492</ele>
        <time>2015-11-29T10:13:15.000Z</time>
      </trkpt>
      <trkpt lat="47.54042" lon="6.65252">
        <ele>492</ele>
        <time>2015-11-29T10:13:16.000Z</time>
      </trkpt>
      <trkpt lat="47.54039" lon="6.65245">
        <ele>487</ele>
        <time>2015-11-29T10:13:17.000Z</time>
      </trkpt>
      <trkpt lat="47.54035" lon="6.65239">
        <ele>487</ele>
        <time>2015-11-29T10:13:18.000Z</time>
      </trkpt>
      <trkpt lat="47.54031" lon="6.65229">
        <ele>486</ele>
        <time>2015-11-29T10:13:19.000Z</time>
      </trkpt>
      <trkpt lat="47.54027" lon="6.65224">
        <ele>486</ele>
        <time>2015-11-29T10:13:20.000Z</time>
      </trkpt>
      <trkpt lat="47.54023" lon="6.65212">
        <ele>486</ele>
        <time>2015-11-29T10:13:21.000Z</time>
      </trkpt>
      <trkpt lat="47.54019" lon="6.65202">
        <ele>485</ele>
        <time>2015-11-29T10:13:22.000Z</time>
      </trkpt>
      <trkpt lat="47.54015" lon="6.65195">
        <ele>485</ele>
        <time>2015-11-29T10:13:23.000Z</time>
      </trkpt>
      <trkpt lat="47.54011" lon="6.65187">
        <ele>484</ele>
        <time>2015-11-29T10:13:24.000Z</time>
      </trkpt>
      <trkpt lat="47.54007" lon="6.65182">
        <ele>484</ele>
        <time>2015-11-29T10:13:25.000Z</time>
      </trkpt>
      <trkpt lat="47.54003" lon="6.65175">
        <ele>484</ele>
        <time>2015-11-29T10:13:26.000Z</time>
      </trkpt>
      <trkpt lat="47.54001" lon="6.6517">
        <ele>483</ele>
        <time>2015-11-29T10:13:27.000Z</time>
      </trkpt>
      <trkpt lat="47.53997" lon="6.65167">
        <ele>484</ele>
        <time>2015-11-29T10:13:28.000Z</time>
      </trkpt>
      <trkpt lat="47.53994" lon="6.65157">
        <ele>483</ele>
        <time>2015-11-29T10:13:29.000Z</time>
      </trkpt>
      <trkpt lat="47.53992" lon="6.65153">
        <ele>483</ele>
        <time>2015-11-29T10:13:30.000Z</time>
      </trkpt>
      <trkpt lat="47.53989" lon="6.65148">
        <ele>483</ele>
        <time>2015-11-29T10:13:31.000Z</time>
      </trkpt>
      <trkpt lat="47.53988" lon="6.65146">
        <ele>483</ele>
        <time>2015-11-29T10:13:32.000Z</time>
      </trkpt>
      <trkpt lat="47.53986" lon="6.65142">
        <ele>483</ele>
        <time>2015-11-29T10:13:33.000Z</time>
      </trkpt>
      <trkpt lat="47.53983" lon="6.65138">
        <ele>483</ele>
        <time>2015-11-29T10:13:34.000Z</time>
      </trkpt>
      <trkpt lat="47.5398" lon="6.65134">
        <ele>483</ele>
        <time>2015-11-29T10:13:35.000Z</time>
      </trkpt>
      <trkpt lat="47.53978" lon="6.65131">
        <ele>483</ele>
        <time>2015-11-29T10:13:36.000Z</time>
      </trkpt>
      <trkpt lat="47.53975" lon="6.65129">
        <ele>483</ele>
        <time>2015-11-29T10:13:37.000Z</time>
      </trkpt>
      <trkpt lat="47.53972" lon="6.65126">
        <ele>483</ele>
        <time>2015-11-29T10:13:39.000Z</time>
      </trkpt>
      <trkpt lat="47.5397" lon="6.65125">
        <ele>483</ele>
        <time>2015-11-29T10:13:40.000Z</time>
      </trkpt>
      <trkpt lat="47.53968" lon="6.65121">
        <ele>483</ele>
        <time>2015-11-29T10:13:42.000Z</time>
      </trkpt>
      <trkpt lat="47.53966" lon="6.65119">
        <ele>483</ele>
        <time>2015-11-29T10:13:43.000Z</time>
      </trkpt>
      <trkpt lat="47.53964" lon="6.65116">
        <ele>483</ele>
        <time>2015-11-29T10:13:44.000Z</time>
      </trkpt>
      <trkpt lat="47.53962" lon="6.65112">
        <ele>483</ele>
        <time>2015-11-29T10:13:45.000Z</time>
      </trkpt>
      <trkpt lat="47.53961" lon="6.65109">
        <ele>483</ele>
        <time>2015-11-29T10:13:46.000Z</time>
      </trkpt>
      <trkpt lat="47.53958" lon="6.65107">
        <ele>483</ele>
        <time>2015-11-29T10:13:47.000Z</time>
      </trkpt>
      <trkpt lat="47.53956" lon="6.65105">
        <ele>483</ele>
        <time>2015-11-29T10:13:48.000Z</time>
      </trkpt>
      <trkpt lat="47.53954" lon="6.65102">
        <ele>483</ele>
        <time>2015-11-29T10:13:49.000Z</time>
      </trkpt>
      <trkpt lat="47.53952" lon="6.65099">
        <ele>483</ele>
        <time>2015-11-29T10:13:50.000Z</time>
      </trkpt>
      <trkpt lat="47.5395" lon="6.65097">
        <ele>483</ele>
        <time>2015-11-29T10:13:51.000Z</time>
      </trkpt>
      <trkpt lat="47.53948" lon="6.65092">
        <ele>483</ele>
        <time>2015-11-29T10:13:53.000Z</time>
      </trkpt>
      <trkpt lat="47.53946" lon="6.6509">
        <ele>483</ele>
        <time>2015-11-29T10:13:54.000Z</time>
      </trkpt>
      <trkpt lat="47.53944" lon="6.65088">
        <ele>484</ele>
        <time>2015-11-29T10:13:55.000Z</time>
      </trkpt>
      <trkpt lat="47.53941" lon="6.65086">
        <ele>484</ele>
        <time>2015-11-29T10:13:56.000Z</time>
      </trkpt>
      <trkpt lat="47.53939" lon="6.65084">
        <ele>484</ele>
        <time>2015-11-29T10:13:57.000Z</time>
      </trkpt>
      <trkpt lat="47.53936" lon="6.65083">
        <ele>480</ele>
        <time>2015-11-29T10:13:58.000Z</time>
      </trkpt>
      <trkpt lat="47.53933" lon="6.65082">
        <ele>480</ele>
        <time>2015-11-29T10:13:59.000Z</time>
      </trkpt>
      <trkpt lat="47.5393" lon="6.65081">
        <ele>481</ele>
        <time>2015-11-29T10:14:00.000Z</time>
      </trkpt>
      <trkpt lat="47.53927" lon="6.65081">
        <ele>481</ele>
        <time>2015-11-29T10:14:01.000Z</time>
      </trkpt>
      <trkpt lat="47.53925" lon="6.65079">
        <ele>482</ele>
        <time>2015-11-29T10:14:02.000Z</time>
      </trkpt>
      <trkpt lat="47.53922" lon="6.65075">
        <ele>482</ele>
        <time>2015-11-29T10:14:04.000Z</time>
      </trkpt>
      <trkpt lat="47.5392" lon="6.65073">
        <ele>481</ele>
        <time>2015-11-29T10:14:05.000Z</time>
      </trkpt>
      <trkpt lat="47.53917" lon="6.65072">
        <ele>481</ele>
        <time>2015-11-29T10:14:07.000Z</time>
      </trkpt>
      <trkpt lat="47.53916" lon="6.65072">
        <ele>484</ele>
        <time>2015-11-29T10:14:08.000Z</time>
      </trkpt>
      <trkpt lat="47.53912" lon="6.65072">
        <ele>484</ele>
        <time>2015-11-29T10:14:10.000Z</time>
      </trkpt>
      <trkpt lat="47.5391" lon="6.65072">
        <ele>484</ele>
        <time>2015-11-29T10:14:11.000Z</time>
      </trkpt>
      <trkpt lat="47.53907" lon="6.65072">
        <ele>483</ele>
        <time>2015-11-29T10:14:12.000Z</time>
      </trkpt>
      <trkpt lat="47.53904" lon="6.65072">
        <ele>483</ele>
        <time>2015-11-29T10:14:13.000Z</time>
      </trkpt>
      <trkpt lat="47.53901" lon="6.65072">
        <ele>483</ele>
        <time>2015-11-29T10:14:14.000Z</time>
      </trkpt>
      <trkpt lat="47.53899" lon="6.65071">
        <ele>483</ele>
        <time>2015-11-29T10:14:15.000Z</time>
      </trkpt>
      <trkpt lat="47.53896" lon="6.65069">
        <ele>483</ele>
        <time>2015-11-29T10:14:16.000Z</time>
      </trkpt>
      <trkpt lat="47.53892" lon="6.65065">
        <ele>483</ele>
        <time>2015-11-29T10:14:17.000Z</time>
      </trkpt>
      <trkpt lat="47.53889" lon="6.65061">
        <ele>483</ele>
        <time>2015-11-29T10:14:18.000Z</time>
      </trkpt>
      <trkpt lat="47.53885" lon="6.65057">
        <ele>482</ele>
        <time>2015-11-29T10:14:19.000Z</time>
      </trkpt>
      <trkpt lat="47.53881" lon="6.65053">
        <ele>482</ele>
        <time>2015-11-29T10:14:20.000Z</time>
      </trkpt>
      <trkpt lat="47.53877" lon="6.65049">
        <ele>482</ele>
        <time>2015-11-29T10:14:21.000Z</time>
      </trkpt>
      <trkpt lat="47.53874" lon="6.65046">
        <ele>482</ele>
        <time>2015-11-29T10:14:22.000Z</time>
      </trkpt>
      <trkpt lat="47.5387" lon="6.65043">
        <ele>482</ele>
        <time>2015-11-29T10:14:23.000Z</time>
      </trkpt>
      <trkpt lat="47.53867" lon="6.6504">
        <ele>482</ele>
        <time>2015-11-29T10:14:24.000Z</time>
      </trkpt>
      <trkpt lat="47.53864" lon="6.65038">
        <ele>482</ele>
        <time>2015-11-29T10:14:25.000Z</time>
      </trkpt>
      <trkpt lat="47.5386" lon="6.65035">
        <ele>482</ele>
        <time>2015-11-29T10:14:26.000Z</time>
      </trkpt>
      <trkpt lat="47.53857" lon="6.65033">
        <ele>482</ele>
        <time>2015-11-29T10:14:27.000Z</time>
      </trkpt>
      <trkpt lat="47.53853" lon="6.65031">
        <ele>482</ele>
        <time>2015-11-29T10:14:28.000Z</time>
      </trkpt>
      <trkpt lat="47.53849" lon="6.65028">
        <ele>482</ele>
        <time>2015-11-29T10:14:29.000Z</time>
      </trkpt>
      <trkpt lat="47.53844" lon="6.65025">
        <ele>481</ele>
        <time>2015-11-29T10:14:30.000Z</time>
      </trkpt>
      <trkpt lat="47.5384" lon="6.65021">
        <ele>481</ele>
        <time>2015-11-29T10:14:31.000Z</time>
      </trkpt>
      <trkpt lat="47.53836" lon="6.65017">
        <ele>481</ele>
        <time>2015-11-29T10:14:32.000Z</time>
      </trkpt>
      <trkpt lat="47.53831" lon="6.65014">
        <ele>481</ele>
        <time>2015-11-29T10:14:33.000Z</time>
      </trkpt>
      <trkpt lat="47.53828" lon="6.65011">
        <ele>481</ele>
        <time>2015-11-29T10:14:34.000Z</time>
      </trkpt>
      <trkpt lat="47.53825" lon="6.65009">
        <ele>481</ele>
        <time>2015-11-29T10:14:35.000Z</time>
      </trkpt>
      <trkpt lat="47.53822" lon="6.65008">
        <ele>481</ele>
        <time>2015-11-29T10:14:36.000Z</time>
      </trkpt>
      <trkpt lat="47.53819" lon="6.65006">
        <ele>481</ele>
        <time>2015-11-29T10:14:37.000Z</time>
      </trkpt>
      <trkpt lat="47.53816" lon="6.65005">
        <ele>481</ele>
        <time>2015-11-29T10:14:38.000Z</time>
      </trkpt>
      <trkpt lat="47.53813" lon="6.65004">
        <ele>481</ele>
        <time>2015-11-29T10:14:39.000Z</time>
      </trkpt>
      <trkpt lat="47.5381" lon="6.65002">
        <ele>481</ele>
        <time>2015-11-29T10:14:40.000Z</time>
      </trkpt>
      <trkpt lat="47.53807" lon="6.65">
        <ele>481</ele>
        <time>2015-11-29T10:14:41.000Z</time>
      </trkpt>
      <trkpt lat="47.53803" lon="6.64998">
        <ele>477</ele>
        <time>2015-11-29T10:14:42.000Z</time>
      </trkpt>
      <trkpt lat="47.53799" lon="6.64995">
        <ele>476</ele>
        <time>2015-11-29T10:14:43.000Z</time>
      </trkpt>
      <trkpt lat="47.53795" lon="6.64992">
        <ele>476</ele>
        <time>2015-11-29T10:14:44.000Z</time>
      </trkpt>
      <trkpt lat="47.53791" lon="6.64989">
        <ele>476</ele>
        <time>2015-11-29T10:14:45.000Z</time>
      </trkpt>
      <trkpt lat="47.53788" lon="6.64987">
        <ele>476</ele>
        <time>2015-11-29T10:14:46.000Z</time>
      </trkpt>
      <trkpt lat="47.53786" lon="6.64985">
        <ele>476</ele>
        <time>2015-11-29T10:14:47.000Z</time>
      </trkpt>
      <trkpt lat="47.53784" lon="6.64983">
        <ele>476</ele>
        <time>2015-11-29T10:14:48.000Z</time>
      </trkpt>
      <trkpt lat="47.53782" lon="6.6498">
        <ele>476</ele>
        <time>2015-11-29T10:14:49.000Z</time>
      </trkpt>
      <trkpt lat="47.5378" lon="6.64977">
        <ele>475</ele>
        <time>2015-11-29T10:14:50.000Z</time>
      </trkpt>
      <trkpt lat="47.53777" lon="6.64974">
        <ele>475</ele>
        <time>2015-11-29T10:14:51.000Z</time>
      </trkpt>
      <trkpt lat="47.53775" lon="6.64972">
        <ele>475</ele>
        <time>2015-11-29T10:14:52.000Z</time>
      </trkpt>
      <trkpt lat="47.53772" lon="6.64969">
        <ele>475</ele>
        <time>2015-11-29T10:14:53.000Z</time>
      </trkpt>
      <trkpt lat="47.5377" lon="6.64968">
        <ele>475</ele>
        <time>2015-11-29T10:14:54.000Z</time>
      </trkpt>
      <trkpt lat="47.53767" lon="6.64963">
        <ele>475</ele>
        <time>2015-11-29T10:14:55.000Z</time>
      </trkpt>
      <trkpt lat="47.53766" lon="6.64961">
        <ele>475</ele>
        <time>2015-11-29T10:14:56.000Z</time>
      </trkpt>
      <trkpt lat="47.53762" lon="6.64956">
        <ele>474</ele>
        <time>2015-11-29T10:15:01.000Z</time>
      </trkpt>
      <trkpt lat="47.53762" lon="6.64955">
        <ele>474</ele>
        <time>2015-11-29T10:15:02.000Z</time>
      </trkpt>
      <trkpt lat="47.53757" lon="6.64955">
        <ele>474</ele>
        <time>2015-11-29T10:15:13.000Z</time>
      </trkpt>
      <trkpt lat="47.53757" lon="6.64956">
        <ele>474</ele>
        <time>2015-11-29T10:15:14.000Z</time>
      </trkpt>
      <trkpt lat="47.53753" lon="6.64955">
        <ele>474</ele>
        <time>2015-11-29T10:15:22.000Z</time>
      </trkpt>
      <trkpt lat="47.53752" lon="6.64955">
        <ele>474</ele>
        <time>2015-11-29T10:15:23.000Z</time>
      </trkpt>
      <trkpt lat="47.53749" lon="6.64954">
        <ele>474</ele>
        <time>2015-11-29T10:15:25.000Z</time>
      </trkpt>
      <trkpt lat="47.53747" lon="6.64953">
        <ele>474</ele>
        <time>2015-11-29T10:15:26.000Z</time>
      </trkpt>
      <trkpt lat="47.53744" lon="6.64953">
        <ele>474</ele>
        <time>2015-11-29T10:15:27.000Z</time>
      </trkpt>
      <trkpt lat="47.53741" lon="6.64953">
        <ele>474</ele>
        <time>2015-11-29T10:15:28.000Z</time>
      </trkpt>
      <trkpt lat="47.53738" lon="6.64954">
        <ele>474</ele>
        <time>2015-11-29T10:15:29.000Z</time>
      </trkpt>
      <trkpt lat="47.53734" lon="6.64954">
        <ele>474</ele>
        <time>2015-11-29T10:15:30.000Z</time>
      </trkpt>
      <trkpt lat="47.53731" lon="6.64954">
        <ele>474</ele>
        <time>2015-11-29T10:15:31.000Z</time>
      </trkpt>
      <trkpt lat="47.53729" lon="6.64954">
        <ele>474</ele>
        <time>2015-11-29T10:15:32.000Z</time>
      </trkpt>
      <trkpt lat="47.53727" lon="6.64955">
        <ele>474</ele>
        <time>2015-11-29T10:15:33.000Z</time>
      </trkpt>
      <trkpt lat="47.53724" lon="6.64958">
        <ele>474</ele>
        <time>2015-11-29T10:15:34.000Z</time>
      </trkpt>
      <trkpt lat="47.53722" lon="6.6496">
        <ele>474</ele>
        <time>2015-11-29T10:15:35.000Z</time>
      </trkpt>
      <trkpt lat="47.5372" lon="6.64963">
        <ele>474</ele>
        <time>2015-11-29T10:15:36.000Z</time>
      </trkpt>
      <trkpt lat="47.53717" lon="6.64966">
        <ele>474</ele>
        <time>2015-11-29T10:15:38.000Z</time>
      </trkpt>
      <trkpt lat="47.53715" lon="6.64967">
        <ele>474</ele>
        <time>2015-11-29T10:15:39.000Z</time>
      </trkpt>
      <trkpt lat="47.53712" lon="6.6497">
        <ele>474</ele>
        <time>2015-11-29T10:15:41.000Z</time>
      </trkpt>
      <trkpt lat="47.5371" lon="6.64971">
        <ele>474</ele>
        <time>2015-11-29T10:15:42.000Z</time>
      </trkpt>
      <trkpt lat="47.53707" lon="6.64974">
        <ele>474</ele>
        <time>2015-11-29T10:15:44.000Z</time>
      </trkpt>
      <trkpt lat="47.53706" lon="6.64976">
        <ele>474</ele>
        <time>2015-11-29T10:15:45.000Z</time>
      </trkpt>
      <trkpt lat="47.53704" lon="6.64978">
        <ele>474</ele>
        <time>2015-11-29T10:15:46.000Z</time>
      </trkpt>
      <trkpt lat="47.53702" lon="6.6498">
        <ele>474</ele>
        <time>2015-11-29T10:15:47.000Z</time>
      </trkpt>
      <trkpt lat="47.53699" lon="6.64983">
        <ele>474</ele>
        <time>2015-11-29T10:15:48.000Z</time>
      </trkpt>
      <trkpt lat="47.53697" lon="6.64985">
        <ele>474</ele>
        <time>2015-11-29T10:15:49.000Z</time>
      </trkpt>
      <trkpt lat="47.53693" lon="6.64988">
        <ele>474</ele>
        <time>2015-11-29T10:15:51.000Z</time>
      </trkpt>
      <trkpt lat="47.53691" lon="6.64988">
        <ele>474</ele>
        <time>2015-11-29T10:15:52.000Z</time>
      </trkpt>
      <trkpt lat="47.53689" lon="6.64989">
        <ele>474</ele>
        <time>2015-11-29T10:15:53.000Z</time>
      </trkpt>
      <trkpt lat="47.53687" lon="6.64991">
        <ele>474</ele>
        <time>2015-11-29T10:15:54.000Z</time>
      </trkpt>
      <trkpt lat="47.53684" lon="6.64993">
        <ele>474</ele>
        <time>2015-11-29T10:15:55.000Z</time>
      </trkpt>
      <trkpt lat="47.53682" lon="6.64995">
        <ele>474</ele>
        <time>2015-11-29T10:15:56.000Z</time>
      </trkpt>
      <trkpt lat="47.53679" lon="6.64997">
        <ele>475</ele>
        <time>2015-11-29T10:15:57.000Z</time>
      </trkpt>
      <trkpt lat="47.53677" lon="6.64999">
        <ele>475</ele>
        <time>2015-11-29T10:15:58.000Z</time>
      </trkpt>
      <trkpt lat="47.53675" lon="6.65">
        <ele>475</ele>
        <time>2015-11-29T10:15:59.000Z</time>
      </trkpt>
      <trkpt lat="47.53672" lon="6.65002">
        <ele>476</ele>
        <time>2015-11-29T10:16:00.000Z</time>
      </trkpt>
      <trkpt lat="47.5367" lon="6.65004">
        <ele>476</ele>
        <time>2015-11-29T10:16:01.000Z</time>
      </trkpt>
      <trkpt lat="47.53667" lon="6.65006">
        <ele>476</ele>
        <time>2015-11-29T10:16:02.000Z</time>
      </trkpt>
      <trkpt lat="47.53664" lon="6.65008">
        <ele>475</ele>
        <time>2015-11-29T10:16:03.000Z</time>
      </trkpt>
      <trkpt lat="47.53661" lon="6.6501">
        <ele>475</ele>
        <time>2015-11-29T10:16:04.000Z</time>
      </trkpt>
      <trkpt lat="47.53657" lon="6.65012">
        <ele>475</ele>
        <time>2015-11-29T10:16:05.000Z</time>
      </trkpt>
      <trkpt lat="47.53654" lon="6.65014">
        <ele>475</ele>
        <time>2015-11-29T10:16:06.000Z</time>
      </trkpt>
      <trkpt lat="47.53651" lon="6.65016">
        <ele>475</ele>
        <time>2015-11-29T10:16:07.000Z</time>
      </trkpt>
      <trkpt lat="47.53649" lon="6.65018">
        <ele>475</ele>
        <time>2015-11-29T10:16:08.000Z</time>
      </trkpt>
      <trkpt lat="47.53647" lon="6.65021">
        <ele>475</ele>
        <time>2015-11-29T10:16:09.000Z</time>
      </trkpt>
      <trkpt lat="47.53644" lon="6.65023">
        <ele>475</ele>
        <time>2015-11-29T10:16:10.000Z</time>
      </trkpt>
      <trkpt lat="47.53641" lon="6.65026">
        <ele>475</ele>
        <time>2015-11-29T10:16:11.000Z</time>
      </trkpt>
      <trkpt lat="47.53637" lon="6.65029">
        <ele>475</ele>
        <time>2015-11-29T10:16:12.000Z</time>
      </trkpt>
      <trkpt lat="47.53632" lon="6.65032">
        <ele>475</ele>
        <time>2015-11-29T10:16:13.000Z</time>
      </trkpt>
      <trkpt lat="47.53626" lon="6.65036">
        <ele>474</ele>
        <time>2015-11-29T10:16:14.000Z</time>
      </trkpt>
      <trkpt lat="47.53622" lon="6.65038">
        <ele>474</ele>
        <time>2015-11-29T10:16:15.000Z</time>
      </trkpt>
      <trkpt lat="47.53618" lon="6.6504">
        <ele>474</ele>
        <time>2015-11-29T10:16:16.000Z</time>
      </trkpt>
      <trkpt lat="47.53615" lon="6.65042">
        <ele>474</ele>
        <time>2015-11-29T10:16:17.000Z</time>
      </trkpt>
      <trkpt lat="47.53612" lon="6.65043">
        <ele>474</ele>
        <time>2015-11-29T10:16:18.000Z</time>
      </trkpt>
      <trkpt lat="47.53609" lon="6.65044">
        <ele>474</ele>
        <time>2015-11-29T10:16:19.000Z</time>
      </trkpt>
      <trkpt lat="47.53605" lon="6.65045">
        <ele>474</ele>
        <time>2015-11-29T10:16:20.000Z</time>
      </trkpt>
      <trkpt lat="47.53601" lon="6.65045">
        <ele>474</ele>
        <time>2015-11-29T10:16:21.000Z</time>
      </trkpt>
      <trkpt lat="47.53596" lon="6.65046">
        <ele>474</ele>
        <time>2015-11-29T10:16:22.000Z</time>
      </trkpt>
      <trkpt lat="47.53591" lon="6.65048">
        <ele>474</ele>
        <time>2015-11-29T10:16:23.000Z</time>
      </trkpt>
      <trkpt lat="47.53579" lon="6.65061">
        <ele>470</ele>
        <time>2015-11-29T10:16:24.000Z</time>
      </trkpt>
      <trkpt lat="47.53575" lon="6.65067">
        <ele>470</ele>
        <time>2015-11-29T10:16:25.000Z</time>
      </trkpt>
      <trkpt lat="47.53569" lon="6.65073">
        <ele>470</ele>
        <time>2015-11-29T10:16:26.000Z</time>
      </trkpt>
      <trkpt lat="47.53564" lon="6.65081">
        <ele>470</ele>
        <time>2015-11-29T10:16:27.000Z</time>
      </trkpt>
      <trkpt lat="47.53559" lon="6.65089">
        <ele>471</ele>
        <time>2015-11-29T10:16:28.000Z</time>
      </trkpt>
      <trkpt lat="47.53554" lon="6.65097">
        <ele>471</ele>
        <time>2015-11-29T10:16:29.000Z</time>
      </trkpt>
      <trkpt lat="47.5355" lon="6.65106">
        <ele>470</ele>
        <time>2015-11-29T10:16:30.000Z</time>
      </trkpt>
      <trkpt lat="47.53543" lon="6.65111">
        <ele>470</ele>
        <time>2015-11-29T10:16:31.000Z</time>
      </trkpt>
      <trkpt lat="47.53538" lon="6.6512">
        <ele>470</ele>
        <time>2015-11-29T10:16:32.000Z</time>
      </trkpt>
      <trkpt lat="47.53533" lon="6.65127">
        <ele>470</ele>
        <time>2015-11-29T10:16:33.000Z</time>
      </trkpt>
      <trkpt lat="47.53528" lon="6.65135">
        <ele>470</ele>
        <time>2015-11-29T10:16:34.000Z</time>
      </trkpt>
      <trkpt lat="47.53526" lon="6.65145">
        <ele>470</ele>
        <time>2015-11-29T10:16:35.000Z</time>
      </trkpt>
      <trkpt lat="47.53523" lon="6.65153">
        <ele>469</ele>
        <time>2015-11-29T10:16:36.000Z</time>
      </trkpt>
      <trkpt lat="47.53521" lon="6.65161">
        <ele>469</ele>
        <time>2015-11-29T10:16:36.998Z</time>
      </trkpt>
      <trkpt lat="47.53512" lon="6.65168">
        <ele>469</ele>
        <time>2015-11-29T10:16:38.000Z</time>
      </trkpt>
      <trkpt lat="47.53507" lon="6.65175">
        <ele>468</ele>
        <time>2015-11-29T10:16:39.000Z</time>
      </trkpt>
      <trkpt lat="47.53502" lon="6.65182">
        <ele>469</ele>
        <time>2015-11-29T10:16:40.000Z</time>
      </trkpt>
      <trkpt lat="47.53497" lon="6.65189">
        <ele>465</ele>
        <time>2015-11-29T10:16:41.000Z</time>
      </trkpt>
      <trkpt lat="47.53491" lon="6.65196">
        <ele>465</ele>
        <time>2015-11-29T10:16:42.000Z</time>
      </trkpt>
      <trkpt lat="47.53486" lon="6.65203">
        <ele>464</ele>
        <time>2015-11-29T10:16:43.000Z</time>
      </trkpt>
      <trkpt lat="47.53481" lon="6.65211">
        <ele>464</ele>
        <time>2015-11-29T10:16:44.000Z</time>
      </trkpt>
      <trkpt lat="47.53476" lon="6.65219">
        <ele>464</ele>
        <time>2015-11-29T10:16:45.000Z</time>
      </trkpt>
      <trkpt lat="47.53471" lon="6.65226">
        <ele>464</ele>
        <time>2015-11-29T10:16:46.000Z</time>
      </trkpt>
      <trkpt lat="47.53464" lon="6.65233">
        <ele>464</ele>
        <time>2015-11-29T10:16:47.000Z</time>
      </trkpt>
      <trkpt lat="47.53456" lon="6.65233">
        <ele>463</ele>
        <time>2015-11-29T10:16:48.000Z</time>
      </trkpt>
      <trkpt lat="47.53452" lon="6.65233">
        <ele>463</ele>
        <time>2015-11-29T10:16:49.000Z</time>
      </trkpt>
      <trkpt lat="47.53448" lon="6.65234">
        <ele>463</ele>
        <time>2015-11-29T10:16:50.000Z</time>
      </trkpt>
      <trkpt lat="47.53446" lon="6.65233">
        <ele>463</ele>
        <time>2015-11-29T10:16:51.000Z</time>
      </trkpt>
      <trkpt lat="47.53443" lon="6.65231">
        <ele>462</ele>
        <time>2015-11-29T10:16:52.000Z</time>
      </trkpt>
      <trkpt lat="47.53439" lon="6.65229">
        <ele>462</ele>
        <time>2015-11-29T10:16:53.000Z</time>
      </trkpt>
      <trkpt lat="47.53437" lon="6.65227">
        <ele>462</ele>
        <time>2015-11-29T10:16:54.000Z</time>
      </trkpt>
      <trkpt lat="47.53433" lon="6.65224">
        <ele>462</ele>
        <time>2015-11-29T10:17:00.000Z</time>
      </trkpt>
      <trkpt lat="47.53433" lon="6.65224">
        <ele>462</ele>
        <time>2015-11-29T10:17:01.000Z</time>
      </trkpt>
      <trkpt lat="47.53429" lon="6.6522">
        <ele>462</ele>
        <time>2015-11-29T10:18:01.000Z</time>
      </trkpt>
      <trkpt lat="47.53429" lon="6.6522">
        <ele>462</ele>
        <time>2015-11-29T10:18:02.000Z</time>
      </trkpt>
      <trkpt lat="47.53426" lon="6.65218">
        <ele>462</ele>
        <time>2015-11-29T10:18:53.000Z</time>
      </trkpt>
      <trkpt lat="47.53425" lon="6.65217">
        <ele>462</ele>
        <time>2015-11-29T10:18:54.000Z</time>
      </trkpt>
      <trkpt lat="47.53423" lon="6.65215">
        <ele>462</ele>
        <time>2015-11-29T10:18:55.000Z</time>
      </trkpt>
      <trkpt lat="47.5342" lon="6.65213">
        <ele>462</ele>
        <time>2015-11-29T10:18:56.000Z</time>
      </trkpt>
      <trkpt lat="47.53418" lon="6.6521">
        <ele>462</ele>
        <time>2015-11-29T10:18:57.000Z</time>
      </trkpt>
      <trkpt lat="47.53416" lon="6.65208">
        <ele>457</ele>
        <time>2015-11-29T10:18:58.000Z</time>
      </trkpt>
      <trkpt lat="47.53414" lon="6.65206">
        <ele>457</ele>
        <time>2015-11-29T10:18:59.000Z</time>
      </trkpt>
      <trkpt lat="47.53412" lon="6.65205">
        <ele>457</ele>
        <time>2015-11-29T10:19:00.000Z</time>
      </trkpt>
      <trkpt lat="47.53409" lon="6.65202">
        <ele>457</ele>
        <time>2015-11-29T10:19:01.000Z</time>
      </trkpt>
      <trkpt lat="47.53406" lon="6.65199">
        <ele>457</ele>
        <time>2015-11-29T10:19:02.000Z</time>
      </trkpt>
      <trkpt lat="47.53402" lon="6.65195">
        <ele>457</ele>
        <time>2015-11-29T10:19:03.000Z</time>
      </trkpt>
      <trkpt lat="47.53399" lon="6.65191">
        <ele>457</ele>
        <time>2015-11-29T10:19:04.000Z</time>
      </trkpt>
      <trkpt lat="47.5339" lon="6.65176">
        <ele>457</ele>
        <time>2015-11-29T10:19:05.000Z</time>
      </trkpt>
      <trkpt lat="47.53383" lon="6.65168">
        <ele>456</ele>
        <time>2015-11-29T10:19:06.000Z</time>
      </trkpt>
      <trkpt lat="47.53376" lon="6.65161">
        <ele>455</ele>
        <time>2015-11-29T10:19:07.000Z</time>
      </trkpt>
      <trkpt lat="47.53372" lon="6.65153">
        <ele>455</ele>
        <time>2015-11-29T10:19:08.000Z</time>
      </trkpt>
      <trkpt lat="47.53367" lon="6.65144">
        <ele>455</ele>
        <time>2015-11-29T10:19:09.000Z</time>
      </trkpt>
      <trkpt lat="47.53362" lon="6.65133">
        <ele>454</ele>
        <time>2015-11-29T10:19:10.000Z</time>
      </trkpt>
      <trkpt lat="47.53356" lon="6.65124">
        <ele>454</ele>
        <time>2015-11-29T10:19:11.000Z</time>
      </trkpt>
      <trkpt lat="47.5335" lon="6.65114">
        <ele>454</ele>
        <time>2015-11-29T10:19:12.000Z</time>
      </trkpt>
      <trkpt lat="47.53342" lon="6.65103">
        <ele>453</ele>
        <time>2015-11-29T10:19:13.000Z</time>
      </trkpt>
      <trkpt lat="47.53335" lon="6.65093">
        <ele>452</ele>
        <time>2015-11-29T10:19:14.000Z</time>
      </trkpt>
      <trkpt lat="47.53329" lon="6.65085">
        <ele>451</ele>
        <time>2015-11-29T10:19:15.000Z</time>
      </trkpt>
      <trkpt lat="47.53322" lon="6.65078">
        <ele>449</ele>
        <time>2015-11-29T10:19:16.000Z</time>
      </trkpt>
      <trkpt lat="47.53318" lon="6.65072">
        <ele>448</ele>
        <time>2015-11-29T10:19:17.000Z</time>
      </trkpt>
      <trkpt lat="47.53313" lon="6.65067">
        <ele>448</ele>
        <time>2015-11-29T10:19:18.000Z</time>
      </trkpt>
      <trkpt lat="47.53306" lon="6.6506">
        <ele>447</ele>
        <time>2015-11-29T10:19:19.000Z</time>
      </trkpt>
      <trkpt lat="47.53302" lon="6.65048">
        <ele>446</ele>
        <time>2015-11-29T10:19:20.000Z</time>
      </trkpt>
      <trkpt lat="47.53296" lon="6.6504">
        <ele>446</ele>
        <time>2015-11-29T10:19:21.000Z</time>
      </trkpt>
      <trkpt lat="47.5329" lon="6.65034">
        <ele>445</ele>
        <time>2015-11-29T10:19:22.000Z</time>
      </trkpt>
      <trkpt lat="47.53284" lon="6.65027">
        <ele>445</ele>
        <time>2015-11-29T10:19:23.000Z</time>
      </trkpt>
      <trkpt lat="47.53278" lon="6.65021">
        <ele>444</ele>
        <time>2015-11-29T10:19:24.000Z</time>
      </trkpt>
      <trkpt lat="47.53274" lon="6.65015">
        <ele>444</ele>
        <time>2015-11-29T10:19:25.000Z</time>
      </trkpt>
      <trkpt lat="47.53269" lon="6.65009">
        <ele>443</ele>
        <time>2015-11-29T10:19:26.000Z</time>
      </trkpt>
      <trkpt lat="47.53264" lon="6.65006">
        <ele>443</ele>
        <time>2015-11-29T10:19:27.000Z</time>
      </trkpt>
      <trkpt lat="47.53258" lon="6.65002">
        <ele>442</ele>
        <time>2015-11-29T10:19:28.000Z</time>
      </trkpt>
      <trkpt lat="47.53253" lon="6.65002">
        <ele>441</ele>
        <time>2015-11-29T10:19:29.000Z</time>
      </trkpt>
      <trkpt lat="47.53249" lon="6.65005">
        <ele>440</ele>
        <time>2015-11-29T10:19:30.000Z</time>
      </trkpt>
      <trkpt lat="47.53245" lon="6.65007">
        <ele>440</ele>
        <time>2015-11-29T10:19:31.000Z</time>
      </trkpt>
      <trkpt lat="47.53241" lon="6.65007">
        <ele>440</ele>
        <time>2015-11-29T10:19:32.000Z</time>
      </trkpt>
      <trkpt lat="47.53236" lon="6.65006">
        <ele>440</ele>
        <time>2015-11-29T10:19:33.000Z</time>
      </trkpt>
      <trkpt lat="47.53232" lon="6.65007">
        <ele>440</ele>
        <time>2015-11-29T10:19:34.000Z</time>
      </trkpt>
      <trkpt lat="47.53227" lon="6.65008">
        <ele>440</ele>
        <time>2015-11-29T10:19:35.000Z</time>
      </trkpt>
      <trkpt lat="47.53223" lon="6.65006">
        <ele>439</ele>
        <time>2015-11-29T10:19:36.000Z</time>
      </trkpt>
      <trkpt lat="47.53219" lon="6.65006">
        <ele>439</ele>
        <time>2015-11-29T10:19:37.000Z</time>
      </trkpt>
      <trkpt lat="47.53214" lon="6.65005">
        <ele>439</ele>
        <time>2015-11-29T10:19:38.000Z</time>
      </trkpt>
      <trkpt lat="47.5321" lon="6.65004">
        <ele>439</ele>
        <time>2015-11-29T10:19:39.000Z</time>
      </trkpt>
      <trkpt lat="47.53206" lon="6.65004">
        <ele>439</ele>
        <time>2015-11-29T10:19:40.000Z</time>
      </trkpt>
      <trkpt lat="47.53202" lon="6.65004">
        <ele>438</ele>
        <time>2015-11-29T10:19:41.000Z</time>
      </trkpt>
      <trkpt lat="47.53199" lon="6.65006">
        <ele>438</ele>
        <time>2015-11-29T10:19:42.000Z</time>
      </trkpt>
      <trkpt lat="47.53195" lon="6.65008">
        <ele>438</ele>
        <time>2015-11-29T10:19:43.000Z</time>
      </trkpt>
      <trkpt lat="47.53193" lon="6.6501">
        <ele>438</ele>
        <time>2015-11-29T10:19:44.000Z</time>
      </trkpt>
      <trkpt lat="47.5319" lon="6.65012">
        <ele>438</ele>
        <time>2015-11-29T10:19:45.000Z</time>
      </trkpt>
      <trkpt lat="47.53188" lon="6.65015">
        <ele>438</ele>
        <time>2015-11-29T10:19:46.000Z</time>
      </trkpt>
      <trkpt lat="47.53186" lon="6.65016">
        <ele>438</ele>
        <time>2015-11-29T10:19:47.000Z</time>
      </trkpt>
      <trkpt lat="47.53184" lon="6.65018">
        <ele>438</ele>
        <time>2015-11-29T10:19:48.000Z</time>
      </trkpt>
      <trkpt lat="47.5318" lon="6.6502">
        <ele>438</ele>
        <time>2015-11-29T10:19:49.000Z</time>
      </trkpt>
      <trkpt lat="47.53176" lon="6.65023">
        <ele>438</ele>
        <time>2015-11-29T10:19:50.000Z</time>
      </trkpt>
      <trkpt lat="47.53171" lon="6.65026">
        <ele>438</ele>
        <time>2015-11-29T10:19:51.000Z</time>
      </trkpt>
      <trkpt lat="47.53166" lon="6.65029">
        <ele>435</ele>
        <time>2015-11-29T10:19:52.000Z</time>
      </trkpt>
      <trkpt lat="47.53161" lon="6.65031">
        <ele>435</ele>
        <time>2015-11-29T10:19:53.000Z</time>
      </trkpt>
      <trkpt lat="47.53155" lon="6.65034">
        <ele>435</ele>
        <time>2015-11-29T10:19:54.000Z</time>
      </trkpt>
      <trkpt lat="47.5315" lon="6.65036">
        <ele>435</ele>
        <time>2015-11-29T10:19:55.000Z</time>
      </trkpt>
      <trkpt lat="47.53144" lon="6.65038">
        <ele>435</ele>
        <time>2015-11-29T10:19:56.000Z</time>
      </trkpt>
      <trkpt lat="47.53138" lon="6.65041">
        <ele>434</ele>
        <time>2015-11-29T10:19:57.000Z</time>
      </trkpt>
      <trkpt lat="47.53133" lon="6.65044">
        <ele>434</ele>
        <time>2015-11-29T10:19:58.000Z</time>
      </trkpt>
      <trkpt lat="47.53127" lon="6.65048">
        <ele>434</ele>
        <time>2015-11-29T10:19:59.000Z</time>
      </trkpt>
      <trkpt lat="47.53108" lon="6.65059">
        <ele>434</ele>
        <time>2015-11-29T10:20:00.000Z</time>
      </trkpt>
      <trkpt lat="47.53102" lon="6.65063">
        <ele>434</ele>
        <time>2015-11-29T10:20:01.000Z</time>
      </trkpt>
      <trkpt lat="47.53094" lon="6.65067">
        <ele>434</ele>
        <time>2015-11-29T10:20:02.000Z</time>
      </trkpt>
      <trkpt lat="47.53087" lon="6.6507">
        <ele>433</ele>
        <time>2015-11-29T10:20:03.000Z</time>
      </trkpt>
      <trkpt lat="47.53078" lon="6.65073">
        <ele>431</ele>
        <time>2015-11-29T10:20:04.000Z</time>
      </trkpt>
      <trkpt lat="47.5307" lon="6.65083">
        <ele>430</ele>
        <time>2015-11-29T10:20:05.000Z</time>
      </trkpt>
      <trkpt lat="47.53063" lon="6.65092">
        <ele>431</ele>
        <time>2015-11-29T10:20:06.000Z</time>
      </trkpt>
      <trkpt lat="47.53055" lon="6.65104">
        <ele>431</ele>
        <time>2015-11-29T10:20:07.000Z</time>
      </trkpt>
      <trkpt lat="47.53046" lon="6.65111">
        <ele>430</ele>
        <time>2015-11-29T10:20:08.000Z</time>
      </trkpt>
      <trkpt lat="47.53035" lon="6.65121">
        <ele>430</ele>
        <time>2015-11-29T10:20:09.000Z</time>
      </trkpt>
      <trkpt lat="47.53027" lon="6.65131">
        <ele>429</ele>
        <time>2015-11-29T10:20:10.000Z</time>
      </trkpt>
      <trkpt lat="47.53018" lon="6.65136">
        <ele>429</ele>
        <time>2015-11-29T10:20:11.000Z</time>
      </trkpt>
      <trkpt lat="47.53008" lon="6.65138">
        <ele>429</ele>
        <time>2015-11-29T10:20:12.000Z</time>
      </trkpt>
      <trkpt lat="47.52998" lon="6.65139">
        <ele>424</ele>
        <time>2015-11-29T10:20:13.000Z</time>
      </trkpt>
      <trkpt lat="47.52987" lon="6.6514">
        <ele>423</ele>
        <time>2015-11-29T10:20:14.000Z</time>
      </trkpt>
      <trkpt lat="47.52976" lon="6.65143">
        <ele>423</ele>
        <time>2015-11-29T10:20:15.000Z</time>
      </trkpt>
      <trkpt lat="47.52967" lon="6.65145">
        <ele>422</ele>
        <time>2015-11-29T10:20:16.000Z</time>
      </trkpt>
      <trkpt lat="47.52958" lon="6.65146">
        <ele>422</ele>
        <time>2015-11-29T10:20:17.000Z</time>
      </trkpt>
      <trkpt lat="47.52949" lon="6.6515">
        <ele>421</ele>
        <time>2015-11-29T10:20:18.000Z</time>
      </trkpt>
      <trkpt lat="47.52942" lon="6.65154">
        <ele>421</ele>
        <time>2015-11-29T10:20:19.000Z</time>
      </trkpt>
      <trkpt lat="47.5293" lon="6.65153">
        <ele>420</ele>
        <time>2015-11-29T10:20:20.000Z</time>
      </trkpt>
      <trkpt lat="47.52921" lon="6.65153">
        <ele>419</ele>
        <time>2015-11-29T10:20:21.000Z</time>
      </trkpt>
      <trkpt lat="47.5291" lon="6.65155">
        <ele>415</ele>
        <time>2015-11-29T10:20:22.000Z</time>
      </trkpt>
      <trkpt lat="47.52901" lon="6.65152">
        <ele>414</ele>
        <time>2015-11-29T10:20:23.000Z</time>
      </trkpt>
      <trkpt lat="47.5289" lon="6.65155">
        <ele>414</ele>
        <time>2015-11-29T10:20:24.000Z</time>
      </trkpt>
      <trkpt lat="47.52883" lon="6.65161">
        <ele>413</ele>
        <time>2015-11-29T10:20:25.000Z</time>
      </trkpt>
      <trkpt lat="47.52876" lon="6.65169">
        <ele>413</ele>
        <time>2015-11-29T10:20:26.000Z</time>
      </trkpt>
      <trkpt lat="47.52869" lon="6.65177">
        <ele>413</ele>
        <time>2015-11-29T10:20:27.000Z</time>
      </trkpt>
      <trkpt lat="47.52863" lon="6.65184">
        <ele>412</ele>
        <time>2015-11-29T10:20:28.000Z</time>
      </trkpt>
      <trkpt lat="47.52855" lon="6.65192">
        <ele>412</ele>
        <time>2015-11-29T10:20:29.000Z</time>
      </trkpt>
      <trkpt lat="47.52845" lon="6.65199">
        <ele>411</ele>
        <time>2015-11-29T10:20:30.000Z</time>
      </trkpt>
      <trkpt lat="47.52835" lon="6.65204">
        <ele>411</ele>
        <time>2015-11-29T10:20:31.000Z</time>
      </trkpt>
      <trkpt lat="47.52829" lon="6.65206">
        <ele>405</ele>
        <time>2015-11-29T10:20:32.000Z</time>
      </trkpt>
      <trkpt lat="47.52821" lon="6.65214">
        <ele>404</ele>
        <time>2015-11-29T10:20:33.000Z</time>
      </trkpt>
      <trkpt lat="47.52815" lon="6.65218">
        <ele>404</ele>
        <time>2015-11-29T10:20:34.000Z</time>
      </trkpt>
      <trkpt lat="47.52808" lon="6.65226">
        <ele>404</ele>
        <time>2015-11-29T10:20:35.000Z</time>
      </trkpt>
      <trkpt lat="47.52802" lon="6.65231">
        <ele>403</ele>
        <time>2015-11-29T10:20:36.000Z</time>
      </trkpt>
      <trkpt lat="47.52797" lon="6.65232">
        <ele>403</ele>
        <time>2015-11-29T10:20:37.000Z</time>
      </trkpt>
      <trkpt lat="47.5279" lon="6.65232">
        <ele>402</ele>
        <time>2015-11-29T10:20:38.000Z</time>
      </trkpt>
      <trkpt lat="47.52786" lon="6.65232">
        <ele>402</ele>
        <time>2015-11-29T10:20:39.000Z</time>
      </trkpt>
      <trkpt lat="47.52782" lon="6.65233">
        <ele>402</ele>
        <time>2015-11-29T10:20:39.999Z</time>
      </trkpt>
      <trkpt lat="47.52775" lon="6.65235">
        <ele>401</ele>
        <time>2015-11-29T10:20:41.000Z</time>
      </trkpt>
      <trkpt lat="47.52772" lon="6.65233">
        <ele>401</ele>
        <time>2015-11-29T10:20:42.000Z</time>
      </trkpt>
      <trkpt lat="47.5277" lon="6.65232">
        <ele>401</ele>
        <time>2015-11-29T10:20:43.000Z</time>
      </trkpt>
      <trkpt lat="47.52767" lon="6.6523">
        <ele>400</ele>
        <time>2015-11-29T10:20:44.000Z</time>
      </trkpt>
      <trkpt lat="47.52763" lon="6.65227">
        <ele>400</ele>
        <time>2015-11-29T10:20:45.000Z</time>
      </trkpt>
      <trkpt lat="47.5276" lon="6.65227">
        <ele>400</ele>
        <time>2015-11-29T10:20:46.000Z</time>
      </trkpt>
      <trkpt lat="47.52757" lon="6.65224">
        <ele>400</ele>
        <time>2015-11-29T10:20:47.000Z</time>
      </trkpt>
      <trkpt lat="47.52753" lon="6.65222">
        <ele>400</ele>
        <time>2015-11-29T10:20:48.000Z</time>
      </trkpt>
      <trkpt lat="47.52751" lon="6.65221">
        <ele>400</ele>
        <time>2015-11-29T10:20:49.000Z</time>
      </trkpt>
      <trkpt lat="47.52749" lon="6.65221">
        <ele>393</ele>
        <time>2015-11-29T10:20:50.000Z</time>
      </trkpt>
      <trkpt lat="47.52746" lon="6.65223">
        <ele>393</ele>
        <time>2015-11-29T10:20:52.000Z</time>
      </trkpt>
      <trkpt lat="47.52742" lon="6.65224">
        <ele>393</ele>
        <time>2015-11-29T10:20:54.000Z</time>
      </trkpt>
      <trkpt lat="47.52739" lon="6.65226">
        <ele>393</ele>
        <time>2015-11-29T10:20:55.000Z</time>
      </trkpt>
      <trkpt lat="47.52735" lon="6.65228">
        <ele>393</ele>
        <time>2015-11-29T10:20:56.000Z</time>
      </trkpt>
      <trkpt lat="47.52731" lon="6.65231">
        <ele>393</ele>
        <time>2015-11-29T10:20:57.000Z</time>
      </trkpt>
      <trkpt lat="47.52727" lon="6.65234">
        <ele>392</ele>
        <time>2015-11-29T10:20:58.000Z</time>
      </trkpt>
      <trkpt lat="47.52724" lon="6.65236">
        <ele>392</ele>
        <time>2015-11-29T10:20:59.000Z</time>
      </trkpt>
      <trkpt lat="47.5272" lon="6.65236">
        <ele>392</ele>
        <time>2015-11-29T10:21:03.000Z</time>
      </trkpt>
      <trkpt lat="47.5272" lon="6.65236">
        <ele>392</ele>
        <time>2015-11-29T10:21:04.000Z</time>
      </trkpt>
      <trkpt lat="47.52715" lon="6.65236">
        <ele>391</ele>
        <time>2015-11-29T10:21:10.000Z</time>
      </trkpt>
      <trkpt lat="47.52715" lon="6.65237">
        <ele>391</ele>
        <time>2015-11-29T10:21:11.000Z</time>
      </trkpt>
      <trkpt lat="47.52712" lon="6.65238">
        <ele>391</ele>
        <time>2015-11-29T10:21:13.000Z</time>
      </trkpt>
      <trkpt lat="47.52711" lon="6.6524">
        <ele>391</ele>
        <time>2015-11-29T10:21:14.000Z</time>
      </trkpt>
      <trkpt lat="47.52708" lon="6.65243">
        <ele>390</ele>
        <time>2015-11-29T10:21:15.000Z</time>
      </trkpt>
      <trkpt lat="47.52706" lon="6.65246">
        <ele>390</ele>
        <time>2015-11-29T10:21:16.000Z</time>
      </trkpt>
      <trkpt lat="47.52704" lon="6.65249">
        <ele>390</ele>
        <time>2015-11-29T10:21:17.000Z</time>
      </trkpt>
      <trkpt lat="47.52701" lon="6.65253">
        <ele>388</ele>
        <time>2015-11-29T10:21:18.000Z</time>
      </trkpt>
      <trkpt lat="47.52698" lon="6.65257">
        <ele>388</ele>
        <time>2015-11-29T10:21:19.000Z</time>
      </trkpt>
      <trkpt lat="47.52693" lon="6.65264">
        <ele>388</ele>
        <time>2015-11-29T10:21:20.000Z</time>
      </trkpt>
      <trkpt lat="47.52689" lon="6.65271">
        <ele>387</ele>
        <time>2015-11-29T10:21:21.000Z</time>
      </trkpt>
      <trkpt lat="47.52686" lon="6.65276">
        <ele>387</ele>
        <time>2015-11-29T10:21:22.000Z</time>
      </trkpt>
      <trkpt lat="47.52682" lon="6.6528">
        <ele>387</ele>
        <time>2015-11-29T10:21:23.000Z</time>
      </trkpt>
      <trkpt lat="47.52677" lon="6.65285">
        <ele>387</ele>
        <time>2015-11-29T10:21:24.000Z</time>
      </trkpt>
      <trkpt lat="47.52672" lon="6.65288">
        <ele>387</ele>
        <time>2015-11-29T10:21:25.000Z</time>
      </trkpt>
      <trkpt lat="47.52667" lon="6.65292">
        <ele>387</ele>
        <time>2015-11-29T10:21:26.000Z</time>
      </trkpt>
      <trkpt lat="47.52661" lon="6.65296">
        <ele>381</ele>
        <time>2015-11-29T10:21:27.000Z</time>
      </trkpt>
      <trkpt lat="47.52655" lon="6.653">
        <ele>380</ele>
        <time>2015-11-29T10:21:28.000Z</time>
      </trkpt>
      <trkpt lat="47.52649" lon="6.65305">
        <ele>380</ele>
        <time>2015-11-29T10:21:29.000Z</time>
      </trkpt>
      <trkpt lat="47.52643" lon="6.6531">
        <ele>380</ele>
        <time>2015-11-29T10:21:30.000Z</time>
      </trkpt>
      <trkpt lat="47.52638" lon="6.65316">
        <ele>380</ele>
        <time>2015-11-29T10:21:31.000Z</time>
      </trkpt>
      <trkpt lat="47.52633" lon="6.65322">
        <ele>380</ele>
        <time>2015-11-29T10:21:32.000Z</time>
      </trkpt>
      <trkpt lat="47.52628" lon="6.65328">
        <ele>379</ele>
        <time>2015-11-29T10:21:33.000Z</time>
      </trkpt>
      <trkpt lat="47.52623" lon="6.65334">
        <ele>379</ele>
        <time>2015-11-29T10:21:34.000Z</time>
      </trkpt>
      <trkpt lat="47.52618" lon="6.65341">
        <ele>378</ele>
        <time>2015-11-29T10:21:35.000Z</time>
      </trkpt>
      <trkpt lat="47.52612" lon="6.65348">
        <ele>378</ele>
        <time>2015-11-29T10:21:36.000Z</time>
      </trkpt>
      <trkpt lat="47.52607" lon="6.65355">
        <ele>378</ele>
        <time>2015-11-29T10:21:37.000Z</time>
      </trkpt>
      <trkpt lat="47.52603" lon="6.65363">
        <ele>378</ele>
        <time>2015-11-29T10:21:38.000Z</time>
      </trkpt>
      <trkpt lat="47.52598" lon="6.65372">
        <ele>377</ele>
        <time>2015-11-29T10:21:39.000Z</time>
      </trkpt>
      <trkpt lat="47.52594" lon="6.6538">
        <ele>377</ele>
        <time>2015-11-29T10:21:40.000Z</time>
      </trkpt>
      <trkpt lat="47.5259" lon="6.6539">
        <ele>377</ele>
        <time>2015-11-29T10:21:41.000Z</time>
      </trkpt>
      <trkpt lat="47.52585" lon="6.65399">
        <ele>376</ele>
        <time>2015-11-29T10:21:42.000Z</time>
      </trkpt>
      <trkpt lat="47.52581" lon="6.65409">
        <ele>374</ele>
        <time>2015-11-29T10:21:43.000Z</time>
      </trkpt>
      <trkpt lat="47.52577" lon="6.65419">
        <ele>373</ele>
        <time>2015-11-29T10:21:44.000Z</time>
      </trkpt>
      <trkpt lat="47.52573" lon="6.65429">
        <ele>373</ele>
        <time>2015-11-29T10:21:45.000Z</time>
      </trkpt>
      <trkpt lat="47.52568" lon="6.6544">
        <ele>372</ele>
        <time>2015-11-29T10:21:46.000Z</time>
      </trkpt>
      <trkpt lat="47.52564" lon="6.65451">
        <ele>372</ele>
        <time>2015-11-29T10:21:47.000Z</time>
      </trkpt>
      <trkpt lat="47.52561" lon="6.65462">
        <ele>371</ele>
        <time>2015-11-29T10:21:48.000Z</time>
      </trkpt>
      <trkpt lat="47.52558" lon="6.65473">
        <ele>371</ele>
        <time>2015-11-29T10:21:49.000Z</time>
      </trkpt>
      <trkpt lat="47.52555" lon="6.65484">
        <ele>371</ele>
        <time>2015-11-29T10:21:50.000Z</time>
      </trkpt>
      <trkpt lat="47.52552" lon="6.65495">
        <ele>371</ele>
        <time>2015-11-29T10:21:51.000Z</time>
      </trkpt>
      <trkpt lat="47.52549" lon="6.65506">
        <ele>369</ele>
        <time>2015-11-29T10:21:52.000Z</time>
      </trkpt>
      <trkpt lat="47.52546" lon="6.65517">
        <ele>369</ele>
        <time>2015-11-29T10:21:53.000Z</time>
      </trkpt>
      <trkpt lat="47.52542" lon="6.65527">
        <ele>369</ele>
        <time>2015-11-29T10:21:54.000Z</time>
      </trkpt>
      <trkpt lat="47.52536" lon="6.65537">
        <ele>369</ele>
        <time>2015-11-29T10:21:55.000Z</time>
      </trkpt>
      <trkpt lat="47.52532" lon="6.65547">
        <ele>369</ele>
        <time>2015-11-29T10:21:56.000Z</time>
      </trkpt>
      <trkpt lat="47.52527" lon="6.65557">
        <ele>369</ele>
        <time>2015-11-29T10:21:57.000Z</time>
      </trkpt>
      <trkpt lat="47.52522" lon="6.65567">
        <ele>369</ele>
        <time>2015-11-29T10:21:58.000Z</time>
      </trkpt>
      <trkpt lat="47.52518" lon="6.65577">
        <ele>368</ele>
        <time>2015-11-29T10:21:59.000Z</time>
      </trkpt>
      <trkpt lat="47.52514" lon="6.65587">
        <ele>368</ele>
        <time>2015-11-29T10:22:00.000Z</time>
      </trkpt>
      <trkpt lat="47.52509" lon="6.65596">
        <ele>368</ele>
        <time>2015-11-29T10:22:01.000Z</time>
      </trkpt>
      <trkpt lat="47.52505" lon="6.65605">
        <ele>367</ele>
        <time>2015-11-29T10:22:02.000Z</time>
      </trkpt>
      <trkpt lat="47.525" lon="6.65615">
        <ele>366</ele>
        <time>2015-11-29T10:22:03.000Z</time>
      </trkpt>
      <trkpt lat="47.52495" lon="6.65623">
        <ele>366</ele>
        <time>2015-11-29T10:22:04.000Z</time>
      </trkpt>
      <trkpt lat="47.52491" lon="6.65632">
        <ele>366</ele>
        <time>2015-11-29T10:22:05.000Z</time>
      </trkpt>
      <trkpt lat="47.52487" lon="6.6564">
        <ele>366</ele>
        <time>2015-11-29T10:22:06.000Z</time>
      </trkpt>
      <trkpt lat="47.52483" lon="6.6565">
        <ele>366</ele>
        <time>2015-11-29T10:22:07.000Z</time>
      </trkpt>
      <trkpt lat="47.52478" lon="6.65657">
        <ele>366</ele>
        <time>2015-11-29T10:22:08.000Z</time>
      </trkpt>
      <trkpt lat="47.52474" lon="6.65665">
        <ele>366</ele>
        <time>2015-11-29T10:22:09.000Z</time>
      </trkpt>
      <trkpt lat="47.52471" lon="6.65673">
        <ele>365</ele>
        <time>2015-11-29T10:22:10.000Z</time>
      </trkpt>
      <trkpt lat="47.52467" lon="6.6568">
        <ele>365</ele>
        <time>2015-11-29T10:22:11.000Z</time>
      </trkpt>
      <trkpt lat="47.52463" lon="6.65688">
        <ele>365</ele>
        <time>2015-11-29T10:22:12.000Z</time>
      </trkpt>
      <trkpt lat="47.52459" lon="6.65695">
        <ele>365</ele>
        <time>2015-11-29T10:22:13.000Z</time>
      </trkpt>
      <trkpt lat="47.52456" lon="6.65703">
        <ele>365</ele>
        <time>2015-11-29T10:22:14.000Z</time>
      </trkpt>
      <trkpt lat="47.52453" lon="6.6571">
        <ele>365</ele>
        <time>2015-11-29T10:22:15.000Z</time>
      </trkpt>
      <trkpt lat="47.5245" lon="6.65717">
        <ele>365</ele>
        <time>2015-11-29T10:22:16.000Z</time>
      </trkpt>
      <trkpt lat="47.52447" lon="6.65723">
        <ele>365</ele>
        <time>2015-11-29T10:22:17.000Z</time>
      </trkpt>
      <trkpt lat="47.52443" lon="6.65729">
        <ele>365</ele>
        <time>2015-11-29T10:22:18.000Z</time>
      </trkpt>
      <trkpt lat="47.5244" lon="6.65734">
        <ele>365</ele>
        <time>2015-11-29T10:22:19.000Z</time>
      </trkpt>
      <trkpt lat="47.52437" lon="6.6574">
        <ele>365</ele>
        <time>2015-11-29T10:22:20.000Z</time>
      </trkpt>
      <trkpt lat="47.52435" lon="6.65748">
        <ele>365</ele>
        <time>2015-11-29T10:22:21.000Z</time>
      </trkpt>
      <trkpt lat="47.52432" lon="6.65754">
        <ele>365</ele>
        <time>2015-11-29T10:22:22.000Z</time>
      </trkpt>
      <trkpt lat="47.52429" lon="6.6576">
        <ele>365</ele>
        <time>2015-11-29T10:22:23.000Z</time>
      </trkpt>
      <trkpt lat="47.52426" lon="6.65767">
        <ele>365</ele>
        <time>2015-11-29T10:22:24.000Z</time>
      </trkpt>
      <trkpt lat="47.52423" lon="6.65772">
        <ele>365</ele>
        <time>2015-11-29T10:22:25.000Z</time>
      </trkpt>
      <trkpt lat="47.5242" lon="6.65778">
        <ele>365</ele>
        <time>2015-11-29T10:22:26.017Z</time>
      </trkpt>
      <trkpt lat="47.52417" lon="6.65785">
        <ele>365</ele>
        <time>2015-11-29T10:22:27.000Z</time>
      </trkpt>
      <trkpt lat="47.52414" lon="6.6579">
        <ele>366</ele>
        <time>2015-11-29T10:22:28.000Z</time>
      </trkpt>
      <trkpt lat="47.52411" lon="6.65795">
        <ele>366</ele>
        <time>2015-11-29T10:22:29.000Z</time>
      </trkpt>
      <trkpt lat="47.52408" lon="6.65801">
        <ele>366</ele>
        <time>2015-11-29T10:22:30.000Z</time>
      </trkpt>
      <trkpt lat="47.52405" lon="6.65806">
        <ele>366</ele>
        <time>2015-11-29T10:22:31.000Z</time>
      </trkpt>
      <trkpt lat="47.52402" lon="6.65811">
        <ele>366</ele>
        <time>2015-11-29T10:22:32.000Z</time>
      </trkpt>
      <trkpt lat="47.52399" lon="6.65817">
        <ele>366</ele>
        <time>2015-11-29T10:22:33.000Z</time>
      </trkpt>
      <trkpt lat="47.52396" lon="6.65822">
        <ele>366</ele>
        <time>2015-11-29T10:22:34.000Z</time>
      </trkpt>
      <trkpt lat="47.52394" lon="6.65827">
        <ele>366</ele>
        <time>2015-11-29T10:22:35.000Z</time>
      </trkpt>
      <trkpt lat="47.52391" lon="6.65833">
        <ele>366</ele>
        <time>2015-11-29T10:22:36.000Z</time>
      </trkpt>
      <trkpt lat="47.52389" lon="6.65838">
        <ele>367</ele>
        <time>2015-11-29T10:22:37.000Z</time>
      </trkpt>
      <trkpt lat="47.52386" lon="6.65844">
        <ele>367</ele>
        <time>2015-11-29T10:22:38.000Z</time>
      </trkpt>
      <trkpt lat="47.52383" lon="6.65849">
        <ele>367</ele>
        <time>2015-11-29T10:22:39.000Z</time>
      </trkpt>
      <trkpt lat="47.52381" lon="6.65855">
        <ele>367</ele>
        <time>2015-11-29T10:22:40.000Z</time>
      </trkpt>
      <trkpt lat="47.52378" lon="6.65861">
        <ele>367</ele>
        <time>2015-11-29T10:22:41.000Z</time>
      </trkpt>
      <trkpt lat="47.52375" lon="6.65866">
        <ele>367</ele>
        <time>2015-11-29T10:22:42.000Z</time>
      </trkpt>
      <trkpt lat="47.52373" lon="6.65871">
        <ele>367</ele>
        <time>2015-11-29T10:22:43.000Z</time>
      </trkpt>
      <trkpt lat="47.5237" lon="6.65876">
        <ele>367</ele>
        <time>2015-11-29T10:22:44.000Z</time>
      </trkpt>
      <trkpt lat="47.52366" lon="6.65882">
        <ele>367</ele>
        <time>2015-11-29T10:22:45.000Z</time>
      </trkpt>
      <trkpt lat="47.52363" lon="6.65887">
        <ele>367</ele>
        <time>2015-11-29T10:22:46.000Z</time>
      </trkpt>
      <trkpt lat="47.5236" lon="6.65892">
        <ele>367</ele>
        <time>2015-11-29T10:22:47.000Z</time>
      </trkpt>
      <trkpt lat="47.52358" lon="6.65897">
        <ele>367</ele>
        <time>2015-11-29T10:22:48.000Z</time>
      </trkpt>
      <trkpt lat="47.52355" lon="6.65901">
        <ele>367</ele>
        <time>2015-11-29T10:22:49.000Z</time>
      </trkpt>
      <trkpt lat="47.52352" lon="6.65906">
        <ele>367</ele>
        <time>2015-11-29T10:22:50.000Z</time>
      </trkpt>
      <trkpt lat="47.52349" lon="6.65912">
        <ele>367</ele>
        <time>2015-11-29T10:22:51.000Z</time>
      </trkpt>
      <trkpt lat="47.52347" lon="6.65917">
        <ele>368</ele>
        <time>2015-11-29T10:22:52.000Z</time>
      </trkpt>
      <trkpt lat="47.52344" lon="6.65922">
        <ele>368</ele>
        <time>2015-11-29T10:22:53.000Z</time>
      </trkpt>
      <trkpt lat="47.52341" lon="6.65927">
        <ele>368</ele>
        <time>2015-11-29T10:22:54.000Z</time>
      </trkpt>
      <trkpt lat="47.52338" lon="6.65932">
        <ele>368</ele>
        <time>2015-11-29T10:22:55.000Z</time>
      </trkpt>
      <trkpt lat="47.52335" lon="6.65938">
        <ele>368</ele>
        <time>2015-11-29T10:22:56.000Z</time>
      </trkpt>
      <trkpt lat="47.52333" lon="6.65943">
        <ele>368</ele>
        <time>2015-11-29T10:22:57.000Z</time>
      </trkpt>
      <trkpt lat="47.5233" lon="6.65947">
        <ele>368</ele>
        <time>2015-11-29T10:22:58.000Z</time>
      </trkpt>
      <trkpt lat="47.52328" lon="6.65951">
        <ele>368</ele>
        <time>2015-11-29T10:22:59.000Z</time>
      </trkpt>
      <trkpt lat="47.52325" lon="6.65956">
        <ele>368</ele>
        <time>2015-11-29T10:23:00.000Z</time>
      </trkpt>
      <trkpt lat="47.52322" lon="6.65961">
        <ele>368</ele>
        <time>2015-11-29T10:23:01.000Z</time>
      </trkpt>
      <trkpt lat="47.5232" lon="6.65966">
        <ele>368</ele>
        <time>2015-11-29T10:23:02.000Z</time>
      </trkpt>
      <trkpt lat="47.52317" lon="6.65972">
        <ele>368</ele>
        <time>2015-11-29T10:23:03.000Z</time>
      </trkpt>
      <trkpt lat="47.52315" lon="6.65976">
        <ele>368</ele>
        <time>2015-11-29T10:23:04.000Z</time>
      </trkpt>
      <trkpt lat="47.52312" lon="6.65981">
        <ele>368</ele>
        <time>2015-11-29T10:23:05.000Z</time>
      </trkpt>
      <trkpt lat="47.52309" lon="6.65986">
        <ele>369</ele>
        <time>2015-11-29T10:23:06.000Z</time>
      </trkpt>
      <trkpt lat="47.52307" lon="6.65991">
        <ele>369</ele>
        <time>2015-11-29T10:23:07.000Z</time>
      </trkpt>
      <trkpt lat="47.52304" lon="6.65996">
        <ele>369</ele>
        <time>2015-11-29T10:23:08.000Z</time>
      </trkpt>
      <trkpt lat="47.52301" lon="6.66001">
        <ele>371</ele>
        <time>2015-11-29T10:23:09.000Z</time>
      </trkpt>
      <trkpt lat="47.52299" lon="6.66006">
        <ele>371</ele>
        <time>2015-11-29T10:23:10.000Z</time>
      </trkpt>
      <trkpt lat="47.52296" lon="6.66012">
        <ele>371</ele>
        <time>2015-11-29T10:23:11.000Z</time>
      </trkpt>
      <trkpt lat="47.52294" lon="6.66017">
        <ele>371</ele>
        <time>2015-11-29T10:23:12.000Z</time>
      </trkpt>
      <trkpt lat="47.52291" lon="6.66022">
        <ele>371</ele>
        <time>2015-11-29T10:23:13.000Z</time>
      </trkpt>
      <trkpt lat="47.52289" lon="6.66028">
        <ele>371</ele>
        <time>2015-11-29T10:23:14.000Z</time>
      </trkpt>
      <trkpt lat="47.52286" lon="6.66033">
        <ele>371</ele>
        <time>2015-11-29T10:23:15.000Z</time>
      </trkpt>
      <trkpt lat="47.52284" lon="6.66038">
        <ele>371</ele>
        <time>2015-11-29T10:23:16.000Z</time>
      </trkpt>
      <trkpt lat="47.52282" lon="6.66042">
        <ele>371</ele>
        <time>2015-11-29T10:23:17.000Z</time>
      </trkpt>
      <trkpt lat="47.52279" lon="6.66047">
        <ele>371</ele>
        <time>2015-11-29T10:23:18.000Z</time>
      </trkpt>
      <trkpt lat="47.52277" lon="6.66051">
        <ele>371</ele>
        <time>2015-11-29T10:23:19.000Z</time>
      </trkpt>
      <trkpt lat="47.52274" lon="6.66055">
        <ele>372</ele>
        <time>2015-11-29T10:23:20.000Z</time>
      </trkpt>
      <trkpt lat="47.52271" lon="6.6606">
        <ele>372</ele>
        <time>2015-11-29T10:23:21.000Z</time>
      </trkpt>
      <trkpt lat="47.52268" lon="6.66065">
        <ele>372</ele>
        <time>2015-11-29T10:23:22.000Z</time>
      </trkpt>
      <trkpt lat="47.52266" lon="6.66069">
        <ele>372</ele>
        <time>2015-11-29T10:23:23.000Z</time>
      </trkpt>
      <trkpt lat="47.52263" lon="6.66073">
        <ele>372</ele>
        <time>2015-11-29T10:23:24.000Z</time>
      </trkpt>
      <trkpt lat="47.52261" lon="6.66076">
        <ele>372</ele>
        <time>2015-11-29T10:23:25.000Z</time>
      </trkpt>
      <trkpt lat="47.52257" lon="6.66078">
        <ele>372</ele>
        <time>2015-11-29T10:23:27.000Z</time>
      </trkpt>
      <trkpt lat="47.52255" lon="6.66078">
        <ele>373</ele>
        <time>2015-11-29T10:23:28.000Z</time>
      </trkpt>
      <trkpt lat="47.52251" lon="6.6608">
        <ele>373</ele>
        <time>2015-11-29T10:23:32.000Z</time>
      </trkpt>
      <trkpt lat="47.52251" lon="6.66081">
        <ele>373</ele>
        <time>2015-11-29T10:23:33.000Z</time>
      </trkpt>
      <trkpt lat="47.52248" lon="6.66086">
        <ele>373</ele>
        <time>2015-11-29T10:23:51.000Z</time>
      </trkpt>
      <trkpt lat="47.52248" lon="6.66087">
        <ele>373</ele>
        <time>2015-11-29T10:23:52.000Z</time>
      </trkpt>
      <trkpt lat="47.5225" lon="6.66091">
        <ele>374</ele>
        <time>2015-11-29T10:23:55.000Z</time>
      </trkpt>
      <trkpt lat="47.52251" lon="6.66094">
        <ele>374</ele>
        <time>2015-11-29T10:23:56.000Z</time>
      </trkpt>
      <trkpt lat="47.52253" lon="6.66099">
        <ele>374</ele>
        <time>2015-11-29T10:23:58.000Z</time>
      </trkpt>
      <trkpt lat="47.52252" lon="6.66108">
        <ele>374</ele>
        <time>2015-11-29T10:23:59.000Z</time>
      </trkpt>
      <trkpt lat="47.52249" lon="6.66113">
        <ele>375</ele>
        <time>2015-11-29T10:24:00.000Z</time>
      </trkpt>
      <trkpt lat="47.52245" lon="6.66119">
        <ele>375</ele>
        <time>2015-11-29T10:24:01.001Z</time>
      </trkpt>
      <trkpt lat="47.52242" lon="6.66123">
        <ele>375</ele>
        <time>2015-11-29T10:24:02.000Z</time>
      </trkpt>
      <trkpt lat="47.5224" lon="6.66127">
        <ele>375</ele>
        <time>2015-11-29T10:24:03.000Z</time>
      </trkpt>
      <trkpt lat="47.52238" lon="6.66131">
        <ele>375</ele>
        <time>2015-11-29T10:24:04.000Z</time>
      </trkpt>
      <trkpt lat="47.52235" lon="6.66135">
        <ele>375</ele>
        <time>2015-11-29T10:24:05.000Z</time>
      </trkpt>
      <trkpt lat="47.52232" lon="6.66137">
        <ele>375</ele>
        <time>2015-11-29T10:24:06.000Z</time>
      </trkpt>
      <trkpt lat="47.52229" lon="6.6614">
        <ele>375</ele>
        <time>2015-11-29T10:24:07.000Z</time>
      </trkpt>
      <trkpt lat="47.52227" lon="6.66144">
        <ele>375</ele>
        <time>2015-11-29T10:24:08.000Z</time>
      </trkpt>
      <trkpt lat="47.52225" lon="6.66149">
        <ele>376</ele>
        <time>2015-11-29T10:24:09.000Z</time>
      </trkpt>
      <trkpt lat="47.52223" lon="6.66152">
        <ele>376</ele>
        <time>2015-11-29T10:24:10.000Z</time>
      </trkpt>
      <trkpt lat="47.5222" lon="6.66155">
        <ele>376</ele>
        <time>2015-11-29T10:24:11.000Z</time>
      </trkpt>
      <trkpt lat="47.52217" lon="6.66158">
        <ele>376</ele>
        <time>2015-11-29T10:24:12.000Z</time>
      </trkpt>
      <trkpt lat="47.52214" lon="6.66161">
        <ele>376</ele>
        <time>2015-11-29T10:24:13.000Z</time>
      </trkpt>
      <trkpt lat="47.52212" lon="6.66164">
        <ele>376</ele>
        <time>2015-11-29T10:24:14.000Z</time>
      </trkpt>
      <trkpt lat="47.52209" lon="6.66167">
        <ele>378</ele>
        <time>2015-11-29T10:24:15.000Z</time>
      </trkpt>
      <trkpt lat="47.52206" lon="6.66171">
        <ele>378</ele>
        <time>2015-11-29T10:24:16.000Z</time>
      </trkpt>
      <trkpt lat="47.52203" lon="6.66174">
        <ele>378</ele>
        <time>2015-11-29T10:24:17.000Z</time>
      </trkpt>
      <trkpt lat="47.52198" lon="6.6618">
        <ele>378</ele>
        <time>2015-11-29T10:24:18.000Z</time>
      </trkpt>
      <trkpt lat="47.52195" lon="6.66184">
        <ele>378</ele>
        <time>2015-11-29T10:24:19.000Z</time>
      </trkpt>
      <trkpt lat="47.52192" lon="6.66186">
        <ele>378</ele>
        <time>2015-11-29T10:24:20.000Z</time>
      </trkpt>
      <trkpt lat="47.5219" lon="6.66188">
        <ele>378</ele>
        <time>2015-11-29T10:24:21.000Z</time>
      </trkpt>
      <trkpt lat="47.52189" lon="6.66191">
        <ele>378</ele>
        <time>2015-11-29T10:24:22.000Z</time>
      </trkpt>
      <trkpt lat="47.52188" lon="6.66195">
        <ele>378</ele>
        <time>2015-11-29T10:24:23.000Z</time>
      </trkpt>
      <trkpt lat="47.52186" lon="6.66198">
        <ele>378</ele>
        <time>2015-11-29T10:24:24.000Z</time>
      </trkpt>
      <trkpt lat="47.52184" lon="6.662">
        <ele>378</ele>
        <time>2015-11-29T10:24:25.000Z</time>
      </trkpt>
      <trkpt lat="47.52181" lon="6.66203">
        <ele>378</ele>
        <time>2015-11-29T10:24:25.999Z</time>
      </trkpt>
      <trkpt lat="47.52181" lon="6.66207">
        <ele>378</ele>
        <time>2015-11-29T10:24:27.000Z</time>
      </trkpt>
      <trkpt lat="47.52178" lon="6.6621">
        <ele>378</ele>
        <time>2015-11-29T10:24:28.000Z</time>
      </trkpt>
      <trkpt lat="47.52176" lon="6.66214">
        <ele>378</ele>
        <time>2015-11-29T10:24:29.000Z</time>
      </trkpt>
      <trkpt lat="47.52174" lon="6.66217">
        <ele>378</ele>
        <time>2015-11-29T10:24:30.001Z</time>
      </trkpt>
      <trkpt lat="47.52171" lon="6.66221">
        <ele>378</ele>
        <time>2015-11-29T10:24:31.000Z</time>
      </trkpt>
      <trkpt lat="47.5217" lon="6.66224">
        <ele>378</ele>
        <time>2015-11-29T10:24:32.000Z</time>
      </trkpt>
      <trkpt lat="47.52168" lon="6.66227">
        <ele>378</ele>
        <time>2015-11-29T10:24:33.000Z</time>
      </trkpt>
      <trkpt lat="47.52166" lon="6.6623">
        <ele>378</ele>
        <time>2015-11-29T10:24:34.000Z</time>
      </trkpt>
      <trkpt lat="47.52163" lon="6.66234">
        <ele>378</ele>
        <time>2015-11-29T10:24:35.000Z</time>
      </trkpt>
      <trkpt lat="47.52161" lon="6.66237">
        <ele>379</ele>
        <time>2015-11-29T10:24:35.998Z</time>
      </trkpt>
      <trkpt lat="47.52157" lon="6.66241">
        <ele>379</ele>
        <time>2015-11-29T10:24:37.000Z</time>
      </trkpt>
      <trkpt lat="47.52154" lon="6.66245">
        <ele>379</ele>
        <time>2015-11-29T10:24:38.000Z</time>
      </trkpt>
      <trkpt lat="47.52151" lon="6.66249">
        <ele>378</ele>
        <time>2015-11-29T10:24:39.000Z</time>
      </trkpt>
      <trkpt lat="47.52148" lon="6.66253">
        <ele>378</ele>
        <time>2015-11-29T10:24:40.000Z</time>
      </trkpt>
      <trkpt lat="47.52145" lon="6.66256">
        <ele>378</ele>
        <time>2015-11-29T10:24:41.000Z</time>
      </trkpt>
      <trkpt lat="47.52142" lon="6.6626">
        <ele>378</ele>
        <time>2015-11-29T10:24:42.000Z</time>
      </trkpt>
      <trkpt lat="47.52139" lon="6.66264">
        <ele>378</ele>
        <time>2015-11-29T10:24:43.000Z</time>
      </trkpt>
      <trkpt lat="47.52136" lon="6.66269">
        <ele>378</ele>
        <time>2015-11-29T10:24:44.000Z</time>
      </trkpt>
      <trkpt lat="47.52134" lon="6.66277">
        <ele>378</ele>
        <time>2015-11-29T10:24:45.000Z</time>
      </trkpt>
      <trkpt lat="47.5213" lon="6.66281">
        <ele>378</ele>
        <time>2015-11-29T10:24:46.000Z</time>
      </trkpt>
      <trkpt lat="47.52127" lon="6.66286">
        <ele>378</ele>
        <time>2015-11-29T10:24:47.000Z</time>
      </trkpt>
      <trkpt lat="47.52123" lon="6.6629">
        <ele>378</ele>
        <time>2015-11-29T10:24:48.000Z</time>
      </trkpt>
      <trkpt lat="47.5212" lon="6.66294">
        <ele>378</ele>
        <time>2015-11-29T10:24:49.000Z</time>
      </trkpt>
      <trkpt lat="47.52118" lon="6.66299">
        <ele>378</ele>
        <time>2015-11-29T10:24:50.000Z</time>
      </trkpt>
      <trkpt lat="47.52115" lon="6.66303">
        <ele>378</ele>
        <time>2015-11-29T10:24:51.000Z</time>
      </trkpt>
      <trkpt lat="47.52112" lon="6.66307">
        <ele>378</ele>
        <time>2015-11-29T10:24:52.000Z</time>
      </trkpt>
      <trkpt lat="47.52109" lon="6.66313">
        <ele>378</ele>
        <time>2015-11-29T10:24:53.000Z</time>
      </trkpt>
      <trkpt lat="47.52107" lon="6.66319">
        <ele>377</ele>
        <time>2015-11-29T10:24:54.000Z</time>
      </trkpt>
      <trkpt lat="47.52106" lon="6.66325">
        <ele>377</ele>
        <time>2015-11-29T10:24:55.000Z</time>
      </trkpt>
      <trkpt lat="47.52105" lon="6.66331">
        <ele>377</ele>
        <time>2015-11-29T10:24:56.000Z</time>
      </trkpt>
      <trkpt lat="47.52105" lon="6.66339">
        <ele>377</ele>
        <time>2015-11-29T10:24:57.000Z</time>
      </trkpt>
      <trkpt lat="47.52104" lon="6.66346">
        <ele>377</ele>
        <time>2015-11-29T10:24:58.000Z</time>
      </trkpt>
      <trkpt lat="47.52105" lon="6.66353">
        <ele>377</ele>
        <time>2015-11-29T10:24:59.000Z</time>
      </trkpt>
      <trkpt lat="47.52106" lon="6.6636">
        <ele>377</ele>
        <time>2015-11-29T10:25:00.000Z</time>
      </trkpt>
      <trkpt lat="47.52106" lon="6.66366">
        <ele>377</ele>
        <time>2015-11-29T10:25:00.999Z</time>
      </trkpt>
      <trkpt lat="47.52108" lon="6.66375">
        <ele>377</ele>
        <time>2015-11-29T10:25:02.000Z</time>
      </trkpt>
      <trkpt lat="47.52109" lon="6.66382">
        <ele>377</ele>
        <time>2015-11-29T10:25:03.000Z</time>
      </trkpt>
      <trkpt lat="47.5211" lon="6.66388">
        <ele>377</ele>
        <time>2015-11-29T10:25:04.000Z</time>
      </trkpt>
      <trkpt lat="47.52111" lon="6.66395">
        <ele>377</ele>
        <time>2015-11-29T10:25:05.000Z</time>
      </trkpt>
      <trkpt lat="47.52112" lon="6.66402">
        <ele>377</ele>
        <time>2015-11-29T10:25:06.000Z</time>
      </trkpt>
      <trkpt lat="47.52114" lon="6.66409">
        <ele>377</ele>
        <time>2015-11-29T10:25:07.000Z</time>
      </trkpt>
      <trkpt lat="47.52115" lon="6.66416">
        <ele>377</ele>
        <time>2015-11-29T10:25:08.001Z</time>
      </trkpt>
      <trkpt lat="47.52116" lon="6.66423">
        <ele>377</ele>
        <time>2015-11-29T10:25:09.000Z</time>
      </trkpt>
      <trkpt lat="47.52115" lon="6.66431">
        <ele>377</ele>
        <time>2015-11-29T10:25:10.000Z</time>
      </trkpt>
      <trkpt lat="47.52117" lon="6.66438">
        <ele>378</ele>
        <time>2015-11-29T10:25:11.000Z</time>
      </trkpt>
      <trkpt lat="47.52118" lon="6.66444">
        <ele>378</ele>
        <time>2015-11-29T10:25:12.000Z</time>
      </trkpt>
      <trkpt lat="47.52117" lon="6.66453">
        <ele>378</ele>
        <time>2015-11-29T10:25:13.000Z</time>
      </trkpt>
      <trkpt lat="47.52118" lon="6.66461">
        <ele>378</ele>
        <time>2015-11-29T10:25:14.000Z</time>
      </trkpt>
      <trkpt lat="47.52119" lon="6.66467">
        <ele>378</ele>
        <time>2015-11-29T10:25:15.000Z</time>
      </trkpt>
      <trkpt lat="47.52118" lon="6.66476">
        <ele>378</ele>
        <time>2015-11-29T10:25:16.000Z</time>
      </trkpt>
      <trkpt lat="47.52118" lon="6.66481">
        <ele>378</ele>
        <time>2015-11-29T10:25:17.000Z</time>
      </trkpt>
      <trkpt lat="47.52117" lon="6.66489">
        <ele>378</ele>
        <time>2015-11-29T10:25:18.000Z</time>
      </trkpt>
      <trkpt lat="47.52116" lon="6.66497">
        <ele>378</ele>
        <time>2015-11-29T10:25:19.000Z</time>
      </trkpt>
      <trkpt lat="47.52115" lon="6.66504">
        <ele>378</ele>
        <time>2015-11-29T10:25:20.000Z</time>
      </trkpt>
      <trkpt lat="47.52114" lon="6.6651">
        <ele>378</ele>
        <time>2015-11-29T10:25:21.000Z</time>
      </trkpt>
      <trkpt lat="47.52115" lon="6.66517">
        <ele>378</ele>
        <time>2015-11-29T10:25:22.000Z</time>
      </trkpt>
      <trkpt lat="47.52114" lon="6.66523">
        <ele>378</ele>
        <time>2015-11-29T10:25:23.000Z</time>
      </trkpt>
      <trkpt lat="47.52113" lon="6.66529">
        <ele>378</ele>
        <time>2015-11-29T10:25:24.000Z</time>
      </trkpt>
      <trkpt lat="47.52114" lon="6.66532">
        <ele>378</ele>
        <time>2015-11-29T10:25:25.000Z</time>
      </trkpt>
      <trkpt lat="47.52113" lon="6.66539">
        <ele>378</ele>
        <time>2015-11-29T10:25:26.000Z</time>
      </trkpt>
      <trkpt lat="47.52113" lon="6.66546">
        <ele>378</ele>
        <time>2015-11-29T10:25:27.000Z</time>
      </trkpt>
      <trkpt lat="47.52113" lon="6.66553">
        <ele>378</ele>
        <time>2015-11-29T10:25:28.000Z</time>
      </trkpt>
      <trkpt lat="47.52113" lon="6.6656">
        <ele>378</ele>
        <time>2015-11-29T10:25:29.000Z</time>
      </trkpt>
      <trkpt lat="47.52112" lon="6.66567">
        <ele>378</ele>
        <time>2015-11-29T10:25:30.000Z</time>
      </trkpt>
      <trkpt lat="47.52113" lon="6.66574">
        <ele>378</ele>
        <time>2015-11-29T10:25:31.000Z</time>
      </trkpt>
      <trkpt lat="47.52113" lon="6.66578">
        <ele>378</ele>
        <time>2015-11-29T10:25:32.000Z</time>
      </trkpt>
      <trkpt lat="47.52113" lon="6.66586">
        <ele>378</ele>
        <time>2015-11-29T10:25:33.000Z</time>
      </trkpt>
      <trkpt lat="47.52113" lon="6.66593">
        <ele>378</ele>
        <time>2015-11-29T10:25:34.000Z</time>
      </trkpt>
      <trkpt lat="47.52113" lon="6.66599">
        <ele>378</ele>
        <time>2015-11-29T10:25:35.000Z</time>
      </trkpt>
      <trkpt lat="47.52112" lon="6.66607">
        <ele>378</ele>
        <time>2015-11-29T10:25:36.000Z</time>
      </trkpt>
      <trkpt lat="47.52113" lon="6.66614">
        <ele>378</ele>
        <time>2015-11-29T10:25:37.000Z</time>
      </trkpt>
      <trkpt lat="47.52113" lon="6.66621">
        <ele>378</ele>
        <time>2015-11-29T10:25:38.000Z</time>
      </trkpt>
      <trkpt lat="47.52113" lon="6.6663">
        <ele>378</ele>
        <time>2015-11-29T10:25:39.000Z</time>
      </trkpt>
      <trkpt lat="47.52114" lon="6.66637">
        <ele>378</ele>
        <time>2015-11-29T10:25:40.000Z</time>
      </trkpt>
      <trkpt lat="47.52114" lon="6.66645">
        <ele>378</ele>
        <time>2015-11-29T10:25:41.000Z</time>
      </trkpt>
      <trkpt lat="47.52114" lon="6.66653">
        <ele>378</ele>
        <time>2015-11-29T10:25:42.000Z</time>
      </trkpt>
      <trkpt lat="47.52113" lon="6.6666">
        <ele>378</ele>
        <time>2015-11-29T10:25:43.000Z</time>
      </trkpt>
      <trkpt lat="47.52113" lon="6.66667">
        <ele>378</ele>
        <time>2015-11-29T10:25:44.000Z</time>
      </trkpt>
      <trkpt lat="47.52113" lon="6.66675">
        <ele>377</ele>
        <time>2015-11-29T10:25:45.000Z</time>
      </trkpt>
      <trkpt lat="47.52113" lon="6.66683">
        <ele>377</ele>
        <time>2015-11-29T10:25:46.000Z</time>
      </trkpt>
      <trkpt lat="47.52113" lon="6.66691">
        <ele>377</ele>
        <time>2015-11-29T10:25:47.000Z</time>
      </trkpt>
      <trkpt lat="47.52113" lon="6.66701">
        <ele>377</ele>
        <time>2015-11-29T10:25:48.000Z</time>
      </trkpt>
      <trkpt lat="47.52112" lon="6.6671">
        <ele>377</ele>
        <time>2015-11-29T10:25:49.000Z</time>
      </trkpt>
      <trkpt lat="47.52112" lon="6.66718">
        <ele>377</ele>
        <time>2015-11-29T10:25:50.000Z</time>
      </trkpt>
      <trkpt lat="47.52112" lon="6.66726">
        <ele>377</ele>
        <time>2015-11-29T10:25:51.000Z</time>
      </trkpt>
      <trkpt lat="47.52111" lon="6.66735">
        <ele>377</ele>
        <time>2015-11-29T10:25:52.000Z</time>
      </trkpt>
      <trkpt lat="47.52111" lon="6.66742">
        <ele>377</ele>
        <time>2015-11-29T10:25:53.000Z</time>
      </trkpt>
      <trkpt lat="47.5211" lon="6.6675">
        <ele>377</ele>
        <time>2015-11-29T10:25:54.000Z</time>
      </trkpt>
      <trkpt lat="47.5211" lon="6.66757">
        <ele>377</ele>
        <time>2015-11-29T10:25:55.000Z</time>
      </trkpt>
      <trkpt lat="47.5211" lon="6.66765">
        <ele>377</ele>
        <time>2015-11-29T10:25:56.000Z</time>
      </trkpt>
      <trkpt lat="47.5211" lon="6.66775">
        <ele>377</ele>
        <time>2015-11-29T10:25:57.000Z</time>
      </trkpt>
      <trkpt lat="47.5211" lon="6.66783">
        <ele>377</ele>
        <time>2015-11-29T10:25:58.000Z</time>
      </trkpt>
      <trkpt lat="47.52109" lon="6.6679">
        <ele>377</ele>
        <time>2015-11-29T10:25:59.000Z</time>
      </trkpt>
      <trkpt lat="47.52109" lon="6.668">
        <ele>377</ele>
        <time>2015-11-29T10:26:00.000Z</time>
      </trkpt>
      <trkpt lat="47.52109" lon="6.66809">
        <ele>377</ele>
        <time>2015-11-29T10:26:01.001Z</time>
      </trkpt>
      <trkpt lat="47.5211" lon="6.66818">
        <ele>377</ele>
        <time>2015-11-29T10:26:02.000Z</time>
      </trkpt>
      <trkpt lat="47.5211" lon="6.66827">
        <ele>377</ele>
        <time>2015-11-29T10:26:03.000Z</time>
      </trkpt>
      <trkpt lat="47.5211" lon="6.66837">
        <ele>376</ele>
        <time>2015-11-29T10:26:04.000Z</time>
      </trkpt>
      <trkpt lat="47.52111" lon="6.66847">
        <ele>376</ele>
        <time>2015-11-29T10:26:05.000Z</time>
      </trkpt>
      <trkpt lat="47.52112" lon="6.66857">
        <ele>376</ele>
        <time>2015-11-29T10:26:06.000Z</time>
      </trkpt>
      <trkpt lat="47.52112" lon="6.66866">
        <ele>376</ele>
        <time>2015-11-29T10:26:07.000Z</time>
      </trkpt>
      <trkpt lat="47.52111" lon="6.66875">
        <ele>376</ele>
        <time>2015-11-29T10:26:08.000Z</time>
      </trkpt>
      <trkpt lat="47.52111" lon="6.66885">
        <ele>376</ele>
        <time>2015-11-29T10:26:09.000Z</time>
      </trkpt>
      <trkpt lat="47.52111" lon="6.66894">
        <ele>376</ele>
        <time>2015-11-29T10:26:10.000Z</time>
      </trkpt>
      <trkpt lat="47.52111" lon="6.66904">
        <ele>376</ele>
        <time>2015-11-29T10:26:11.000Z</time>
      </trkpt>
      <trkpt lat="47.52112" lon="6.66913">
        <ele>376</ele>
        <time>2015-11-29T10:26:12.000Z</time>
      </trkpt>
      <trkpt lat="47.52113" lon="6.66922">
        <ele>375</ele>
        <time>2015-11-29T10:26:13.000Z</time>
      </trkpt>
      <trkpt lat="47.52113" lon="6.66932">
        <ele>375</ele>
        <time>2015-11-29T10:26:14.000Z</time>
      </trkpt>
      <trkpt lat="47.52113" lon="6.66943">
        <ele>375</ele>
        <time>2015-11-29T10:26:15.000Z</time>
      </trkpt>
      <trkpt lat="47.52113" lon="6.66954">
        <ele>375</ele>
        <time>2015-11-29T10:26:16.000Z</time>
      </trkpt>
      <trkpt lat="47.52114" lon="6.66964">
        <ele>375</ele>
        <time>2015-11-29T10:26:17.000Z</time>
      </trkpt>
      <trkpt lat="47.52115" lon="6.66973">
        <ele>375</ele>
        <time>2015-11-29T10:26:18.000Z</time>
      </trkpt>
      <trkpt lat="47.52116" lon="6.66982">
        <ele>375</ele>
        <time>2015-11-29T10:26:19.000Z</time>
      </trkpt>
      <trkpt lat="47.52117" lon="6.66992">
        <ele>375</ele>
        <time>2015-11-29T10:26:20.000Z</time>
      </trkpt>
      <trkpt lat="47.52119" lon="6.67001">
        <ele>374</ele>
        <time>2015-11-29T10:26:21.000Z</time>
      </trkpt>
      <trkpt lat="47.5212" lon="6.6701">
        <ele>374</ele>
        <time>2015-11-29T10:26:22.000Z</time>
      </trkpt>
      <trkpt lat="47.52121" lon="6.67019">
        <ele>374</ele>
        <time>2015-11-29T10:26:23.000Z</time>
      </trkpt>
      <trkpt lat="47.52123" lon="6.67031">
        <ele>374</ele>
        <time>2015-11-29T10:26:24.000Z</time>
      </trkpt>
      <trkpt lat="47.52126" lon="6.67042">
        <ele>374</ele>
        <time>2015-11-29T10:26:25.000Z</time>
      </trkpt>
      <trkpt lat="47.52128" lon="6.67052">
        <ele>374</ele>
        <time>2015-11-29T10:26:26.000Z</time>
      </trkpt>
      <trkpt lat="47.5213" lon="6.67063">
        <ele>374</ele>
        <time>2015-11-29T10:26:27.000Z</time>
      </trkpt>
      <trkpt lat="47.52132" lon="6.67074">
        <ele>374</ele>
        <time>2015-11-29T10:26:28.000Z</time>
      </trkpt>
      <trkpt lat="47.52134" lon="6.67083">
        <ele>373</ele>
        <time>2015-11-29T10:26:29.000Z</time>
      </trkpt>
      <trkpt lat="47.52136" lon="6.67092">
        <ele>373</ele>
        <time>2015-11-29T10:26:30.000Z</time>
      </trkpt>
      <trkpt lat="47.52137" lon="6.67102">
        <ele>372</ele>
        <time>2015-11-29T10:26:31.000Z</time>
      </trkpt>
      <trkpt lat="47.5214" lon="6.67113">
        <ele>372</ele>
        <time>2015-11-29T10:26:32.000Z</time>
      </trkpt>
      <trkpt lat="47.52142" lon="6.67123">
        <ele>372</ele>
        <time>2015-11-29T10:26:33.000Z</time>
      </trkpt>
      <trkpt lat="47.52144" lon="6.67133">
        <ele>372</ele>
        <time>2015-11-29T10:26:34.000Z</time>
      </trkpt>
      <trkpt lat="47.52145" lon="6.67143">
        <ele>372</ele>
        <time>2015-11-29T10:26:35.000Z</time>
      </trkpt>
      <trkpt lat="47.52147" lon="6.67153">
        <ele>372</ele>
        <time>2015-11-29T10:26:36.000Z</time>
      </trkpt>
      <trkpt lat="47.52149" lon="6.67164">
        <ele>372</ele>
        <time>2015-11-29T10:26:37.000Z</time>
      </trkpt>
      <trkpt lat="47.52151" lon="6.67174">
        <ele>372</ele>
        <time>2015-11-29T10:26:38.000Z</time>
      </trkpt>
      <trkpt lat="47.52154" lon="6.67184">
        <ele>372</ele>
        <time>2015-11-29T10:26:39.000Z</time>
      </trkpt>
      <trkpt lat="47.52156" lon="6.67194">
        <ele>372</ele>
        <time>2015-11-29T10:26:40.000Z</time>
      </trkpt>
      <trkpt lat="47.52157" lon="6.67205">
        <ele>372</ele>
        <time>2015-11-29T10:26:41.000Z</time>
      </trkpt>
      <trkpt lat="47.52159" lon="6.67216">
        <ele>372</ele>
        <time>2015-11-29T10:26:42.000Z</time>
      </trkpt>
      <trkpt lat="47.52161" lon="6.67224">
        <ele>372</ele>
        <time>2015-11-29T10:26:43.000Z</time>
      </trkpt>
      <trkpt lat="47.52162" lon="6.67234">
        <ele>372</ele>
        <time>2015-11-29T10:26:44.000Z</time>
      </trkpt>
      <trkpt lat="47.52164" lon="6.67243">
        <ele>372</ele>
        <time>2015-11-29T10:26:45.000Z</time>
      </trkpt>
      <trkpt lat="47.52166" lon="6.67252">
        <ele>372</ele>
        <time>2015-11-29T10:26:46.000Z</time>
      </trkpt>
      <trkpt lat="47.52168" lon="6.67261">
        <ele>372</ele>
        <time>2015-11-29T10:26:47.000Z</time>
      </trkpt>
      <trkpt lat="47.52169" lon="6.6727">
        <ele>372</ele>
        <time>2015-11-29T10:26:48.000Z</time>
      </trkpt>
      <trkpt lat="47.5217" lon="6.67279">
        <ele>372</ele>
        <time>2015-11-29T10:26:49.000Z</time>
      </trkpt>
      <trkpt lat="47.52171" lon="6.67289">
        <ele>372</ele>
        <time>2015-11-29T10:26:50.000Z</time>
      </trkpt>
      <trkpt lat="47.52171" lon="6.673">
        <ele>372</ele>
        <time>2015-11-29T10:26:51.000Z</time>
      </trkpt>
      <trkpt lat="47.52172" lon="6.6731">
        <ele>372</ele>
        <time>2015-11-29T10:26:52.000Z</time>
      </trkpt>
      <trkpt lat="47.52172" lon="6.67321">
        <ele>372</ele>
        <time>2015-11-29T10:26:53.000Z</time>
      </trkpt>
      <trkpt lat="47.52172" lon="6.67332">
        <ele>372</ele>
        <time>2015-11-29T10:26:54.000Z</time>
      </trkpt>
      <trkpt lat="47.52174" lon="6.67343">
        <ele>372</ele>
        <time>2015-11-29T10:26:55.000Z</time>
      </trkpt>
      <trkpt lat="47.52175" lon="6.67353">
        <ele>372</ele>
        <time>2015-11-29T10:26:56.000Z</time>
      </trkpt>
      <trkpt lat="47.52177" lon="6.67364">
        <ele>372</ele>
        <time>2015-11-29T10:26:57.000Z</time>
      </trkpt>
      <trkpt lat="47.52179" lon="6.67375">
        <ele>372</ele>
        <time>2015-11-29T10:26:58.000Z</time>
      </trkpt>
      <trkpt lat="47.52183" lon="6.67386">
        <ele>372</ele>
        <time>2015-11-29T10:26:59.000Z</time>
      </trkpt>
      <trkpt lat="47.52186" lon="6.67396">
        <ele>372</ele>
        <time>2015-11-29T10:27:00.000Z</time>
      </trkpt>
      <trkpt lat="47.52189" lon="6.67406">
        <ele>372</ele>
        <time>2015-11-29T10:27:01.000Z</time>
      </trkpt>
      <trkpt lat="47.52193" lon="6.67416">
        <ele>372</ele>
        <time>2015-11-29T10:27:02.000Z</time>
      </trkpt>
      <trkpt lat="47.52196" lon="6.67425">
        <ele>371</ele>
        <time>2015-11-29T10:27:03.000Z</time>
      </trkpt>
      <trkpt lat="47.522" lon="6.67434">
        <ele>371</ele>
        <time>2015-11-29T10:27:04.000Z</time>
      </trkpt>
      <trkpt lat="47.52204" lon="6.67444">
        <ele>371</ele>
        <time>2015-11-29T10:27:05.000Z</time>
      </trkpt>
      <trkpt lat="47.52207" lon="6.67453">
        <ele>371</ele>
        <time>2015-11-29T10:27:06.000Z</time>
      </trkpt>
      <trkpt lat="47.52208" lon="6.67462">
        <ele>371</ele>
        <time>2015-11-29T10:27:07.000Z</time>
      </trkpt>
      <trkpt lat="47.52209" lon="6.67471">
        <ele>372</ele>
        <time>2015-11-29T10:27:08.000Z</time>
      </trkpt>
      <trkpt lat="47.52209" lon="6.67481">
        <ele>372</ele>
        <time>2015-11-29T10:27:09.000Z</time>
      </trkpt>
      <trkpt lat="47.52209" lon="6.67491">
        <ele>372</ele>
        <time>2015-11-29T10:27:10.000Z</time>
      </trkpt>
      <trkpt lat="47.52209" lon="6.675">
        <ele>371</ele>
        <time>2015-11-29T10:27:11.000Z</time>
      </trkpt>
      <trkpt lat="47.52208" lon="6.6751">
        <ele>371</ele>
        <time>2015-11-29T10:27:12.000Z</time>
      </trkpt>
      <trkpt lat="47.52208" lon="6.67519">
        <ele>371</ele>
        <time>2015-11-29T10:27:13.000Z</time>
      </trkpt>
      <trkpt lat="47.52208" lon="6.67528">
        <ele>371</ele>
        <time>2015-11-29T10:27:14.000Z</time>
      </trkpt>
      <trkpt lat="47.52208" lon="6.67538">
        <ele>371</ele>
        <time>2015-11-29T10:27:15.000Z</time>
      </trkpt>
      <trkpt lat="47.52207" lon="6.67549">
        <ele>371</ele>
        <time>2015-11-29T10:27:16.000Z</time>
      </trkpt>
      <trkpt lat="47.52207" lon="6.67559">
        <ele>371</ele>
        <time>2015-11-29T10:27:17.000Z</time>
      </trkpt>
      <trkpt lat="47.52207" lon="6.67569">
        <ele>371</ele>
        <time>2015-11-29T10:27:18.000Z</time>
      </trkpt>
      <trkpt lat="47.52207" lon="6.67579">
        <ele>370</ele>
        <time>2015-11-29T10:27:19.000Z</time>
      </trkpt>
      <trkpt lat="47.52206" lon="6.67589">
        <ele>369</ele>
        <time>2015-11-29T10:27:20.000Z</time>
      </trkpt>
      <trkpt lat="47.52206" lon="6.67599">
        <ele>369</ele>
        <time>2015-11-29T10:27:21.000Z</time>
      </trkpt>
      <trkpt lat="47.52206" lon="6.6761">
        <ele>369</ele>
        <time>2015-11-29T10:27:22.000Z</time>
      </trkpt>
      <trkpt lat="47.52205" lon="6.6762">
        <ele>369</ele>
        <time>2015-11-29T10:27:23.000Z</time>
      </trkpt>
      <trkpt lat="47.52204" lon="6.6763">
        <ele>369</ele>
        <time>2015-11-29T10:27:24.000Z</time>
      </trkpt>
      <trkpt lat="47.52204" lon="6.67642">
        <ele>368</ele>
        <time>2015-11-29T10:27:25.000Z</time>
      </trkpt>
      <trkpt lat="47.52203" lon="6.67653">
        <ele>368</ele>
        <time>2015-11-29T10:27:26.000Z</time>
      </trkpt>
      <trkpt lat="47.52203" lon="6.67664">
        <ele>368</ele>
        <time>2015-11-29T10:27:27.000Z</time>
      </trkpt>
      <trkpt lat="47.52202" lon="6.67675">
        <ele>367</ele>
        <time>2015-11-29T10:27:28.000Z</time>
      </trkpt>
      <trkpt lat="47.52202" lon="6.67686">
        <ele>367</ele>
        <time>2015-11-29T10:27:29.000Z</time>
      </trkpt>
      <trkpt lat="47.52201" lon="6.67698">
        <ele>367</ele>
        <time>2015-11-29T10:27:30.000Z</time>
      </trkpt>
      <trkpt lat="47.522" lon="6.67709">
        <ele>367</ele>
        <time>2015-11-29T10:27:31.000Z</time>
      </trkpt>
      <trkpt lat="47.522" lon="6.67721">
        <ele>367</ele>
        <time>2015-11-29T10:27:31.999Z</time>
      </trkpt>
      <trkpt lat="47.52199" lon="6.67734">
        <ele>367</ele>
        <time>2015-11-29T10:27:33.000Z</time>
      </trkpt>
      <trkpt lat="47.52198" lon="6.67746">
        <ele>367</ele>
        <time>2015-11-29T10:27:34.000Z</time>
      </trkpt>
      <trkpt lat="47.52197" lon="6.67758">
        <ele>366</ele>
        <time>2015-11-29T10:27:35.000Z</time>
      </trkpt>
      <trkpt lat="47.52196" lon="6.6777">
        <ele>366</ele>
        <time>2015-11-29T10:27:36.000Z</time>
      </trkpt>
      <trkpt lat="47.52195" lon="6.67781">
        <ele>366</ele>
        <time>2015-11-29T10:27:37.000Z</time>
      </trkpt>
      <trkpt lat="47.52194" lon="6.67792">
        <ele>366</ele>
        <time>2015-11-29T10:27:38.000Z</time>
      </trkpt>
      <trkpt lat="47.52194" lon="6.67804">
        <ele>366</ele>
        <time>2015-11-29T10:27:39.000Z</time>
      </trkpt>
      <trkpt lat="47.52193" lon="6.67815">
        <ele>366</ele>
        <time>2015-11-29T10:27:40.001Z</time>
      </trkpt>
      <trkpt lat="47.52192" lon="6.67825">
        <ele>365</ele>
        <time>2015-11-29T10:27:41.000Z</time>
      </trkpt>
      <trkpt lat="47.52191" lon="6.67836">
        <ele>365</ele>
        <time>2015-11-29T10:27:42.000Z</time>
      </trkpt>
      <trkpt lat="47.52191" lon="6.67847">
        <ele>365</ele>
        <time>2015-11-29T10:27:43.000Z</time>
      </trkpt>
      <trkpt lat="47.5219" lon="6.67858">
        <ele>365</ele>
        <time>2015-11-29T10:27:44.000Z</time>
      </trkpt>
      <trkpt lat="47.52189" lon="6.67869">
        <ele>365</ele>
        <time>2015-11-29T10:27:45.000Z</time>
      </trkpt>
      <trkpt lat="47.52189" lon="6.6788">
        <ele>364</ele>
        <time>2015-11-29T10:27:46.000Z</time>
      </trkpt>
      <trkpt lat="47.52188" lon="6.67889">
        <ele>364</ele>
        <time>2015-11-29T10:27:47.000Z</time>
      </trkpt>
      <trkpt lat="47.52188" lon="6.679">
        <ele>364</ele>
        <time>2015-11-29T10:27:48.000Z</time>
      </trkpt>
      <trkpt lat="47.52188" lon="6.6791">
        <ele>364</ele>
        <time>2015-11-29T10:27:49.000Z</time>
      </trkpt>
      <trkpt lat="47.52187" lon="6.6792">
        <ele>364</ele>
        <time>2015-11-29T10:27:50.000Z</time>
      </trkpt>
      <trkpt lat="47.52186" lon="6.67931">
        <ele>364</ele>
        <time>2015-11-29T10:27:51.000Z</time>
      </trkpt>
      <trkpt lat="47.52185" lon="6.67941">
        <ele>364</ele>
        <time>2015-11-29T10:27:52.000Z</time>
      </trkpt>
      <trkpt lat="47.52185" lon="6.67951">
        <ele>364</ele>
        <time>2015-11-29T10:27:52.999Z</time>
      </trkpt>
      <trkpt lat="47.52184" lon="6.6796">
        <ele>363</ele>
        <time>2015-11-29T10:27:54.000Z</time>
      </trkpt>
      <trkpt lat="47.52183" lon="6.67968">
        <ele>363</ele>
        <time>2015-11-29T10:27:55.000Z</time>
      </trkpt>
      <trkpt lat="47.52182" lon="6.67979">
        <ele>363</ele>
        <time>2015-11-29T10:27:56.000Z</time>
      </trkpt>
      <trkpt lat="47.52181" lon="6.67989">
        <ele>363</ele>
        <time>2015-11-29T10:27:57.000Z</time>
      </trkpt>
      <trkpt lat="47.52179" lon="6.68001">
        <ele>363</ele>
        <time>2015-11-29T10:27:58.000Z</time>
      </trkpt>
      <trkpt lat="47.52179" lon="6.68012">
        <ele>363</ele>
        <time>2015-11-29T10:27:59.000Z</time>
      </trkpt>
      <trkpt lat="47.52178" lon="6.68024">
        <ele>363</ele>
        <time>2015-11-29T10:28:00.000Z</time>
      </trkpt>
      <trkpt lat="47.52177" lon="6.68035">
        <ele>363</ele>
        <time>2015-11-29T10:28:01.000Z</time>
      </trkpt>
      <trkpt lat="47.52177" lon="6.68045">
        <ele>362</ele>
        <time>2015-11-29T10:28:02.000Z</time>
      </trkpt>
      <trkpt lat="47.52177" lon="6.68054">
        <ele>362</ele>
        <time>2015-11-29T10:28:03.000Z</time>
      </trkpt>
      <trkpt lat="47.52176" lon="6.68064">
        <ele>362</ele>
        <time>2015-11-29T10:28:04.000Z</time>
      </trkpt>
      <trkpt lat="47.52175" lon="6.68073">
        <ele>362</ele>
        <time>2015-11-29T10:28:05.000Z</time>
      </trkpt>
      <trkpt lat="47.52174" lon="6.68083">
        <ele>362</ele>
        <time>2015-11-29T10:28:06.000Z</time>
      </trkpt>
      <trkpt lat="47.52173" lon="6.68091">
        <ele>362</ele>
        <time>2015-11-29T10:28:07.000Z</time>
      </trkpt>
      <trkpt lat="47.52172" lon="6.68099">
        <ele>361</ele>
        <time>2015-11-29T10:28:08.000Z</time>
      </trkpt>
      <trkpt lat="47.52172" lon="6.68107">
        <ele>361</ele>
        <time>2015-11-29T10:28:09.000Z</time>
      </trkpt>
      <trkpt lat="47.52171" lon="6.68112">
        <ele>361</ele>
        <time>2015-11-29T10:28:10.000Z</time>
      </trkpt>
      <trkpt lat="47.52171" lon="6.68116">
        <ele>361</ele>
        <time>2015-11-29T10:28:11.000Z</time>
      </trkpt>
      <trkpt lat="47.5217" lon="6.6812">
        <ele>361</ele>
        <time>2015-11-29T10:28:14.000Z</time>
      </trkpt>
      <trkpt lat="47.5217" lon="6.68124">
        <ele>361</ele>
        <time>2015-11-29T10:28:15.000Z</time>
      </trkpt>
      <trkpt lat="47.52169" lon="6.68127">
        <ele>361</ele>
        <time>2015-11-29T10:28:16.000Z</time>
      </trkpt>
      <trkpt lat="47.52167" lon="6.6813">
        <ele>361</ele>
        <time>2015-11-29T10:28:17.000Z</time>
      </trkpt>
      <trkpt lat="47.52166" lon="6.68133">
        <ele>361</ele>
        <time>2015-11-29T10:28:18.000Z</time>
      </trkpt>
      <trkpt lat="47.52164" lon="6.68136">
        <ele>361</ele>
        <time>2015-11-29T10:28:19.000Z</time>
      </trkpt>
      <trkpt lat="47.52162" lon="6.6814">
        <ele>361</ele>
        <time>2015-11-29T10:28:20.000Z</time>
      </trkpt>
      <trkpt lat="47.5216" lon="6.68144">
        <ele>361</ele>
        <time>2015-11-29T10:28:21.000Z</time>
      </trkpt>
      <trkpt lat="47.52158" lon="6.6815">
        <ele>361</ele>
        <time>2015-11-29T10:28:22.001Z</time>
      </trkpt>
      <trkpt lat="47.52158" lon="6.68156">
        <ele>361</ele>
        <time>2015-11-29T10:28:23.000Z</time>
      </trkpt>
      <trkpt lat="47.5216" lon="6.68166">
        <ele>360</ele>
        <time>2015-11-29T10:28:24.000Z</time>
      </trkpt>
      <trkpt lat="47.5216" lon="6.68173">
        <ele>360</ele>
        <time>2015-11-29T10:28:25.000Z</time>
      </trkpt>
      <trkpt lat="47.52161" lon="6.68181">
        <ele>360</ele>
        <time>2015-11-29T10:28:26.000Z</time>
      </trkpt>
      <trkpt lat="47.52161" lon="6.68188">
        <ele>360</ele>
        <time>2015-11-29T10:28:27.000Z</time>
      </trkpt>
      <trkpt lat="47.52161" lon="6.68195">
        <ele>360</ele>
        <time>2015-11-29T10:28:28.000Z</time>
      </trkpt>
      <trkpt lat="47.52161" lon="6.68204">
        <ele>360</ele>
        <time>2015-11-29T10:28:29.000Z</time>
      </trkpt>
      <trkpt lat="47.52161" lon="6.68212">
        <ele>360</ele>
        <time>2015-11-29T10:28:30.000Z</time>
      </trkpt>
      <trkpt lat="47.52165" lon="6.68221">
        <ele>360</ele>
        <time>2015-11-29T10:28:31.000Z</time>
      </trkpt>
      <trkpt lat="47.52166" lon="6.6823">
        <ele>360</ele>
        <time>2015-11-29T10:28:32.000Z</time>
      </trkpt>
      <trkpt lat="47.52169" lon="6.68239">
        <ele>359</ele>
        <time>2015-11-29T10:28:33.000Z</time>
      </trkpt>
      <trkpt lat="47.52171" lon="6.68248">
        <ele>359</ele>
        <time>2015-11-29T10:28:34.000Z</time>
      </trkpt>
      <trkpt lat="47.52173" lon="6.68257">
        <ele>359</ele>
        <time>2015-11-29T10:28:35.000Z</time>
      </trkpt>
      <trkpt lat="47.52176" lon="6.68264">
        <ele>359</ele>
        <time>2015-11-29T10:28:36.000Z</time>
      </trkpt>
      <trkpt lat="47.52179" lon="6.68273">
        <ele>359</ele>
        <time>2015-11-29T10:28:37.000Z</time>
      </trkpt>
      <trkpt lat="47.52183" lon="6.68282">
        <ele>359</ele>
        <time>2015-11-29T10:28:38.000Z</time>
      </trkpt>
      <trkpt lat="47.52183" lon="6.68289">
        <ele>359</ele>
        <time>2015-11-29T10:28:39.000Z</time>
      </trkpt>
      <trkpt lat="47.52184" lon="6.68296">
        <ele>359</ele>
        <time>2015-11-29T10:28:40.000Z</time>
      </trkpt>
      <trkpt lat="47.52186" lon="6.68304">
        <ele>359</ele>
        <time>2015-11-29T10:28:41.000Z</time>
      </trkpt>
      <trkpt lat="47.52187" lon="6.68313">
        <ele>359</ele>
        <time>2015-11-29T10:28:42.000Z</time>
      </trkpt>
      <trkpt lat="47.52188" lon="6.68321">
        <ele>359</ele>
        <time>2015-11-29T10:28:43.000Z</time>
      </trkpt>
      <trkpt lat="47.52189" lon="6.68328">
        <ele>359</ele>
        <time>2015-11-29T10:28:44.000Z</time>
      </trkpt>
      <trkpt lat="47.52191" lon="6.68334">
        <ele>359</ele>
        <time>2015-11-29T10:28:45.000Z</time>
      </trkpt>
      <trkpt lat="47.52192" lon="6.68341">
        <ele>359</ele>
        <time>2015-11-29T10:28:46.000Z</time>
      </trkpt>
      <trkpt lat="47.52191" lon="6.68349">
        <ele>359</ele>
        <time>2015-11-29T10:28:47.000Z</time>
      </trkpt>
      <trkpt lat="47.52192" lon="6.68356">
        <ele>359</ele>
        <time>2015-11-29T10:28:48.000Z</time>
      </trkpt>
      <trkpt lat="47.52194" lon="6.68363">
        <ele>359</ele>
        <time>2015-11-29T10:28:49.000Z</time>
      </trkpt>
      <trkpt lat="47.52196" lon="6.6837">
        <ele>359</ele>
        <time>2015-11-29T10:28:50.000Z</time>
      </trkpt>
      <trkpt lat="47.52197" lon="6.68378">
        <ele>359</ele>
        <time>2015-11-29T10:28:51.000Z</time>
      </trkpt>
      <trkpt lat="47.52198" lon="6.68386">
        <ele>359</ele>
        <time>2015-11-29T10:28:52.000Z</time>
      </trkpt>
      <trkpt lat="47.522" lon="6.68393">
        <ele>359</ele>
        <time>2015-11-29T10:28:53.000Z</time>
      </trkpt>
      <trkpt lat="47.52202" lon="6.68401">
        <ele>359</ele>
        <time>2015-11-29T10:28:54.000Z</time>
      </trkpt>
      <trkpt lat="47.52204" lon="6.68409">
        <ele>359</ele>
        <time>2015-11-29T10:28:55.000Z</time>
      </trkpt>
      <trkpt lat="47.52206" lon="6.68417">
        <ele>358</ele>
        <time>2015-11-29T10:28:56.000Z</time>
      </trkpt>
      <trkpt lat="47.52208" lon="6.68425">
        <ele>358</ele>
        <time>2015-11-29T10:28:57.000Z</time>
      </trkpt>
      <trkpt lat="47.5221" lon="6.68432">
        <ele>359</ele>
        <time>2015-11-29T10:28:58.000Z</time>
      </trkpt>
      <trkpt lat="47.52213" lon="6.68442">
        <ele>359</ele>
        <time>2015-11-29T10:28:59.000Z</time>
      </trkpt>
      <trkpt lat="47.52214" lon="6.6845">
        <ele>359</ele>
        <time>2015-11-29T10:29:00.000Z</time>
      </trkpt>
      <trkpt lat="47.52216" lon="6.68457">
        <ele>359</ele>
        <time>2015-11-29T10:29:01.000Z</time>
      </trkpt>
      <trkpt lat="47.52217" lon="6.68465">
        <ele>359</ele>
        <time>2015-11-29T10:29:02.000Z</time>
      </trkpt>
      <trkpt lat="47.52219" lon="6.68474">
        <ele>359</ele>
        <time>2015-11-29T10:29:03.000Z</time>
      </trkpt>
      <trkpt lat="47.52221" lon="6.68483">
        <ele>359</ele>
        <time>2015-11-29T10:29:04.000Z</time>
      </trkpt>
      <trkpt lat="47.52222" lon="6.6849">
        <ele>359</ele>
        <time>2015-11-29T10:29:05.000Z</time>
      </trkpt>
      <trkpt lat="47.52224" lon="6.68497">
        <ele>359</ele>
        <time>2015-11-29T10:29:06.000Z</time>
      </trkpt>
      <trkpt lat="47.52227" lon="6.68503">
        <ele>360</ele>
        <time>2015-11-29T10:29:07.000Z</time>
      </trkpt>
      <trkpt lat="47.52229" lon="6.6851">
        <ele>360</ele>
        <time>2015-11-29T10:29:08.000Z</time>
      </trkpt>
      <trkpt lat="47.5223" lon="6.68517">
        <ele>360</ele>
        <time>2015-11-29T10:29:09.000Z</time>
      </trkpt>
      <trkpt lat="47.52232" lon="6.68524">
        <ele>360</ele>
        <time>2015-11-29T10:29:10.000Z</time>
      </trkpt>
      <trkpt lat="47.52234" lon="6.68531">
        <ele>360</ele>
        <time>2015-11-29T10:29:11.000Z</time>
      </trkpt>
      <trkpt lat="47.52236" lon="6.68537">
        <ele>360</ele>
        <time>2015-11-29T10:29:12.000Z</time>
      </trkpt>
      <trkpt lat="47.52239" lon="6.6854">
        <ele>360</ele>
        <time>2015-11-29T10:29:13.000Z</time>
      </trkpt>
      <trkpt lat="47.52242" lon="6.68545">
        <ele>360</ele>
        <time>2015-11-29T10:29:14.000Z</time>
      </trkpt>
      <trkpt lat="47.52244" lon="6.6855">
        <ele>361</ele>
        <time>2015-11-29T10:29:15.000Z</time>
      </trkpt>
      <trkpt lat="47.52246" lon="6.68555">
        <ele>361</ele>
        <time>2015-11-29T10:29:16.000Z</time>
      </trkpt>
      <trkpt lat="47.52249" lon="6.68559">
        <ele>361</ele>
        <time>2015-11-29T10:29:17.000Z</time>
      </trkpt>
      <trkpt lat="47.52251" lon="6.68563">
        <ele>364</ele>
        <time>2015-11-29T10:29:18.001Z</time>
      </trkpt>
      <trkpt lat="47.52251" lon="6.68566">
        <ele>364</ele>
        <time>2015-11-29T10:29:19.000Z</time>
      </trkpt>
      <trkpt lat="47.52256" lon="6.68568">
        <ele>364</ele>
        <time>2015-11-29T10:29:20.000Z</time>
      </trkpt>
      <trkpt lat="47.52259" lon="6.68569">
        <ele>364</ele>
        <time>2015-11-29T10:29:21.000Z</time>
      </trkpt>
      <trkpt lat="47.52262" lon="6.68571">
        <ele>364</ele>
        <time>2015-11-29T10:29:22.000Z</time>
      </trkpt>
      <trkpt lat="47.52265" lon="6.68572">
        <ele>364</ele>
        <time>2015-11-29T10:29:23.000Z</time>
      </trkpt>
      <trkpt lat="47.52269" lon="6.68573">
        <ele>365</ele>
        <time>2015-11-29T10:29:24.000Z</time>
      </trkpt>
      <trkpt lat="47.52272" lon="6.68573">
        <ele>365</ele>
        <time>2015-11-29T10:29:25.000Z</time>
      </trkpt>
      <trkpt lat="47.52275" lon="6.68573">
        <ele>365</ele>
        <time>2015-11-29T10:29:26.000Z</time>
      </trkpt>
      <trkpt lat="47.52278" lon="6.68573">
        <ele>365</ele>
        <time>2015-11-29T10:29:27.000Z</time>
      </trkpt>
      <trkpt lat="47.5228" lon="6.68573">
        <ele>365</ele>
        <time>2015-11-29T10:29:28.001Z</time>
      </trkpt>
      <trkpt lat="47.52283" lon="6.68572">
        <ele>366</ele>
        <time>2015-11-29T10:29:29.000Z</time>
      </trkpt>
      <trkpt lat="47.52286" lon="6.68572">
        <ele>366</ele>
        <time>2015-11-29T10:29:30.000Z</time>
      </trkpt>
      <trkpt lat="47.5229" lon="6.68571">
        <ele>366</ele>
        <time>2015-11-29T10:29:32.000Z</time>
      </trkpt>
      <trkpt lat="47.52291" lon="6.6857">
        <ele>366</ele>
        <time>2015-11-29T10:29:33.000Z</time>
      </trkpt>
      <trkpt lat="47.52294" lon="6.68568">
        <ele>366</ele>
        <time>2015-11-29T10:29:35.000Z</time>
      </trkpt>
      <trkpt lat="47.52296" lon="6.68567">
        <ele>366</ele>
        <time>2015-11-29T10:29:36.000Z</time>
      </trkpt>
      <trkpt lat="47.52299" lon="6.68565">
        <ele>367</ele>
        <time>2015-11-29T10:29:38.000Z</time>
      </trkpt>
      <trkpt lat="47.52301" lon="6.68564">
        <ele>367</ele>
        <time>2015-11-29T10:29:39.000Z</time>
      </trkpt>
      <trkpt lat="47.52304" lon="6.68564">
        <ele>367</ele>
        <time>2015-11-29T10:29:40.000Z</time>
      </trkpt>
      <trkpt lat="47.52306" lon="6.68563">
        <ele>367</ele>
        <time>2015-11-29T10:29:41.000Z</time>
      </trkpt>
      <trkpt lat="47.5231" lon="6.68563">
        <ele>367</ele>
        <time>2015-11-29T10:29:43.000Z</time>
      </trkpt>
      <trkpt lat="47.52313" lon="6.68563">
        <ele>367</ele>
        <time>2015-11-29T10:29:44.000Z</time>
      </trkpt>
      <trkpt lat="47.52315" lon="6.68563">
        <ele>368</ele>
        <time>2015-11-29T10:29:45.000Z</time>
      </trkpt>
      <trkpt lat="47.52317" lon="6.68563">
        <ele>368</ele>
        <time>2015-11-29T10:29:46.000Z</time>
      </trkpt>
      <trkpt lat="47.5232" lon="6.68562">
        <ele>368</ele>
        <time>2015-11-29T10:29:47.000Z</time>
      </trkpt>
      <trkpt lat="47.52323" lon="6.68562">
        <ele>368</ele>
        <time>2015-11-29T10:29:48.000Z</time>
      </trkpt>
      <trkpt lat="47.52326" lon="6.68561">
        <ele>368</ele>
        <time>2015-11-29T10:29:49.000Z</time>
      </trkpt>
      <trkpt lat="47.52329" lon="6.6856">
        <ele>368</ele>
        <time>2015-11-29T10:29:50.000Z</time>
      </trkpt>
      <trkpt lat="47.52333" lon="6.68557">
        <ele>368</ele>
        <time>2015-11-29T10:29:52.000Z</time>
      </trkpt>
      <trkpt lat="47.52335" lon="6.68556">
        <ele>371</ele>
        <time>2015-11-29T10:29:53.000Z</time>
      </trkpt>
      <trkpt lat="47.52338" lon="6.68555">
        <ele>371</ele>
        <time>2015-11-29T10:29:54.000Z</time>
      </trkpt>
      <trkpt lat="47.5234" lon="6.68555">
        <ele>371</ele>
        <time>2015-11-29T10:29:55.000Z</time>
      </trkpt>
      <trkpt lat="47.52344" lon="6.68555">
        <ele>371</ele>
        <time>2015-11-29T10:29:56.000Z</time>
      </trkpt>
      <trkpt lat="47.52346" lon="6.68557">
        <ele>371</ele>
        <time>2015-11-29T10:29:57.000Z</time>
      </trkpt>
      <trkpt lat="47.52349" lon="6.68558">
        <ele>371</ele>
        <time>2015-11-29T10:29:58.000Z</time>
      </trkpt>
      <trkpt lat="47.52351" lon="6.68561">
        <ele>371</ele>
        <time>2015-11-29T10:29:59.000Z</time>
      </trkpt>
      <trkpt lat="47.52353" lon="6.68564">
        <ele>372</ele>
        <time>2015-11-29T10:30:00.000Z</time>
      </trkpt>
      <trkpt lat="47.52354" lon="6.68568">
        <ele>372</ele>
        <time>2015-11-29T10:30:01.000Z</time>
      </trkpt>
      <trkpt lat="47.52354" lon="6.68573">
        <ele>372</ele>
        <time>2015-11-29T10:30:02.000Z</time>
      </trkpt>
      <trkpt lat="47.52355" lon="6.68578">
        <ele>372</ele>
        <time>2015-11-29T10:30:03.000Z</time>
      </trkpt>
      <trkpt lat="47.52355" lon="6.68582">
        <ele>372</ele>
        <time>2015-11-29T10:30:04.000Z</time>
      </trkpt>
      <trkpt lat="47.52355" lon="6.68586">
        <ele>372</ele>
        <time>2015-11-29T10:30:05.000Z</time>
      </trkpt>
      <trkpt lat="47.52355" lon="6.6859">
        <ele>372</ele>
        <time>2015-11-29T10:30:06.000Z</time>
      </trkpt>
      <trkpt lat="47.52355" lon="6.68593">
        <ele>372</ele>
        <time>2015-11-29T10:30:07.000Z</time>
      </trkpt>
      <trkpt lat="47.52355" lon="6.68597">
        <ele>372</ele>
        <time>2015-11-29T10:30:08.000Z</time>
      </trkpt>
      <trkpt lat="47.52355" lon="6.686">
        <ele>372</ele>
        <time>2015-11-29T10:30:09.000Z</time>
      </trkpt>
      <trkpt lat="47.52355" lon="6.68604">
        <ele>372</ele>
        <time>2015-11-29T10:30:10.000Z</time>
      </trkpt>
      <trkpt lat="47.52355" lon="6.68608">
        <ele>372</ele>
        <time>2015-11-29T10:30:11.000Z</time>
      </trkpt>
      <trkpt lat="47.52354" lon="6.68612">
        <ele>372</ele>
        <time>2015-11-29T10:30:12.000Z</time>
      </trkpt>
      <trkpt lat="47.52353" lon="6.68615">
        <ele>372</ele>
        <time>2015-11-29T10:30:13.000Z</time>
      </trkpt>
      <trkpt lat="47.52352" lon="6.68619">
        <ele>372</ele>
        <time>2015-11-29T10:30:14.000Z</time>
      </trkpt>
      <trkpt lat="47.52351" lon="6.68623">
        <ele>372</ele>
        <time>2015-11-29T10:30:15.000Z</time>
      </trkpt>
      <trkpt lat="47.5235" lon="6.68627">
        <ele>372</ele>
        <time>2015-11-29T10:30:16.000Z</time>
      </trkpt>
      <trkpt lat="47.5235" lon="6.68632">
        <ele>372</ele>
        <time>2015-11-29T10:30:17.000Z</time>
      </trkpt>
      <trkpt lat="47.52349" lon="6.68637">
        <ele>372</ele>
        <time>2015-11-29T10:30:18.000Z</time>
      </trkpt>
      <trkpt lat="47.52349" lon="6.68642">
        <ele>372</ele>
        <time>2015-11-29T10:30:19.000Z</time>
      </trkpt>
      <trkpt lat="47.52348" lon="6.68647">
        <ele>372</ele>
        <time>2015-11-29T10:30:20.000Z</time>
      </trkpt>
      <trkpt lat="47.52347" lon="6.68652">
        <ele>372</ele>
        <time>2015-11-29T10:30:21.000Z</time>
      </trkpt>
      <trkpt lat="47.52346" lon="6.68657">
        <ele>372</ele>
        <time>2015-11-29T10:30:22.000Z</time>
      </trkpt>
      <trkpt lat="47.52345" lon="6.68662">
        <ele>372</ele>
        <time>2015-11-29T10:30:23.000Z</time>
      </trkpt>
      <trkpt lat="47.52345" lon="6.68667">
        <ele>371</ele>
        <time>2015-11-29T10:30:24.000Z</time>
      </trkpt>
      <trkpt lat="47.52344" lon="6.68673">
        <ele>371</ele>
        <time>2015-11-29T10:30:25.000Z</time>
      </trkpt>
      <trkpt lat="47.52344" lon="6.68678">
        <ele>371</ele>
        <time>2015-11-29T10:30:26.000Z</time>
      </trkpt>
      <trkpt lat="47.52345" lon="6.68683">
        <ele>371</ele>
        <time>2015-11-29T10:30:27.000Z</time>
      </trkpt>
      <trkpt lat="47.52346" lon="6.68688">
        <ele>371</ele>
        <time>2015-11-29T10:30:28.000Z</time>
      </trkpt>
      <trkpt lat="47.52347" lon="6.68693">
        <ele>371</ele>
        <time>2015-11-29T10:30:29.000Z</time>
      </trkpt>
      <trkpt lat="47.52349" lon="6.68697">
        <ele>371</ele>
        <time>2015-11-29T10:30:30.000Z</time>
      </trkpt>
      <trkpt lat="47.5235" lon="6.68702">
        <ele>371</ele>
        <time>2015-11-29T10:30:31.000Z</time>
      </trkpt>
      <trkpt lat="47.52351" lon="6.68707">
        <ele>371</ele>
        <time>2015-11-29T10:30:32.000Z</time>
      </trkpt>
      <trkpt lat="47.52352" lon="6.68712">
        <ele>371</ele>
        <time>2015-11-29T10:30:33.000Z</time>
      </trkpt>
      <trkpt lat="47.52354" lon="6.68717">
        <ele>371</ele>
        <time>2015-11-29T10:30:34.000Z</time>
      </trkpt>
      <trkpt lat="47.52355" lon="6.68722">
        <ele>371</ele>
        <time>2015-11-29T10:30:35.000Z</time>
      </trkpt>
      <trkpt lat="47.52357" lon="6.68727">
        <ele>371</ele>
        <time>2015-11-29T10:30:36.000Z</time>
      </trkpt>
      <trkpt lat="47.52357" lon="6.68731">
        <ele>371</ele>
        <time>2015-11-29T10:30:37.000Z</time>
      </trkpt>
      <trkpt lat="47.52358" lon="6.68736">
        <ele>371</ele>
        <time>2015-11-29T10:30:38.000Z</time>
      </trkpt>
      <trkpt lat="47.52358" lon="6.6874">
        <ele>371</ele>
        <time>2015-11-29T10:30:39.000Z</time>
      </trkpt>
      <trkpt lat="47.52359" lon="6.68744">
        <ele>371</ele>
        <time>2015-11-29T10:30:40.000Z</time>
      </trkpt>
      <trkpt lat="47.5236" lon="6.68749">
        <ele>371</ele>
        <time>2015-11-29T10:30:41.000Z</time>
      </trkpt>
      <trkpt lat="47.52361" lon="6.68754">
        <ele>371</ele>
        <time>2015-11-29T10:30:42.000Z</time>
      </trkpt>
      <trkpt lat="47.52362" lon="6.6876">
        <ele>371</ele>
        <time>2015-11-29T10:30:43.000Z</time>
      </trkpt>
      <trkpt lat="47.52364" lon="6.68765">
        <ele>371</ele>
        <time>2015-11-29T10:30:44.000Z</time>
      </trkpt>
      <trkpt lat="47.52365" lon="6.6877">
        <ele>371</ele>
        <time>2015-11-29T10:30:45.000Z</time>
      </trkpt>
      <trkpt lat="47.52366" lon="6.68775">
        <ele>371</ele>
        <time>2015-11-29T10:30:46.000Z</time>
      </trkpt>
      <trkpt lat="47.52367" lon="6.68781">
        <ele>371</ele>
        <time>2015-11-29T10:30:47.000Z</time>
      </trkpt>
      <trkpt lat="47.52368" lon="6.68786">
        <ele>371</ele>
        <time>2015-11-29T10:30:48.000Z</time>
      </trkpt>
      <trkpt lat="47.5237" lon="6.68792">
        <ele>371</ele>
        <time>2015-11-29T10:30:49.000Z</time>
      </trkpt>
      <trkpt lat="47.52372" lon="6.68797">
        <ele>371</ele>
        <time>2015-11-29T10:30:50.000Z</time>
      </trkpt>
      <trkpt lat="47.52373" lon="6.68803">
        <ele>371</ele>
        <time>2015-11-29T10:30:51.000Z</time>
      </trkpt>
      <trkpt lat="47.52375" lon="6.68808">
        <ele>371</ele>
        <time>2015-11-29T10:30:52.000Z</time>
      </trkpt>
      <trkpt lat="47.52377" lon="6.68813">
        <ele>371</ele>
        <time>2015-11-29T10:30:53.000Z</time>
      </trkpt>
      <trkpt lat="47.52379" lon="6.68818">
        <ele>371</ele>
        <time>2015-11-29T10:30:54.000Z</time>
      </trkpt>
      <trkpt lat="47.52381" lon="6.68823">
        <ele>371</ele>
        <time>2015-11-29T10:30:55.000Z</time>
      </trkpt>
      <trkpt lat="47.52382" lon="6.68828">
        <ele>371</ele>
        <time>2015-11-29T10:30:56.000Z</time>
      </trkpt>
      <trkpt lat="47.52384" lon="6.68834">
        <ele>370</ele>
        <time>2015-11-29T10:30:57.000Z</time>
      </trkpt>
      <trkpt lat="47.52386" lon="6.68839">
        <ele>370</ele>
        <time>2015-11-29T10:30:58.000Z</time>
      </trkpt>
      <trkpt lat="47.52389" lon="6.68844">
        <ele>370</ele>
        <time>2015-11-29T10:30:59.000Z</time>
      </trkpt>
      <trkpt lat="47.52396" lon="6.6885">
        <ele>370</ele>
        <time>2015-11-29T10:31:00.000Z</time>
      </trkpt>
      <trkpt lat="47.524" lon="6.68855">
        <ele>370</ele>
        <time>2015-11-29T10:31:01.000Z</time>
      </trkpt>
      <trkpt lat="47.52403" lon="6.68859">
        <ele>369</ele>
        <time>2015-11-29T10:31:02.000Z</time>
      </trkpt>
      <trkpt lat="47.52405" lon="6.68865">
        <ele>369</ele>
        <time>2015-11-29T10:31:03.000Z</time>
      </trkpt>
      <trkpt lat="47.52409" lon="6.68872">
        <ele>369</ele>
        <time>2015-11-29T10:31:04.000Z</time>
      </trkpt>
      <trkpt lat="47.52413" lon="6.68879">
        <ele>369</ele>
        <time>2015-11-29T10:31:05.000Z</time>
      </trkpt>
      <trkpt lat="47.52417" lon="6.68888">
        <ele>368</ele>
        <time>2015-11-29T10:31:06.000Z</time>
      </trkpt>
      <trkpt lat="47.52421" lon="6.68896">
        <ele>368</ele>
        <time>2015-11-29T10:31:07.000Z</time>
      </trkpt>
      <trkpt lat="47.52425" lon="6.68904">
        <ele>368</ele>
        <time>2015-11-29T10:31:08.000Z</time>
      </trkpt>
      <trkpt lat="47.52428" lon="6.6891">
        <ele>368</ele>
        <time>2015-11-29T10:31:09.000Z</time>
      </trkpt>
      <trkpt lat="47.52434" lon="6.68916">
        <ele>368</ele>
        <time>2015-11-29T10:31:10.000Z</time>
      </trkpt>
      <trkpt lat="47.52438" lon="6.68924">
        <ele>366</ele>
        <time>2015-11-29T10:31:11.000Z</time>
      </trkpt>
      <trkpt lat="47.52443" lon="6.68929">
        <ele>366</ele>
        <time>2015-11-29T10:31:12.000Z</time>
      </trkpt>
      <trkpt lat="47.52448" lon="6.68936">
        <ele>366</ele>
        <time>2015-11-29T10:31:13.000Z</time>
      </trkpt>
      <trkpt lat="47.52453" lon="6.68944">
        <ele>366</ele>
        <time>2015-11-29T10:31:14.000Z</time>
      </trkpt>
      <trkpt lat="47.52458" lon="6.68951">
        <ele>365</ele>
        <time>2015-11-29T10:31:15.000Z</time>
      </trkpt>
      <trkpt lat="47.52463" lon="6.68958">
        <ele>365</ele>
        <time>2015-11-29T10:31:16.000Z</time>
      </trkpt>
      <trkpt lat="47.52468" lon="6.68965">
        <ele>365</ele>
        <time>2015-11-29T10:31:17.000Z</time>
      </trkpt>
      <trkpt lat="47.52472" lon="6.68971">
        <ele>365</ele>
        <time>2015-11-29T10:31:18.000Z</time>
      </trkpt>
      <trkpt lat="47.52477" lon="6.68976">
        <ele>365</ele>
        <time>2015-11-29T10:31:19.000Z</time>
      </trkpt>
      <trkpt lat="47.52483" lon="6.68982">
        <ele>364</ele>
        <time>2015-11-29T10:31:20.000Z</time>
      </trkpt>
      <trkpt lat="47.52488" lon="6.68989">
        <ele>364</ele>
        <time>2015-11-29T10:31:21.000Z</time>
      </trkpt>
      <trkpt lat="47.52494" lon="6.68994">
        <ele>364</ele>
        <time>2015-11-29T10:31:22.000Z</time>
      </trkpt>
      <trkpt lat="47.525" lon="6.69">
        <ele>363</ele>
        <time>2015-11-29T10:31:23.000Z</time>
      </trkpt>
      <trkpt lat="47.52505" lon="6.69006">
        <ele>362</ele>
        <time>2015-11-29T10:31:24.000Z</time>
      </trkpt>
      <trkpt lat="47.52512" lon="6.69012">
        <ele>362</ele>
        <time>2015-11-29T10:31:25.000Z</time>
      </trkpt>
      <trkpt lat="47.52518" lon="6.69019">
        <ele>362</ele>
        <time>2015-11-29T10:31:26.000Z</time>
      </trkpt>
      <trkpt lat="47.52523" lon="6.69027">
        <ele>361</ele>
        <time>2015-11-29T10:31:27.000Z</time>
      </trkpt>
      <trkpt lat="47.52529" lon="6.69035">
        <ele>361</ele>
        <time>2015-11-29T10:31:28.000Z</time>
      </trkpt>
      <trkpt lat="47.52535" lon="6.69042">
        <ele>361</ele>
        <time>2015-11-29T10:31:29.000Z</time>
      </trkpt>
      <trkpt lat="47.52541" lon="6.6905">
        <ele>361</ele>
        <time>2015-11-29T10:31:30.000Z</time>
      </trkpt>
      <trkpt lat="47.52548" lon="6.69058">
        <ele>361</ele>
        <time>2015-11-29T10:31:31.000Z</time>
      </trkpt>
      <trkpt lat="47.52554" lon="6.69067">
        <ele>360</ele>
        <time>2015-11-29T10:31:32.000Z</time>
      </trkpt>
      <trkpt lat="47.52559" lon="6.69076">
        <ele>360</ele>
        <time>2015-11-29T10:31:33.000Z</time>
      </trkpt>
      <trkpt lat="47.52564" lon="6.69086">
        <ele>359</ele>
        <time>2015-11-29T10:31:34.000Z</time>
      </trkpt>
      <trkpt lat="47.52568" lon="6.69098">
        <ele>359</ele>
        <time>2015-11-29T10:31:35.000Z</time>
      </trkpt>
      <trkpt lat="47.52572" lon="6.69109">
        <ele>358</ele>
        <time>2015-11-29T10:31:36.000Z</time>
      </trkpt>
      <trkpt lat="47.52575" lon="6.69122">
        <ele>358</ele>
        <time>2015-11-29T10:31:37.000Z</time>
      </trkpt>
      <trkpt lat="47.52578" lon="6.69134">
        <ele>358</ele>
        <time>2015-11-29T10:31:38.000Z</time>
      </trkpt>
      <trkpt lat="47.5258" lon="6.69147">
        <ele>357</ele>
        <time>2015-11-29T10:31:39.000Z</time>
      </trkpt>
      <trkpt lat="47.52582" lon="6.69159">
        <ele>357</ele>
        <time>2015-11-29T10:31:40.000Z</time>
      </trkpt>
      <trkpt lat="47.52584" lon="6.69171">
        <ele>356</ele>
        <time>2015-11-29T10:31:41.000Z</time>
      </trkpt>
      <trkpt lat="47.52586" lon="6.69184">
        <ele>356</ele>
        <time>2015-11-29T10:31:42.000Z</time>
      </trkpt>
      <trkpt lat="47.52587" lon="6.69197">
        <ele>355</ele>
        <time>2015-11-29T10:31:43.000Z</time>
      </trkpt>
      <trkpt lat="47.52588" lon="6.6921">
        <ele>355</ele>
        <time>2015-11-29T10:31:44.000Z</time>
      </trkpt>
      <trkpt lat="47.5259" lon="6.69223">
        <ele>355</ele>
        <time>2015-11-29T10:31:45.000Z</time>
      </trkpt>
      <trkpt lat="47.52592" lon="6.69235">
        <ele>355</ele>
        <time>2015-11-29T10:31:46.000Z</time>
      </trkpt>
      <trkpt lat="47.52592" lon="6.69247">
        <ele>354</ele>
        <time>2015-11-29T10:31:47.000Z</time>
      </trkpt>
      <trkpt lat="47.52593" lon="6.69259">
        <ele>353</ele>
        <time>2015-11-29T10:31:48.000Z</time>
      </trkpt>
      <trkpt lat="47.52594" lon="6.69271">
        <ele>353</ele>
        <time>2015-11-29T10:31:49.000Z</time>
      </trkpt>
      <trkpt lat="47.52596" lon="6.69283">
        <ele>353</ele>
        <time>2015-11-29T10:31:50.000Z</time>
      </trkpt>
      <trkpt lat="47.52596" lon="6.69295">
        <ele>352</ele>
        <time>2015-11-29T10:31:51.000Z</time>
      </trkpt>
      <trkpt lat="47.52596" lon="6.69307">
        <ele>352</ele>
        <time>2015-11-29T10:31:52.000Z</time>
      </trkpt>
      <trkpt lat="47.52596" lon="6.69319">
        <ele>352</ele>
        <time>2015-11-29T10:31:53.000Z</time>
      </trkpt>
      <trkpt lat="47.52595" lon="6.6933">
        <ele>351</ele>
        <time>2015-11-29T10:31:54.000Z</time>
      </trkpt>
      <trkpt lat="47.52594" lon="6.69341">
        <ele>350</ele>
        <time>2015-11-29T10:31:55.000Z</time>
      </trkpt>
      <trkpt lat="47.52593" lon="6.69352">
        <ele>350</ele>
        <time>2015-11-29T10:31:56.000Z</time>
      </trkpt>
      <trkpt lat="47.52592" lon="6.69363">
        <ele>350</ele>
        <time>2015-11-29T10:31:57.000Z</time>
      </trkpt>
      <trkpt lat="47.52592" lon="6.69373">
        <ele>350</ele>
        <time>2015-11-29T10:31:58.000Z</time>
      </trkpt>
      <trkpt lat="47.52593" lon="6.69384">
        <ele>349</ele>
        <time>2015-11-29T10:31:59.000Z</time>
      </trkpt>
      <trkpt lat="47.52593" lon="6.69396">
        <ele>349</ele>
        <time>2015-11-29T10:31:59.999Z</time>
      </trkpt>
      <trkpt lat="47.52594" lon="6.69409">
        <ele>349</ele>
        <time>2015-11-29T10:32:01.000Z</time>
      </trkpt>
      <trkpt lat="47.52595" lon="6.69421">
        <ele>348</ele>
        <time>2015-11-29T10:32:02.000Z</time>
      </trkpt>
      <trkpt lat="47.52598" lon="6.69434">
        <ele>347</ele>
        <time>2015-11-29T10:32:03.000Z</time>
      </trkpt>
      <trkpt lat="47.526" lon="6.69445">
        <ele>347</ele>
        <time>2015-11-29T10:32:04.000Z</time>
      </trkpt>
      <trkpt lat="47.52601" lon="6.69456">
        <ele>347</ele>
        <time>2015-11-29T10:32:05.001Z</time>
      </trkpt>
      <trkpt lat="47.52599" lon="6.69465">
        <ele>347</ele>
        <time>2015-11-29T10:32:06.000Z</time>
      </trkpt>
      <trkpt lat="47.526" lon="6.69469">
        <ele>347</ele>
        <time>2015-11-29T10:32:07.000Z</time>
      </trkpt>
      <trkpt lat="47.52602" lon="6.69474">
        <ele>347</ele>
        <time>2015-11-29T10:32:08.000Z</time>
      </trkpt>
      <trkpt lat="47.52603" lon="6.6948">
        <ele>347</ele>
        <time>2015-11-29T10:32:09.000Z</time>
      </trkpt>
      <trkpt lat="47.52607" lon="6.6948">
        <ele>347</ele>
        <time>2015-11-29T10:32:10.000Z</time>
      </trkpt>
      <trkpt lat="47.52608" lon="6.69481">
        <ele>347</ele>
        <time>2015-11-29T10:32:11.000Z</time>
      </trkpt>
      <trkpt lat="47.52614" lon="6.6948">
        <ele>347</ele>
        <time>2015-11-29T10:32:12.000Z</time>
      </trkpt>
      <trkpt lat="47.52617" lon="6.69481">
        <ele>347</ele>
        <time>2015-11-29T10:32:13.000Z</time>
      </trkpt>
      <trkpt lat="47.52621" lon="6.69483">
        <ele>347</ele>
        <time>2015-11-29T10:32:14.000Z</time>
      </trkpt>
      <trkpt lat="47.52626" lon="6.69485">
        <ele>347</ele>
        <time>2015-11-29T10:32:14.999Z</time>
      </trkpt>
      <trkpt lat="47.52629" lon="6.69487">
        <ele>347</ele>
        <time>2015-11-29T10:32:16.000Z</time>
      </trkpt>
      <trkpt lat="47.52628" lon="6.695">
        <ele>345</ele>
        <time>2015-11-29T10:32:17.000Z</time>
      </trkpt>
      <trkpt lat="47.52629" lon="6.69507">
        <ele>345</ele>
        <time>2015-11-29T10:32:18.000Z</time>
      </trkpt>
      <trkpt lat="47.5263" lon="6.69514">
        <ele>345</ele>
        <time>2015-11-29T10:32:19.000Z</time>
      </trkpt>
      <trkpt lat="47.52629" lon="6.6952">
        <ele>345</ele>
        <time>2015-11-29T10:32:20.000Z</time>
      </trkpt>
      <trkpt lat="47.52625" lon="6.69526">
        <ele>345</ele>
        <time>2015-11-29T10:32:21.000Z</time>
      </trkpt>
      <trkpt lat="47.52625" lon="6.69534">
        <ele>345</ele>
        <time>2015-11-29T10:32:22.000Z</time>
      </trkpt>
      <trkpt lat="47.52625" lon="6.69541">
        <ele>345</ele>
        <time>2015-11-29T10:32:23.000Z</time>
      </trkpt>
      <trkpt lat="47.52625" lon="6.69552">
        <ele>345</ele>
        <time>2015-11-29T10:32:24.000Z</time>
      </trkpt>
      <trkpt lat="47.52623" lon="6.69561">
        <ele>345</ele>
        <time>2015-11-29T10:32:25.000Z</time>
      </trkpt>
      <trkpt lat="47.52623" lon="6.69569">
        <ele>345</ele>
        <time>2015-11-29T10:32:26.000Z</time>
      </trkpt>
      <trkpt lat="47.52622" lon="6.69577">
        <ele>345</ele>
        <time>2015-11-29T10:32:27.000Z</time>
      </trkpt>
      <trkpt lat="47.52621" lon="6.69585">
        <ele>345</ele>
        <time>2015-11-29T10:32:28.000Z</time>
      </trkpt>
      <trkpt lat="47.5262" lon="6.69593">
        <ele>345</ele>
        <time>2015-11-29T10:32:29.000Z</time>
      </trkpt>
      <trkpt lat="47.5262" lon="6.69602">
        <ele>345</ele>
        <time>2015-11-29T10:32:30.000Z</time>
      </trkpt>
      <trkpt lat="47.5262" lon="6.69611">
        <ele>346</ele>
        <time>2015-11-29T10:32:31.000Z</time>
      </trkpt>
      <trkpt lat="47.5262" lon="6.69618">
        <ele>346</ele>
        <time>2015-11-29T10:32:32.000Z</time>
      </trkpt>
      <trkpt lat="47.5262" lon="6.69627">
        <ele>346</ele>
        <time>2015-11-29T10:32:33.000Z</time>
      </trkpt>
      <trkpt lat="47.5262" lon="6.69637">
        <ele>346</ele>
        <time>2015-11-29T10:32:34.000Z</time>
      </trkpt>
      <trkpt lat="47.52621" lon="6.69647">
        <ele>346</ele>
        <time>2015-11-29T10:32:35.000Z</time>
      </trkpt>
      <trkpt lat="47.52621" lon="6.69656">
        <ele>346</ele>
        <time>2015-11-29T10:32:36.000Z</time>
      </trkpt>
      <trkpt lat="47.5262" lon="6.69664">
        <ele>346</ele>
        <time>2015-11-29T10:32:37.000Z</time>
      </trkpt>
      <trkpt lat="47.5262" lon="6.69671">
        <ele>349</ele>
        <time>2015-11-29T10:32:38.000Z</time>
      </trkpt>
      <trkpt lat="47.52619" lon="6.69679">
        <ele>349</ele>
        <time>2015-11-29T10:32:39.000Z</time>
      </trkpt>
      <trkpt lat="47.52619" lon="6.69686">
        <ele>349</ele>
        <time>2015-11-29T10:32:40.006Z</time>
      </trkpt>
      <trkpt lat="47.52618" lon="6.69694">
        <ele>349</ele>
        <time>2015-11-29T10:32:41.000Z</time>
      </trkpt>
      <trkpt lat="47.52614" lon="6.69702">
        <ele>349</ele>
        <time>2015-11-29T10:32:42.000Z</time>
      </trkpt>
      <trkpt lat="47.52612" lon="6.69707">
        <ele>350</ele>
        <time>2015-11-29T10:32:43.000Z</time>
      </trkpt>
      <trkpt lat="47.52609" lon="6.69713">
        <ele>350</ele>
        <time>2015-11-29T10:32:44.001Z</time>
      </trkpt>
      <trkpt lat="47.52605" lon="6.69716">
        <ele>350</ele>
        <time>2015-11-29T10:32:45.000Z</time>
      </trkpt>
      <trkpt lat="47.526" lon="6.69718">
        <ele>350</ele>
        <time>2015-11-29T10:32:46.000Z</time>
      </trkpt>
      <trkpt lat="47.52595" lon="6.69719">
        <ele>350</ele>
        <time>2015-11-29T10:32:47.000Z</time>
      </trkpt>
      <trkpt lat="47.5259" lon="6.69719">
        <ele>350</ele>
        <time>2015-11-29T10:32:48.000Z</time>
      </trkpt>
      <trkpt lat="47.52584" lon="6.6972">
        <ele>350</ele>
        <time>2015-11-29T10:32:49.000Z</time>
      </trkpt>
      <trkpt lat="47.5258" lon="6.69718">
        <ele>352</ele>
        <time>2015-11-29T10:32:50.000Z</time>
      </trkpt>
      <trkpt lat="47.52577" lon="6.6972">
        <ele>352</ele>
        <time>2015-11-29T10:32:51.000Z</time>
      </trkpt>
      <trkpt lat="47.52572" lon="6.69719">
        <ele>352</ele>
        <time>2015-11-29T10:32:52.000Z</time>
      </trkpt>
      <trkpt lat="47.52567" lon="6.69717">
        <ele>352</ele>
        <time>2015-11-29T10:32:53.000Z</time>
      </trkpt>
      <trkpt lat="47.52562" lon="6.69715">
        <ele>352</ele>
        <time>2015-11-29T10:32:54.000Z</time>
      </trkpt>
      <trkpt lat="47.52556" lon="6.69713">
        <ele>352</ele>
        <time>2015-11-29T10:32:55.000Z</time>
      </trkpt>
      <trkpt lat="47.52552" lon="6.69711">
        <ele>352</ele>
        <time>2015-11-29T10:32:56.000Z</time>
      </trkpt>
      <trkpt lat="47.52548" lon="6.6971">
        <ele>352</ele>
        <time>2015-11-29T10:32:57.000Z</time>
      </trkpt>
      <trkpt lat="47.52544" lon="6.69709">
        <ele>352</ele>
        <time>2015-11-29T10:32:58.000Z</time>
      </trkpt>
      <trkpt lat="47.52539" lon="6.69708">
        <ele>352</ele>
        <time>2015-11-29T10:32:59.000Z</time>
      </trkpt>
      <trkpt lat="47.52534" lon="6.69707">
        <ele>352</ele>
        <time>2015-11-29T10:33:00.000Z</time>
      </trkpt>
      <trkpt lat="47.52529" lon="6.69705">
        <ele>352</ele>
        <time>2015-11-29T10:33:01.000Z</time>
      </trkpt>
      <trkpt lat="47.52524" lon="6.69703">
        <ele>352</ele>
        <time>2015-11-29T10:33:02.000Z</time>
      </trkpt>
      <trkpt lat="47.52519" lon="6.69701">
        <ele>352</ele>
        <time>2015-11-29T10:33:03.000Z</time>
      </trkpt>
      <trkpt lat="47.52514" lon="6.697">
        <ele>352</ele>
        <time>2015-11-29T10:33:04.000Z</time>
      </trkpt>
      <trkpt lat="47.52509" lon="6.69699">
        <ele>352</ele>
        <time>2015-11-29T10:33:05.001Z</time>
      </trkpt>
      <trkpt lat="47.52505" lon="6.69699">
        <ele>352</ele>
        <time>2015-11-29T10:33:06.000Z</time>
      </trkpt>
      <trkpt lat="47.525" lon="6.69697">
        <ele>352</ele>
        <time>2015-11-29T10:33:07.000Z</time>
      </trkpt>
      <trkpt lat="47.52495" lon="6.69697">
        <ele>353</ele>
        <time>2015-11-29T10:33:08.000Z</time>
      </trkpt>
      <trkpt lat="47.52491" lon="6.69697">
        <ele>353</ele>
        <time>2015-11-29T10:33:09.000Z</time>
      </trkpt>
      <trkpt lat="47.52487" lon="6.69696">
        <ele>353</ele>
        <time>2015-11-29T10:33:10.000Z</time>
      </trkpt>
      <trkpt lat="47.52482" lon="6.69696">
        <ele>353</ele>
        <time>2015-11-29T10:33:10.999Z</time>
      </trkpt>
      <trkpt lat="47.52476" lon="6.69697">
        <ele>353</ele>
        <time>2015-11-29T10:33:12.000Z</time>
      </trkpt>
      <trkpt lat="47.52471" lon="6.69698">
        <ele>354</ele>
        <time>2015-11-29T10:33:13.000Z</time>
      </trkpt>
      <trkpt lat="47.52467" lon="6.697">
        <ele>354</ele>
        <time>2015-11-29T10:33:14.000Z</time>
      </trkpt>
      <trkpt lat="47.52462" lon="6.69701">
        <ele>354</ele>
        <time>2015-11-29T10:33:15.000Z</time>
      </trkpt>
      <trkpt lat="47.52457" lon="6.69702">
        <ele>354</ele>
        <time>2015-11-29T10:33:16.000Z</time>
      </trkpt>
      <trkpt lat="47.52452" lon="6.69704">
        <ele>354</ele>
        <time>2015-11-29T10:33:17.000Z</time>
      </trkpt>
      <trkpt lat="47.52447" lon="6.69705">
        <ele>354</ele>
        <time>2015-11-29T10:33:18.000Z</time>
      </trkpt>
      <trkpt lat="47.52443" lon="6.69707">
        <ele>354</ele>
        <time>2015-11-29T10:33:19.000Z</time>
      </trkpt>
      <trkpt lat="47.52438" lon="6.69709">
        <ele>355</ele>
        <time>2015-11-29T10:33:20.000Z</time>
      </trkpt>
      <trkpt lat="47.52433" lon="6.6971">
        <ele>355</ele>
        <time>2015-11-29T10:33:21.000Z</time>
      </trkpt>
      <trkpt lat="47.52427" lon="6.69711">
        <ele>355</ele>
        <time>2015-11-29T10:33:22.000Z</time>
      </trkpt>
      <trkpt lat="47.52422" lon="6.69712">
        <ele>355</ele>
        <time>2015-11-29T10:33:23.000Z</time>
      </trkpt>
      <trkpt lat="47.52418" lon="6.69713">
        <ele>355</ele>
        <time>2015-11-29T10:33:24.000Z</time>
      </trkpt>
      <trkpt lat="47.52413" lon="6.69715">
        <ele>355</ele>
        <time>2015-11-29T10:33:24.999Z</time>
      </trkpt>
      <trkpt lat="47.52409" lon="6.69716">
        <ele>355</ele>
        <time>2015-11-29T10:33:26.000Z</time>
      </trkpt>
      <trkpt lat="47.52406" lon="6.69717">
        <ele>355</ele>
        <time>2015-11-29T10:33:27.000Z</time>
      </trkpt>
      <trkpt lat="47.52403" lon="6.69719">
        <ele>355</ele>
        <time>2015-11-29T10:33:28.000Z</time>
      </trkpt>
      <trkpt lat="47.52398" lon="6.69722">
        <ele>355</ele>
        <time>2015-11-29T10:33:29.000Z</time>
      </trkpt>
      <trkpt lat="47.52394" lon="6.69724">
        <ele>355</ele>
        <time>2015-11-29T10:33:30.001Z</time>
      </trkpt>
      <trkpt lat="47.52389" lon="6.69724">
        <ele>355</ele>
        <time>2015-11-29T10:33:31.000Z</time>
      </trkpt>
      <trkpt lat="47.52385" lon="6.69726">
        <ele>355</ele>
        <time>2015-11-29T10:33:31.999Z</time>
      </trkpt>
      <trkpt lat="47.52382" lon="6.69727">
        <ele>355</ele>
        <time>2015-11-29T10:33:33.000Z</time>
      </trkpt>
      <trkpt lat="47.52378" lon="6.69728">
        <ele>355</ele>
        <time>2015-11-29T10:33:33.998Z</time>
      </trkpt>
      <trkpt lat="47.52375" lon="6.69729">
        <ele>355</ele>
        <time>2015-11-29T10:33:35.001Z</time>
      </trkpt>
      <trkpt lat="47.52371" lon="6.69732">
        <ele>355</ele>
        <time>2015-11-29T10:33:36.000Z</time>
      </trkpt>
      <trkpt lat="47.52367" lon="6.69735">
        <ele>355</ele>
        <time>2015-11-29T10:33:37.000Z</time>
      </trkpt>
      <trkpt lat="47.52364" lon="6.69739">
        <ele>356</ele>
        <time>2015-11-29T10:33:38.000Z</time>
      </trkpt>
      <trkpt lat="47.52361" lon="6.69743">
        <ele>356</ele>
        <time>2015-11-29T10:33:39.000Z</time>
      </trkpt>
      <trkpt lat="47.52358" lon="6.69747">
        <ele>356</ele>
        <time>2015-11-29T10:33:40.000Z</time>
      </trkpt>
      <trkpt lat="47.52356" lon="6.69751">
        <ele>360</ele>
        <time>2015-11-29T10:33:41.000Z</time>
      </trkpt>
      <trkpt lat="47.52353" lon="6.69756">
        <ele>360</ele>
        <time>2015-11-29T10:33:42.000Z</time>
      </trkpt>
      <trkpt lat="47.52351" lon="6.6976">
        <ele>360</ele>
        <time>2015-11-29T10:33:43.000Z</time>
      </trkpt>
      <trkpt lat="47.52348" lon="6.69765">
        <ele>360</ele>
        <time>2015-11-29T10:33:44.000Z</time>
      </trkpt>
      <trkpt lat="47.52345" lon="6.69769">
        <ele>360</ele>
        <time>2015-11-29T10:33:45.000Z</time>
      </trkpt>
      <trkpt lat="47.52342" lon="6.69774">
        <ele>360</ele>
        <time>2015-11-29T10:33:46.000Z</time>
      </trkpt>
      <trkpt lat="47.52338" lon="6.69779">
        <ele>360</ele>
        <time>2015-11-29T10:33:47.000Z</time>
      </trkpt>
      <trkpt lat="47.52335" lon="6.69784">
        <ele>361</ele>
        <time>2015-11-29T10:33:48.000Z</time>
      </trkpt>
      <trkpt lat="47.52332" lon="6.69788">
        <ele>357</ele>
        <time>2015-11-29T10:33:49.000Z</time>
      </trkpt>
      <trkpt lat="47.52329" lon="6.69793">
        <ele>357</ele>
        <time>2015-11-29T10:33:50.000Z</time>
      </trkpt>
      <trkpt lat="47.52327" lon="6.69798">
        <ele>357</ele>
        <time>2015-11-29T10:33:51.000Z</time>
      </trkpt>
      <trkpt lat="47.52324" lon="6.69803">
        <ele>357</ele>
        <time>2015-11-29T10:33:52.000Z</time>
      </trkpt>
      <trkpt lat="47.5232" lon="6.69809">
        <ele>358</ele>
        <time>2015-11-29T10:33:53.000Z</time>
      </trkpt>
      <trkpt lat="47.52317" lon="6.69815">
        <ele>358</ele>
        <time>2015-11-29T10:33:54.000Z</time>
      </trkpt>
      <trkpt lat="47.52314" lon="6.69822">
        <ele>358</ele>
        <time>2015-11-29T10:33:55.000Z</time>
      </trkpt>
      <trkpt lat="47.52311" lon="6.69828">
        <ele>358</ele>
        <time>2015-11-29T10:33:56.000Z</time>
      </trkpt>
      <trkpt lat="47.52308" lon="6.69835">
        <ele>358</ele>
        <time>2015-11-29T10:33:57.000Z</time>
      </trkpt>
      <trkpt lat="47.52306" lon="6.69841">
        <ele>358</ele>
        <time>2015-11-29T10:33:58.000Z</time>
      </trkpt>
      <trkpt lat="47.52303" lon="6.69848">
        <ele>357</ele>
        <time>2015-11-29T10:33:59.000Z</time>
      </trkpt>
      <trkpt lat="47.523" lon="6.69854">
        <ele>357</ele>
        <time>2015-11-29T10:34:00.000Z</time>
      </trkpt>
      <trkpt lat="47.52297" lon="6.69861">
        <ele>357</ele>
        <time>2015-11-29T10:34:01.000Z</time>
      </trkpt>
      <trkpt lat="47.5229" lon="6.69872">
        <ele>356</ele>
        <time>2015-11-29T10:34:02.000Z</time>
      </trkpt>
      <trkpt lat="47.52288" lon="6.69879">
        <ele>356</ele>
        <time>2015-11-29T10:34:03.000Z</time>
      </trkpt>
      <trkpt lat="47.52285" lon="6.69887">
        <ele>356</ele>
        <time>2015-11-29T10:34:04.000Z</time>
      </trkpt>
      <trkpt lat="47.52282" lon="6.69894">
        <ele>356</ele>
        <time>2015-11-29T10:34:05.000Z</time>
      </trkpt>
      <trkpt lat="47.52279" lon="6.69901">
        <ele>355</ele>
        <time>2015-11-29T10:34:06.000Z</time>
      </trkpt>
      <trkpt lat="47.52275" lon="6.69911">
        <ele>355</ele>
        <time>2015-11-29T10:34:07.000Z</time>
      </trkpt>
      <trkpt lat="47.52272" lon="6.69921">
        <ele>353</ele>
        <time>2015-11-29T10:34:08.000Z</time>
      </trkpt>
      <trkpt lat="47.52268" lon="6.69931">
        <ele>353</ele>
        <time>2015-11-29T10:34:09.000Z</time>
      </trkpt>
      <trkpt lat="47.52266" lon="6.69941">
        <ele>353</ele>
        <time>2015-11-29T10:34:10.000Z</time>
      </trkpt>
      <trkpt lat="47.52262" lon="6.69951">
        <ele>353</ele>
        <time>2015-11-29T10:34:11.000Z</time>
      </trkpt>
      <trkpt lat="47.52257" lon="6.6996">
        <ele>353</ele>
        <time>2015-11-29T10:34:12.000Z</time>
      </trkpt>
      <trkpt lat="47.52253" lon="6.69969">
        <ele>352</ele>
        <time>2015-11-29T10:34:13.000Z</time>
      </trkpt>
      <trkpt lat="47.52249" lon="6.69978">
        <ele>348</ele>
        <time>2015-11-29T10:34:14.000Z</time>
      </trkpt>
      <trkpt lat="47.52245" lon="6.69987">
        <ele>348</ele>
        <time>2015-11-29T10:34:15.000Z</time>
      </trkpt>
      <trkpt lat="47.52242" lon="6.69997">
        <ele>349</ele>
        <time>2015-11-29T10:34:16.000Z</time>
      </trkpt>
      <trkpt lat="47.52239" lon="6.7001">
        <ele>347</ele>
        <time>2015-11-29T10:34:17.000Z</time>
      </trkpt>
      <trkpt lat="47.52236" lon="6.7002">
        <ele>347</ele>
        <time>2015-11-29T10:34:18.000Z</time>
      </trkpt>
      <trkpt lat="47.52232" lon="6.70031">
        <ele>346</ele>
        <time>2015-11-29T10:34:19.000Z</time>
      </trkpt>
      <trkpt lat="47.52229" lon="6.70042">
        <ele>346</ele>
        <time>2015-11-29T10:34:20.000Z</time>
      </trkpt>
      <trkpt lat="47.52226" lon="6.70053">
        <ele>346</ele>
        <time>2015-11-29T10:34:21.000Z</time>
      </trkpt>
      <trkpt lat="47.52223" lon="6.70063">
        <ele>346</ele>
        <time>2015-11-29T10:34:22.000Z</time>
      </trkpt>
      <trkpt lat="47.5222" lon="6.70073">
        <ele>346</ele>
        <time>2015-11-29T10:34:23.000Z</time>
      </trkpt>
      <trkpt lat="47.52218" lon="6.70083">
        <ele>345</ele>
        <time>2015-11-29T10:34:24.000Z</time>
      </trkpt>
      <trkpt lat="47.52215" lon="6.70092">
        <ele>345</ele>
        <time>2015-11-29T10:34:25.000Z</time>
      </trkpt>
      <trkpt lat="47.52212" lon="6.70102">
        <ele>345</ele>
        <time>2015-11-29T10:34:26.000Z</time>
      </trkpt>
      <trkpt lat="47.52209" lon="6.70111">
        <ele>345</ele>
        <time>2015-11-29T10:34:27.000Z</time>
      </trkpt>
      <trkpt lat="47.52207" lon="6.70121">
        <ele>345</ele>
        <time>2015-11-29T10:34:28.000Z</time>
      </trkpt>
      <trkpt lat="47.52204" lon="6.7013">
        <ele>345</ele>
        <time>2015-11-29T10:34:29.000Z</time>
      </trkpt>
      <trkpt lat="47.52202" lon="6.70139">
        <ele>345</ele>
        <time>2015-11-29T10:34:30.000Z</time>
      </trkpt>
      <trkpt lat="47.52199" lon="6.70148">
        <ele>346</ele>
        <time>2015-11-29T10:34:31.000Z</time>
      </trkpt>
      <trkpt lat="47.52198" lon="6.70155">
        <ele>346</ele>
        <time>2015-11-29T10:34:32.000Z</time>
      </trkpt>
      <trkpt lat="47.52195" lon="6.70168">
        <ele>347</ele>
        <time>2015-11-29T10:34:33.000Z</time>
      </trkpt>
      <trkpt lat="47.52192" lon="6.70176">
        <ele>347</ele>
        <time>2015-11-29T10:34:34.000Z</time>
      </trkpt>
      <trkpt lat="47.52189" lon="6.70183">
        <ele>347</ele>
        <time>2015-11-29T10:34:35.000Z</time>
      </trkpt>
      <trkpt lat="47.52187" lon="6.70191">
        <ele>348</ele>
        <time>2015-11-29T10:34:36.000Z</time>
      </trkpt>
      <trkpt lat="47.52185" lon="6.70198">
        <ele>348</ele>
        <time>2015-11-29T10:34:37.000Z</time>
      </trkpt>
      <trkpt lat="47.52182" lon="6.70206">
        <ele>348</ele>
        <time>2015-11-29T10:34:38.000Z</time>
      </trkpt>
      <trkpt lat="47.5218" lon="6.70213">
        <ele>348</ele>
        <time>2015-11-29T10:34:39.000Z</time>
      </trkpt>
      <trkpt lat="47.52178" lon="6.7022">
        <ele>349</ele>
        <time>2015-11-29T10:34:40.000Z</time>
      </trkpt>
      <trkpt lat="47.52176" lon="6.70227">
        <ele>349</ele>
        <time>2015-11-29T10:34:41.000Z</time>
      </trkpt>
      <trkpt lat="47.52174" lon="6.70236">
        <ele>350</ele>
        <time>2015-11-29T10:34:41.999Z</time>
      </trkpt>
      <trkpt lat="47.52171" lon="6.70243">
        <ele>351</ele>
        <time>2015-11-29T10:34:43.000Z</time>
      </trkpt>
      <trkpt lat="47.52169" lon="6.7025">
        <ele>353</ele>
        <time>2015-11-29T10:34:44.000Z</time>
      </trkpt>
      <trkpt lat="47.52167" lon="6.70255">
        <ele>352</ele>
        <time>2015-11-29T10:34:45.000Z</time>
      </trkpt>
      <trkpt lat="47.52166" lon="6.7026">
        <ele>354</ele>
        <time>2015-11-29T10:34:46.000Z</time>
      </trkpt>
      <trkpt lat="47.52163" lon="6.70268">
        <ele>355</ele>
        <time>2015-11-29T10:34:47.000Z</time>
      </trkpt>
      <trkpt lat="47.52161" lon="6.70273">
        <ele>355</ele>
        <time>2015-11-29T10:34:48.000Z</time>
      </trkpt>
      <trkpt lat="47.52159" lon="6.70278">
        <ele>355</ele>
        <time>2015-11-29T10:34:49.000Z</time>
      </trkpt>
      <trkpt lat="47.52157" lon="6.70283">
        <ele>355</ele>
        <time>2015-11-29T10:34:50.000Z</time>
      </trkpt>
      <trkpt lat="47.52156" lon="6.70289">
        <ele>355</ele>
        <time>2015-11-29T10:34:51.000Z</time>
      </trkpt>
      <trkpt lat="47.52156" lon="6.70294">
        <ele>355</ele>
        <time>2015-11-29T10:34:52.000Z</time>
      </trkpt>
      <trkpt lat="47.52155" lon="6.70299">
        <ele>355</ele>
        <time>2015-11-29T10:34:52.998Z</time>
      </trkpt>
      <trkpt lat="47.52153" lon="6.70304">
        <ele>355</ele>
        <time>2015-11-29T10:34:54.000Z</time>
      </trkpt>
      <trkpt lat="47.52152" lon="6.70308">
        <ele>355</ele>
        <time>2015-11-29T10:34:55.000Z</time>
      </trkpt>
      <trkpt lat="47.52151" lon="6.70312">
        <ele>355</ele>
        <time>2015-11-29T10:34:56.002Z</time>
      </trkpt>
      <trkpt lat="47.52149" lon="6.70317">
        <ele>355</ele>
        <time>2015-11-29T10:34:57.000Z</time>
      </trkpt>
      <trkpt lat="47.52148" lon="6.70322">
        <ele>354</ele>
        <time>2015-11-29T10:34:58.000Z</time>
      </trkpt>
      <trkpt lat="47.52146" lon="6.70326">
        <ele>355</ele>
        <time>2015-11-29T10:34:59.000Z</time>
      </trkpt>
      <trkpt lat="47.52145" lon="6.7033">
        <ele>355</ele>
        <time>2015-11-29T10:35:00.000Z</time>
      </trkpt>
      <trkpt lat="47.52143" lon="6.70335">
        <ele>355</ele>
        <time>2015-11-29T10:35:01.000Z</time>
      </trkpt>
      <trkpt lat="47.52141" lon="6.7034">
        <ele>355</ele>
        <time>2015-11-29T10:35:02.000Z</time>
      </trkpt>
      <trkpt lat="47.5214" lon="6.70345">
        <ele>355</ele>
        <time>2015-11-29T10:35:03.000Z</time>
      </trkpt>
      <trkpt lat="47.52138" lon="6.7035">
        <ele>356</ele>
        <time>2015-11-29T10:35:04.000Z</time>
      </trkpt>
      <trkpt lat="47.52136" lon="6.70354">
        <ele>356</ele>
        <time>2015-11-29T10:35:05.000Z</time>
      </trkpt>
      <trkpt lat="47.52134" lon="6.70359">
        <ele>356</ele>
        <time>2015-11-29T10:35:06.000Z</time>
      </trkpt>
      <trkpt lat="47.52132" lon="6.70364">
        <ele>356</ele>
        <time>2015-11-29T10:35:07.000Z</time>
      </trkpt>
      <trkpt lat="47.5213" lon="6.70369">
        <ele>356</ele>
        <time>2015-11-29T10:35:08.000Z</time>
      </trkpt>
      <trkpt lat="47.52128" lon="6.70375">
        <ele>356</ele>
        <time>2015-11-29T10:35:09.000Z</time>
      </trkpt>
      <trkpt lat="47.52126" lon="6.7038">
        <ele>357</ele>
        <time>2015-11-29T10:35:10.000Z</time>
      </trkpt>
      <trkpt lat="47.52124" lon="6.70384">
        <ele>357</ele>
        <time>2015-11-29T10:35:11.000Z</time>
      </trkpt>
      <trkpt lat="47.52123" lon="6.70388">
        <ele>357</ele>
        <time>2015-11-29T10:35:12.000Z</time>
      </trkpt>
      <trkpt lat="47.52123" lon="6.70392">
        <ele>357</ele>
        <time>2015-11-29T10:35:13.000Z</time>
      </trkpt>
      <trkpt lat="47.52122" lon="6.70395">
        <ele>357</ele>
        <time>2015-11-29T10:35:14.000Z</time>
      </trkpt>
      <trkpt lat="47.52122" lon="6.70399">
        <ele>357</ele>
        <time>2015-11-29T10:35:15.000Z</time>
      </trkpt>
      <trkpt lat="47.52121" lon="6.70404">
        <ele>357</ele>
        <time>2015-11-29T10:35:16.000Z</time>
      </trkpt>
      <trkpt lat="47.52119" lon="6.70409">
        <ele>357</ele>
        <time>2015-11-29T10:35:17.000Z</time>
      </trkpt>
      <trkpt lat="47.52118" lon="6.70415">
        <ele>358</ele>
        <time>2015-11-29T10:35:18.000Z</time>
      </trkpt>
      <trkpt lat="47.52116" lon="6.70421">
        <ele>357</ele>
        <time>2015-11-29T10:35:19.000Z</time>
      </trkpt>
      <trkpt lat="47.52114" lon="6.70427">
        <ele>357</ele>
        <time>2015-11-29T10:35:20.000Z</time>
      </trkpt>
      <trkpt lat="47.52113" lon="6.70433">
        <ele>357</ele>
        <time>2015-11-29T10:35:21.000Z</time>
      </trkpt>
      <trkpt lat="47.52111" lon="6.70439">
        <ele>357</ele>
        <time>2015-11-29T10:35:22.000Z</time>
      </trkpt>
      <trkpt lat="47.5211" lon="6.70445">
        <ele>357</ele>
        <time>2015-11-29T10:35:23.000Z</time>
      </trkpt>
      <trkpt lat="47.52109" lon="6.7045">
        <ele>357</ele>
        <time>2015-11-29T10:35:24.000Z</time>
      </trkpt>
      <trkpt lat="47.52107" lon="6.70455">
        <ele>357</ele>
        <time>2015-11-29T10:35:25.000Z</time>
      </trkpt>
      <trkpt lat="47.52106" lon="6.70459">
        <ele>357</ele>
        <time>2015-11-29T10:35:26.000Z</time>
      </trkpt>
      <trkpt lat="47.52104" lon="6.70464">
        <ele>357</ele>
        <time>2015-11-29T10:35:27.000Z</time>
      </trkpt>
      <trkpt lat="47.52102" lon="6.70468">
        <ele>357</ele>
        <time>2015-11-29T10:35:28.000Z</time>
      </trkpt>
      <trkpt lat="47.521" lon="6.70472">
        <ele>357</ele>
        <time>2015-11-29T10:35:29.000Z</time>
      </trkpt>
      <trkpt lat="47.52098" lon="6.70477">
        <ele>357</ele>
        <time>2015-11-29T10:35:30.000Z</time>
      </trkpt>
      <trkpt lat="47.52095" lon="6.70482">
        <ele>357</ele>
        <time>2015-11-29T10:35:31.000Z</time>
      </trkpt>
      <trkpt lat="47.52093" lon="6.70486">
        <ele>358</ele>
        <time>2015-11-29T10:35:32.000Z</time>
      </trkpt>
      <trkpt lat="47.52091" lon="6.70491">
        <ele>358</ele>
        <time>2015-11-29T10:35:33.000Z</time>
      </trkpt>
      <trkpt lat="47.5209" lon="6.70495">
        <ele>359</ele>
        <time>2015-11-29T10:35:34.000Z</time>
      </trkpt>
      <trkpt lat="47.52088" lon="6.70499">
        <ele>359</ele>
        <time>2015-11-29T10:35:35.000Z</time>
      </trkpt>
      <trkpt lat="47.52087" lon="6.70503">
        <ele>359</ele>
        <time>2015-11-29T10:35:36.000Z</time>
      </trkpt>
      <trkpt lat="47.52085" lon="6.70508">
        <ele>358</ele>
        <time>2015-11-29T10:35:37.000Z</time>
      </trkpt>
      <trkpt lat="47.52084" lon="6.70513">
        <ele>357</ele>
        <time>2015-11-29T10:35:38.000Z</time>
      </trkpt>
      <trkpt lat="47.52081" lon="6.70518">
        <ele>359</ele>
        <time>2015-11-29T10:35:39.000Z</time>
      </trkpt>
      <trkpt lat="47.52079" lon="6.70524">
        <ele>359</ele>
        <time>2015-11-29T10:35:40.000Z</time>
      </trkpt>
      <trkpt lat="47.52077" lon="6.70529">
        <ele>359</ele>
        <time>2015-11-29T10:35:41.000Z</time>
      </trkpt>
      <trkpt lat="47.52075" lon="6.70535">
        <ele>359</ele>
        <time>2015-11-29T10:35:42.000Z</time>
      </trkpt>
      <trkpt lat="47.52073" lon="6.7054">
        <ele>358</ele>
        <time>2015-11-29T10:35:43.000Z</time>
      </trkpt>
      <trkpt lat="47.52072" lon="6.70545">
        <ele>358</ele>
        <time>2015-11-29T10:35:44.000Z</time>
      </trkpt>
      <trkpt lat="47.5207" lon="6.70551">
        <ele>358</ele>
        <time>2015-11-29T10:35:45.000Z</time>
      </trkpt>
      <trkpt lat="47.52069" lon="6.70556">
        <ele>358</ele>
        <time>2015-11-29T10:35:46.000Z</time>
      </trkpt>
      <trkpt lat="47.52067" lon="6.70562">
        <ele>357</ele>
        <time>2015-11-29T10:35:47.000Z</time>
      </trkpt>
      <trkpt lat="47.52065" lon="6.70568">
        <ele>357</ele>
        <time>2015-11-29T10:35:48.000Z</time>
      </trkpt>
      <trkpt lat="47.52063" lon="6.70574">
        <ele>357</ele>
        <time>2015-11-29T10:35:49.000Z</time>
      </trkpt>
      <trkpt lat="47.52062" lon="6.70579">
        <ele>357</ele>
        <time>2015-11-29T10:35:50.000Z</time>
      </trkpt>
      <trkpt lat="47.5206" lon="6.70583">
        <ele>357</ele>
        <time>2015-11-29T10:35:51.000Z</time>
      </trkpt>
      <trkpt lat="47.52059" lon="6.70587">
        <ele>355</ele>
        <time>2015-11-29T10:35:52.000Z</time>
      </trkpt>
      <trkpt lat="47.52057" lon="6.70591">
        <ele>355</ele>
        <time>2015-11-29T10:35:53.000Z</time>
      </trkpt>
      <trkpt lat="47.52055" lon="6.70594">
        <ele>355</ele>
        <time>2015-11-29T10:35:54.000Z</time>
      </trkpt>
      <trkpt lat="47.52054" lon="6.70599">
        <ele>355</ele>
        <time>2015-11-29T10:35:55.000Z</time>
      </trkpt>
      <trkpt lat="47.52052" lon="6.70604">
        <ele>355</ele>
        <time>2015-11-29T10:35:56.000Z</time>
      </trkpt>
      <trkpt lat="47.52051" lon="6.7061">
        <ele>355</ele>
        <time>2015-11-29T10:35:57.000Z</time>
      </trkpt>
      <trkpt lat="47.52049" lon="6.70616">
        <ele>355</ele>
        <time>2015-11-29T10:35:58.000Z</time>
      </trkpt>
      <trkpt lat="47.52048" lon="6.70622">
        <ele>355</ele>
        <time>2015-11-29T10:35:59.000Z</time>
      </trkpt>
      <trkpt lat="47.52046" lon="6.70628">
        <ele>355</ele>
        <time>2015-11-29T10:36:00.000Z</time>
      </trkpt>
      <trkpt lat="47.52045" lon="6.70634">
        <ele>355</ele>
        <time>2015-11-29T10:36:01.000Z</time>
      </trkpt>
      <trkpt lat="47.52045" lon="6.7064">
        <ele>355</ele>
        <time>2015-11-29T10:36:02.000Z</time>
      </trkpt>
      <trkpt lat="47.52044" lon="6.70645">
        <ele>355</ele>
        <time>2015-11-29T10:36:03.000Z</time>
      </trkpt>
      <trkpt lat="47.52043" lon="6.7065">
        <ele>355</ele>
        <time>2015-11-29T10:36:04.000Z</time>
      </trkpt>
      <trkpt lat="47.52042" lon="6.70655">
        <ele>355</ele>
        <time>2015-11-29T10:36:05.000Z</time>
      </trkpt>
      <trkpt lat="47.52041" lon="6.7066">
        <ele>355</ele>
        <time>2015-11-29T10:36:06.000Z</time>
      </trkpt>
      <trkpt lat="47.5204" lon="6.70665">
        <ele>355</ele>
        <time>2015-11-29T10:36:07.000Z</time>
      </trkpt>
      <trkpt lat="47.52039" lon="6.70671">
        <ele>354</ele>
        <time>2015-11-29T10:36:08.000Z</time>
      </trkpt>
      <trkpt lat="47.52038" lon="6.70676">
        <ele>354</ele>
        <time>2015-11-29T10:36:09.000Z</time>
      </trkpt>
      <trkpt lat="47.52037" lon="6.70682">
        <ele>354</ele>
        <time>2015-11-29T10:36:10.000Z</time>
      </trkpt>
      <trkpt lat="47.52036" lon="6.70688">
        <ele>354</ele>
        <time>2015-11-29T10:36:11.000Z</time>
      </trkpt>
      <trkpt lat="47.52035" lon="6.70693">
        <ele>354</ele>
        <time>2015-11-29T10:36:12.000Z</time>
      </trkpt>
      <trkpt lat="47.52034" lon="6.70698">
        <ele>354</ele>
        <time>2015-11-29T10:36:13.000Z</time>
      </trkpt>
      <trkpt lat="47.52033" lon="6.70702">
        <ele>354</ele>
        <time>2015-11-29T10:36:14.000Z</time>
      </trkpt>
      <trkpt lat="47.52031" lon="6.70707">
        <ele>354</ele>
        <time>2015-11-29T10:36:15.000Z</time>
      </trkpt>
      <trkpt lat="47.5203" lon="6.70712">
        <ele>354</ele>
        <time>2015-11-29T10:36:16.000Z</time>
      </trkpt>
      <trkpt lat="47.52029" lon="6.70717">
        <ele>354</ele>
        <time>2015-11-29T10:36:17.000Z</time>
      </trkpt>
      <trkpt lat="47.52028" lon="6.70722">
        <ele>355</ele>
        <time>2015-11-29T10:36:18.000Z</time>
      </trkpt>
      <trkpt lat="47.52026" lon="6.70727">
        <ele>355</ele>
        <time>2015-11-29T10:36:19.000Z</time>
      </trkpt>
      <trkpt lat="47.52025" lon="6.70733">
        <ele>355</ele>
        <time>2015-11-29T10:36:20.000Z</time>
      </trkpt>
      <trkpt lat="47.52023" lon="6.70738">
        <ele>355</ele>
        <time>2015-11-29T10:36:21.000Z</time>
      </trkpt>
      <trkpt lat="47.52022" lon="6.70743">
        <ele>355</ele>
        <time>2015-11-29T10:36:22.000Z</time>
      </trkpt>
      <trkpt lat="47.52021" lon="6.70749">
        <ele>355</ele>
        <time>2015-11-29T10:36:23.000Z</time>
      </trkpt>
      <trkpt lat="47.52019" lon="6.70753">
        <ele>356</ele>
        <time>2015-11-29T10:36:24.000Z</time>
      </trkpt>
      <trkpt lat="47.52018" lon="6.70758">
        <ele>356</ele>
        <time>2015-11-29T10:36:25.000Z</time>
      </trkpt>
      <trkpt lat="47.52017" lon="6.70762">
        <ele>356</ele>
        <time>2015-11-29T10:36:26.000Z</time>
      </trkpt>
      <trkpt lat="47.52015" lon="6.70767">
        <ele>356</ele>
        <time>2015-11-29T10:36:27.000Z</time>
      </trkpt>
      <trkpt lat="47.52014" lon="6.70771">
        <ele>356</ele>
        <time>2015-11-29T10:36:28.000Z</time>
      </trkpt>
      <trkpt lat="47.52012" lon="6.70776">
        <ele>356</ele>
        <time>2015-11-29T10:36:29.000Z</time>
      </trkpt>
      <trkpt lat="47.52011" lon="6.70781">
        <ele>356</ele>
        <time>2015-11-29T10:36:30.000Z</time>
      </trkpt>
      <trkpt lat="47.5201" lon="6.70785">
        <ele>356</ele>
        <time>2015-11-29T10:36:31.000Z</time>
      </trkpt>
      <trkpt lat="47.52008" lon="6.70789">
        <ele>357</ele>
        <time>2015-11-29T10:36:32.000Z</time>
      </trkpt>
      <trkpt lat="47.52007" lon="6.70794">
        <ele>357</ele>
        <time>2015-11-29T10:36:33.000Z</time>
      </trkpt>
      <trkpt lat="47.52005" lon="6.70799">
        <ele>357</ele>
        <time>2015-11-29T10:36:34.000Z</time>
      </trkpt>
      <trkpt lat="47.52003" lon="6.70804">
        <ele>357</ele>
        <time>2015-11-29T10:36:35.000Z</time>
      </trkpt>
      <trkpt lat="47.52002" lon="6.70808">
        <ele>357</ele>
        <time>2015-11-29T10:36:36.000Z</time>
      </trkpt>
      <trkpt lat="47.52" lon="6.70813">
        <ele>357</ele>
        <time>2015-11-29T10:36:37.000Z</time>
      </trkpt>
      <trkpt lat="47.51999" lon="6.70817">
        <ele>359</ele>
        <time>2015-11-29T10:36:38.000Z</time>
      </trkpt>
      <trkpt lat="47.51998" lon="6.70821">
        <ele>359</ele>
        <time>2015-11-29T10:36:39.000Z</time>
      </trkpt>
      <trkpt lat="47.51997" lon="6.70826">
        <ele>359</ele>
        <time>2015-11-29T10:36:40.000Z</time>
      </trkpt>
      <trkpt lat="47.51995" lon="6.7083">
        <ele>359</ele>
        <time>2015-11-29T10:36:41.000Z</time>
      </trkpt>
      <trkpt lat="47.51993" lon="6.70834">
        <ele>360</ele>
        <time>2015-11-29T10:36:42.000Z</time>
      </trkpt>
      <trkpt lat="47.51991" lon="6.70837">
        <ele>360</ele>
        <time>2015-11-29T10:36:43.000Z</time>
      </trkpt>
      <trkpt lat="47.51989" lon="6.7084">
        <ele>361</ele>
        <time>2015-11-29T10:36:44.000Z</time>
      </trkpt>
      <trkpt lat="47.51987" lon="6.70844">
        <ele>361</ele>
        <time>2015-11-29T10:36:45.000Z</time>
      </trkpt>
      <trkpt lat="47.51986" lon="6.70847">
        <ele>361</ele>
        <time>2015-11-29T10:36:46.000Z</time>
      </trkpt>
      <trkpt lat="47.51984" lon="6.70851">
        <ele>362</ele>
        <time>2015-11-29T10:36:47.000Z</time>
      </trkpt>
      <trkpt lat="47.51982" lon="6.70855">
        <ele>362</ele>
        <time>2015-11-29T10:36:48.000Z</time>
      </trkpt>
      <trkpt lat="47.51981" lon="6.70859">
        <ele>362</ele>
        <time>2015-11-29T10:36:49.000Z</time>
      </trkpt>
      <trkpt lat="47.5198" lon="6.70863">
        <ele>362</ele>
        <time>2015-11-29T10:36:50.000Z</time>
      </trkpt>
      <trkpt lat="47.51979" lon="6.70867">
        <ele>363</ele>
        <time>2015-11-29T10:36:51.000Z</time>
      </trkpt>
      <trkpt lat="47.51978" lon="6.70871">
        <ele>363</ele>
        <time>2015-11-29T10:36:52.000Z</time>
      </trkpt>
      <trkpt lat="47.51978" lon="6.70875">
        <ele>363</ele>
        <time>2015-11-29T10:36:53.000Z</time>
      </trkpt>
      <trkpt lat="47.51978" lon="6.70879">
        <ele>363</ele>
        <time>2015-11-29T10:36:54.000Z</time>
      </trkpt>
      <trkpt lat="47.51978" lon="6.70883">
        <ele>363</ele>
        <time>2015-11-29T10:36:55.000Z</time>
      </trkpt>
      <trkpt lat="47.51979" lon="6.70886">
        <ele>363</ele>
        <time>2015-11-29T10:36:56.000Z</time>
      </trkpt>
      <trkpt lat="47.5198" lon="6.7089">
        <ele>363</ele>
        <time>2015-11-29T10:36:57.000Z</time>
      </trkpt>
      <trkpt lat="47.51981" lon="6.70894">
        <ele>363</ele>
        <time>2015-11-29T10:36:58.000Z</time>
      </trkpt>
      <trkpt lat="47.51982" lon="6.70898">
        <ele>363</ele>
        <time>2015-11-29T10:36:59.000Z</time>
      </trkpt>
      <trkpt lat="47.51983" lon="6.70902">
        <ele>363</ele>
        <time>2015-11-29T10:37:00.000Z</time>
      </trkpt>
      <trkpt lat="47.51985" lon="6.70907">
        <ele>363</ele>
        <time>2015-11-29T10:37:01.000Z</time>
      </trkpt>
      <trkpt lat="47.51987" lon="6.70911">
        <ele>362</ele>
        <time>2015-11-29T10:37:02.000Z</time>
      </trkpt>
      <trkpt lat="47.51989" lon="6.70916">
        <ele>362</ele>
        <time>2015-11-29T10:37:03.000Z</time>
      </trkpt>
      <trkpt lat="47.51992" lon="6.70921">
        <ele>365</ele>
        <time>2015-11-29T10:37:04.000Z</time>
      </trkpt>
      <trkpt lat="47.51994" lon="6.70926">
        <ele>365</ele>
        <time>2015-11-29T10:37:05.000Z</time>
      </trkpt>
      <trkpt lat="47.51997" lon="6.70931">
        <ele>366</ele>
        <time>2015-11-29T10:37:06.000Z</time>
      </trkpt>
      <trkpt lat="47.52" lon="6.70935">
        <ele>363</ele>
        <time>2015-11-29T10:37:07.000Z</time>
      </trkpt>
      <trkpt lat="47.52003" lon="6.70939">
        <ele>364</ele>
        <time>2015-11-29T10:37:08.000Z</time>
      </trkpt>
      <trkpt lat="47.5201" lon="6.70943">
        <ele>364</ele>
        <time>2015-11-29T10:37:09.000Z</time>
      </trkpt>
      <trkpt lat="47.52012" lon="6.70946">
        <ele>364</ele>
        <time>2015-11-29T10:37:10.000Z</time>
      </trkpt>
      <trkpt lat="47.52015" lon="6.70949">
        <ele>364</ele>
        <time>2015-11-29T10:37:11.000Z</time>
      </trkpt>
      <trkpt lat="47.52018" lon="6.70952">
        <ele>365</ele>
        <time>2015-11-29T10:37:12.000Z</time>
      </trkpt>
      <trkpt lat="47.5202" lon="6.70955">
        <ele>365</ele>
        <time>2015-11-29T10:37:13.000Z</time>
      </trkpt>
      <trkpt lat="47.52024" lon="6.70957">
        <ele>365</ele>
        <time>2015-11-29T10:37:14.000Z</time>
      </trkpt>
      <trkpt lat="47.52027" lon="6.7096">
        <ele>365</ele>
        <time>2015-11-29T10:37:15.000Z</time>
      </trkpt>
      <trkpt lat="47.5203" lon="6.70964">
        <ele>365</ele>
        <time>2015-11-29T10:37:16.000Z</time>
      </trkpt>
      <trkpt lat="47.52034" lon="6.70968">
        <ele>365</ele>
        <time>2015-11-29T10:37:17.000Z</time>
      </trkpt>
      <trkpt lat="47.52036" lon="6.70972">
        <ele>365</ele>
        <time>2015-11-29T10:37:18.000Z</time>
      </trkpt>
      <trkpt lat="47.52037" lon="6.70975">
        <ele>366</ele>
        <time>2015-11-29T10:37:19.000Z</time>
      </trkpt>
      <trkpt lat="47.52038" lon="6.70978">
        <ele>366</ele>
        <time>2015-11-29T10:37:20.000Z</time>
      </trkpt>
      <trkpt lat="47.52039" lon="6.70982">
        <ele>366</ele>
        <time>2015-11-29T10:37:21.000Z</time>
      </trkpt>
      <trkpt lat="47.5204" lon="6.70985">
        <ele>366</ele>
        <time>2015-11-29T10:37:22.000Z</time>
      </trkpt>
      <trkpt lat="47.52041" lon="6.70988">
        <ele>366</ele>
        <time>2015-11-29T10:37:23.000Z</time>
      </trkpt>
      <trkpt lat="47.52042" lon="6.70993">
        <ele>366</ele>
        <time>2015-11-29T10:37:25.000Z</time>
      </trkpt>
      <trkpt lat="47.52041" lon="6.70996">
        <ele>366</ele>
        <time>2015-11-29T10:37:26.000Z</time>
      </trkpt>
      <trkpt lat="47.52039" lon="6.71001">
        <ele>375</ele>
        <time>2015-11-29T10:37:28.000Z</time>
      </trkpt>
      <trkpt lat="47.52037" lon="6.71001">
        <ele>375</ele>
        <time>2015-11-29T10:37:29.000Z</time>
      </trkpt>
      <trkpt lat="47.52035" lon="6.71">
        <ele>375</ele>
        <time>2015-11-29T10:37:30.000Z</time>
      </trkpt>
      <trkpt lat="47.52032" lon="6.70999">
        <ele>367</ele>
        <time>2015-11-29T10:37:31.000Z</time>
      </trkpt>
      <trkpt lat="47.5203" lon="6.70997">
        <ele>367</ele>
        <time>2015-11-29T10:37:32.000Z</time>
      </trkpt>
      <trkpt lat="47.52027" lon="6.70995">
        <ele>368</ele>
        <time>2015-11-29T10:37:33.000Z</time>
      </trkpt>
      <trkpt lat="47.52025" lon="6.70994">
        <ele>368</ele>
        <time>2015-11-29T10:37:34.000Z</time>
      </trkpt>
      <trkpt lat="47.52023" lon="6.70993">
        <ele>368</ele>
        <time>2015-11-29T10:37:35.000Z</time>
      </trkpt>
      <trkpt lat="47.5202" lon="6.70992">
        <ele>368</ele>
        <time>2015-11-29T10:37:36.000Z</time>
      </trkpt>
      <trkpt lat="47.52017" lon="6.70991">
        <ele>369</ele>
        <time>2015-11-29T10:37:37.000Z</time>
      </trkpt>
      <trkpt lat="47.52014" lon="6.70989">
        <ele>369</ele>
        <time>2015-11-29T10:37:38.000Z</time>
      </trkpt>
      <trkpt lat="47.52011" lon="6.70988">
        <ele>369</ele>
        <time>2015-11-29T10:37:39.000Z</time>
      </trkpt>
      <trkpt lat="47.52008" lon="6.70987">
        <ele>369</ele>
        <time>2015-11-29T10:37:40.000Z</time>
      </trkpt>
      <trkpt lat="47.52004" lon="6.70985">
        <ele>369</ele>
        <time>2015-11-29T10:37:41.000Z</time>
      </trkpt>
      <trkpt lat="47.52001" lon="6.70983">
        <ele>369</ele>
        <time>2015-11-29T10:37:42.000Z</time>
      </trkpt>
      <trkpt lat="47.51997" lon="6.70981">
        <ele>373</ele>
        <time>2015-11-29T10:37:43.000Z</time>
      </trkpt>
      <trkpt lat="47.51994" lon="6.70979">
        <ele>373</ele>
        <time>2015-11-29T10:37:44.000Z</time>
      </trkpt>
      <trkpt lat="47.51991" lon="6.70978">
        <ele>373</ele>
        <time>2015-11-29T10:37:45.000Z</time>
      </trkpt>
      <trkpt lat="47.51988" lon="6.70978">
        <ele>373</ele>
        <time>2015-11-29T10:37:46.000Z</time>
      </trkpt>
      <trkpt lat="47.51986" lon="6.70979">
        <ele>374</ele>
        <time>2015-11-29T10:37:47.000Z</time>
      </trkpt>
      <trkpt lat="47.51983" lon="6.7098">
        <ele>374</ele>
        <time>2015-11-29T10:37:48.000Z</time>
      </trkpt>
      <trkpt lat="47.51981" lon="6.70981">
        <ele>374</ele>
        <time>2015-11-29T10:37:49.000Z</time>
      </trkpt>
      <trkpt lat="47.51979" lon="6.70981">
        <ele>374</ele>
        <time>2015-11-29T10:37:50.000Z</time>
      </trkpt>
      <trkpt lat="47.51976" lon="6.70982">
        <ele>374</ele>
        <time>2015-11-29T10:37:51.000Z</time>
      </trkpt>
      <trkpt lat="47.51974" lon="6.70982">
        <ele>374</ele>
        <time>2015-11-29T10:37:52.000Z</time>
      </trkpt>
      <trkpt lat="47.51972" lon="6.70983">
        <ele>374</ele>
        <time>2015-11-29T10:37:53.000Z</time>
      </trkpt>
      <trkpt lat="47.51968" lon="6.70984">
        <ele>375</ele>
        <time>2015-11-29T10:37:55.000Z</time>
      </trkpt>
      <trkpt lat="47.51966" lon="6.70985">
        <ele>375</ele>
        <time>2015-11-29T10:37:56.000Z</time>
      </trkpt>
      <trkpt lat="47.51962" lon="6.70986">
        <ele>375</ele>
        <time>2015-11-29T10:37:58.000Z</time>
      </trkpt>
      <trkpt lat="47.5196" lon="6.70986">
        <ele>376</ele>
        <time>2015-11-29T10:37:59.000Z</time>
      </trkpt>
      <trkpt lat="47.51957" lon="6.70987">
        <ele>376</ele>
        <time>2015-11-29T10:38:01.000Z</time>
      </trkpt>
      <trkpt lat="47.51955" lon="6.70987">
        <ele>376</ele>
        <time>2015-11-29T10:38:02.000Z</time>
      </trkpt>
      <trkpt lat="47.51952" lon="6.70989">
        <ele>377</ele>
        <time>2015-11-29T10:38:04.000Z</time>
      </trkpt>
      <trkpt lat="47.5195" lon="6.70989">
        <ele>377</ele>
        <time>2015-11-29T10:38:05.000Z</time>
      </trkpt>
      <trkpt lat="47.51947" lon="6.7099">
        <ele>377</ele>
        <time>2015-11-29T10:38:07.000Z</time>
      </trkpt>
      <trkpt lat="47.51946" lon="6.70991">
        <ele>378</ele>
        <time>2015-11-29T10:38:08.000Z</time>
      </trkpt>
      <trkpt lat="47.51942" lon="6.70993">
        <ele>379</ele>
        <time>2015-11-29T10:38:11.000Z</time>
      </trkpt>
      <trkpt lat="47.5194" lon="6.70993">
        <ele>379</ele>
        <time>2015-11-29T10:38:12.000Z</time>
      </trkpt>
      <trkpt lat="47.51936" lon="6.70993">
        <ele>380</ele>
        <time>2015-11-29T10:38:15.000Z</time>
      </trkpt>
      <trkpt lat="47.51935" lon="6.70993">
        <ele>380</ele>
        <time>2015-11-29T10:38:16.000Z</time>
      </trkpt>
      <trkpt lat="47.51931" lon="6.70995">
        <ele>381</ele>
        <time>2015-11-29T10:38:18.000Z</time>
      </trkpt>
      <trkpt lat="47.5193" lon="6.70996">
        <ele>382</ele>
        <time>2015-11-29T10:38:19.000Z</time>
      </trkpt>
      <trkpt lat="47.51926" lon="6.70998">
        <ele>383</ele>
        <time>2015-11-29T10:38:21.000Z</time>
      </trkpt>
      <trkpt lat="47.51924" lon="6.70999">
        <ele>383</ele>
        <time>2015-11-29T10:38:22.000Z</time>
      </trkpt>
      <trkpt lat="47.51921" lon="6.71001">
        <ele>387</ele>
        <time>2015-11-29T10:38:24.000Z</time>
      </trkpt>
      <trkpt lat="47.51919" lon="6.71002">
        <ele>387</ele>
        <time>2015-11-29T10:38:25.000Z</time>
      </trkpt>
      <trkpt lat="47.51916" lon="6.71005">
        <ele>389</ele>
        <time>2015-11-29T10:38:27.000Z</time>
      </trkpt>
      <trkpt lat="47.51914" lon="6.71006">
        <ele>389</ele>
        <time>2015-11-29T10:38:28.000Z</time>
      </trkpt>
      <trkpt lat="47.5191" lon="6.71007">
        <ele>390</ele>
        <time>2015-11-29T10:38:30.000Z</time>
      </trkpt>
      <trkpt lat="47.51908" lon="6.71007">
        <ele>391</ele>
        <time>2015-11-29T10:38:31.000Z</time>
      </trkpt>
      <trkpt lat="47.51905" lon="6.71009">
        <ele>391</ele>
        <time>2015-11-29T10:38:33.000Z</time>
      </trkpt>
      <trkpt lat="47.51904" lon="6.71009">
        <ele>392</ele>
        <time>2015-11-29T10:38:34.000Z</time>
      </trkpt>
      <trkpt lat="47.519" lon="6.7101">
        <ele>392</ele>
        <time>2015-11-29T10:38:36.000Z</time>
      </trkpt>
      <trkpt lat="47.51898" lon="6.71011">
        <ele>393</ele>
        <time>2015-11-29T10:38:37.000Z</time>
      </trkpt>
      <trkpt lat="47.51894" lon="6.71011">
        <ele>393</ele>
        <time>2015-11-29T10:38:39.000Z</time>
      </trkpt>
      <trkpt lat="47.51891" lon="6.71011">
        <ele>393</ele>
        <time>2015-11-29T10:38:40.000Z</time>
      </trkpt>
      <trkpt lat="47.51889" lon="6.7101">
        <ele>394</ele>
        <time>2015-11-29T10:38:41.000Z</time>
      </trkpt>
      <trkpt lat="47.51886" lon="6.7101">
        <ele>394</ele>
        <time>2015-11-29T10:38:42.000Z</time>
      </trkpt>
      <trkpt lat="47.51884" lon="6.7101">
        <ele>394</ele>
        <time>2015-11-29T10:38:43.000Z</time>
      </trkpt>
      <trkpt lat="47.51881" lon="6.7101">
        <ele>394</ele>
        <time>2015-11-29T10:38:44.000Z</time>
      </trkpt>
      <trkpt lat="47.51879" lon="6.71013">
        <ele>395</ele>
        <time>2015-11-29T10:38:46.000Z</time>
      </trkpt>
      <trkpt lat="47.51878" lon="6.71014">
        <ele>395</ele>
        <time>2015-11-29T10:38:47.000Z</time>
      </trkpt>
      <trkpt lat="47.51875" lon="6.71016">
        <ele>395</ele>
        <time>2015-11-29T10:38:50.000Z</time>
      </trkpt>
      <trkpt lat="47.51873" lon="6.71015">
        <ele>395</ele>
        <time>2015-11-29T10:38:51.000Z</time>
      </trkpt>
      <trkpt lat="47.51869" lon="6.71015">
        <ele>395</ele>
        <time>2015-11-29T10:38:53.000Z</time>
      </trkpt>
      <trkpt lat="47.51867" lon="6.71015">
        <ele>395</ele>
        <time>2015-11-29T10:38:54.000Z</time>
      </trkpt>
      <trkpt lat="47.51863" lon="6.71015">
        <ele>395</ele>
        <time>2015-11-29T10:38:56.000Z</time>
      </trkpt>
      <trkpt lat="47.51861" lon="6.71016">
        <ele>395</ele>
        <time>2015-11-29T10:38:57.000Z</time>
      </trkpt>
      <trkpt lat="47.51858" lon="6.71017">
        <ele>396</ele>
        <time>2015-11-29T10:38:59.000Z</time>
      </trkpt>
      <trkpt lat="47.51856" lon="6.71017">
        <ele>396</ele>
        <time>2015-11-29T10:39:00.000Z</time>
      </trkpt>
      <trkpt lat="47.51852" lon="6.71019">
        <ele>396</ele>
        <time>2015-11-29T10:39:03.000Z</time>
      </trkpt>
      <trkpt lat="47.51851" lon="6.7102">
        <ele>396</ele>
        <time>2015-11-29T10:39:04.000Z</time>
      </trkpt>
      <trkpt lat="47.51847" lon="6.71022">
        <ele>396</ele>
        <time>2015-11-29T10:39:07.000Z</time>
      </trkpt>
      <trkpt lat="47.51846" lon="6.71022">
        <ele>396</ele>
        <time>2015-11-29T10:39:08.000Z</time>
      </trkpt>
      <trkpt lat="47.51842" lon="6.71025">
        <ele>396</ele>
        <time>2015-11-29T10:39:11.000Z</time>
      </trkpt>
      <trkpt lat="47.51841" lon="6.71026">
        <ele>396</ele>
        <time>2015-11-29T10:39:12.000Z</time>
      </trkpt>
      <trkpt lat="47.51837" lon="6.71028">
        <ele>396</ele>
        <time>2015-11-29T10:39:15.000Z</time>
      </trkpt>
      <trkpt lat="47.51836" lon="6.71029">
        <ele>396</ele>
        <time>2015-11-29T10:39:16.000Z</time>
      </trkpt>
      <trkpt lat="47.51832" lon="6.71029">
        <ele>398</ele>
        <time>2015-11-29T10:39:18.000Z</time>
      </trkpt>
      <trkpt lat="47.51831" lon="6.71028">
        <ele>398</ele>
        <time>2015-11-29T10:39:19.000Z</time>
      </trkpt>
      <trkpt lat="47.51827" lon="6.71028">
        <ele>398</ele>
        <time>2015-11-29T10:39:21.000Z</time>
      </trkpt>
      <trkpt lat="47.51825" lon="6.71027">
        <ele>398</ele>
        <time>2015-11-29T10:39:22.000Z</time>
      </trkpt>
      <trkpt lat="47.51821" lon="6.71027">
        <ele>398</ele>
        <time>2015-11-29T10:39:24.000Z</time>
      </trkpt>
      <trkpt lat="47.51819" lon="6.71027">
        <ele>398</ele>
        <time>2015-11-29T10:39:25.000Z</time>
      </trkpt>
      <trkpt lat="47.51815" lon="6.71028">
        <ele>398</ele>
        <time>2015-11-29T10:39:28.000Z</time>
      </trkpt>
      <trkpt lat="47.51813" lon="6.71029">
        <ele>399</ele>
        <time>2015-11-29T10:39:29.000Z</time>
      </trkpt>
      <trkpt lat="47.51809" lon="6.71029">
        <ele>399</ele>
        <time>2015-11-29T10:39:31.000Z</time>
      </trkpt>
      <trkpt lat="47.51807" lon="6.71029">
        <ele>399</ele>
        <time>2015-11-29T10:39:32.000Z</time>
      </trkpt>
      <trkpt lat="47.51804" lon="6.71029">
        <ele>399</ele>
        <time>2015-11-29T10:39:33.000Z</time>
      </trkpt>
      <trkpt lat="47.51802" lon="6.71029">
        <ele>399</ele>
        <time>2015-11-29T10:39:34.000Z</time>
      </trkpt>
      <trkpt lat="47.518" lon="6.71029">
        <ele>399</ele>
        <time>2015-11-29T10:39:35.000Z</time>
      </trkpt>
      <trkpt lat="47.51797" lon="6.71028">
        <ele>399</ele>
        <time>2015-11-29T10:39:36.000Z</time>
      </trkpt>
      <trkpt lat="47.51793" lon="6.71029">
        <ele>399</ele>
        <time>2015-11-29T10:39:38.000Z</time>
      </trkpt>
      <trkpt lat="47.51791" lon="6.71029">
        <ele>399</ele>
        <time>2015-11-29T10:39:39.000Z</time>
      </trkpt>
      <trkpt lat="47.51788" lon="6.7103">
        <ele>399</ele>
        <time>2015-11-29T10:39:41.000Z</time>
      </trkpt>
      <trkpt lat="47.51786" lon="6.7103">
        <ele>399</ele>
        <time>2015-11-29T10:39:42.000Z</time>
      </trkpt>
      <trkpt lat="47.51782" lon="6.71032">
        <ele>399</ele>
        <time>2015-11-29T10:39:45.000Z</time>
      </trkpt>
      <trkpt lat="47.51781" lon="6.71034">
        <ele>399</ele>
        <time>2015-11-29T10:39:46.000Z</time>
      </trkpt>
      <trkpt lat="47.51777" lon="6.71035">
        <ele>400</ele>
        <time>2015-11-29T10:39:49.000Z</time>
      </trkpt>
      <trkpt lat="47.51775" lon="6.71035">
        <ele>400</ele>
        <time>2015-11-29T10:39:50.000Z</time>
      </trkpt>
      <trkpt lat="47.51771" lon="6.71035">
        <ele>400</ele>
        <time>2015-11-29T10:39:52.000Z</time>
      </trkpt>
      <trkpt lat="47.51769" lon="6.71035">
        <ele>400</ele>
        <time>2015-11-29T10:39:53.000Z</time>
      </trkpt>
      <trkpt lat="47.51766" lon="6.71035">
        <ele>400</ele>
        <time>2015-11-29T10:39:55.000Z</time>
      </trkpt>
      <trkpt lat="47.51764" lon="6.71035">
        <ele>400</ele>
        <time>2015-11-29T10:39:56.000Z</time>
      </trkpt>
      <trkpt lat="47.5176" lon="6.71035">
        <ele>400</ele>
        <time>2015-11-29T10:39:58.000Z</time>
      </trkpt>
      <trkpt lat="47.51757" lon="6.71035">
        <ele>400</ele>
        <time>2015-11-29T10:39:59.000Z</time>
      </trkpt>
      <trkpt lat="47.51753" lon="6.71035">
        <ele>400</ele>
        <time>2015-11-29T10:40:01.000Z</time>
      </trkpt>
      <trkpt lat="47.51752" lon="6.71035">
        <ele>400</ele>
        <time>2015-11-29T10:40:02.000Z</time>
      </trkpt>
      <trkpt lat="47.51748" lon="6.71035">
        <ele>405</ele>
        <time>2015-11-29T10:40:04.000Z</time>
      </trkpt>
      <trkpt lat="47.51747" lon="6.71035">
        <ele>405</ele>
        <time>2015-11-29T10:40:05.000Z</time>
      </trkpt>
      <trkpt lat="47.51743" lon="6.71035">
        <ele>406</ele>
        <time>2015-11-29T10:40:07.000Z</time>
      </trkpt>
      <trkpt lat="47.51741" lon="6.71035">
        <ele>406</ele>
        <time>2015-11-29T10:40:08.000Z</time>
      </trkpt>
      <trkpt lat="47.51737" lon="6.71035">
        <ele>406</ele>
        <time>2015-11-29T10:40:10.000Z</time>
      </trkpt>
      <trkpt lat="47.51736" lon="6.71036">
        <ele>406</ele>
        <time>2015-11-29T10:40:11.000Z</time>
      </trkpt>
      <trkpt lat="47.51733" lon="6.71037">
        <ele>406</ele>
        <time>2015-11-29T10:40:13.000Z</time>
      </trkpt>
      <trkpt lat="47.51731" lon="6.71038">
        <ele>407</ele>
        <time>2015-11-29T10:40:14.000Z</time>
      </trkpt>
      <trkpt lat="47.51727" lon="6.71037">
        <ele>407</ele>
        <time>2015-11-29T10:40:16.000Z</time>
      </trkpt>
      <trkpt lat="47.51725" lon="6.71037">
        <ele>407</ele>
        <time>2015-11-29T10:40:17.000Z</time>
      </trkpt>
      <trkpt lat="47.51722" lon="6.71036">
        <ele>407</ele>
        <time>2015-11-29T10:40:18.000Z</time>
      </trkpt>
      <trkpt lat="47.5172" lon="6.71036">
        <ele>407</ele>
        <time>2015-11-29T10:40:19.000Z</time>
      </trkpt>
      <trkpt lat="47.51718" lon="6.71035">
        <ele>408</ele>
        <time>2015-11-29T10:40:20.000Z</time>
      </trkpt>
      <trkpt lat="47.51715" lon="6.71035">
        <ele>408</ele>
        <time>2015-11-29T10:40:21.000Z</time>
      </trkpt>
      <trkpt lat="47.51713" lon="6.71034">
        <ele>408</ele>
        <time>2015-11-29T10:40:22.000Z</time>
      </trkpt>
      <trkpt lat="47.5171" lon="6.71034">
        <ele>408</ele>
        <time>2015-11-29T10:40:23.000Z</time>
      </trkpt>
      <trkpt lat="47.51708" lon="6.71033">
        <ele>409</ele>
        <time>2015-11-29T10:40:24.000Z</time>
      </trkpt>
      <trkpt lat="47.51705" lon="6.71031">
        <ele>409</ele>
        <time>2015-11-29T10:40:25.000Z</time>
      </trkpt>
      <trkpt lat="47.51703" lon="6.7103">
        <ele>409</ele>
        <time>2015-11-29T10:40:26.000Z</time>
      </trkpt>
      <trkpt lat="47.51701" lon="6.71029">
        <ele>409</ele>
        <time>2015-11-29T10:40:27.000Z</time>
      </trkpt>
      <trkpt lat="47.51696" lon="6.71028">
        <ele>409</ele>
        <time>2015-11-29T10:40:29.000Z</time>
      </trkpt>
      <trkpt lat="47.51694" lon="6.71028">
        <ele>410</ele>
        <time>2015-11-29T10:40:30.000Z</time>
      </trkpt>
      <trkpt lat="47.5169" lon="6.71028">
        <ele>410</ele>
        <time>2015-11-29T10:40:32.000Z</time>
      </trkpt>
      <trkpt lat="47.51688" lon="6.71028">
        <ele>410</ele>
        <time>2015-11-29T10:40:33.000Z</time>
      </trkpt>
      <trkpt lat="47.51685" lon="6.71028">
        <ele>410</ele>
        <time>2015-11-29T10:40:34.000Z</time>
      </trkpt>
      <trkpt lat="47.51683" lon="6.71029">
        <ele>410</ele>
        <time>2015-11-29T10:40:35.000Z</time>
      </trkpt>
      <trkpt lat="47.51681" lon="6.71028">
        <ele>411</ele>
        <time>2015-11-29T10:40:36.000Z</time>
      </trkpt>
      <trkpt lat="47.51678" lon="6.71028">
        <ele>411</ele>
        <time>2015-11-29T10:40:37.000Z</time>
      </trkpt>
      <trkpt lat="47.51675" lon="6.71027">
        <ele>411</ele>
        <time>2015-11-29T10:40:38.000Z</time>
      </trkpt>
      <trkpt lat="47.51673" lon="6.71025">
        <ele>411</ele>
        <time>2015-11-29T10:40:39.000Z</time>
      </trkpt>
      <trkpt lat="47.5167" lon="6.71024">
        <ele>411</ele>
        <time>2015-11-29T10:40:40.000Z</time>
      </trkpt>
      <trkpt lat="47.51667" lon="6.71022">
        <ele>411</ele>
        <time>2015-11-29T10:40:41.000Z</time>
      </trkpt>
      <trkpt lat="47.51665" lon="6.71021">
        <ele>420</ele>
        <time>2015-11-29T10:40:42.000Z</time>
      </trkpt>
      <trkpt lat="47.51663" lon="6.71019">
        <ele>420</ele>
        <time>2015-11-29T10:40:43.000Z</time>
      </trkpt>
      <trkpt lat="47.5166" lon="6.71017">
        <ele>419</ele>
        <time>2015-11-29T10:40:44.000Z</time>
      </trkpt>
      <trkpt lat="47.51658" lon="6.71014">
        <ele>419</ele>
        <time>2015-11-29T10:40:45.000Z</time>
      </trkpt>
      <trkpt lat="47.51655" lon="6.71011">
        <ele>419</ele>
        <time>2015-11-29T10:40:46.000Z</time>
      </trkpt>
      <trkpt lat="47.51653" lon="6.71009">
        <ele>419</ele>
        <time>2015-11-29T10:40:47.000Z</time>
      </trkpt>
      <trkpt lat="47.51651" lon="6.71007">
        <ele>419</ele>
        <time>2015-11-29T10:40:48.000Z</time>
      </trkpt>
      <trkpt lat="47.51649" lon="6.71005">
        <ele>420</ele>
        <time>2015-11-29T10:40:49.000Z</time>
      </trkpt>
      <trkpt lat="47.51647" lon="6.71004">
        <ele>420</ele>
        <time>2015-11-29T10:40:50.000Z</time>
      </trkpt>
      <trkpt lat="47.51644" lon="6.71002">
        <ele>421</ele>
        <time>2015-11-29T10:40:51.000Z</time>
      </trkpt>
      <trkpt lat="47.51642" lon="6.71001">
        <ele>422</ele>
        <time>2015-11-29T10:40:52.000Z</time>
      </trkpt>
      <trkpt lat="47.51639" lon="6.71001">
        <ele>422</ele>
        <time>2015-11-29T10:40:53.000Z</time>
      </trkpt>
      <trkpt lat="47.51636" lon="6.71">
        <ele>423</ele>
        <time>2015-11-29T10:40:54.000Z</time>
      </trkpt>
      <trkpt lat="47.51633" lon="6.71">
        <ele>424</ele>
        <time>2015-11-29T10:40:55.000Z</time>
      </trkpt>
      <trkpt lat="47.51631" lon="6.71">
        <ele>418</ele>
        <time>2015-11-29T10:40:56.000Z</time>
      </trkpt>
      <trkpt lat="47.51628" lon="6.70999">
        <ele>419</ele>
        <time>2015-11-29T10:40:57.000Z</time>
      </trkpt>
      <trkpt lat="47.51625" lon="6.70997">
        <ele>419</ele>
        <time>2015-11-29T10:40:59.000Z</time>
      </trkpt>
      <trkpt lat="47.51623" lon="6.70997">
        <ele>420</ele>
        <time>2015-11-29T10:41:00.000Z</time>
      </trkpt>
      <trkpt lat="47.51619" lon="6.70997">
        <ele>420</ele>
        <time>2015-11-29T10:41:02.000Z</time>
      </trkpt>
      <trkpt lat="47.51616" lon="6.70997">
        <ele>421</ele>
        <time>2015-11-29T10:41:03.000Z</time>
      </trkpt>
      <trkpt lat="47.51614" lon="6.70997">
        <ele>421</ele>
        <time>2015-11-29T10:41:04.000Z</time>
      </trkpt>
      <trkpt lat="47.51612" lon="6.70996">
        <ele>422</ele>
        <time>2015-11-29T10:41:05.000Z</time>
      </trkpt>
      <trkpt lat="47.51609" lon="6.70995">
        <ele>423</ele>
        <time>2015-11-29T10:41:06.000Z</time>
      </trkpt>
      <trkpt lat="47.51607" lon="6.70995">
        <ele>423</ele>
        <time>2015-11-29T10:41:07.000Z</time>
      </trkpt>
      <trkpt lat="47.51604" lon="6.70995">
        <ele>424</ele>
        <time>2015-11-29T10:41:08.000Z</time>
      </trkpt>
      <trkpt lat="47.51601" lon="6.70995">
        <ele>425</ele>
        <time>2015-11-29T10:41:09.000Z</time>
      </trkpt>
      <trkpt lat="47.51598" lon="6.70995">
        <ele>425</ele>
        <time>2015-11-29T10:41:10.000Z</time>
      </trkpt>
      <trkpt lat="47.51596" lon="6.70994">
        <ele>426</ele>
        <time>2015-11-29T10:41:11.000Z</time>
      </trkpt>
      <trkpt lat="47.51592" lon="6.70992">
        <ele>427</ele>
        <time>2015-11-29T10:41:13.000Z</time>
      </trkpt>
      <trkpt lat="47.5159" lon="6.70992">
        <ele>427</ele>
        <time>2015-11-29T10:41:14.000Z</time>
      </trkpt>
      <trkpt lat="47.51587" lon="6.7099">
        <ele>428</ele>
        <time>2015-11-29T10:41:16.000Z</time>
      </trkpt>
      <trkpt lat="47.51585" lon="6.7099">
        <ele>428</ele>
        <time>2015-11-29T10:41:17.000Z</time>
      </trkpt>
      <trkpt lat="47.51581" lon="6.7099">
        <ele>433</ele>
        <time>2015-11-29T10:41:19.000Z</time>
      </trkpt>
      <trkpt lat="47.51579" lon="6.7099">
        <ele>433</ele>
        <time>2015-11-29T10:41:20.000Z</time>
      </trkpt>
      <trkpt lat="47.51577" lon="6.70989">
        <ele>433</ele>
        <time>2015-11-29T10:41:21.000Z</time>
      </trkpt>
      <trkpt lat="47.51575" lon="6.70989">
        <ele>433</ele>
        <time>2015-11-29T10:41:22.000Z</time>
      </trkpt>
      <trkpt lat="47.51572" lon="6.70989">
        <ele>433</ele>
        <time>2015-11-29T10:41:23.000Z</time>
      </trkpt>
      <trkpt lat="47.5157" lon="6.70989">
        <ele>433</ele>
        <time>2015-11-29T10:41:24.000Z</time>
      </trkpt>
      <trkpt lat="47.51566" lon="6.70989">
        <ele>433</ele>
        <time>2015-11-29T10:41:26.000Z</time>
      </trkpt>
      <trkpt lat="47.51565" lon="6.70989">
        <ele>433</ele>
        <time>2015-11-29T10:41:27.000Z</time>
      </trkpt>
      <trkpt lat="47.5156" lon="6.70988">
        <ele>433</ele>
        <time>2015-11-29T10:41:30.000Z</time>
      </trkpt>
      <trkpt lat="47.51559" lon="6.70987">
        <ele>433</ele>
        <time>2015-11-29T10:41:31.000Z</time>
      </trkpt>
      <trkpt lat="47.51555" lon="6.70986">
        <ele>433</ele>
        <time>2015-11-29T10:41:33.000Z</time>
      </trkpt>
      <trkpt lat="47.51553" lon="6.70985">
        <ele>433</ele>
        <time>2015-11-29T10:41:34.000Z</time>
      </trkpt>
      <trkpt lat="47.51548" lon="6.70983">
        <ele>433</ele>
        <time>2015-11-29T10:41:36.000Z</time>
      </trkpt>
      <trkpt lat="47.51547" lon="6.70982">
        <ele>434</ele>
        <time>2015-11-29T10:41:37.000Z</time>
      </trkpt>
      <trkpt lat="47.51543" lon="6.70979">
        <ele>434</ele>
        <time>2015-11-29T10:41:40.000Z</time>
      </trkpt>
      <trkpt lat="47.51541" lon="6.70978">
        <ele>434</ele>
        <time>2015-11-29T10:41:41.000Z</time>
      </trkpt>
      <trkpt lat="47.51537" lon="6.70978">
        <ele>434</ele>
        <time>2015-11-29T10:41:43.000Z</time>
      </trkpt>
      <trkpt lat="47.51536" lon="6.70978">
        <ele>434</ele>
        <time>2015-11-29T10:41:44.000Z</time>
      </trkpt>
      <trkpt lat="47.51532" lon="6.70979">
        <ele>435</ele>
        <time>2015-11-29T10:41:46.000Z</time>
      </trkpt>
      <trkpt lat="47.5153" lon="6.70978">
        <ele>435</ele>
        <time>2015-11-29T10:41:47.000Z</time>
      </trkpt>
      <trkpt lat="47.51526" lon="6.70978">
        <ele>435</ele>
        <time>2015-11-29T10:41:49.000Z</time>
      </trkpt>
      <trkpt lat="47.51525" lon="6.70978">
        <ele>435</ele>
        <time>2015-11-29T10:41:50.000Z</time>
      </trkpt>
      <trkpt lat="47.51522" lon="6.70976">
        <ele>435</ele>
        <time>2015-11-29T10:41:52.000Z</time>
      </trkpt>
      <trkpt lat="47.5152" lon="6.70975">
        <ele>435</ele>
        <time>2015-11-29T10:41:53.000Z</time>
      </trkpt>
      <trkpt lat="47.51517" lon="6.70973">
        <ele>435</ele>
        <time>2015-11-29T10:41:55.000Z</time>
      </trkpt>
      <trkpt lat="47.51515" lon="6.70972">
        <ele>435</ele>
        <time>2015-11-29T10:41:56.000Z</time>
      </trkpt>
      <trkpt lat="47.51512" lon="6.70971">
        <ele>436</ele>
        <time>2015-11-29T10:41:58.000Z</time>
      </trkpt>
      <trkpt lat="47.5151" lon="6.70971">
        <ele>436</ele>
        <time>2015-11-29T10:41:59.000Z</time>
      </trkpt>
      <trkpt lat="47.51507" lon="6.7097">
        <ele>436</ele>
        <time>2015-11-29T10:42:01.000Z</time>
      </trkpt>
      <trkpt lat="47.51505" lon="6.70969">
        <ele>436</ele>
        <time>2015-11-29T10:42:02.000Z</time>
      </trkpt>
      <trkpt lat="47.515" lon="6.7097">
        <ele>436</ele>
        <time>2015-11-29T10:42:05.000Z</time>
      </trkpt>
      <trkpt lat="47.51499" lon="6.70971">
        <ele>443</ele>
        <time>2015-11-29T10:42:06.000Z</time>
      </trkpt>
      <trkpt lat="47.51495" lon="6.70971">
        <ele>443</ele>
        <time>2015-11-29T10:42:09.000Z</time>
      </trkpt>
      <trkpt lat="47.51493" lon="6.70972">
        <ele>443</ele>
        <time>2015-11-29T10:42:10.000Z</time>
      </trkpt>
      <trkpt lat="47.5149" lon="6.70971">
        <ele>443</ele>
        <time>2015-11-29T10:42:12.000Z</time>
      </trkpt>
      <trkpt lat="47.51488" lon="6.70971">
        <ele>443</ele>
        <time>2015-11-29T10:42:13.000Z</time>
      </trkpt>
      <trkpt lat="47.51486" lon="6.70971">
        <ele>443</ele>
        <time>2015-11-29T10:42:14.000Z</time>
      </trkpt>
      <trkpt lat="47.51483" lon="6.70971">
        <ele>443</ele>
        <time>2015-11-29T10:42:15.000Z</time>
      </trkpt>
      <trkpt lat="47.51481" lon="6.70971">
        <ele>444</ele>
        <time>2015-11-29T10:42:16.000Z</time>
      </trkpt>
      <trkpt lat="47.51478" lon="6.70971">
        <ele>444</ele>
        <time>2015-11-29T10:42:17.000Z</time>
      </trkpt>
      <trkpt lat="47.51476" lon="6.70971">
        <ele>444</ele>
        <time>2015-11-29T10:42:18.000Z</time>
      </trkpt>
      <trkpt lat="47.51473" lon="6.70971">
        <ele>444</ele>
        <time>2015-11-29T10:42:19.000Z</time>
      </trkpt>
      <trkpt lat="47.5147" lon="6.70972">
        <ele>444</ele>
        <time>2015-11-29T10:42:20.000Z</time>
      </trkpt>
      <trkpt lat="47.51467" lon="6.70973">
        <ele>444</ele>
        <time>2015-11-29T10:42:21.000Z</time>
      </trkpt>
      <trkpt lat="47.51464" lon="6.70973">
        <ele>445</ele>
        <time>2015-11-29T10:42:22.000Z</time>
      </trkpt>
      <trkpt lat="47.51462" lon="6.70972">
        <ele>445</ele>
        <time>2015-11-29T10:42:23.000Z</time>
      </trkpt>
      <trkpt lat="47.5146" lon="6.70972">
        <ele>445</ele>
        <time>2015-11-29T10:42:24.000Z</time>
      </trkpt>
      <trkpt lat="47.51457" lon="6.70971">
        <ele>445</ele>
        <time>2015-11-29T10:42:25.000Z</time>
      </trkpt>
      <trkpt lat="47.51455" lon="6.7097">
        <ele>445</ele>
        <time>2015-11-29T10:42:26.000Z</time>
      </trkpt>
      <trkpt lat="47.51452" lon="6.7097">
        <ele>445</ele>
        <time>2015-11-29T10:42:27.000Z</time>
      </trkpt>
      <trkpt lat="47.5145" lon="6.7097">
        <ele>446</ele>
        <time>2015-11-29T10:42:28.000Z</time>
      </trkpt>
      <trkpt lat="47.51447" lon="6.7097">
        <ele>446</ele>
        <time>2015-11-29T10:42:29.000Z</time>
      </trkpt>
      <trkpt lat="47.51444" lon="6.7097">
        <ele>446</ele>
        <time>2015-11-29T10:42:30.000Z</time>
      </trkpt>
      <trkpt lat="47.51441" lon="6.7097">
        <ele>446</ele>
        <time>2015-11-29T10:42:31.000Z</time>
      </trkpt>
      <trkpt lat="47.51439" lon="6.70969">
        <ele>446</ele>
        <time>2015-11-29T10:42:32.000Z</time>
      </trkpt>
      <trkpt lat="47.51436" lon="6.70969">
        <ele>446</ele>
        <time>2015-11-29T10:42:33.000Z</time>
      </trkpt>
      <trkpt lat="47.51434" lon="6.70968">
        <ele>447</ele>
        <time>2015-11-29T10:42:34.000Z</time>
      </trkpt>
      <trkpt lat="47.51432" lon="6.70967">
        <ele>447</ele>
        <time>2015-11-29T10:42:35.000Z</time>
      </trkpt>
      <trkpt lat="47.51428" lon="6.70965">
        <ele>447</ele>
        <time>2015-11-29T10:42:37.000Z</time>
      </trkpt>
      <trkpt lat="47.51426" lon="6.70965">
        <ele>447</ele>
        <time>2015-11-29T10:42:38.000Z</time>
      </trkpt>
      <trkpt lat="47.51422" lon="6.70963">
        <ele>447</ele>
        <time>2015-11-29T10:42:40.000Z</time>
      </trkpt>
      <trkpt lat="47.5142" lon="6.70962">
        <ele>447</ele>
        <time>2015-11-29T10:42:41.000Z</time>
      </trkpt>
      <trkpt lat="47.51418" lon="6.70961">
        <ele>447</ele>
        <time>2015-11-29T10:42:42.000Z</time>
      </trkpt>
      <trkpt lat="47.51416" lon="6.7096">
        <ele>453</ele>
        <time>2015-11-29T10:42:43.000Z</time>
      </trkpt>
      <trkpt lat="47.51414" lon="6.70958">
        <ele>453</ele>
        <time>2015-11-29T10:42:44.000Z</time>
      </trkpt>
      <trkpt lat="47.51411" lon="6.70956">
        <ele>453</ele>
        <time>2015-11-29T10:42:45.000Z</time>
      </trkpt>
      <trkpt lat="47.51409" lon="6.70954">
        <ele>453</ele>
        <time>2015-11-29T10:42:46.000Z</time>
      </trkpt>
      <trkpt lat="47.51407" lon="6.70953">
        <ele>453</ele>
        <time>2015-11-29T10:42:47.000Z</time>
      </trkpt>
      <trkpt lat="47.51403" lon="6.7095">
        <ele>453</ele>
        <time>2015-11-29T10:42:49.000Z</time>
      </trkpt>
      <trkpt lat="47.51401" lon="6.70949">
        <ele>453</ele>
        <time>2015-11-29T10:42:50.000Z</time>
      </trkpt>
      <trkpt lat="47.51398" lon="6.70947">
        <ele>453</ele>
        <time>2015-11-29T10:42:52.000Z</time>
      </trkpt>
      <trkpt lat="47.51396" lon="6.70946">
        <ele>453</ele>
        <time>2015-11-29T10:42:53.000Z</time>
      </trkpt>
      <trkpt lat="47.51392" lon="6.70944">
        <ele>453</ele>
        <time>2015-11-29T10:42:55.000Z</time>
      </trkpt>
      <trkpt lat="47.5139" lon="6.70943">
        <ele>453</ele>
        <time>2015-11-29T10:42:56.000Z</time>
      </trkpt>
      <trkpt lat="47.51388" lon="6.70941">
        <ele>453</ele>
        <time>2015-11-29T10:42:57.000Z</time>
      </trkpt>
      <trkpt lat="47.51386" lon="6.7094">
        <ele>454</ele>
        <time>2015-11-29T10:42:58.000Z</time>
      </trkpt>
      <trkpt lat="47.51382" lon="6.70938">
        <ele>454</ele>
        <time>2015-11-29T10:43:02.000Z</time>
      </trkpt>
      <trkpt lat="47.51381" lon="6.70937">
        <ele>454</ele>
        <time>2015-11-29T10:43:03.000Z</time>
      </trkpt>
      <trkpt lat="47.51377" lon="6.70934">
        <ele>454</ele>
        <time>2015-11-29T10:43:05.000Z</time>
      </trkpt>
      <trkpt lat="47.51374" lon="6.70934">
        <ele>454</ele>
        <time>2015-11-29T10:43:06.000Z</time>
      </trkpt>
      <trkpt lat="47.51371" lon="6.70933">
        <ele>454</ele>
        <time>2015-11-29T10:43:08.000Z</time>
      </trkpt>
      <trkpt lat="47.51369" lon="6.70933">
        <ele>454</ele>
        <time>2015-11-29T10:43:09.000Z</time>
      </trkpt>
      <trkpt lat="47.51366" lon="6.70931">
        <ele>455</ele>
        <time>2015-11-29T10:43:11.000Z</time>
      </trkpt>
      <trkpt lat="47.51365" lon="6.7093">
        <ele>455</ele>
        <time>2015-11-29T10:43:12.000Z</time>
      </trkpt>
      <trkpt lat="47.51361" lon="6.70929">
        <ele>455</ele>
        <time>2015-11-29T10:43:14.000Z</time>
      </trkpt>
      <trkpt lat="47.51359" lon="6.70929">
        <ele>455</ele>
        <time>2015-11-29T10:43:15.000Z</time>
      </trkpt>
      <trkpt lat="47.51355" lon="6.70928">
        <ele>455</ele>
        <time>2015-11-29T10:43:17.000Z</time>
      </trkpt>
      <trkpt lat="47.51353" lon="6.70927">
        <ele>455</ele>
        <time>2015-11-29T10:43:18.000Z</time>
      </trkpt>
      <trkpt lat="47.5135" lon="6.70926">
        <ele>456</ele>
        <time>2015-11-29T10:43:20.000Z</time>
      </trkpt>
      <trkpt lat="47.51348" lon="6.70926">
        <ele>456</ele>
        <time>2015-11-29T10:43:21.000Z</time>
      </trkpt>
      <trkpt lat="47.51345" lon="6.70924">
        <ele>456</ele>
        <time>2015-11-29T10:43:23.000Z</time>
      </trkpt>
      <trkpt lat="47.51343" lon="6.70923">
        <ele>456</ele>
        <time>2015-11-29T10:43:24.000Z</time>
      </trkpt>
      <trkpt lat="47.51339" lon="6.70923">
        <ele>456</ele>
        <time>2015-11-29T10:43:26.000Z</time>
      </trkpt>
      <trkpt lat="47.51337" lon="6.70923">
        <ele>456</ele>
        <time>2015-11-29T10:43:27.000Z</time>
      </trkpt>
      <trkpt lat="47.51333" lon="6.70924">
        <ele>457</ele>
        <time>2015-11-29T10:43:29.000Z</time>
      </trkpt>
      <trkpt lat="47.51331" lon="6.70924">
        <ele>457</ele>
        <time>2015-11-29T10:43:30.000Z</time>
      </trkpt>
      <trkpt lat="47.51328" lon="6.70924">
        <ele>456</ele>
        <time>2015-11-29T10:43:31.000Z</time>
      </trkpt>
      <trkpt lat="47.51326" lon="6.70924">
        <ele>456</ele>
        <time>2015-11-29T10:43:32.000Z</time>
      </trkpt>
      <trkpt lat="47.51323" lon="6.70924">
        <ele>456</ele>
        <time>2015-11-29T10:43:33.000Z</time>
      </trkpt>
      <trkpt lat="47.51321" lon="6.70923">
        <ele>456</ele>
        <time>2015-11-29T10:43:34.000Z</time>
      </trkpt>
      <trkpt lat="47.51318" lon="6.70923">
        <ele>456</ele>
        <time>2015-11-29T10:43:35.000Z</time>
      </trkpt>
      <trkpt lat="47.51316" lon="6.70922">
        <ele>456</ele>
        <time>2015-11-29T10:43:36.000Z</time>
      </trkpt>
      <trkpt lat="47.51312" lon="6.70922">
        <ele>456</ele>
        <time>2015-11-29T10:43:38.000Z</time>
      </trkpt>
      <trkpt lat="47.5131" lon="6.70922">
        <ele>456</ele>
        <time>2015-11-29T10:43:39.000Z</time>
      </trkpt>
      <trkpt lat="47.51305" lon="6.7092">
        <ele>455</ele>
        <time>2015-11-29T10:43:42.000Z</time>
      </trkpt>
      <trkpt lat="47.51304" lon="6.70919">
        <ele>455</ele>
        <time>2015-11-29T10:43:43.000Z</time>
      </trkpt>
      <trkpt lat="47.513" lon="6.70919">
        <ele>455</ele>
        <time>2015-11-29T10:45:55.000Z</time>
      </trkpt>
      <trkpt lat="47.513" lon="6.70919">
        <ele>455</ele>
        <time>2015-11-29T10:45:56.000Z</time>
      </trkpt>
      <trkpt lat="47.51296" lon="6.70919">
        <ele>455</ele>
        <time>2015-11-29T10:46:00.000Z</time>
      </trkpt>
      <trkpt lat="47.51295" lon="6.7092">
        <ele>455</ele>
        <time>2015-11-29T10:46:01.000Z</time>
      </trkpt>
      <trkpt lat="47.51292" lon="6.7092">
        <ele>455</ele>
        <time>2015-11-29T10:46:03.000Z</time>
      </trkpt>
      <trkpt lat="47.5129" lon="6.70919">
        <ele>455</ele>
        <time>2015-11-29T10:46:04.000Z</time>
      </trkpt>
      <trkpt lat="47.51286" lon="6.70918">
        <ele>454</ele>
        <time>2015-11-29T10:46:06.000Z</time>
      </trkpt>
      <trkpt lat="47.51284" lon="6.70917">
        <ele>454</ele>
        <time>2015-11-29T10:46:07.000Z</time>
      </trkpt>
      <trkpt lat="47.5128" lon="6.70917">
        <ele>454</ele>
        <time>2015-11-29T10:46:10.000Z</time>
      </trkpt>
      <trkpt lat="47.51278" lon="6.70918">
        <ele>454</ele>
        <time>2015-11-29T10:46:11.000Z</time>
      </trkpt>
      <trkpt lat="47.51275" lon="6.70918">
        <ele>454</ele>
        <time>2015-11-29T10:46:13.000Z</time>
      </trkpt>
      <trkpt lat="47.51273" lon="6.70919">
        <ele>454</ele>
        <time>2015-11-29T10:46:14.000Z</time>
      </trkpt>
      <trkpt lat="47.51271" lon="6.70924">
        <ele>454</ele>
        <time>2015-11-29T10:46:19.000Z</time>
      </trkpt>
      <trkpt lat="47.51271" lon="6.70926">
        <ele>454</ele>
        <time>2015-11-29T10:46:20.000Z</time>
      </trkpt>
      <trkpt lat="47.51271" lon="6.70932">
        <ele>454</ele>
        <time>2015-11-29T10:46:23.000Z</time>
      </trkpt>
      <trkpt lat="47.51272" lon="6.70934">
        <ele>454</ele>
        <time>2015-11-29T10:46:24.000Z</time>
      </trkpt>
      <trkpt lat="47.51272" lon="6.70938">
        <ele>454</ele>
        <time>2015-11-29T10:46:26.000Z</time>
      </trkpt>
      <trkpt lat="47.51272" lon="6.70941">
        <ele>454</ele>
        <time>2015-11-29T10:46:27.000Z</time>
      </trkpt>
      <trkpt lat="47.51272" lon="6.70944">
        <ele>454</ele>
        <time>2015-11-29T10:46:28.000Z</time>
      </trkpt>
      <trkpt lat="47.51272" lon="6.70948">
        <ele>454</ele>
        <time>2015-11-29T10:46:29.000Z</time>
      </trkpt>
      <trkpt lat="47.51271" lon="6.70952">
        <ele>454</ele>
        <time>2015-11-29T10:46:30.000Z</time>
      </trkpt>
      <trkpt lat="47.51271" lon="6.70956">
        <ele>454</ele>
        <time>2015-11-29T10:46:31.000Z</time>
      </trkpt>
      <trkpt lat="47.5127" lon="6.7096">
        <ele>454</ele>
        <time>2015-11-29T10:46:32.000Z</time>
      </trkpt>
      <trkpt lat="47.5127" lon="6.70963">
        <ele>455</ele>
        <time>2015-11-29T10:46:33.000Z</time>
      </trkpt>
      <trkpt lat="47.51269" lon="6.70967">
        <ele>455</ele>
        <time>2015-11-29T10:46:34.000Z</time>
      </trkpt>
      <trkpt lat="47.51268" lon="6.70971">
        <ele>455</ele>
        <time>2015-11-29T10:46:35.000Z</time>
      </trkpt>
      <trkpt lat="47.51268" lon="6.70975">
        <ele>455</ele>
        <time>2015-11-29T10:46:36.000Z</time>
      </trkpt>
      <trkpt lat="47.51268" lon="6.70979">
        <ele>454</ele>
        <time>2015-11-29T10:46:37.000Z</time>
      </trkpt>
      <trkpt lat="47.51268" lon="6.70983">
        <ele>454</ele>
        <time>2015-11-29T10:46:38.000Z</time>
      </trkpt>
      <trkpt lat="47.51268" lon="6.70987">
        <ele>454</ele>
        <time>2015-11-29T10:46:39.000Z</time>
      </trkpt>
      <trkpt lat="47.51268" lon="6.70992">
        <ele>454</ele>
        <time>2015-11-29T10:46:40.000Z</time>
      </trkpt>
      <trkpt lat="47.51268" lon="6.70996">
        <ele>454</ele>
        <time>2015-11-29T10:46:41.000Z</time>
      </trkpt>
      <trkpt lat="47.51268" lon="6.71">
        <ele>455</ele>
        <time>2015-11-29T10:46:42.000Z</time>
      </trkpt>
      <trkpt lat="47.51267" lon="6.71004">
        <ele>455</ele>
        <time>2015-11-29T10:46:43.000Z</time>
      </trkpt>
      <trkpt lat="47.51267" lon="6.71008">
        <ele>456</ele>
        <time>2015-11-29T10:46:44.000Z</time>
      </trkpt>
      <trkpt lat="47.51267" lon="6.71012">
        <ele>456</ele>
        <time>2015-11-29T10:46:45.000Z</time>
      </trkpt>
      <trkpt lat="47.51266" lon="6.71015">
        <ele>456</ele>
        <time>2015-11-29T10:46:46.000Z</time>
      </trkpt>
      <trkpt lat="47.51266" lon="6.71019">
        <ele>456</ele>
        <time>2015-11-29T10:46:47.000Z</time>
      </trkpt>
      <trkpt lat="47.51265" lon="6.71022">
        <ele>456</ele>
        <time>2015-11-29T10:46:48.000Z</time>
      </trkpt>
      <trkpt lat="47.51265" lon="6.71027">
        <ele>456</ele>
        <time>2015-11-29T10:46:49.000Z</time>
      </trkpt>
      <trkpt lat="47.51264" lon="6.71031">
        <ele>456</ele>
        <time>2015-11-29T10:46:50.000Z</time>
      </trkpt>
      <trkpt lat="47.51264" lon="6.71035">
        <ele>457</ele>
        <time>2015-11-29T10:46:51.000Z</time>
      </trkpt>
      <trkpt lat="47.51263" lon="6.71039">
        <ele>457</ele>
        <time>2015-11-29T10:46:52.000Z</time>
      </trkpt>
      <trkpt lat="47.51263" lon="6.71042">
        <ele>457</ele>
        <time>2015-11-29T10:46:53.000Z</time>
      </trkpt>
      <trkpt lat="47.51264" lon="6.71048">
        <ele>457</ele>
        <time>2015-11-29T10:46:55.000Z</time>
      </trkpt>
      <trkpt lat="47.51265" lon="6.71051">
        <ele>457</ele>
        <time>2015-11-29T10:46:56.000Z</time>
      </trkpt>
      <trkpt lat="47.51265" lon="6.71054">
        <ele>457</ele>
        <time>2015-11-29T10:46:57.000Z</time>
      </trkpt>
      <trkpt lat="47.51265" lon="6.71058">
        <ele>457</ele>
        <time>2015-11-29T10:46:58.000Z</time>
      </trkpt>
      <trkpt lat="47.51265" lon="6.71063">
        <ele>457</ele>
        <time>2015-11-29T10:46:59.000Z</time>
      </trkpt>
      <trkpt lat="47.51265" lon="6.71068">
        <ele>457</ele>
        <time>2015-11-29T10:47:00.000Z</time>
      </trkpt>
      <trkpt lat="47.51265" lon="6.71072">
        <ele>457</ele>
        <time>2015-11-29T10:47:01.000Z</time>
      </trkpt>
      <trkpt lat="47.51265" lon="6.71077">
        <ele>457</ele>
        <time>2015-11-29T10:47:02.000Z</time>
      </trkpt>
      <trkpt lat="47.51265" lon="6.71082">
        <ele>457</ele>
        <time>2015-11-29T10:47:03.000Z</time>
      </trkpt>
      <trkpt lat="47.51265" lon="6.71087">
        <ele>457</ele>
        <time>2015-11-29T10:47:04.000Z</time>
      </trkpt>
      <trkpt lat="47.51265" lon="6.71092">
        <ele>457</ele>
        <time>2015-11-29T10:47:05.000Z</time>
      </trkpt>
      <trkpt lat="47.51265" lon="6.71097">
        <ele>457</ele>
        <time>2015-11-29T10:47:06.000Z</time>
      </trkpt>
      <trkpt lat="47.51265" lon="6.71102">
        <ele>457</ele>
        <time>2015-11-29T10:47:07.000Z</time>
      </trkpt>
      <trkpt lat="47.51264" lon="6.71107">
        <ele>457</ele>
        <time>2015-11-29T10:47:08.000Z</time>
      </trkpt>
      <trkpt lat="47.51264" lon="6.71113">
        <ele>457</ele>
        <time>2015-11-29T10:47:09.000Z</time>
      </trkpt>
      <trkpt lat="47.51264" lon="6.71119">
        <ele>457</ele>
        <time>2015-11-29T10:47:10.000Z</time>
      </trkpt>
      <trkpt lat="47.51264" lon="6.71124">
        <ele>457</ele>
        <time>2015-11-29T10:47:11.000Z</time>
      </trkpt>
      <trkpt lat="47.51263" lon="6.7113">
        <ele>457</ele>
        <time>2015-11-29T10:47:12.000Z</time>
      </trkpt>
      <trkpt lat="47.51264" lon="6.71136">
        <ele>457</ele>
        <time>2015-11-29T10:47:13.000Z</time>
      </trkpt>
      <trkpt lat="47.51264" lon="6.71146">
        <ele>457</ele>
        <time>2015-11-29T10:47:15.000Z</time>
      </trkpt>
      <trkpt lat="47.51264" lon="6.71151">
        <ele>457</ele>
        <time>2015-11-29T10:47:16.000Z</time>
      </trkpt>
      <trkpt lat="47.51264" lon="6.71156">
        <ele>457</ele>
        <time>2015-11-29T10:47:17.000Z</time>
      </trkpt>
      <trkpt lat="47.51264" lon="6.71161">
        <ele>456</ele>
        <time>2015-11-29T10:47:18.000Z</time>
      </trkpt>
      <trkpt lat="47.51264" lon="6.71166">
        <ele>456</ele>
        <time>2015-11-29T10:47:19.000Z</time>
      </trkpt>
      <trkpt lat="47.51263" lon="6.71171">
        <ele>456</ele>
        <time>2015-11-29T10:47:20.000Z</time>
      </trkpt>
      <trkpt lat="47.51263" lon="6.71176">
        <ele>456</ele>
        <time>2015-11-29T10:47:21.000Z</time>
      </trkpt>
      <trkpt lat="47.51262" lon="6.7118">
        <ele>457</ele>
        <time>2015-11-29T10:47:22.000Z</time>
      </trkpt>
      <trkpt lat="47.51262" lon="6.71184">
        <ele>457</ele>
        <time>2015-11-29T10:47:23.000Z</time>
      </trkpt>
      <trkpt lat="47.51262" lon="6.7119">
        <ele>457</ele>
        <time>2015-11-29T10:47:25.000Z</time>
      </trkpt>
      <trkpt lat="47.51261" lon="6.71196">
        <ele>457</ele>
        <time>2015-11-29T10:47:26.000Z</time>
      </trkpt>
      <trkpt lat="47.51259" lon="6.71203">
        <ele>457</ele>
        <time>2015-11-29T10:47:27.000Z</time>
      </trkpt>
      <trkpt lat="47.51257" lon="6.71211">
        <ele>457</ele>
        <time>2015-11-29T10:47:28.000Z</time>
      </trkpt>
      <trkpt lat="47.51256" lon="6.71219">
        <ele>457</ele>
        <time>2015-11-29T10:47:29.000Z</time>
      </trkpt>
      <trkpt lat="47.51255" lon="6.71226">
        <ele>457</ele>
        <time>2015-11-29T10:47:30.000Z</time>
      </trkpt>
      <trkpt lat="47.51254" lon="6.71231">
        <ele>457</ele>
        <time>2015-11-29T10:47:31.000Z</time>
      </trkpt>
      <trkpt lat="47.51255" lon="6.71237">
        <ele>457</ele>
        <time>2015-11-29T10:47:32.000Z</time>
      </trkpt>
      <trkpt lat="47.51255" lon="6.71242">
        <ele>457</ele>
        <time>2015-11-29T10:47:33.000Z</time>
      </trkpt>
      <trkpt lat="47.51256" lon="6.71248">
        <ele>457</ele>
        <time>2015-11-29T10:47:34.000Z</time>
      </trkpt>
      <trkpt lat="47.51258" lon="6.71253">
        <ele>457</ele>
        <time>2015-11-29T10:47:35.000Z</time>
      </trkpt>
      <trkpt lat="47.51259" lon="6.71258">
        <ele>457</ele>
        <time>2015-11-29T10:47:36.000Z</time>
      </trkpt>
      <trkpt lat="47.51259" lon="6.71264">
        <ele>457</ele>
        <time>2015-11-29T10:47:37.000Z</time>
      </trkpt>
      <trkpt lat="47.51259" lon="6.7127">
        <ele>457</ele>
        <time>2015-11-29T10:47:38.000Z</time>
      </trkpt>
      <trkpt lat="47.51258" lon="6.71275">
        <ele>457</ele>
        <time>2015-11-29T10:47:39.000Z</time>
      </trkpt>
      <trkpt lat="47.51258" lon="6.71281">
        <ele>457</ele>
        <time>2015-11-29T10:47:40.000Z</time>
      </trkpt>
      <trkpt lat="47.51257" lon="6.71287">
        <ele>457</ele>
        <time>2015-11-29T10:47:41.000Z</time>
      </trkpt>
      <trkpt lat="47.51257" lon="6.71293">
        <ele>457</ele>
        <time>2015-11-29T10:47:42.000Z</time>
      </trkpt>
      <trkpt lat="47.51257" lon="6.71299">
        <ele>457</ele>
        <time>2015-11-29T10:47:43.000Z</time>
      </trkpt>
      <trkpt lat="47.51257" lon="6.71305">
        <ele>457</ele>
        <time>2015-11-29T10:47:44.000Z</time>
      </trkpt>
      <trkpt lat="47.51257" lon="6.71311">
        <ele>457</ele>
        <time>2015-11-29T10:47:45.000Z</time>
      </trkpt>
      <trkpt lat="47.51256" lon="6.71317">
        <ele>457</ele>
        <time>2015-11-29T10:47:46.000Z</time>
      </trkpt>
      <trkpt lat="47.51256" lon="6.71324">
        <ele>456</ele>
        <time>2015-11-29T10:47:47.000Z</time>
      </trkpt>
      <trkpt lat="47.51256" lon="6.71329">
        <ele>456</ele>
        <time>2015-11-29T10:47:48.000Z</time>
      </trkpt>
      <trkpt lat="47.51255" lon="6.71335">
        <ele>456</ele>
        <time>2015-11-29T10:47:49.000Z</time>
      </trkpt>
      <trkpt lat="47.51256" lon="6.71341">
        <ele>456</ele>
        <time>2015-11-29T10:47:50.000Z</time>
      </trkpt>
      <trkpt lat="47.51256" lon="6.71346">
        <ele>456</ele>
        <time>2015-11-29T10:47:51.000Z</time>
      </trkpt>
      <trkpt lat="47.51256" lon="6.71353">
        <ele>456</ele>
        <time>2015-11-29T10:47:52.000Z</time>
      </trkpt>
      <trkpt lat="47.51256" lon="6.7136">
        <ele>455</ele>
        <time>2015-11-29T10:47:53.000Z</time>
      </trkpt>
      <trkpt lat="47.51256" lon="6.71368">
        <ele>455</ele>
        <time>2015-11-29T10:47:54.000Z</time>
      </trkpt>
      <trkpt lat="47.51256" lon="6.71375">
        <ele>455</ele>
        <time>2015-11-29T10:47:55.000Z</time>
      </trkpt>
      <trkpt lat="47.51256" lon="6.71382">
        <ele>455</ele>
        <time>2015-11-29T10:47:56.000Z</time>
      </trkpt>
      <trkpt lat="47.51257" lon="6.71389">
        <ele>455</ele>
        <time>2015-11-29T10:47:57.000Z</time>
      </trkpt>
      <trkpt lat="47.51257" lon="6.71396">
        <ele>455</ele>
        <time>2015-11-29T10:47:58.000Z</time>
      </trkpt>
      <trkpt lat="47.51257" lon="6.71402">
        <ele>455</ele>
        <time>2015-11-29T10:47:59.000Z</time>
      </trkpt>
      <trkpt lat="47.51257" lon="6.71408">
        <ele>455</ele>
        <time>2015-11-29T10:48:00.000Z</time>
      </trkpt>
      <trkpt lat="47.51256" lon="6.71413">
        <ele>455</ele>
        <time>2015-11-29T10:48:01.000Z</time>
      </trkpt>
      <trkpt lat="47.51255" lon="6.71418">
        <ele>455</ele>
        <time>2015-11-29T10:48:02.000Z</time>
      </trkpt>
      <trkpt lat="47.51254" lon="6.71424">
        <ele>455</ele>
        <time>2015-11-29T10:48:03.000Z</time>
      </trkpt>
      <trkpt lat="47.51253" lon="6.71429">
        <ele>455</ele>
        <time>2015-11-29T10:48:04.000Z</time>
      </trkpt>
      <trkpt lat="47.51251" lon="6.71434">
        <ele>455</ele>
        <time>2015-11-29T10:48:05.000Z</time>
      </trkpt>
      <trkpt lat="47.5125" lon="6.7144">
        <ele>453</ele>
        <time>2015-11-29T10:48:06.000Z</time>
      </trkpt>
      <trkpt lat="47.51248" lon="6.71445">
        <ele>453</ele>
        <time>2015-11-29T10:48:07.000Z</time>
      </trkpt>
      <trkpt lat="47.51247" lon="6.7145">
        <ele>453</ele>
        <time>2015-11-29T10:48:08.000Z</time>
      </trkpt>
      <trkpt lat="47.51245" lon="6.71456">
        <ele>453</ele>
        <time>2015-11-29T10:48:09.000Z</time>
      </trkpt>
      <trkpt lat="47.51244" lon="6.71461">
        <ele>453</ele>
        <time>2015-11-29T10:48:10.000Z</time>
      </trkpt>
      <trkpt lat="47.51243" lon="6.71466">
        <ele>453</ele>
        <time>2015-11-29T10:48:11.000Z</time>
      </trkpt>
      <trkpt lat="47.51242" lon="6.71471">
        <ele>453</ele>
        <time>2015-11-29T10:48:12.000Z</time>
      </trkpt>
      <trkpt lat="47.51241" lon="6.71477">
        <ele>454</ele>
        <time>2015-11-29T10:48:13.000Z</time>
      </trkpt>
      <trkpt lat="47.5124" lon="6.71482">
        <ele>454</ele>
        <time>2015-11-29T10:48:14.000Z</time>
      </trkpt>
      <trkpt lat="47.51239" lon="6.71488">
        <ele>454</ele>
        <time>2015-11-29T10:48:15.000Z</time>
      </trkpt>
      <trkpt lat="47.51238" lon="6.71494">
        <ele>454</ele>
        <time>2015-11-29T10:48:16.000Z</time>
      </trkpt>
      <trkpt lat="47.51236" lon="6.71499">
        <ele>454</ele>
        <time>2015-11-29T10:48:17.000Z</time>
      </trkpt>
      <trkpt lat="47.51235" lon="6.71504">
        <ele>455</ele>
        <time>2015-11-29T10:48:18.000Z</time>
      </trkpt>
      <trkpt lat="47.51234" lon="6.71509">
        <ele>455</ele>
        <time>2015-11-29T10:48:19.000Z</time>
      </trkpt>
      <trkpt lat="47.51233" lon="6.71514">
        <ele>455</ele>
        <time>2015-11-29T10:48:20.000Z</time>
      </trkpt>
      <trkpt lat="47.51232" lon="6.7152">
        <ele>454</ele>
        <time>2015-11-29T10:48:21.000Z</time>
      </trkpt>
      <trkpt lat="47.51231" lon="6.71525">
        <ele>454</ele>
        <time>2015-11-29T10:48:22.000Z</time>
      </trkpt>
      <trkpt lat="47.5123" lon="6.71531">
        <ele>454</ele>
        <time>2015-11-29T10:48:23.000Z</time>
      </trkpt>
      <trkpt lat="47.5123" lon="6.71536">
        <ele>454</ele>
        <time>2015-11-29T10:48:24.000Z</time>
      </trkpt>
      <trkpt lat="47.51229" lon="6.71542">
        <ele>454</ele>
        <time>2015-11-29T10:48:25.000Z</time>
      </trkpt>
      <trkpt lat="47.51229" lon="6.71546">
        <ele>454</ele>
        <time>2015-11-29T10:48:26.000Z</time>
      </trkpt>
      <trkpt lat="47.51229" lon="6.7155">
        <ele>454</ele>
        <time>2015-11-29T10:48:27.000Z</time>
      </trkpt>
      <trkpt lat="47.51228" lon="6.71555">
        <ele>455</ele>
        <time>2015-11-29T10:48:28.000Z</time>
      </trkpt>
      <trkpt lat="47.51228" lon="6.7156">
        <ele>455</ele>
        <time>2015-11-29T10:48:29.000Z</time>
      </trkpt>
      <trkpt lat="47.51229" lon="6.71566">
        <ele>455</ele>
        <time>2015-11-29T10:48:30.000Z</time>
      </trkpt>
      <trkpt lat="47.51229" lon="6.71571">
        <ele>455</ele>
        <time>2015-11-29T10:48:31.000Z</time>
      </trkpt>
      <trkpt lat="47.51229" lon="6.71576">
        <ele>455</ele>
        <time>2015-11-29T10:48:32.000Z</time>
      </trkpt>
      <trkpt lat="47.51229" lon="6.71581">
        <ele>455</ele>
        <time>2015-11-29T10:48:33.000Z</time>
      </trkpt>
      <trkpt lat="47.51229" lon="6.71586">
        <ele>456</ele>
        <time>2015-11-29T10:48:34.000Z</time>
      </trkpt>
      <trkpt lat="47.51229" lon="6.71591">
        <ele>455</ele>
        <time>2015-11-29T10:48:35.000Z</time>
      </trkpt>
      <trkpt lat="47.51228" lon="6.71596">
        <ele>455</ele>
        <time>2015-11-29T10:48:36.000Z</time>
      </trkpt>
      <trkpt lat="47.51228" lon="6.71601">
        <ele>455</ele>
        <time>2015-11-29T10:48:37.000Z</time>
      </trkpt>
      <trkpt lat="47.51227" lon="6.71606">
        <ele>455</ele>
        <time>2015-11-29T10:48:38.000Z</time>
      </trkpt>
      <trkpt lat="47.51227" lon="6.71611">
        <ele>455</ele>
        <time>2015-11-29T10:48:39.000Z</time>
      </trkpt>
      <trkpt lat="47.51227" lon="6.71616">
        <ele>455</ele>
        <time>2015-11-29T10:48:40.000Z</time>
      </trkpt>
      <trkpt lat="47.51227" lon="6.71622">
        <ele>455</ele>
        <time>2015-11-29T10:48:41.000Z</time>
      </trkpt>
      <trkpt lat="47.51227" lon="6.71628">
        <ele>455</ele>
        <time>2015-11-29T10:48:42.000Z</time>
      </trkpt>
      <trkpt lat="47.51228" lon="6.71634">
        <ele>455</ele>
        <time>2015-11-29T10:48:43.000Z</time>
      </trkpt>
      <trkpt lat="47.51228" lon="6.7164">
        <ele>455</ele>
        <time>2015-11-29T10:48:44.000Z</time>
      </trkpt>
      <trkpt lat="47.51229" lon="6.71645">
        <ele>455</ele>
        <time>2015-11-29T10:48:45.000Z</time>
      </trkpt>
      <trkpt lat="47.51229" lon="6.71651">
        <ele>455</ele>
        <time>2015-11-29T10:48:46.000Z</time>
      </trkpt>
      <trkpt lat="47.51229" lon="6.71657">
        <ele>455</ele>
        <time>2015-11-29T10:48:47.000Z</time>
      </trkpt>
      <trkpt lat="47.51228" lon="6.71662">
        <ele>455</ele>
        <time>2015-11-29T10:48:48.000Z</time>
      </trkpt>
      <trkpt lat="47.51228" lon="6.71668">
        <ele>455</ele>
        <time>2015-11-29T10:48:49.000Z</time>
      </trkpt>
      <trkpt lat="47.51227" lon="6.71673">
        <ele>455</ele>
        <time>2015-11-29T10:48:50.000Z</time>
      </trkpt>
      <trkpt lat="47.51227" lon="6.71678">
        <ele>455</ele>
        <time>2015-11-29T10:48:51.000Z</time>
      </trkpt>
      <trkpt lat="47.51226" lon="6.71683">
        <ele>455</ele>
        <time>2015-11-29T10:48:52.000Z</time>
      </trkpt>
      <trkpt lat="47.51226" lon="6.71689">
        <ele>454</ele>
        <time>2015-11-29T10:48:53.000Z</time>
      </trkpt>
      <trkpt lat="47.51226" lon="6.71695">
        <ele>454</ele>
        <time>2015-11-29T10:48:54.000Z</time>
      </trkpt>
      <trkpt lat="47.51226" lon="6.717">
        <ele>454</ele>
        <time>2015-11-29T10:48:55.000Z</time>
      </trkpt>
      <trkpt lat="47.51226" lon="6.71705">
        <ele>454</ele>
        <time>2015-11-29T10:48:56.000Z</time>
      </trkpt>
      <trkpt lat="47.51226" lon="6.7171">
        <ele>454</ele>
        <time>2015-11-29T10:48:57.000Z</time>
      </trkpt>
      <trkpt lat="47.51226" lon="6.71716">
        <ele>454</ele>
        <time>2015-11-29T10:48:58.000Z</time>
      </trkpt>
      <trkpt lat="47.51227" lon="6.71722">
        <ele>454</ele>
        <time>2015-11-29T10:48:59.000Z</time>
      </trkpt>
      <trkpt lat="47.51227" lon="6.71728">
        <ele>454</ele>
        <time>2015-11-29T10:49:00.000Z</time>
      </trkpt>
      <trkpt lat="47.51227" lon="6.71733">
        <ele>454</ele>
        <time>2015-11-29T10:49:01.000Z</time>
      </trkpt>
      <trkpt lat="47.51228" lon="6.7174">
        <ele>454</ele>
        <time>2015-11-29T10:49:02.000Z</time>
      </trkpt>
      <trkpt lat="47.51228" lon="6.71746">
        <ele>454</ele>
        <time>2015-11-29T10:49:03.000Z</time>
      </trkpt>
      <trkpt lat="47.51229" lon="6.71753">
        <ele>453</ele>
        <time>2015-11-29T10:49:04.000Z</time>
      </trkpt>
      <trkpt lat="47.5123" lon="6.71761">
        <ele>453</ele>
        <time>2015-11-29T10:49:05.000Z</time>
      </trkpt>
      <trkpt lat="47.51231" lon="6.71769">
        <ele>453</ele>
        <time>2015-11-29T10:49:06.000Z</time>
      </trkpt>
      <trkpt lat="47.51232" lon="6.71776">
        <ele>453</ele>
        <time>2015-11-29T10:49:07.000Z</time>
      </trkpt>
      <trkpt lat="47.51232" lon="6.71784">
        <ele>453</ele>
        <time>2015-11-29T10:49:08.000Z</time>
      </trkpt>
      <trkpt lat="47.51233" lon="6.71791">
        <ele>453</ele>
        <time>2015-11-29T10:49:09.000Z</time>
      </trkpt>
      <trkpt lat="47.51234" lon="6.71798">
        <ele>453</ele>
        <time>2015-11-29T10:49:10.000Z</time>
      </trkpt>
      <trkpt lat="47.51234" lon="6.71805">
        <ele>453</ele>
        <time>2015-11-29T10:49:11.000Z</time>
      </trkpt>
      <trkpt lat="47.51235" lon="6.71812">
        <ele>453</ele>
        <time>2015-11-29T10:49:12.000Z</time>
      </trkpt>
      <trkpt lat="47.51235" lon="6.71819">
        <ele>453</ele>
        <time>2015-11-29T10:49:13.000Z</time>
      </trkpt>
      <trkpt lat="47.51235" lon="6.71826">
        <ele>453</ele>
        <time>2015-11-29T10:49:14.000Z</time>
      </trkpt>
      <trkpt lat="47.51235" lon="6.71831">
        <ele>453</ele>
        <time>2015-11-29T10:49:15.000Z</time>
      </trkpt>
      <trkpt lat="47.51235" lon="6.71837">
        <ele>452</ele>
        <time>2015-11-29T10:49:16.000Z</time>
      </trkpt>
      <trkpt lat="47.51236" lon="6.71843">
        <ele>452</ele>
        <time>2015-11-29T10:49:17.000Z</time>
      </trkpt>
      <trkpt lat="47.51236" lon="6.71849">
        <ele>452</ele>
        <time>2015-11-29T10:49:18.000Z</time>
      </trkpt>
      <trkpt lat="47.51236" lon="6.71855">
        <ele>451</ele>
        <time>2015-11-29T10:49:19.000Z</time>
      </trkpt>
      <trkpt lat="47.51236" lon="6.71863">
        <ele>451</ele>
        <time>2015-11-29T10:49:20.000Z</time>
      </trkpt>
      <trkpt lat="47.51237" lon="6.71871">
        <ele>451</ele>
        <time>2015-11-29T10:49:21.000Z</time>
      </trkpt>
      <trkpt lat="47.51237" lon="6.71879">
        <ele>451</ele>
        <time>2015-11-29T10:49:22.000Z</time>
      </trkpt>
      <trkpt lat="47.51239" lon="6.7191">
        <ele>451</ele>
        <time>2015-11-29T10:49:23.000Z</time>
      </trkpt>
      <trkpt lat="47.51241" lon="6.71917">
        <ele>451</ele>
        <time>2015-11-29T10:49:24.000Z</time>
      </trkpt>
      <trkpt lat="47.51241" lon="6.71925">
        <ele>451</ele>
        <time>2015-11-29T10:49:25.000Z</time>
      </trkpt>
      <trkpt lat="47.51242" lon="6.71931">
        <ele>450</ele>
        <time>2015-11-29T10:49:26.000Z</time>
      </trkpt>
      <trkpt lat="47.51243" lon="6.71937">
        <ele>450</ele>
        <time>2015-11-29T10:49:27.000Z</time>
      </trkpt>
      <trkpt lat="47.51243" lon="6.71942">
        <ele>450</ele>
        <time>2015-11-29T10:49:28.000Z</time>
      </trkpt>
      <trkpt lat="47.51243" lon="6.71947">
        <ele>450</ele>
        <time>2015-11-29T10:49:29.000Z</time>
      </trkpt>
      <trkpt lat="47.51244" lon="6.71952">
        <ele>449</ele>
        <time>2015-11-29T10:49:30.000Z</time>
      </trkpt>
      <trkpt lat="47.51244" lon="6.71958">
        <ele>449</ele>
        <time>2015-11-29T10:49:31.000Z</time>
      </trkpt>
      <trkpt lat="47.51245" lon="6.71964">
        <ele>449</ele>
        <time>2015-11-29T10:49:32.000Z</time>
      </trkpt>
      <trkpt lat="47.51245" lon="6.7197">
        <ele>449</ele>
        <time>2015-11-29T10:49:33.000Z</time>
      </trkpt>
      <trkpt lat="47.51246" lon="6.71978">
        <ele>450</ele>
        <time>2015-11-29T10:49:34.000Z</time>
      </trkpt>
      <trkpt lat="47.51246" lon="6.71985">
        <ele>450</ele>
        <time>2015-11-29T10:49:35.000Z</time>
      </trkpt>
      <trkpt lat="47.51247" lon="6.71993">
        <ele>450</ele>
        <time>2015-11-29T10:49:36.000Z</time>
      </trkpt>
      <trkpt lat="47.51247" lon="6.72001">
        <ele>451</ele>
        <time>2015-11-29T10:49:37.000Z</time>
      </trkpt>
      <trkpt lat="47.51248" lon="6.72009">
        <ele>450</ele>
        <time>2015-11-29T10:49:38.000Z</time>
      </trkpt>
      <trkpt lat="47.51249" lon="6.72015">
        <ele>449</ele>
        <time>2015-11-29T10:49:39.000Z</time>
      </trkpt>
      <trkpt lat="47.51249" lon="6.72022">
        <ele>449</ele>
        <time>2015-11-29T10:49:40.000Z</time>
      </trkpt>
      <trkpt lat="47.5125" lon="6.72028">
        <ele>449</ele>
        <time>2015-11-29T10:49:41.000Z</time>
      </trkpt>
      <trkpt lat="47.51251" lon="6.72033">
        <ele>449</ele>
        <time>2015-11-29T10:49:42.000Z</time>
      </trkpt>
      <trkpt lat="47.51251" lon="6.72039">
        <ele>449</ele>
        <time>2015-11-29T10:49:43.000Z</time>
      </trkpt>
      <trkpt lat="47.51251" lon="6.72046">
        <ele>449</ele>
        <time>2015-11-29T10:49:44.000Z</time>
      </trkpt>
      <trkpt lat="47.51251" lon="6.72053">
        <ele>449</ele>
        <time>2015-11-29T10:49:45.000Z</time>
      </trkpt>
      <trkpt lat="47.51251" lon="6.7206">
        <ele>449</ele>
        <time>2015-11-29T10:49:46.000Z</time>
      </trkpt>
      <trkpt lat="47.51252" lon="6.72067">
        <ele>449</ele>
        <time>2015-11-29T10:49:47.000Z</time>
      </trkpt>
      <trkpt lat="47.51253" lon="6.72073">
        <ele>449</ele>
        <time>2015-11-29T10:49:48.000Z</time>
      </trkpt>
      <trkpt lat="47.51254" lon="6.7208">
        <ele>450</ele>
        <time>2015-11-29T10:49:49.000Z</time>
      </trkpt>
      <trkpt lat="47.51254" lon="6.72087">
        <ele>449</ele>
        <time>2015-11-29T10:49:50.000Z</time>
      </trkpt>
      <trkpt lat="47.51255" lon="6.72094">
        <ele>448</ele>
        <time>2015-11-29T10:49:51.000Z</time>
      </trkpt>
      <trkpt lat="47.51256" lon="6.721">
        <ele>447</ele>
        <time>2015-11-29T10:49:52.000Z</time>
      </trkpt>
      <trkpt lat="47.51256" lon="6.72108">
        <ele>446</ele>
        <time>2015-11-29T10:49:53.000Z</time>
      </trkpt>
      <trkpt lat="47.51254" lon="6.7214">
        <ele>445</ele>
        <time>2015-11-29T10:49:54.000Z</time>
      </trkpt>
      <trkpt lat="47.51254" lon="6.72146">
        <ele>445</ele>
        <time>2015-11-29T10:49:55.000Z</time>
      </trkpt>
      <trkpt lat="47.51254" lon="6.72151">
        <ele>445</ele>
        <time>2015-11-29T10:49:56.000Z</time>
      </trkpt>
      <trkpt lat="47.51254" lon="6.72155">
        <ele>445</ele>
        <time>2015-11-29T10:49:57.000Z</time>
      </trkpt>
      <trkpt lat="47.51255" lon="6.72159">
        <ele>445</ele>
        <time>2015-11-29T10:49:58.000Z</time>
      </trkpt>
      <trkpt lat="47.51254" lon="6.72163">
        <ele>445</ele>
        <time>2015-11-29T10:49:59.000Z</time>
      </trkpt>
      <trkpt lat="47.51254" lon="6.72166">
        <ele>445</ele>
        <time>2015-11-29T10:50:00.000Z</time>
      </trkpt>
      <trkpt lat="47.51254" lon="6.72171">
        <ele>444</ele>
        <time>2015-11-29T10:50:01.000Z</time>
      </trkpt>
      <trkpt lat="47.51253" lon="6.72175">
        <ele>444</ele>
        <time>2015-11-29T10:50:02.000Z</time>
      </trkpt>
      <trkpt lat="47.51252" lon="6.7218">
        <ele>443</ele>
        <time>2015-11-29T10:50:03.000Z</time>
      </trkpt>
      <trkpt lat="47.51251" lon="6.72187">
        <ele>442</ele>
        <time>2015-11-29T10:50:04.000Z</time>
      </trkpt>
      <trkpt lat="47.5125" lon="6.72194">
        <ele>443</ele>
        <time>2015-11-29T10:50:05.000Z</time>
      </trkpt>
      <trkpt lat="47.51249" lon="6.72201">
        <ele>443</ele>
        <time>2015-11-29T10:50:06.000Z</time>
      </trkpt>
      <trkpt lat="47.51247" lon="6.72209">
        <ele>442</ele>
        <time>2015-11-29T10:50:07.000Z</time>
      </trkpt>
      <trkpt lat="47.51245" lon="6.72218">
        <ele>442</ele>
        <time>2015-11-29T10:50:08.000Z</time>
      </trkpt>
      <trkpt lat="47.51244" lon="6.72227">
        <ele>442</ele>
        <time>2015-11-29T10:50:09.000Z</time>
      </trkpt>
      <trkpt lat="47.51242" lon="6.72236">
        <ele>442</ele>
        <time>2015-11-29T10:50:10.000Z</time>
      </trkpt>
      <trkpt lat="47.51241" lon="6.72245">
        <ele>442</ele>
        <time>2015-11-29T10:50:11.000Z</time>
      </trkpt>
      <trkpt lat="47.5124" lon="6.72253">
        <ele>442</ele>
        <time>2015-11-29T10:50:12.000Z</time>
      </trkpt>
      <trkpt lat="47.51239" lon="6.72261">
        <ele>442</ele>
        <time>2015-11-29T10:50:13.000Z</time>
      </trkpt>
      <trkpt lat="47.51239" lon="6.72269">
        <ele>442</ele>
        <time>2015-11-29T10:50:14.000Z</time>
      </trkpt>
      <trkpt lat="47.51238" lon="6.72277">
        <ele>442</ele>
        <time>2015-11-29T10:50:15.000Z</time>
      </trkpt>
      <trkpt lat="47.51237" lon="6.72285">
        <ele>442</ele>
        <time>2015-11-29T10:50:16.000Z</time>
      </trkpt>
      <trkpt lat="47.51237" lon="6.72292">
        <ele>442</ele>
        <time>2015-11-29T10:50:17.000Z</time>
      </trkpt>
      <trkpt lat="47.51237" lon="6.72297">
        <ele>442</ele>
        <time>2015-11-29T10:50:18.000Z</time>
      </trkpt>
      <trkpt lat="47.51237" lon="6.72301">
        <ele>442</ele>
        <time>2015-11-29T10:50:19.000Z</time>
      </trkpt>
      <trkpt lat="47.51237" lon="6.72305">
        <ele>442</ele>
        <time>2015-11-29T10:50:20.000Z</time>
      </trkpt>
      <trkpt lat="47.51236" lon="6.72309">
        <ele>443</ele>
        <time>2015-11-29T10:50:21.000Z</time>
      </trkpt>
      <trkpt lat="47.51236" lon="6.72313">
        <ele>443</ele>
        <time>2015-11-29T10:50:22.000Z</time>
      </trkpt>
      <trkpt lat="47.51236" lon="6.72317">
        <ele>443</ele>
        <time>2015-11-29T10:50:23.000Z</time>
      </trkpt>
      <trkpt lat="47.51235" lon="6.72322">
        <ele>443</ele>
        <time>2015-11-29T10:50:24.000Z</time>
      </trkpt>
      <trkpt lat="47.51234" lon="6.72327">
        <ele>443</ele>
        <time>2015-11-29T10:50:25.000Z</time>
      </trkpt>
      <trkpt lat="47.51233" lon="6.72331">
        <ele>443</ele>
        <time>2015-11-29T10:50:26.000Z</time>
      </trkpt>
      <trkpt lat="47.51232" lon="6.72336">
        <ele>444</ele>
        <time>2015-11-29T10:50:27.000Z</time>
      </trkpt>
      <trkpt lat="47.51232" lon="6.72341">
        <ele>444</ele>
        <time>2015-11-29T10:50:28.000Z</time>
      </trkpt>
      <trkpt lat="47.51231" lon="6.72346">
        <ele>443</ele>
        <time>2015-11-29T10:50:29.000Z</time>
      </trkpt>
      <trkpt lat="47.51231" lon="6.7235">
        <ele>443</ele>
        <time>2015-11-29T10:50:30.000Z</time>
      </trkpt>
      <trkpt lat="47.5123" lon="6.72354">
        <ele>443</ele>
        <time>2015-11-29T10:50:31.000Z</time>
      </trkpt>
      <trkpt lat="47.51229" lon="6.72359">
        <ele>443</ele>
        <time>2015-11-29T10:50:32.000Z</time>
      </trkpt>
      <trkpt lat="47.51228" lon="6.72363">
        <ele>443</ele>
        <time>2015-11-29T10:50:33.000Z</time>
      </trkpt>
      <trkpt lat="47.51227" lon="6.72367">
        <ele>443</ele>
        <time>2015-11-29T10:50:34.000Z</time>
      </trkpt>
      <trkpt lat="47.51225" lon="6.72372">
        <ele>442</ele>
        <time>2015-11-29T10:50:35.000Z</time>
      </trkpt>
      <trkpt lat="47.51223" lon="6.72377">
        <ele>442</ele>
        <time>2015-11-29T10:50:36.000Z</time>
      </trkpt>
      <trkpt lat="47.51221" lon="6.72382">
        <ele>442</ele>
        <time>2015-11-29T10:50:37.000Z</time>
      </trkpt>
      <trkpt lat="47.51219" lon="6.72388">
        <ele>442</ele>
        <time>2015-11-29T10:50:38.000Z</time>
      </trkpt>
      <trkpt lat="47.51217" lon="6.72394">
        <ele>442</ele>
        <time>2015-11-29T10:50:39.000Z</time>
      </trkpt>
      <trkpt lat="47.51215" lon="6.724">
        <ele>442</ele>
        <time>2015-11-29T10:50:40.000Z</time>
      </trkpt>
      <trkpt lat="47.51213" lon="6.72406">
        <ele>442</ele>
        <time>2015-11-29T10:50:41.000Z</time>
      </trkpt>
      <trkpt lat="47.51211" lon="6.72412">
        <ele>442</ele>
        <time>2015-11-29T10:50:42.000Z</time>
      </trkpt>
      <trkpt lat="47.51209" lon="6.72418">
        <ele>439</ele>
        <time>2015-11-29T10:50:43.000Z</time>
      </trkpt>
      <trkpt lat="47.51206" lon="6.72422">
        <ele>439</ele>
        <time>2015-11-29T10:50:44.000Z</time>
      </trkpt>
      <trkpt lat="47.51204" lon="6.72427">
        <ele>439</ele>
        <time>2015-11-29T10:50:45.000Z</time>
      </trkpt>
      <trkpt lat="47.51201" lon="6.72432">
        <ele>439</ele>
        <time>2015-11-29T10:50:46.000Z</time>
      </trkpt>
      <trkpt lat="47.51198" lon="6.72437">
        <ele>438</ele>
        <time>2015-11-29T10:50:47.000Z</time>
      </trkpt>
      <trkpt lat="47.51195" lon="6.72443">
        <ele>438</ele>
        <time>2015-11-29T10:50:48.000Z</time>
      </trkpt>
      <trkpt lat="47.51191" lon="6.72449">
        <ele>438</ele>
        <time>2015-11-29T10:50:49.000Z</time>
      </trkpt>
      <trkpt lat="47.51187" lon="6.72456">
        <ele>438</ele>
        <time>2015-11-29T10:50:50.000Z</time>
      </trkpt>
      <trkpt lat="47.51184" lon="6.72462">
        <ele>437</ele>
        <time>2015-11-29T10:50:51.000Z</time>
      </trkpt>
      <trkpt lat="47.5118" lon="6.7247">
        <ele>437</ele>
        <time>2015-11-29T10:50:52.000Z</time>
      </trkpt>
      <trkpt lat="47.51177" lon="6.72476">
        <ele>436</ele>
        <time>2015-11-29T10:50:53.000Z</time>
      </trkpt>
      <trkpt lat="47.51174" lon="6.72482">
        <ele>436</ele>
        <time>2015-11-29T10:50:54.000Z</time>
      </trkpt>
      <trkpt lat="47.51171" lon="6.72487">
        <ele>436</ele>
        <time>2015-11-29T10:50:55.000Z</time>
      </trkpt>
      <trkpt lat="47.51168" lon="6.72491">
        <ele>435</ele>
        <time>2015-11-29T10:50:56.000Z</time>
      </trkpt>
      <trkpt lat="47.51165" lon="6.72496">
        <ele>434</ele>
        <time>2015-11-29T10:50:57.000Z</time>
      </trkpt>
      <trkpt lat="47.51162" lon="6.72501">
        <ele>433</ele>
        <time>2015-11-29T10:50:58.000Z</time>
      </trkpt>
      <trkpt lat="47.51158" lon="6.72506">
        <ele>433</ele>
        <time>2015-11-29T10:50:59.000Z</time>
      </trkpt>
      <trkpt lat="47.51154" lon="6.72511">
        <ele>432</ele>
        <time>2015-11-29T10:51:00.000Z</time>
      </trkpt>
      <trkpt lat="47.5115" lon="6.72517">
        <ele>432</ele>
        <time>2015-11-29T10:51:01.000Z</time>
      </trkpt>
      <trkpt lat="47.51146" lon="6.72522">
        <ele>431</ele>
        <time>2015-11-29T10:51:02.000Z</time>
      </trkpt>
      <trkpt lat="47.51142" lon="6.72527">
        <ele>431</ele>
        <time>2015-11-29T10:51:03.000Z</time>
      </trkpt>
      <trkpt lat="47.51138" lon="6.72531">
        <ele>431</ele>
        <time>2015-11-29T10:51:04.000Z</time>
      </trkpt>
      <trkpt lat="47.51133" lon="6.72536">
        <ele>431</ele>
        <time>2015-11-29T10:51:05.000Z</time>
      </trkpt>
      <trkpt lat="47.51128" lon="6.7254">
        <ele>431</ele>
        <time>2015-11-29T10:51:06.000Z</time>
      </trkpt>
      <trkpt lat="47.51124" lon="6.72543">
        <ele>430</ele>
        <time>2015-11-29T10:51:07.000Z</time>
      </trkpt>
      <trkpt lat="47.51119" lon="6.72547">
        <ele>430</ele>
        <time>2015-11-29T10:51:08.000Z</time>
      </trkpt>
      <trkpt lat="47.51115" lon="6.7255">
        <ele>430</ele>
        <time>2015-11-29T10:51:09.000Z</time>
      </trkpt>
      <trkpt lat="47.5111" lon="6.72555">
        <ele>430</ele>
        <time>2015-11-29T10:51:10.000Z</time>
      </trkpt>
      <trkpt lat="47.51105" lon="6.7256">
        <ele>430</ele>
        <time>2015-11-29T10:51:11.000Z</time>
      </trkpt>
      <trkpt lat="47.511" lon="6.72565">
        <ele>430</ele>
        <time>2015-11-29T10:51:12.000Z</time>
      </trkpt>
      <trkpt lat="47.51095" lon="6.72571">
        <ele>430</ele>
        <time>2015-11-29T10:51:13.000Z</time>
      </trkpt>
      <trkpt lat="47.5109" lon="6.72576">
        <ele>429</ele>
        <time>2015-11-29T10:51:14.000Z</time>
      </trkpt>
      <trkpt lat="47.51084" lon="6.72581">
        <ele>429</ele>
        <time>2015-11-29T10:51:15.000Z</time>
      </trkpt>
      <trkpt lat="47.51079" lon="6.72587">
        <ele>428</ele>
        <time>2015-11-29T10:51:16.000Z</time>
      </trkpt>
      <trkpt lat="47.51074" lon="6.72592">
        <ele>428</ele>
        <time>2015-11-29T10:51:17.000Z</time>
      </trkpt>
      <trkpt lat="47.5107" lon="6.72598">
        <ele>427</ele>
        <time>2015-11-29T10:51:18.000Z</time>
      </trkpt>
      <trkpt lat="47.51065" lon="6.72604">
        <ele>426</ele>
        <time>2015-11-29T10:51:19.000Z</time>
      </trkpt>
      <trkpt lat="47.51061" lon="6.7261">
        <ele>426</ele>
        <time>2015-11-29T10:51:20.000Z</time>
      </trkpt>
      <trkpt lat="47.51057" lon="6.72615">
        <ele>426</ele>
        <time>2015-11-29T10:51:21.000Z</time>
      </trkpt>
      <trkpt lat="47.51053" lon="6.72621">
        <ele>426</ele>
        <time>2015-11-29T10:51:22.000Z</time>
      </trkpt>
      <trkpt lat="47.5105" lon="6.72626">
        <ele>426</ele>
        <time>2015-11-29T10:51:23.000Z</time>
      </trkpt>
      <trkpt lat="47.51046" lon="6.72631">
        <ele>426</ele>
        <time>2015-11-29T10:51:24.000Z</time>
      </trkpt>
      <trkpt lat="47.51042" lon="6.72636">
        <ele>426</ele>
        <time>2015-11-29T10:51:25.000Z</time>
      </trkpt>
      <trkpt lat="47.51038" lon="6.72641">
        <ele>426</ele>
        <time>2015-11-29T10:51:26.000Z</time>
      </trkpt>
      <trkpt lat="47.51033" lon="6.72646">
        <ele>426</ele>
        <time>2015-11-29T10:51:27.000Z</time>
      </trkpt>
      <trkpt lat="47.51029" lon="6.72651">
        <ele>426</ele>
        <time>2015-11-29T10:51:28.000Z</time>
      </trkpt>
      <trkpt lat="47.51025" lon="6.72656">
        <ele>426</ele>
        <time>2015-11-29T10:51:29.000Z</time>
      </trkpt>
      <trkpt lat="47.51021" lon="6.7266">
        <ele>426</ele>
        <time>2015-11-29T10:51:30.000Z</time>
      </trkpt>
      <trkpt lat="47.51017" lon="6.72665">
        <ele>427</ele>
        <time>2015-11-29T10:51:31.000Z</time>
      </trkpt>
      <trkpt lat="47.51013" lon="6.7267">
        <ele>426</ele>
        <time>2015-11-29T10:51:32.000Z</time>
      </trkpt>
      <trkpt lat="47.51008" lon="6.72675">
        <ele>426</ele>
        <time>2015-11-29T10:51:33.000Z</time>
      </trkpt>
      <trkpt lat="47.51004" lon="6.7268">
        <ele>426</ele>
        <time>2015-11-29T10:51:34.000Z</time>
      </trkpt>
      <trkpt lat="47.51001" lon="6.72685">
        <ele>425</ele>
        <time>2015-11-29T10:51:35.000Z</time>
      </trkpt>
      <trkpt lat="47.50997" lon="6.7269">
        <ele>428</ele>
        <time>2015-11-29T10:51:36.000Z</time>
      </trkpt>
      <trkpt lat="47.50995" lon="6.72695">
        <ele>428</ele>
        <time>2015-11-29T10:51:37.000Z</time>
      </trkpt>
      <trkpt lat="47.50992" lon="6.727">
        <ele>428</ele>
        <time>2015-11-29T10:51:38.000Z</time>
      </trkpt>
      <trkpt lat="47.50989" lon="6.72705">
        <ele>428</ele>
        <time>2015-11-29T10:51:39.000Z</time>
      </trkpt>
      <trkpt lat="47.50987" lon="6.7271">
        <ele>428</ele>
        <time>2015-11-29T10:51:40.000Z</time>
      </trkpt>
      <trkpt lat="47.50985" lon="6.72714">
        <ele>427</ele>
        <time>2015-11-29T10:51:41.000Z</time>
      </trkpt>
      <trkpt lat="47.50982" lon="6.72719">
        <ele>427</ele>
        <time>2015-11-29T10:51:42.000Z</time>
      </trkpt>
      <trkpt lat="47.5098" lon="6.72724">
        <ele>427</ele>
        <time>2015-11-29T10:51:43.000Z</time>
      </trkpt>
      <trkpt lat="47.50977" lon="6.72728">
        <ele>427</ele>
        <time>2015-11-29T10:51:44.000Z</time>
      </trkpt>
      <trkpt lat="47.50975" lon="6.72733">
        <ele>427</ele>
        <time>2015-11-29T10:51:45.000Z</time>
      </trkpt>
      <trkpt lat="47.50973" lon="6.72737">
        <ele>427</ele>
        <time>2015-11-29T10:51:46.000Z</time>
      </trkpt>
      <trkpt lat="47.50971" lon="6.7274">
        <ele>427</ele>
        <time>2015-11-29T10:51:47.000Z</time>
      </trkpt>
      <trkpt lat="47.50968" lon="6.72744">
        <ele>427</ele>
        <time>2015-11-29T10:51:48.000Z</time>
      </trkpt>
      <trkpt lat="47.50967" lon="6.72747">
        <ele>427</ele>
        <time>2015-11-29T10:51:49.000Z</time>
      </trkpt>
      <trkpt lat="47.50964" lon="6.7275">
        <ele>427</ele>
        <time>2015-11-29T10:51:50.000Z</time>
      </trkpt>
      <trkpt lat="47.50962" lon="6.72755">
        <ele>427</ele>
        <time>2015-11-29T10:51:51.000Z</time>
      </trkpt>
      <trkpt lat="47.50959" lon="6.7276">
        <ele>427</ele>
        <time>2015-11-29T10:51:52.000Z</time>
      </trkpt>
      <trkpt lat="47.50956" lon="6.72765">
        <ele>427</ele>
        <time>2015-11-29T10:51:53.000Z</time>
      </trkpt>
      <trkpt lat="47.50953" lon="6.72771">
        <ele>427</ele>
        <time>2015-11-29T10:51:54.000Z</time>
      </trkpt>
      <trkpt lat="47.5095" lon="6.72777">
        <ele>428</ele>
        <time>2015-11-29T10:51:55.000Z</time>
      </trkpt>
      <trkpt lat="47.50947" lon="6.72782">
        <ele>428</ele>
        <time>2015-11-29T10:51:56.000Z</time>
      </trkpt>
      <trkpt lat="47.50945" lon="6.72788">
        <ele>428</ele>
        <time>2015-11-29T10:51:57.000Z</time>
      </trkpt>
      <trkpt lat="47.50942" lon="6.72793">
        <ele>428</ele>
        <time>2015-11-29T10:51:58.000Z</time>
      </trkpt>
      <trkpt lat="47.5094" lon="6.728">
        <ele>428</ele>
        <time>2015-11-29T10:51:59.000Z</time>
      </trkpt>
      <trkpt lat="47.50937" lon="6.72805">
        <ele>428</ele>
        <time>2015-11-29T10:52:00.000Z</time>
      </trkpt>
      <trkpt lat="47.50935" lon="6.7281">
        <ele>428</ele>
        <time>2015-11-29T10:52:01.000Z</time>
      </trkpt>
      <trkpt lat="47.50933" lon="6.72815">
        <ele>428</ele>
        <time>2015-11-29T10:52:02.000Z</time>
      </trkpt>
      <trkpt lat="47.50932" lon="6.72819">
        <ele>429</ele>
        <time>2015-11-29T10:52:03.000Z</time>
      </trkpt>
      <trkpt lat="47.50932" lon="6.72822">
        <ele>429</ele>
        <time>2015-11-29T10:52:04.000Z</time>
      </trkpt>
      <trkpt lat="47.50931" lon="6.72827">
        <ele>429</ele>
        <time>2015-11-29T10:52:05.000Z</time>
      </trkpt>
      <trkpt lat="47.5093" lon="6.72831">
        <ele>429</ele>
        <time>2015-11-29T10:52:06.000Z</time>
      </trkpt>
      <trkpt lat="47.5093" lon="6.72835">
        <ele>429</ele>
        <time>2015-11-29T10:52:07.000Z</time>
      </trkpt>
      <trkpt lat="47.50929" lon="6.7284">
        <ele>429</ele>
        <time>2015-11-29T10:52:08.000Z</time>
      </trkpt>
      <trkpt lat="47.50928" lon="6.72845">
        <ele>428</ele>
        <time>2015-11-29T10:52:09.000Z</time>
      </trkpt>
      <trkpt lat="47.50926" lon="6.72852">
        <ele>428</ele>
        <time>2015-11-29T10:52:10.000Z</time>
      </trkpt>
      <trkpt lat="47.50924" lon="6.72859">
        <ele>427</ele>
        <time>2015-11-29T10:52:11.000Z</time>
      </trkpt>
      <trkpt lat="47.50912" lon="6.72894">
        <ele>430</ele>
        <time>2015-11-29T10:52:12.000Z</time>
      </trkpt>
      <trkpt lat="47.5091" lon="6.72903">
        <ele>430</ele>
        <time>2015-11-29T10:52:13.000Z</time>
      </trkpt>
      <trkpt lat="47.50907" lon="6.72924">
        <ele>429</ele>
        <time>2015-11-29T10:52:14.000Z</time>
      </trkpt>
      <trkpt lat="47.50902" lon="6.72937">
        <ele>430</ele>
        <time>2015-11-29T10:52:15.000Z</time>
      </trkpt>
      <trkpt lat="47.50901" lon="6.72949">
        <ele>430</ele>
        <time>2015-11-29T10:52:16.000Z</time>
      </trkpt>
      <trkpt lat="47.50899" lon="6.72962">
        <ele>430</ele>
        <time>2015-11-29T10:52:17.000Z</time>
      </trkpt>
      <trkpt lat="47.50896" lon="6.72974">
        <ele>430</ele>
        <time>2015-11-29T10:52:18.000Z</time>
      </trkpt>
      <trkpt lat="47.50891" lon="6.72987">
        <ele>430</ele>
        <time>2015-11-29T10:52:19.000Z</time>
      </trkpt>
      <trkpt lat="47.50888" lon="6.72998">
        <ele>430</ele>
        <time>2015-11-29T10:52:20.000Z</time>
      </trkpt>
      <trkpt lat="47.50887" lon="6.73009">
        <ele>430</ele>
        <time>2015-11-29T10:52:21.000Z</time>
      </trkpt>
      <trkpt lat="47.50884" lon="6.73019">
        <ele>430</ele>
        <time>2015-11-29T10:52:22.000Z</time>
      </trkpt>
      <trkpt lat="47.50879" lon="6.73034">
        <ele>431</ele>
        <time>2015-11-29T10:52:23.000Z</time>
      </trkpt>
      <trkpt lat="47.50877" lon="6.73041">
        <ele>431</ele>
        <time>2015-11-29T10:52:24.000Z</time>
      </trkpt>
      <trkpt lat="47.50872" lon="6.73054">
        <ele>431</ele>
        <time>2015-11-29T10:52:25.000Z</time>
      </trkpt>
      <trkpt lat="47.50864" lon="6.73067">
        <ele>431</ele>
        <time>2015-11-29T10:52:26.000Z</time>
      </trkpt>
      <trkpt lat="47.50856" lon="6.73077">
        <ele>432</ele>
        <time>2015-11-29T10:52:27.000Z</time>
      </trkpt>
      <trkpt lat="47.50848" lon="6.7309">
        <ele>431</ele>
        <time>2015-11-29T10:52:28.000Z</time>
      </trkpt>
      <trkpt lat="47.50841" lon="6.73106">
        <ele>430</ele>
        <time>2015-11-29T10:52:29.000Z</time>
      </trkpt>
      <trkpt lat="47.50835" lon="6.7312">
        <ele>428</ele>
        <time>2015-11-29T10:52:30.000Z</time>
      </trkpt>
      <trkpt lat="47.50831" lon="6.73134">
        <ele>427</ele>
        <time>2015-11-29T10:52:31.000Z</time>
      </trkpt>
      <trkpt lat="47.50826" lon="6.73143">
        <ele>427</ele>
        <time>2015-11-29T10:52:32.000Z</time>
      </trkpt>
      <trkpt lat="47.5082" lon="6.73155">
        <ele>426</ele>
        <time>2015-11-29T10:52:33.000Z</time>
      </trkpt>
      <trkpt lat="47.50815" lon="6.73169">
        <ele>423</ele>
        <time>2015-11-29T10:52:34.000Z</time>
      </trkpt>
      <trkpt lat="47.5081" lon="6.73186">
        <ele>421</ele>
        <time>2015-11-29T10:52:35.000Z</time>
      </trkpt>
      <trkpt lat="47.50803" lon="6.73196">
        <ele>421</ele>
        <time>2015-11-29T10:52:36.000Z</time>
      </trkpt>
      <trkpt lat="47.50797" lon="6.73207">
        <ele>420</ele>
        <time>2015-11-29T10:52:37.000Z</time>
      </trkpt>
      <trkpt lat="47.50789" lon="6.73219">
        <ele>419</ele>
        <time>2015-11-29T10:52:38.000Z</time>
      </trkpt>
      <trkpt lat="47.5078" lon="6.73232">
        <ele>419</ele>
        <time>2015-11-29T10:52:39.000Z</time>
      </trkpt>
      <trkpt lat="47.50774" lon="6.73246">
        <ele>418</ele>
        <time>2015-11-29T10:52:40.000Z</time>
      </trkpt>
      <trkpt lat="47.50768" lon="6.73261">
        <ele>412</ele>
        <time>2015-11-29T10:52:41.000Z</time>
      </trkpt>
      <trkpt lat="47.5076" lon="6.73269">
        <ele>411</ele>
        <time>2015-11-29T10:52:42.000Z</time>
      </trkpt>
      <trkpt lat="47.50755" lon="6.73272">
        <ele>411</ele>
        <time>2015-11-29T10:52:43.000Z</time>
      </trkpt>
      <trkpt lat="47.5075" lon="6.73279">
        <ele>411</ele>
        <time>2015-11-29T10:52:44.000Z</time>
      </trkpt>
      <trkpt lat="47.50747" lon="6.73285">
        <ele>408</ele>
        <time>2015-11-29T10:52:45.000Z</time>
      </trkpt>
      <trkpt lat="47.50743" lon="6.73293">
        <ele>407</ele>
        <time>2015-11-29T10:52:46.000Z</time>
      </trkpt>
      <trkpt lat="47.5074" lon="6.73301">
        <ele>407</ele>
        <time>2015-11-29T10:52:47.000Z</time>
      </trkpt>
      <trkpt lat="47.50735" lon="6.73307">
        <ele>406</ele>
        <time>2015-11-29T10:52:48.000Z</time>
      </trkpt>
      <trkpt lat="47.50728" lon="6.73314">
        <ele>406</ele>
        <time>2015-11-29T10:52:49.000Z</time>
      </trkpt>
      <trkpt lat="47.50722" lon="6.73318">
        <ele>405</ele>
        <time>2015-11-29T10:52:50.000Z</time>
      </trkpt>
      <trkpt lat="47.50719" lon="6.73327">
        <ele>405</ele>
        <time>2015-11-29T10:52:51.000Z</time>
      </trkpt>
      <trkpt lat="47.50715" lon="6.73336">
        <ele>400</ele>
        <time>2015-11-29T10:52:52.000Z</time>
      </trkpt>
      <trkpt lat="47.50711" lon="6.73343">
        <ele>399</ele>
        <time>2015-11-29T10:52:53.000Z</time>
      </trkpt>
      <trkpt lat="47.50707" lon="6.73353">
        <ele>398</ele>
        <time>2015-11-29T10:52:54.000Z</time>
      </trkpt>
      <trkpt lat="47.50706" lon="6.73364">
        <ele>398</ele>
        <time>2015-11-29T10:52:55.000Z</time>
      </trkpt>
      <trkpt lat="47.50704" lon="6.73372">
        <ele>397</ele>
        <time>2015-11-29T10:52:56.000Z</time>
      </trkpt>
      <trkpt lat="47.50701" lon="6.73382">
        <ele>397</ele>
        <time>2015-11-29T10:52:57.000Z</time>
      </trkpt>
      <trkpt lat="47.50698" lon="6.73393">
        <ele>397</ele>
        <time>2015-11-29T10:52:58.000Z</time>
      </trkpt>
      <trkpt lat="47.50694" lon="6.73403">
        <ele>396</ele>
        <time>2015-11-29T10:52:59.000Z</time>
      </trkpt>
      <trkpt lat="47.5069" lon="6.73412">
        <ele>396</ele>
        <time>2015-11-29T10:53:00.000Z</time>
      </trkpt>
      <trkpt lat="47.50687" lon="6.73419">
        <ele>391</ele>
        <time>2015-11-29T10:53:01.000Z</time>
      </trkpt>
      <trkpt lat="47.50684" lon="6.73426">
        <ele>391</ele>
        <time>2015-11-29T10:53:02.000Z</time>
      </trkpt>
      <trkpt lat="47.50679" lon="6.73432">
        <ele>391</ele>
        <time>2015-11-29T10:53:03.000Z</time>
      </trkpt>
      <trkpt lat="47.50676" lon="6.73438">
        <ele>390</ele>
        <time>2015-11-29T10:53:04.000Z</time>
      </trkpt>
      <trkpt lat="47.50671" lon="6.73445">
        <ele>389</ele>
        <time>2015-11-29T10:53:05.000Z</time>
      </trkpt>
      <trkpt lat="47.50669" lon="6.73451">
        <ele>388</ele>
        <time>2015-11-29T10:53:06.000Z</time>
      </trkpt>
      <trkpt lat="47.50667" lon="6.73455">
        <ele>387</ele>
        <time>2015-11-29T10:53:07.000Z</time>
      </trkpt>
      <trkpt lat="47.50664" lon="6.73461">
        <ele>387</ele>
        <time>2015-11-29T10:53:08.000Z</time>
      </trkpt>
      <trkpt lat="47.50661" lon="6.73466">
        <ele>386</ele>
        <time>2015-11-29T10:53:09.000Z</time>
      </trkpt>
      <trkpt lat="47.50659" lon="6.73469">
        <ele>386</ele>
        <time>2015-11-29T10:53:10.000Z</time>
      </trkpt>
      <trkpt lat="47.50657" lon="6.73473">
        <ele>386</ele>
        <time>2015-11-29T10:53:11.000Z</time>
      </trkpt>
      <trkpt lat="47.50655" lon="6.73476">
        <ele>386</ele>
        <time>2015-11-29T10:53:12.000Z</time>
      </trkpt>
      <trkpt lat="47.50654" lon="6.7348">
        <ele>385</ele>
        <time>2015-11-29T10:53:13.000Z</time>
      </trkpt>
      <trkpt lat="47.50653" lon="6.73484">
        <ele>385</ele>
        <time>2015-11-29T10:53:14.000Z</time>
      </trkpt>
      <trkpt lat="47.50652" lon="6.73487">
        <ele>385</ele>
        <time>2015-11-29T10:53:15.000Z</time>
      </trkpt>
      <trkpt lat="47.5065" lon="6.7349">
        <ele>385</ele>
        <time>2015-11-29T10:53:16.000Z</time>
      </trkpt>
      <trkpt lat="47.50647" lon="6.73494">
        <ele>385</ele>
        <time>2015-11-29T10:53:17.000Z</time>
      </trkpt>
      <trkpt lat="47.50645" lon="6.73497">
        <ele>385</ele>
        <time>2015-11-29T10:53:18.000Z</time>
      </trkpt>
      <trkpt lat="47.50642" lon="6.73502">
        <ele>381</ele>
        <time>2015-11-29T10:53:19.000Z</time>
      </trkpt>
      <trkpt lat="47.50638" lon="6.73507">
        <ele>381</ele>
        <time>2015-11-29T10:53:20.000Z</time>
      </trkpt>
      <trkpt lat="47.50635" lon="6.73512">
        <ele>380</ele>
        <time>2015-11-29T10:53:21.000Z</time>
      </trkpt>
      <trkpt lat="47.50632" lon="6.73517">
        <ele>380</ele>
        <time>2015-11-29T10:53:22.000Z</time>
      </trkpt>
      <trkpt lat="47.5063" lon="6.73522">
        <ele>379</ele>
        <time>2015-11-29T10:53:23.000Z</time>
      </trkpt>
      <trkpt lat="47.50629" lon="6.73527">
        <ele>379</ele>
        <time>2015-11-29T10:53:24.000Z</time>
      </trkpt>
      <trkpt lat="47.50629" lon="6.73532">
        <ele>379</ele>
        <time>2015-11-29T10:53:25.000Z</time>
      </trkpt>
      <trkpt lat="47.50629" lon="6.73536">
        <ele>379</ele>
        <time>2015-11-29T10:53:26.000Z</time>
      </trkpt>
      <trkpt lat="47.5063" lon="6.73538">
        <ele>379</ele>
        <time>2015-11-29T10:53:27.000Z</time>
      </trkpt>
      <trkpt lat="47.50633" lon="6.73543">
        <ele>379</ele>
        <time>2015-11-29T10:53:29.000Z</time>
      </trkpt>
      <trkpt lat="47.50634" lon="6.73545">
        <ele>379</ele>
        <time>2015-11-29T10:53:30.000Z</time>
      </trkpt>
      <trkpt lat="47.50635" lon="6.7355">
        <ele>378</ele>
        <time>2015-11-29T10:53:31.000Z</time>
      </trkpt>
      <trkpt lat="47.50635" lon="6.73553">
        <ele>378</ele>
        <time>2015-11-29T10:53:32.000Z</time>
      </trkpt>
      <trkpt lat="47.50633" lon="6.73559">
        <ele>378</ele>
        <time>2015-11-29T10:53:36.000Z</time>
      </trkpt>
      <trkpt lat="47.50633" lon="6.7356">
        <ele>378</ele>
        <time>2015-11-29T10:53:37.000Z</time>
      </trkpt>
      <trkpt lat="47.5063" lon="6.73565">
        <ele>378</ele>
        <time>2015-11-29T10:53:44.000Z</time>
      </trkpt>
      <trkpt lat="47.5063" lon="6.73565">
        <ele>378</ele>
        <time>2015-11-29T10:53:45.000Z</time>
      </trkpt>
      <trkpt lat="47.50629" lon="6.7357">
        <ele>378</ele>
        <time>2015-11-29T10:55:51.000Z</time>
      </trkpt>
      <trkpt lat="47.50632" lon="6.73572">
        <ele>378</ele>
        <time>2015-11-29T10:55:52.000Z</time>
      </trkpt>
      <trkpt lat="47.50633" lon="6.73574">
        <ele>377</ele>
        <time>2015-11-29T10:55:53.000Z</time>
      </trkpt>
      <trkpt lat="47.50636" lon="6.73578">
        <ele>377</ele>
        <time>2015-11-29T10:55:54.000Z</time>
      </trkpt>
      <trkpt lat="47.50638" lon="6.73582">
        <ele>377</ele>
        <time>2015-11-29T10:55:55.000Z</time>
      </trkpt>
      <trkpt lat="47.50641" lon="6.73588">
        <ele>374</ele>
        <time>2015-11-29T10:55:56.000Z</time>
      </trkpt>
      <trkpt lat="47.50643" lon="6.73593">
        <ele>373</ele>
        <time>2015-11-29T10:55:57.000Z</time>
      </trkpt>
      <trkpt lat="47.50645" lon="6.73599">
        <ele>373</ele>
        <time>2015-11-29T10:55:58.000Z</time>
      </trkpt>
      <trkpt lat="47.50649" lon="6.73613">
        <ele>373</ele>
        <time>2015-11-29T10:55:59.000Z</time>
      </trkpt>
      <trkpt lat="47.50652" lon="6.7362">
        <ele>372</ele>
        <time>2015-11-29T10:56:00.000Z</time>
      </trkpt>
      <trkpt lat="47.50654" lon="6.73627">
        <ele>372</ele>
        <time>2015-11-29T10:56:01.000Z</time>
      </trkpt>
      <trkpt lat="47.50655" lon="6.73633">
        <ele>371</ele>
        <time>2015-11-29T10:56:02.000Z</time>
      </trkpt>
      <trkpt lat="47.50654" lon="6.73639">
        <ele>371</ele>
        <time>2015-11-29T10:56:03.000Z</time>
      </trkpt>
      <trkpt lat="47.50653" lon="6.73647">
        <ele>370</ele>
        <time>2015-11-29T10:56:04.000Z</time>
      </trkpt>
      <trkpt lat="47.50653" lon="6.73654">
        <ele>369</ele>
        <time>2015-11-29T10:56:05.000Z</time>
      </trkpt>
      <trkpt lat="47.50652" lon="6.73659">
        <ele>368</ele>
        <time>2015-11-29T10:56:06.000Z</time>
      </trkpt>
      <trkpt lat="47.50653" lon="6.73666">
        <ele>367</ele>
        <time>2015-11-29T10:56:07.000Z</time>
      </trkpt>
      <trkpt lat="47.50651" lon="6.73672">
        <ele>367</ele>
        <time>2015-11-29T10:56:08.000Z</time>
      </trkpt>
      <trkpt lat="47.50652" lon="6.73679">
        <ele>367</ele>
        <time>2015-11-29T10:56:09.000Z</time>
      </trkpt>
      <trkpt lat="47.50653" lon="6.73686">
        <ele>368</ele>
        <time>2015-11-29T10:56:10.000Z</time>
      </trkpt>
      <trkpt lat="47.50653" lon="6.73692">
        <ele>368</ele>
        <time>2015-11-29T10:56:11.000Z</time>
      </trkpt>
      <trkpt lat="47.50654" lon="6.73699">
        <ele>369</ele>
        <time>2015-11-29T10:56:12.000Z</time>
      </trkpt>
      <trkpt lat="47.50654" lon="6.73706">
        <ele>369</ele>
        <time>2015-11-29T10:56:13.000Z</time>
      </trkpt>
      <trkpt lat="47.50654" lon="6.73714">
        <ele>369</ele>
        <time>2015-11-29T10:56:14.000Z</time>
      </trkpt>
      <trkpt lat="47.50654" lon="6.73722">
        <ele>368</ele>
        <time>2015-11-29T10:56:15.000Z</time>
      </trkpt>
      <trkpt lat="47.50655" lon="6.73728">
        <ele>368</ele>
        <time>2015-11-29T10:56:16.000Z</time>
      </trkpt>
      <trkpt lat="47.50654" lon="6.73737">
        <ele>367</ele>
        <time>2015-11-29T10:56:17.000Z</time>
      </trkpt>
      <trkpt lat="47.50654" lon="6.73744">
        <ele>366</ele>
        <time>2015-11-29T10:56:18.000Z</time>
      </trkpt>
      <trkpt lat="47.50654" lon="6.73752">
        <ele>366</ele>
        <time>2015-11-29T10:56:19.000Z</time>
      </trkpt>
      <trkpt lat="47.50654" lon="6.7376">
        <ele>366</ele>
        <time>2015-11-29T10:56:20.000Z</time>
      </trkpt>
      <trkpt lat="47.50653" lon="6.73767">
        <ele>367</ele>
        <time>2015-11-29T10:56:21.000Z</time>
      </trkpt>
      <trkpt lat="47.50653" lon="6.73775">
        <ele>368</ele>
        <time>2015-11-29T10:56:22.000Z</time>
      </trkpt>
      <trkpt lat="47.50652" lon="6.73781">
        <ele>368</ele>
        <time>2015-11-29T10:56:23.000Z</time>
      </trkpt>
      <trkpt lat="47.50651" lon="6.73789">
        <ele>368</ele>
        <time>2015-11-29T10:56:24.000Z</time>
      </trkpt>
      <trkpt lat="47.5065" lon="6.73795">
        <ele>368</ele>
        <time>2015-11-29T10:56:25.000Z</time>
      </trkpt>
      <trkpt lat="47.50649" lon="6.73802">
        <ele>368</ele>
        <time>2015-11-29T10:56:26.000Z</time>
      </trkpt>
      <trkpt lat="47.50648" lon="6.7381">
        <ele>368</ele>
        <time>2015-11-29T10:56:27.000Z</time>
      </trkpt>
      <trkpt lat="47.50648" lon="6.73818">
        <ele>367</ele>
        <time>2015-11-29T10:56:28.000Z</time>
      </trkpt>
      <trkpt lat="47.50647" lon="6.73826">
        <ele>367</ele>
        <time>2015-11-29T10:56:29.000Z</time>
      </trkpt>
      <trkpt lat="47.50647" lon="6.73835">
        <ele>365</ele>
        <time>2015-11-29T10:56:30.000Z</time>
      </trkpt>
      <trkpt lat="47.50648" lon="6.73844">
        <ele>365</ele>
        <time>2015-11-29T10:56:31.000Z</time>
      </trkpt>
      <trkpt lat="47.50647" lon="6.73852">
        <ele>365</ele>
        <time>2015-11-29T10:56:32.000Z</time>
      </trkpt>
      <trkpt lat="47.50645" lon="6.73859">
        <ele>366</ele>
        <time>2015-11-29T10:56:33.000Z</time>
      </trkpt>
      <trkpt lat="47.50643" lon="6.73867">
        <ele>366</ele>
        <time>2015-11-29T10:56:34.000Z</time>
      </trkpt>
      <trkpt lat="47.50641" lon="6.73875">
        <ele>366</ele>
        <time>2015-11-29T10:56:35.000Z</time>
      </trkpt>
      <trkpt lat="47.50638" lon="6.73882">
        <ele>366</ele>
        <time>2015-11-29T10:56:36.000Z</time>
      </trkpt>
      <trkpt lat="47.50635" lon="6.73888">
        <ele>366</ele>
        <time>2015-11-29T10:56:37.000Z</time>
      </trkpt>
      <trkpt lat="47.50632" lon="6.73895">
        <ele>366</ele>
        <time>2015-11-29T10:56:38.000Z</time>
      </trkpt>
      <trkpt lat="47.5063" lon="6.73901">
        <ele>366</ele>
        <time>2015-11-29T10:56:39.000Z</time>
      </trkpt>
      <trkpt lat="47.50627" lon="6.73907">
        <ele>366</ele>
        <time>2015-11-29T10:56:40.000Z</time>
      </trkpt>
      <trkpt lat="47.50623" lon="6.73913">
        <ele>367</ele>
        <time>2015-11-29T10:56:41.000Z</time>
      </trkpt>
      <trkpt lat="47.50621" lon="6.73917">
        <ele>362</ele>
        <time>2015-11-29T10:56:42.000Z</time>
      </trkpt>
      <trkpt lat="47.50618" lon="6.73922">
        <ele>363</ele>
        <time>2015-11-29T10:56:43.000Z</time>
      </trkpt>
      <trkpt lat="47.50615" lon="6.73925">
        <ele>363</ele>
        <time>2015-11-29T10:56:44.000Z</time>
      </trkpt>
      <trkpt lat="47.50614" lon="6.73931">
        <ele>363</ele>
        <time>2015-11-29T10:56:45.000Z</time>
      </trkpt>
      <trkpt lat="47.50612" lon="6.73937">
        <ele>363</ele>
        <time>2015-11-29T10:56:46.000Z</time>
      </trkpt>
      <trkpt lat="47.50611" lon="6.73943">
        <ele>363</ele>
        <time>2015-11-29T10:56:47.000Z</time>
      </trkpt>
      <trkpt lat="47.50609" lon="6.73947">
        <ele>362</ele>
        <time>2015-11-29T10:56:48.000Z</time>
      </trkpt>
      <trkpt lat="47.50606" lon="6.73954">
        <ele>362</ele>
        <time>2015-11-29T10:56:49.000Z</time>
      </trkpt>
      <trkpt lat="47.50604" lon="6.7396">
        <ele>362</ele>
        <time>2015-11-29T10:56:50.000Z</time>
      </trkpt>
      <trkpt lat="47.50601" lon="6.73965">
        <ele>362</ele>
        <time>2015-11-29T10:56:51.000Z</time>
      </trkpt>
      <trkpt lat="47.50597" lon="6.73971">
        <ele>362</ele>
        <time>2015-11-29T10:56:52.000Z</time>
      </trkpt>
      <trkpt lat="47.50592" lon="6.73986">
        <ele>362</ele>
        <time>2015-11-29T10:56:53.000Z</time>
      </trkpt>
      <trkpt lat="47.50586" lon="6.73998">
        <ele>363</ele>
        <time>2015-11-29T10:56:54.000Z</time>
      </trkpt>
      <trkpt lat="47.50582" lon="6.74008">
        <ele>364</ele>
        <time>2015-11-29T10:56:55.000Z</time>
      </trkpt>
      <trkpt lat="47.50577" lon="6.74017">
        <ele>366</ele>
        <time>2015-11-29T10:56:56.000Z</time>
      </trkpt>
      <trkpt lat="47.50574" lon="6.74025">
        <ele>366</ele>
        <time>2015-11-29T10:56:57.000Z</time>
      </trkpt>
      <trkpt lat="47.5057" lon="6.74032">
        <ele>366</ele>
        <time>2015-11-29T10:56:58.000Z</time>
      </trkpt>
      <trkpt lat="47.50566" lon="6.74038">
        <ele>366</ele>
        <time>2015-11-29T10:56:59.000Z</time>
      </trkpt>
      <trkpt lat="47.50562" lon="6.74046">
        <ele>366</ele>
        <time>2015-11-29T10:57:00.000Z</time>
      </trkpt>
      <trkpt lat="47.50556" lon="6.74059">
        <ele>366</ele>
        <time>2015-11-29T10:57:01.000Z</time>
      </trkpt>
      <trkpt lat="47.50551" lon="6.74071">
        <ele>366</ele>
        <time>2015-11-29T10:57:02.000Z</time>
      </trkpt>
      <trkpt lat="47.50546" lon="6.74081">
        <ele>366</ele>
        <time>2015-11-29T10:57:03.000Z</time>
      </trkpt>
      <trkpt lat="47.50543" lon="6.7409">
        <ele>363</ele>
        <time>2015-11-29T10:57:04.000Z</time>
      </trkpt>
      <trkpt lat="47.5054" lon="6.74098">
        <ele>363</ele>
        <time>2015-11-29T10:57:05.000Z</time>
      </trkpt>
      <trkpt lat="47.50537" lon="6.74103">
        <ele>364</ele>
        <time>2015-11-29T10:57:06.000Z</time>
      </trkpt>
      <trkpt lat="47.50535" lon="6.7411">
        <ele>364</ele>
        <time>2015-11-29T10:57:07.000Z</time>
      </trkpt>
      <trkpt lat="47.5053" lon="6.74117">
        <ele>364</ele>
        <time>2015-11-29T10:57:08.000Z</time>
      </trkpt>
      <trkpt lat="47.50527" lon="6.74125">
        <ele>364</ele>
        <time>2015-11-29T10:57:09.000Z</time>
      </trkpt>
      <trkpt lat="47.50524" lon="6.74131">
        <ele>364</ele>
        <time>2015-11-29T10:57:10.000Z</time>
      </trkpt>
      <trkpt lat="47.50522" lon="6.74137">
        <ele>364</ele>
        <time>2015-11-29T10:57:11.000Z</time>
      </trkpt>
      <trkpt lat="47.50519" lon="6.74141">
        <ele>365</ele>
        <time>2015-11-29T10:57:12.000Z</time>
      </trkpt>
      <trkpt lat="47.50516" lon="6.74148">
        <ele>366</ele>
        <time>2015-11-29T10:57:13.000Z</time>
      </trkpt>
      <trkpt lat="47.50514" lon="6.74153">
        <ele>366</ele>
        <time>2015-11-29T10:57:14.000Z</time>
      </trkpt>
      <trkpt lat="47.50511" lon="6.74156">
        <ele>367</ele>
        <time>2015-11-29T10:57:15.000Z</time>
      </trkpt>
      <trkpt lat="47.50509" lon="6.74161">
        <ele>368</ele>
        <time>2015-11-29T10:57:16.000Z</time>
      </trkpt>
      <trkpt lat="47.50507" lon="6.74165">
        <ele>369</ele>
        <time>2015-11-29T10:57:17.000Z</time>
      </trkpt>
      <trkpt lat="47.50505" lon="6.7417">
        <ele>369</ele>
        <time>2015-11-29T10:57:18.000Z</time>
      </trkpt>
      <trkpt lat="47.50503" lon="6.74175">
        <ele>368</ele>
        <time>2015-11-29T10:57:19.000Z</time>
      </trkpt>
      <trkpt lat="47.50501" lon="6.7418">
        <ele>367</ele>
        <time>2015-11-29T10:57:20.000Z</time>
      </trkpt>
      <trkpt lat="47.50499" lon="6.74185">
        <ele>373</ele>
        <time>2015-11-29T10:57:21.000Z</time>
      </trkpt>
      <trkpt lat="47.50497" lon="6.74189">
        <ele>373</ele>
        <time>2015-11-29T10:57:22.000Z</time>
      </trkpt>
      <trkpt lat="47.50496" lon="6.74195">
        <ele>373</ele>
        <time>2015-11-29T10:57:23.000Z</time>
      </trkpt>
      <trkpt lat="47.50495" lon="6.74199">
        <ele>373</ele>
        <time>2015-11-29T10:57:24.000Z</time>
      </trkpt>
      <trkpt lat="47.50493" lon="6.74204">
        <ele>373</ele>
        <time>2015-11-29T10:57:25.000Z</time>
      </trkpt>
      <trkpt lat="47.50491" lon="6.74209">
        <ele>373</ele>
        <time>2015-11-29T10:57:26.000Z</time>
      </trkpt>
      <trkpt lat="47.50489" lon="6.74215">
        <ele>373</ele>
        <time>2015-11-29T10:57:27.000Z</time>
      </trkpt>
      <trkpt lat="47.50487" lon="6.7422">
        <ele>373</ele>
        <time>2015-11-29T10:57:28.000Z</time>
      </trkpt>
      <trkpt lat="47.50484" lon="6.74225">
        <ele>373</ele>
        <time>2015-11-29T10:57:29.000Z</time>
      </trkpt>
      <trkpt lat="47.50482" lon="6.7423">
        <ele>373</ele>
        <time>2015-11-29T10:57:30.000Z</time>
      </trkpt>
      <trkpt lat="47.50479" lon="6.74235">
        <ele>373</ele>
        <time>2015-11-29T10:57:31.000Z</time>
      </trkpt>
      <trkpt lat="47.50477" lon="6.7424">
        <ele>373</ele>
        <time>2015-11-29T10:57:32.000Z</time>
      </trkpt>
      <trkpt lat="47.50474" lon="6.74245">
        <ele>373</ele>
        <time>2015-11-29T10:57:33.000Z</time>
      </trkpt>
      <trkpt lat="47.50472" lon="6.7425">
        <ele>373</ele>
        <time>2015-11-29T10:57:34.000Z</time>
      </trkpt>
      <trkpt lat="47.50469" lon="6.74255">
        <ele>370</ele>
        <time>2015-11-29T10:57:35.000Z</time>
      </trkpt>
      <trkpt lat="47.50466" lon="6.7426">
        <ele>370</ele>
        <time>2015-11-29T10:57:36.000Z</time>
      </trkpt>
      <trkpt lat="47.50456" lon="6.74293">
        <ele>370</ele>
        <time>2015-11-29T10:57:37.000Z</time>
      </trkpt>
      <trkpt lat="47.50453" lon="6.74297">
        <ele>370</ele>
        <time>2015-11-29T10:57:38.000Z</time>
      </trkpt>
      <trkpt lat="47.5045" lon="6.74304">
        <ele>370</ele>
        <time>2015-11-29T10:57:39.000Z</time>
      </trkpt>
      <trkpt lat="47.50446" lon="6.7431">
        <ele>370</ele>
        <time>2015-11-29T10:57:40.000Z</time>
      </trkpt>
      <trkpt lat="47.50444" lon="6.74313">
        <ele>370</ele>
        <time>2015-11-29T10:57:41.000Z</time>
      </trkpt>
      <trkpt lat="47.5044" lon="6.74319">
        <ele>370</ele>
        <time>2015-11-29T10:57:42.000Z</time>
      </trkpt>
      <trkpt lat="47.50438" lon="6.74327">
        <ele>370</ele>
        <time>2015-11-29T10:57:43.000Z</time>
      </trkpt>
      <trkpt lat="47.50436" lon="6.74339">
        <ele>365</ele>
        <time>2015-11-29T10:57:44.000Z</time>
      </trkpt>
      <trkpt lat="47.50434" lon="6.74345">
        <ele>365</ele>
        <time>2015-11-29T10:57:45.000Z</time>
      </trkpt>
      <trkpt lat="47.50432" lon="6.74353">
        <ele>365</ele>
        <time>2015-11-29T10:57:46.000Z</time>
      </trkpt>
      <trkpt lat="47.50428" lon="6.74357">
        <ele>365</ele>
        <time>2015-11-29T10:57:47.000Z</time>
      </trkpt>
      <trkpt lat="47.50425" lon="6.74362">
        <ele>364</ele>
        <time>2015-11-29T10:57:48.000Z</time>
      </trkpt>
      <trkpt lat="47.50424" lon="6.74367">
        <ele>364</ele>
        <time>2015-11-29T10:57:49.000Z</time>
      </trkpt>
      <trkpt lat="47.50422" lon="6.74372">
        <ele>363</ele>
        <time>2015-11-29T10:57:50.000Z</time>
      </trkpt>
      <trkpt lat="47.50419" lon="6.74378">
        <ele>363</ele>
        <time>2015-11-29T10:57:51.000Z</time>
      </trkpt>
      <trkpt lat="47.50416" lon="6.74386">
        <ele>363</ele>
        <time>2015-11-29T10:57:52.000Z</time>
      </trkpt>
      <trkpt lat="47.50414" lon="6.74388">
        <ele>363</ele>
        <time>2015-11-29T10:57:53.000Z</time>
      </trkpt>
      <trkpt lat="47.50411" lon="6.74396">
        <ele>362</ele>
        <time>2015-11-29T10:57:54.000Z</time>
      </trkpt>
      <trkpt lat="47.50409" lon="6.74401">
        <ele>362</ele>
        <time>2015-11-29T10:57:55.000Z</time>
      </trkpt>
      <trkpt lat="47.50406" lon="6.74407">
        <ele>361</ele>
        <time>2015-11-29T10:57:56.000Z</time>
      </trkpt>
      <trkpt lat="47.50402" lon="6.74413">
        <ele>361</ele>
        <time>2015-11-29T10:57:57.000Z</time>
      </trkpt>
      <trkpt lat="47.50399" lon="6.7442">
        <ele>358</ele>
        <time>2015-11-29T10:57:58.000Z</time>
      </trkpt>
      <trkpt lat="47.50396" lon="6.74426">
        <ele>357</ele>
        <time>2015-11-29T10:57:59.000Z</time>
      </trkpt>
      <trkpt lat="47.50393" lon="6.74433">
        <ele>357</ele>
        <time>2015-11-29T10:58:00.000Z</time>
      </trkpt>
      <trkpt lat="47.5039" lon="6.7444">
        <ele>356</ele>
        <time>2015-11-29T10:58:01.000Z</time>
      </trkpt>
      <trkpt lat="47.50387" lon="6.74447">
        <ele>356</ele>
        <time>2015-11-29T10:58:02.000Z</time>
      </trkpt>
      <trkpt lat="47.50385" lon="6.74453">
        <ele>356</ele>
        <time>2015-11-29T10:58:03.000Z</time>
      </trkpt>
      <trkpt lat="47.50383" lon="6.7446">
        <ele>355</ele>
        <time>2015-11-29T10:58:04.000Z</time>
      </trkpt>
      <trkpt lat="47.50381" lon="6.74465">
        <ele>355</ele>
        <time>2015-11-29T10:58:05.000Z</time>
      </trkpt>
      <trkpt lat="47.50379" lon="6.74471">
        <ele>355</ele>
        <time>2015-11-29T10:58:06.000Z</time>
      </trkpt>
      <trkpt lat="47.50378" lon="6.74474">
        <ele>355</ele>
        <time>2015-11-29T10:58:07.000Z</time>
      </trkpt>
      <trkpt lat="47.50378" lon="6.7448">
        <ele>355</ele>
        <time>2015-11-29T10:58:08.000Z</time>
      </trkpt>
      <trkpt lat="47.50377" lon="6.74484">
        <ele>355</ele>
        <time>2015-11-29T10:58:09.000Z</time>
      </trkpt>
      <trkpt lat="47.50378" lon="6.74491">
        <ele>355</ele>
        <time>2015-11-29T10:58:10.000Z</time>
      </trkpt>
      <trkpt lat="47.50378" lon="6.74499">
        <ele>355</ele>
        <time>2015-11-29T10:58:11.000Z</time>
      </trkpt>
      <trkpt lat="47.5038" lon="6.74505">
        <ele>353</ele>
        <time>2015-11-29T10:58:12.000Z</time>
      </trkpt>
      <trkpt lat="47.50383" lon="6.74511">
        <ele>353</ele>
        <time>2015-11-29T10:58:13.000Z</time>
      </trkpt>
      <trkpt lat="47.50383" lon="6.7452">
        <ele>353</ele>
        <time>2015-11-29T10:58:14.000Z</time>
      </trkpt>
      <trkpt lat="47.50384" lon="6.74527">
        <ele>353</ele>
        <time>2015-11-29T10:58:15.000Z</time>
      </trkpt>
      <trkpt lat="47.50385" lon="6.74534">
        <ele>353</ele>
        <time>2015-11-29T10:58:16.000Z</time>
      </trkpt>
      <trkpt lat="47.50386" lon="6.74541">
        <ele>353</ele>
        <time>2015-11-29T10:58:17.000Z</time>
      </trkpt>
      <trkpt lat="47.50387" lon="6.74546">
        <ele>353</ele>
        <time>2015-11-29T10:58:18.000Z</time>
      </trkpt>
      <trkpt lat="47.50388" lon="6.74552">
        <ele>353</ele>
        <time>2015-11-29T10:58:19.000Z</time>
      </trkpt>
      <trkpt lat="47.50389" lon="6.74557">
        <ele>353</ele>
        <time>2015-11-29T10:58:20.000Z</time>
      </trkpt>
      <trkpt lat="47.5039" lon="6.74563">
        <ele>353</ele>
        <time>2015-11-29T10:58:21.000Z</time>
      </trkpt>
      <trkpt lat="47.5039" lon="6.74569">
        <ele>353</ele>
        <time>2015-11-29T10:58:22.000Z</time>
      </trkpt>
      <trkpt lat="47.50391" lon="6.74574">
        <ele>353</ele>
        <time>2015-11-29T10:58:23.000Z</time>
      </trkpt>
      <trkpt lat="47.50391" lon="6.74579">
        <ele>353</ele>
        <time>2015-11-29T10:58:24.000Z</time>
      </trkpt>
      <trkpt lat="47.50392" lon="6.74584">
        <ele>352</ele>
        <time>2015-11-29T10:58:25.000Z</time>
      </trkpt>
      <trkpt lat="47.50393" lon="6.7459">
        <ele>352</ele>
        <time>2015-11-29T10:58:26.000Z</time>
      </trkpt>
      <trkpt lat="47.50393" lon="6.74595">
        <ele>352</ele>
        <time>2015-11-29T10:58:27.000Z</time>
      </trkpt>
      <trkpt lat="47.50394" lon="6.74601">
        <ele>352</ele>
        <time>2015-11-29T10:58:28.000Z</time>
      </trkpt>
      <trkpt lat="47.50395" lon="6.74607">
        <ele>352</ele>
        <time>2015-11-29T10:58:29.000Z</time>
      </trkpt>
      <trkpt lat="47.50395" lon="6.74613">
        <ele>352</ele>
        <time>2015-11-29T10:58:30.000Z</time>
      </trkpt>
      <trkpt lat="47.50396" lon="6.74619">
        <ele>352</ele>
        <time>2015-11-29T10:58:31.000Z</time>
      </trkpt>
      <trkpt lat="47.50397" lon="6.74625">
        <ele>352</ele>
        <time>2015-11-29T10:58:32.000Z</time>
      </trkpt>
      <trkpt lat="47.50398" lon="6.74631">
        <ele>352</ele>
        <time>2015-11-29T10:58:33.000Z</time>
      </trkpt>
      <trkpt lat="47.50399" lon="6.74637">
        <ele>352</ele>
        <time>2015-11-29T10:58:34.000Z</time>
      </trkpt>
      <trkpt lat="47.504" lon="6.74644">
        <ele>352</ele>
        <time>2015-11-29T10:58:35.000Z</time>
      </trkpt>
      <trkpt lat="47.504" lon="6.7465">
        <ele>352</ele>
        <time>2015-11-29T10:58:36.000Z</time>
      </trkpt>
      <trkpt lat="47.50401" lon="6.74656">
        <ele>353</ele>
        <time>2015-11-29T10:58:37.000Z</time>
      </trkpt>
      <trkpt lat="47.50402" lon="6.74662">
        <ele>353</ele>
        <time>2015-11-29T10:58:38.000Z</time>
      </trkpt>
      <trkpt lat="47.50402" lon="6.74668">
        <ele>353</ele>
        <time>2015-11-29T10:58:39.000Z</time>
      </trkpt>
      <trkpt lat="47.50403" lon="6.74674">
        <ele>352</ele>
        <time>2015-11-29T10:58:40.000Z</time>
      </trkpt>
      <trkpt lat="47.50403" lon="6.7468">
        <ele>352</ele>
        <time>2015-11-29T10:58:41.000Z</time>
      </trkpt>
      <trkpt lat="47.50404" lon="6.74686">
        <ele>352</ele>
        <time>2015-11-29T10:58:42.000Z</time>
      </trkpt>
      <trkpt lat="47.50404" lon="6.74692">
        <ele>352</ele>
        <time>2015-11-29T10:58:43.000Z</time>
      </trkpt>
      <trkpt lat="47.50404" lon="6.74698">
        <ele>352</ele>
        <time>2015-11-29T10:58:44.000Z</time>
      </trkpt>
      <trkpt lat="47.50404" lon="6.74704">
        <ele>352</ele>
        <time>2015-11-29T10:58:45.000Z</time>
      </trkpt>
      <trkpt lat="47.50405" lon="6.7471">
        <ele>352</ele>
        <time>2015-11-29T10:58:46.000Z</time>
      </trkpt>
      <trkpt lat="47.50406" lon="6.74716">
        <ele>352</ele>
        <time>2015-11-29T10:58:47.000Z</time>
      </trkpt>
      <trkpt lat="47.50407" lon="6.74722">
        <ele>352</ele>
        <time>2015-11-29T10:58:48.000Z</time>
      </trkpt>
      <trkpt lat="47.50408" lon="6.74727">
        <ele>352</ele>
        <time>2015-11-29T10:58:49.000Z</time>
      </trkpt>
      <trkpt lat="47.5041" lon="6.74733">
        <ele>352</ele>
        <time>2015-11-29T10:58:50.000Z</time>
      </trkpt>
      <trkpt lat="47.50411" lon="6.74739">
        <ele>353</ele>
        <time>2015-11-29T10:58:51.000Z</time>
      </trkpt>
      <trkpt lat="47.50412" lon="6.74745">
        <ele>353</ele>
        <time>2015-11-29T10:58:52.000Z</time>
      </trkpt>
      <trkpt lat="47.50414" lon="6.74751">
        <ele>354</ele>
        <time>2015-11-29T10:58:53.000Z</time>
      </trkpt>
      <trkpt lat="47.50415" lon="6.74757">
        <ele>353</ele>
        <time>2015-11-29T10:58:54.000Z</time>
      </trkpt>
      <trkpt lat="47.50417" lon="6.74763">
        <ele>353</ele>
        <time>2015-11-29T10:58:55.000Z</time>
      </trkpt>
      <trkpt lat="47.50418" lon="6.74769">
        <ele>352</ele>
        <time>2015-11-29T10:58:56.000Z</time>
      </trkpt>
      <trkpt lat="47.5042" lon="6.74776">
        <ele>352</ele>
        <time>2015-11-29T10:58:57.000Z</time>
      </trkpt>
      <trkpt lat="47.50422" lon="6.74782">
        <ele>352</ele>
        <time>2015-11-29T10:58:58.000Z</time>
      </trkpt>
      <trkpt lat="47.50425" lon="6.74789">
        <ele>352</ele>
        <time>2015-11-29T10:58:59.000Z</time>
      </trkpt>
      <trkpt lat="47.50428" lon="6.74795">
        <ele>352</ele>
        <time>2015-11-29T10:59:00.000Z</time>
      </trkpt>
      <trkpt lat="47.50431" lon="6.748">
        <ele>351</ele>
        <time>2015-11-29T10:59:01.000Z</time>
      </trkpt>
      <trkpt lat="47.50434" lon="6.74805">
        <ele>351</ele>
        <time>2015-11-29T10:59:02.000Z</time>
      </trkpt>
      <trkpt lat="47.50436" lon="6.7481">
        <ele>351</ele>
        <time>2015-11-29T10:59:03.000Z</time>
      </trkpt>
      <trkpt lat="47.5044" lon="6.74816">
        <ele>351</ele>
        <time>2015-11-29T10:59:04.000Z</time>
      </trkpt>
      <trkpt lat="47.50443" lon="6.7482">
        <ele>351</ele>
        <time>2015-11-29T10:59:05.000Z</time>
      </trkpt>
      <trkpt lat="47.50446" lon="6.74824">
        <ele>351</ele>
        <time>2015-11-29T10:59:06.000Z</time>
      </trkpt>
      <trkpt lat="47.50452" lon="6.74828">
        <ele>351</ele>
        <time>2015-11-29T10:59:07.000Z</time>
      </trkpt>
      <trkpt lat="47.50457" lon="6.74832">
        <ele>351</ele>
        <time>2015-11-29T10:59:08.000Z</time>
      </trkpt>
      <trkpt lat="47.50462" lon="6.74836">
        <ele>349</ele>
        <time>2015-11-29T10:59:09.000Z</time>
      </trkpt>
      <trkpt lat="47.50468" lon="6.74839">
        <ele>348</ele>
        <time>2015-11-29T10:59:10.000Z</time>
      </trkpt>
      <trkpt lat="47.50474" lon="6.74844">
        <ele>348</ele>
        <time>2015-11-29T10:59:11.000Z</time>
      </trkpt>
      <trkpt lat="47.50479" lon="6.74848">
        <ele>348</ele>
        <time>2015-11-29T10:59:12.000Z</time>
      </trkpt>
      <trkpt lat="47.50486" lon="6.74854">
        <ele>348</ele>
        <time>2015-11-29T10:59:13.000Z</time>
      </trkpt>
      <trkpt lat="47.50492" lon="6.74861">
        <ele>348</ele>
        <time>2015-11-29T10:59:14.000Z</time>
      </trkpt>
      <trkpt lat="47.50497" lon="6.7487">
        <ele>348</ele>
        <time>2015-11-29T10:59:15.000Z</time>
      </trkpt>
      <trkpt lat="47.50502" lon="6.74879">
        <ele>342</ele>
        <time>2015-11-29T10:59:16.000Z</time>
      </trkpt>
      <trkpt lat="47.50506" lon="6.74889">
        <ele>342</ele>
        <time>2015-11-29T10:59:17.000Z</time>
      </trkpt>
      <trkpt lat="47.5051" lon="6.74899">
        <ele>342</ele>
        <time>2015-11-29T10:59:18.000Z</time>
      </trkpt>
      <trkpt lat="47.50514" lon="6.74909">
        <ele>343</ele>
        <time>2015-11-29T10:59:19.000Z</time>
      </trkpt>
      <trkpt lat="47.50517" lon="6.7492">
        <ele>341</ele>
        <time>2015-11-29T10:59:20.000Z</time>
      </trkpt>
      <trkpt lat="47.50519" lon="6.7493">
        <ele>340</ele>
        <time>2015-11-29T10:59:21.000Z</time>
      </trkpt>
      <trkpt lat="47.5052" lon="6.7494">
        <ele>339</ele>
        <time>2015-11-29T10:59:22.000Z</time>
      </trkpt>
      <trkpt lat="47.5052" lon="6.74952">
        <ele>338</ele>
        <time>2015-11-29T10:59:23.000Z</time>
      </trkpt>
      <trkpt lat="47.50519" lon="6.74965">
        <ele>338</ele>
        <time>2015-11-29T10:59:24.000Z</time>
      </trkpt>
      <trkpt lat="47.50515" lon="6.74978">
        <ele>337</ele>
        <time>2015-11-29T10:59:25.000Z</time>
      </trkpt>
      <trkpt lat="47.50513" lon="6.7499">
        <ele>337</ele>
        <time>2015-11-29T10:59:26.000Z</time>
      </trkpt>
      <trkpt lat="47.5051" lon="6.75003">
        <ele>337</ele>
        <time>2015-11-29T10:59:27.000Z</time>
      </trkpt>
      <trkpt lat="47.5051" lon="6.75017">
        <ele>336</ele>
        <time>2015-11-29T10:59:28.000Z</time>
      </trkpt>
      <trkpt lat="47.5051" lon="6.7503">
        <ele>335</ele>
        <time>2015-11-29T10:59:29.000Z</time>
      </trkpt>
      <trkpt lat="47.50509" lon="6.75043">
        <ele>335</ele>
        <time>2015-11-29T10:59:30.000Z</time>
      </trkpt>
      <trkpt lat="47.50508" lon="6.75057">
        <ele>334</ele>
        <time>2015-11-29T10:59:31.000Z</time>
      </trkpt>
      <trkpt lat="47.50508" lon="6.7507">
        <ele>334</ele>
        <time>2015-11-29T10:59:32.000Z</time>
      </trkpt>
      <trkpt lat="47.50508" lon="6.75086">
        <ele>333</ele>
        <time>2015-11-29T10:59:33.000Z</time>
      </trkpt>
      <trkpt lat="47.50508" lon="6.751">
        <ele>332</ele>
        <time>2015-11-29T10:59:34.000Z</time>
      </trkpt>
      <trkpt lat="47.5051" lon="6.7511">
        <ele>332</ele>
        <time>2015-11-29T10:59:35.000Z</time>
      </trkpt>
      <trkpt lat="47.5051" lon="6.75121">
        <ele>331</ele>
        <time>2015-11-29T10:59:36.000Z</time>
      </trkpt>
      <trkpt lat="47.50512" lon="6.7513">
        <ele>331</ele>
        <time>2015-11-29T10:59:37.000Z</time>
      </trkpt>
      <trkpt lat="47.5051" lon="6.75141">
        <ele>330</ele>
        <time>2015-11-29T10:59:38.000Z</time>
      </trkpt>
      <trkpt lat="47.50509" lon="6.7515">
        <ele>330</ele>
        <time>2015-11-29T10:59:39.000Z</time>
      </trkpt>
      <trkpt lat="47.50506" lon="6.75155">
        <ele>329</ele>
        <time>2015-11-29T10:59:40.000Z</time>
      </trkpt>
      <trkpt lat="47.50501" lon="6.75162">
        <ele>329</ele>
        <time>2015-11-29T10:59:41.000Z</time>
      </trkpt>
      <trkpt lat="47.50493" lon="6.75161">
        <ele>330</ele>
        <time>2015-11-29T10:59:42.000Z</time>
      </trkpt>
      <trkpt lat="47.50487" lon="6.75165">
        <ele>331</ele>
        <time>2015-11-29T10:59:43.000Z</time>
      </trkpt>
      <trkpt lat="47.50485" lon="6.7517">
        <ele>328</ele>
        <time>2015-11-29T10:59:44.000Z</time>
      </trkpt>
      <trkpt lat="47.50483" lon="6.75175">
        <ele>328</ele>
        <time>2015-11-29T10:59:45.000Z</time>
      </trkpt>
      <trkpt lat="47.50483" lon="6.75183">
        <ele>328</ele>
        <time>2015-11-29T10:59:46.000Z</time>
      </trkpt>
      <trkpt lat="47.50483" lon="6.75192">
        <ele>327</ele>
        <time>2015-11-29T10:59:47.000Z</time>
      </trkpt>
      <trkpt lat="47.50483" lon="6.752">
        <ele>327</ele>
        <time>2015-11-29T10:59:48.000Z</time>
      </trkpt>
      <trkpt lat="47.50485" lon="6.75209">
        <ele>327</ele>
        <time>2015-11-29T10:59:49.000Z</time>
      </trkpt>
      <trkpt lat="47.50486" lon="6.75218">
        <ele>327</ele>
        <time>2015-11-29T10:59:50.000Z</time>
      </trkpt>
      <trkpt lat="47.50485" lon="6.75227">
        <ele>326</ele>
        <time>2015-11-29T10:59:51.000Z</time>
      </trkpt>
      <trkpt lat="47.50486" lon="6.75236">
        <ele>326</ele>
        <time>2015-11-29T10:59:52.000Z</time>
      </trkpt>
      <trkpt lat="47.50488" lon="6.75244">
        <ele>326</ele>
        <time>2015-11-29T10:59:53.000Z</time>
      </trkpt>
      <trkpt lat="47.5049" lon="6.75253">
        <ele>325</ele>
        <time>2015-11-29T10:59:54.000Z</time>
      </trkpt>
      <trkpt lat="47.50491" lon="6.75261">
        <ele>325</ele>
        <time>2015-11-29T10:59:55.000Z</time>
      </trkpt>
      <trkpt lat="47.50492" lon="6.75269">
        <ele>325</ele>
        <time>2015-11-29T10:59:56.000Z</time>
      </trkpt>
      <trkpt lat="47.50494" lon="6.75276">
        <ele>325</ele>
        <time>2015-11-29T10:59:57.000Z</time>
      </trkpt>
      <trkpt lat="47.50494" lon="6.75283">
        <ele>325</ele>
        <time>2015-11-29T10:59:58.000Z</time>
      </trkpt>
      <trkpt lat="47.50495" lon="6.75289">
        <ele>325</ele>
        <time>2015-11-29T10:59:59.000Z</time>
      </trkpt>
      <trkpt lat="47.50496" lon="6.75295">
        <ele>325</ele>
        <time>2015-11-29T11:00:00.000Z</time>
      </trkpt>
      <trkpt lat="47.50496" lon="6.75301">
        <ele>325</ele>
        <time>2015-11-29T11:00:01.000Z</time>
      </trkpt>
      <trkpt lat="47.50497" lon="6.75308">
        <ele>325</ele>
        <time>2015-11-29T11:00:02.000Z</time>
      </trkpt>
      <trkpt lat="47.50498" lon="6.75314">
        <ele>326</ele>
        <time>2015-11-29T11:00:03.000Z</time>
      </trkpt>
      <trkpt lat="47.50499" lon="6.75321">
        <ele>326</ele>
        <time>2015-11-29T11:00:04.000Z</time>
      </trkpt>
      <trkpt lat="47.505" lon="6.75328">
        <ele>326</ele>
        <time>2015-11-29T11:00:05.000Z</time>
      </trkpt>
      <trkpt lat="47.50501" lon="6.75334">
        <ele>326</ele>
        <time>2015-11-29T11:00:06.000Z</time>
      </trkpt>
      <trkpt lat="47.50503" lon="6.75339">
        <ele>327</ele>
        <time>2015-11-29T11:00:07.000Z</time>
      </trkpt>
      <trkpt lat="47.50504" lon="6.75345">
        <ele>328</ele>
        <time>2015-11-29T11:00:08.000Z</time>
      </trkpt>
      <trkpt lat="47.50507" lon="6.7535">
        <ele>329</ele>
        <time>2015-11-29T11:00:09.000Z</time>
      </trkpt>
      <trkpt lat="47.5051" lon="6.75354">
        <ele>329</ele>
        <time>2015-11-29T11:00:10.000Z</time>
      </trkpt>
      <trkpt lat="47.50512" lon="6.75358">
        <ele>330</ele>
        <time>2015-11-29T11:00:11.000Z</time>
      </trkpt>
      <trkpt lat="47.50516" lon="6.75362">
        <ele>330</ele>
        <time>2015-11-29T11:00:12.000Z</time>
      </trkpt>
      <trkpt lat="47.50519" lon="6.75366">
        <ele>330</ele>
        <time>2015-11-29T11:00:13.000Z</time>
      </trkpt>
      <trkpt lat="47.50523" lon="6.75369">
        <ele>331</ele>
        <time>2015-11-29T11:00:14.000Z</time>
      </trkpt>
      <trkpt lat="47.50527" lon="6.75371">
        <ele>331</ele>
        <time>2015-11-29T11:00:15.000Z</time>
      </trkpt>
      <trkpt lat="47.50531" lon="6.75374">
        <ele>331</ele>
        <time>2015-11-29T11:00:16.000Z</time>
      </trkpt>
      <trkpt lat="47.50534" lon="6.75377">
        <ele>331</ele>
        <time>2015-11-29T11:00:17.000Z</time>
      </trkpt>
      <trkpt lat="47.50538" lon="6.75379">
        <ele>331</ele>
        <time>2015-11-29T11:00:18.000Z</time>
      </trkpt>
      <trkpt lat="47.50541" lon="6.75381">
        <ele>331</ele>
        <time>2015-11-29T11:00:19.000Z</time>
      </trkpt>
      <trkpt lat="47.50544" lon="6.75384">
        <ele>332</ele>
        <time>2015-11-29T11:00:20.000Z</time>
      </trkpt>
      <trkpt lat="47.50548" lon="6.75386">
        <ele>332</ele>
        <time>2015-11-29T11:00:21.000Z</time>
      </trkpt>
      <trkpt lat="47.50552" lon="6.75388">
        <ele>332</ele>
        <time>2015-11-29T11:00:22.000Z</time>
      </trkpt>
      <trkpt lat="47.50556" lon="6.75389">
        <ele>332</ele>
        <time>2015-11-29T11:00:23.000Z</time>
      </trkpt>
      <trkpt lat="47.50561" lon="6.75389">
        <ele>332</ele>
        <time>2015-11-29T11:00:24.000Z</time>
      </trkpt>
      <trkpt lat="47.50565" lon="6.7539">
        <ele>332</ele>
        <time>2015-11-29T11:00:25.000Z</time>
      </trkpt>
      <trkpt lat="47.50569" lon="6.75391">
        <ele>332</ele>
        <time>2015-11-29T11:00:26.000Z</time>
      </trkpt>
      <trkpt lat="47.50573" lon="6.75392">
        <ele>332</ele>
        <time>2015-11-29T11:00:27.000Z</time>
      </trkpt>
      <trkpt lat="47.50577" lon="6.75393">
        <ele>333</ele>
        <time>2015-11-29T11:00:28.000Z</time>
      </trkpt>
      <trkpt lat="47.50581" lon="6.75394">
        <ele>333</ele>
        <time>2015-11-29T11:00:29.000Z</time>
      </trkpt>
      <trkpt lat="47.50585" lon="6.75394">
        <ele>333</ele>
        <time>2015-11-29T11:00:30.000Z</time>
      </trkpt>
      <trkpt lat="47.50589" lon="6.75394">
        <ele>333</ele>
        <time>2015-11-29T11:00:31.000Z</time>
      </trkpt>
      <trkpt lat="47.50593" lon="6.75395">
        <ele>333</ele>
        <time>2015-11-29T11:00:32.000Z</time>
      </trkpt>
      <trkpt lat="47.50597" lon="6.75395">
        <ele>332</ele>
        <time>2015-11-29T11:00:33.000Z</time>
      </trkpt>
      <trkpt lat="47.50601" lon="6.75396">
        <ele>332</ele>
        <time>2015-11-29T11:00:34.000Z</time>
      </trkpt>
      <trkpt lat="47.50605" lon="6.75396">
        <ele>332</ele>
        <time>2015-11-29T11:00:35.000Z</time>
      </trkpt>
      <trkpt lat="47.50608" lon="6.75397">
        <ele>332</ele>
        <time>2015-11-29T11:00:36.000Z</time>
      </trkpt>
      <trkpt lat="47.50612" lon="6.75397">
        <ele>332</ele>
        <time>2015-11-29T11:00:37.000Z</time>
      </trkpt>
      <trkpt lat="47.50616" lon="6.75397">
        <ele>332</ele>
        <time>2015-11-29T11:00:38.000Z</time>
      </trkpt>
      <trkpt lat="47.5062" lon="6.75397">
        <ele>332</ele>
        <time>2015-11-29T11:00:39.000Z</time>
      </trkpt>
      <trkpt lat="47.50624" lon="6.75398">
        <ele>332</ele>
        <time>2015-11-29T11:00:40.000Z</time>
      </trkpt>
      <trkpt lat="47.50627" lon="6.75399">
        <ele>332</ele>
        <time>2015-11-29T11:00:41.000Z</time>
      </trkpt>
      <trkpt lat="47.50631" lon="6.754">
        <ele>332</ele>
        <time>2015-11-29T11:00:42.000Z</time>
      </trkpt>
      <trkpt lat="47.50634" lon="6.75401">
        <ele>332</ele>
        <time>2015-11-29T11:00:43.000Z</time>
      </trkpt>
      <trkpt lat="47.50636" lon="6.75401">
        <ele>332</ele>
        <time>2015-11-29T11:00:44.000Z</time>
      </trkpt>
      <trkpt lat="47.50639" lon="6.75401">
        <ele>332</ele>
        <time>2015-11-29T11:00:45.000Z</time>
      </trkpt>
      <trkpt lat="47.50641" lon="6.75401">
        <ele>332</ele>
        <time>2015-11-29T11:00:46.000Z</time>
      </trkpt>
      <trkpt lat="47.50643" lon="6.75401">
        <ele>332</ele>
        <time>2015-11-29T11:00:47.000Z</time>
      </trkpt>
      <trkpt lat="47.50646" lon="6.75401">
        <ele>332</ele>
        <time>2015-11-29T11:00:48.000Z</time>
      </trkpt>
      <trkpt lat="47.50649" lon="6.75401">
        <ele>332</ele>
        <time>2015-11-29T11:00:49.000Z</time>
      </trkpt>
      <trkpt lat="47.50652" lon="6.75401">
        <ele>332</ele>
        <time>2015-11-29T11:00:50.000Z</time>
      </trkpt>
      <trkpt lat="47.50657" lon="6.75404">
        <ele>333</ele>
        <time>2015-11-29T11:00:52.000Z</time>
      </trkpt>
      <trkpt lat="47.5066" lon="6.75406">
        <ele>333</ele>
        <time>2015-11-29T11:00:53.000Z</time>
      </trkpt>
      <trkpt lat="47.50663" lon="6.75408">
        <ele>333</ele>
        <time>2015-11-29T11:00:54.000Z</time>
      </trkpt>
      <trkpt lat="47.50665" lon="6.75411">
        <ele>333</ele>
        <time>2015-11-29T11:00:55.000Z</time>
      </trkpt>
      <trkpt lat="47.50667" lon="6.75413">
        <ele>334</ele>
        <time>2015-11-29T11:00:56.000Z</time>
      </trkpt>
      <trkpt lat="47.50669" lon="6.75415">
        <ele>334</ele>
        <time>2015-11-29T11:00:57.000Z</time>
      </trkpt>
      <trkpt lat="47.50671" lon="6.75418">
        <ele>335</ele>
        <time>2015-11-29T11:00:58.000Z</time>
      </trkpt>
      <trkpt lat="47.50673" lon="6.75421">
        <ele>335</ele>
        <time>2015-11-29T11:00:59.000Z</time>
      </trkpt>
      <trkpt lat="47.50674" lon="6.75424">
        <ele>336</ele>
        <time>2015-11-29T11:01:00.000Z</time>
      </trkpt>
      <trkpt lat="47.50676" lon="6.75428">
        <ele>337</ele>
        <time>2015-11-29T11:01:01.000Z</time>
      </trkpt>
      <trkpt lat="47.50678" lon="6.75431">
        <ele>337</ele>
        <time>2015-11-29T11:01:02.000Z</time>
      </trkpt>
      <trkpt lat="47.50679" lon="6.75434">
        <ele>337</ele>
        <time>2015-11-29T11:01:03.000Z</time>
      </trkpt>
      <trkpt lat="47.50681" lon="6.75437">
        <ele>338</ele>
        <time>2015-11-29T11:01:04.000Z</time>
      </trkpt>
      <trkpt lat="47.50683" lon="6.7544">
        <ele>338</ele>
        <time>2015-11-29T11:01:05.000Z</time>
      </trkpt>
      <trkpt lat="47.50684" lon="6.75443">
        <ele>338</ele>
        <time>2015-11-29T11:01:06.000Z</time>
      </trkpt>
      <trkpt lat="47.50686" lon="6.75447">
        <ele>339</ele>
        <time>2015-11-29T11:01:07.000Z</time>
      </trkpt>
      <trkpt lat="47.50688" lon="6.7545">
        <ele>339</ele>
        <time>2015-11-29T11:01:08.000Z</time>
      </trkpt>
      <trkpt lat="47.50689" lon="6.75454">
        <ele>339</ele>
        <time>2015-11-29T11:01:09.000Z</time>
      </trkpt>
      <trkpt lat="47.5069" lon="6.75457">
        <ele>339</ele>
        <time>2015-11-29T11:01:10.000Z</time>
      </trkpt>
      <trkpt lat="47.50691" lon="6.75461">
        <ele>340</ele>
        <time>2015-11-29T11:01:11.000Z</time>
      </trkpt>
      <trkpt lat="47.50692" lon="6.75465">
        <ele>340</ele>
        <time>2015-11-29T11:01:12.000Z</time>
      </trkpt>
      <trkpt lat="47.50693" lon="6.75468">
        <ele>340</ele>
        <time>2015-11-29T11:01:13.000Z</time>
      </trkpt>
      <trkpt lat="47.50694" lon="6.75472">
        <ele>340</ele>
        <time>2015-11-29T11:01:14.000Z</time>
      </trkpt>
      <trkpt lat="47.50695" lon="6.75475">
        <ele>340</ele>
        <time>2015-11-29T11:01:15.000Z</time>
      </trkpt>
      <trkpt lat="47.50696" lon="6.75479">
        <ele>341</ele>
        <time>2015-11-29T11:01:16.000Z</time>
      </trkpt>
      <trkpt lat="47.50697" lon="6.75482">
        <ele>341</ele>
        <time>2015-11-29T11:01:17.000Z</time>
      </trkpt>
      <trkpt lat="47.50699" lon="6.75486">
        <ele>341</ele>
        <time>2015-11-29T11:01:18.000Z</time>
      </trkpt>
      <trkpt lat="47.507" lon="6.7549">
        <ele>341</ele>
        <time>2015-11-29T11:01:19.000Z</time>
      </trkpt>
      <trkpt lat="47.50701" lon="6.75494">
        <ele>341</ele>
        <time>2015-11-29T11:01:20.000Z</time>
      </trkpt>
      <trkpt lat="47.50703" lon="6.75499">
        <ele>341</ele>
        <time>2015-11-29T11:01:21.000Z</time>
      </trkpt>
      <trkpt lat="47.50704" lon="6.75503">
        <ele>346</ele>
        <time>2015-11-29T11:01:22.000Z</time>
      </trkpt>
      <trkpt lat="47.50705" lon="6.75507">
        <ele>346</ele>
        <time>2015-11-29T11:01:23.000Z</time>
      </trkpt>
      <trkpt lat="47.50707" lon="6.7551">
        <ele>346</ele>
        <time>2015-11-29T11:01:24.000Z</time>
      </trkpt>
      <trkpt lat="47.50708" lon="6.75514">
        <ele>346</ele>
        <time>2015-11-29T11:01:25.000Z</time>
      </trkpt>
      <trkpt lat="47.50709" lon="6.75517">
        <ele>347</ele>
        <time>2015-11-29T11:01:26.000Z</time>
      </trkpt>
      <trkpt lat="47.5071" lon="6.75521">
        <ele>347</ele>
        <time>2015-11-29T11:01:27.000Z</time>
      </trkpt>
      <trkpt lat="47.50711" lon="6.75525">
        <ele>347</ele>
        <time>2015-11-29T11:01:28.000Z</time>
      </trkpt>
      <trkpt lat="47.50712" lon="6.75529">
        <ele>347</ele>
        <time>2015-11-29T11:01:29.000Z</time>
      </trkpt>
      <trkpt lat="47.50713" lon="6.75532">
        <ele>347</ele>
        <time>2015-11-29T11:01:30.000Z</time>
      </trkpt>
      <trkpt lat="47.50714" lon="6.75536">
        <ele>347</ele>
        <time>2015-11-29T11:01:31.000Z</time>
      </trkpt>
      <trkpt lat="47.50715" lon="6.7554">
        <ele>347</ele>
        <time>2015-11-29T11:01:32.000Z</time>
      </trkpt>
      <trkpt lat="47.50715" lon="6.75543">
        <ele>348</ele>
        <time>2015-11-29T11:01:33.000Z</time>
      </trkpt>
      <trkpt lat="47.50716" lon="6.75547">
        <ele>348</ele>
        <time>2015-11-29T11:01:34.000Z</time>
      </trkpt>
      <trkpt lat="47.50717" lon="6.75551">
        <ele>348</ele>
        <time>2015-11-29T11:01:35.000Z</time>
      </trkpt>
      <trkpt lat="47.50717" lon="6.75555">
        <ele>348</ele>
        <time>2015-11-29T11:01:36.000Z</time>
      </trkpt>
      <trkpt lat="47.50718" lon="6.75559">
        <ele>348</ele>
        <time>2015-11-29T11:01:37.000Z</time>
      </trkpt>
      <trkpt lat="47.50718" lon="6.75563">
        <ele>348</ele>
        <time>2015-11-29T11:01:38.000Z</time>
      </trkpt>
      <trkpt lat="47.50719" lon="6.75567">
        <ele>349</ele>
        <time>2015-11-29T11:01:39.000Z</time>
      </trkpt>
      <trkpt lat="47.50719" lon="6.7557">
        <ele>349</ele>
        <time>2015-11-29T11:01:40.000Z</time>
      </trkpt>
      <trkpt lat="47.5072" lon="6.75574">
        <ele>349</ele>
        <time>2015-11-29T11:01:41.000Z</time>
      </trkpt>
      <trkpt lat="47.5072" lon="6.75578">
        <ele>349</ele>
        <time>2015-11-29T11:01:42.000Z</time>
      </trkpt>
      <trkpt lat="47.5072" lon="6.75581">
        <ele>349</ele>
        <time>2015-11-29T11:01:43.000Z</time>
      </trkpt>
      <trkpt lat="47.5072" lon="6.75585">
        <ele>353</ele>
        <time>2015-11-29T11:01:44.000Z</time>
      </trkpt>
      <trkpt lat="47.50721" lon="6.75589">
        <ele>354</ele>
        <time>2015-11-29T11:01:45.000Z</time>
      </trkpt>
      <trkpt lat="47.50721" lon="6.75592">
        <ele>354</ele>
        <time>2015-11-29T11:01:46.000Z</time>
      </trkpt>
      <trkpt lat="47.50721" lon="6.75595">
        <ele>354</ele>
        <time>2015-11-29T11:01:47.000Z</time>
      </trkpt>
      <trkpt lat="47.50722" lon="6.75599">
        <ele>354</ele>
        <time>2015-11-29T11:01:48.000Z</time>
      </trkpt>
      <trkpt lat="47.50722" lon="6.75603">
        <ele>354</ele>
        <time>2015-11-29T11:01:49.000Z</time>
      </trkpt>
      <trkpt lat="47.50722" lon="6.75607">
        <ele>354</ele>
        <time>2015-11-29T11:01:50.000Z</time>
      </trkpt>
      <trkpt lat="47.50722" lon="6.75611">
        <ele>354</ele>
        <time>2015-11-29T11:01:51.000Z</time>
      </trkpt>
      <trkpt lat="47.50722" lon="6.75615">
        <ele>355</ele>
        <time>2015-11-29T11:01:52.000Z</time>
      </trkpt>
      <trkpt lat="47.50722" lon="6.7562">
        <ele>355</ele>
        <time>2015-11-29T11:01:53.000Z</time>
      </trkpt>
      <trkpt lat="47.50723" lon="6.75624">
        <ele>355</ele>
        <time>2015-11-29T11:01:54.000Z</time>
      </trkpt>
      <trkpt lat="47.50723" lon="6.75627">
        <ele>355</ele>
        <time>2015-11-29T11:01:55.000Z</time>
      </trkpt>
      <trkpt lat="47.50723" lon="6.75631">
        <ele>355</ele>
        <time>2015-11-29T11:01:56.000Z</time>
      </trkpt>
      <trkpt lat="47.50723" lon="6.75634">
        <ele>356</ele>
        <time>2015-11-29T11:01:57.000Z</time>
      </trkpt>
      <trkpt lat="47.50723" lon="6.75638">
        <ele>356</ele>
        <time>2015-11-29T11:01:58.000Z</time>
      </trkpt>
      <trkpt lat="47.50723" lon="6.75642">
        <ele>356</ele>
        <time>2015-11-29T11:01:59.000Z</time>
      </trkpt>
      <trkpt lat="47.50724" lon="6.75646">
        <ele>356</ele>
        <time>2015-11-29T11:02:00.000Z</time>
      </trkpt>
      <trkpt lat="47.50724" lon="6.7565">
        <ele>356</ele>
        <time>2015-11-29T11:02:01.000Z</time>
      </trkpt>
      <trkpt lat="47.50724" lon="6.75653">
        <ele>356</ele>
        <time>2015-11-29T11:02:02.000Z</time>
      </trkpt>
      <trkpt lat="47.50725" lon="6.7566">
        <ele>357</ele>
        <time>2015-11-29T11:02:04.000Z</time>
      </trkpt>
      <trkpt lat="47.50725" lon="6.75663">
        <ele>357</ele>
        <time>2015-11-29T11:02:05.000Z</time>
      </trkpt>
      <trkpt lat="47.50725" lon="6.75667">
        <ele>361</ele>
        <time>2015-11-29T11:02:06.000Z</time>
      </trkpt>
      <trkpt lat="47.50725" lon="6.75671">
        <ele>362</ele>
        <time>2015-11-29T11:02:07.000Z</time>
      </trkpt>
      <trkpt lat="47.50725" lon="6.75675">
        <ele>362</ele>
        <time>2015-11-29T11:02:08.000Z</time>
      </trkpt>
      <trkpt lat="47.50725" lon="6.75678">
        <ele>362</ele>
        <time>2015-11-29T11:02:09.000Z</time>
      </trkpt>
      <trkpt lat="47.50724" lon="6.75682">
        <ele>362</ele>
        <time>2015-11-29T11:02:10.000Z</time>
      </trkpt>
      <trkpt lat="47.50724" lon="6.75685">
        <ele>362</ele>
        <time>2015-11-29T11:02:11.000Z</time>
      </trkpt>
      <trkpt lat="47.50724" lon="6.75689">
        <ele>362</ele>
        <time>2015-11-29T11:02:12.000Z</time>
      </trkpt>
      <trkpt lat="47.50723" lon="6.75692">
        <ele>363</ele>
        <time>2015-11-29T11:02:13.000Z</time>
      </trkpt>
      <trkpt lat="47.50722" lon="6.75695">
        <ele>363</ele>
        <time>2015-11-29T11:02:14.000Z</time>
      </trkpt>
      <trkpt lat="47.50722" lon="6.75699">
        <ele>363</ele>
        <time>2015-11-29T11:02:15.000Z</time>
      </trkpt>
      <trkpt lat="47.50721" lon="6.75702">
        <ele>363</ele>
        <time>2015-11-29T11:02:16.000Z</time>
      </trkpt>
      <trkpt lat="47.5072" lon="6.75705">
        <ele>363</ele>
        <time>2015-11-29T11:02:17.000Z</time>
      </trkpt>
      <trkpt lat="47.5072" lon="6.75709">
        <ele>364</ele>
        <time>2015-11-29T11:02:18.000Z</time>
      </trkpt>
      <trkpt lat="47.5072" lon="6.75713">
        <ele>364</ele>
        <time>2015-11-29T11:02:19.000Z</time>
      </trkpt>
      <trkpt lat="47.50719" lon="6.75717">
        <ele>364</ele>
        <time>2015-11-29T11:02:20.000Z</time>
      </trkpt>
      <trkpt lat="47.50719" lon="6.7572">
        <ele>364</ele>
        <time>2015-11-29T11:02:21.000Z</time>
      </trkpt>
      <trkpt lat="47.5072" lon="6.75726">
        <ele>364</ele>
        <time>2015-11-29T11:02:23.000Z</time>
      </trkpt>
      <trkpt lat="47.50721" lon="6.75729">
        <ele>364</ele>
        <time>2015-11-29T11:02:24.000Z</time>
      </trkpt>
      <trkpt lat="47.50721" lon="6.75733">
        <ele>365</ele>
        <time>2015-11-29T11:02:25.000Z</time>
      </trkpt>
      <trkpt lat="47.50722" lon="6.75736">
        <ele>365</ele>
        <time>2015-11-29T11:02:26.000Z</time>
      </trkpt>
      <trkpt lat="47.50723" lon="6.75742">
        <ele>365</ele>
        <time>2015-11-29T11:02:28.000Z</time>
      </trkpt>
      <trkpt lat="47.50723" lon="6.75746">
        <ele>365</ele>
        <time>2015-11-29T11:02:29.000Z</time>
      </trkpt>
      <trkpt lat="47.50723" lon="6.75751">
        <ele>369</ele>
        <time>2015-11-29T11:02:31.000Z</time>
      </trkpt>
      <trkpt lat="47.50723" lon="6.75753">
        <ele>369</ele>
        <time>2015-11-29T11:02:32.000Z</time>
      </trkpt>
      <trkpt lat="47.50723" lon="6.75759">
        <ele>369</ele>
        <time>2015-11-29T11:02:34.000Z</time>
      </trkpt>
      <trkpt lat="47.50723" lon="6.75762">
        <ele>370</ele>
        <time>2015-11-29T11:02:35.000Z</time>
      </trkpt>
      <trkpt lat="47.50724" lon="6.75768">
        <ele>370</ele>
        <time>2015-11-29T11:02:37.000Z</time>
      </trkpt>
      <trkpt lat="47.50725" lon="6.75771">
        <ele>370</ele>
        <time>2015-11-29T11:02:38.000Z</time>
      </trkpt>
      <trkpt lat="47.50726" lon="6.75775">
        <ele>370</ele>
        <time>2015-11-29T11:02:39.000Z</time>
      </trkpt>
      <trkpt lat="47.50728" lon="6.75779">
        <ele>370</ele>
        <time>2015-11-29T11:02:40.000Z</time>
      </trkpt>
      <trkpt lat="47.50729" lon="6.75783">
        <ele>371</ele>
        <time>2015-11-29T11:02:41.000Z</time>
      </trkpt>
      <trkpt lat="47.50731" lon="6.75787">
        <ele>371</ele>
        <time>2015-11-29T11:02:42.000Z</time>
      </trkpt>
      <trkpt lat="47.50731" lon="6.75791">
        <ele>371</ele>
        <time>2015-11-29T11:02:43.000Z</time>
      </trkpt>
      <trkpt lat="47.50732" lon="6.75794">
        <ele>371</ele>
        <time>2015-11-29T11:02:44.000Z</time>
      </trkpt>
      <trkpt lat="47.50733" lon="6.75801">
        <ele>371</ele>
        <time>2015-11-29T11:02:46.000Z</time>
      </trkpt>
      <trkpt lat="47.50734" lon="6.75803">
        <ele>371</ele>
        <time>2015-11-29T11:02:47.000Z</time>
      </trkpt>
      <trkpt lat="47.50735" lon="6.75809">
        <ele>372</ele>
        <time>2015-11-29T11:02:49.000Z</time>
      </trkpt>
      <trkpt lat="47.50735" lon="6.75812">
        <ele>372</ele>
        <time>2015-11-29T11:02:50.000Z</time>
      </trkpt>
      <trkpt lat="47.50735" lon="6.75818">
        <ele>372</ele>
        <time>2015-11-29T11:02:52.000Z</time>
      </trkpt>
      <trkpt lat="47.50735" lon="6.7582">
        <ele>372</ele>
        <time>2015-11-29T11:02:53.000Z</time>
      </trkpt>
      <trkpt lat="47.50735" lon="6.75825">
        <ele>372</ele>
        <time>2015-11-29T11:02:55.000Z</time>
      </trkpt>
      <trkpt lat="47.50735" lon="6.75828">
        <ele>372</ele>
        <time>2015-11-29T11:02:56.000Z</time>
      </trkpt>
      <trkpt lat="47.50736" lon="6.75832">
        <ele>372</ele>
        <time>2015-11-29T11:02:57.000Z</time>
      </trkpt>
      <trkpt lat="47.50736" lon="6.75836">
        <ele>375</ele>
        <time>2015-11-29T11:02:58.000Z</time>
      </trkpt>
      <trkpt lat="47.50736" lon="6.7584">
        <ele>375</ele>
        <time>2015-11-29T11:02:59.000Z</time>
      </trkpt>
      <trkpt lat="47.50736" lon="6.75844">
        <ele>375</ele>
        <time>2015-11-29T11:03:00.000Z</time>
      </trkpt>
      <trkpt lat="47.50736" lon="6.75847">
        <ele>375</ele>
        <time>2015-11-29T11:03:01.000Z</time>
      </trkpt>
      <trkpt lat="47.50736" lon="6.75851">
        <ele>376</ele>
        <time>2015-11-29T11:03:02.000Z</time>
      </trkpt>
      <trkpt lat="47.50736" lon="6.75855">
        <ele>376</ele>
        <time>2015-11-29T11:03:03.000Z</time>
      </trkpt>
      <trkpt lat="47.50736" lon="6.75858">
        <ele>376</ele>
        <time>2015-11-29T11:03:04.000Z</time>
      </trkpt>
      <trkpt lat="47.50735" lon="6.75862">
        <ele>376</ele>
        <time>2015-11-29T11:03:05.000Z</time>
      </trkpt>
      <trkpt lat="47.50735" lon="6.75866">
        <ele>377</ele>
        <time>2015-11-29T11:03:06.000Z</time>
      </trkpt>
      <trkpt lat="47.50735" lon="6.7587">
        <ele>377</ele>
        <time>2015-11-29T11:03:07.000Z</time>
      </trkpt>
      <trkpt lat="47.50736" lon="6.75874">
        <ele>377</ele>
        <time>2015-11-29T11:03:08.000Z</time>
      </trkpt>
      <trkpt lat="47.50736" lon="6.75878">
        <ele>377</ele>
        <time>2015-11-29T11:03:09.000Z</time>
      </trkpt>
      <trkpt lat="47.50736" lon="6.75881">
        <ele>377</ele>
        <time>2015-11-29T11:03:10.000Z</time>
      </trkpt>
      <trkpt lat="47.50737" lon="6.75884">
        <ele>377</ele>
        <time>2015-11-29T11:03:11.000Z</time>
      </trkpt>
      <trkpt lat="47.50737" lon="6.75888">
        <ele>378</ele>
        <time>2015-11-29T11:03:12.000Z</time>
      </trkpt>
      <trkpt lat="47.50737" lon="6.75894">
        <ele>378</ele>
        <time>2015-11-29T11:03:14.000Z</time>
      </trkpt>
      <trkpt lat="47.50737" lon="6.75897">
        <ele>378</ele>
        <time>2015-11-29T11:03:15.000Z</time>
      </trkpt>
      <trkpt lat="47.50736" lon="6.75904">
        <ele>378</ele>
        <time>2015-11-29T11:03:17.000Z</time>
      </trkpt>
      <trkpt lat="47.50736" lon="6.75907">
        <ele>378</ele>
        <time>2015-11-29T11:03:18.000Z</time>
      </trkpt>
      <trkpt lat="47.50736" lon="6.75913">
        <ele>378</ele>
        <time>2015-11-29T11:03:20.000Z</time>
      </trkpt>
      <trkpt lat="47.50736" lon="6.75917">
        <ele>380</ele>
        <time>2015-11-29T11:03:21.000Z</time>
      </trkpt>
      <trkpt lat="47.50736" lon="6.7592">
        <ele>380</ele>
        <time>2015-11-29T11:03:22.000Z</time>
      </trkpt>
      <trkpt lat="47.50736" lon="6.75924">
        <ele>380</ele>
        <time>2015-11-29T11:03:23.000Z</time>
      </trkpt>
      <trkpt lat="47.50735" lon="6.75927">
        <ele>380</ele>
        <time>2015-11-29T11:03:24.000Z</time>
      </trkpt>
      <trkpt lat="47.50735" lon="6.75931">
        <ele>381</ele>
        <time>2015-11-29T11:03:25.000Z</time>
      </trkpt>
      <trkpt lat="47.50735" lon="6.75934">
        <ele>381</ele>
        <time>2015-11-29T11:03:26.000Z</time>
      </trkpt>
      <trkpt lat="47.50735" lon="6.75937">
        <ele>381</ele>
        <time>2015-11-29T11:03:27.000Z</time>
      </trkpt>
      <trkpt lat="47.50734" lon="6.75943">
        <ele>381</ele>
        <time>2015-11-29T11:03:29.000Z</time>
      </trkpt>
      <trkpt lat="47.50734" lon="6.75946">
        <ele>382</ele>
        <time>2015-11-29T11:03:30.000Z</time>
      </trkpt>
      <trkpt lat="47.50734" lon="6.75949">
        <ele>382</ele>
        <time>2015-11-29T11:03:31.000Z</time>
      </trkpt>
      <trkpt lat="47.50734" lon="6.75953">
        <ele>382</ele>
        <time>2015-11-29T11:03:32.000Z</time>
      </trkpt>
      <trkpt lat="47.50733" lon="6.75957">
        <ele>382</ele>
        <time>2015-11-29T11:03:33.000Z</time>
      </trkpt>
      <trkpt lat="47.50733" lon="6.7596">
        <ele>382</ele>
        <time>2015-11-29T11:03:34.000Z</time>
      </trkpt>
      <trkpt lat="47.50732" lon="6.75966">
        <ele>382</ele>
        <time>2015-11-29T11:03:36.000Z</time>
      </trkpt>
      <trkpt lat="47.50731" lon="6.7597">
        <ele>382</ele>
        <time>2015-11-29T11:03:37.000Z</time>
      </trkpt>
      <trkpt lat="47.5073" lon="6.75975">
        <ele>382</ele>
        <time>2015-11-29T11:03:38.000Z</time>
      </trkpt>
      <trkpt lat="47.5073" lon="6.7598">
        <ele>382</ele>
        <time>2015-11-29T11:03:39.000Z</time>
      </trkpt>
      <trkpt lat="47.50729" lon="6.75985">
        <ele>383</ele>
        <time>2015-11-29T11:03:40.000Z</time>
      </trkpt>
      <trkpt lat="47.50729" lon="6.7599">
        <ele>383</ele>
        <time>2015-11-29T11:03:41.000Z</time>
      </trkpt>
      <trkpt lat="47.50728" lon="6.75995">
        <ele>383</ele>
        <time>2015-11-29T11:03:42.000Z</time>
      </trkpt>
      <trkpt lat="47.50728" lon="6.76">
        <ele>384</ele>
        <time>2015-11-29T11:03:43.000Z</time>
      </trkpt>
      <trkpt lat="47.50727" lon="6.76005">
        <ele>385</ele>
        <time>2015-11-29T11:03:44.000Z</time>
      </trkpt>
      <trkpt lat="47.50727" lon="6.76011">
        <ele>385</ele>
        <time>2015-11-29T11:03:45.000Z</time>
      </trkpt>
      <trkpt lat="47.50726" lon="6.76017">
        <ele>385</ele>
        <time>2015-11-29T11:03:46.000Z</time>
      </trkpt>
      <trkpt lat="47.50726" lon="6.76021">
        <ele>385</ele>
        <time>2015-11-29T11:03:47.000Z</time>
      </trkpt>
      <trkpt lat="47.50725" lon="6.76025">
        <ele>385</ele>
        <time>2015-11-29T11:03:48.000Z</time>
      </trkpt>
      <trkpt lat="47.50725" lon="6.76028">
        <ele>386</ele>
        <time>2015-11-29T11:03:49.000Z</time>
      </trkpt>
      <trkpt lat="47.50725" lon="6.76032">
        <ele>386</ele>
        <time>2015-11-29T11:03:50.000Z</time>
      </trkpt>
      <trkpt lat="47.50724" lon="6.76036">
        <ele>386</ele>
        <time>2015-11-29T11:03:51.000Z</time>
      </trkpt>
      <trkpt lat="47.50724" lon="6.7604">
        <ele>386</ele>
        <time>2015-11-29T11:03:52.000Z</time>
      </trkpt>
      <trkpt lat="47.50724" lon="6.76044">
        <ele>386</ele>
        <time>2015-11-29T11:03:53.000Z</time>
      </trkpt>
      <trkpt lat="47.50724" lon="6.76048">
        <ele>386</ele>
        <time>2015-11-29T11:03:54.000Z</time>
      </trkpt>
      <trkpt lat="47.50724" lon="6.76053">
        <ele>386</ele>
        <time>2015-11-29T11:03:55.000Z</time>
      </trkpt>
      <trkpt lat="47.50724" lon="6.76058">
        <ele>386</ele>
        <time>2015-11-29T11:03:56.000Z</time>
      </trkpt>
      <trkpt lat="47.50723" lon="6.76063">
        <ele>386</ele>
        <time>2015-11-29T11:03:57.000Z</time>
      </trkpt>
      <trkpt lat="47.50723" lon="6.76068">
        <ele>386</ele>
        <time>2015-11-29T11:03:58.000Z</time>
      </trkpt>
      <trkpt lat="47.50723" lon="6.76073">
        <ele>386</ele>
        <time>2015-11-29T11:03:59.000Z</time>
      </trkpt>
      <trkpt lat="47.50723" lon="6.76079">
        <ele>386</ele>
        <time>2015-11-29T11:04:00.000Z</time>
      </trkpt>
      <trkpt lat="47.50722" lon="6.76085">
        <ele>388</ele>
        <time>2015-11-29T11:04:01.000Z</time>
      </trkpt>
      <trkpt lat="47.50722" lon="6.7609">
        <ele>388</ele>
        <time>2015-11-29T11:04:02.000Z</time>
      </trkpt>
      <trkpt lat="47.50722" lon="6.76095">
        <ele>388</ele>
        <time>2015-11-29T11:04:03.000Z</time>
      </trkpt>
      <trkpt lat="47.50722" lon="6.761">
        <ele>388</ele>
        <time>2015-11-29T11:04:04.000Z</time>
      </trkpt>
      <trkpt lat="47.50722" lon="6.76106">
        <ele>388</ele>
        <time>2015-11-29T11:04:05.000Z</time>
      </trkpt>
      <trkpt lat="47.50722" lon="6.76113">
        <ele>388</ele>
        <time>2015-11-29T11:04:06.000Z</time>
      </trkpt>
      <trkpt lat="47.50722" lon="6.76121">
        <ele>388</ele>
        <time>2015-11-29T11:04:07.000Z</time>
      </trkpt>
      <trkpt lat="47.50722" lon="6.76129">
        <ele>389</ele>
        <time>2015-11-29T11:04:08.000Z</time>
      </trkpt>
      <trkpt lat="47.50722" lon="6.76137">
        <ele>389</ele>
        <time>2015-11-29T11:04:09.000Z</time>
      </trkpt>
      <trkpt lat="47.50722" lon="6.76145">
        <ele>389</ele>
        <time>2015-11-29T11:04:10.000Z</time>
      </trkpt>
      <trkpt lat="47.50723" lon="6.76151">
        <ele>389</ele>
        <time>2015-11-29T11:04:11.000Z</time>
      </trkpt>
      <trkpt lat="47.50723" lon="6.76157">
        <ele>389</ele>
        <time>2015-11-29T11:04:12.000Z</time>
      </trkpt>
      <trkpt lat="47.50724" lon="6.76163">
        <ele>389</ele>
        <time>2015-11-29T11:04:13.000Z</time>
      </trkpt>
      <trkpt lat="47.50724" lon="6.7617">
        <ele>388</ele>
        <time>2015-11-29T11:04:14.000Z</time>
      </trkpt>
      <trkpt lat="47.50725" lon="6.76176">
        <ele>388</ele>
        <time>2015-11-29T11:04:15.000Z</time>
      </trkpt>
      <trkpt lat="47.50725" lon="6.76183">
        <ele>388</ele>
        <time>2015-11-29T11:04:16.000Z</time>
      </trkpt>
      <trkpt lat="47.50725" lon="6.76189">
        <ele>388</ele>
        <time>2015-11-29T11:04:17.000Z</time>
      </trkpt>
      <trkpt lat="47.50725" lon="6.76195">
        <ele>388</ele>
        <time>2015-11-29T11:04:18.000Z</time>
      </trkpt>
      <trkpt lat="47.50725" lon="6.762">
        <ele>388</ele>
        <time>2015-11-29T11:04:19.000Z</time>
      </trkpt>
      <trkpt lat="47.50725" lon="6.76206">
        <ele>388</ele>
        <time>2015-11-29T11:04:20.000Z</time>
      </trkpt>
      <trkpt lat="47.50725" lon="6.76211">
        <ele>388</ele>
        <time>2015-11-29T11:04:21.000Z</time>
      </trkpt>
      <trkpt lat="47.50726" lon="6.76217">
        <ele>388</ele>
        <time>2015-11-29T11:04:22.000Z</time>
      </trkpt>
      <trkpt lat="47.50727" lon="6.76223">
        <ele>388</ele>
        <time>2015-11-29T11:04:23.000Z</time>
      </trkpt>
      <trkpt lat="47.50728" lon="6.76229">
        <ele>387</ele>
        <time>2015-11-29T11:04:24.000Z</time>
      </trkpt>
      <trkpt lat="47.50729" lon="6.76234">
        <ele>387</ele>
        <time>2015-11-29T11:04:25.000Z</time>
      </trkpt>
      <trkpt lat="47.50732" lon="6.76237">
        <ele>387</ele>
        <time>2015-11-29T11:04:26.000Z</time>
      </trkpt>
      <trkpt lat="47.50734" lon="6.7624">
        <ele>386</ele>
        <time>2015-11-29T11:04:27.000Z</time>
      </trkpt>
      <trkpt lat="47.50737" lon="6.76243">
        <ele>386</ele>
        <time>2015-11-29T11:04:28.000Z</time>
      </trkpt>
      <trkpt lat="47.50739" lon="6.76245">
        <ele>386</ele>
        <time>2015-11-29T11:04:29.000Z</time>
      </trkpt>
      <trkpt lat="47.50742" lon="6.76249">
        <ele>385</ele>
        <time>2015-11-29T11:04:30.000Z</time>
      </trkpt>
      <trkpt lat="47.50744" lon="6.76252">
        <ele>384</ele>
        <time>2015-11-29T11:04:31.000Z</time>
      </trkpt>
      <trkpt lat="47.50746" lon="6.76256">
        <ele>385</ele>
        <time>2015-11-29T11:04:32.000Z</time>
      </trkpt>
      <trkpt lat="47.50747" lon="6.76261">
        <ele>385</ele>
        <time>2015-11-29T11:04:33.000Z</time>
      </trkpt>
      <trkpt lat="47.50749" lon="6.76265">
        <ele>385</ele>
        <time>2015-11-29T11:04:34.000Z</time>
      </trkpt>
      <trkpt lat="47.50751" lon="6.7627">
        <ele>385</ele>
        <time>2015-11-29T11:04:35.000Z</time>
      </trkpt>
      <trkpt lat="47.50752" lon="6.76275">
        <ele>386</ele>
        <time>2015-11-29T11:04:36.000Z</time>
      </trkpt>
      <trkpt lat="47.50753" lon="6.76279">
        <ele>386</ele>
        <time>2015-11-29T11:04:37.000Z</time>
      </trkpt>
      <trkpt lat="47.50755" lon="6.76284">
        <ele>386</ele>
        <time>2015-11-29T11:04:38.000Z</time>
      </trkpt>
      <trkpt lat="47.50756" lon="6.76288">
        <ele>386</ele>
        <time>2015-11-29T11:04:39.000Z</time>
      </trkpt>
      <trkpt lat="47.50757" lon="6.76291">
        <ele>386</ele>
        <time>2015-11-29T11:04:40.000Z</time>
      </trkpt>
      <trkpt lat="47.50758" lon="6.76296">
        <ele>386</ele>
        <time>2015-11-29T11:04:41.000Z</time>
      </trkpt>
      <trkpt lat="47.50758" lon="6.763">
        <ele>385</ele>
        <time>2015-11-29T11:04:42.000Z</time>
      </trkpt>
      <trkpt lat="47.50759" lon="6.76305">
        <ele>385</ele>
        <time>2015-11-29T11:04:43.000Z</time>
      </trkpt>
      <trkpt lat="47.50759" lon="6.76309">
        <ele>385</ele>
        <time>2015-11-29T11:04:44.000Z</time>
      </trkpt>
      <trkpt lat="47.50759" lon="6.76313">
        <ele>385</ele>
        <time>2015-11-29T11:04:45.000Z</time>
      </trkpt>
      <trkpt lat="47.5076" lon="6.76317">
        <ele>385</ele>
        <time>2015-11-29T11:04:46.000Z</time>
      </trkpt>
      <trkpt lat="47.50761" lon="6.76321">
        <ele>384</ele>
        <time>2015-11-29T11:04:47.000Z</time>
      </trkpt>
      <trkpt lat="47.50762" lon="6.76325">
        <ele>384</ele>
        <time>2015-11-29T11:04:48.000Z</time>
      </trkpt>
      <trkpt lat="47.50763" lon="6.76329">
        <ele>384</ele>
        <time>2015-11-29T11:04:49.000Z</time>
      </trkpt>
      <trkpt lat="47.50763" lon="6.76334">
        <ele>384</ele>
        <time>2015-11-29T11:04:50.000Z</time>
      </trkpt>
      <trkpt lat="47.50764" lon="6.76338">
        <ele>385</ele>
        <time>2015-11-29T11:04:51.000Z</time>
      </trkpt>
      <trkpt lat="47.50765" lon="6.76342">
        <ele>385</ele>
        <time>2015-11-29T11:04:52.000Z</time>
      </trkpt>
      <trkpt lat="47.50765" lon="6.76346">
        <ele>385</ele>
        <time>2015-11-29T11:04:53.000Z</time>
      </trkpt>
      <trkpt lat="47.50766" lon="6.76351">
        <ele>386</ele>
        <time>2015-11-29T11:04:54.000Z</time>
      </trkpt>
      <trkpt lat="47.50767" lon="6.76355">
        <ele>386</ele>
        <time>2015-11-29T11:04:55.000Z</time>
      </trkpt>
      <trkpt lat="47.50768" lon="6.76358">
        <ele>386</ele>
        <time>2015-11-29T11:04:56.000Z</time>
      </trkpt>
      <trkpt lat="47.5077" lon="6.76362">
        <ele>387</ele>
        <time>2015-11-29T11:04:57.000Z</time>
      </trkpt>
      <trkpt lat="47.50771" lon="6.76365">
        <ele>387</ele>
        <time>2015-11-29T11:04:58.000Z</time>
      </trkpt>
      <trkpt lat="47.50773" lon="6.76369">
        <ele>387</ele>
        <time>2015-11-29T11:04:59.000Z</time>
      </trkpt>
      <trkpt lat="47.50774" lon="6.76373">
        <ele>387</ele>
        <time>2015-11-29T11:05:00.000Z</time>
      </trkpt>
      <trkpt lat="47.50776" lon="6.76376">
        <ele>387</ele>
        <time>2015-11-29T11:05:01.000Z</time>
      </trkpt>
      <trkpt lat="47.50777" lon="6.7638">
        <ele>388</ele>
        <time>2015-11-29T11:05:02.000Z</time>
      </trkpt>
      <trkpt lat="47.50779" lon="6.76383">
        <ele>388</ele>
        <time>2015-11-29T11:05:03.000Z</time>
      </trkpt>
      <trkpt lat="47.50781" lon="6.76387">
        <ele>388</ele>
        <time>2015-11-29T11:05:04.000Z</time>
      </trkpt>
      <trkpt lat="47.50782" lon="6.76391">
        <ele>388</ele>
        <time>2015-11-29T11:05:05.000Z</time>
      </trkpt>
      <trkpt lat="47.50783" lon="6.76395">
        <ele>388</ele>
        <time>2015-11-29T11:05:06.000Z</time>
      </trkpt>
      <trkpt lat="47.50784" lon="6.764">
        <ele>388</ele>
        <time>2015-11-29T11:05:07.000Z</time>
      </trkpt>
      <trkpt lat="47.50785" lon="6.76404">
        <ele>388</ele>
        <time>2015-11-29T11:05:08.000Z</time>
      </trkpt>
      <trkpt lat="47.50786" lon="6.76408">
        <ele>388</ele>
        <time>2015-11-29T11:05:09.000Z</time>
      </trkpt>
      <trkpt lat="47.50787" lon="6.76411">
        <ele>388</ele>
        <time>2015-11-29T11:05:10.000Z</time>
      </trkpt>
      <trkpt lat="47.50788" lon="6.76415">
        <ele>389</ele>
        <time>2015-11-29T11:05:12.000Z</time>
      </trkpt>
      <trkpt lat="47.50788" lon="6.76418">
        <ele>391</ele>
        <time>2015-11-29T11:05:13.000Z</time>
      </trkpt>
      <trkpt lat="47.50789" lon="6.76424">
        <ele>391</ele>
        <time>2015-11-29T11:05:15.000Z</time>
      </trkpt>
      <trkpt lat="47.50789" lon="6.76427">
        <ele>391</ele>
        <time>2015-11-29T11:05:16.000Z</time>
      </trkpt>
      <trkpt lat="47.50789" lon="6.76431">
        <ele>391</ele>
        <time>2015-11-29T11:05:17.000Z</time>
      </trkpt>
      <trkpt lat="47.5079" lon="6.76434">
        <ele>391</ele>
        <time>2015-11-29T11:05:18.000Z</time>
      </trkpt>
      <trkpt lat="47.50791" lon="6.76437">
        <ele>391</ele>
        <time>2015-11-29T11:05:19.000Z</time>
      </trkpt>
      <trkpt lat="47.50791" lon="6.7644">
        <ele>391</ele>
        <time>2015-11-29T11:05:20.000Z</time>
      </trkpt>
      <trkpt lat="47.50792" lon="6.76446">
        <ele>391</ele>
        <time>2015-11-29T11:05:22.000Z</time>
      </trkpt>
      <trkpt lat="47.50793" lon="6.76449">
        <ele>391</ele>
        <time>2015-11-29T11:05:23.000Z</time>
      </trkpt>
      <trkpt lat="47.50794" lon="6.76455">
        <ele>391</ele>
        <time>2015-11-29T11:05:25.000Z</time>
      </trkpt>
      <trkpt lat="47.50794" lon="6.76458">
        <ele>391</ele>
        <time>2015-11-29T11:05:26.000Z</time>
      </trkpt>
      <trkpt lat="47.50794" lon="6.76462">
        <ele>391</ele>
        <time>2015-11-29T11:05:27.000Z</time>
      </trkpt>
      <trkpt lat="47.50794" lon="6.76465">
        <ele>391</ele>
        <time>2015-11-29T11:05:28.000Z</time>
      </trkpt>
      <trkpt lat="47.50794" lon="6.76469">
        <ele>391</ele>
        <time>2015-11-29T11:05:29.000Z</time>
      </trkpt>
      <trkpt lat="47.50794" lon="6.76472">
        <ele>391</ele>
        <time>2015-11-29T11:05:30.000Z</time>
      </trkpt>
      <trkpt lat="47.50793" lon="6.76478">
        <ele>392</ele>
        <time>2015-11-29T11:05:32.000Z</time>
      </trkpt>
      <trkpt lat="47.50793" lon="6.76482">
        <ele>392</ele>
        <time>2015-11-29T11:05:33.000Z</time>
      </trkpt>
      <trkpt lat="47.50792" lon="6.76485">
        <ele>392</ele>
        <time>2015-11-29T11:05:34.000Z</time>
      </trkpt>
      <trkpt lat="47.50791" lon="6.76489">
        <ele>392</ele>
        <time>2015-11-29T11:05:35.000Z</time>
      </trkpt>
      <trkpt lat="47.5079" lon="6.76493">
        <ele>392</ele>
        <time>2015-11-29T11:05:36.000Z</time>
      </trkpt>
      <trkpt lat="47.5079" lon="6.76497">
        <ele>392</ele>
        <time>2015-11-29T11:05:37.000Z</time>
      </trkpt>
      <trkpt lat="47.5079" lon="6.76502">
        <ele>392</ele>
        <time>2015-11-29T11:05:38.000Z</time>
      </trkpt>
      <trkpt lat="47.50791" lon="6.76506">
        <ele>392</ele>
        <time>2015-11-29T11:05:39.000Z</time>
      </trkpt>
      <trkpt lat="47.50793" lon="6.7651">
        <ele>392</ele>
        <time>2015-11-29T11:05:40.000Z</time>
      </trkpt>
      <trkpt lat="47.50795" lon="6.76514">
        <ele>392</ele>
        <time>2015-11-29T11:05:41.000Z</time>
      </trkpt>
      <trkpt lat="47.50796" lon="6.76518">
        <ele>392</ele>
        <time>2015-11-29T11:05:42.000Z</time>
      </trkpt>
      <trkpt lat="47.50798" lon="6.76522">
        <ele>392</ele>
        <time>2015-11-29T11:05:43.000Z</time>
      </trkpt>
      <trkpt lat="47.50798" lon="6.76526">
        <ele>392</ele>
        <time>2015-11-29T11:05:44.000Z</time>
      </trkpt>
      <trkpt lat="47.50799" lon="6.76531">
        <ele>392</ele>
        <time>2015-11-29T11:05:45.000Z</time>
      </trkpt>
      <trkpt lat="47.50799" lon="6.76535">
        <ele>392</ele>
        <time>2015-11-29T11:05:46.000Z</time>
      </trkpt>
      <trkpt lat="47.50799" lon="6.7654">
        <ele>392</ele>
        <time>2015-11-29T11:05:47.000Z</time>
      </trkpt>
      <trkpt lat="47.508" lon="6.76546">
        <ele>392</ele>
        <time>2015-11-29T11:05:48.000Z</time>
      </trkpt>
      <trkpt lat="47.508" lon="6.76551">
        <ele>392</ele>
        <time>2015-11-29T11:05:49.000Z</time>
      </trkpt>
      <trkpt lat="47.50801" lon="6.76557">
        <ele>392</ele>
        <time>2015-11-29T11:05:50.000Z</time>
      </trkpt>
      <trkpt lat="47.50802" lon="6.76563">
        <ele>392</ele>
        <time>2015-11-29T11:05:51.000Z</time>
      </trkpt>
      <trkpt lat="47.50803" lon="6.76569">
        <ele>391</ele>
        <time>2015-11-29T11:05:52.000Z</time>
      </trkpt>
      <trkpt lat="47.50805" lon="6.76575">
        <ele>391</ele>
        <time>2015-11-29T11:05:53.000Z</time>
      </trkpt>
      <trkpt lat="47.50807" lon="6.76582">
        <ele>391</ele>
        <time>2015-11-29T11:05:54.000Z</time>
      </trkpt>
      <trkpt lat="47.50811" lon="6.76591">
        <ele>390</ele>
        <time>2015-11-29T11:05:55.000Z</time>
      </trkpt>
      <trkpt lat="47.50814" lon="6.76597">
        <ele>390</ele>
        <time>2015-11-29T11:05:56.000Z</time>
      </trkpt>
      <trkpt lat="47.50816" lon="6.76604">
        <ele>390</ele>
        <time>2015-11-29T11:05:57.000Z</time>
      </trkpt>
      <trkpt lat="47.5082" lon="6.76612">
        <ele>390</ele>
        <time>2015-11-29T11:05:58.000Z</time>
      </trkpt>
      <trkpt lat="47.50823" lon="6.76619">
        <ele>390</ele>
        <time>2015-11-29T11:05:59.000Z</time>
      </trkpt>
      <trkpt lat="47.50826" lon="6.76627">
        <ele>390</ele>
        <time>2015-11-29T11:06:00.000Z</time>
      </trkpt>
      <trkpt lat="47.5083" lon="6.76635">
        <ele>390</ele>
        <time>2015-11-29T11:06:01.000Z</time>
      </trkpt>
      <trkpt lat="47.50833" lon="6.76644">
        <ele>387</ele>
        <time>2015-11-29T11:06:02.000Z</time>
      </trkpt>
      <trkpt lat="47.50837" lon="6.76653">
        <ele>388</ele>
        <time>2015-11-29T11:06:03.000Z</time>
      </trkpt>
      <trkpt lat="47.5084" lon="6.76663">
        <ele>388</ele>
        <time>2015-11-29T11:06:04.000Z</time>
      </trkpt>
      <trkpt lat="47.50844" lon="6.76673">
        <ele>387</ele>
        <time>2015-11-29T11:06:05.000Z</time>
      </trkpt>
      <trkpt lat="47.50848" lon="6.76683">
        <ele>386</ele>
        <time>2015-11-29T11:06:06.000Z</time>
      </trkpt>
      <trkpt lat="47.50852" lon="6.76694">
        <ele>385</ele>
        <time>2015-11-29T11:06:07.000Z</time>
      </trkpt>
      <trkpt lat="47.50857" lon="6.76705">
        <ele>384</ele>
        <time>2015-11-29T11:06:08.000Z</time>
      </trkpt>
      <trkpt lat="47.50861" lon="6.76716">
        <ele>384</ele>
        <time>2015-11-29T11:06:09.000Z</time>
      </trkpt>
      <trkpt lat="47.50865" lon="6.76729">
        <ele>384</ele>
        <time>2015-11-29T11:06:10.000Z</time>
      </trkpt>
      <trkpt lat="47.5087" lon="6.76741">
        <ele>383</ele>
        <time>2015-11-29T11:06:11.000Z</time>
      </trkpt>
      <trkpt lat="47.50876" lon="6.76754">
        <ele>382</ele>
        <time>2015-11-29T11:06:12.000Z</time>
      </trkpt>
      <trkpt lat="47.50881" lon="6.76767">
        <ele>381</ele>
        <time>2015-11-29T11:06:13.000Z</time>
      </trkpt>
      <trkpt lat="47.50887" lon="6.76781">
        <ele>381</ele>
        <time>2015-11-29T11:06:14.000Z</time>
      </trkpt>
      <trkpt lat="47.50893" lon="6.76794">
        <ele>381</ele>
        <time>2015-11-29T11:06:15.000Z</time>
      </trkpt>
      <trkpt lat="47.50898" lon="6.76808">
        <ele>381</ele>
        <time>2015-11-29T11:06:16.000Z</time>
      </trkpt>
      <trkpt lat="47.50904" lon="6.76823">
        <ele>381</ele>
        <time>2015-11-29T11:06:17.000Z</time>
      </trkpt>
      <trkpt lat="47.5091" lon="6.76837">
        <ele>380</ele>
        <time>2015-11-29T11:06:18.000Z</time>
      </trkpt>
      <trkpt lat="47.50916" lon="6.76851">
        <ele>380</ele>
        <time>2015-11-29T11:06:19.000Z</time>
      </trkpt>
      <trkpt lat="47.50923" lon="6.76864">
        <ele>378</ele>
        <time>2015-11-29T11:06:20.000Z</time>
      </trkpt>
      <trkpt lat="47.50931" lon="6.76875">
        <ele>378</ele>
        <time>2015-11-29T11:06:21.000Z</time>
      </trkpt>
      <trkpt lat="47.5094" lon="6.76885">
        <ele>378</ele>
        <time>2015-11-29T11:06:22.000Z</time>
      </trkpt>
      <trkpt lat="47.50947" lon="6.76893">
        <ele>378</ele>
        <time>2015-11-29T11:06:23.000Z</time>
      </trkpt>
      <trkpt lat="47.50953" lon="6.769">
        <ele>377</ele>
        <time>2015-11-29T11:06:24.000Z</time>
      </trkpt>
      <trkpt lat="47.50958" lon="6.76907">
        <ele>377</ele>
        <time>2015-11-29T11:06:25.000Z</time>
      </trkpt>
      <trkpt lat="47.50961" lon="6.76912">
        <ele>377</ele>
        <time>2015-11-29T11:06:26.000Z</time>
      </trkpt>
      <trkpt lat="47.50965" lon="6.76919">
        <ele>374</ele>
        <time>2015-11-29T11:06:27.000Z</time>
      </trkpt>
      <trkpt lat="47.50968" lon="6.76926">
        <ele>374</ele>
        <time>2015-11-29T11:06:28.000Z</time>
      </trkpt>
      <trkpt lat="47.5097" lon="6.76933">
        <ele>374</ele>
        <time>2015-11-29T11:06:29.000Z</time>
      </trkpt>
      <trkpt lat="47.50975" lon="6.76938">
        <ele>374</ele>
        <time>2015-11-29T11:06:30.000Z</time>
      </trkpt>
      <trkpt lat="47.50981" lon="6.76941">
        <ele>374</ele>
        <time>2015-11-29T11:06:31.000Z</time>
      </trkpt>
      <trkpt lat="47.50987" lon="6.76941">
        <ele>374</ele>
        <time>2015-11-29T11:06:32.000Z</time>
      </trkpt>
      <trkpt lat="47.50993" lon="6.76941">
        <ele>374</ele>
        <time>2015-11-29T11:06:33.000Z</time>
      </trkpt>
      <trkpt lat="47.51" lon="6.76942">
        <ele>374</ele>
        <time>2015-11-29T11:06:34.000Z</time>
      </trkpt>
      <trkpt lat="47.51006" lon="6.76944">
        <ele>375</ele>
        <time>2015-11-29T11:06:35.000Z</time>
      </trkpt>
      <trkpt lat="47.51013" lon="6.76946">
        <ele>375</ele>
        <time>2015-11-29T11:06:36.000Z</time>
      </trkpt>
      <trkpt lat="47.51018" lon="6.76948">
        <ele>375</ele>
        <time>2015-11-29T11:06:37.000Z</time>
      </trkpt>
      <trkpt lat="47.51023" lon="6.76951">
        <ele>375</ele>
        <time>2015-11-29T11:06:38.000Z</time>
      </trkpt>
      <trkpt lat="47.5103" lon="6.76956">
        <ele>375</ele>
        <time>2015-11-29T11:06:39.000Z</time>
      </trkpt>
      <trkpt lat="47.51036" lon="6.76961">
        <ele>375</ele>
        <time>2015-11-29T11:06:40.000Z</time>
      </trkpt>
      <trkpt lat="47.51042" lon="6.76967">
        <ele>375</ele>
        <time>2015-11-29T11:06:41.000Z</time>
      </trkpt>
      <trkpt lat="47.51048" lon="6.76973">
        <ele>375</ele>
        <time>2015-11-29T11:06:42.000Z</time>
      </trkpt>
      <trkpt lat="47.51053" lon="6.76979">
        <ele>375</ele>
        <time>2015-11-29T11:06:43.000Z</time>
      </trkpt>
      <trkpt lat="47.51058" lon="6.76983">
        <ele>375</ele>
        <time>2015-11-29T11:06:44.000Z</time>
      </trkpt>
      <trkpt lat="47.51064" lon="6.76989">
        <ele>375</ele>
        <time>2015-11-29T11:06:45.000Z</time>
      </trkpt>
      <trkpt lat="47.5107" lon="6.76993">
        <ele>375</ele>
        <time>2015-11-29T11:06:46.000Z</time>
      </trkpt>
      <trkpt lat="47.51076" lon="6.76998">
        <ele>375</ele>
        <time>2015-11-29T11:06:47.000Z</time>
      </trkpt>
      <trkpt lat="47.51081" lon="6.77004">
        <ele>374</ele>
        <time>2015-11-29T11:06:48.000Z</time>
      </trkpt>
      <trkpt lat="47.51085" lon="6.77009">
        <ele>375</ele>
        <time>2015-11-29T11:06:49.000Z</time>
      </trkpt>
      <trkpt lat="47.5109" lon="6.77014">
        <ele>375</ele>
        <time>2015-11-29T11:06:50.000Z</time>
      </trkpt>
      <trkpt lat="47.51096" lon="6.77019">
        <ele>375</ele>
        <time>2015-11-29T11:06:51.000Z</time>
      </trkpt>
      <trkpt lat="47.511" lon="6.77026">
        <ele>375</ele>
        <time>2015-11-29T11:06:52.000Z</time>
      </trkpt>
      <trkpt lat="47.51106" lon="6.7703">
        <ele>375</ele>
        <time>2015-11-29T11:06:53.000Z</time>
      </trkpt>
      <trkpt lat="47.51113" lon="6.77033">
        <ele>375</ele>
        <time>2015-11-29T11:06:54.000Z</time>
      </trkpt>
      <trkpt lat="47.51117" lon="6.77038">
        <ele>375</ele>
        <time>2015-11-29T11:06:55.000Z</time>
      </trkpt>
      <trkpt lat="47.51123" lon="6.77043">
        <ele>375</ele>
        <time>2015-11-29T11:06:56.000Z</time>
      </trkpt>
      <trkpt lat="47.51128" lon="6.77047">
        <ele>375</ele>
        <time>2015-11-29T11:06:57.000Z</time>
      </trkpt>
      <trkpt lat="47.51133" lon="6.77051">
        <ele>375</ele>
        <time>2015-11-29T11:06:58.000Z</time>
      </trkpt>
      <trkpt lat="47.51137" lon="6.77055">
        <ele>376</ele>
        <time>2015-11-29T11:06:59.000Z</time>
      </trkpt>
      <trkpt lat="47.51141" lon="6.7706">
        <ele>376</ele>
        <time>2015-11-29T11:07:00.000Z</time>
      </trkpt>
      <trkpt lat="47.51145" lon="6.77064">
        <ele>376</ele>
        <time>2015-11-29T11:07:01.000Z</time>
      </trkpt>
      <trkpt lat="47.5115" lon="6.77068">
        <ele>376</ele>
        <time>2015-11-29T11:07:02.000Z</time>
      </trkpt>
      <trkpt lat="47.51155" lon="6.77073">
        <ele>377</ele>
        <time>2015-11-29T11:07:03.000Z</time>
      </trkpt>
      <trkpt lat="47.51159" lon="6.77077">
        <ele>377</ele>
        <time>2015-11-29T11:07:04.000Z</time>
      </trkpt>
      <trkpt lat="47.51163" lon="6.77083">
        <ele>378</ele>
        <time>2015-11-29T11:07:05.000Z</time>
      </trkpt>
      <trkpt lat="47.51167" lon="6.77088">
        <ele>377</ele>
        <time>2015-11-29T11:07:06.000Z</time>
      </trkpt>
      <trkpt lat="47.5117" lon="6.77092">
        <ele>378</ele>
        <time>2015-11-29T11:07:07.000Z</time>
      </trkpt>
      <trkpt lat="47.51173" lon="6.77097">
        <ele>378</ele>
        <time>2015-11-29T11:07:08.000Z</time>
      </trkpt>
      <trkpt lat="47.51176" lon="6.77103">
        <ele>378</ele>
        <time>2015-11-29T11:07:09.000Z</time>
      </trkpt>
      <trkpt lat="47.51178" lon="6.77108">
        <ele>378</ele>
        <time>2015-11-29T11:07:10.000Z</time>
      </trkpt>
      <trkpt lat="47.51181" lon="6.77113">
        <ele>378</ele>
        <time>2015-11-29T11:07:11.000Z</time>
      </trkpt>
      <trkpt lat="47.51184" lon="6.77119">
        <ele>378</ele>
        <time>2015-11-29T11:07:12.000Z</time>
      </trkpt>
      <trkpt lat="47.51187" lon="6.77125">
        <ele>378</ele>
        <time>2015-11-29T11:07:13.000Z</time>
      </trkpt>
      <trkpt lat="47.5119" lon="6.77131">
        <ele>378</ele>
        <time>2015-11-29T11:07:14.000Z</time>
      </trkpt>
      <trkpt lat="47.51193" lon="6.77137">
        <ele>378</ele>
        <time>2015-11-29T11:07:15.000Z</time>
      </trkpt>
      <trkpt lat="47.51196" lon="6.77143">
        <ele>378</ele>
        <time>2015-11-29T11:07:16.000Z</time>
      </trkpt>
      <trkpt lat="47.512" lon="6.77148">
        <ele>378</ele>
        <time>2015-11-29T11:07:17.000Z</time>
      </trkpt>
      <trkpt lat="47.51204" lon="6.77153">
        <ele>378</ele>
        <time>2015-11-29T11:07:18.000Z</time>
      </trkpt>
      <trkpt lat="47.51208" lon="6.77158">
        <ele>378</ele>
        <time>2015-11-29T11:07:19.000Z</time>
      </trkpt>
      <trkpt lat="47.51211" lon="6.77163">
        <ele>378</ele>
        <time>2015-11-29T11:07:20.000Z</time>
      </trkpt>
      <trkpt lat="47.51214" lon="6.77169">
        <ele>376</ele>
        <time>2015-11-29T11:07:21.000Z</time>
      </trkpt>
      <trkpt lat="47.51217" lon="6.77175">
        <ele>376</ele>
        <time>2015-11-29T11:07:22.000Z</time>
      </trkpt>
      <trkpt lat="47.51219" lon="6.7718">
        <ele>376</ele>
        <time>2015-11-29T11:07:23.000Z</time>
      </trkpt>
      <trkpt lat="47.51222" lon="6.77186">
        <ele>376</ele>
        <time>2015-11-29T11:07:24.000Z</time>
      </trkpt>
      <trkpt lat="47.51224" lon="6.77191">
        <ele>376</ele>
        <time>2015-11-29T11:07:25.000Z</time>
      </trkpt>
      <trkpt lat="47.51227" lon="6.77197">
        <ele>376</ele>
        <time>2015-11-29T11:07:26.000Z</time>
      </trkpt>
      <trkpt lat="47.51231" lon="6.77202">
        <ele>376</ele>
        <time>2015-11-29T11:07:27.000Z</time>
      </trkpt>
      <trkpt lat="47.51234" lon="6.77207">
        <ele>376</ele>
        <time>2015-11-29T11:07:28.000Z</time>
      </trkpt>
      <trkpt lat="47.51236" lon="6.77213">
        <ele>376</ele>
        <time>2015-11-29T11:07:29.000Z</time>
      </trkpt>
      <trkpt lat="47.51239" lon="6.77218">
        <ele>376</ele>
        <time>2015-11-29T11:07:30.000Z</time>
      </trkpt>
      <trkpt lat="47.51242" lon="6.77224">
        <ele>376</ele>
        <time>2015-11-29T11:07:31.000Z</time>
      </trkpt>
      <trkpt lat="47.51245" lon="6.77229">
        <ele>377</ele>
        <time>2015-11-29T11:07:32.000Z</time>
      </trkpt>
      <trkpt lat="47.51248" lon="6.77235">
        <ele>377</ele>
        <time>2015-11-29T11:07:33.000Z</time>
      </trkpt>
      <trkpt lat="47.51251" lon="6.7724">
        <ele>379</ele>
        <time>2015-11-29T11:07:34.000Z</time>
      </trkpt>
      <trkpt lat="47.51255" lon="6.77244">
        <ele>379</ele>
        <time>2015-11-29T11:07:35.000Z</time>
      </trkpt>
      <trkpt lat="47.51261" lon="6.77248">
        <ele>378</ele>
        <time>2015-11-29T11:07:36.000Z</time>
      </trkpt>
      <trkpt lat="47.51263" lon="6.77254">
        <ele>378</ele>
        <time>2015-11-29T11:07:37.000Z</time>
      </trkpt>
      <trkpt lat="47.51268" lon="6.77257">
        <ele>378</ele>
        <time>2015-11-29T11:07:38.000Z</time>
      </trkpt>
      <trkpt lat="47.51272" lon="6.77261">
        <ele>377</ele>
        <time>2015-11-29T11:07:39.000Z</time>
      </trkpt>
      <trkpt lat="47.51277" lon="6.77264">
        <ele>377</ele>
        <time>2015-11-29T11:07:40.000Z</time>
      </trkpt>
      <trkpt lat="47.51283" lon="6.77266">
        <ele>377</ele>
        <time>2015-11-29T11:07:41.000Z</time>
      </trkpt>
      <trkpt lat="47.51287" lon="6.77269">
        <ele>377</ele>
        <time>2015-11-29T11:07:42.000Z</time>
      </trkpt>
      <trkpt lat="47.51293" lon="6.77273">
        <ele>377</ele>
        <time>2015-11-29T11:07:43.000Z</time>
      </trkpt>
      <trkpt lat="47.51298" lon="6.77276">
        <ele>377</ele>
        <time>2015-11-29T11:07:44.000Z</time>
      </trkpt>
      <trkpt lat="47.51305" lon="6.77279">
        <ele>377</ele>
        <time>2015-11-29T11:07:45.000Z</time>
      </trkpt>
      <trkpt lat="47.51312" lon="6.77283">
        <ele>377</ele>
        <time>2015-11-29T11:07:46.000Z</time>
      </trkpt>
      <trkpt lat="47.51318" lon="6.77285">
        <ele>377</ele>
        <time>2015-11-29T11:07:47.000Z</time>
      </trkpt>
      <trkpt lat="47.51325" lon="6.77288">
        <ele>378</ele>
        <time>2015-11-29T11:07:48.000Z</time>
      </trkpt>
      <trkpt lat="47.51333" lon="6.77287">
        <ele>378</ele>
        <time>2015-11-29T11:07:49.000Z</time>
      </trkpt>
      <trkpt lat="47.51341" lon="6.77282">
        <ele>378</ele>
        <time>2015-11-29T11:07:50.000Z</time>
      </trkpt>
      <trkpt lat="47.51348" lon="6.77278">
        <ele>378</ele>
        <time>2015-11-29T11:07:51.000Z</time>
      </trkpt>
      <trkpt lat="47.51357" lon="6.7727">
        <ele>378</ele>
        <time>2015-11-29T11:07:52.000Z</time>
      </trkpt>
      <trkpt lat="47.51365" lon="6.77262">
        <ele>378</ele>
        <time>2015-11-29T11:07:53.000Z</time>
      </trkpt>
      <trkpt lat="47.51374" lon="6.77255">
        <ele>377</ele>
        <time>2015-11-29T11:07:54.000Z</time>
      </trkpt>
      <trkpt lat="47.51382" lon="6.77249">
        <ele>376</ele>
        <time>2015-11-29T11:07:55.000Z</time>
      </trkpt>
      <trkpt lat="47.51392" lon="6.77243">
        <ele>376</ele>
        <time>2015-11-29T11:07:56.000Z</time>
      </trkpt>
      <trkpt lat="47.51402" lon="6.77237">
        <ele>376</ele>
        <time>2015-11-29T11:07:57.000Z</time>
      </trkpt>
      <trkpt lat="47.51412" lon="6.77233">
        <ele>376</ele>
        <time>2015-11-29T11:07:58.000Z</time>
      </trkpt>
      <trkpt lat="47.51422" lon="6.77227">
        <ele>375</ele>
        <time>2015-11-29T11:07:59.000Z</time>
      </trkpt>
      <trkpt lat="47.51431" lon="6.77223">
        <ele>375</ele>
        <time>2015-11-29T11:08:00.000Z</time>
      </trkpt>
      <trkpt lat="47.51441" lon="6.77218">
        <ele>375</ele>
        <time>2015-11-29T11:08:01.000Z</time>
      </trkpt>
      <trkpt lat="47.5145" lon="6.77214">
        <ele>375</ele>
        <time>2015-11-29T11:08:02.000Z</time>
      </trkpt>
      <trkpt lat="47.51458" lon="6.77209">
        <ele>375</ele>
        <time>2015-11-29T11:08:03.000Z</time>
      </trkpt>
      <trkpt lat="47.51465" lon="6.77206">
        <ele>375</ele>
        <time>2015-11-29T11:08:04.000Z</time>
      </trkpt>
      <trkpt lat="47.51472" lon="6.77203">
        <ele>375</ele>
        <time>2015-11-29T11:08:05.000Z</time>
      </trkpt>
      <trkpt lat="47.51476" lon="6.77204">
        <ele>375</ele>
        <time>2015-11-29T11:08:06.000Z</time>
      </trkpt>
      <trkpt lat="47.5148" lon="6.77208">
        <ele>375</ele>
        <time>2015-11-29T11:08:07.000Z</time>
      </trkpt>
      <trkpt lat="47.51482" lon="6.77214">
        <ele>375</ele>
        <time>2015-11-29T11:08:08.000Z</time>
      </trkpt>
      <trkpt lat="47.51483" lon="6.77221">
        <ele>375</ele>
        <time>2015-11-29T11:08:09.000Z</time>
      </trkpt>
      <trkpt lat="47.51483" lon="6.7723">
        <ele>375</ele>
        <time>2015-11-29T11:08:10.000Z</time>
      </trkpt>
      <trkpt lat="47.51483" lon="6.77238">
        <ele>375</ele>
        <time>2015-11-29T11:08:11.000Z</time>
      </trkpt>
      <trkpt lat="47.51483" lon="6.77246">
        <ele>376</ele>
        <time>2015-11-29T11:08:12.000Z</time>
      </trkpt>
      <trkpt lat="47.51484" lon="6.77253">
        <ele>376</ele>
        <time>2015-11-29T11:08:13.000Z</time>
      </trkpt>
      <trkpt lat="47.51484" lon="6.77262">
        <ele>376</ele>
        <time>2015-11-29T11:08:14.000Z</time>
      </trkpt>
      <trkpt lat="47.51485" lon="6.77271">
        <ele>377</ele>
        <time>2015-11-29T11:08:15.000Z</time>
      </trkpt>
      <trkpt lat="47.51484" lon="6.7728">
        <ele>377</ele>
        <time>2015-11-29T11:08:16.000Z</time>
      </trkpt>
      <trkpt lat="47.51485" lon="6.77288">
        <ele>377</ele>
        <time>2015-11-29T11:08:17.000Z</time>
      </trkpt>
      <trkpt lat="47.51486" lon="6.77297">
        <ele>377</ele>
        <time>2015-11-29T11:08:18.000Z</time>
      </trkpt>
      <trkpt lat="47.51486" lon="6.77304">
        <ele>377</ele>
        <time>2015-11-29T11:08:19.000Z</time>
      </trkpt>
      <trkpt lat="47.51487" lon="6.77312">
        <ele>377</ele>
        <time>2015-11-29T11:08:20.000Z</time>
      </trkpt>
      <trkpt lat="47.51491" lon="6.77317">
        <ele>377</ele>
        <time>2015-11-29T11:08:21.000Z</time>
      </trkpt>
      <trkpt lat="47.51496" lon="6.77321">
        <ele>377</ele>
        <time>2015-11-29T11:08:22.000Z</time>
      </trkpt>
      <trkpt lat="47.515" lon="6.77325">
        <ele>378</ele>
        <time>2015-11-29T11:08:23.000Z</time>
      </trkpt>
      <trkpt lat="47.51504" lon="6.77328">
        <ele>378</ele>
        <time>2015-11-29T11:08:24.000Z</time>
      </trkpt>
      <trkpt lat="47.51508" lon="6.77331">
        <ele>378</ele>
        <time>2015-11-29T11:08:25.000Z</time>
      </trkpt>
      <trkpt lat="47.51509" lon="6.77332">
        <ele>378</ele>
        <time>2015-11-29T11:08:26.000Z</time>
      </trkpt>
      <trkpt lat="47.51513" lon="6.77336">
        <ele>379</ele>
        <time>2015-11-29T11:08:27.000Z</time>
      </trkpt>
      <trkpt lat="47.51515" lon="6.77339">
        <ele>379</ele>
        <time>2015-11-29T11:08:28.000Z</time>
      </trkpt>
      <trkpt lat="47.51517" lon="6.77342">
        <ele>379</ele>
        <time>2015-11-29T11:08:29.000Z</time>
      </trkpt>
      <trkpt lat="47.5152" lon="6.77346">
        <ele>380</ele>
        <time>2015-11-29T11:08:30.000Z</time>
      </trkpt>
      <trkpt lat="47.51523" lon="6.7735">
        <ele>380</ele>
        <time>2015-11-29T11:08:31.000Z</time>
      </trkpt>
      <trkpt lat="47.51526" lon="6.77354">
        <ele>380</ele>
        <time>2015-11-29T11:08:32.000Z</time>
      </trkpt>
      <trkpt lat="47.51529" lon="6.77357">
        <ele>380</ele>
        <time>2015-11-29T11:08:33.000Z</time>
      </trkpt>
      <trkpt lat="47.51531" lon="6.7736">
        <ele>380</ele>
        <time>2015-11-29T11:08:34.000Z</time>
      </trkpt>
      <trkpt lat="47.51535" lon="6.77363">
        <ele>380</ele>
        <time>2015-11-29T11:08:35.000Z</time>
      </trkpt>
      <trkpt lat="47.51538" lon="6.77366">
        <ele>380</ele>
        <time>2015-11-29T11:08:36.000Z</time>
      </trkpt>
      <trkpt lat="47.51541" lon="6.7737">
        <ele>380</ele>
        <time>2015-11-29T11:08:37.000Z</time>
      </trkpt>
      <trkpt lat="47.51544" lon="6.77373">
        <ele>381</ele>
        <time>2015-11-29T11:08:38.000Z</time>
      </trkpt>
      <trkpt lat="47.51547" lon="6.77377">
        <ele>381</ele>
        <time>2015-11-29T11:08:39.000Z</time>
      </trkpt>
      <trkpt lat="47.5155" lon="6.7738">
        <ele>381</ele>
        <time>2015-11-29T11:08:40.000Z</time>
      </trkpt>
      <trkpt lat="47.51553" lon="6.77383">
        <ele>381</ele>
        <time>2015-11-29T11:08:41.000Z</time>
      </trkpt>
      <trkpt lat="47.51557" lon="6.77387">
        <ele>381</ele>
        <time>2015-11-29T11:08:42.000Z</time>
      </trkpt>
      <trkpt lat="47.5156" lon="6.7739">
        <ele>381</ele>
        <time>2015-11-29T11:08:43.000Z</time>
      </trkpt>
      <trkpt lat="47.51564" lon="6.77393">
        <ele>381</ele>
        <time>2015-11-29T11:08:44.000Z</time>
      </trkpt>
      <trkpt lat="47.51567" lon="6.77397">
        <ele>381</ele>
        <time>2015-11-29T11:08:45.000Z</time>
      </trkpt>
      <trkpt lat="47.5157" lon="6.77401">
        <ele>382</ele>
        <time>2015-11-29T11:08:46.000Z</time>
      </trkpt>
      <trkpt lat="47.51573" lon="6.77404">
        <ele>382</ele>
        <time>2015-11-29T11:08:47.000Z</time>
      </trkpt>
      <trkpt lat="47.51576" lon="6.77408">
        <ele>382</ele>
        <time>2015-11-29T11:08:48.000Z</time>
      </trkpt>
      <trkpt lat="47.51579" lon="6.77412">
        <ele>382</ele>
        <time>2015-11-29T11:08:49.000Z</time>
      </trkpt>
      <trkpt lat="47.51582" lon="6.77415">
        <ele>383</ele>
        <time>2015-11-29T11:08:50.000Z</time>
      </trkpt>
      <trkpt lat="47.51585" lon="6.77419">
        <ele>383</ele>
        <time>2015-11-29T11:08:51.000Z</time>
      </trkpt>
      <trkpt lat="47.51588" lon="6.77423">
        <ele>384</ele>
        <time>2015-11-29T11:08:52.000Z</time>
      </trkpt>
      <trkpt lat="47.51591" lon="6.77427">
        <ele>384</ele>
        <time>2015-11-29T11:08:53.000Z</time>
      </trkpt>
      <trkpt lat="47.51595" lon="6.77431">
        <ele>384</ele>
        <time>2015-11-29T11:08:54.000Z</time>
      </trkpt>
      <trkpt lat="47.51598" lon="6.77434">
        <ele>385</ele>
        <time>2015-11-29T11:08:55.000Z</time>
      </trkpt>
      <trkpt lat="47.51601" lon="6.77438">
        <ele>385</ele>
        <time>2015-11-29T11:08:56.000Z</time>
      </trkpt>
      <trkpt lat="47.51604" lon="6.77442">
        <ele>385</ele>
        <time>2015-11-29T11:08:57.000Z</time>
      </trkpt>
      <trkpt lat="47.51607" lon="6.77445">
        <ele>385</ele>
        <time>2015-11-29T11:08:58.000Z</time>
      </trkpt>
      <trkpt lat="47.5161" lon="6.77449">
        <ele>385</ele>
        <time>2015-11-29T11:08:59.000Z</time>
      </trkpt>
      <trkpt lat="47.51613" lon="6.77452">
        <ele>385</ele>
        <time>2015-11-29T11:09:00.000Z</time>
      </trkpt>
      <trkpt lat="47.51616" lon="6.77456">
        <ele>386</ele>
        <time>2015-11-29T11:09:01.000Z</time>
      </trkpt>
      <trkpt lat="47.51619" lon="6.7746">
        <ele>386</ele>
        <time>2015-11-29T11:09:02.000Z</time>
      </trkpt>
      <trkpt lat="47.51621" lon="6.77463">
        <ele>386</ele>
        <time>2015-11-29T11:09:03.000Z</time>
      </trkpt>
      <trkpt lat="47.51624" lon="6.77466">
        <ele>386</ele>
        <time>2015-11-29T11:09:04.000Z</time>
      </trkpt>
      <trkpt lat="47.51627" lon="6.7747">
        <ele>386</ele>
        <time>2015-11-29T11:09:05.000Z</time>
      </trkpt>
      <trkpt lat="47.51629" lon="6.77473">
        <ele>386</ele>
        <time>2015-11-29T11:09:06.000Z</time>
      </trkpt>
      <trkpt lat="47.51632" lon="6.77476">
        <ele>386</ele>
        <time>2015-11-29T11:09:07.000Z</time>
      </trkpt>
      <trkpt lat="47.51635" lon="6.77479">
        <ele>386</ele>
        <time>2015-11-29T11:09:08.000Z</time>
      </trkpt>
      <trkpt lat="47.51638" lon="6.77483">
        <ele>387</ele>
        <time>2015-11-29T11:09:09.000Z</time>
      </trkpt>
      <trkpt lat="47.51641" lon="6.77486">
        <ele>387</ele>
        <time>2015-11-29T11:09:10.000Z</time>
      </trkpt>
      <trkpt lat="47.51644" lon="6.7749">
        <ele>387</ele>
        <time>2015-11-29T11:09:11.000Z</time>
      </trkpt>
      <trkpt lat="47.51647" lon="6.77493">
        <ele>387</ele>
        <time>2015-11-29T11:09:12.000Z</time>
      </trkpt>
      <trkpt lat="47.51649" lon="6.77497">
        <ele>387</ele>
        <time>2015-11-29T11:09:13.000Z</time>
      </trkpt>
      <trkpt lat="47.51652" lon="6.775">
        <ele>388</ele>
        <time>2015-11-29T11:09:14.000Z</time>
      </trkpt>
      <trkpt lat="47.51655" lon="6.77504">
        <ele>388</ele>
        <time>2015-11-29T11:09:15.000Z</time>
      </trkpt>
      <trkpt lat="47.51658" lon="6.77508">
        <ele>388</ele>
        <time>2015-11-29T11:09:16.000Z</time>
      </trkpt>
      <trkpt lat="47.51661" lon="6.77511">
        <ele>388</ele>
        <time>2015-11-29T11:09:17.000Z</time>
      </trkpt>
      <trkpt lat="47.51664" lon="6.77515">
        <ele>388</ele>
        <time>2015-11-29T11:09:18.000Z</time>
      </trkpt>
      <trkpt lat="47.51667" lon="6.77519">
        <ele>389</ele>
        <time>2015-11-29T11:09:19.000Z</time>
      </trkpt>
      <trkpt lat="47.5167" lon="6.77522">
        <ele>390</ele>
        <time>2015-11-29T11:09:20.000Z</time>
      </trkpt>
      <trkpt lat="47.51673" lon="6.77526">
        <ele>390</ele>
        <time>2015-11-29T11:09:21.000Z</time>
      </trkpt>
      <trkpt lat="47.51675" lon="6.7753">
        <ele>390</ele>
        <time>2015-11-29T11:09:22.000Z</time>
      </trkpt>
      <trkpt lat="47.51678" lon="6.77534">
        <ele>390</ele>
        <time>2015-11-29T11:09:23.000Z</time>
      </trkpt>
      <trkpt lat="47.5168" lon="6.77538">
        <ele>390</ele>
        <time>2015-11-29T11:09:24.000Z</time>
      </trkpt>
      <trkpt lat="47.51683" lon="6.77542">
        <ele>390</ele>
        <time>2015-11-29T11:09:25.000Z</time>
      </trkpt>
      <trkpt lat="47.51686" lon="6.77545">
        <ele>390</ele>
        <time>2015-11-29T11:09:26.000Z</time>
      </trkpt>
      <trkpt lat="47.51689" lon="6.77549">
        <ele>390</ele>
        <time>2015-11-29T11:09:27.000Z</time>
      </trkpt>
      <trkpt lat="47.51692" lon="6.77552">
        <ele>390</ele>
        <time>2015-11-29T11:09:28.000Z</time>
      </trkpt>
      <trkpt lat="47.51695" lon="6.77556">
        <ele>390</ele>
        <time>2015-11-29T11:09:29.000Z</time>
      </trkpt>
      <trkpt lat="47.51698" lon="6.7756">
        <ele>390</ele>
        <time>2015-11-29T11:09:30.000Z</time>
      </trkpt>
      <trkpt lat="47.51702" lon="6.77563">
        <ele>390</ele>
        <time>2015-11-29T11:09:31.000Z</time>
      </trkpt>
      <trkpt lat="47.51706" lon="6.77564">
        <ele>390</ele>
        <time>2015-11-29T11:09:32.000Z</time>
      </trkpt>
      <trkpt lat="47.5171" lon="6.77564">
        <ele>390</ele>
        <time>2015-11-29T11:09:33.000Z</time>
      </trkpt>
      <trkpt lat="47.51714" lon="6.77563">
        <ele>390</ele>
        <time>2015-11-29T11:09:34.000Z</time>
      </trkpt>
      <trkpt lat="47.51717" lon="6.77559">
        <ele>390</ele>
        <time>2015-11-29T11:09:35.000Z</time>
      </trkpt>
      <trkpt lat="47.5172" lon="6.77554">
        <ele>390</ele>
        <time>2015-11-29T11:09:36.000Z</time>
      </trkpt>
      <trkpt lat="47.51721" lon="6.77548">
        <ele>390</ele>
        <time>2015-11-29T11:09:37.000Z</time>
      </trkpt>
      <trkpt lat="47.51722" lon="6.77541">
        <ele>390</ele>
        <time>2015-11-29T11:09:38.000Z</time>
      </trkpt>
      <trkpt lat="47.51723" lon="6.77534">
        <ele>390</ele>
        <time>2015-11-29T11:09:39.000Z</time>
      </trkpt>
      <trkpt lat="47.51724" lon="6.77527">
        <ele>390</ele>
        <time>2015-11-29T11:09:40.000Z</time>
      </trkpt>
      <trkpt lat="47.51724" lon="6.7752">
        <ele>390</ele>
        <time>2015-11-29T11:09:41.000Z</time>
      </trkpt>
      <trkpt lat="47.51725" lon="6.77514">
        <ele>390</ele>
        <time>2015-11-29T11:09:42.000Z</time>
      </trkpt>
      <trkpt lat="47.51726" lon="6.77507">
        <ele>390</ele>
        <time>2015-11-29T11:09:43.000Z</time>
      </trkpt>
      <trkpt lat="47.51728" lon="6.77501">
        <ele>390</ele>
        <time>2015-11-29T11:09:44.000Z</time>
      </trkpt>
      <trkpt lat="47.51729" lon="6.77494">
        <ele>389</ele>
        <time>2015-11-29T11:09:45.000Z</time>
      </trkpt>
      <trkpt lat="47.5173" lon="6.77488">
        <ele>389</ele>
        <time>2015-11-29T11:09:46.000Z</time>
      </trkpt>
      <trkpt lat="47.51731" lon="6.77481">
        <ele>389</ele>
        <time>2015-11-29T11:09:47.000Z</time>
      </trkpt>
      <trkpt lat="47.51733" lon="6.77476">
        <ele>389</ele>
        <time>2015-11-29T11:09:48.000Z</time>
      </trkpt>
      <trkpt lat="47.51736" lon="6.77473">
        <ele>389</ele>
        <time>2015-11-29T11:09:49.000Z</time>
      </trkpt>
      <trkpt lat="47.51739" lon="6.77471">
        <ele>389</ele>
        <time>2015-11-29T11:09:50.000Z</time>
      </trkpt>
      <trkpt lat="47.51743" lon="6.77472">
        <ele>389</ele>
        <time>2015-11-29T11:09:51.000Z</time>
      </trkpt>
      <trkpt lat="47.51747" lon="6.77473">
        <ele>389</ele>
        <time>2015-11-29T11:09:52.000Z</time>
      </trkpt>
      <trkpt lat="47.5175" lon="6.77476">
        <ele>389</ele>
        <time>2015-11-29T11:09:53.000Z</time>
      </trkpt>
      <trkpt lat="47.51753" lon="6.77479">
        <ele>389</ele>
        <time>2015-11-29T11:09:54.000Z</time>
      </trkpt>
      <trkpt lat="47.51755" lon="6.77481">
        <ele>389</ele>
        <time>2015-11-29T11:09:55.000Z</time>
      </trkpt>
      <trkpt lat="47.51758" lon="6.77483">
        <ele>389</ele>
        <time>2015-11-29T11:09:56.000Z</time>
      </trkpt>
      <trkpt lat="47.5176" lon="6.77485">
        <ele>389</ele>
        <time>2015-11-29T11:09:57.000Z</time>
      </trkpt>
      <trkpt lat="47.51763" lon="6.77486">
        <ele>389</ele>
        <time>2015-11-29T11:09:58.000Z</time>
      </trkpt>
      <trkpt lat="47.51767" lon="6.77487">
        <ele>389</ele>
        <time>2015-11-29T11:09:59.000Z</time>
      </trkpt>
      <trkpt lat="47.51771" lon="6.77488">
        <ele>389</ele>
        <time>2015-11-29T11:10:00.000Z</time>
      </trkpt>
      <trkpt lat="47.51775" lon="6.77489">
        <ele>388</ele>
        <time>2015-11-29T11:10:01.000Z</time>
      </trkpt>
      <trkpt lat="47.51779" lon="6.7749">
        <ele>388</ele>
        <time>2015-11-29T11:10:02.000Z</time>
      </trkpt>
      <trkpt lat="47.51783" lon="6.77492">
        <ele>388</ele>
        <time>2015-11-29T11:10:03.000Z</time>
      </trkpt>
      <trkpt lat="47.51786" lon="6.77494">
        <ele>388</ele>
        <time>2015-11-29T11:10:04.000Z</time>
      </trkpt>
      <trkpt lat="47.5179" lon="6.77496">
        <ele>388</ele>
        <time>2015-11-29T11:10:05.000Z</time>
      </trkpt>
      <trkpt lat="47.51793" lon="6.77498">
        <ele>388</ele>
        <time>2015-11-29T11:10:06.000Z</time>
      </trkpt>
      <trkpt lat="47.51797" lon="6.77498">
        <ele>388</ele>
        <time>2015-11-29T11:10:07.000Z</time>
      </trkpt>
      <trkpt lat="47.518" lon="6.77496">
        <ele>388</ele>
        <time>2015-11-29T11:10:08.000Z</time>
      </trkpt>
      <trkpt lat="47.51803" lon="6.77493">
        <ele>388</ele>
        <time>2015-11-29T11:10:09.000Z</time>
      </trkpt>
      <trkpt lat="47.51804" lon="6.7749">
        <ele>388</ele>
        <time>2015-11-29T11:10:10.000Z</time>
      </trkpt>
      <trkpt lat="47.51805" lon="6.77486">
        <ele>388</ele>
        <time>2015-11-29T11:10:11.000Z</time>
      </trkpt>
      <trkpt lat="47.51803" lon="6.77481">
        <ele>388</ele>
        <time>2015-11-29T11:10:13.000Z</time>
      </trkpt>
      <trkpt lat="47.51802" lon="6.7748">
        <ele>388</ele>
        <time>2015-11-29T11:10:14.000Z</time>
      </trkpt>
      <trkpt lat="47.51807" lon="6.77481">
        <ele>388</ele>
        <time>2015-11-29T11:12:38.000Z</time>
      </trkpt>
      <trkpt lat="47.51807" lon="6.7748">
        <ele>388</ele>
        <time>2015-11-29T11:12:39.000Z</time>
      </trkpt>
      <trkpt lat="47.51806" lon="6.77485">
        <ele>388</ele>
        <time>2015-11-29T11:23:49.000Z</time>
      </trkpt>
    </trkseg>
  </trk>
</gpx>